<?xml version="1.0" encoding="UTF-8" standalone="no" ?>
<gpx xmlns="http://www.topografix.com/GPX/1/1" xmlns:xsi="http://www.w3.org/2001/XMLSchema-instance" xsi:schemaLocation="http://www.topografix.com/GPX/1/1 http://www.topografix.com/GPX/1/1/gpx.xsd" version="1.1" creator="VisuGPX - https://www.visugpx.com">
  <metadata>
    <name>Chalon-sur-Saône / Lyon à vélo</name>
    <desc><![CDATA[Chalon-sur-Saône / Lyon à vélo]]></desc>
  </metadata>
  <trk>
    <name><![CDATA[05-SEP-12 17:51:59]]></name>
    <trkseg>
      <trkpt lat="45.76052" lon="4.85893">
        <ele>176.06</ele>
        <time>2012-09-05T12:48:09Z</time>
      </trkpt>
      <trkpt lat="45.76051" lon="4.85877">
        <ele>176.06</ele>
        <time>2012-09-05T12:48:30Z</time>
      </trkpt>
      <trkpt lat="45.7605" lon="4.85884">
        <ele>174.62</ele>
        <time>2012-09-05T12:48:51Z</time>
      </trkpt>
      <trkpt lat="45.76053" lon="4.85884">
        <ele>176.54</ele>
        <time>2012-09-05T12:49:13Z</time>
      </trkpt>
      <trkpt lat="45.76052" lon="4.85889">
        <ele>176.06</ele>
        <time>2012-09-05T12:49:38Z</time>
      </trkpt>
      <trkpt lat="45.76051" lon="4.85901">
        <ele>177.02</ele>
        <time>2012-09-05T12:50:01Z</time>
      </trkpt>
      <trkpt lat="45.76051" lon="4.85888">
        <ele>177.02</ele>
        <time>2012-09-05T12:50:13Z</time>
      </trkpt>
      <trkpt lat="45.76052" lon="4.85885">
        <ele>177.98</ele>
        <time>2012-09-05T12:50:34Z</time>
      </trkpt>
      <trkpt lat="45.76051" lon="4.85887">
        <ele>179.9</ele>
        <time>2012-09-05T12:51:00Z</time>
      </trkpt>
      <trkpt lat="45.76051" lon="4.85889">
        <ele>180.87</ele>
        <time>2012-09-05T12:51:25Z</time>
      </trkpt>
      <trkpt lat="45.76051" lon="4.85888">
        <ele>181.35</ele>
        <time>2012-09-05T12:51:36Z</time>
      </trkpt>
      <trkpt lat="45.7605" lon="4.85884">
        <ele>181.83</ele>
        <time>2012-09-05T12:51:40Z</time>
      </trkpt>
      <trkpt lat="45.76051" lon="4.85874">
        <ele>182.31</ele>
        <time>2012-09-05T12:51:52Z</time>
      </trkpt>
      <trkpt lat="45.76051" lon="4.85874">
        <ele>182.79</ele>
        <time>2012-09-05T12:51:57Z</time>
      </trkpt>
      <trkpt lat="45.76054" lon="4.85873">
        <ele>182.79</ele>
        <time>2012-09-05T12:52:00Z</time>
      </trkpt>
      <trkpt lat="45.76069" lon="4.85864">
        <ele>183.75</ele>
        <time>2012-09-05T12:52:10Z</time>
      </trkpt>
      <trkpt lat="45.76072" lon="4.85862">
        <ele>184.23</ele>
        <time>2012-09-05T12:52:12Z</time>
      </trkpt>
      <trkpt lat="45.76081" lon="4.85858">
        <ele>184.71</ele>
        <time>2012-09-05T12:52:18Z</time>
      </trkpt>
      <trkpt lat="45.76087" lon="4.85856">
        <ele>185.19</ele>
        <time>2012-09-05T12:52:21Z</time>
      </trkpt>
      <trkpt lat="45.76092" lon="4.8584">
        <ele>185.67</ele>
        <time>2012-09-05T12:52:27Z</time>
      </trkpt>
      <trkpt lat="45.76092" lon="4.85824">
        <ele>185.67</ele>
        <time>2012-09-05T12:52:33Z</time>
      </trkpt>
      <trkpt lat="45.76095" lon="4.85818">
        <ele>186.15</ele>
        <time>2012-09-05T12:52:48Z</time>
      </trkpt>
      <trkpt lat="45.761" lon="4.85816">
        <ele>186.63</ele>
        <time>2012-09-05T12:53:10Z</time>
      </trkpt>
      <trkpt lat="45.761" lon="4.85817">
        <ele>186.63</ele>
        <time>2012-09-05T12:53:19Z</time>
      </trkpt>
      <trkpt lat="45.76108" lon="4.85808">
        <ele>186.63</ele>
        <time>2012-09-05T12:53:26Z</time>
      </trkpt>
      <trkpt lat="45.76122" lon="4.85795">
        <ele>187.11</ele>
        <time>2012-09-05T12:53:36Z</time>
      </trkpt>
      <trkpt lat="45.76159" lon="4.85781">
        <ele>187.11</ele>
        <time>2012-09-05T12:53:45Z</time>
      </trkpt>
      <trkpt lat="45.76174" lon="4.85783">
        <ele>187.11</ele>
        <time>2012-09-05T12:53:50Z</time>
      </trkpt>
      <trkpt lat="45.76182" lon="4.85788">
        <ele>187.11</ele>
        <time>2012-09-05T12:53:52Z</time>
      </trkpt>
      <trkpt lat="45.76194" lon="4.85784">
        <ele>187.11</ele>
        <time>2012-09-05T12:53:56Z</time>
      </trkpt>
      <trkpt lat="45.76227" lon="4.85786">
        <ele>187.59</ele>
        <time>2012-09-05T12:54:06Z</time>
      </trkpt>
      <trkpt lat="45.76231" lon="4.85798">
        <ele>187.59</ele>
        <time>2012-09-05T12:54:12Z</time>
      </trkpt>
      <trkpt lat="45.76237" lon="4.85812">
        <ele>187.59</ele>
        <time>2012-09-05T12:54:17Z</time>
      </trkpt>
      <trkpt lat="45.76258" lon="4.85814">
        <ele>187.59</ele>
        <time>2012-09-05T12:54:29Z</time>
      </trkpt>
      <trkpt lat="45.7627" lon="4.85812">
        <ele>188.08</ele>
        <time>2012-09-05T12:54:35Z</time>
      </trkpt>
      <trkpt lat="45.76291" lon="4.85803">
        <ele>188.08</ele>
        <time>2012-09-05T12:54:44Z</time>
      </trkpt>
      <trkpt lat="45.76302" lon="4.85803">
        <ele>187.59</ele>
        <time>2012-09-05T12:54:48Z</time>
      </trkpt>
      <trkpt lat="45.76313" lon="4.85804">
        <ele>187.59</ele>
        <time>2012-09-05T12:54:52Z</time>
      </trkpt>
      <trkpt lat="45.7634" lon="4.85818">
        <ele>188.08</ele>
        <time>2012-09-05T12:55:03Z</time>
      </trkpt>
      <trkpt lat="45.76351" lon="4.85823">
        <ele>188.08</ele>
        <time>2012-09-05T12:55:18Z</time>
      </trkpt>
      <trkpt lat="45.76353" lon="4.85824">
        <ele>188.08</ele>
        <time>2012-09-05T12:55:20Z</time>
      </trkpt>
      <trkpt lat="45.7636" lon="4.85833">
        <ele>188.08</ele>
        <time>2012-09-05T12:55:28Z</time>
      </trkpt>
      <trkpt lat="45.76376" lon="4.85822">
        <ele>188.56</ele>
        <time>2012-09-05T12:55:37Z</time>
      </trkpt>
      <trkpt lat="45.76409" lon="4.8583">
        <ele>188.08</ele>
        <time>2012-09-05T12:55:50Z</time>
      </trkpt>
      <trkpt lat="45.76444" lon="4.85849">
        <ele>188.08</ele>
        <time>2012-09-05T12:56:00Z</time>
      </trkpt>
      <trkpt lat="45.76483" lon="4.85874">
        <ele>188.56</ele>
        <time>2012-09-05T12:56:10Z</time>
      </trkpt>
      <trkpt lat="45.76514" lon="4.85892">
        <ele>189.52</ele>
        <time>2012-09-05T12:56:21Z</time>
      </trkpt>
      <trkpt lat="45.76518" lon="4.85895">
        <ele>188.08</ele>
        <time>2012-09-05T12:56:43Z</time>
      </trkpt>
      <trkpt lat="45.76519" lon="4.85897">
        <ele>188.56</ele>
        <time>2012-09-05T12:56:44Z</time>
      </trkpt>
      <trkpt lat="45.76521" lon="4.85898">
        <ele>188.56</ele>
        <time>2012-09-05T12:56:45Z</time>
      </trkpt>
      <trkpt lat="45.76523" lon="4.85899">
        <ele>188.56</ele>
        <time>2012-09-05T12:56:46Z</time>
      </trkpt>
      <trkpt lat="45.76525" lon="4.859">
        <ele>188.56</ele>
        <time>2012-09-05T12:56:47Z</time>
      </trkpt>
      <trkpt lat="45.76528" lon="4.85901">
        <ele>188.56</ele>
        <time>2012-09-05T12:56:48Z</time>
      </trkpt>
      <trkpt lat="45.7653" lon="4.85901">
        <ele>188.56</ele>
        <time>2012-09-05T12:56:49Z</time>
      </trkpt>
      <trkpt lat="45.76533" lon="4.85901">
        <ele>188.56</ele>
        <time>2012-09-05T12:56:50Z</time>
      </trkpt>
      <trkpt lat="45.76535" lon="4.85901">
        <ele>188.08</ele>
        <time>2012-09-05T12:56:51Z</time>
      </trkpt>
      <trkpt lat="45.76539" lon="4.85903">
        <ele>188.08</ele>
        <time>2012-09-05T12:56:52Z</time>
      </trkpt>
      <trkpt lat="45.76543" lon="4.85904">
        <ele>188.08</ele>
        <time>2012-09-05T12:56:53Z</time>
      </trkpt>
      <trkpt lat="45.7659" lon="4.85924">
        <ele>188.08</ele>
        <time>2012-09-05T12:57:05Z</time>
      </trkpt>
      <trkpt lat="45.76629" lon="4.85928">
        <ele>188.08</ele>
        <time>2012-09-05T12:57:19Z</time>
      </trkpt>
      <trkpt lat="45.76632" lon="4.85923">
        <ele>188.56</ele>
        <time>2012-09-05T12:57:31Z</time>
      </trkpt>
      <trkpt lat="45.76632" lon="4.85919">
        <ele>188.08</ele>
        <time>2012-09-05T12:57:32Z</time>
      </trkpt>
      <trkpt lat="45.76633" lon="4.85915">
        <ele>188.56</ele>
        <time>2012-09-05T12:57:33Z</time>
      </trkpt>
      <trkpt lat="45.76633" lon="4.85913">
        <ele>188.08</ele>
        <time>2012-09-05T12:57:34Z</time>
      </trkpt>
      <trkpt lat="45.76632" lon="4.85907">
        <ele>188.08</ele>
        <time>2012-09-05T12:57:37Z</time>
      </trkpt>
      <trkpt lat="45.7663" lon="4.85906">
        <ele>188.08</ele>
        <time>2012-09-05T12:57:38Z</time>
      </trkpt>
      <trkpt lat="45.76628" lon="4.85904">
        <ele>188.08</ele>
        <time>2012-09-05T12:57:39Z</time>
      </trkpt>
      <trkpt lat="45.76626" lon="4.859">
        <ele>188.08</ele>
        <time>2012-09-05T12:57:41Z</time>
      </trkpt>
      <trkpt lat="45.76625" lon="4.85897">
        <ele>188.08</ele>
        <time>2012-09-05T12:57:42Z</time>
      </trkpt>
      <trkpt lat="45.76624" lon="4.85836">
        <ele>188.08</ele>
        <time>2012-09-05T12:57:52Z</time>
      </trkpt>
      <trkpt lat="45.7662" lon="4.858">
        <ele>188.08</ele>
        <time>2012-09-05T12:57:58Z</time>
      </trkpt>
      <trkpt lat="45.76613" lon="4.85751">
        <ele>187.59</ele>
        <time>2012-09-05T12:58:06Z</time>
      </trkpt>
      <trkpt lat="45.76613" lon="4.85744">
        <ele>187.59</ele>
        <time>2012-09-05T12:58:07Z</time>
      </trkpt>
      <trkpt lat="45.76614" lon="4.85716">
        <ele>187.11</ele>
        <time>2012-09-05T12:58:17Z</time>
      </trkpt>
      <trkpt lat="45.76612" lon="4.85711">
        <ele>187.59</ele>
        <time>2012-09-05T12:58:38Z</time>
      </trkpt>
      <trkpt lat="45.76612" lon="4.85709">
        <ele>187.11</ele>
        <time>2012-09-05T12:58:39Z</time>
      </trkpt>
      <trkpt lat="45.76611" lon="4.85706">
        <ele>187.59</ele>
        <time>2012-09-05T12:58:40Z</time>
      </trkpt>
      <trkpt lat="45.76611" lon="4.85702">
        <ele>187.11</ele>
        <time>2012-09-05T12:58:41Z</time>
      </trkpt>
      <trkpt lat="45.76611" lon="4.85697">
        <ele>187.59</ele>
        <time>2012-09-05T12:58:42Z</time>
      </trkpt>
      <trkpt lat="45.76614" lon="4.85654">
        <ele>187.11</ele>
        <time>2012-09-05T12:58:52Z</time>
      </trkpt>
      <trkpt lat="45.76607" lon="4.85602">
        <ele>187.11</ele>
        <time>2012-09-05T12:59:02Z</time>
      </trkpt>
      <trkpt lat="45.76603" lon="4.85549">
        <ele>187.11</ele>
        <time>2012-09-05T12:59:13Z</time>
      </trkpt>
      <trkpt lat="45.76598" lon="4.85477">
        <ele>186.63</ele>
        <time>2012-09-05T12:59:27Z</time>
      </trkpt>
      <trkpt lat="45.76596" lon="4.85412">
        <ele>186.15</ele>
        <time>2012-09-05T12:59:39Z</time>
      </trkpt>
      <trkpt lat="45.76591" lon="4.85366">
        <ele>186.63</ele>
        <time>2012-09-05T12:59:49Z</time>
      </trkpt>
      <trkpt lat="45.76581" lon="4.85328">
        <ele>186.15</ele>
        <time>2012-09-05T13:00:02Z</time>
      </trkpt>
      <trkpt lat="45.76579" lon="4.85326">
        <ele>186.15</ele>
        <time>2012-09-05T13:00:10Z</time>
      </trkpt>
      <trkpt lat="45.76579" lon="4.85323">
        <ele>185.67</ele>
        <time>2012-09-05T13:00:11Z</time>
      </trkpt>
      <trkpt lat="45.7658" lon="4.85321">
        <ele>186.15</ele>
        <time>2012-09-05T13:00:12Z</time>
      </trkpt>
      <trkpt lat="45.76583" lon="4.85312">
        <ele>186.15</ele>
        <time>2012-09-05T13:00:15Z</time>
      </trkpt>
      <trkpt lat="45.76586" lon="4.85303">
        <ele>186.15</ele>
        <time>2012-09-05T13:00:17Z</time>
      </trkpt>
      <trkpt lat="45.76581" lon="4.85276">
        <ele>185.67</ele>
        <time>2012-09-05T13:00:21Z</time>
      </trkpt>
      <trkpt lat="45.76579" lon="4.85255">
        <ele>186.15</ele>
        <time>2012-09-05T13:00:24Z</time>
      </trkpt>
      <trkpt lat="45.76578" lon="4.85248">
        <ele>186.15</ele>
        <time>2012-09-05T13:00:25Z</time>
      </trkpt>
      <trkpt lat="45.76576" lon="4.85206">
        <ele>186.15</ele>
        <time>2012-09-05T13:00:32Z</time>
      </trkpt>
      <trkpt lat="45.76565" lon="4.85135">
        <ele>185.19</ele>
        <time>2012-09-05T13:00:46Z</time>
      </trkpt>
      <trkpt lat="45.76558" lon="4.85079">
        <ele>185.19</ele>
        <time>2012-09-05T13:00:55Z</time>
      </trkpt>
      <trkpt lat="45.76556" lon="4.85066">
        <ele>185.19</ele>
        <time>2012-09-05T13:00:57Z</time>
      </trkpt>
      <trkpt lat="45.76555" lon="4.85061">
        <ele>185.19</ele>
        <time>2012-09-05T13:00:58Z</time>
      </trkpt>
      <trkpt lat="45.76551" lon="4.85003">
        <ele>184.71</ele>
        <time>2012-09-05T13:01:08Z</time>
      </trkpt>
      <trkpt lat="45.76549" lon="4.84952">
        <ele>184.71</ele>
        <time>2012-09-05T13:01:18Z</time>
      </trkpt>
      <trkpt lat="45.76546" lon="4.84886">
        <ele>184.23</ele>
        <time>2012-09-05T13:01:29Z</time>
      </trkpt>
      <trkpt lat="45.76538" lon="4.84829">
        <ele>183.75</ele>
        <time>2012-09-05T13:01:41Z</time>
      </trkpt>
      <trkpt lat="45.76535" lon="4.84823">
        <ele>183.75</ele>
        <time>2012-09-05T13:01:46Z</time>
      </trkpt>
      <trkpt lat="45.76539" lon="4.8479">
        <ele>184.23</ele>
        <time>2012-09-05T13:01:55Z</time>
      </trkpt>
      <trkpt lat="45.76538" lon="4.84775">
        <ele>183.75</ele>
        <time>2012-09-05T13:01:58Z</time>
      </trkpt>
      <trkpt lat="45.76537" lon="4.84769">
        <ele>184.23</ele>
        <time>2012-09-05T13:01:59Z</time>
      </trkpt>
      <trkpt lat="45.76528" lon="4.84709">
        <ele>184.23</ele>
        <time>2012-09-05T13:02:09Z</time>
      </trkpt>
      <trkpt lat="45.76525" lon="4.84701">
        <ele>184.71</ele>
        <time>2012-09-05T13:02:10Z</time>
      </trkpt>
      <trkpt lat="45.76526" lon="4.84696">
        <ele>184.23</ele>
        <time>2012-09-05T13:02:11Z</time>
      </trkpt>
      <trkpt lat="45.76527" lon="4.84691">
        <ele>184.23</ele>
        <time>2012-09-05T13:02:12Z</time>
      </trkpt>
      <trkpt lat="45.76527" lon="4.84685">
        <ele>184.71</ele>
        <time>2012-09-05T13:02:13Z</time>
      </trkpt>
      <trkpt lat="45.76529" lon="4.84682">
        <ele>184.23</ele>
        <time>2012-09-05T13:02:14Z</time>
      </trkpt>
      <trkpt lat="45.76531" lon="4.84678">
        <ele>184.23</ele>
        <time>2012-09-05T13:02:15Z</time>
      </trkpt>
      <trkpt lat="45.76532" lon="4.84674">
        <ele>184.23</ele>
        <time>2012-09-05T13:02:16Z</time>
      </trkpt>
      <trkpt lat="45.76532" lon="4.84669">
        <ele>184.23</ele>
        <time>2012-09-05T13:02:17Z</time>
      </trkpt>
      <trkpt lat="45.76533" lon="4.84665">
        <ele>184.23</ele>
        <time>2012-09-05T13:02:18Z</time>
      </trkpt>
      <trkpt lat="45.76532" lon="4.84659">
        <ele>184.23</ele>
        <time>2012-09-05T13:02:19Z</time>
      </trkpt>
      <trkpt lat="45.7653" lon="4.84635">
        <ele>183.75</ele>
        <time>2012-09-05T13:02:23Z</time>
      </trkpt>
      <trkpt lat="45.76526" lon="4.84626">
        <ele>185.19</ele>
        <time>2012-09-05T13:02:24Z</time>
      </trkpt>
      <trkpt lat="45.76521" lon="4.84618">
        <ele>184.23</ele>
        <time>2012-09-05T13:02:25Z</time>
      </trkpt>
      <trkpt lat="45.76518" lon="4.84611">
        <ele>183.75</ele>
        <time>2012-09-05T13:02:26Z</time>
      </trkpt>
      <trkpt lat="45.76516" lon="4.84605">
        <ele>183.75</ele>
        <time>2012-09-05T13:02:27Z</time>
      </trkpt>
      <trkpt lat="45.76515" lon="4.846">
        <ele>183.75</ele>
        <time>2012-09-05T13:02:28Z</time>
      </trkpt>
      <trkpt lat="45.76513" lon="4.84594">
        <ele>183.75</ele>
        <time>2012-09-05T13:02:29Z</time>
      </trkpt>
      <trkpt lat="45.76511" lon="4.84587">
        <ele>183.75</ele>
        <time>2012-09-05T13:02:30Z</time>
      </trkpt>
      <trkpt lat="45.76507" lon="4.84567">
        <ele>183.75</ele>
        <time>2012-09-05T13:02:33Z</time>
      </trkpt>
      <trkpt lat="45.76506" lon="4.84561">
        <ele>183.75</ele>
        <time>2012-09-05T13:02:34Z</time>
      </trkpt>
      <trkpt lat="45.765" lon="4.84493">
        <ele>182.79</ele>
        <time>2012-09-05T13:02:48Z</time>
      </trkpt>
      <trkpt lat="45.76502" lon="4.84489">
        <ele>182.79</ele>
        <time>2012-09-05T13:03:12Z</time>
      </trkpt>
      <trkpt lat="45.76502" lon="4.84485">
        <ele>182.31</ele>
        <time>2012-09-05T13:03:44Z</time>
      </trkpt>
      <trkpt lat="45.76502" lon="4.84484">
        <ele>182.31</ele>
        <time>2012-09-05T13:03:46Z</time>
      </trkpt>
      <trkpt lat="45.76502" lon="4.84483">
        <ele>182.31</ele>
        <time>2012-09-05T13:03:47Z</time>
      </trkpt>
      <trkpt lat="45.76502" lon="4.8448">
        <ele>182.31</ele>
        <time>2012-09-05T13:03:48Z</time>
      </trkpt>
      <trkpt lat="45.76503" lon="4.84477">
        <ele>182.31</ele>
        <time>2012-09-05T13:03:49Z</time>
      </trkpt>
      <trkpt lat="45.76505" lon="4.84474">
        <ele>182.31</ele>
        <time>2012-09-05T13:03:50Z</time>
      </trkpt>
      <trkpt lat="45.76507" lon="4.84471">
        <ele>182.31</ele>
        <time>2012-09-05T13:03:51Z</time>
      </trkpt>
      <trkpt lat="45.76508" lon="4.84468">
        <ele>182.31</ele>
        <time>2012-09-05T13:03:52Z</time>
      </trkpt>
      <trkpt lat="45.7651" lon="4.84465">
        <ele>182.31</ele>
        <time>2012-09-05T13:03:53Z</time>
      </trkpt>
      <trkpt lat="45.76508" lon="4.84405">
        <ele>182.79</ele>
        <time>2012-09-05T13:04:06Z</time>
      </trkpt>
      <trkpt lat="45.76506" lon="4.84344">
        <ele>182.31</ele>
        <time>2012-09-05T13:04:17Z</time>
      </trkpt>
      <trkpt lat="45.76513" lon="4.84293">
        <ele>181.83</ele>
        <time>2012-09-05T13:04:28Z</time>
      </trkpt>
      <trkpt lat="45.76523" lon="4.84267">
        <ele>181.35</ele>
        <time>2012-09-05T13:04:37Z</time>
      </trkpt>
      <trkpt lat="45.76486" lon="4.842">
        <ele>181.35</ele>
        <time>2012-09-05T13:04:47Z</time>
      </trkpt>
      <trkpt lat="45.76484" lon="4.84181">
        <ele>181.83</ele>
        <time>2012-09-05T13:04:50Z</time>
      </trkpt>
      <trkpt lat="45.76484" lon="4.84177">
        <ele>181.83</ele>
        <time>2012-09-05T13:04:51Z</time>
      </trkpt>
      <trkpt lat="45.76485" lon="4.84174">
        <ele>181.83</ele>
        <time>2012-09-05T13:04:52Z</time>
      </trkpt>
      <trkpt lat="45.76486" lon="4.84174">
        <ele>181.83</ele>
        <time>2012-09-05T13:04:53Z</time>
      </trkpt>
      <trkpt lat="45.76508" lon="4.84171">
        <ele>182.31</ele>
        <time>2012-09-05T13:05:01Z</time>
      </trkpt>
      <trkpt lat="45.76548" lon="4.84167">
        <ele>182.31</ele>
        <time>2012-09-05T13:05:13Z</time>
      </trkpt>
      <trkpt lat="45.76572" lon="4.84148">
        <ele>181.83</ele>
        <time>2012-09-05T13:05:21Z</time>
      </trkpt>
      <trkpt lat="45.76572" lon="4.84145">
        <ele>181.83</ele>
        <time>2012-09-05T13:05:22Z</time>
      </trkpt>
      <trkpt lat="45.76572" lon="4.84141">
        <ele>182.31</ele>
        <time>2012-09-05T13:05:23Z</time>
      </trkpt>
      <trkpt lat="45.76565" lon="4.84085">
        <ele>183.27</ele>
        <time>2012-09-05T13:05:35Z</time>
      </trkpt>
      <trkpt lat="45.76564" lon="4.84074">
        <ele>183.75</ele>
        <time>2012-09-05T13:05:40Z</time>
      </trkpt>
      <trkpt lat="45.76565" lon="4.84071">
        <ele>184.23</ele>
        <time>2012-09-05T13:05:41Z</time>
      </trkpt>
      <trkpt lat="45.76564" lon="4.84068">
        <ele>184.23</ele>
        <time>2012-09-05T13:05:42Z</time>
      </trkpt>
      <trkpt lat="45.76564" lon="4.84064">
        <ele>183.75</ele>
        <time>2012-09-05T13:05:43Z</time>
      </trkpt>
      <trkpt lat="45.76563" lon="4.8406">
        <ele>184.23</ele>
        <time>2012-09-05T13:05:44Z</time>
      </trkpt>
      <trkpt lat="45.76562" lon="4.84056">
        <ele>184.23</ele>
        <time>2012-09-05T13:05:45Z</time>
      </trkpt>
      <trkpt lat="45.76558" lon="4.84008">
        <ele>184.23</ele>
        <time>2012-09-05T13:05:55Z</time>
      </trkpt>
      <trkpt lat="45.76555" lon="4.83952">
        <ele>184.23</ele>
        <time>2012-09-05T13:06:06Z</time>
      </trkpt>
      <trkpt lat="45.76551" lon="4.839">
        <ele>183.75</ele>
        <time>2012-09-05T13:06:16Z</time>
      </trkpt>
      <trkpt lat="45.76547" lon="4.83852">
        <ele>182.31</ele>
        <time>2012-09-05T13:06:27Z</time>
      </trkpt>
      <trkpt lat="45.76548" lon="4.83837">
        <ele>181.35</ele>
        <time>2012-09-05T13:06:36Z</time>
      </trkpt>
      <trkpt lat="45.76547" lon="4.83834">
        <ele>180.87</ele>
        <time>2012-09-05T13:06:37Z</time>
      </trkpt>
      <trkpt lat="45.76547" lon="4.83831">
        <ele>181.35</ele>
        <time>2012-09-05T13:06:38Z</time>
      </trkpt>
      <trkpt lat="45.76546" lon="4.83828">
        <ele>180.87</ele>
        <time>2012-09-05T13:06:39Z</time>
      </trkpt>
      <trkpt lat="45.76547" lon="4.83826">
        <ele>180.87</ele>
        <time>2012-09-05T13:06:40Z</time>
      </trkpt>
      <trkpt lat="45.76547" lon="4.83824">
        <ele>180.87</ele>
        <time>2012-09-05T13:06:41Z</time>
      </trkpt>
      <trkpt lat="45.76548" lon="4.83822">
        <ele>180.87</ele>
        <time>2012-09-05T13:06:42Z</time>
      </trkpt>
      <trkpt lat="45.76548" lon="4.8382">
        <ele>180.87</ele>
        <time>2012-09-05T13:06:43Z</time>
      </trkpt>
      <trkpt lat="45.76548" lon="4.83818">
        <ele>180.87</ele>
        <time>2012-09-05T13:06:44Z</time>
      </trkpt>
      <trkpt lat="45.76547" lon="4.83816">
        <ele>180.87</ele>
        <time>2012-09-05T13:06:45Z</time>
      </trkpt>
      <trkpt lat="45.76545" lon="4.83813">
        <ele>180.87</ele>
        <time>2012-09-05T13:06:48Z</time>
      </trkpt>
      <trkpt lat="45.76546" lon="4.83811">
        <ele>180.38</ele>
        <time>2012-09-05T13:06:49Z</time>
      </trkpt>
      <trkpt lat="45.76546" lon="4.83809">
        <ele>180.38</ele>
        <time>2012-09-05T13:06:50Z</time>
      </trkpt>
      <trkpt lat="45.76545" lon="4.83807">
        <ele>180.38</ele>
        <time>2012-09-05T13:06:51Z</time>
      </trkpt>
      <trkpt lat="45.76544" lon="4.83806">
        <ele>180.38</ele>
        <time>2012-09-05T13:06:52Z</time>
      </trkpt>
      <trkpt lat="45.76516" lon="4.83803">
        <ele>179.9</ele>
        <time>2012-09-05T13:07:02Z</time>
      </trkpt>
      <trkpt lat="45.76506" lon="4.838">
        <ele>179.9</ele>
        <time>2012-09-05T13:07:06Z</time>
      </trkpt>
      <trkpt lat="45.76505" lon="4.83797">
        <ele>179.9</ele>
        <time>2012-09-05T13:07:07Z</time>
      </trkpt>
      <trkpt lat="45.76505" lon="4.83793">
        <ele>179.9</ele>
        <time>2012-09-05T13:07:08Z</time>
      </trkpt>
      <trkpt lat="45.76509" lon="4.83758">
        <ele>179.9</ele>
        <time>2012-09-05T13:07:16Z</time>
      </trkpt>
      <trkpt lat="45.76508" lon="4.83753">
        <ele>179.9</ele>
        <time>2012-09-05T13:07:17Z</time>
      </trkpt>
      <trkpt lat="45.76506" lon="4.83712">
        <ele>179.42</ele>
        <time>2012-09-05T13:07:26Z</time>
      </trkpt>
      <trkpt lat="45.76503" lon="4.83707">
        <ele>179.42</ele>
        <time>2012-09-05T13:07:27Z</time>
      </trkpt>
      <trkpt lat="45.76502" lon="4.83704">
        <ele>179.42</ele>
        <time>2012-09-05T13:07:28Z</time>
      </trkpt>
      <trkpt lat="45.76501" lon="4.83697">
        <ele>179.42</ele>
        <time>2012-09-05T13:07:31Z</time>
      </trkpt>
      <trkpt lat="45.76502" lon="4.83695">
        <ele>179.42</ele>
        <time>2012-09-05T13:07:32Z</time>
      </trkpt>
      <trkpt lat="45.76504" lon="4.8369">
        <ele>179.42</ele>
        <time>2012-09-05T13:07:36Z</time>
      </trkpt>
      <trkpt lat="45.76505" lon="4.83687">
        <ele>179.42</ele>
        <time>2012-09-05T13:07:37Z</time>
      </trkpt>
      <trkpt lat="45.76505" lon="4.83684">
        <ele>179.42</ele>
        <time>2012-09-05T13:07:38Z</time>
      </trkpt>
      <trkpt lat="45.76506" lon="4.83681">
        <ele>179.42</ele>
        <time>2012-09-05T13:07:39Z</time>
      </trkpt>
      <trkpt lat="45.76507" lon="4.83678">
        <ele>179.42</ele>
        <time>2012-09-05T13:07:40Z</time>
      </trkpt>
      <trkpt lat="45.76507" lon="4.83675">
        <ele>178.94</ele>
        <time>2012-09-05T13:07:41Z</time>
      </trkpt>
      <trkpt lat="45.76508" lon="4.83672">
        <ele>178.94</ele>
        <time>2012-09-05T13:07:42Z</time>
      </trkpt>
      <trkpt lat="45.76498" lon="4.83612">
        <ele>178.94</ele>
        <time>2012-09-05T13:07:54Z</time>
      </trkpt>
      <trkpt lat="45.76498" lon="4.83609">
        <ele>178.94</ele>
        <time>2012-09-05T13:07:55Z</time>
      </trkpt>
      <trkpt lat="45.76498" lon="4.83607">
        <ele>178.94</ele>
        <time>2012-09-05T13:07:56Z</time>
      </trkpt>
      <trkpt lat="45.76497" lon="4.83603">
        <ele>178.94</ele>
        <time>2012-09-05T13:08:00Z</time>
      </trkpt>
      <trkpt lat="45.76497" lon="4.83601">
        <ele>178.46</ele>
        <time>2012-09-05T13:08:01Z</time>
      </trkpt>
      <trkpt lat="45.76497" lon="4.83591">
        <ele>178.94</ele>
        <time>2012-09-05T13:08:04Z</time>
      </trkpt>
      <trkpt lat="45.76498" lon="4.83589">
        <ele>178.94</ele>
        <time>2012-09-05T13:08:05Z</time>
      </trkpt>
      <trkpt lat="45.765" lon="4.83588">
        <ele>178.94</ele>
        <time>2012-09-05T13:08:06Z</time>
      </trkpt>
      <trkpt lat="45.76501" lon="4.83585">
        <ele>178.94</ele>
        <time>2012-09-05T13:08:07Z</time>
      </trkpt>
      <trkpt lat="45.76502" lon="4.83583">
        <ele>179.42</ele>
        <time>2012-09-05T13:08:08Z</time>
      </trkpt>
      <trkpt lat="45.76502" lon="4.8358">
        <ele>179.42</ele>
        <time>2012-09-05T13:08:09Z</time>
      </trkpt>
      <trkpt lat="45.76503" lon="4.83576">
        <ele>179.42</ele>
        <time>2012-09-05T13:08:10Z</time>
      </trkpt>
      <trkpt lat="45.76502" lon="4.83523">
        <ele>179.42</ele>
        <time>2012-09-05T13:08:21Z</time>
      </trkpt>
      <trkpt lat="45.76508" lon="4.83493">
        <ele>180.87</ele>
        <time>2012-09-05T13:08:28Z</time>
      </trkpt>
      <trkpt lat="45.76494" lon="4.83444">
        <ele>179.9</ele>
        <time>2012-09-05T13:08:40Z</time>
      </trkpt>
      <trkpt lat="45.76496" lon="4.83437">
        <ele>179.9</ele>
        <time>2012-09-05T13:08:42Z</time>
      </trkpt>
      <trkpt lat="45.76512" lon="4.83403">
        <ele>180.87</ele>
        <time>2012-09-05T13:08:55Z</time>
      </trkpt>
      <trkpt lat="45.76513" lon="4.8338">
        <ele>178.94</ele>
        <time>2012-09-05T13:09:08Z</time>
      </trkpt>
      <trkpt lat="45.76508" lon="4.83369">
        <ele>179.42</ele>
        <time>2012-09-05T13:09:11Z</time>
      </trkpt>
      <trkpt lat="45.76501" lon="4.8336">
        <ele>179.42</ele>
        <time>2012-09-05T13:09:28Z</time>
      </trkpt>
      <trkpt lat="45.76499" lon="4.83357">
        <ele>179.42</ele>
        <time>2012-09-05T13:09:56Z</time>
      </trkpt>
      <trkpt lat="45.765" lon="4.83348">
        <ele>179.42</ele>
        <time>2012-09-05T13:09:58Z</time>
      </trkpt>
      <trkpt lat="45.765" lon="4.83345">
        <ele>179.42</ele>
        <time>2012-09-05T13:09:59Z</time>
      </trkpt>
      <trkpt lat="45.76477" lon="4.83301">
        <ele>179.9</ele>
        <time>2012-09-05T13:10:09Z</time>
      </trkpt>
      <trkpt lat="45.76473" lon="4.83251">
        <ele>179.42</ele>
        <time>2012-09-05T13:10:19Z</time>
      </trkpt>
      <trkpt lat="45.76464" lon="4.83209">
        <ele>179.42</ele>
        <time>2012-09-05T13:10:30Z</time>
      </trkpt>
      <trkpt lat="45.76463" lon="4.83205">
        <ele>178.94</ele>
        <time>2012-09-05T13:10:49Z</time>
      </trkpt>
      <trkpt lat="45.76458" lon="4.83201">
        <ele>178.94</ele>
        <time>2012-09-05T13:11:13Z</time>
      </trkpt>
      <trkpt lat="45.76457" lon="4.83199">
        <ele>178.94</ele>
        <time>2012-09-05T13:11:14Z</time>
      </trkpt>
      <trkpt lat="45.76457" lon="4.83193">
        <ele>178.94</ele>
        <time>2012-09-05T13:11:16Z</time>
      </trkpt>
      <trkpt lat="45.7646" lon="4.83182">
        <ele>179.42</ele>
        <time>2012-09-05T13:11:19Z</time>
      </trkpt>
      <trkpt lat="45.76477" lon="4.83165">
        <ele>179.9</ele>
        <time>2012-09-05T13:11:28Z</time>
      </trkpt>
      <trkpt lat="45.76478" lon="4.83165">
        <ele>179.9</ele>
        <time>2012-09-05T13:11:29Z</time>
      </trkpt>
      <trkpt lat="45.7648" lon="4.83165">
        <ele>179.42</ele>
        <time>2012-09-05T13:11:30Z</time>
      </trkpt>
      <trkpt lat="45.7649" lon="4.83153">
        <ele>179.9</ele>
        <time>2012-09-05T13:11:36Z</time>
      </trkpt>
      <trkpt lat="45.7649" lon="4.83149">
        <ele>179.9</ele>
        <time>2012-09-05T13:11:37Z</time>
      </trkpt>
      <trkpt lat="45.76491" lon="4.83146">
        <ele>179.9</ele>
        <time>2012-09-05T13:11:49Z</time>
      </trkpt>
      <trkpt lat="45.76491" lon="4.83144">
        <ele>179.9</ele>
        <time>2012-09-05T13:12:18Z</time>
      </trkpt>
      <trkpt lat="45.76491" lon="4.83144">
        <ele>179.9</ele>
        <time>2012-09-05T13:12:25Z</time>
      </trkpt>
      <trkpt lat="45.76493" lon="4.83143">
        <ele>179.42</ele>
        <time>2012-09-05T13:12:26Z</time>
      </trkpt>
      <trkpt lat="45.76496" lon="4.83141">
        <ele>179.42</ele>
        <time>2012-09-05T13:12:27Z</time>
      </trkpt>
      <trkpt lat="45.76499" lon="4.8314">
        <ele>179.42</ele>
        <time>2012-09-05T13:12:28Z</time>
      </trkpt>
      <trkpt lat="45.76502" lon="4.83138">
        <ele>179.42</ele>
        <time>2012-09-05T13:12:29Z</time>
      </trkpt>
      <trkpt lat="45.76505" lon="4.83136">
        <ele>180.38</ele>
        <time>2012-09-05T13:12:30Z</time>
      </trkpt>
      <trkpt lat="45.76508" lon="4.83135">
        <ele>179.42</ele>
        <time>2012-09-05T13:12:31Z</time>
      </trkpt>
      <trkpt lat="45.76511" lon="4.83133">
        <ele>178.94</ele>
        <time>2012-09-05T13:12:32Z</time>
      </trkpt>
      <trkpt lat="45.76562" lon="4.83102">
        <ele>178.46</ele>
        <time>2012-09-05T13:12:46Z</time>
      </trkpt>
      <trkpt lat="45.76577" lon="4.83096">
        <ele>177.98</ele>
        <time>2012-09-05T13:12:55Z</time>
      </trkpt>
      <trkpt lat="45.76579" lon="4.83094">
        <ele>177.98</ele>
        <time>2012-09-05T13:12:58Z</time>
      </trkpt>
      <trkpt lat="45.76584" lon="4.8309">
        <ele>177.98</ele>
        <time>2012-09-05T13:13:00Z</time>
      </trkpt>
      <trkpt lat="45.76586" lon="4.83088">
        <ele>177.98</ele>
        <time>2012-09-05T13:13:01Z</time>
      </trkpt>
      <trkpt lat="45.7661" lon="4.83066">
        <ele>178.46</ele>
        <time>2012-09-05T13:13:12Z</time>
      </trkpt>
      <trkpt lat="45.76641" lon="4.83042">
        <ele>178.94</ele>
        <time>2012-09-05T13:13:22Z</time>
      </trkpt>
      <trkpt lat="45.76659" lon="4.83025">
        <ele>179.42</ele>
        <time>2012-09-05T13:13:29Z</time>
      </trkpt>
      <trkpt lat="45.76661" lon="4.83021">
        <ele>179.42</ele>
        <time>2012-09-05T13:13:30Z</time>
      </trkpt>
      <trkpt lat="45.76662" lon="4.83017">
        <ele>179.42</ele>
        <time>2012-09-05T13:13:31Z</time>
      </trkpt>
      <trkpt lat="45.76662" lon="4.83009">
        <ele>179.9</ele>
        <time>2012-09-05T13:13:33Z</time>
      </trkpt>
      <trkpt lat="45.76663" lon="4.83007">
        <ele>179.9</ele>
        <time>2012-09-05T13:13:41Z</time>
      </trkpt>
      <trkpt lat="45.76664" lon="4.83006">
        <ele>179.9</ele>
        <time>2012-09-05T13:13:42Z</time>
      </trkpt>
      <trkpt lat="45.76666" lon="4.83004">
        <ele>179.9</ele>
        <time>2012-09-05T13:13:43Z</time>
      </trkpt>
      <trkpt lat="45.76667" lon="4.83001">
        <ele>179.9</ele>
        <time>2012-09-05T13:13:44Z</time>
      </trkpt>
      <trkpt lat="45.76668" lon="4.82997">
        <ele>179.9</ele>
        <time>2012-09-05T13:13:45Z</time>
      </trkpt>
      <trkpt lat="45.76667" lon="4.82993">
        <ele>180.38</ele>
        <time>2012-09-05T13:13:46Z</time>
      </trkpt>
      <trkpt lat="45.76666" lon="4.8299">
        <ele>180.38</ele>
        <time>2012-09-05T13:13:47Z</time>
      </trkpt>
      <trkpt lat="45.76664" lon="4.82985">
        <ele>180.38</ele>
        <time>2012-09-05T13:13:48Z</time>
      </trkpt>
      <trkpt lat="45.76663" lon="4.8298">
        <ele>180.38</ele>
        <time>2012-09-05T13:13:49Z</time>
      </trkpt>
      <trkpt lat="45.76634" lon="4.82894">
        <ele>180.87</ele>
        <time>2012-09-05T13:14:06Z</time>
      </trkpt>
      <trkpt lat="45.76637" lon="4.82868">
        <ele>179.9</ele>
        <time>2012-09-05T13:14:12Z</time>
      </trkpt>
      <trkpt lat="45.7664" lon="4.82864">
        <ele>179.9</ele>
        <time>2012-09-05T13:14:13Z</time>
      </trkpt>
      <trkpt lat="45.76664" lon="4.82833">
        <ele>178.94</ele>
        <time>2012-09-05T13:14:24Z</time>
      </trkpt>
      <trkpt lat="45.76679" lon="4.82809">
        <ele>178.46</ele>
        <time>2012-09-05T13:14:32Z</time>
      </trkpt>
      <trkpt lat="45.76722" lon="4.82748">
        <ele>177.98</ele>
        <time>2012-09-05T13:14:48Z</time>
      </trkpt>
      <trkpt lat="45.76738" lon="4.82699">
        <ele>177.98</ele>
        <time>2012-09-05T13:14:58Z</time>
      </trkpt>
      <trkpt lat="45.76754" lon="4.82616">
        <ele>178.46</ele>
        <time>2012-09-05T13:15:14Z</time>
      </trkpt>
      <trkpt lat="45.76754" lon="4.82531">
        <ele>178.46</ele>
        <time>2012-09-05T13:15:29Z</time>
      </trkpt>
      <trkpt lat="45.76752" lon="4.8248">
        <ele>178.46</ele>
        <time>2012-09-05T13:15:38Z</time>
      </trkpt>
      <trkpt lat="45.7675" lon="4.82474">
        <ele>178.46</ele>
        <time>2012-09-05T13:15:48Z</time>
      </trkpt>
      <trkpt lat="45.76748" lon="4.82473">
        <ele>178.46</ele>
        <time>2012-09-05T13:16:14Z</time>
      </trkpt>
      <trkpt lat="45.76748" lon="4.82473">
        <ele>178.46</ele>
        <time>2012-09-05T13:16:15Z</time>
      </trkpt>
      <trkpt lat="45.76748" lon="4.82472">
        <ele>178.46</ele>
        <time>2012-09-05T13:16:16Z</time>
      </trkpt>
      <trkpt lat="45.76748" lon="4.8247">
        <ele>178.46</ele>
        <time>2012-09-05T13:16:17Z</time>
      </trkpt>
      <trkpt lat="45.76747" lon="4.82467">
        <ele>178.46</ele>
        <time>2012-09-05T13:16:18Z</time>
      </trkpt>
      <trkpt lat="45.76746" lon="4.82463">
        <ele>178.46</ele>
        <time>2012-09-05T13:16:19Z</time>
      </trkpt>
      <trkpt lat="45.76741" lon="4.82399">
        <ele>179.9</ele>
        <time>2012-09-05T13:16:32Z</time>
      </trkpt>
      <trkpt lat="45.76741" lon="4.82328">
        <ele>178.46</ele>
        <time>2012-09-05T13:16:46Z</time>
      </trkpt>
      <trkpt lat="45.7674" lon="4.82255">
        <ele>178.46</ele>
        <time>2012-09-05T13:17:01Z</time>
      </trkpt>
      <trkpt lat="45.76737" lon="4.82238">
        <ele>178.46</ele>
        <time>2012-09-05T13:17:04Z</time>
      </trkpt>
      <trkpt lat="45.76716" lon="4.8217">
        <ele>177.98</ele>
        <time>2012-09-05T13:17:17Z</time>
      </trkpt>
      <trkpt lat="45.76686" lon="4.82079">
        <ele>177.98</ele>
        <time>2012-09-05T13:17:33Z</time>
      </trkpt>
      <trkpt lat="45.7668" lon="4.82055">
        <ele>177.98</ele>
        <time>2012-09-05T13:17:37Z</time>
      </trkpt>
      <trkpt lat="45.76669" lon="4.82009">
        <ele>178.46</ele>
        <time>2012-09-05T13:17:45Z</time>
      </trkpt>
      <trkpt lat="45.76667" lon="4.82003">
        <ele>178.46</ele>
        <time>2012-09-05T13:17:46Z</time>
      </trkpt>
      <trkpt lat="45.76666" lon="4.81997">
        <ele>177.98</ele>
        <time>2012-09-05T13:17:47Z</time>
      </trkpt>
      <trkpt lat="45.76664" lon="4.81992">
        <ele>178.46</ele>
        <time>2012-09-05T13:17:48Z</time>
      </trkpt>
      <trkpt lat="45.76663" lon="4.81987">
        <ele>178.46</ele>
        <time>2012-09-05T13:17:49Z</time>
      </trkpt>
      <trkpt lat="45.76661" lon="4.81981">
        <ele>177.98</ele>
        <time>2012-09-05T13:17:50Z</time>
      </trkpt>
      <trkpt lat="45.76659" lon="4.8197">
        <ele>178.46</ele>
        <time>2012-09-05T13:17:52Z</time>
      </trkpt>
      <trkpt lat="45.76658" lon="4.81964">
        <ele>178.46</ele>
        <time>2012-09-05T13:17:53Z</time>
      </trkpt>
      <trkpt lat="45.76657" lon="4.81958">
        <ele>178.46</ele>
        <time>2012-09-05T13:17:54Z</time>
      </trkpt>
      <trkpt lat="45.76655" lon="4.81952">
        <ele>178.46</ele>
        <time>2012-09-05T13:17:55Z</time>
      </trkpt>
      <trkpt lat="45.76654" lon="4.81945">
        <ele>178.46</ele>
        <time>2012-09-05T13:17:56Z</time>
      </trkpt>
      <trkpt lat="45.76653" lon="4.81938">
        <ele>178.46</ele>
        <time>2012-09-05T13:17:57Z</time>
      </trkpt>
      <trkpt lat="45.76652" lon="4.81931">
        <ele>178.46</ele>
        <time>2012-09-05T13:17:58Z</time>
      </trkpt>
      <trkpt lat="45.76649" lon="4.81904">
        <ele>178.94</ele>
        <time>2012-09-05T13:18:02Z</time>
      </trkpt>
      <trkpt lat="45.76647" lon="4.81856">
        <ele>177.98</ele>
        <time>2012-09-05T13:18:09Z</time>
      </trkpt>
      <trkpt lat="45.76647" lon="4.81849">
        <ele>178.46</ele>
        <time>2012-09-05T13:18:10Z</time>
      </trkpt>
      <trkpt lat="45.76653" lon="4.8178">
        <ele>177.98</ele>
        <time>2012-09-05T13:18:21Z</time>
      </trkpt>
      <trkpt lat="45.76674" lon="4.81681">
        <ele>177.5</ele>
        <time>2012-09-05T13:18:36Z</time>
      </trkpt>
      <trkpt lat="45.76677" lon="4.81668">
        <ele>177.5</ele>
        <time>2012-09-05T13:18:38Z</time>
      </trkpt>
      <trkpt lat="45.7669" lon="4.81597">
        <ele>177.5</ele>
        <time>2012-09-05T13:18:49Z</time>
      </trkpt>
      <trkpt lat="45.76716" lon="4.81511">
        <ele>177.02</ele>
        <time>2012-09-05T13:19:05Z</time>
      </trkpt>
      <trkpt lat="45.76718" lon="4.81506">
        <ele>177.02</ele>
        <time>2012-09-05T13:19:06Z</time>
      </trkpt>
      <trkpt lat="45.76728" lon="4.81477">
        <ele>177.02</ele>
        <time>2012-09-05T13:19:12Z</time>
      </trkpt>
      <trkpt lat="45.7673" lon="4.81472">
        <ele>177.5</ele>
        <time>2012-09-05T13:19:13Z</time>
      </trkpt>
      <trkpt lat="45.76732" lon="4.81466">
        <ele>177.5</ele>
        <time>2012-09-05T13:19:14Z</time>
      </trkpt>
      <trkpt lat="45.76738" lon="4.81448">
        <ele>177.02</ele>
        <time>2012-09-05T13:19:17Z</time>
      </trkpt>
      <trkpt lat="45.76758" lon="4.81387">
        <ele>177.02</ele>
        <time>2012-09-05T13:19:27Z</time>
      </trkpt>
      <trkpt lat="45.7676" lon="4.81381">
        <ele>177.02</ele>
        <time>2012-09-05T13:19:28Z</time>
      </trkpt>
      <trkpt lat="45.76794" lon="4.8133">
        <ele>176.54</ele>
        <time>2012-09-05T13:19:43Z</time>
      </trkpt>
      <trkpt lat="45.76797" lon="4.8133">
        <ele>176.54</ele>
        <time>2012-09-05T13:20:04Z</time>
      </trkpt>
      <trkpt lat="45.76798" lon="4.8133">
        <ele>176.54</ele>
        <time>2012-09-05T13:20:39Z</time>
      </trkpt>
      <trkpt lat="45.76799" lon="4.81331">
        <ele>176.54</ele>
        <time>2012-09-05T13:21:13Z</time>
      </trkpt>
      <trkpt lat="45.76799" lon="4.81331">
        <ele>175.58</ele>
        <time>2012-09-05T13:21:44Z</time>
      </trkpt>
      <trkpt lat="45.76799" lon="4.8133">
        <ele>175.58</ele>
        <time>2012-09-05T13:22:21Z</time>
      </trkpt>
      <trkpt lat="45.76799" lon="4.8133">
        <ele>175.1</ele>
        <time>2012-09-05T13:22:53Z</time>
      </trkpt>
      <trkpt lat="45.76799" lon="4.8133">
        <ele>175.58</ele>
        <time>2012-09-05T13:23:23Z</time>
      </trkpt>
      <trkpt lat="45.768" lon="4.81331">
        <ele>175.1</ele>
        <time>2012-09-05T13:23:58Z</time>
      </trkpt>
      <trkpt lat="45.76801" lon="4.81331">
        <ele>174.62</ele>
        <time>2012-09-05T13:24:23Z</time>
      </trkpt>
      <trkpt lat="45.76801" lon="4.81332">
        <ele>175.58</ele>
        <time>2012-09-05T13:24:51Z</time>
      </trkpt>
      <trkpt lat="45.76801" lon="4.81332">
        <ele>175.1</ele>
        <time>2012-09-05T13:25:17Z</time>
      </trkpt>
      <trkpt lat="45.76798" lon="4.81331">
        <ele>174.62</ele>
        <time>2012-09-05T13:25:51Z</time>
      </trkpt>
      <trkpt lat="45.76798" lon="4.81331">
        <ele>174.62</ele>
        <time>2012-09-05T13:26:22Z</time>
      </trkpt>
      <trkpt lat="45.76799" lon="4.81329">
        <ele>175.1</ele>
        <time>2012-09-05T13:26:27Z</time>
      </trkpt>
      <trkpt lat="45.76801" lon="4.81327">
        <ele>175.1</ele>
        <time>2012-09-05T13:26:39Z</time>
      </trkpt>
      <trkpt lat="45.76801" lon="4.81325">
        <ele>174.62</ele>
        <time>2012-09-05T13:26:42Z</time>
      </trkpt>
      <trkpt lat="45.76803" lon="4.81323">
        <ele>174.62</ele>
        <time>2012-09-05T13:26:43Z</time>
      </trkpt>
      <trkpt lat="45.76804" lon="4.81322">
        <ele>174.62</ele>
        <time>2012-09-05T13:26:44Z</time>
      </trkpt>
      <trkpt lat="45.76806" lon="4.8132">
        <ele>174.62</ele>
        <time>2012-09-05T13:26:45Z</time>
      </trkpt>
      <trkpt lat="45.76808" lon="4.81318">
        <ele>174.62</ele>
        <time>2012-09-05T13:26:46Z</time>
      </trkpt>
      <trkpt lat="45.76851" lon="4.81287">
        <ele>175.1</ele>
        <time>2012-09-05T13:27:00Z</time>
      </trkpt>
      <trkpt lat="45.76884" lon="4.81277">
        <ele>175.1</ele>
        <time>2012-09-05T13:27:08Z</time>
      </trkpt>
      <trkpt lat="45.76932" lon="4.81274">
        <ele>176.06</ele>
        <time>2012-09-05T13:27:20Z</time>
      </trkpt>
      <trkpt lat="45.7699" lon="4.81262">
        <ele>177.02</ele>
        <time>2012-09-05T13:27:37Z</time>
      </trkpt>
      <trkpt lat="45.77008" lon="4.8125">
        <ele>177.02</ele>
        <time>2012-09-05T13:27:46Z</time>
      </trkpt>
      <trkpt lat="45.77049" lon="4.81227">
        <ele>175.58</ele>
        <time>2012-09-05T13:28:00Z</time>
      </trkpt>
      <trkpt lat="45.77093" lon="4.81205">
        <ele>175.58</ele>
        <time>2012-09-05T13:28:13Z</time>
      </trkpt>
      <trkpt lat="45.77146" lon="4.81184">
        <ele>176.06</ele>
        <time>2012-09-05T13:28:26Z</time>
      </trkpt>
      <trkpt lat="45.77173" lon="4.81165">
        <ele>176.06</ele>
        <time>2012-09-05T13:28:35Z</time>
      </trkpt>
      <trkpt lat="45.77204" lon="4.81139">
        <ele>176.06</ele>
        <time>2012-09-05T13:28:45Z</time>
      </trkpt>
      <trkpt lat="45.77225" lon="4.81115">
        <ele>176.06</ele>
        <time>2012-09-05T13:28:53Z</time>
      </trkpt>
      <trkpt lat="45.7726" lon="4.81069">
        <ele>176.06</ele>
        <time>2012-09-05T13:29:05Z</time>
      </trkpt>
      <trkpt lat="45.77306" lon="4.81019">
        <ele>176.06</ele>
        <time>2012-09-05T13:29:19Z</time>
      </trkpt>
      <trkpt lat="45.77349" lon="4.80974">
        <ele>176.06</ele>
        <time>2012-09-05T13:29:33Z</time>
      </trkpt>
      <trkpt lat="45.77387" lon="4.80941">
        <ele>176.06</ele>
        <time>2012-09-05T13:29:44Z</time>
      </trkpt>
      <trkpt lat="45.77397" lon="4.80935">
        <ele>175.58</ele>
        <time>2012-09-05T13:29:48Z</time>
      </trkpt>
      <trkpt lat="45.77421" lon="4.80911">
        <ele>175.58</ele>
        <time>2012-09-05T13:29:57Z</time>
      </trkpt>
      <trkpt lat="45.77453" lon="4.80882">
        <ele>176.06</ele>
        <time>2012-09-05T13:30:08Z</time>
      </trkpt>
      <trkpt lat="45.77479" lon="4.80861">
        <ele>176.54</ele>
        <time>2012-09-05T13:30:20Z</time>
      </trkpt>
      <trkpt lat="45.77486" lon="4.80858">
        <ele>176.06</ele>
        <time>2012-09-05T13:30:26Z</time>
      </trkpt>
      <trkpt lat="45.77487" lon="4.80856">
        <ele>176.06</ele>
        <time>2012-09-05T13:30:27Z</time>
      </trkpt>
      <trkpt lat="45.77488" lon="4.80854">
        <ele>176.06</ele>
        <time>2012-09-05T13:30:28Z</time>
      </trkpt>
      <trkpt lat="45.77488" lon="4.80851">
        <ele>176.06</ele>
        <time>2012-09-05T13:30:29Z</time>
      </trkpt>
      <trkpt lat="45.77489" lon="4.80848">
        <ele>176.54</ele>
        <time>2012-09-05T13:30:30Z</time>
      </trkpt>
      <trkpt lat="45.77489" lon="4.80844">
        <ele>176.54</ele>
        <time>2012-09-05T13:30:31Z</time>
      </trkpt>
      <trkpt lat="45.77489" lon="4.8084">
        <ele>176.06</ele>
        <time>2012-09-05T13:30:32Z</time>
      </trkpt>
      <trkpt lat="45.77489" lon="4.80836">
        <ele>176.06</ele>
        <time>2012-09-05T13:30:33Z</time>
      </trkpt>
      <trkpt lat="45.77489" lon="4.80832">
        <ele>175.58</ele>
        <time>2012-09-05T13:30:34Z</time>
      </trkpt>
      <trkpt lat="45.7749" lon="4.80825">
        <ele>175.58</ele>
        <time>2012-09-05T13:30:36Z</time>
      </trkpt>
      <trkpt lat="45.77491" lon="4.80822">
        <ele>175.58</ele>
        <time>2012-09-05T13:30:37Z</time>
      </trkpt>
      <trkpt lat="45.77492" lon="4.8082">
        <ele>175.1</ele>
        <time>2012-09-05T13:30:38Z</time>
      </trkpt>
      <trkpt lat="45.77493" lon="4.80818">
        <ele>176.54</ele>
        <time>2012-09-05T13:30:39Z</time>
      </trkpt>
      <trkpt lat="45.77495" lon="4.80815">
        <ele>175.58</ele>
        <time>2012-09-05T13:30:40Z</time>
      </trkpt>
      <trkpt lat="45.77498" lon="4.80813">
        <ele>175.58</ele>
        <time>2012-09-05T13:30:41Z</time>
      </trkpt>
      <trkpt lat="45.77501" lon="4.80813">
        <ele>176.06</ele>
        <time>2012-09-05T13:30:44Z</time>
      </trkpt>
      <trkpt lat="45.77504" lon="4.80812">
        <ele>176.06</ele>
        <time>2012-09-05T13:30:45Z</time>
      </trkpt>
      <trkpt lat="45.77517" lon="4.80808">
        <ele>175.58</ele>
        <time>2012-09-05T13:30:59Z</time>
      </trkpt>
      <trkpt lat="45.77531" lon="4.80809">
        <ele>175.1</ele>
        <time>2012-09-05T13:31:17Z</time>
      </trkpt>
      <trkpt lat="45.77563" lon="4.808">
        <ele>174.62</ele>
        <time>2012-09-05T13:31:26Z</time>
      </trkpt>
      <trkpt lat="45.77597" lon="4.80781">
        <ele>174.62</ele>
        <time>2012-09-05T13:31:38Z</time>
      </trkpt>
      <trkpt lat="45.7762" lon="4.8077">
        <ele>174.62</ele>
        <time>2012-09-05T13:31:49Z</time>
      </trkpt>
      <trkpt lat="45.77621" lon="4.80769">
        <ele>174.62</ele>
        <time>2012-09-05T13:31:56Z</time>
      </trkpt>
      <trkpt lat="45.77623" lon="4.80769">
        <ele>174.62</ele>
        <time>2012-09-05T13:31:57Z</time>
      </trkpt>
      <trkpt lat="45.77626" lon="4.80765">
        <ele>174.62</ele>
        <time>2012-09-05T13:31:59Z</time>
      </trkpt>
      <trkpt lat="45.77627" lon="4.80763">
        <ele>174.62</ele>
        <time>2012-09-05T13:32:00Z</time>
      </trkpt>
      <trkpt lat="45.77627" lon="4.80761">
        <ele>174.62</ele>
        <time>2012-09-05T13:32:01Z</time>
      </trkpt>
      <trkpt lat="45.77628" lon="4.80759">
        <ele>174.14</ele>
        <time>2012-09-05T13:32:02Z</time>
      </trkpt>
      <trkpt lat="45.77628" lon="4.80757">
        <ele>174.14</ele>
        <time>2012-09-05T13:32:03Z</time>
      </trkpt>
      <trkpt lat="45.77629" lon="4.80748">
        <ele>174.62</ele>
        <time>2012-09-05T13:32:06Z</time>
      </trkpt>
      <trkpt lat="45.7763" lon="4.80745">
        <ele>174.14</ele>
        <time>2012-09-05T13:32:07Z</time>
      </trkpt>
      <trkpt lat="45.77632" lon="4.80745">
        <ele>174.14</ele>
        <time>2012-09-05T13:32:08Z</time>
      </trkpt>
      <trkpt lat="45.77634" lon="4.80745">
        <ele>174.14</ele>
        <time>2012-09-05T13:32:09Z</time>
      </trkpt>
      <trkpt lat="45.77637" lon="4.80746">
        <ele>174.14</ele>
        <time>2012-09-05T13:32:10Z</time>
      </trkpt>
      <trkpt lat="45.77639" lon="4.80748">
        <ele>174.14</ele>
        <time>2012-09-05T13:32:11Z</time>
      </trkpt>
      <trkpt lat="45.77641" lon="4.8075">
        <ele>174.14</ele>
        <time>2012-09-05T13:32:12Z</time>
      </trkpt>
      <trkpt lat="45.77643" lon="4.80753">
        <ele>174.14</ele>
        <time>2012-09-05T13:32:13Z</time>
      </trkpt>
      <trkpt lat="45.77644" lon="4.80754">
        <ele>174.14</ele>
        <time>2012-09-05T13:32:14Z</time>
      </trkpt>
      <trkpt lat="45.77647" lon="4.80755">
        <ele>174.14</ele>
        <time>2012-09-05T13:32:15Z</time>
      </trkpt>
      <trkpt lat="45.7765" lon="4.80756">
        <ele>174.14</ele>
        <time>2012-09-05T13:32:16Z</time>
      </trkpt>
      <trkpt lat="45.77653" lon="4.80757">
        <ele>174.14</ele>
        <time>2012-09-05T13:32:17Z</time>
      </trkpt>
      <trkpt lat="45.77656" lon="4.80758">
        <ele>174.14</ele>
        <time>2012-09-05T13:32:18Z</time>
      </trkpt>
      <trkpt lat="45.77668" lon="4.80756">
        <ele>174.14</ele>
        <time>2012-09-05T13:32:22Z</time>
      </trkpt>
      <trkpt lat="45.77669" lon="4.80754">
        <ele>174.14</ele>
        <time>2012-09-05T13:32:23Z</time>
      </trkpt>
      <trkpt lat="45.77684" lon="4.8073">
        <ele>175.1</ele>
        <time>2012-09-05T13:32:35Z</time>
      </trkpt>
      <trkpt lat="45.77692" lon="4.80722">
        <ele>175.58</ele>
        <time>2012-09-05T13:32:41Z</time>
      </trkpt>
      <trkpt lat="45.77695" lon="4.80722">
        <ele>175.1</ele>
        <time>2012-09-05T13:32:42Z</time>
      </trkpt>
      <trkpt lat="45.77697" lon="4.80723">
        <ele>175.1</ele>
        <time>2012-09-05T13:32:43Z</time>
      </trkpt>
      <trkpt lat="45.77699" lon="4.80725">
        <ele>175.1</ele>
        <time>2012-09-05T13:32:44Z</time>
      </trkpt>
      <trkpt lat="45.77701" lon="4.80727">
        <ele>175.1</ele>
        <time>2012-09-05T13:32:45Z</time>
      </trkpt>
      <trkpt lat="45.77714" lon="4.80751">
        <ele>175.1</ele>
        <time>2012-09-05T13:32:56Z</time>
      </trkpt>
      <trkpt lat="45.77715" lon="4.80752">
        <ele>175.1</ele>
        <time>2012-09-05T13:32:57Z</time>
      </trkpt>
      <trkpt lat="45.77715" lon="4.80755">
        <ele>175.1</ele>
        <time>2012-09-05T13:32:58Z</time>
      </trkpt>
      <trkpt lat="45.77714" lon="4.80758">
        <ele>174.62</ele>
        <time>2012-09-05T13:32:59Z</time>
      </trkpt>
      <trkpt lat="45.77713" lon="4.80761">
        <ele>174.62</ele>
        <time>2012-09-05T13:33:00Z</time>
      </trkpt>
      <trkpt lat="45.77713" lon="4.80763">
        <ele>174.62</ele>
        <time>2012-09-05T13:33:01Z</time>
      </trkpt>
      <trkpt lat="45.77712" lon="4.80765">
        <ele>175.1</ele>
        <time>2012-09-05T13:33:02Z</time>
      </trkpt>
      <trkpt lat="45.77712" lon="4.80767">
        <ele>174.62</ele>
        <time>2012-09-05T13:33:03Z</time>
      </trkpt>
      <trkpt lat="45.77712" lon="4.80769">
        <ele>174.62</ele>
        <time>2012-09-05T13:33:04Z</time>
      </trkpt>
      <trkpt lat="45.77712" lon="4.80771">
        <ele>174.62</ele>
        <time>2012-09-05T13:33:05Z</time>
      </trkpt>
      <trkpt lat="45.77712" lon="4.80777">
        <ele>174.62</ele>
        <time>2012-09-05T13:33:08Z</time>
      </trkpt>
      <trkpt lat="45.77713" lon="4.80778">
        <ele>175.1</ele>
        <time>2012-09-05T13:33:09Z</time>
      </trkpt>
      <trkpt lat="45.77715" lon="4.8078">
        <ele>175.1</ele>
        <time>2012-09-05T13:33:11Z</time>
      </trkpt>
      <trkpt lat="45.77742" lon="4.80786">
        <ele>175.1</ele>
        <time>2012-09-05T13:33:22Z</time>
      </trkpt>
      <trkpt lat="45.77778" lon="4.80791">
        <ele>175.58</ele>
        <time>2012-09-05T13:33:30Z</time>
      </trkpt>
      <trkpt lat="45.77783" lon="4.80792">
        <ele>176.06</ele>
        <time>2012-09-05T13:33:31Z</time>
      </trkpt>
      <trkpt lat="45.77787" lon="4.80793">
        <ele>176.06</ele>
        <time>2012-09-05T13:33:32Z</time>
      </trkpt>
      <trkpt lat="45.77834" lon="4.808">
        <ele>176.06</ele>
        <time>2012-09-05T13:33:45Z</time>
      </trkpt>
      <trkpt lat="45.77839" lon="4.80799">
        <ele>176.06</ele>
        <time>2012-09-05T13:33:46Z</time>
      </trkpt>
      <trkpt lat="45.77841" lon="4.80799">
        <ele>176.06</ele>
        <time>2012-09-05T13:33:47Z</time>
      </trkpt>
      <trkpt lat="45.77844" lon="4.80798">
        <ele>176.06</ele>
        <time>2012-09-05T13:33:48Z</time>
      </trkpt>
      <trkpt lat="45.77846" lon="4.80798">
        <ele>176.06</ele>
        <time>2012-09-05T13:33:49Z</time>
      </trkpt>
      <trkpt lat="45.77849" lon="4.80803">
        <ele>176.06</ele>
        <time>2012-09-05T13:34:04Z</time>
      </trkpt>
      <trkpt lat="45.77851" lon="4.80804">
        <ele>176.06</ele>
        <time>2012-09-05T13:34:20Z</time>
      </trkpt>
      <trkpt lat="45.77853" lon="4.80805">
        <ele>176.06</ele>
        <time>2012-09-05T13:34:21Z</time>
      </trkpt>
      <trkpt lat="45.77854" lon="4.80806">
        <ele>176.06</ele>
        <time>2012-09-05T13:34:22Z</time>
      </trkpt>
      <trkpt lat="45.77856" lon="4.80808">
        <ele>176.06</ele>
        <time>2012-09-05T13:34:23Z</time>
      </trkpt>
      <trkpt lat="45.77859" lon="4.80809">
        <ele>176.06</ele>
        <time>2012-09-05T13:34:24Z</time>
      </trkpt>
      <trkpt lat="45.77867" lon="4.80815">
        <ele>176.06</ele>
        <time>2012-09-05T13:34:28Z</time>
      </trkpt>
      <trkpt lat="45.77887" lon="4.80824">
        <ele>176.54</ele>
        <time>2012-09-05T13:34:34Z</time>
      </trkpt>
      <trkpt lat="45.77891" lon="4.80825">
        <ele>176.06</ele>
        <time>2012-09-05T13:34:35Z</time>
      </trkpt>
      <trkpt lat="45.77895" lon="4.80827">
        <ele>176.06</ele>
        <time>2012-09-05T13:34:36Z</time>
      </trkpt>
      <trkpt lat="45.77899" lon="4.8083">
        <ele>176.06</ele>
        <time>2012-09-05T13:34:37Z</time>
      </trkpt>
      <trkpt lat="45.77903" lon="4.80832">
        <ele>176.06</ele>
        <time>2012-09-05T13:34:38Z</time>
      </trkpt>
      <trkpt lat="45.77928" lon="4.80842">
        <ele>176.06</ele>
        <time>2012-09-05T13:34:46Z</time>
      </trkpt>
      <trkpt lat="45.77971" lon="4.80865">
        <ele>176.06</ele>
        <time>2012-09-05T13:34:58Z</time>
      </trkpt>
      <trkpt lat="45.78007" lon="4.80873">
        <ele>176.06</ele>
        <time>2012-09-05T13:35:09Z</time>
      </trkpt>
      <trkpt lat="45.78036" lon="4.80876">
        <ele>176.06</ele>
        <time>2012-09-05T13:35:19Z</time>
      </trkpt>
      <trkpt lat="45.78049" lon="4.8088">
        <ele>175.58</ele>
        <time>2012-09-05T13:35:24Z</time>
      </trkpt>
      <trkpt lat="45.78051" lon="4.80883">
        <ele>175.58</ele>
        <time>2012-09-05T13:35:25Z</time>
      </trkpt>
      <trkpt lat="45.78054" lon="4.80887">
        <ele>175.58</ele>
        <time>2012-09-05T13:35:26Z</time>
      </trkpt>
      <trkpt lat="45.78065" lon="4.80909">
        <ele>176.06</ele>
        <time>2012-09-05T13:35:32Z</time>
      </trkpt>
      <trkpt lat="45.78068" lon="4.80911">
        <ele>176.06</ele>
        <time>2012-09-05T13:35:33Z</time>
      </trkpt>
      <trkpt lat="45.78098" lon="4.80936">
        <ele>176.06</ele>
        <time>2012-09-05T13:35:44Z</time>
      </trkpt>
      <trkpt lat="45.78105" lon="4.80942">
        <ele>176.06</ele>
        <time>2012-09-05T13:35:46Z</time>
      </trkpt>
      <trkpt lat="45.78113" lon="4.80949">
        <ele>175.58</ele>
        <time>2012-09-05T13:35:48Z</time>
      </trkpt>
      <trkpt lat="45.78117" lon="4.80953">
        <ele>175.58</ele>
        <time>2012-09-05T13:35:49Z</time>
      </trkpt>
      <trkpt lat="45.78145" lon="4.80974">
        <ele>175.1</ele>
        <time>2012-09-05T13:35:56Z</time>
      </trkpt>
      <trkpt lat="45.78192" lon="4.81011">
        <ele>175.1</ele>
        <time>2012-09-05T13:36:09Z</time>
      </trkpt>
      <trkpt lat="45.782" lon="4.81028">
        <ele>175.1</ele>
        <time>2012-09-05T13:36:14Z</time>
      </trkpt>
      <trkpt lat="45.78205" lon="4.81031">
        <ele>175.1</ele>
        <time>2012-09-05T13:36:15Z</time>
      </trkpt>
      <trkpt lat="45.78244" lon="4.81056">
        <ele>175.1</ele>
        <time>2012-09-05T13:36:25Z</time>
      </trkpt>
      <trkpt lat="45.78251" lon="4.81063">
        <ele>175.1</ele>
        <time>2012-09-05T13:36:36Z</time>
      </trkpt>
      <trkpt lat="45.78254" lon="4.81069">
        <ele>175.1</ele>
        <time>2012-09-05T13:36:47Z</time>
      </trkpt>
      <trkpt lat="45.78255" lon="4.81073">
        <ele>174.62</ele>
        <time>2012-09-05T13:36:56Z</time>
      </trkpt>
      <trkpt lat="45.78256" lon="4.81075">
        <ele>174.62</ele>
        <time>2012-09-05T13:36:57Z</time>
      </trkpt>
      <trkpt lat="45.78257" lon="4.81076">
        <ele>174.62</ele>
        <time>2012-09-05T13:36:58Z</time>
      </trkpt>
      <trkpt lat="45.78258" lon="4.81078">
        <ele>174.62</ele>
        <time>2012-09-05T13:36:59Z</time>
      </trkpt>
      <trkpt lat="45.78259" lon="4.8108">
        <ele>174.62</ele>
        <time>2012-09-05T13:37:00Z</time>
      </trkpt>
      <trkpt lat="45.7826" lon="4.81084">
        <ele>174.62</ele>
        <time>2012-09-05T13:37:01Z</time>
      </trkpt>
      <trkpt lat="45.78261" lon="4.81088">
        <ele>174.62</ele>
        <time>2012-09-05T13:37:02Z</time>
      </trkpt>
      <trkpt lat="45.78262" lon="4.81102">
        <ele>174.62</ele>
        <time>2012-09-05T13:37:07Z</time>
      </trkpt>
      <trkpt lat="45.78263" lon="4.81104">
        <ele>174.62</ele>
        <time>2012-09-05T13:37:08Z</time>
      </trkpt>
      <trkpt lat="45.78264" lon="4.81106">
        <ele>174.62</ele>
        <time>2012-09-05T13:37:09Z</time>
      </trkpt>
      <trkpt lat="45.78266" lon="4.81107">
        <ele>174.62</ele>
        <time>2012-09-05T13:37:10Z</time>
      </trkpt>
      <trkpt lat="45.78268" lon="4.81108">
        <ele>174.62</ele>
        <time>2012-09-05T13:37:11Z</time>
      </trkpt>
      <trkpt lat="45.78271" lon="4.8111">
        <ele>174.62</ele>
        <time>2012-09-05T13:37:12Z</time>
      </trkpt>
      <trkpt lat="45.78272" lon="4.81111">
        <ele>174.62</ele>
        <time>2012-09-05T13:37:13Z</time>
      </trkpt>
      <trkpt lat="45.78275" lon="4.81112">
        <ele>174.62</ele>
        <time>2012-09-05T13:37:14Z</time>
      </trkpt>
      <trkpt lat="45.78276" lon="4.81112">
        <ele>174.62</ele>
        <time>2012-09-05T13:37:15Z</time>
      </trkpt>
      <trkpt lat="45.78302" lon="4.81134">
        <ele>174.62</ele>
        <time>2012-09-05T13:37:24Z</time>
      </trkpt>
      <trkpt lat="45.78337" lon="4.81155">
        <ele>174.14</ele>
        <time>2012-09-05T13:37:34Z</time>
      </trkpt>
      <trkpt lat="45.7837" lon="4.8117">
        <ele>174.62</ele>
        <time>2012-09-05T13:37:44Z</time>
      </trkpt>
      <trkpt lat="45.78375" lon="4.81174">
        <ele>174.62</ele>
        <time>2012-09-05T13:37:46Z</time>
      </trkpt>
      <trkpt lat="45.784" lon="4.81203">
        <ele>174.62</ele>
        <time>2012-09-05T13:37:56Z</time>
      </trkpt>
      <trkpt lat="45.78436" lon="4.81236">
        <ele>174.62</ele>
        <time>2012-09-05T13:38:07Z</time>
      </trkpt>
      <trkpt lat="45.78502" lon="4.81287">
        <ele>174.14</ele>
        <time>2012-09-05T13:38:24Z</time>
      </trkpt>
      <trkpt lat="45.78517" lon="4.81299">
        <ele>174.14</ele>
        <time>2012-09-05T13:38:28Z</time>
      </trkpt>
      <trkpt lat="45.7852" lon="4.81302">
        <ele>173.66</ele>
        <time>2012-09-05T13:38:29Z</time>
      </trkpt>
      <trkpt lat="45.78522" lon="4.81304">
        <ele>173.66</ele>
        <time>2012-09-05T13:38:30Z</time>
      </trkpt>
      <trkpt lat="45.78523" lon="4.81307">
        <ele>173.66</ele>
        <time>2012-09-05T13:38:31Z</time>
      </trkpt>
      <trkpt lat="45.78525" lon="4.81309">
        <ele>173.66</ele>
        <time>2012-09-05T13:38:32Z</time>
      </trkpt>
      <trkpt lat="45.78528" lon="4.81311">
        <ele>173.66</ele>
        <time>2012-09-05T13:38:33Z</time>
      </trkpt>
      <trkpt lat="45.7856" lon="4.81337">
        <ele>173.66</ele>
        <time>2012-09-05T13:38:44Z</time>
      </trkpt>
      <trkpt lat="45.7858" lon="4.8135">
        <ele>173.17</ele>
        <time>2012-09-05T13:38:51Z</time>
      </trkpt>
      <trkpt lat="45.78607" lon="4.8137">
        <ele>173.17</ele>
        <time>2012-09-05T13:39:00Z</time>
      </trkpt>
      <trkpt lat="45.78632" lon="4.81387">
        <ele>173.66</ele>
        <time>2012-09-05T13:39:10Z</time>
      </trkpt>
      <trkpt lat="45.78635" lon="4.81389">
        <ele>173.17</ele>
        <time>2012-09-05T13:39:12Z</time>
      </trkpt>
      <trkpt lat="45.78637" lon="4.8139">
        <ele>173.17</ele>
        <time>2012-09-05T13:39:13Z</time>
      </trkpt>
      <trkpt lat="45.78642" lon="4.81392">
        <ele>173.17</ele>
        <time>2012-09-05T13:39:16Z</time>
      </trkpt>
      <trkpt lat="45.78652" lon="4.814">
        <ele>173.17</ele>
        <time>2012-09-05T13:39:31Z</time>
      </trkpt>
      <trkpt lat="45.78665" lon="4.8141">
        <ele>173.17</ele>
        <time>2012-09-05T13:39:43Z</time>
      </trkpt>
      <trkpt lat="45.78667" lon="4.8141">
        <ele>173.17</ele>
        <time>2012-09-05T13:39:44Z</time>
      </trkpt>
      <trkpt lat="45.7867" lon="4.81411">
        <ele>173.17</ele>
        <time>2012-09-05T13:39:45Z</time>
      </trkpt>
      <trkpt lat="45.78676" lon="4.81415">
        <ele>173.17</ele>
        <time>2012-09-05T13:39:48Z</time>
      </trkpt>
      <trkpt lat="45.78678" lon="4.81416">
        <ele>173.17</ele>
        <time>2012-09-05T13:39:49Z</time>
      </trkpt>
      <trkpt lat="45.7871" lon="4.81441">
        <ele>173.17</ele>
        <time>2012-09-05T13:40:00Z</time>
      </trkpt>
      <trkpt lat="45.78738" lon="4.81454">
        <ele>173.17</ele>
        <time>2012-09-05T13:40:08Z</time>
      </trkpt>
      <trkpt lat="45.78776" lon="4.81491">
        <ele>173.17</ele>
        <time>2012-09-05T13:40:21Z</time>
      </trkpt>
      <trkpt lat="45.78796" lon="4.81505">
        <ele>173.17</ele>
        <time>2012-09-05T13:40:26Z</time>
      </trkpt>
      <trkpt lat="45.78803" lon="4.81504">
        <ele>173.17</ele>
        <time>2012-09-05T13:40:27Z</time>
      </trkpt>
      <trkpt lat="45.78805" lon="4.81503">
        <ele>173.17</ele>
        <time>2012-09-05T13:40:28Z</time>
      </trkpt>
      <trkpt lat="45.78807" lon="4.81503">
        <ele>173.17</ele>
        <time>2012-09-05T13:40:29Z</time>
      </trkpt>
      <trkpt lat="45.78807" lon="4.81506">
        <ele>174.14</ele>
        <time>2012-09-05T13:40:44Z</time>
      </trkpt>
      <trkpt lat="45.78832" lon="4.81534">
        <ele>173.17</ele>
        <time>2012-09-05T13:40:54Z</time>
      </trkpt>
      <trkpt lat="45.78869" lon="4.81575">
        <ele>173.17</ele>
        <time>2012-09-05T13:41:05Z</time>
      </trkpt>
      <trkpt lat="45.78872" lon="4.81579">
        <ele>173.17</ele>
        <time>2012-09-05T13:41:06Z</time>
      </trkpt>
      <trkpt lat="45.78876" lon="4.81583">
        <ele>173.17</ele>
        <time>2012-09-05T13:41:07Z</time>
      </trkpt>
      <trkpt lat="45.78907" lon="4.81618">
        <ele>173.17</ele>
        <time>2012-09-05T13:41:17Z</time>
      </trkpt>
      <trkpt lat="45.78948" lon="4.81678">
        <ele>173.17</ele>
        <time>2012-09-05T13:41:29Z</time>
      </trkpt>
      <trkpt lat="45.78987" lon="4.81735">
        <ele>173.17</ele>
        <time>2012-09-05T13:41:41Z</time>
      </trkpt>
      <trkpt lat="45.79022" lon="4.81787">
        <ele>173.17</ele>
        <time>2012-09-05T13:41:53Z</time>
      </trkpt>
      <trkpt lat="45.79058" lon="4.81838">
        <ele>173.66</ele>
        <time>2012-09-05T13:42:06Z</time>
      </trkpt>
      <trkpt lat="45.7908" lon="4.8186">
        <ele>173.66</ele>
        <time>2012-09-05T13:42:12Z</time>
      </trkpt>
      <trkpt lat="45.7909" lon="4.81872">
        <ele>173.66</ele>
        <time>2012-09-05T13:42:15Z</time>
      </trkpt>
      <trkpt lat="45.79093" lon="4.81876">
        <ele>173.66</ele>
        <time>2012-09-05T13:42:16Z</time>
      </trkpt>
      <trkpt lat="45.7912" lon="4.8191">
        <ele>173.66</ele>
        <time>2012-09-05T13:42:24Z</time>
      </trkpt>
      <trkpt lat="45.79124" lon="4.81914">
        <ele>174.14</ele>
        <time>2012-09-05T13:42:25Z</time>
      </trkpt>
      <trkpt lat="45.79127" lon="4.81918">
        <ele>173.66</ele>
        <time>2012-09-05T13:42:26Z</time>
      </trkpt>
      <trkpt lat="45.79131" lon="4.81923">
        <ele>173.66</ele>
        <time>2012-09-05T13:42:27Z</time>
      </trkpt>
      <trkpt lat="45.79134" lon="4.81928">
        <ele>173.66</ele>
        <time>2012-09-05T13:42:28Z</time>
      </trkpt>
      <trkpt lat="45.79159" lon="4.8197">
        <ele>173.66</ele>
        <time>2012-09-05T13:42:39Z</time>
      </trkpt>
      <trkpt lat="45.79217" lon="4.82041">
        <ele>173.66</ele>
        <time>2012-09-05T13:42:54Z</time>
      </trkpt>
      <trkpt lat="45.7925" lon="4.82081">
        <ele>173.66</ele>
        <time>2012-09-05T13:43:06Z</time>
      </trkpt>
      <trkpt lat="45.79256" lon="4.82091">
        <ele>173.66</ele>
        <time>2012-09-05T13:43:19Z</time>
      </trkpt>
      <trkpt lat="45.79258" lon="4.82094">
        <ele>173.66</ele>
        <time>2012-09-05T13:43:33Z</time>
      </trkpt>
      <trkpt lat="45.7926" lon="4.82097">
        <ele>173.66</ele>
        <time>2012-09-05T13:43:34Z</time>
      </trkpt>
      <trkpt lat="45.79262" lon="4.82099">
        <ele>173.66</ele>
        <time>2012-09-05T13:43:35Z</time>
      </trkpt>
      <trkpt lat="45.79264" lon="4.82101">
        <ele>173.66</ele>
        <time>2012-09-05T13:43:36Z</time>
      </trkpt>
      <trkpt lat="45.79267" lon="4.82104">
        <ele>173.66</ele>
        <time>2012-09-05T13:43:37Z</time>
      </trkpt>
      <trkpt lat="45.79274" lon="4.82112">
        <ele>173.66</ele>
        <time>2012-09-05T13:43:40Z</time>
      </trkpt>
      <trkpt lat="45.79304" lon="4.82154">
        <ele>173.66</ele>
        <time>2012-09-05T13:43:53Z</time>
      </trkpt>
      <trkpt lat="45.79348" lon="4.82217">
        <ele>174.14</ele>
        <time>2012-09-05T13:44:07Z</time>
      </trkpt>
      <trkpt lat="45.79371" lon="4.82247">
        <ele>174.14</ele>
        <time>2012-09-05T13:44:14Z</time>
      </trkpt>
      <trkpt lat="45.79374" lon="4.82253">
        <ele>174.14</ele>
        <time>2012-09-05T13:44:15Z</time>
      </trkpt>
      <trkpt lat="45.79378" lon="4.82258">
        <ele>174.14</ele>
        <time>2012-09-05T13:44:16Z</time>
      </trkpt>
      <trkpt lat="45.79417" lon="4.82326">
        <ele>174.14</ele>
        <time>2012-09-05T13:44:29Z</time>
      </trkpt>
      <trkpt lat="45.79457" lon="4.8239">
        <ele>174.14</ele>
        <time>2012-09-05T13:44:42Z</time>
      </trkpt>
      <trkpt lat="45.79494" lon="4.82453">
        <ele>173.66</ele>
        <time>2012-09-05T13:44:54Z</time>
      </trkpt>
      <trkpt lat="45.79497" lon="4.82459">
        <ele>174.14</ele>
        <time>2012-09-05T13:44:55Z</time>
      </trkpt>
      <trkpt lat="45.79526" lon="4.82519">
        <ele>174.14</ele>
        <time>2012-09-05T13:45:06Z</time>
      </trkpt>
      <trkpt lat="45.79551" lon="4.82568">
        <ele>174.14</ele>
        <time>2012-09-05T13:45:16Z</time>
      </trkpt>
      <trkpt lat="45.79582" lon="4.82634">
        <ele>174.14</ele>
        <time>2012-09-05T13:45:29Z</time>
      </trkpt>
      <trkpt lat="45.79616" lon="4.82706">
        <ele>174.14</ele>
        <time>2012-09-05T13:45:43Z</time>
      </trkpt>
      <trkpt lat="45.79634" lon="4.82739">
        <ele>174.62</ele>
        <time>2012-09-05T13:45:49Z</time>
      </trkpt>
      <trkpt lat="45.79666" lon="4.82802">
        <ele>174.14</ele>
        <time>2012-09-05T13:46:02Z</time>
      </trkpt>
      <trkpt lat="45.79696" lon="4.8286">
        <ele>174.14</ele>
        <time>2012-09-05T13:46:13Z</time>
      </trkpt>
      <trkpt lat="45.79699" lon="4.82865">
        <ele>174.14</ele>
        <time>2012-09-05T13:46:14Z</time>
      </trkpt>
      <trkpt lat="45.79703" lon="4.82871">
        <ele>174.14</ele>
        <time>2012-09-05T13:46:15Z</time>
      </trkpt>
      <trkpt lat="45.79712" lon="4.82887">
        <ele>174.14</ele>
        <time>2012-09-05T13:46:18Z</time>
      </trkpt>
      <trkpt lat="45.79741" lon="4.82933">
        <ele>174.14</ele>
        <time>2012-09-05T13:46:30Z</time>
      </trkpt>
      <trkpt lat="45.79764" lon="4.82978">
        <ele>175.58</ele>
        <time>2012-09-05T13:46:42Z</time>
      </trkpt>
      <trkpt lat="45.7977" lon="4.82992">
        <ele>177.02</ele>
        <time>2012-09-05T13:46:46Z</time>
      </trkpt>
      <trkpt lat="45.79782" lon="4.83033">
        <ele>176.54</ele>
        <time>2012-09-05T13:46:59Z</time>
      </trkpt>
      <trkpt lat="45.79782" lon="4.83038">
        <ele>176.54</ele>
        <time>2012-09-05T13:47:01Z</time>
      </trkpt>
      <trkpt lat="45.79786" lon="4.83046">
        <ele>176.06</ele>
        <time>2012-09-05T13:47:05Z</time>
      </trkpt>
      <trkpt lat="45.79788" lon="4.8305">
        <ele>176.06</ele>
        <time>2012-09-05T13:47:06Z</time>
      </trkpt>
      <trkpt lat="45.79791" lon="4.83054">
        <ele>176.06</ele>
        <time>2012-09-05T13:47:07Z</time>
      </trkpt>
      <trkpt lat="45.79794" lon="4.8306">
        <ele>175.58</ele>
        <time>2012-09-05T13:47:08Z</time>
      </trkpt>
      <trkpt lat="45.79797" lon="4.83065">
        <ele>175.58</ele>
        <time>2012-09-05T13:47:09Z</time>
      </trkpt>
      <trkpt lat="45.798" lon="4.8307">
        <ele>175.1</ele>
        <time>2012-09-05T13:47:10Z</time>
      </trkpt>
      <trkpt lat="45.79803" lon="4.83075">
        <ele>174.62</ele>
        <time>2012-09-05T13:47:11Z</time>
      </trkpt>
      <trkpt lat="45.79824" lon="4.83112">
        <ele>173.66</ele>
        <time>2012-09-05T13:47:21Z</time>
      </trkpt>
      <trkpt lat="45.79837" lon="4.83148">
        <ele>173.66</ele>
        <time>2012-09-05T13:47:31Z</time>
      </trkpt>
      <trkpt lat="45.79852" lon="4.83187">
        <ele>173.66</ele>
        <time>2012-09-05T13:47:38Z</time>
      </trkpt>
      <trkpt lat="45.79857" lon="4.83198">
        <ele>173.66</ele>
        <time>2012-09-05T13:47:40Z</time>
      </trkpt>
      <trkpt lat="45.7988" lon="4.83276">
        <ele>173.66</ele>
        <time>2012-09-05T13:47:54Z</time>
      </trkpt>
      <trkpt lat="45.79894" lon="4.83325">
        <ele>173.17</ele>
        <time>2012-09-05T13:48:03Z</time>
      </trkpt>
      <trkpt lat="45.79915" lon="4.83394">
        <ele>173.17</ele>
        <time>2012-09-05T13:48:16Z</time>
      </trkpt>
      <trkpt lat="45.79931" lon="4.83435">
        <ele>173.66</ele>
        <time>2012-09-05T13:48:27Z</time>
      </trkpt>
      <trkpt lat="45.79932" lon="4.83445">
        <ele>174.62</ele>
        <time>2012-09-05T13:48:47Z</time>
      </trkpt>
      <trkpt lat="45.79933" lon="4.83448">
        <ele>173.66</ele>
        <time>2012-09-05T13:48:48Z</time>
      </trkpt>
      <trkpt lat="45.79934" lon="4.83451">
        <ele>173.66</ele>
        <time>2012-09-05T13:48:49Z</time>
      </trkpt>
      <trkpt lat="45.79935" lon="4.83455">
        <ele>173.66</ele>
        <time>2012-09-05T13:48:50Z</time>
      </trkpt>
      <trkpt lat="45.79937" lon="4.83459">
        <ele>173.17</ele>
        <time>2012-09-05T13:48:51Z</time>
      </trkpt>
      <trkpt lat="45.79938" lon="4.83463">
        <ele>173.17</ele>
        <time>2012-09-05T13:48:52Z</time>
      </trkpt>
      <trkpt lat="45.79953" lon="4.83503">
        <ele>173.66</ele>
        <time>2012-09-05T13:49:00Z</time>
      </trkpt>
      <trkpt lat="45.79955" lon="4.83509">
        <ele>173.17</ele>
        <time>2012-09-05T13:49:01Z</time>
      </trkpt>
      <trkpt lat="45.79976" lon="4.83571">
        <ele>173.66</ele>
        <time>2012-09-05T13:49:13Z</time>
      </trkpt>
      <trkpt lat="45.79996" lon="4.83612">
        <ele>173.66</ele>
        <time>2012-09-05T13:49:22Z</time>
      </trkpt>
      <trkpt lat="45.80024" lon="4.83683">
        <ele>174.62</ele>
        <time>2012-09-05T13:49:35Z</time>
      </trkpt>
      <trkpt lat="45.80059" lon="4.83747">
        <ele>175.1</ele>
        <time>2012-09-05T13:49:50Z</time>
      </trkpt>
      <trkpt lat="45.8006" lon="4.8375">
        <ele>174.62</ele>
        <time>2012-09-05T13:49:51Z</time>
      </trkpt>
      <trkpt lat="45.80061" lon="4.83752">
        <ele>175.1</ele>
        <time>2012-09-05T13:49:52Z</time>
      </trkpt>
      <trkpt lat="45.80077" lon="4.83781">
        <ele>175.58</ele>
        <time>2012-09-05T13:50:03Z</time>
      </trkpt>
      <trkpt lat="45.80105" lon="4.83816">
        <ele>176.54</ele>
        <time>2012-09-05T13:50:15Z</time>
      </trkpt>
      <trkpt lat="45.80132" lon="4.83841">
        <ele>177.98</ele>
        <time>2012-09-05T13:50:26Z</time>
      </trkpt>
      <trkpt lat="45.80157" lon="4.83861">
        <ele>179.42</ele>
        <time>2012-09-05T13:50:38Z</time>
      </trkpt>
      <trkpt lat="45.80188" lon="4.8388">
        <ele>181.83</ele>
        <time>2012-09-05T13:50:52Z</time>
      </trkpt>
      <trkpt lat="45.80221" lon="4.83894">
        <ele>184.23</ele>
        <time>2012-09-05T13:51:06Z</time>
      </trkpt>
      <trkpt lat="45.80241" lon="4.839">
        <ele>185.67</ele>
        <time>2012-09-05T13:51:19Z</time>
      </trkpt>
      <trkpt lat="45.80243" lon="4.83901">
        <ele>185.67</ele>
        <time>2012-09-05T13:51:21Z</time>
      </trkpt>
      <trkpt lat="45.80245" lon="4.83903">
        <ele>185.67</ele>
        <time>2012-09-05T13:51:37Z</time>
      </trkpt>
      <trkpt lat="45.80245" lon="4.83903">
        <ele>185.67</ele>
        <time>2012-09-05T13:52:02Z</time>
      </trkpt>
      <trkpt lat="45.80247" lon="4.83903">
        <ele>186.15</ele>
        <time>2012-09-05T13:52:03Z</time>
      </trkpt>
      <trkpt lat="45.80249" lon="4.83904">
        <ele>186.15</ele>
        <time>2012-09-05T13:52:04Z</time>
      </trkpt>
      <trkpt lat="45.80251" lon="4.83904">
        <ele>186.15</ele>
        <time>2012-09-05T13:52:05Z</time>
      </trkpt>
      <trkpt lat="45.80252" lon="4.83905">
        <ele>186.63</ele>
        <time>2012-09-05T13:52:06Z</time>
      </trkpt>
      <trkpt lat="45.80254" lon="4.83906">
        <ele>186.15</ele>
        <time>2012-09-05T13:52:07Z</time>
      </trkpt>
      <trkpt lat="45.80256" lon="4.83907">
        <ele>186.63</ele>
        <time>2012-09-05T13:52:08Z</time>
      </trkpt>
      <trkpt lat="45.80288" lon="4.83926">
        <ele>187.11</ele>
        <time>2012-09-05T13:52:21Z</time>
      </trkpt>
      <trkpt lat="45.80343" lon="4.83974">
        <ele>184.71</ele>
        <time>2012-09-05T13:52:36Z</time>
      </trkpt>
      <trkpt lat="45.80348" lon="4.83978">
        <ele>184.23</ele>
        <time>2012-09-05T13:52:37Z</time>
      </trkpt>
      <trkpt lat="45.80352" lon="4.83981">
        <ele>183.75</ele>
        <time>2012-09-05T13:52:38Z</time>
      </trkpt>
      <trkpt lat="45.80391" lon="4.84011">
        <ele>180.38</ele>
        <time>2012-09-05T13:52:47Z</time>
      </trkpt>
      <trkpt lat="45.80394" lon="4.84014">
        <ele>180.38</ele>
        <time>2012-09-05T13:52:48Z</time>
      </trkpt>
      <trkpt lat="45.80463" lon="4.84051">
        <ele>177.02</ele>
        <time>2012-09-05T13:53:03Z</time>
      </trkpt>
      <trkpt lat="45.80517" lon="4.84082">
        <ele>173.66</ele>
        <time>2012-09-05T13:53:13Z</time>
      </trkpt>
      <trkpt lat="45.80609" lon="4.8413">
        <ele>173.66</ele>
        <time>2012-09-05T13:53:29Z</time>
      </trkpt>
      <trkpt lat="45.80691" lon="4.84167">
        <ele>173.17</ele>
        <time>2012-09-05T13:53:45Z</time>
      </trkpt>
      <trkpt lat="45.80778" lon="4.8419">
        <ele>173.66</ele>
        <time>2012-09-05T13:54:02Z</time>
      </trkpt>
      <trkpt lat="45.80878" lon="4.842">
        <ele>173.66</ele>
        <time>2012-09-05T13:54:22Z</time>
      </trkpt>
      <trkpt lat="45.80955" lon="4.84202">
        <ele>173.17</ele>
        <time>2012-09-05T13:54:38Z</time>
      </trkpt>
      <trkpt lat="45.81027" lon="4.84213">
        <ele>173.17</ele>
        <time>2012-09-05T13:54:54Z</time>
      </trkpt>
      <trkpt lat="45.81085" lon="4.84231">
        <ele>173.17</ele>
        <time>2012-09-05T13:55:08Z</time>
      </trkpt>
      <trkpt lat="45.81161" lon="4.84271">
        <ele>172.69</ele>
        <time>2012-09-05T13:55:26Z</time>
      </trkpt>
      <trkpt lat="45.81165" lon="4.84274">
        <ele>172.69</ele>
        <time>2012-09-05T13:55:27Z</time>
      </trkpt>
      <trkpt lat="45.81213" lon="4.84312">
        <ele>173.17</ele>
        <time>2012-09-05T13:55:39Z</time>
      </trkpt>
      <trkpt lat="45.81244" lon="4.84341">
        <ele>173.17</ele>
        <time>2012-09-05T13:55:47Z</time>
      </trkpt>
      <trkpt lat="45.81255" lon="4.84353">
        <ele>173.17</ele>
        <time>2012-09-05T13:55:50Z</time>
      </trkpt>
      <trkpt lat="45.81259" lon="4.84357">
        <ele>173.17</ele>
        <time>2012-09-05T13:55:51Z</time>
      </trkpt>
      <trkpt lat="45.81316" lon="4.84423">
        <ele>173.66</ele>
        <time>2012-09-05T13:56:07Z</time>
      </trkpt>
      <trkpt lat="45.81368" lon="4.84488">
        <ele>173.66</ele>
        <time>2012-09-05T13:56:22Z</time>
      </trkpt>
      <trkpt lat="45.81416" lon="4.84545">
        <ele>174.14</ele>
        <time>2012-09-05T13:56:37Z</time>
      </trkpt>
      <trkpt lat="45.81447" lon="4.8458">
        <ele>175.1</ele>
        <time>2012-09-05T13:56:49Z</time>
      </trkpt>
      <trkpt lat="45.81477" lon="4.84628">
        <ele>176.54</ele>
        <time>2012-09-05T13:57:05Z</time>
      </trkpt>
      <trkpt lat="45.81497" lon="4.84651">
        <ele>176.06</ele>
        <time>2012-09-05T13:57:18Z</time>
      </trkpt>
      <trkpt lat="45.81497" lon="4.84652">
        <ele>175.58</ele>
        <time>2012-09-05T13:57:22Z</time>
      </trkpt>
      <trkpt lat="45.81497" lon="4.84654">
        <ele>175.58</ele>
        <time>2012-09-05T13:57:23Z</time>
      </trkpt>
      <trkpt lat="45.81498" lon="4.84656">
        <ele>175.58</ele>
        <time>2012-09-05T13:57:24Z</time>
      </trkpt>
      <trkpt lat="45.81499" lon="4.84659">
        <ele>175.58</ele>
        <time>2012-09-05T13:57:25Z</time>
      </trkpt>
      <trkpt lat="45.81501" lon="4.84663">
        <ele>175.58</ele>
        <time>2012-09-05T13:57:26Z</time>
      </trkpt>
      <trkpt lat="45.81516" lon="4.84712">
        <ele>174.14</ele>
        <time>2012-09-05T13:57:37Z</time>
      </trkpt>
      <trkpt lat="45.81523" lon="4.84744">
        <ele>172.69</ele>
        <time>2012-09-05T13:57:48Z</time>
      </trkpt>
      <trkpt lat="45.81522" lon="4.84749">
        <ele>173.17</ele>
        <time>2012-09-05T13:58:03Z</time>
      </trkpt>
      <trkpt lat="45.81524" lon="4.84749">
        <ele>172.69</ele>
        <time>2012-09-05T13:58:33Z</time>
      </trkpt>
      <trkpt lat="45.81526" lon="4.84754">
        <ele>174.14</ele>
        <time>2012-09-05T13:58:52Z</time>
      </trkpt>
      <trkpt lat="45.81538" lon="4.84794">
        <ele>172.69</ele>
        <time>2012-09-05T13:59:03Z</time>
      </trkpt>
      <trkpt lat="45.81566" lon="4.84862">
        <ele>172.69</ele>
        <time>2012-09-05T13:59:18Z</time>
      </trkpt>
      <trkpt lat="45.81571" lon="4.84901">
        <ele>172.21</ele>
        <time>2012-09-05T13:59:27Z</time>
      </trkpt>
      <trkpt lat="45.81572" lon="4.84903">
        <ele>172.21</ele>
        <time>2012-09-05T13:59:28Z</time>
      </trkpt>
      <trkpt lat="45.81577" lon="4.84909">
        <ele>172.21</ele>
        <time>2012-09-05T13:59:32Z</time>
      </trkpt>
      <trkpt lat="45.81578" lon="4.84911">
        <ele>172.69</ele>
        <time>2012-09-05T13:59:33Z</time>
      </trkpt>
      <trkpt lat="45.8158" lon="4.84913">
        <ele>172.69</ele>
        <time>2012-09-05T13:59:34Z</time>
      </trkpt>
      <trkpt lat="45.81582" lon="4.84915">
        <ele>172.69</ele>
        <time>2012-09-05T13:59:35Z</time>
      </trkpt>
      <trkpt lat="45.81584" lon="4.84918">
        <ele>172.69</ele>
        <time>2012-09-05T13:59:36Z</time>
      </trkpt>
      <trkpt lat="45.81585" lon="4.84922">
        <ele>172.69</ele>
        <time>2012-09-05T13:59:37Z</time>
      </trkpt>
      <trkpt lat="45.81606" lon="4.84963">
        <ele>173.17</ele>
        <time>2012-09-05T13:59:48Z</time>
      </trkpt>
      <trkpt lat="45.81633" lon="4.85036">
        <ele>172.69</ele>
        <time>2012-09-05T14:00:03Z</time>
      </trkpt>
      <trkpt lat="45.81658" lon="4.851">
        <ele>172.69</ele>
        <time>2012-09-05T14:00:15Z</time>
      </trkpt>
      <trkpt lat="45.8167" lon="4.85131">
        <ele>172.69</ele>
        <time>2012-09-05T14:00:21Z</time>
      </trkpt>
      <trkpt lat="45.81713" lon="4.85222">
        <ele>172.21</ele>
        <time>2012-09-05T14:00:38Z</time>
      </trkpt>
      <trkpt lat="45.81759" lon="4.85293">
        <ele>174.14</ele>
        <time>2012-09-05T14:00:53Z</time>
      </trkpt>
      <trkpt lat="45.81773" lon="4.85313">
        <ele>172.69</ele>
        <time>2012-09-05T14:01:04Z</time>
      </trkpt>
      <trkpt lat="45.81772" lon="4.85313">
        <ele>171.73</ele>
        <time>2012-09-05T14:01:32Z</time>
      </trkpt>
      <trkpt lat="45.81771" lon="4.85313">
        <ele>172.69</ele>
        <time>2012-09-05T14:01:38Z</time>
      </trkpt>
      <trkpt lat="45.81782" lon="4.85327">
        <ele>172.21</ele>
        <time>2012-09-05T14:01:57Z</time>
      </trkpt>
      <trkpt lat="45.81816" lon="4.85367">
        <ele>172.69</ele>
        <time>2012-09-05T14:02:11Z</time>
      </trkpt>
      <trkpt lat="45.81879" lon="4.85416">
        <ele>172.21</ele>
        <time>2012-09-05T14:02:26Z</time>
      </trkpt>
      <trkpt lat="45.81941" lon="4.85448">
        <ele>172.21</ele>
        <time>2012-09-05T14:02:40Z</time>
      </trkpt>
      <trkpt lat="45.81996" lon="4.85467">
        <ele>172.21</ele>
        <time>2012-09-05T14:02:52Z</time>
      </trkpt>
      <trkpt lat="45.82" lon="4.85468">
        <ele>172.21</ele>
        <time>2012-09-05T14:02:53Z</time>
      </trkpt>
      <trkpt lat="45.8208" lon="4.85484">
        <ele>172.21</ele>
        <time>2012-09-05T14:03:10Z</time>
      </trkpt>
      <trkpt lat="45.82154" lon="4.85488">
        <ele>172.21</ele>
        <time>2012-09-05T14:03:26Z</time>
      </trkpt>
      <trkpt lat="45.82203" lon="4.85481">
        <ele>172.21</ele>
        <time>2012-09-05T14:03:39Z</time>
      </trkpt>
      <trkpt lat="45.82263" lon="4.8547">
        <ele>172.69</ele>
        <time>2012-09-05T14:03:53Z</time>
      </trkpt>
      <trkpt lat="45.82318" lon="4.85455">
        <ele>172.69</ele>
        <time>2012-09-05T14:04:06Z</time>
      </trkpt>
      <trkpt lat="45.82372" lon="4.85432">
        <ele>173.17</ele>
        <time>2012-09-05T14:04:19Z</time>
      </trkpt>
      <trkpt lat="45.82404" lon="4.85417">
        <ele>173.66</ele>
        <time>2012-09-05T14:04:27Z</time>
      </trkpt>
      <trkpt lat="45.82463" lon="4.85386">
        <ele>173.17</ele>
        <time>2012-09-05T14:04:41Z</time>
      </trkpt>
      <trkpt lat="45.82467" lon="4.85383">
        <ele>173.66</ele>
        <time>2012-09-05T14:04:42Z</time>
      </trkpt>
      <trkpt lat="45.82538" lon="4.85341">
        <ele>172.69</ele>
        <time>2012-09-05T14:04:58Z</time>
      </trkpt>
      <trkpt lat="45.82542" lon="4.85339">
        <ele>172.69</ele>
        <time>2012-09-05T14:04:59Z</time>
      </trkpt>
      <trkpt lat="45.82591" lon="4.85305">
        <ele>172.21</ele>
        <time>2012-09-05T14:05:12Z</time>
      </trkpt>
      <trkpt lat="45.82647" lon="4.85265">
        <ele>172.21</ele>
        <time>2012-09-05T14:05:26Z</time>
      </trkpt>
      <trkpt lat="45.82651" lon="4.85262">
        <ele>172.21</ele>
        <time>2012-09-05T14:05:27Z</time>
      </trkpt>
      <trkpt lat="45.82659" lon="4.85256">
        <ele>172.21</ele>
        <time>2012-09-05T14:05:29Z</time>
      </trkpt>
      <trkpt lat="45.82663" lon="4.85253">
        <ele>172.21</ele>
        <time>2012-09-05T14:05:30Z</time>
      </trkpt>
      <trkpt lat="45.82667" lon="4.85251">
        <ele>172.21</ele>
        <time>2012-09-05T14:05:31Z</time>
      </trkpt>
      <trkpt lat="45.82671" lon="4.85248">
        <ele>171.73</ele>
        <time>2012-09-05T14:05:32Z</time>
      </trkpt>
      <trkpt lat="45.82675" lon="4.85246">
        <ele>172.21</ele>
        <time>2012-09-05T14:05:33Z</time>
      </trkpt>
      <trkpt lat="45.82727" lon="4.85204">
        <ele>171.73</ele>
        <time>2012-09-05T14:05:46Z</time>
      </trkpt>
      <trkpt lat="45.82783" lon="4.85162">
        <ele>171.73</ele>
        <time>2012-09-05T14:06:00Z</time>
      </trkpt>
      <trkpt lat="45.8284" lon="4.85111">
        <ele>171.73</ele>
        <time>2012-09-05T14:06:15Z</time>
      </trkpt>
      <trkpt lat="45.82894" lon="4.85053">
        <ele>171.73</ele>
        <time>2012-09-05T14:06:31Z</time>
      </trkpt>
      <trkpt lat="45.82898" lon="4.85049">
        <ele>171.73</ele>
        <time>2012-09-05T14:06:32Z</time>
      </trkpt>
      <trkpt lat="45.82952" lon="4.84983">
        <ele>171.73</ele>
        <time>2012-09-05T14:06:49Z</time>
      </trkpt>
      <trkpt lat="45.83017" lon="4.84899">
        <ele>171.73</ele>
        <time>2012-09-05T14:07:10Z</time>
      </trkpt>
      <trkpt lat="45.83054" lon="4.84829">
        <ele>173.17</ele>
        <time>2012-09-05T14:07:25Z</time>
      </trkpt>
      <trkpt lat="45.8309" lon="4.84759">
        <ele>174.14</ele>
        <time>2012-09-05T14:07:43Z</time>
      </trkpt>
      <trkpt lat="45.83118" lon="4.84758">
        <ele>174.62</ele>
        <time>2012-09-05T14:07:55Z</time>
      </trkpt>
      <trkpt lat="45.83166" lon="4.84805">
        <ele>177.02</ele>
        <time>2012-09-05T14:08:14Z</time>
      </trkpt>
      <trkpt lat="45.83207" lon="4.84846">
        <ele>175.58</ele>
        <time>2012-09-05T14:08:27Z</time>
      </trkpt>
      <trkpt lat="45.83228" lon="4.84861">
        <ele>174.62</ele>
        <time>2012-09-05T14:08:35Z</time>
      </trkpt>
      <trkpt lat="45.83229" lon="4.8486">
        <ele>174.14</ele>
        <time>2012-09-05T14:08:36Z</time>
      </trkpt>
      <trkpt lat="45.83232" lon="4.84858">
        <ele>174.14</ele>
        <time>2012-09-05T14:08:48Z</time>
      </trkpt>
      <trkpt lat="45.83244" lon="4.84832">
        <ele>174.14</ele>
        <time>2012-09-05T14:08:56Z</time>
      </trkpt>
      <trkpt lat="45.83258" lon="4.848">
        <ele>172.21</ele>
        <time>2012-09-05T14:09:03Z</time>
      </trkpt>
      <trkpt lat="45.83279" lon="4.84714">
        <ele>171.25</ele>
        <time>2012-09-05T14:09:16Z</time>
      </trkpt>
      <trkpt lat="45.83281" lon="4.84707">
        <ele>171.25</ele>
        <time>2012-09-05T14:09:17Z</time>
      </trkpt>
      <trkpt lat="45.83283" lon="4.84701">
        <ele>170.77</ele>
        <time>2012-09-05T14:09:18Z</time>
      </trkpt>
      <trkpt lat="45.83286" lon="4.84688">
        <ele>170.77</ele>
        <time>2012-09-05T14:09:20Z</time>
      </trkpt>
      <trkpt lat="45.83313" lon="4.84593">
        <ele>171.73</ele>
        <time>2012-09-05T14:09:36Z</time>
      </trkpt>
      <trkpt lat="45.83332" lon="4.84522">
        <ele>172.69</ele>
        <time>2012-09-05T14:09:51Z</time>
      </trkpt>
      <trkpt lat="45.8335" lon="4.84458">
        <ele>172.69</ele>
        <time>2012-09-05T14:10:04Z</time>
      </trkpt>
      <trkpt lat="45.83373" lon="4.84376">
        <ele>172.69</ele>
        <time>2012-09-05T14:10:20Z</time>
      </trkpt>
      <trkpt lat="45.83405" lon="4.84278">
        <ele>173.17</ele>
        <time>2012-09-05T14:10:39Z</time>
      </trkpt>
      <trkpt lat="45.83421" lon="4.84215">
        <ele>172.69</ele>
        <time>2012-09-05T14:10:53Z</time>
      </trkpt>
      <trkpt lat="45.8342" lon="4.8421">
        <ele>172.69</ele>
        <time>2012-09-05T14:11:03Z</time>
      </trkpt>
      <trkpt lat="45.8342" lon="4.84211">
        <ele>172.21</ele>
        <time>2012-09-05T14:11:31Z</time>
      </trkpt>
      <trkpt lat="45.8342" lon="4.84211">
        <ele>173.17</ele>
        <time>2012-09-05T14:11:44Z</time>
      </trkpt>
      <trkpt lat="45.8342" lon="4.8421">
        <ele>172.21</ele>
        <time>2012-09-05T14:11:56Z</time>
      </trkpt>
      <trkpt lat="45.83419" lon="4.84215">
        <ele>172.69</ele>
        <time>2012-09-05T14:12:12Z</time>
      </trkpt>
      <trkpt lat="45.83423" lon="4.84213">
        <ele>172.69</ele>
        <time>2012-09-05T14:12:24Z</time>
      </trkpt>
      <trkpt lat="45.83426" lon="4.84207">
        <ele>173.17</ele>
        <time>2012-09-05T14:12:33Z</time>
      </trkpt>
      <trkpt lat="45.83426" lon="4.84205">
        <ele>172.69</ele>
        <time>2012-09-05T14:12:34Z</time>
      </trkpt>
      <trkpt lat="45.83427" lon="4.84203">
        <ele>172.69</ele>
        <time>2012-09-05T14:12:35Z</time>
      </trkpt>
      <trkpt lat="45.83428" lon="4.842">
        <ele>173.17</ele>
        <time>2012-09-05T14:12:44Z</time>
      </trkpt>
      <trkpt lat="45.83429" lon="4.84198">
        <ele>173.17</ele>
        <time>2012-09-05T14:12:45Z</time>
      </trkpt>
      <trkpt lat="45.8343" lon="4.84196">
        <ele>173.17</ele>
        <time>2012-09-05T14:12:46Z</time>
      </trkpt>
      <trkpt lat="45.83449" lon="4.84136">
        <ele>173.66</ele>
        <time>2012-09-05T14:13:00Z</time>
      </trkpt>
      <trkpt lat="45.8348" lon="4.84049">
        <ele>173.17</ele>
        <time>2012-09-05T14:13:17Z</time>
      </trkpt>
      <trkpt lat="45.83518" lon="4.8396">
        <ele>173.17</ele>
        <time>2012-09-05T14:13:33Z</time>
      </trkpt>
      <trkpt lat="45.83522" lon="4.83949">
        <ele>173.17</ele>
        <time>2012-09-05T14:13:35Z</time>
      </trkpt>
      <trkpt lat="45.83565" lon="4.83866">
        <ele>172.69</ele>
        <time>2012-09-05T14:13:53Z</time>
      </trkpt>
      <trkpt lat="45.83591" lon="4.83823">
        <ele>172.21</ele>
        <time>2012-09-05T14:14:08Z</time>
      </trkpt>
      <trkpt lat="45.83607" lon="4.83799">
        <ele>172.21</ele>
        <time>2012-09-05T14:14:20Z</time>
      </trkpt>
      <trkpt lat="45.83638" lon="4.83748">
        <ele>172.21</ele>
        <time>2012-09-05T14:14:34Z</time>
      </trkpt>
      <trkpt lat="45.83661" lon="4.83713">
        <ele>172.21</ele>
        <time>2012-09-05T14:14:42Z</time>
      </trkpt>
      <trkpt lat="45.83664" lon="4.83709">
        <ele>172.21</ele>
        <time>2012-09-05T14:14:43Z</time>
      </trkpt>
      <trkpt lat="45.83687" lon="4.83671">
        <ele>172.21</ele>
        <time>2012-09-05T14:14:51Z</time>
      </trkpt>
      <trkpt lat="45.83716" lon="4.83623">
        <ele>172.21</ele>
        <time>2012-09-05T14:15:03Z</time>
      </trkpt>
      <trkpt lat="45.83756" lon="4.83566">
        <ele>172.69</ele>
        <time>2012-09-05T14:15:16Z</time>
      </trkpt>
      <trkpt lat="45.83813" lon="4.835">
        <ele>172.69</ele>
        <time>2012-09-05T14:15:33Z</time>
      </trkpt>
      <trkpt lat="45.83817" lon="4.83497">
        <ele>172.69</ele>
        <time>2012-09-05T14:15:34Z</time>
      </trkpt>
      <trkpt lat="45.8388" lon="4.83448">
        <ele>173.17</ele>
        <time>2012-09-05T14:15:50Z</time>
      </trkpt>
      <trkpt lat="45.8395" lon="4.83408">
        <ele>172.69</ele>
        <time>2012-09-05T14:16:07Z</time>
      </trkpt>
      <trkpt lat="45.83982" lon="4.83394">
        <ele>172.69</ele>
        <time>2012-09-05T14:16:17Z</time>
      </trkpt>
      <trkpt lat="45.83982" lon="4.83392">
        <ele>172.69</ele>
        <time>2012-09-05T14:16:18Z</time>
      </trkpt>
      <trkpt lat="45.83982" lon="4.8339">
        <ele>172.69</ele>
        <time>2012-09-05T14:16:19Z</time>
      </trkpt>
      <trkpt lat="45.83983" lon="4.83388">
        <ele>172.69</ele>
        <time>2012-09-05T14:16:20Z</time>
      </trkpt>
      <trkpt lat="45.83982" lon="4.83386">
        <ele>172.21</ele>
        <time>2012-09-05T14:16:21Z</time>
      </trkpt>
      <trkpt lat="45.83981" lon="4.83384">
        <ele>172.21</ele>
        <time>2012-09-05T14:16:22Z</time>
      </trkpt>
      <trkpt lat="45.8398" lon="4.83382">
        <ele>172.21</ele>
        <time>2012-09-05T14:16:23Z</time>
      </trkpt>
      <trkpt lat="45.83978" lon="4.83379">
        <ele>171.73</ele>
        <time>2012-09-05T14:16:24Z</time>
      </trkpt>
      <trkpt lat="45.83978" lon="4.83376">
        <ele>171.73</ele>
        <time>2012-09-05T14:16:25Z</time>
      </trkpt>
      <trkpt lat="45.83978" lon="4.83373">
        <ele>171.25</ele>
        <time>2012-09-05T14:16:26Z</time>
      </trkpt>
      <trkpt lat="45.83979" lon="4.83371">
        <ele>171.25</ele>
        <time>2012-09-05T14:16:27Z</time>
      </trkpt>
      <trkpt lat="45.83981" lon="4.8337">
        <ele>171.73</ele>
        <time>2012-09-05T14:16:28Z</time>
      </trkpt>
      <trkpt lat="45.83984" lon="4.83369">
        <ele>171.73</ele>
        <time>2012-09-05T14:16:29Z</time>
      </trkpt>
      <trkpt lat="45.83987" lon="4.8337">
        <ele>171.73</ele>
        <time>2012-09-05T14:16:30Z</time>
      </trkpt>
      <trkpt lat="45.8399" lon="4.83371">
        <ele>171.73</ele>
        <time>2012-09-05T14:16:31Z</time>
      </trkpt>
      <trkpt lat="45.84034" lon="4.83376">
        <ele>172.21</ele>
        <time>2012-09-05T14:16:45Z</time>
      </trkpt>
      <trkpt lat="45.84068" lon="4.83376">
        <ele>172.21</ele>
        <time>2012-09-05T14:16:53Z</time>
      </trkpt>
      <trkpt lat="45.84072" lon="4.83375">
        <ele>172.21</ele>
        <time>2012-09-05T14:16:54Z</time>
      </trkpt>
      <trkpt lat="45.84114" lon="4.83374">
        <ele>172.21</ele>
        <time>2012-09-05T14:17:03Z</time>
      </trkpt>
      <trkpt lat="45.84153" lon="4.83377">
        <ele>172.21</ele>
        <time>2012-09-05T14:17:13Z</time>
      </trkpt>
      <trkpt lat="45.84157" lon="4.83378">
        <ele>172.21</ele>
        <time>2012-09-05T14:17:14Z</time>
      </trkpt>
      <trkpt lat="45.84221" lon="4.83395">
        <ele>172.21</ele>
        <time>2012-09-05T14:17:29Z</time>
      </trkpt>
      <trkpt lat="45.84295" lon="4.83425">
        <ele>172.21</ele>
        <time>2012-09-05T14:17:46Z</time>
      </trkpt>
      <trkpt lat="45.84356" lon="4.83451">
        <ele>172.21</ele>
        <time>2012-09-05T14:18:00Z</time>
      </trkpt>
      <trkpt lat="45.84373" lon="4.83457">
        <ele>172.21</ele>
        <time>2012-09-05T14:18:04Z</time>
      </trkpt>
      <trkpt lat="45.84378" lon="4.83459">
        <ele>172.21</ele>
        <time>2012-09-05T14:18:05Z</time>
      </trkpt>
      <trkpt lat="45.8442" lon="4.83476">
        <ele>172.21</ele>
        <time>2012-09-05T14:18:15Z</time>
      </trkpt>
      <trkpt lat="45.84468" lon="4.83497">
        <ele>172.21</ele>
        <time>2012-09-05T14:18:28Z</time>
      </trkpt>
      <trkpt lat="45.84494" lon="4.83503">
        <ele>171.73</ele>
        <time>2012-09-05T14:18:38Z</time>
      </trkpt>
      <trkpt lat="45.84513" lon="4.83507">
        <ele>171.25</ele>
        <time>2012-09-05T14:18:49Z</time>
      </trkpt>
      <trkpt lat="45.84514" lon="4.83505">
        <ele>171.73</ele>
        <time>2012-09-05T14:19:02Z</time>
      </trkpt>
      <trkpt lat="45.84516" lon="4.83505">
        <ele>170.77</ele>
        <time>2012-09-05T14:19:31Z</time>
      </trkpt>
      <trkpt lat="45.84515" lon="4.83505">
        <ele>170.77</ele>
        <time>2012-09-05T14:19:59Z</time>
      </trkpt>
      <trkpt lat="45.84511" lon="4.83507">
        <ele>170.77</ele>
        <time>2012-09-05T14:21:23Z</time>
      </trkpt>
      <trkpt lat="45.84511" lon="4.83504">
        <ele>170.77</ele>
        <time>2012-09-05T14:21:24Z</time>
      </trkpt>
      <trkpt lat="45.84509" lon="4.83502">
        <ele>170.77</ele>
        <time>2012-09-05T14:21:58Z</time>
      </trkpt>
      <trkpt lat="45.84513" lon="4.83501">
        <ele>170.77</ele>
        <time>2012-09-05T14:22:14Z</time>
      </trkpt>
      <trkpt lat="45.84522" lon="4.83506">
        <ele>170.77</ele>
        <time>2012-09-05T14:22:19Z</time>
      </trkpt>
      <trkpt lat="45.84562" lon="4.83531">
        <ele>169.81</ele>
        <time>2012-09-05T14:22:32Z</time>
      </trkpt>
      <trkpt lat="45.84615" lon="4.83557">
        <ele>169.33</ele>
        <time>2012-09-05T14:22:46Z</time>
      </trkpt>
      <trkpt lat="45.84664" lon="4.83582">
        <ele>169.33</ele>
        <time>2012-09-05T14:22:59Z</time>
      </trkpt>
      <trkpt lat="45.84725" lon="4.83614">
        <ele>169.33</ele>
        <time>2012-09-05T14:23:14Z</time>
      </trkpt>
      <trkpt lat="45.84795" lon="4.83651">
        <ele>169.33</ele>
        <time>2012-09-05T14:23:31Z</time>
      </trkpt>
      <trkpt lat="45.84873" lon="4.83692">
        <ele>170.29</ele>
        <time>2012-09-05T14:23:50Z</time>
      </trkpt>
      <trkpt lat="45.84939" lon="4.83724">
        <ele>170.29</ele>
        <time>2012-09-05T14:24:06Z</time>
      </trkpt>
      <trkpt lat="45.84976" lon="4.83728">
        <ele>169.81</ele>
        <time>2012-09-05T14:24:17Z</time>
      </trkpt>
      <trkpt lat="45.84978" lon="4.83729">
        <ele>169.81</ele>
        <time>2012-09-05T14:24:18Z</time>
      </trkpt>
      <trkpt lat="45.84979" lon="4.83728">
        <ele>169.81</ele>
        <time>2012-09-05T14:24:19Z</time>
      </trkpt>
      <trkpt lat="45.84979" lon="4.83726">
        <ele>169.33</ele>
        <time>2012-09-05T14:24:20Z</time>
      </trkpt>
      <trkpt lat="45.84977" lon="4.83726">
        <ele>169.33</ele>
        <time>2012-09-05T14:24:21Z</time>
      </trkpt>
      <trkpt lat="45.84976" lon="4.83725">
        <ele>169.33</ele>
        <time>2012-09-05T14:24:22Z</time>
      </trkpt>
      <trkpt lat="45.84974" lon="4.83724">
        <ele>169.33</ele>
        <time>2012-09-05T14:24:23Z</time>
      </trkpt>
      <trkpt lat="45.84973" lon="4.83722">
        <ele>169.33</ele>
        <time>2012-09-05T14:24:24Z</time>
      </trkpt>
      <trkpt lat="45.8497" lon="4.83721">
        <ele>169.33</ele>
        <time>2012-09-05T14:24:25Z</time>
      </trkpt>
      <trkpt lat="45.84969" lon="4.83722">
        <ele>169.33</ele>
        <time>2012-09-05T14:24:26Z</time>
      </trkpt>
      <trkpt lat="45.84969" lon="4.83724">
        <ele>169.33</ele>
        <time>2012-09-05T14:24:27Z</time>
      </trkpt>
      <trkpt lat="45.84971" lon="4.83724">
        <ele>169.33</ele>
        <time>2012-09-05T14:24:38Z</time>
      </trkpt>
      <trkpt lat="45.84971" lon="4.83723">
        <ele>169.81</ele>
        <time>2012-09-05T14:24:58Z</time>
      </trkpt>
      <trkpt lat="45.84972" lon="4.83724">
        <ele>169.33</ele>
        <time>2012-09-05T14:24:59Z</time>
      </trkpt>
      <trkpt lat="45.84973" lon="4.83725">
        <ele>169.33</ele>
        <time>2012-09-05T14:25:00Z</time>
      </trkpt>
      <trkpt lat="45.84987" lon="4.83743">
        <ele>169.81</ele>
        <time>2012-09-05T14:25:07Z</time>
      </trkpt>
      <trkpt lat="45.85031" lon="4.83765">
        <ele>169.81</ele>
        <time>2012-09-05T14:25:21Z</time>
      </trkpt>
      <trkpt lat="45.8509" lon="4.83784">
        <ele>169.81</ele>
        <time>2012-09-05T14:25:36Z</time>
      </trkpt>
      <trkpt lat="45.85102" lon="4.83787">
        <ele>170.29</ele>
        <time>2012-09-05T14:25:39Z</time>
      </trkpt>
      <trkpt lat="45.85106" lon="4.83788">
        <ele>169.81</ele>
        <time>2012-09-05T14:25:40Z</time>
      </trkpt>
      <trkpt lat="45.85155" lon="4.83803">
        <ele>169.81</ele>
        <time>2012-09-05T14:25:52Z</time>
      </trkpt>
      <trkpt lat="45.8516" lon="4.83805">
        <ele>169.81</ele>
        <time>2012-09-05T14:25:53Z</time>
      </trkpt>
      <trkpt lat="45.85173" lon="4.83809">
        <ele>169.81</ele>
        <time>2012-09-05T14:25:56Z</time>
      </trkpt>
      <trkpt lat="45.85191" lon="4.83813">
        <ele>170.29</ele>
        <time>2012-09-05T14:26:00Z</time>
      </trkpt>
      <trkpt lat="45.85195" lon="4.83814">
        <ele>169.81</ele>
        <time>2012-09-05T14:26:01Z</time>
      </trkpt>
      <trkpt lat="45.85255" lon="4.8383">
        <ele>170.29</ele>
        <time>2012-09-05T14:26:14Z</time>
      </trkpt>
      <trkpt lat="45.85281" lon="4.8384">
        <ele>169.81</ele>
        <time>2012-09-05T14:26:20Z</time>
      </trkpt>
      <trkpt lat="45.85317" lon="4.83852">
        <ele>169.81</ele>
        <time>2012-09-05T14:26:28Z</time>
      </trkpt>
      <trkpt lat="45.85322" lon="4.83854">
        <ele>169.81</ele>
        <time>2012-09-05T14:26:29Z</time>
      </trkpt>
      <trkpt lat="45.85344" lon="4.83867">
        <ele>169.33</ele>
        <time>2012-09-05T14:26:34Z</time>
      </trkpt>
      <trkpt lat="45.85401" lon="4.83893">
        <ele>169.81</ele>
        <time>2012-09-05T14:26:47Z</time>
      </trkpt>
      <trkpt lat="45.85467" lon="4.83925">
        <ele>169.81</ele>
        <time>2012-09-05T14:27:02Z</time>
      </trkpt>
      <trkpt lat="45.85479" lon="4.8393">
        <ele>169.81</ele>
        <time>2012-09-05T14:27:05Z</time>
      </trkpt>
      <trkpt lat="45.85512" lon="4.83946">
        <ele>169.33</ele>
        <time>2012-09-05T14:27:13Z</time>
      </trkpt>
      <trkpt lat="45.8559" lon="4.83987">
        <ele>169.81</ele>
        <time>2012-09-05T14:27:31Z</time>
      </trkpt>
      <trkpt lat="45.85602" lon="4.83994">
        <ele>169.81</ele>
        <time>2012-09-05T14:27:34Z</time>
      </trkpt>
      <trkpt lat="45.85663" lon="4.84024">
        <ele>170.29</ele>
        <time>2012-09-05T14:27:48Z</time>
      </trkpt>
      <trkpt lat="45.85671" lon="4.84028">
        <ele>169.81</ele>
        <time>2012-09-05T14:27:50Z</time>
      </trkpt>
      <trkpt lat="45.85733" lon="4.84057">
        <ele>169.81</ele>
        <time>2012-09-05T14:28:05Z</time>
      </trkpt>
      <trkpt lat="45.858" lon="4.84091">
        <ele>169.33</ele>
        <time>2012-09-05T14:28:22Z</time>
      </trkpt>
      <trkpt lat="45.85855" lon="4.84117">
        <ele>166.45</ele>
        <time>2012-09-05T14:28:36Z</time>
      </trkpt>
      <trkpt lat="45.85859" lon="4.84118">
        <ele>171.73</ele>
        <time>2012-09-05T14:28:37Z</time>
      </trkpt>
      <trkpt lat="45.85863" lon="4.8412">
        <ele>167.89</ele>
        <time>2012-09-05T14:28:38Z</time>
      </trkpt>
      <trkpt lat="45.85867" lon="4.84121">
        <ele>171.25</ele>
        <time>2012-09-05T14:28:39Z</time>
      </trkpt>
      <trkpt lat="45.85945" lon="4.8413">
        <ele>170.77</ele>
        <time>2012-09-05T14:28:59Z</time>
      </trkpt>
      <trkpt lat="45.8602" lon="4.84113">
        <ele>170.29</ele>
        <time>2012-09-05T14:29:18Z</time>
      </trkpt>
      <trkpt lat="45.86095" lon="4.84094">
        <ele>172.21</ele>
        <time>2012-09-05T14:29:37Z</time>
      </trkpt>
      <trkpt lat="45.86166" lon="4.84077">
        <ele>170.29</ele>
        <time>2012-09-05T14:29:55Z</time>
      </trkpt>
      <trkpt lat="45.86234" lon="4.8406">
        <ele>170.29</ele>
        <time>2012-09-05T14:30:12Z</time>
      </trkpt>
      <trkpt lat="45.86309" lon="4.84042">
        <ele>170.29</ele>
        <time>2012-09-05T14:30:31Z</time>
      </trkpt>
      <trkpt lat="45.86382" lon="4.84023">
        <ele>170.29</ele>
        <time>2012-09-05T14:30:49Z</time>
      </trkpt>
      <trkpt lat="45.86467" lon="4.83996">
        <ele>169.81</ele>
        <time>2012-09-05T14:31:10Z</time>
      </trkpt>
      <trkpt lat="45.86537" lon="4.83972">
        <ele>170.29</ele>
        <time>2012-09-05T14:31:28Z</time>
      </trkpt>
      <trkpt lat="45.86541" lon="4.83971">
        <ele>170.29</ele>
        <time>2012-09-05T14:31:29Z</time>
      </trkpt>
      <trkpt lat="45.86603" lon="4.83958">
        <ele>170.29</ele>
        <time>2012-09-05T14:31:45Z</time>
      </trkpt>
      <trkpt lat="45.86613" lon="4.83955">
        <ele>170.29</ele>
        <time>2012-09-05T14:31:49Z</time>
      </trkpt>
      <trkpt lat="45.86614" lon="4.83952">
        <ele>169.81</ele>
        <time>2012-09-05T14:31:51Z</time>
      </trkpt>
      <trkpt lat="45.86614" lon="4.83949">
        <ele>169.81</ele>
        <time>2012-09-05T14:31:53Z</time>
      </trkpt>
      <trkpt lat="45.86615" lon="4.83947">
        <ele>169.81</ele>
        <time>2012-09-05T14:31:54Z</time>
      </trkpt>
      <trkpt lat="45.86636" lon="4.83931">
        <ele>168.85</ele>
        <time>2012-09-05T14:32:07Z</time>
      </trkpt>
      <trkpt lat="45.86639" lon="4.83928">
        <ele>168.85</ele>
        <time>2012-09-05T14:32:10Z</time>
      </trkpt>
      <trkpt lat="45.86641" lon="4.83925">
        <ele>168.85</ele>
        <time>2012-09-05T14:32:18Z</time>
      </trkpt>
      <trkpt lat="45.86643" lon="4.83924">
        <ele>168.37</ele>
        <time>2012-09-05T14:32:19Z</time>
      </trkpt>
      <trkpt lat="45.86644" lon="4.83922">
        <ele>168.37</ele>
        <time>2012-09-05T14:32:20Z</time>
      </trkpt>
      <trkpt lat="45.86646" lon="4.8392">
        <ele>168.85</ele>
        <time>2012-09-05T14:32:21Z</time>
      </trkpt>
      <trkpt lat="45.86648" lon="4.83918">
        <ele>168.85</ele>
        <time>2012-09-05T14:32:22Z</time>
      </trkpt>
      <trkpt lat="45.86651" lon="4.83915">
        <ele>168.85</ele>
        <time>2012-09-05T14:32:23Z</time>
      </trkpt>
      <trkpt lat="45.86659" lon="4.83905">
        <ele>168.85</ele>
        <time>2012-09-05T14:32:27Z</time>
      </trkpt>
      <trkpt lat="45.86661" lon="4.83903">
        <ele>168.37</ele>
        <time>2012-09-05T14:32:28Z</time>
      </trkpt>
      <trkpt lat="45.86688" lon="4.83869">
        <ele>168.85</ele>
        <time>2012-09-05T14:32:39Z</time>
      </trkpt>
      <trkpt lat="45.86721" lon="4.83839">
        <ele>168.85</ele>
        <time>2012-09-05T14:32:50Z</time>
      </trkpt>
      <trkpt lat="45.86762" lon="4.83803">
        <ele>168.85</ele>
        <time>2012-09-05T14:33:03Z</time>
      </trkpt>
      <trkpt lat="45.86781" lon="4.83784">
        <ele>168.85</ele>
        <time>2012-09-05T14:33:09Z</time>
      </trkpt>
      <trkpt lat="45.86785" lon="4.83782">
        <ele>168.85</ele>
        <time>2012-09-05T14:33:10Z</time>
      </trkpt>
      <trkpt lat="45.86793" lon="4.83779">
        <ele>168.85</ele>
        <time>2012-09-05T14:33:12Z</time>
      </trkpt>
      <trkpt lat="45.86797" lon="4.83777">
        <ele>168.85</ele>
        <time>2012-09-05T14:33:13Z</time>
      </trkpt>
      <trkpt lat="45.86841" lon="4.83746">
        <ele>168.85</ele>
        <time>2012-09-05T14:33:26Z</time>
      </trkpt>
      <trkpt lat="45.8688" lon="4.83721">
        <ele>168.37</ele>
        <time>2012-09-05T14:33:38Z</time>
      </trkpt>
      <trkpt lat="45.86892" lon="4.83717">
        <ele>168.37</ele>
        <time>2012-09-05T14:33:47Z</time>
      </trkpt>
      <trkpt lat="45.86894" lon="4.83715">
        <ele>168.37</ele>
        <time>2012-09-05T14:33:48Z</time>
      </trkpt>
      <trkpt lat="45.86897" lon="4.83715">
        <ele>168.37</ele>
        <time>2012-09-05T14:33:49Z</time>
      </trkpt>
      <trkpt lat="45.869" lon="4.83715">
        <ele>168.37</ele>
        <time>2012-09-05T14:33:50Z</time>
      </trkpt>
      <trkpt lat="45.86904" lon="4.83715">
        <ele>168.37</ele>
        <time>2012-09-05T14:33:51Z</time>
      </trkpt>
      <trkpt lat="45.86908" lon="4.83715">
        <ele>168.37</ele>
        <time>2012-09-05T14:33:52Z</time>
      </trkpt>
      <trkpt lat="45.86959" lon="4.83704">
        <ele>168.37</ele>
        <time>2012-09-05T14:34:07Z</time>
      </trkpt>
      <trkpt lat="45.87027" lon="4.83703">
        <ele>168.37</ele>
        <time>2012-09-05T14:34:26Z</time>
      </trkpt>
      <trkpt lat="45.8708" lon="4.83704">
        <ele>168.85</ele>
        <time>2012-09-05T14:34:41Z</time>
      </trkpt>
      <trkpt lat="45.87103" lon="4.83705">
        <ele>168.37</ele>
        <time>2012-09-05T14:34:47Z</time>
      </trkpt>
      <trkpt lat="45.87123" lon="4.83712">
        <ele>168.37</ele>
        <time>2012-09-05T14:34:52Z</time>
      </trkpt>
      <trkpt lat="45.87127" lon="4.83713">
        <ele>168.37</ele>
        <time>2012-09-05T14:34:53Z</time>
      </trkpt>
      <trkpt lat="45.87174" lon="4.83723">
        <ele>168.85</ele>
        <time>2012-09-05T14:35:05Z</time>
      </trkpt>
      <trkpt lat="45.87191" lon="4.83725">
        <ele>168.85</ele>
        <time>2012-09-05T14:35:09Z</time>
      </trkpt>
      <trkpt lat="45.87235" lon="4.83724">
        <ele>168.37</ele>
        <time>2012-09-05T14:35:22Z</time>
      </trkpt>
      <trkpt lat="45.87244" lon="4.83724">
        <ele>168.85</ele>
        <time>2012-09-05T14:35:26Z</time>
      </trkpt>
      <trkpt lat="45.87246" lon="4.83725">
        <ele>168.37</ele>
        <time>2012-09-05T14:35:27Z</time>
      </trkpt>
      <trkpt lat="45.87247" lon="4.83726">
        <ele>168.85</ele>
        <time>2012-09-05T14:35:28Z</time>
      </trkpt>
      <trkpt lat="45.8725" lon="4.83727">
        <ele>168.85</ele>
        <time>2012-09-05T14:35:29Z</time>
      </trkpt>
      <trkpt lat="45.87252" lon="4.83727">
        <ele>168.85</ele>
        <time>2012-09-05T14:35:30Z</time>
      </trkpt>
      <trkpt lat="45.87254" lon="4.83727">
        <ele>168.37</ele>
        <time>2012-09-05T14:35:31Z</time>
      </trkpt>
      <trkpt lat="45.87257" lon="4.83728">
        <ele>168.37</ele>
        <time>2012-09-05T14:35:32Z</time>
      </trkpt>
      <trkpt lat="45.873" lon="4.83737">
        <ele>168.85</ele>
        <time>2012-09-05T14:35:46Z</time>
      </trkpt>
      <trkpt lat="45.87351" lon="4.83744">
        <ele>168.85</ele>
        <time>2012-09-05T14:36:01Z</time>
      </trkpt>
      <trkpt lat="45.87386" lon="4.83751">
        <ele>168.85</ele>
        <time>2012-09-05T14:36:13Z</time>
      </trkpt>
      <trkpt lat="45.87417" lon="4.83758">
        <ele>169.33</ele>
        <time>2012-09-05T14:36:24Z</time>
      </trkpt>
      <trkpt lat="45.8742" lon="4.83757">
        <ele>169.33</ele>
        <time>2012-09-05T14:36:25Z</time>
      </trkpt>
      <trkpt lat="45.87423" lon="4.83758">
        <ele>169.33</ele>
        <time>2012-09-05T14:36:26Z</time>
      </trkpt>
      <trkpt lat="45.87426" lon="4.83758">
        <ele>169.33</ele>
        <time>2012-09-05T14:36:27Z</time>
      </trkpt>
      <trkpt lat="45.87428" lon="4.83758">
        <ele>169.33</ele>
        <time>2012-09-05T14:36:28Z</time>
      </trkpt>
      <trkpt lat="45.87457" lon="4.83764">
        <ele>168.85</ele>
        <time>2012-09-05T14:36:39Z</time>
      </trkpt>
      <trkpt lat="45.87502" lon="4.83773">
        <ele>169.33</ele>
        <time>2012-09-05T14:36:53Z</time>
      </trkpt>
      <trkpt lat="45.87791" lon="4.83789">
        <ele>168.37</ele>
        <time>2012-09-05T14:40:47Z</time>
      </trkpt>
      <trkpt lat="45.87793" lon="4.83786">
        <ele>169.33</ele>
        <time>2012-09-05T14:40:49Z</time>
      </trkpt>
      <trkpt lat="45.8779" lon="4.83777">
        <ele>165.96</ele>
        <time>2012-09-05T14:40:54Z</time>
      </trkpt>
      <trkpt lat="45.8779" lon="4.83777">
        <ele>170.29</ele>
        <time>2012-09-05T14:40:55Z</time>
      </trkpt>
      <trkpt lat="45.87787" lon="4.83778">
        <ele>168.85</ele>
        <time>2012-09-05T14:41:24Z</time>
      </trkpt>
      <trkpt lat="45.87792" lon="4.83782">
        <ele>168.37</ele>
        <time>2012-09-05T14:41:52Z</time>
      </trkpt>
      <trkpt lat="45.87791" lon="4.83782">
        <ele>168.37</ele>
        <time>2012-09-05T14:41:57Z</time>
      </trkpt>
      <trkpt lat="45.87792" lon="4.8378">
        <ele>168.37</ele>
        <time>2012-09-05T14:41:59Z</time>
      </trkpt>
      <trkpt lat="45.87798" lon="4.83776">
        <ele>168.85</ele>
        <time>2012-09-05T14:42:03Z</time>
      </trkpt>
      <trkpt lat="45.87813" lon="4.83767">
        <ele>168.85</ele>
        <time>2012-09-05T14:42:09Z</time>
      </trkpt>
      <trkpt lat="45.87855" lon="4.83728">
        <ele>168.37</ele>
        <time>2012-09-05T14:42:23Z</time>
      </trkpt>
      <trkpt lat="45.87896" lon="4.83691">
        <ele>168.85</ele>
        <time>2012-09-05T14:42:36Z</time>
      </trkpt>
      <trkpt lat="45.87929" lon="4.83644">
        <ele>168.85</ele>
        <time>2012-09-05T14:42:49Z</time>
      </trkpt>
      <trkpt lat="45.87943" lon="4.83605">
        <ele>168.37</ele>
        <time>2012-09-05T14:42:59Z</time>
      </trkpt>
      <trkpt lat="45.87946" lon="4.83584">
        <ele>168.37</ele>
        <time>2012-09-05T14:43:05Z</time>
      </trkpt>
      <trkpt lat="45.87969" lon="4.83517">
        <ele>168.85</ele>
        <time>2012-09-05T14:43:20Z</time>
      </trkpt>
      <trkpt lat="45.87985" lon="4.83448">
        <ele>168.85</ele>
        <time>2012-09-05T14:43:33Z</time>
      </trkpt>
      <trkpt lat="45.88004" lon="4.83367">
        <ele>168.85</ele>
        <time>2012-09-05T14:43:48Z</time>
      </trkpt>
      <trkpt lat="45.88014" lon="4.83299">
        <ele>168.37</ele>
        <time>2012-09-05T14:44:01Z</time>
      </trkpt>
      <trkpt lat="45.88025" lon="4.83199">
        <ele>168.37</ele>
        <time>2012-09-05T14:44:18Z</time>
      </trkpt>
      <trkpt lat="45.88032" lon="4.83147">
        <ele>168.37</ele>
        <time>2012-09-05T14:44:30Z</time>
      </trkpt>
      <trkpt lat="45.88032" lon="4.83145">
        <ele>168.37</ele>
        <time>2012-09-05T14:44:31Z</time>
      </trkpt>
      <trkpt lat="45.88033" lon="4.83144">
        <ele>168.37</ele>
        <time>2012-09-05T14:44:32Z</time>
      </trkpt>
      <trkpt lat="45.88037" lon="4.83143">
        <ele>168.37</ele>
        <time>2012-09-05T14:44:35Z</time>
      </trkpt>
      <trkpt lat="45.88041" lon="4.83119">
        <ele>168.37</ele>
        <time>2012-09-05T14:44:46Z</time>
      </trkpt>
      <trkpt lat="45.88041" lon="4.83111">
        <ele>168.37</ele>
        <time>2012-09-05T14:44:48Z</time>
      </trkpt>
      <trkpt lat="45.88049" lon="4.83047">
        <ele>168.85</ele>
        <time>2012-09-05T14:45:02Z</time>
      </trkpt>
      <trkpt lat="45.88057" lon="4.82983">
        <ele>168.37</ele>
        <time>2012-09-05T14:45:14Z</time>
      </trkpt>
      <trkpt lat="45.88057" lon="4.82976">
        <ele>168.37</ele>
        <time>2012-09-05T14:45:15Z</time>
      </trkpt>
      <trkpt lat="45.88064" lon="4.8292">
        <ele>168.37</ele>
        <time>2012-09-05T14:45:24Z</time>
      </trkpt>
      <trkpt lat="45.88065" lon="4.82914">
        <ele>168.37</ele>
        <time>2012-09-05T14:45:25Z</time>
      </trkpt>
      <trkpt lat="45.88068" lon="4.82889">
        <ele>168.85</ele>
        <time>2012-09-05T14:45:29Z</time>
      </trkpt>
      <trkpt lat="45.88074" lon="4.82852">
        <ele>168.85</ele>
        <time>2012-09-05T14:45:35Z</time>
      </trkpt>
      <trkpt lat="45.88075" lon="4.82846">
        <ele>168.85</ele>
        <time>2012-09-05T14:45:36Z</time>
      </trkpt>
      <trkpt lat="45.88076" lon="4.8284">
        <ele>168.85</ele>
        <time>2012-09-05T14:45:37Z</time>
      </trkpt>
      <trkpt lat="45.88077" lon="4.82834">
        <ele>168.85</ele>
        <time>2012-09-05T14:45:38Z</time>
      </trkpt>
      <trkpt lat="45.88079" lon="4.82828">
        <ele>168.85</ele>
        <time>2012-09-05T14:45:39Z</time>
      </trkpt>
      <trkpt lat="45.88089" lon="4.82752">
        <ele>169.33</ele>
        <time>2012-09-05T14:45:53Z</time>
      </trkpt>
      <trkpt lat="45.88094" lon="4.82717">
        <ele>169.33</ele>
        <time>2012-09-05T14:46:03Z</time>
      </trkpt>
      <trkpt lat="45.88108" lon="4.8266">
        <ele>169.33</ele>
        <time>2012-09-05T14:46:14Z</time>
      </trkpt>
      <trkpt lat="45.88131" lon="4.82564">
        <ele>169.81</ele>
        <time>2012-09-05T14:46:31Z</time>
      </trkpt>
      <trkpt lat="45.88136" lon="4.82547">
        <ele>169.33</ele>
        <time>2012-09-05T14:46:34Z</time>
      </trkpt>
      <trkpt lat="45.88138" lon="4.82542">
        <ele>169.81</ele>
        <time>2012-09-05T14:46:35Z</time>
      </trkpt>
      <trkpt lat="45.88141" lon="4.8253">
        <ele>169.33</ele>
        <time>2012-09-05T14:46:37Z</time>
      </trkpt>
      <trkpt lat="45.88142" lon="4.82524">
        <ele>169.33</ele>
        <time>2012-09-05T14:46:38Z</time>
      </trkpt>
      <trkpt lat="45.88159" lon="4.82458">
        <ele>169.81</ele>
        <time>2012-09-05T14:46:51Z</time>
      </trkpt>
      <trkpt lat="45.88177" lon="4.82384">
        <ele>169.33</ele>
        <time>2012-09-05T14:47:04Z</time>
      </trkpt>
      <trkpt lat="45.88178" lon="4.82378">
        <ele>169.81</ele>
        <time>2012-09-05T14:47:05Z</time>
      </trkpt>
      <trkpt lat="45.88201" lon="4.823">
        <ele>169.33</ele>
        <time>2012-09-05T14:47:20Z</time>
      </trkpt>
      <trkpt lat="45.88223" lon="4.82219">
        <ele>169.33</ele>
        <time>2012-09-05T14:47:35Z</time>
      </trkpt>
      <trkpt lat="45.88238" lon="4.82164">
        <ele>169.33</ele>
        <time>2012-09-05T14:47:48Z</time>
      </trkpt>
      <trkpt lat="45.88256" lon="4.82123">
        <ele>169.33</ele>
        <time>2012-09-05T14:47:59Z</time>
      </trkpt>
      <trkpt lat="45.88269" lon="4.82083">
        <ele>169.33</ele>
        <time>2012-09-05T14:48:08Z</time>
      </trkpt>
      <trkpt lat="45.88285" lon="4.82041">
        <ele>169.81</ele>
        <time>2012-09-05T14:48:20Z</time>
      </trkpt>
      <trkpt lat="45.88309" lon="4.81982">
        <ele>169.81</ele>
        <time>2012-09-05T14:48:33Z</time>
      </trkpt>
      <trkpt lat="45.88336" lon="4.81917">
        <ele>171.25</ele>
        <time>2012-09-05T14:48:47Z</time>
      </trkpt>
      <trkpt lat="45.88362" lon="4.81858">
        <ele>169.33</ele>
        <time>2012-09-05T14:49:01Z</time>
      </trkpt>
      <trkpt lat="45.88378" lon="4.81835">
        <ele>169.81</ele>
        <time>2012-09-05T14:49:12Z</time>
      </trkpt>
      <trkpt lat="45.88379" lon="4.81833">
        <ele>169.81</ele>
        <time>2012-09-05T14:49:13Z</time>
      </trkpt>
      <trkpt lat="45.8839" lon="4.81806">
        <ele>169.33</ele>
        <time>2012-09-05T14:49:23Z</time>
      </trkpt>
      <trkpt lat="45.88404" lon="4.81778">
        <ele>169.33</ele>
        <time>2012-09-05T14:49:36Z</time>
      </trkpt>
      <trkpt lat="45.88425" lon="4.81741">
        <ele>169.81</ele>
        <time>2012-09-05T14:49:47Z</time>
      </trkpt>
      <trkpt lat="45.8845" lon="4.81698">
        <ele>169.81</ele>
        <time>2012-09-05T14:49:58Z</time>
      </trkpt>
      <trkpt lat="45.88477" lon="4.81662">
        <ele>169.81</ele>
        <time>2012-09-05T14:50:07Z</time>
      </trkpt>
      <trkpt lat="45.88524" lon="4.81604">
        <ele>169.81</ele>
        <time>2012-09-05T14:50:22Z</time>
      </trkpt>
      <trkpt lat="45.88527" lon="4.816">
        <ele>169.81</ele>
        <time>2012-09-05T14:50:23Z</time>
      </trkpt>
      <trkpt lat="45.88564" lon="4.81554">
        <ele>169.81</ele>
        <time>2012-09-05T14:50:35Z</time>
      </trkpt>
      <trkpt lat="45.88566" lon="4.8155">
        <ele>169.81</ele>
        <time>2012-09-05T14:50:36Z</time>
      </trkpt>
      <trkpt lat="45.88575" lon="4.81538">
        <ele>169.81</ele>
        <time>2012-09-05T14:50:39Z</time>
      </trkpt>
      <trkpt lat="45.88617" lon="4.81485">
        <ele>169.81</ele>
        <time>2012-09-05T14:50:53Z</time>
      </trkpt>
      <trkpt lat="45.8867" lon="4.81416">
        <ele>169.81</ele>
        <time>2012-09-05T14:51:10Z</time>
      </trkpt>
      <trkpt lat="45.88695" lon="4.81384">
        <ele>170.29</ele>
        <time>2012-09-05T14:51:18Z</time>
      </trkpt>
      <trkpt lat="45.88735" lon="4.81333">
        <ele>170.29</ele>
        <time>2012-09-05T14:51:32Z</time>
      </trkpt>
      <trkpt lat="45.88778" lon="4.81283">
        <ele>170.29</ele>
        <time>2012-09-05T14:51:46Z</time>
      </trkpt>
      <trkpt lat="45.88816" lon="4.81241">
        <ele>169.81</ele>
        <time>2012-09-05T14:51:59Z</time>
      </trkpt>
      <trkpt lat="45.88873" lon="4.81189">
        <ele>170.29</ele>
        <time>2012-09-05T14:52:15Z</time>
      </trkpt>
      <trkpt lat="45.88932" lon="4.81143">
        <ele>170.29</ele>
        <time>2012-09-05T14:52:31Z</time>
      </trkpt>
      <trkpt lat="45.88985" lon="4.81104">
        <ele>169.81</ele>
        <time>2012-09-05T14:52:46Z</time>
      </trkpt>
      <trkpt lat="45.89028" lon="4.81071">
        <ele>169.81</ele>
        <time>2012-09-05T14:52:59Z</time>
      </trkpt>
      <trkpt lat="45.89078" lon="4.81035">
        <ele>169.81</ele>
        <time>2012-09-05T14:53:13Z</time>
      </trkpt>
      <trkpt lat="45.89134" lon="4.80994">
        <ele>170.29</ele>
        <time>2012-09-05T14:53:29Z</time>
      </trkpt>
      <trkpt lat="45.89188" lon="4.80953">
        <ele>169.81</ele>
        <time>2012-09-05T14:53:44Z</time>
      </trkpt>
      <trkpt lat="45.89227" lon="4.80923">
        <ele>169.33</ele>
        <time>2012-09-05T14:53:58Z</time>
      </trkpt>
      <trkpt lat="45.89238" lon="4.80913">
        <ele>167.41</ele>
        <time>2012-09-05T14:54:09Z</time>
      </trkpt>
      <trkpt lat="45.89238" lon="4.80914">
        <ele>167.89</ele>
        <time>2012-09-05T14:54:28Z</time>
      </trkpt>
      <trkpt lat="45.89239" lon="4.80912">
        <ele>168.85</ele>
        <time>2012-09-05T14:54:49Z</time>
      </trkpt>
      <trkpt lat="45.89269" lon="4.80891">
        <ele>168.37</ele>
        <time>2012-09-05T14:55:02Z</time>
      </trkpt>
      <trkpt lat="45.893" lon="4.8087">
        <ele>167.89</ele>
        <time>2012-09-05T14:55:13Z</time>
      </trkpt>
      <trkpt lat="45.89347" lon="4.80844">
        <ele>167.89</ele>
        <time>2012-09-05T14:55:27Z</time>
      </trkpt>
      <trkpt lat="45.89391" lon="4.80819">
        <ele>167.89</ele>
        <time>2012-09-05T14:55:40Z</time>
      </trkpt>
      <trkpt lat="45.8941" lon="4.80808">
        <ele>167.89</ele>
        <time>2012-09-05T14:55:49Z</time>
      </trkpt>
      <trkpt lat="45.89412" lon="4.80807">
        <ele>167.89</ele>
        <time>2012-09-05T14:55:50Z</time>
      </trkpt>
      <trkpt lat="45.89414" lon="4.80806">
        <ele>167.89</ele>
        <time>2012-09-05T14:55:51Z</time>
      </trkpt>
      <trkpt lat="45.89418" lon="4.80805">
        <ele>167.89</ele>
        <time>2012-09-05T14:55:54Z</time>
      </trkpt>
      <trkpt lat="45.8944" lon="4.80796">
        <ele>167.41</ele>
        <time>2012-09-05T14:56:06Z</time>
      </trkpt>
      <trkpt lat="45.89441" lon="4.80795">
        <ele>167.41</ele>
        <time>2012-09-05T14:56:07Z</time>
      </trkpt>
      <trkpt lat="45.89442" lon="4.80794">
        <ele>167.89</ele>
        <time>2012-09-05T14:56:08Z</time>
      </trkpt>
      <trkpt lat="45.89444" lon="4.80791">
        <ele>167.89</ele>
        <time>2012-09-05T14:56:21Z</time>
      </trkpt>
      <trkpt lat="45.89445" lon="4.80789">
        <ele>167.41</ele>
        <time>2012-09-05T14:56:38Z</time>
      </trkpt>
      <trkpt lat="45.89449" lon="4.80786">
        <ele>167.89</ele>
        <time>2012-09-05T14:56:43Z</time>
      </trkpt>
      <trkpt lat="45.8945" lon="4.80785">
        <ele>167.89</ele>
        <time>2012-09-05T14:56:44Z</time>
      </trkpt>
      <trkpt lat="45.89452" lon="4.80784">
        <ele>167.41</ele>
        <time>2012-09-05T14:56:45Z</time>
      </trkpt>
      <trkpt lat="45.89458" lon="4.80779">
        <ele>166.93</ele>
        <time>2012-09-05T14:56:59Z</time>
      </trkpt>
      <trkpt lat="45.89459" lon="4.80779">
        <ele>167.89</ele>
        <time>2012-09-05T14:57:16Z</time>
      </trkpt>
      <trkpt lat="45.89459" lon="4.80778">
        <ele>167.89</ele>
        <time>2012-09-05T14:57:44Z</time>
      </trkpt>
      <trkpt lat="45.8946" lon="4.80778">
        <ele>167.89</ele>
        <time>2012-09-05T14:58:15Z</time>
      </trkpt>
      <trkpt lat="45.89474" lon="4.8077">
        <ele>167.89</ele>
        <time>2012-09-05T14:58:27Z</time>
      </trkpt>
      <trkpt lat="45.89495" lon="4.80758">
        <ele>167.89</ele>
        <time>2012-09-05T14:58:39Z</time>
      </trkpt>
      <trkpt lat="45.89509" lon="4.80753">
        <ele>168.85</ele>
        <time>2012-09-05T14:58:51Z</time>
      </trkpt>
      <trkpt lat="45.89509" lon="4.80753">
        <ele>163.08</ele>
        <time>2012-09-05T14:59:04Z</time>
      </trkpt>
      <trkpt lat="45.89509" lon="4.80753">
        <ele>172.21</ele>
        <time>2012-09-05T14:59:05Z</time>
      </trkpt>
      <trkpt lat="45.89509" lon="4.80753">
        <ele>168.37</ele>
        <time>2012-09-05T14:59:06Z</time>
      </trkpt>
      <trkpt lat="45.89511" lon="4.80754">
        <ele>167.89</ele>
        <time>2012-09-05T14:59:33Z</time>
      </trkpt>
      <trkpt lat="45.89511" lon="4.80754">
        <ele>169.81</ele>
        <time>2012-09-05T14:59:57Z</time>
      </trkpt>
      <trkpt lat="45.89511" lon="4.80754">
        <ele>165.96</ele>
        <time>2012-09-05T14:59:59Z</time>
      </trkpt>
      <trkpt lat="45.89511" lon="4.80754">
        <ele>169.81</ele>
        <time>2012-09-05T15:00:00Z</time>
      </trkpt>
      <trkpt lat="45.89514" lon="4.80751">
        <ele>167.89</ele>
        <time>2012-09-05T15:00:12Z</time>
      </trkpt>
      <trkpt lat="45.89515" lon="4.8075">
        <ele>168.37</ele>
        <time>2012-09-05T15:00:13Z</time>
      </trkpt>
      <trkpt lat="45.89518" lon="4.80748">
        <ele>168.37</ele>
        <time>2012-09-05T15:00:15Z</time>
      </trkpt>
      <trkpt lat="45.8952" lon="4.80747">
        <ele>168.37</ele>
        <time>2012-09-05T15:00:16Z</time>
      </trkpt>
      <trkpt lat="45.89522" lon="4.80746">
        <ele>168.37</ele>
        <time>2012-09-05T15:00:17Z</time>
      </trkpt>
      <trkpt lat="45.89525" lon="4.80744">
        <ele>168.37</ele>
        <time>2012-09-05T15:00:18Z</time>
      </trkpt>
      <trkpt lat="45.89528" lon="4.80742">
        <ele>167.89</ele>
        <time>2012-09-05T15:00:19Z</time>
      </trkpt>
      <trkpt lat="45.8953" lon="4.8074">
        <ele>167.89</ele>
        <time>2012-09-05T15:00:20Z</time>
      </trkpt>
      <trkpt lat="45.89534" lon="4.80738">
        <ele>167.89</ele>
        <time>2012-09-05T15:00:21Z</time>
      </trkpt>
      <trkpt lat="45.89575" lon="4.8072">
        <ele>168.37</ele>
        <time>2012-09-05T15:00:32Z</time>
      </trkpt>
      <trkpt lat="45.89579" lon="4.80718">
        <ele>168.37</ele>
        <time>2012-09-05T15:00:33Z</time>
      </trkpt>
      <trkpt lat="45.89627" lon="4.80709">
        <ele>168.85</ele>
        <time>2012-09-05T15:00:45Z</time>
      </trkpt>
      <trkpt lat="45.89669" lon="4.80696">
        <ele>169.33</ele>
        <time>2012-09-05T15:00:57Z</time>
      </trkpt>
      <trkpt lat="45.89709" lon="4.80674">
        <ele>168.37</ele>
        <time>2012-09-05T15:01:08Z</time>
      </trkpt>
      <trkpt lat="45.89712" lon="4.8067">
        <ele>168.37</ele>
        <time>2012-09-05T15:01:18Z</time>
      </trkpt>
      <trkpt lat="45.89713" lon="4.80668">
        <ele>168.37</ele>
        <time>2012-09-05T15:01:42Z</time>
      </trkpt>
      <trkpt lat="45.89714" lon="4.80668">
        <ele>168.85</ele>
        <time>2012-09-05T15:01:51Z</time>
      </trkpt>
      <trkpt lat="45.89715" lon="4.80667">
        <ele>168.85</ele>
        <time>2012-09-05T15:01:52Z</time>
      </trkpt>
      <trkpt lat="45.89717" lon="4.80666">
        <ele>168.85</ele>
        <time>2012-09-05T15:01:53Z</time>
      </trkpt>
      <trkpt lat="45.89719" lon="4.80665">
        <ele>168.85</ele>
        <time>2012-09-05T15:01:54Z</time>
      </trkpt>
      <trkpt lat="45.89722" lon="4.80663">
        <ele>168.37</ele>
        <time>2012-09-05T15:01:55Z</time>
      </trkpt>
      <trkpt lat="45.89725" lon="4.80661">
        <ele>168.85</ele>
        <time>2012-09-05T15:01:56Z</time>
      </trkpt>
      <trkpt lat="45.89743" lon="4.80647">
        <ele>168.37</ele>
        <time>2012-09-05T15:02:01Z</time>
      </trkpt>
      <trkpt lat="45.89747" lon="4.80643">
        <ele>168.37</ele>
        <time>2012-09-05T15:02:02Z</time>
      </trkpt>
      <trkpt lat="45.8975" lon="4.80639">
        <ele>168.85</ele>
        <time>2012-09-05T15:02:03Z</time>
      </trkpt>
      <trkpt lat="45.89755" lon="4.80635">
        <ele>168.85</ele>
        <time>2012-09-05T15:02:04Z</time>
      </trkpt>
      <trkpt lat="45.89759" lon="4.80632">
        <ele>168.85</ele>
        <time>2012-09-05T15:02:05Z</time>
      </trkpt>
      <trkpt lat="45.89773" lon="4.80619">
        <ele>168.37</ele>
        <time>2012-09-05T15:02:09Z</time>
      </trkpt>
      <trkpt lat="45.89782" lon="4.80611">
        <ele>168.37</ele>
        <time>2012-09-05T15:02:11Z</time>
      </trkpt>
      <trkpt lat="45.89786" lon="4.80607">
        <ele>168.37</ele>
        <time>2012-09-05T15:02:12Z</time>
      </trkpt>
      <trkpt lat="45.8979" lon="4.80604">
        <ele>168.85</ele>
        <time>2012-09-05T15:02:13Z</time>
      </trkpt>
      <trkpt lat="45.89793" lon="4.80601">
        <ele>168.85</ele>
        <time>2012-09-05T15:02:14Z</time>
      </trkpt>
      <trkpt lat="45.89798" lon="4.80597">
        <ele>168.85</ele>
        <time>2012-09-05T15:02:15Z</time>
      </trkpt>
      <trkpt lat="45.89802" lon="4.80593">
        <ele>168.37</ele>
        <time>2012-09-05T15:02:16Z</time>
      </trkpt>
      <trkpt lat="45.89807" lon="4.8059">
        <ele>168.85</ele>
        <time>2012-09-05T15:02:17Z</time>
      </trkpt>
      <trkpt lat="45.8987" lon="4.80553">
        <ele>168.85</ele>
        <time>2012-09-05T15:02:30Z</time>
      </trkpt>
      <trkpt lat="45.89875" lon="4.80551">
        <ele>168.85</ele>
        <time>2012-09-05T15:02:31Z</time>
      </trkpt>
      <trkpt lat="45.89895" lon="4.80538">
        <ele>168.37</ele>
        <time>2012-09-05T15:02:35Z</time>
      </trkpt>
      <trkpt lat="45.899" lon="4.80535">
        <ele>168.37</ele>
        <time>2012-09-05T15:02:36Z</time>
      </trkpt>
      <trkpt lat="45.89921" lon="4.80522">
        <ele>168.37</ele>
        <time>2012-09-05T15:02:41Z</time>
      </trkpt>
      <trkpt lat="45.89926" lon="4.8052">
        <ele>168.85</ele>
        <time>2012-09-05T15:02:42Z</time>
      </trkpt>
      <trkpt lat="45.89931" lon="4.80519">
        <ele>168.85</ele>
        <time>2012-09-05T15:02:43Z</time>
      </trkpt>
      <trkpt lat="45.89935" lon="4.80518">
        <ele>168.37</ele>
        <time>2012-09-05T15:02:44Z</time>
      </trkpt>
      <trkpt lat="45.8994" lon="4.80517">
        <ele>168.37</ele>
        <time>2012-09-05T15:02:45Z</time>
      </trkpt>
      <trkpt lat="45.89945" lon="4.80516">
        <ele>168.37</ele>
        <time>2012-09-05T15:02:46Z</time>
      </trkpt>
      <trkpt lat="45.89949" lon="4.80516">
        <ele>168.37</ele>
        <time>2012-09-05T15:02:47Z</time>
      </trkpt>
      <trkpt lat="45.89953" lon="4.80514">
        <ele>168.37</ele>
        <time>2012-09-05T15:02:48Z</time>
      </trkpt>
      <trkpt lat="45.89957" lon="4.80513">
        <ele>168.37</ele>
        <time>2012-09-05T15:02:49Z</time>
      </trkpt>
      <trkpt lat="45.89961" lon="4.80513">
        <ele>168.37</ele>
        <time>2012-09-05T15:02:50Z</time>
      </trkpt>
      <trkpt lat="45.90011" lon="4.80509">
        <ele>168.85</ele>
        <time>2012-09-05T15:03:02Z</time>
      </trkpt>
      <trkpt lat="45.9005" lon="4.80515">
        <ele>168.37</ele>
        <time>2012-09-05T15:03:12Z</time>
      </trkpt>
      <trkpt lat="45.90072" lon="4.80515">
        <ele>168.37</ele>
        <time>2012-09-05T15:03:17Z</time>
      </trkpt>
      <trkpt lat="45.9012" lon="4.80527">
        <ele>168.85</ele>
        <time>2012-09-05T15:03:29Z</time>
      </trkpt>
      <trkpt lat="45.90164" lon="4.80541">
        <ele>168.85</ele>
        <time>2012-09-05T15:03:40Z</time>
      </trkpt>
      <trkpt lat="45.90215" lon="4.80566">
        <ele>168.85</ele>
        <time>2012-09-05T15:03:54Z</time>
      </trkpt>
      <trkpt lat="45.90252" lon="4.80593">
        <ele>168.85</ele>
        <time>2012-09-05T15:04:05Z</time>
      </trkpt>
      <trkpt lat="45.90298" lon="4.80629">
        <ele>168.85</ele>
        <time>2012-09-05T15:04:19Z</time>
      </trkpt>
      <trkpt lat="45.90336" lon="4.80669">
        <ele>168.85</ele>
        <time>2012-09-05T15:04:32Z</time>
      </trkpt>
      <trkpt lat="45.90353" lon="4.80691">
        <ele>168.37</ele>
        <time>2012-09-05T15:04:40Z</time>
      </trkpt>
      <trkpt lat="45.90357" lon="4.80696">
        <ele>168.37</ele>
        <time>2012-09-05T15:04:41Z</time>
      </trkpt>
      <trkpt lat="45.90361" lon="4.807">
        <ele>168.37</ele>
        <time>2012-09-05T15:04:42Z</time>
      </trkpt>
      <trkpt lat="45.90364" lon="4.80704">
        <ele>168.37</ele>
        <time>2012-09-05T15:04:43Z</time>
      </trkpt>
      <trkpt lat="45.90367" lon="4.80709">
        <ele>168.37</ele>
        <time>2012-09-05T15:04:44Z</time>
      </trkpt>
      <trkpt lat="45.9037" lon="4.80714">
        <ele>168.37</ele>
        <time>2012-09-05T15:04:45Z</time>
      </trkpt>
      <trkpt lat="45.90373" lon="4.80718">
        <ele>168.37</ele>
        <time>2012-09-05T15:04:46Z</time>
      </trkpt>
      <trkpt lat="45.90376" lon="4.80723">
        <ele>168.37</ele>
        <time>2012-09-05T15:04:47Z</time>
      </trkpt>
      <trkpt lat="45.90407" lon="4.80778">
        <ele>168.37</ele>
        <time>2012-09-05T15:05:00Z</time>
      </trkpt>
      <trkpt lat="45.90431" lon="4.80824">
        <ele>168.37</ele>
        <time>2012-09-05T15:05:11Z</time>
      </trkpt>
      <trkpt lat="45.90446" lon="4.80857">
        <ele>168.37</ele>
        <time>2012-09-05T15:05:18Z</time>
      </trkpt>
      <trkpt lat="45.90449" lon="4.80862">
        <ele>168.37</ele>
        <time>2012-09-05T15:05:19Z</time>
      </trkpt>
      <trkpt lat="45.90486" lon="4.80932">
        <ele>168.37</ele>
        <time>2012-09-05T15:05:32Z</time>
      </trkpt>
      <trkpt lat="45.90506" lon="4.80958">
        <ele>168.37</ele>
        <time>2012-09-05T15:05:38Z</time>
      </trkpt>
      <trkpt lat="45.90557" lon="4.81016">
        <ele>167.89</ele>
        <time>2012-09-05T15:05:53Z</time>
      </trkpt>
      <trkpt lat="45.90571" lon="4.81037">
        <ele>168.85</ele>
        <time>2012-09-05T15:06:01Z</time>
      </trkpt>
      <trkpt lat="45.90573" lon="4.81038">
        <ele>168.85</ele>
        <time>2012-09-05T15:06:02Z</time>
      </trkpt>
      <trkpt lat="45.90575" lon="4.81041">
        <ele>168.85</ele>
        <time>2012-09-05T15:06:03Z</time>
      </trkpt>
      <trkpt lat="45.90576" lon="4.81043">
        <ele>168.85</ele>
        <time>2012-09-05T15:06:04Z</time>
      </trkpt>
      <trkpt lat="45.90578" lon="4.81046">
        <ele>168.85</ele>
        <time>2012-09-05T15:06:05Z</time>
      </trkpt>
      <trkpt lat="45.9058" lon="4.81048">
        <ele>169.33</ele>
        <time>2012-09-05T15:06:06Z</time>
      </trkpt>
      <trkpt lat="45.90582" lon="4.81049">
        <ele>169.33</ele>
        <time>2012-09-05T15:06:07Z</time>
      </trkpt>
      <trkpt lat="45.90584" lon="4.81051">
        <ele>169.33</ele>
        <time>2012-09-05T15:06:08Z</time>
      </trkpt>
      <trkpt lat="45.90586" lon="4.81054">
        <ele>169.33</ele>
        <time>2012-09-05T15:06:09Z</time>
      </trkpt>
      <trkpt lat="45.90589" lon="4.81056">
        <ele>169.33</ele>
        <time>2012-09-05T15:06:10Z</time>
      </trkpt>
      <trkpt lat="45.90619" lon="4.81085">
        <ele>169.33</ele>
        <time>2012-09-05T15:06:22Z</time>
      </trkpt>
      <trkpt lat="45.90645" lon="4.81113">
        <ele>169.33</ele>
        <time>2012-09-05T15:06:35Z</time>
      </trkpt>
      <trkpt lat="45.90653" lon="4.81117">
        <ele>169.33</ele>
        <time>2012-09-05T15:06:40Z</time>
      </trkpt>
      <trkpt lat="45.90675" lon="4.81136">
        <ele>169.33</ele>
        <time>2012-09-05T15:06:52Z</time>
      </trkpt>
      <trkpt lat="45.90713" lon="4.81159">
        <ele>169.33</ele>
        <time>2012-09-05T15:07:04Z</time>
      </trkpt>
      <trkpt lat="45.9075" lon="4.8118">
        <ele>169.33</ele>
        <time>2012-09-05T15:07:16Z</time>
      </trkpt>
      <trkpt lat="45.90751" lon="4.81178">
        <ele>169.33</ele>
        <time>2012-09-05T15:07:17Z</time>
      </trkpt>
      <trkpt lat="45.9075" lon="4.81177">
        <ele>169.33</ele>
        <time>2012-09-05T15:07:18Z</time>
      </trkpt>
      <trkpt lat="45.90748" lon="4.81176">
        <ele>169.33</ele>
        <time>2012-09-05T15:07:19Z</time>
      </trkpt>
      <trkpt lat="45.90746" lon="4.81175">
        <ele>169.33</ele>
        <time>2012-09-05T15:07:20Z</time>
      </trkpt>
      <trkpt lat="45.9074" lon="4.81175">
        <ele>169.33</ele>
        <time>2012-09-05T15:07:32Z</time>
      </trkpt>
      <trkpt lat="45.90739" lon="4.81175">
        <ele>169.33</ele>
        <time>2012-09-05T15:08:06Z</time>
      </trkpt>
      <trkpt lat="45.90738" lon="4.81174">
        <ele>169.33</ele>
        <time>2012-09-05T15:08:38Z</time>
      </trkpt>
      <trkpt lat="45.9074" lon="4.81177">
        <ele>169.81</ele>
        <time>2012-09-05T15:08:56Z</time>
      </trkpt>
      <trkpt lat="45.90743" lon="4.81176">
        <ele>169.33</ele>
        <time>2012-09-05T15:08:58Z</time>
      </trkpt>
      <trkpt lat="45.90745" lon="4.81176">
        <ele>169.33</ele>
        <time>2012-09-05T15:08:59Z</time>
      </trkpt>
      <trkpt lat="45.90748" lon="4.81176">
        <ele>169.33</ele>
        <time>2012-09-05T15:09:00Z</time>
      </trkpt>
      <trkpt lat="45.90773" lon="4.81189">
        <ele>169.33</ele>
        <time>2012-09-05T15:09:11Z</time>
      </trkpt>
      <trkpt lat="45.90798" lon="4.81197">
        <ele>169.81</ele>
        <time>2012-09-05T15:09:22Z</time>
      </trkpt>
      <trkpt lat="45.90855" lon="4.81215">
        <ele>169.81</ele>
        <time>2012-09-05T15:09:36Z</time>
      </trkpt>
      <trkpt lat="45.90912" lon="4.81229">
        <ele>169.81</ele>
        <time>2012-09-05T15:09:50Z</time>
      </trkpt>
      <trkpt lat="45.90957" lon="4.81241">
        <ele>169.81</ele>
        <time>2012-09-05T15:10:02Z</time>
      </trkpt>
      <trkpt lat="45.90996" lon="4.81247">
        <ele>169.33</ele>
        <time>2012-09-05T15:10:11Z</time>
      </trkpt>
      <trkpt lat="45.91" lon="4.81246">
        <ele>169.33</ele>
        <time>2012-09-05T15:10:12Z</time>
      </trkpt>
      <trkpt lat="45.91032" lon="4.81212">
        <ele>169.81</ele>
        <time>2012-09-05T15:10:23Z</time>
      </trkpt>
      <trkpt lat="45.91073" lon="4.81178">
        <ele>169.81</ele>
        <time>2012-09-05T15:10:35Z</time>
      </trkpt>
      <trkpt lat="45.91081" lon="4.81175">
        <ele>169.81</ele>
        <time>2012-09-05T15:10:37Z</time>
      </trkpt>
      <trkpt lat="45.91128" lon="4.81171">
        <ele>169.81</ele>
        <time>2012-09-05T15:10:48Z</time>
      </trkpt>
      <trkpt lat="45.91189" lon="4.81161">
        <ele>170.29</ele>
        <time>2012-09-05T15:11:03Z</time>
      </trkpt>
      <trkpt lat="45.91222" lon="4.81158">
        <ele>169.81</ele>
        <time>2012-09-05T15:11:15Z</time>
      </trkpt>
      <trkpt lat="45.91224" lon="4.81159">
        <ele>169.81</ele>
        <time>2012-09-05T15:11:16Z</time>
      </trkpt>
      <trkpt lat="45.91252" lon="4.81156">
        <ele>169.81</ele>
        <time>2012-09-05T15:11:28Z</time>
      </trkpt>
      <trkpt lat="45.91267" lon="4.8116">
        <ele>169.81</ele>
        <time>2012-09-05T15:11:37Z</time>
      </trkpt>
      <trkpt lat="45.91269" lon="4.8116">
        <ele>169.81</ele>
        <time>2012-09-05T15:11:38Z</time>
      </trkpt>
      <trkpt lat="45.91286" lon="4.81158">
        <ele>169.81</ele>
        <time>2012-09-05T15:11:52Z</time>
      </trkpt>
      <trkpt lat="45.91287" lon="4.81158">
        <ele>169.81</ele>
        <time>2012-09-05T15:11:53Z</time>
      </trkpt>
      <trkpt lat="45.91288" lon="4.81159">
        <ele>169.81</ele>
        <time>2012-09-05T15:11:54Z</time>
      </trkpt>
      <trkpt lat="45.9129" lon="4.81159">
        <ele>169.81</ele>
        <time>2012-09-05T15:11:55Z</time>
      </trkpt>
      <trkpt lat="45.91291" lon="4.81159">
        <ele>169.81</ele>
        <time>2012-09-05T15:11:56Z</time>
      </trkpt>
      <trkpt lat="45.91293" lon="4.8116">
        <ele>169.81</ele>
        <time>2012-09-05T15:11:57Z</time>
      </trkpt>
      <trkpt lat="45.91316" lon="4.81161">
        <ele>169.81</ele>
        <time>2012-09-05T15:12:10Z</time>
      </trkpt>
      <trkpt lat="45.91364" lon="4.81162">
        <ele>169.81</ele>
        <time>2012-09-05T15:12:24Z</time>
      </trkpt>
      <trkpt lat="45.91372" lon="4.81163">
        <ele>169.81</ele>
        <time>2012-09-05T15:12:26Z</time>
      </trkpt>
      <trkpt lat="45.91417" lon="4.81188">
        <ele>169.81</ele>
        <time>2012-09-05T15:12:39Z</time>
      </trkpt>
      <trkpt lat="45.91417" lon="4.8119">
        <ele>169.81</ele>
        <time>2012-09-05T15:12:40Z</time>
      </trkpt>
      <trkpt lat="45.91418" lon="4.81192">
        <ele>169.81</ele>
        <time>2012-09-05T15:12:41Z</time>
      </trkpt>
      <trkpt lat="45.9142" lon="4.81193">
        <ele>169.81</ele>
        <time>2012-09-05T15:12:42Z</time>
      </trkpt>
      <trkpt lat="45.91422" lon="4.81194">
        <ele>169.81</ele>
        <time>2012-09-05T15:12:43Z</time>
      </trkpt>
      <trkpt lat="45.91425" lon="4.81195">
        <ele>169.81</ele>
        <time>2012-09-05T15:12:44Z</time>
      </trkpt>
      <trkpt lat="45.91427" lon="4.81196">
        <ele>169.81</ele>
        <time>2012-09-05T15:12:45Z</time>
      </trkpt>
      <trkpt lat="45.91431" lon="4.81198">
        <ele>169.81</ele>
        <time>2012-09-05T15:12:46Z</time>
      </trkpt>
      <trkpt lat="45.91469" lon="4.81214">
        <ele>171.25</ele>
        <time>2012-09-05T15:12:57Z</time>
      </trkpt>
      <trkpt lat="45.91518" lon="4.81214">
        <ele>169.81</ele>
        <time>2012-09-05T15:13:10Z</time>
      </trkpt>
      <trkpt lat="45.91556" lon="4.81212">
        <ele>169.81</ele>
        <time>2012-09-05T15:13:21Z</time>
      </trkpt>
      <trkpt lat="45.91627" lon="4.81211">
        <ele>169.81</ele>
        <time>2012-09-05T15:13:38Z</time>
      </trkpt>
      <trkpt lat="45.91689" lon="4.81204">
        <ele>169.81</ele>
        <time>2012-09-05T15:13:53Z</time>
      </trkpt>
      <trkpt lat="45.91709" lon="4.81199">
        <ele>169.81</ele>
        <time>2012-09-05T15:13:58Z</time>
      </trkpt>
      <trkpt lat="45.91736" lon="4.81195">
        <ele>169.33</ele>
        <time>2012-09-05T15:14:04Z</time>
      </trkpt>
      <trkpt lat="45.91741" lon="4.81195">
        <ele>169.33</ele>
        <time>2012-09-05T15:14:05Z</time>
      </trkpt>
      <trkpt lat="45.91745" lon="4.81194">
        <ele>169.33</ele>
        <time>2012-09-05T15:14:06Z</time>
      </trkpt>
      <trkpt lat="45.91788" lon="4.81184">
        <ele>169.33</ele>
        <time>2012-09-05T15:14:16Z</time>
      </trkpt>
      <trkpt lat="45.91828" lon="4.81177">
        <ele>169.81</ele>
        <time>2012-09-05T15:14:25Z</time>
      </trkpt>
      <trkpt lat="45.91832" lon="4.81177">
        <ele>169.81</ele>
        <time>2012-09-05T15:14:26Z</time>
      </trkpt>
      <trkpt lat="45.91875" lon="4.81167">
        <ele>169.81</ele>
        <time>2012-09-05T15:14:39Z</time>
      </trkpt>
      <trkpt lat="45.91911" lon="4.81152">
        <ele>170.29</ele>
        <time>2012-09-05T15:14:51Z</time>
      </trkpt>
      <trkpt lat="45.91913" lon="4.81151">
        <ele>169.81</ele>
        <time>2012-09-05T15:14:52Z</time>
      </trkpt>
      <trkpt lat="45.91915" lon="4.8115">
        <ele>169.81</ele>
        <time>2012-09-05T15:14:53Z</time>
      </trkpt>
      <trkpt lat="45.91917" lon="4.81149">
        <ele>169.81</ele>
        <time>2012-09-05T15:14:54Z</time>
      </trkpt>
      <trkpt lat="45.9192" lon="4.81148">
        <ele>169.81</ele>
        <time>2012-09-05T15:14:55Z</time>
      </trkpt>
      <trkpt lat="45.91922" lon="4.81147">
        <ele>169.81</ele>
        <time>2012-09-05T15:14:56Z</time>
      </trkpt>
      <trkpt lat="45.91954" lon="4.81132">
        <ele>169.81</ele>
        <time>2012-09-05T15:15:08Z</time>
      </trkpt>
      <trkpt lat="45.92004" lon="4.81101">
        <ele>169.81</ele>
        <time>2012-09-05T15:15:23Z</time>
      </trkpt>
      <trkpt lat="45.92045" lon="4.81066">
        <ele>170.29</ele>
        <time>2012-09-05T15:15:37Z</time>
      </trkpt>
      <trkpt lat="45.92079" lon="4.81037">
        <ele>170.29</ele>
        <time>2012-09-05T15:15:50Z</time>
      </trkpt>
      <trkpt lat="45.92111" lon="4.81016">
        <ele>170.29</ele>
        <time>2012-09-05T15:16:02Z</time>
      </trkpt>
      <trkpt lat="45.92138" lon="4.80981">
        <ele>170.29</ele>
        <time>2012-09-05T15:16:14Z</time>
      </trkpt>
      <trkpt lat="45.92168" lon="4.80949">
        <ele>170.77</ele>
        <time>2012-09-05T15:16:27Z</time>
      </trkpt>
      <trkpt lat="45.92193" lon="4.80899">
        <ele>170.29</ele>
        <time>2012-09-05T15:16:43Z</time>
      </trkpt>
      <trkpt lat="45.922" lon="4.8089">
        <ele>170.77</ele>
        <time>2012-09-05T15:16:46Z</time>
      </trkpt>
      <trkpt lat="45.92202" lon="4.80884">
        <ele>170.29</ele>
        <time>2012-09-05T15:16:48Z</time>
      </trkpt>
      <trkpt lat="45.92204" lon="4.80883">
        <ele>170.77</ele>
        <time>2012-09-05T15:16:49Z</time>
      </trkpt>
      <trkpt lat="45.92204" lon="4.80882">
        <ele>170.29</ele>
        <time>2012-09-05T15:16:56Z</time>
      </trkpt>
      <trkpt lat="45.92205" lon="4.8088">
        <ele>170.29</ele>
        <time>2012-09-05T15:16:57Z</time>
      </trkpt>
      <trkpt lat="45.92206" lon="4.80879">
        <ele>170.29</ele>
        <time>2012-09-05T15:16:58Z</time>
      </trkpt>
      <trkpt lat="45.92208" lon="4.80877">
        <ele>171.25</ele>
        <time>2012-09-05T15:16:59Z</time>
      </trkpt>
      <trkpt lat="45.9221" lon="4.80875">
        <ele>170.29</ele>
        <time>2012-09-05T15:17:00Z</time>
      </trkpt>
      <trkpt lat="45.92211" lon="4.80872">
        <ele>170.29</ele>
        <time>2012-09-05T15:17:01Z</time>
      </trkpt>
      <trkpt lat="45.92213" lon="4.8087">
        <ele>170.29</ele>
        <time>2012-09-05T15:17:02Z</time>
      </trkpt>
      <trkpt lat="45.92214" lon="4.80867">
        <ele>170.29</ele>
        <time>2012-09-05T15:17:03Z</time>
      </trkpt>
      <trkpt lat="45.92216" lon="4.80864">
        <ele>170.29</ele>
        <time>2012-09-05T15:17:04Z</time>
      </trkpt>
      <trkpt lat="45.92219" lon="4.80861">
        <ele>170.29</ele>
        <time>2012-09-05T15:17:05Z</time>
      </trkpt>
      <trkpt lat="45.92221" lon="4.80858">
        <ele>170.29</ele>
        <time>2012-09-05T15:17:06Z</time>
      </trkpt>
      <trkpt lat="45.92223" lon="4.80855">
        <ele>170.29</ele>
        <time>2012-09-05T15:17:07Z</time>
      </trkpt>
      <trkpt lat="45.92225" lon="4.80852">
        <ele>170.29</ele>
        <time>2012-09-05T15:17:08Z</time>
      </trkpt>
      <trkpt lat="45.92227" lon="4.80849">
        <ele>170.29</ele>
        <time>2012-09-05T15:17:09Z</time>
      </trkpt>
      <trkpt lat="45.92229" lon="4.80845">
        <ele>170.29</ele>
        <time>2012-09-05T15:17:10Z</time>
      </trkpt>
      <trkpt lat="45.92231" lon="4.80842">
        <ele>169.81</ele>
        <time>2012-09-05T15:17:11Z</time>
      </trkpt>
      <trkpt lat="45.92257" lon="4.80779">
        <ele>169.81</ele>
        <time>2012-09-05T15:17:25Z</time>
      </trkpt>
      <trkpt lat="45.92276" lon="4.80719">
        <ele>169.81</ele>
        <time>2012-09-05T15:17:38Z</time>
      </trkpt>
      <trkpt lat="45.92293" lon="4.80655">
        <ele>169.81</ele>
        <time>2012-09-05T15:17:51Z</time>
      </trkpt>
      <trkpt lat="45.92305" lon="4.80602">
        <ele>169.81</ele>
        <time>2012-09-05T15:18:02Z</time>
      </trkpt>
      <trkpt lat="45.92308" lon="4.80567">
        <ele>169.81</ele>
        <time>2012-09-05T15:18:09Z</time>
      </trkpt>
      <trkpt lat="45.92309" lon="4.80564">
        <ele>169.81</ele>
        <time>2012-09-05T15:18:10Z</time>
      </trkpt>
      <trkpt lat="45.9231" lon="4.8056">
        <ele>169.81</ele>
        <time>2012-09-05T15:18:11Z</time>
      </trkpt>
      <trkpt lat="45.92311" lon="4.80556">
        <ele>169.81</ele>
        <time>2012-09-05T15:18:12Z</time>
      </trkpt>
      <trkpt lat="45.92311" lon="4.80553">
        <ele>169.81</ele>
        <time>2012-09-05T15:18:13Z</time>
      </trkpt>
      <trkpt lat="45.92312" lon="4.8055">
        <ele>169.81</ele>
        <time>2012-09-05T15:18:14Z</time>
      </trkpt>
      <trkpt lat="45.92313" lon="4.80547">
        <ele>169.81</ele>
        <time>2012-09-05T15:18:15Z</time>
      </trkpt>
      <trkpt lat="45.92324" lon="4.8049">
        <ele>169.81</ele>
        <time>2012-09-05T15:18:28Z</time>
      </trkpt>
      <trkpt lat="45.92333" lon="4.80424">
        <ele>170.29</ele>
        <time>2012-09-05T15:18:41Z</time>
      </trkpt>
      <trkpt lat="45.92333" lon="4.80419">
        <ele>170.29</ele>
        <time>2012-09-05T15:18:42Z</time>
      </trkpt>
      <trkpt lat="45.92345" lon="4.80352">
        <ele>170.29</ele>
        <time>2012-09-05T15:18:54Z</time>
      </trkpt>
      <trkpt lat="45.92359" lon="4.80281">
        <ele>170.29</ele>
        <time>2012-09-05T15:19:07Z</time>
      </trkpt>
      <trkpt lat="45.92361" lon="4.80269">
        <ele>169.81</ele>
        <time>2012-09-05T15:19:09Z</time>
      </trkpt>
      <trkpt lat="45.92362" lon="4.80264">
        <ele>170.29</ele>
        <time>2012-09-05T15:19:10Z</time>
      </trkpt>
      <trkpt lat="45.92365" lon="4.80245">
        <ele>169.81</ele>
        <time>2012-09-05T15:19:13Z</time>
      </trkpt>
      <trkpt lat="45.92366" lon="4.80239">
        <ele>170.29</ele>
        <time>2012-09-05T15:19:14Z</time>
      </trkpt>
      <trkpt lat="45.92367" lon="4.80233">
        <ele>169.81</ele>
        <time>2012-09-05T15:19:15Z</time>
      </trkpt>
      <trkpt lat="45.92376" lon="4.80162">
        <ele>170.29</ele>
        <time>2012-09-05T15:19:27Z</time>
      </trkpt>
      <trkpt lat="45.92376" lon="4.80056">
        <ele>170.77</ele>
        <time>2012-09-05T15:19:44Z</time>
      </trkpt>
      <trkpt lat="45.92373" lon="4.80019">
        <ele>170.29</ele>
        <time>2012-09-05T15:19:50Z</time>
      </trkpt>
      <trkpt lat="45.92367" lon="4.7992">
        <ele>171.25</ele>
        <time>2012-09-05T15:20:07Z</time>
      </trkpt>
      <trkpt lat="45.92361" lon="4.79825">
        <ele>170.29</ele>
        <time>2012-09-05T15:20:23Z</time>
      </trkpt>
      <trkpt lat="45.9236" lon="4.79812">
        <ele>169.81</ele>
        <time>2012-09-05T15:20:25Z</time>
      </trkpt>
      <trkpt lat="45.92355" lon="4.79759">
        <ele>169.81</ele>
        <time>2012-09-05T15:20:34Z</time>
      </trkpt>
      <trkpt lat="45.92349" lon="4.79684">
        <ele>170.29</ele>
        <time>2012-09-05T15:20:47Z</time>
      </trkpt>
      <trkpt lat="45.92346" lon="4.79665">
        <ele>170.29</ele>
        <time>2012-09-05T15:20:51Z</time>
      </trkpt>
      <trkpt lat="45.92339" lon="4.79605">
        <ele>170.29</ele>
        <time>2012-09-05T15:21:02Z</time>
      </trkpt>
      <trkpt lat="45.9233" lon="4.79517">
        <ele>170.29</ele>
        <time>2012-09-05T15:21:18Z</time>
      </trkpt>
      <trkpt lat="45.92322" lon="4.79463">
        <ele>169.81</ele>
        <time>2012-09-05T15:21:28Z</time>
      </trkpt>
      <trkpt lat="45.92321" lon="4.79457">
        <ele>169.81</ele>
        <time>2012-09-05T15:21:29Z</time>
      </trkpt>
      <trkpt lat="45.92321" lon="4.79451">
        <ele>169.81</ele>
        <time>2012-09-05T15:21:30Z</time>
      </trkpt>
      <trkpt lat="45.92316" lon="4.79377">
        <ele>170.77</ele>
        <time>2012-09-05T15:21:43Z</time>
      </trkpt>
      <trkpt lat="45.92315" lon="4.79372">
        <ele>167.41</ele>
        <time>2012-09-05T15:21:44Z</time>
      </trkpt>
      <trkpt lat="45.92315" lon="4.79367">
        <ele>172.21</ele>
        <time>2012-09-05T15:21:45Z</time>
      </trkpt>
      <trkpt lat="45.92315" lon="4.79354">
        <ele>169.33</ele>
        <time>2012-09-05T15:21:48Z</time>
      </trkpt>
      <trkpt lat="45.92315" lon="4.79325">
        <ele>170.29</ele>
        <time>2012-09-05T15:22:01Z</time>
      </trkpt>
      <trkpt lat="45.92315" lon="4.79323">
        <ele>170.77</ele>
        <time>2012-09-05T15:22:30Z</time>
      </trkpt>
      <trkpt lat="45.92316" lon="4.7932">
        <ele>172.21</ele>
        <time>2012-09-05T15:22:56Z</time>
      </trkpt>
      <trkpt lat="45.92316" lon="4.79319">
        <ele>171.25</ele>
        <time>2012-09-05T15:23:02Z</time>
      </trkpt>
      <trkpt lat="45.92315" lon="4.79317">
        <ele>170.77</ele>
        <time>2012-09-05T15:23:29Z</time>
      </trkpt>
      <trkpt lat="45.92315" lon="4.79316">
        <ele>170.77</ele>
        <time>2012-09-05T15:23:57Z</time>
      </trkpt>
      <trkpt lat="45.92315" lon="4.79316">
        <ele>171.73</ele>
        <time>2012-09-05T15:24:18Z</time>
      </trkpt>
      <trkpt lat="45.92315" lon="4.79314">
        <ele>170.77</ele>
        <time>2012-09-05T15:24:44Z</time>
      </trkpt>
      <trkpt lat="45.92315" lon="4.79313">
        <ele>171.25</ele>
        <time>2012-09-05T15:24:45Z</time>
      </trkpt>
      <trkpt lat="45.92315" lon="4.79311">
        <ele>170.77</ele>
        <time>2012-09-05T15:24:46Z</time>
      </trkpt>
      <trkpt lat="45.92315" lon="4.79308">
        <ele>171.25</ele>
        <time>2012-09-05T15:24:47Z</time>
      </trkpt>
      <trkpt lat="45.92316" lon="4.79304">
        <ele>171.25</ele>
        <time>2012-09-05T15:24:48Z</time>
      </trkpt>
      <trkpt lat="45.92316" lon="4.79301">
        <ele>171.25</ele>
        <time>2012-09-05T15:24:49Z</time>
      </trkpt>
      <trkpt lat="45.92316" lon="4.79297">
        <ele>171.25</ele>
        <time>2012-09-05T15:24:50Z</time>
      </trkpt>
      <trkpt lat="45.92322" lon="4.79244">
        <ele>171.25</ele>
        <time>2012-09-05T15:25:02Z</time>
      </trkpt>
      <trkpt lat="45.92326" lon="4.79231">
        <ele>171.25</ele>
        <time>2012-09-05T15:25:05Z</time>
      </trkpt>
      <trkpt lat="45.92344" lon="4.7918">
        <ele>171.25</ele>
        <time>2012-09-05T15:25:15Z</time>
      </trkpt>
      <trkpt lat="45.92366" lon="4.79132">
        <ele>171.25</ele>
        <time>2012-09-05T15:25:26Z</time>
      </trkpt>
      <trkpt lat="45.92369" lon="4.7913">
        <ele>170.77</ele>
        <time>2012-09-05T15:25:29Z</time>
      </trkpt>
      <trkpt lat="45.9237" lon="4.79128">
        <ele>170.77</ele>
        <time>2012-09-05T15:25:30Z</time>
      </trkpt>
      <trkpt lat="45.92371" lon="4.79126">
        <ele>170.77</ele>
        <time>2012-09-05T15:25:31Z</time>
      </trkpt>
      <trkpt lat="45.92372" lon="4.79123">
        <ele>170.77</ele>
        <time>2012-09-05T15:25:32Z</time>
      </trkpt>
      <trkpt lat="45.92374" lon="4.7912">
        <ele>170.77</ele>
        <time>2012-09-05T15:25:33Z</time>
      </trkpt>
      <trkpt lat="45.92375" lon="4.79116">
        <ele>170.77</ele>
        <time>2012-09-05T15:25:34Z</time>
      </trkpt>
      <trkpt lat="45.92377" lon="4.79113">
        <ele>171.25</ele>
        <time>2012-09-05T15:25:35Z</time>
      </trkpt>
      <trkpt lat="45.9238" lon="4.79109">
        <ele>170.77</ele>
        <time>2012-09-05T15:25:36Z</time>
      </trkpt>
      <trkpt lat="45.92382" lon="4.79105">
        <ele>170.77</ele>
        <time>2012-09-05T15:25:37Z</time>
      </trkpt>
      <trkpt lat="45.92416" lon="4.79055">
        <ele>170.77</ele>
        <time>2012-09-05T15:25:50Z</time>
      </trkpt>
      <trkpt lat="45.92459" lon="4.78994">
        <ele>170.77</ele>
        <time>2012-09-05T15:26:05Z</time>
      </trkpt>
      <trkpt lat="45.92516" lon="4.78941">
        <ele>170.77</ele>
        <time>2012-09-05T15:26:21Z</time>
      </trkpt>
      <trkpt lat="45.92555" lon="4.78915">
        <ele>170.29</ele>
        <time>2012-09-05T15:26:34Z</time>
      </trkpt>
      <trkpt lat="45.92569" lon="4.7891">
        <ele>170.29</ele>
        <time>2012-09-05T15:26:43Z</time>
      </trkpt>
      <trkpt lat="45.92571" lon="4.78911">
        <ele>170.29</ele>
        <time>2012-09-05T15:26:44Z</time>
      </trkpt>
      <trkpt lat="45.92573" lon="4.78911">
        <ele>170.29</ele>
        <time>2012-09-05T15:26:46Z</time>
      </trkpt>
      <trkpt lat="45.92575" lon="4.78911">
        <ele>170.29</ele>
        <time>2012-09-05T15:26:47Z</time>
      </trkpt>
      <trkpt lat="45.92577" lon="4.7891">
        <ele>170.77</ele>
        <time>2012-09-05T15:26:48Z</time>
      </trkpt>
      <trkpt lat="45.92579" lon="4.7891">
        <ele>170.77</ele>
        <time>2012-09-05T15:26:49Z</time>
      </trkpt>
      <trkpt lat="45.9258" lon="4.78909">
        <ele>170.29</ele>
        <time>2012-09-05T15:26:50Z</time>
      </trkpt>
      <trkpt lat="45.92582" lon="4.78908">
        <ele>170.29</ele>
        <time>2012-09-05T15:26:51Z</time>
      </trkpt>
      <trkpt lat="45.92584" lon="4.78907">
        <ele>170.29</ele>
        <time>2012-09-05T15:26:52Z</time>
      </trkpt>
      <trkpt lat="45.92603" lon="4.78896">
        <ele>170.29</ele>
        <time>2012-09-05T15:27:03Z</time>
      </trkpt>
      <trkpt lat="45.9263" lon="4.78879">
        <ele>170.29</ele>
        <time>2012-09-05T15:27:13Z</time>
      </trkpt>
      <trkpt lat="45.92672" lon="4.78854">
        <ele>169.81</ele>
        <time>2012-09-05T15:27:25Z</time>
      </trkpt>
      <trkpt lat="45.92707" lon="4.7883">
        <ele>169.81</ele>
        <time>2012-09-05T15:27:36Z</time>
      </trkpt>
      <trkpt lat="45.92748" lon="4.78802">
        <ele>169.81</ele>
        <time>2012-09-05T15:27:50Z</time>
      </trkpt>
      <trkpt lat="45.92776" lon="4.78781">
        <ele>169.81</ele>
        <time>2012-09-05T15:28:00Z</time>
      </trkpt>
      <trkpt lat="45.92807" lon="4.78758">
        <ele>169.81</ele>
        <time>2012-09-05T15:28:10Z</time>
      </trkpt>
      <trkpt lat="45.92846" lon="4.78727">
        <ele>169.81</ele>
        <time>2012-09-05T15:28:22Z</time>
      </trkpt>
      <trkpt lat="45.9289" lon="4.78702">
        <ele>169.33</ele>
        <time>2012-09-05T15:28:34Z</time>
      </trkpt>
      <trkpt lat="45.92934" lon="4.78672">
        <ele>169.81</ele>
        <time>2012-09-05T15:28:46Z</time>
      </trkpt>
      <trkpt lat="45.9297" lon="4.78645">
        <ele>169.81</ele>
        <time>2012-09-05T15:28:56Z</time>
      </trkpt>
      <trkpt lat="45.92974" lon="4.78643">
        <ele>169.81</ele>
        <time>2012-09-05T15:28:57Z</time>
      </trkpt>
      <trkpt lat="45.9302" lon="4.78603">
        <ele>169.81</ele>
        <time>2012-09-05T15:29:11Z</time>
      </trkpt>
      <trkpt lat="45.93054" lon="4.78575">
        <ele>169.81</ele>
        <time>2012-09-05T15:29:22Z</time>
      </trkpt>
      <trkpt lat="45.93096" lon="4.78547">
        <ele>169.33</ele>
        <time>2012-09-05T15:29:34Z</time>
      </trkpt>
      <trkpt lat="45.93144" lon="4.78515">
        <ele>169.33</ele>
        <time>2012-09-05T15:29:47Z</time>
      </trkpt>
      <trkpt lat="45.93181" lon="4.78485">
        <ele>169.33</ele>
        <time>2012-09-05T15:30:00Z</time>
      </trkpt>
      <trkpt lat="45.93216" lon="4.78461">
        <ele>169.33</ele>
        <time>2012-09-05T15:30:12Z</time>
      </trkpt>
      <trkpt lat="45.93271" lon="4.78423">
        <ele>168.85</ele>
        <time>2012-09-05T15:30:27Z</time>
      </trkpt>
      <trkpt lat="45.93315" lon="4.78395">
        <ele>168.85</ele>
        <time>2012-09-05T15:30:39Z</time>
      </trkpt>
      <trkpt lat="45.93365" lon="4.7836">
        <ele>169.33</ele>
        <time>2012-09-05T15:30:53Z</time>
      </trkpt>
      <trkpt lat="45.93408" lon="4.78332">
        <ele>170.29</ele>
        <time>2012-09-05T15:31:05Z</time>
      </trkpt>
      <trkpt lat="45.93456" lon="4.783">
        <ele>169.81</ele>
        <time>2012-09-05T15:31:19Z</time>
      </trkpt>
      <trkpt lat="45.93504" lon="4.78254">
        <ele>169.81</ele>
        <time>2012-09-05T15:31:34Z</time>
      </trkpt>
      <trkpt lat="45.93547" lon="4.78212">
        <ele>169.33</ele>
        <time>2012-09-05T15:31:49Z</time>
      </trkpt>
      <trkpt lat="45.93583" lon="4.78188">
        <ele>168.85</ele>
        <time>2012-09-05T15:32:03Z</time>
      </trkpt>
      <trkpt lat="45.93634" lon="4.78161">
        <ele>169.33</ele>
        <time>2012-09-05T15:32:18Z</time>
      </trkpt>
      <trkpt lat="45.93687" lon="4.78125">
        <ele>169.33</ele>
        <time>2012-09-05T15:32:33Z</time>
      </trkpt>
      <trkpt lat="45.93711" lon="4.78102">
        <ele>169.81</ele>
        <time>2012-09-05T15:32:40Z</time>
      </trkpt>
      <trkpt lat="45.93714" lon="4.78099">
        <ele>169.33</ele>
        <time>2012-09-05T15:32:41Z</time>
      </trkpt>
      <trkpt lat="45.93717" lon="4.78095">
        <ele>169.33</ele>
        <time>2012-09-05T15:32:42Z</time>
      </trkpt>
      <trkpt lat="45.93726" lon="4.78084">
        <ele>169.81</ele>
        <time>2012-09-05T15:32:45Z</time>
      </trkpt>
      <trkpt lat="45.93777" lon="4.78019">
        <ele>169.33</ele>
        <time>2012-09-05T15:33:02Z</time>
      </trkpt>
      <trkpt lat="45.93816" lon="4.77972">
        <ele>169.81</ele>
        <time>2012-09-05T15:33:15Z</time>
      </trkpt>
      <trkpt lat="45.93855" lon="4.77915">
        <ele>169.33</ele>
        <time>2012-09-05T15:33:30Z</time>
      </trkpt>
      <trkpt lat="45.93879" lon="4.77878">
        <ele>170.77</ele>
        <time>2012-09-05T15:33:41Z</time>
      </trkpt>
      <trkpt lat="45.93881" lon="4.77873">
        <ele>171.25</ele>
        <time>2012-09-05T15:33:43Z</time>
      </trkpt>
      <trkpt lat="45.93889" lon="4.77857">
        <ele>172.69</ele>
        <time>2012-09-05T15:33:56Z</time>
      </trkpt>
      <trkpt lat="45.9389" lon="4.77858">
        <ele>172.21</ele>
        <time>2012-09-05T15:34:25Z</time>
      </trkpt>
      <trkpt lat="45.93889" lon="4.77858">
        <ele>172.21</ele>
        <time>2012-09-05T15:34:52Z</time>
      </trkpt>
      <trkpt lat="45.93893" lon="4.77849">
        <ele>172.21</ele>
        <time>2012-09-05T15:35:17Z</time>
      </trkpt>
      <trkpt lat="45.93907" lon="4.778">
        <ele>171.73</ele>
        <time>2012-09-05T15:35:30Z</time>
      </trkpt>
      <trkpt lat="45.93909" lon="4.77794">
        <ele>171.25</ele>
        <time>2012-09-05T15:35:40Z</time>
      </trkpt>
      <trkpt lat="45.93912" lon="4.77794">
        <ele>171.25</ele>
        <time>2012-09-05T15:36:00Z</time>
      </trkpt>
      <trkpt lat="45.93913" lon="4.77795">
        <ele>171.25</ele>
        <time>2012-09-05T15:36:01Z</time>
      </trkpt>
      <trkpt lat="45.93915" lon="4.77795">
        <ele>171.25</ele>
        <time>2012-09-05T15:36:02Z</time>
      </trkpt>
      <trkpt lat="45.93916" lon="4.77793">
        <ele>171.25</ele>
        <time>2012-09-05T15:36:03Z</time>
      </trkpt>
      <trkpt lat="45.93917" lon="4.77792">
        <ele>171.25</ele>
        <time>2012-09-05T15:36:04Z</time>
      </trkpt>
      <trkpt lat="45.93918" lon="4.7779">
        <ele>171.25</ele>
        <time>2012-09-05T15:36:05Z</time>
      </trkpt>
      <trkpt lat="45.93919" lon="4.77789">
        <ele>171.25</ele>
        <time>2012-09-05T15:36:06Z</time>
      </trkpt>
      <trkpt lat="45.9392" lon="4.77788">
        <ele>171.25</ele>
        <time>2012-09-05T15:36:07Z</time>
      </trkpt>
      <trkpt lat="45.93921" lon="4.77786">
        <ele>171.25</ele>
        <time>2012-09-05T15:36:08Z</time>
      </trkpt>
      <trkpt lat="45.93922" lon="4.77786">
        <ele>170.77</ele>
        <time>2012-09-05T15:36:09Z</time>
      </trkpt>
      <trkpt lat="45.93924" lon="4.77783">
        <ele>170.77</ele>
        <time>2012-09-05T15:36:13Z</time>
      </trkpt>
      <trkpt lat="45.93925" lon="4.77782">
        <ele>170.77</ele>
        <time>2012-09-05T15:36:14Z</time>
      </trkpt>
      <trkpt lat="45.93926" lon="4.7778">
        <ele>170.77</ele>
        <time>2012-09-05T15:36:15Z</time>
      </trkpt>
      <trkpt lat="45.93927" lon="4.77778">
        <ele>170.29</ele>
        <time>2012-09-05T15:36:16Z</time>
      </trkpt>
      <trkpt lat="45.93929" lon="4.77775">
        <ele>170.77</ele>
        <time>2012-09-05T15:36:17Z</time>
      </trkpt>
      <trkpt lat="45.93948" lon="4.77724">
        <ele>170.29</ele>
        <time>2012-09-05T15:36:30Z</time>
      </trkpt>
      <trkpt lat="45.93969" lon="4.77658">
        <ele>171.25</ele>
        <time>2012-09-05T15:36:44Z</time>
      </trkpt>
      <trkpt lat="45.93983" lon="4.77585">
        <ele>171.25</ele>
        <time>2012-09-05T15:37:00Z</time>
      </trkpt>
      <trkpt lat="45.93985" lon="4.77582">
        <ele>170.77</ele>
        <time>2012-09-05T15:37:01Z</time>
      </trkpt>
      <trkpt lat="45.93986" lon="4.77578">
        <ele>171.25</ele>
        <time>2012-09-05T15:37:02Z</time>
      </trkpt>
      <trkpt lat="45.93986" lon="4.77574">
        <ele>170.77</ele>
        <time>2012-09-05T15:37:03Z</time>
      </trkpt>
      <trkpt lat="45.93988" lon="4.77569">
        <ele>171.25</ele>
        <time>2012-09-05T15:37:04Z</time>
      </trkpt>
      <trkpt lat="45.93989" lon="4.77566">
        <ele>170.77</ele>
        <time>2012-09-05T15:37:05Z</time>
      </trkpt>
      <trkpt lat="45.93996" lon="4.77518">
        <ele>171.25</ele>
        <time>2012-09-05T15:37:15Z</time>
      </trkpt>
      <trkpt lat="45.93997" lon="4.77512">
        <ele>171.25</ele>
        <time>2012-09-05T15:37:16Z</time>
      </trkpt>
      <trkpt lat="45.94005" lon="4.7746">
        <ele>170.77</ele>
        <time>2012-09-05T15:37:27Z</time>
      </trkpt>
      <trkpt lat="45.9401" lon="4.77407">
        <ele>171.25</ele>
        <time>2012-09-05T15:37:40Z</time>
      </trkpt>
      <trkpt lat="45.94016" lon="4.77339">
        <ele>171.73</ele>
        <time>2012-09-05T15:37:55Z</time>
      </trkpt>
      <trkpt lat="45.94019" lon="4.77286">
        <ele>172.21</ele>
        <time>2012-09-05T15:38:08Z</time>
      </trkpt>
      <trkpt lat="45.94021" lon="4.77269">
        <ele>172.21</ele>
        <time>2012-09-05T15:38:18Z</time>
      </trkpt>
      <trkpt lat="45.94021" lon="4.77264">
        <ele>172.69</ele>
        <time>2012-09-05T15:38:21Z</time>
      </trkpt>
      <trkpt lat="45.94022" lon="4.77262">
        <ele>172.21</ele>
        <time>2012-09-05T15:38:22Z</time>
      </trkpt>
      <trkpt lat="45.94022" lon="4.77259">
        <ele>172.69</ele>
        <time>2012-09-05T15:38:23Z</time>
      </trkpt>
      <trkpt lat="45.94022" lon="4.77256">
        <ele>172.69</ele>
        <time>2012-09-05T15:38:24Z</time>
      </trkpt>
      <trkpt lat="45.94022" lon="4.77252">
        <ele>172.69</ele>
        <time>2012-09-05T15:38:25Z</time>
      </trkpt>
      <trkpt lat="45.94027" lon="4.77204">
        <ele>172.21</ele>
        <time>2012-09-05T15:38:39Z</time>
      </trkpt>
      <trkpt lat="45.94036" lon="4.77137">
        <ele>171.73</ele>
        <time>2012-09-05T15:38:52Z</time>
      </trkpt>
      <trkpt lat="45.94033" lon="4.77072">
        <ele>171.73</ele>
        <time>2012-09-05T15:39:05Z</time>
      </trkpt>
      <trkpt lat="45.94038" lon="4.77029">
        <ele>171.73</ele>
        <time>2012-09-05T15:39:15Z</time>
      </trkpt>
      <trkpt lat="45.94043" lon="4.77003">
        <ele>171.73</ele>
        <time>2012-09-05T15:39:21Z</time>
      </trkpt>
      <trkpt lat="45.94044" lon="4.77">
        <ele>172.21</ele>
        <time>2012-09-05T15:39:22Z</time>
      </trkpt>
      <trkpt lat="45.94044" lon="4.76996">
        <ele>172.21</ele>
        <time>2012-09-05T15:39:23Z</time>
      </trkpt>
      <trkpt lat="45.94044" lon="4.76993">
        <ele>172.21</ele>
        <time>2012-09-05T15:39:24Z</time>
      </trkpt>
      <trkpt lat="45.94043" lon="4.7699">
        <ele>172.21</ele>
        <time>2012-09-05T15:39:25Z</time>
      </trkpt>
      <trkpt lat="45.94042" lon="4.76988">
        <ele>172.21</ele>
        <time>2012-09-05T15:39:26Z</time>
      </trkpt>
      <trkpt lat="45.94041" lon="4.76986">
        <ele>172.21</ele>
        <time>2012-09-05T15:39:27Z</time>
      </trkpt>
      <trkpt lat="45.9404" lon="4.76985">
        <ele>171.73</ele>
        <time>2012-09-05T15:39:28Z</time>
      </trkpt>
      <trkpt lat="45.94038" lon="4.76985">
        <ele>171.73</ele>
        <time>2012-09-05T15:39:29Z</time>
      </trkpt>
      <trkpt lat="45.94037" lon="4.76984">
        <ele>171.73</ele>
        <time>2012-09-05T15:39:30Z</time>
      </trkpt>
      <trkpt lat="45.94035" lon="4.76983">
        <ele>171.73</ele>
        <time>2012-09-05T15:39:31Z</time>
      </trkpt>
      <trkpt lat="45.94034" lon="4.76981">
        <ele>171.25</ele>
        <time>2012-09-05T15:39:32Z</time>
      </trkpt>
      <trkpt lat="45.94033" lon="4.76979">
        <ele>171.25</ele>
        <time>2012-09-05T15:39:33Z</time>
      </trkpt>
      <trkpt lat="45.94033" lon="4.76976">
        <ele>171.25</ele>
        <time>2012-09-05T15:39:34Z</time>
      </trkpt>
      <trkpt lat="45.94033" lon="4.76974">
        <ele>171.25</ele>
        <time>2012-09-05T15:39:35Z</time>
      </trkpt>
      <trkpt lat="45.94033" lon="4.76973">
        <ele>171.25</ele>
        <time>2012-09-05T15:39:36Z</time>
      </trkpt>
      <trkpt lat="45.94038" lon="4.76959">
        <ele>171.73</ele>
        <time>2012-09-05T15:39:42Z</time>
      </trkpt>
      <trkpt lat="45.94038" lon="4.76957">
        <ele>171.73</ele>
        <time>2012-09-05T15:39:43Z</time>
      </trkpt>
      <trkpt lat="45.94037" lon="4.76951">
        <ele>171.25</ele>
        <time>2012-09-05T15:39:50Z</time>
      </trkpt>
      <trkpt lat="45.94036" lon="4.76949">
        <ele>171.73</ele>
        <time>2012-09-05T15:39:51Z</time>
      </trkpt>
      <trkpt lat="45.94035" lon="4.76939">
        <ele>171.25</ele>
        <time>2012-09-05T15:39:54Z</time>
      </trkpt>
      <trkpt lat="45.94036" lon="4.76936">
        <ele>171.25</ele>
        <time>2012-09-05T15:39:55Z</time>
      </trkpt>
      <trkpt lat="45.94038" lon="4.76934">
        <ele>171.25</ele>
        <time>2012-09-05T15:39:56Z</time>
      </trkpt>
      <trkpt lat="45.94039" lon="4.76931">
        <ele>171.25</ele>
        <time>2012-09-05T15:39:57Z</time>
      </trkpt>
      <trkpt lat="45.94039" lon="4.76928">
        <ele>171.25</ele>
        <time>2012-09-05T15:39:58Z</time>
      </trkpt>
      <trkpt lat="45.94039" lon="4.76924">
        <ele>171.25</ele>
        <time>2012-09-05T15:39:59Z</time>
      </trkpt>
      <trkpt lat="45.94039" lon="4.7692">
        <ele>171.25</ele>
        <time>2012-09-05T15:40:00Z</time>
      </trkpt>
      <trkpt lat="45.94038" lon="4.76915">
        <ele>171.25</ele>
        <time>2012-09-05T15:40:01Z</time>
      </trkpt>
      <trkpt lat="45.94036" lon="4.7691">
        <ele>171.25</ele>
        <time>2012-09-05T15:40:02Z</time>
      </trkpt>
      <trkpt lat="45.9403" lon="4.76893">
        <ele>170.77</ele>
        <time>2012-09-05T15:40:09Z</time>
      </trkpt>
      <trkpt lat="45.94023" lon="4.76885">
        <ele>170.77</ele>
        <time>2012-09-05T15:40:15Z</time>
      </trkpt>
      <trkpt lat="45.9402" lon="4.76883">
        <ele>170.77</ele>
        <time>2012-09-05T15:40:16Z</time>
      </trkpt>
      <trkpt lat="45.94016" lon="4.76882">
        <ele>170.77</ele>
        <time>2012-09-05T15:40:17Z</time>
      </trkpt>
      <trkpt lat="45.94013" lon="4.76883">
        <ele>170.77</ele>
        <time>2012-09-05T15:40:18Z</time>
      </trkpt>
      <trkpt lat="45.9401" lon="4.76884">
        <ele>170.77</ele>
        <time>2012-09-05T15:40:19Z</time>
      </trkpt>
      <trkpt lat="45.93986" lon="4.76884">
        <ele>170.29</ele>
        <time>2012-09-05T15:40:28Z</time>
      </trkpt>
      <trkpt lat="45.93984" lon="4.76883">
        <ele>170.29</ele>
        <time>2012-09-05T15:40:29Z</time>
      </trkpt>
      <trkpt lat="45.93982" lon="4.76883">
        <ele>170.29</ele>
        <time>2012-09-05T15:40:30Z</time>
      </trkpt>
      <trkpt lat="45.9398" lon="4.76884">
        <ele>170.29</ele>
        <time>2012-09-05T15:40:31Z</time>
      </trkpt>
      <trkpt lat="45.93978" lon="4.76887">
        <ele>170.29</ele>
        <time>2012-09-05T15:40:32Z</time>
      </trkpt>
      <trkpt lat="45.93977" lon="4.76889">
        <ele>170.29</ele>
        <time>2012-09-05T15:40:33Z</time>
      </trkpt>
      <trkpt lat="45.93969" lon="4.76903">
        <ele>170.29</ele>
        <time>2012-09-05T15:40:43Z</time>
      </trkpt>
      <trkpt lat="45.93969" lon="4.76902">
        <ele>170.29</ele>
        <time>2012-09-05T15:40:59Z</time>
      </trkpt>
      <trkpt lat="45.93969" lon="4.76902">
        <ele>170.29</ele>
        <time>2012-09-05T15:41:27Z</time>
      </trkpt>
      <trkpt lat="45.93969" lon="4.76901">
        <ele>170.29</ele>
        <time>2012-09-05T15:41:59Z</time>
      </trkpt>
      <trkpt lat="45.93969" lon="4.76901">
        <ele>170.29</ele>
        <time>2012-09-05T15:42:32Z</time>
      </trkpt>
      <trkpt lat="45.9397" lon="4.76903">
        <ele>170.29</ele>
        <time>2012-09-05T15:43:03Z</time>
      </trkpt>
      <trkpt lat="45.93972" lon="4.76903">
        <ele>170.29</ele>
        <time>2012-09-05T15:43:36Z</time>
      </trkpt>
      <trkpt lat="45.93973" lon="4.76904">
        <ele>170.29</ele>
        <time>2012-09-05T15:44:06Z</time>
      </trkpt>
      <trkpt lat="45.93973" lon="4.76903">
        <ele>170.29</ele>
        <time>2012-09-05T15:44:35Z</time>
      </trkpt>
      <trkpt lat="45.93973" lon="4.76904">
        <ele>170.29</ele>
        <time>2012-09-05T15:45:03Z</time>
      </trkpt>
      <trkpt lat="45.93973" lon="4.76905">
        <ele>170.29</ele>
        <time>2012-09-05T15:45:33Z</time>
      </trkpt>
      <trkpt lat="45.93973" lon="4.76904">
        <ele>170.29</ele>
        <time>2012-09-05T15:46:04Z</time>
      </trkpt>
      <trkpt lat="45.93973" lon="4.76904">
        <ele>170.77</ele>
        <time>2012-09-05T15:46:35Z</time>
      </trkpt>
      <trkpt lat="45.93973" lon="4.76905">
        <ele>170.29</ele>
        <time>2012-09-05T15:47:02Z</time>
      </trkpt>
      <trkpt lat="45.93973" lon="4.76905">
        <ele>170.29</ele>
        <time>2012-09-05T15:47:36Z</time>
      </trkpt>
      <trkpt lat="45.93974" lon="4.76902">
        <ele>170.29</ele>
        <time>2012-09-05T15:47:43Z</time>
      </trkpt>
      <trkpt lat="45.93971" lon="4.76897">
        <ele>170.29</ele>
        <time>2012-09-05T15:47:57Z</time>
      </trkpt>
      <trkpt lat="45.9397" lon="4.76897">
        <ele>170.29</ele>
        <time>2012-09-05T15:48:08Z</time>
      </trkpt>
      <trkpt lat="45.93967" lon="4.76895">
        <ele>170.29</ele>
        <time>2012-09-05T15:48:12Z</time>
      </trkpt>
      <trkpt lat="45.93966" lon="4.76893">
        <ele>170.29</ele>
        <time>2012-09-05T15:48:13Z</time>
      </trkpt>
      <trkpt lat="45.93966" lon="4.76891">
        <ele>170.29</ele>
        <time>2012-09-05T15:48:14Z</time>
      </trkpt>
      <trkpt lat="45.9396" lon="4.7688">
        <ele>170.29</ele>
        <time>2012-09-05T15:48:19Z</time>
      </trkpt>
      <trkpt lat="45.93958" lon="4.76877">
        <ele>170.29</ele>
        <time>2012-09-05T15:48:20Z</time>
      </trkpt>
      <trkpt lat="45.93957" lon="4.76875">
        <ele>170.29</ele>
        <time>2012-09-05T15:48:21Z</time>
      </trkpt>
      <trkpt lat="45.93955" lon="4.76873">
        <ele>170.29</ele>
        <time>2012-09-05T15:48:22Z</time>
      </trkpt>
      <trkpt lat="45.93953" lon="4.76871">
        <ele>170.29</ele>
        <time>2012-09-05T15:48:23Z</time>
      </trkpt>
      <trkpt lat="45.93952" lon="4.76869">
        <ele>169.81</ele>
        <time>2012-09-05T15:48:24Z</time>
      </trkpt>
      <trkpt lat="45.9395" lon="4.76867">
        <ele>170.29</ele>
        <time>2012-09-05T15:48:25Z</time>
      </trkpt>
      <trkpt lat="45.9393" lon="4.76839">
        <ele>169.81</ele>
        <time>2012-09-05T15:48:37Z</time>
      </trkpt>
      <trkpt lat="45.93909" lon="4.76806">
        <ele>169.81</ele>
        <time>2012-09-05T15:48:48Z</time>
      </trkpt>
      <trkpt lat="45.93886" lon="4.7677">
        <ele>169.81</ele>
        <time>2012-09-05T15:49:01Z</time>
      </trkpt>
      <trkpt lat="45.93862" lon="4.76728">
        <ele>169.81</ele>
        <time>2012-09-05T15:49:15Z</time>
      </trkpt>
      <trkpt lat="45.93861" lon="4.76724">
        <ele>169.81</ele>
        <time>2012-09-05T15:49:16Z</time>
      </trkpt>
      <trkpt lat="45.93862" lon="4.7672">
        <ele>169.81</ele>
        <time>2012-09-05T15:49:17Z</time>
      </trkpt>
      <trkpt lat="45.93864" lon="4.76716">
        <ele>169.81</ele>
        <time>2012-09-05T15:49:18Z</time>
      </trkpt>
      <trkpt lat="45.93865" lon="4.76713">
        <ele>170.29</ele>
        <time>2012-09-05T15:49:19Z</time>
      </trkpt>
      <trkpt lat="45.93866" lon="4.76709">
        <ele>170.77</ele>
        <time>2012-09-05T15:49:20Z</time>
      </trkpt>
      <trkpt lat="45.93867" lon="4.76707">
        <ele>170.77</ele>
        <time>2012-09-05T15:49:21Z</time>
      </trkpt>
      <trkpt lat="45.93872" lon="4.76691">
        <ele>171.73</ele>
        <time>2012-09-05T15:49:31Z</time>
      </trkpt>
      <trkpt lat="45.93872" lon="4.76689">
        <ele>171.73</ele>
        <time>2012-09-05T15:49:32Z</time>
      </trkpt>
      <trkpt lat="45.93872" lon="4.76687">
        <ele>171.73</ele>
        <time>2012-09-05T15:49:33Z</time>
      </trkpt>
      <trkpt lat="45.93872" lon="4.76679">
        <ele>171.73</ele>
        <time>2012-09-05T15:49:48Z</time>
      </trkpt>
      <trkpt lat="45.93873" lon="4.76673">
        <ele>171.25</ele>
        <time>2012-09-05T15:50:04Z</time>
      </trkpt>
      <trkpt lat="45.93872" lon="4.76671">
        <ele>171.25</ele>
        <time>2012-09-05T15:50:05Z</time>
      </trkpt>
      <trkpt lat="45.9387" lon="4.76671">
        <ele>171.25</ele>
        <time>2012-09-05T15:50:06Z</time>
      </trkpt>
      <trkpt lat="45.93869" lon="4.76672">
        <ele>171.25</ele>
        <time>2012-09-05T15:50:07Z</time>
      </trkpt>
      <trkpt lat="45.93872" lon="4.76696">
        <ele>171.25</ele>
        <time>2012-09-05T15:50:18Z</time>
      </trkpt>
      <trkpt lat="45.93868" lon="4.76708">
        <ele>170.77</ele>
        <time>2012-09-05T15:50:30Z</time>
      </trkpt>
      <trkpt lat="45.93861" lon="4.76734">
        <ele>169.81</ele>
        <time>2012-09-05T15:50:38Z</time>
      </trkpt>
      <trkpt lat="45.93861" lon="4.76736">
        <ele>169.81</ele>
        <time>2012-09-05T15:50:39Z</time>
      </trkpt>
      <trkpt lat="45.9386" lon="4.76738">
        <ele>169.81</ele>
        <time>2012-09-05T15:50:40Z</time>
      </trkpt>
      <trkpt lat="45.9386" lon="4.76741">
        <ele>169.81</ele>
        <time>2012-09-05T15:50:52Z</time>
      </trkpt>
      <trkpt lat="45.93861" lon="4.76741">
        <ele>169.81</ele>
        <time>2012-09-05T15:51:23Z</time>
      </trkpt>
      <trkpt lat="45.93862" lon="4.76741">
        <ele>164.52</ele>
        <time>2012-09-05T15:51:46Z</time>
      </trkpt>
      <trkpt lat="45.93862" lon="4.76741">
        <ele>170.29</ele>
        <time>2012-09-05T15:51:47Z</time>
      </trkpt>
      <trkpt lat="45.93861" lon="4.76741">
        <ele>170.29</ele>
        <time>2012-09-05T15:52:09Z</time>
      </trkpt>
    </trkseg>
  </trk>
  <trk>
    <name><![CDATA[06-SEP-12 17:35:27]]></name>
    <trkseg>
      <trkpt lat="45.93974" lon="4.76896">
        <ele>176.06</ele>
        <time>2012-09-06T08:33:20Z</time>
      </trkpt>
      <trkpt lat="45.93974" lon="4.76896">
        <ele>176.06</ele>
        <time>2012-09-06T08:33:47Z</time>
      </trkpt>
      <trkpt lat="45.93974" lon="4.76897">
        <ele>176.06</ele>
        <time>2012-09-06T08:34:07Z</time>
      </trkpt>
      <trkpt lat="45.93973" lon="4.76899">
        <ele>176.54</ele>
        <time>2012-09-06T08:34:27Z</time>
      </trkpt>
      <trkpt lat="45.93974" lon="4.769">
        <ele>176.54</ele>
        <time>2012-09-06T08:34:37Z</time>
      </trkpt>
      <trkpt lat="45.93969" lon="4.76917">
        <ele>176.06</ele>
        <time>2012-09-06T08:34:48Z</time>
      </trkpt>
      <trkpt lat="45.93966" lon="4.76916">
        <ele>176.06</ele>
        <time>2012-09-06T08:34:50Z</time>
      </trkpt>
      <trkpt lat="45.93936" lon="4.76875">
        <ele>175.58</ele>
        <time>2012-09-06T08:35:04Z</time>
      </trkpt>
      <trkpt lat="45.93898" lon="4.76819">
        <ele>175.1</ele>
        <time>2012-09-06T08:35:20Z</time>
      </trkpt>
      <trkpt lat="45.93864" lon="4.76769">
        <ele>175.1</ele>
        <time>2012-09-06T08:35:36Z</time>
      </trkpt>
      <trkpt lat="45.93864" lon="4.76769">
        <ele>175.1</ele>
        <time>2012-09-06T08:35:57Z</time>
      </trkpt>
      <trkpt lat="45.93864" lon="4.76766">
        <ele>175.1</ele>
        <time>2012-09-06T08:36:16Z</time>
      </trkpt>
      <trkpt lat="45.9385" lon="4.76744">
        <ele>175.58</ele>
        <time>2012-09-06T08:36:23Z</time>
      </trkpt>
      <trkpt lat="45.93807" lon="4.76668">
        <ele>175.58</ele>
        <time>2012-09-06T08:36:37Z</time>
      </trkpt>
      <trkpt lat="45.93766" lon="4.76565">
        <ele>175.58</ele>
        <time>2012-09-06T08:36:53Z</time>
      </trkpt>
      <trkpt lat="45.93731" lon="4.76462">
        <ele>175.58</ele>
        <time>2012-09-06T08:37:08Z</time>
      </trkpt>
      <trkpt lat="45.93721" lon="4.76428">
        <ele>175.58</ele>
        <time>2012-09-06T08:37:13Z</time>
      </trkpt>
      <trkpt lat="45.93715" lon="4.76409">
        <ele>175.58</ele>
        <time>2012-09-06T08:37:16Z</time>
      </trkpt>
      <trkpt lat="45.93687" lon="4.76328">
        <ele>176.06</ele>
        <time>2012-09-06T08:37:30Z</time>
      </trkpt>
      <trkpt lat="45.93684" lon="4.76317">
        <ele>175.58</ele>
        <time>2012-09-06T08:37:32Z</time>
      </trkpt>
      <trkpt lat="45.93652" lon="4.76231">
        <ele>176.06</ele>
        <time>2012-09-06T08:37:47Z</time>
      </trkpt>
      <trkpt lat="45.93628" lon="4.76156">
        <ele>176.06</ele>
        <time>2012-09-06T08:38:01Z</time>
      </trkpt>
      <trkpt lat="45.93602" lon="4.76074">
        <ele>176.06</ele>
        <time>2012-09-06T08:38:16Z</time>
      </trkpt>
      <trkpt lat="45.9358" lon="4.76013">
        <ele>176.06</ele>
        <time>2012-09-06T08:38:27Z</time>
      </trkpt>
      <trkpt lat="45.9357" lon="4.75983">
        <ele>175.58</ele>
        <time>2012-09-06T08:38:37Z</time>
      </trkpt>
      <trkpt lat="45.93569" lon="4.75977">
        <ele>175.58</ele>
        <time>2012-09-06T08:38:50Z</time>
      </trkpt>
      <trkpt lat="45.93569" lon="4.75978">
        <ele>175.58</ele>
        <time>2012-09-06T08:39:19Z</time>
      </trkpt>
      <trkpt lat="45.93568" lon="4.75977">
        <ele>175.58</ele>
        <time>2012-09-06T08:39:28Z</time>
      </trkpt>
      <trkpt lat="45.93566" lon="4.75976">
        <ele>175.58</ele>
        <time>2012-09-06T08:39:29Z</time>
      </trkpt>
      <trkpt lat="45.93565" lon="4.75974">
        <ele>176.06</ele>
        <time>2012-09-06T08:39:30Z</time>
      </trkpt>
      <trkpt lat="45.93564" lon="4.75971">
        <ele>176.06</ele>
        <time>2012-09-06T08:39:31Z</time>
      </trkpt>
      <trkpt lat="45.93563" lon="4.75967">
        <ele>176.06</ele>
        <time>2012-09-06T08:39:32Z</time>
      </trkpt>
      <trkpt lat="45.93549" lon="4.75918">
        <ele>176.06</ele>
        <time>2012-09-06T08:39:41Z</time>
      </trkpt>
      <trkpt lat="45.93541" lon="4.75892">
        <ele>176.06</ele>
        <time>2012-09-06T08:39:45Z</time>
      </trkpt>
      <trkpt lat="45.93539" lon="4.75885">
        <ele>176.06</ele>
        <time>2012-09-06T08:39:46Z</time>
      </trkpt>
      <trkpt lat="45.93538" lon="4.75878">
        <ele>176.06</ele>
        <time>2012-09-06T08:39:47Z</time>
      </trkpt>
      <trkpt lat="45.9353" lon="4.75821">
        <ele>176.06</ele>
        <time>2012-09-06T08:39:55Z</time>
      </trkpt>
      <trkpt lat="45.93531" lon="4.75792">
        <ele>176.06</ele>
        <time>2012-09-06T08:39:59Z</time>
      </trkpt>
      <trkpt lat="45.93531" lon="4.75785">
        <ele>176.06</ele>
        <time>2012-09-06T08:40:00Z</time>
      </trkpt>
      <trkpt lat="45.93534" lon="4.75764">
        <ele>176.06</ele>
        <time>2012-09-06T08:40:03Z</time>
      </trkpt>
      <trkpt lat="45.93534" lon="4.75757">
        <ele>176.06</ele>
        <time>2012-09-06T08:40:04Z</time>
      </trkpt>
      <trkpt lat="45.9354" lon="4.75712">
        <ele>176.06</ele>
        <time>2012-09-06T08:40:10Z</time>
      </trkpt>
      <trkpt lat="45.93541" lon="4.75704">
        <ele>176.06</ele>
        <time>2012-09-06T08:40:11Z</time>
      </trkpt>
      <trkpt lat="45.93559" lon="4.75588">
        <ele>176.06</ele>
        <time>2012-09-06T08:40:27Z</time>
      </trkpt>
      <trkpt lat="45.93578" lon="4.75472">
        <ele>176.54</ele>
        <time>2012-09-06T08:40:44Z</time>
      </trkpt>
      <trkpt lat="45.93586" lon="4.7543">
        <ele>176.06</ele>
        <time>2012-09-06T08:40:57Z</time>
      </trkpt>
      <trkpt lat="45.93585" lon="4.75428">
        <ele>175.58</ele>
        <time>2012-09-06T08:41:22Z</time>
      </trkpt>
      <trkpt lat="45.93585" lon="4.75428">
        <ele>175.58</ele>
        <time>2012-09-06T08:41:53Z</time>
      </trkpt>
      <trkpt lat="45.93584" lon="4.75428">
        <ele>175.58</ele>
        <time>2012-09-06T08:42:34Z</time>
      </trkpt>
      <trkpt lat="45.93581" lon="4.75429">
        <ele>175.58</ele>
        <time>2012-09-06T08:43:15Z</time>
      </trkpt>
      <trkpt lat="45.93581" lon="4.75429">
        <ele>175.58</ele>
        <time>2012-09-06T08:43:48Z</time>
      </trkpt>
      <trkpt lat="45.93582" lon="4.75429">
        <ele>175.58</ele>
        <time>2012-09-06T08:44:16Z</time>
      </trkpt>
      <trkpt lat="45.93582" lon="4.7543">
        <ele>175.58</ele>
        <time>2012-09-06T08:44:44Z</time>
      </trkpt>
      <trkpt lat="45.93583" lon="4.7543">
        <ele>175.58</ele>
        <time>2012-09-06T08:45:06Z</time>
      </trkpt>
      <trkpt lat="45.93583" lon="4.75429">
        <ele>176.54</ele>
        <time>2012-09-06T08:45:28Z</time>
      </trkpt>
      <trkpt lat="45.93583" lon="4.75429">
        <ele>174.14</ele>
        <time>2012-09-06T08:45:32Z</time>
      </trkpt>
      <trkpt lat="45.93583" lon="4.75429">
        <ele>177.98</ele>
        <time>2012-09-06T08:45:33Z</time>
      </trkpt>
      <trkpt lat="45.93583" lon="4.75429">
        <ele>172.21</ele>
        <time>2012-09-06T08:45:38Z</time>
      </trkpt>
      <trkpt lat="45.93583" lon="4.75429">
        <ele>168.85</ele>
        <time>2012-09-06T08:45:39Z</time>
      </trkpt>
      <trkpt lat="45.93583" lon="4.75429">
        <ele>184.71</ele>
        <time>2012-09-06T08:45:40Z</time>
      </trkpt>
      <trkpt lat="45.93583" lon="4.75429">
        <ele>177.02</ele>
        <time>2012-09-06T08:45:41Z</time>
      </trkpt>
      <trkpt lat="45.93583" lon="4.75429">
        <ele>175.58</ele>
        <time>2012-09-06T08:45:43Z</time>
      </trkpt>
      <trkpt lat="45.93583" lon="4.75429">
        <ele>174.62</ele>
        <time>2012-09-06T08:46:10Z</time>
      </trkpt>
      <trkpt lat="45.93584" lon="4.75428">
        <ele>175.58</ele>
        <time>2012-09-06T08:46:26Z</time>
      </trkpt>
      <trkpt lat="45.93584" lon="4.75428">
        <ele>174.62</ele>
        <time>2012-09-06T08:46:56Z</time>
      </trkpt>
      <trkpt lat="45.93584" lon="4.75425">
        <ele>175.1</ele>
        <time>2012-09-06T08:47:23Z</time>
      </trkpt>
      <trkpt lat="45.93587" lon="4.75416">
        <ele>175.1</ele>
        <time>2012-09-06T08:47:28Z</time>
      </trkpt>
      <trkpt lat="45.93587" lon="4.75414">
        <ele>175.58</ele>
        <time>2012-09-06T08:47:29Z</time>
      </trkpt>
      <trkpt lat="45.93588" lon="4.7541">
        <ele>175.1</ele>
        <time>2012-09-06T08:47:30Z</time>
      </trkpt>
      <trkpt lat="45.93588" lon="4.75407">
        <ele>175.58</ele>
        <time>2012-09-06T08:47:31Z</time>
      </trkpt>
      <trkpt lat="45.93589" lon="4.75404">
        <ele>175.58</ele>
        <time>2012-09-06T08:47:32Z</time>
      </trkpt>
      <trkpt lat="45.9359" lon="4.754">
        <ele>175.1</ele>
        <time>2012-09-06T08:47:33Z</time>
      </trkpt>
      <trkpt lat="45.93591" lon="4.75397">
        <ele>175.58</ele>
        <time>2012-09-06T08:47:34Z</time>
      </trkpt>
      <trkpt lat="45.93596" lon="4.75339">
        <ele>175.58</ele>
        <time>2012-09-06T08:47:48Z</time>
      </trkpt>
      <trkpt lat="45.93611" lon="4.75261">
        <ele>175.58</ele>
        <time>2012-09-06T08:48:05Z</time>
      </trkpt>
      <trkpt lat="45.9363" lon="4.75194">
        <ele>175.58</ele>
        <time>2012-09-06T08:48:19Z</time>
      </trkpt>
      <trkpt lat="45.93653" lon="4.75138">
        <ele>175.1</ele>
        <time>2012-09-06T08:48:31Z</time>
      </trkpt>
      <trkpt lat="45.93687" lon="4.75065">
        <ele>175.58</ele>
        <time>2012-09-06T08:48:47Z</time>
      </trkpt>
      <trkpt lat="45.93693" lon="4.75054">
        <ele>175.58</ele>
        <time>2012-09-06T08:48:56Z</time>
      </trkpt>
      <trkpt lat="45.93693" lon="4.75052">
        <ele>175.1</ele>
        <time>2012-09-06T08:49:26Z</time>
      </trkpt>
      <trkpt lat="45.93694" lon="4.75049">
        <ele>175.1</ele>
        <time>2012-09-06T08:49:44Z</time>
      </trkpt>
      <trkpt lat="45.93694" lon="4.75047">
        <ele>175.1</ele>
        <time>2012-09-06T08:49:45Z</time>
      </trkpt>
      <trkpt lat="45.93696" lon="4.75044">
        <ele>175.1</ele>
        <time>2012-09-06T08:49:46Z</time>
      </trkpt>
      <trkpt lat="45.93706" lon="4.75025">
        <ele>175.1</ele>
        <time>2012-09-06T08:49:51Z</time>
      </trkpt>
      <trkpt lat="45.93708" lon="4.75019">
        <ele>175.58</ele>
        <time>2012-09-06T08:49:52Z</time>
      </trkpt>
      <trkpt lat="45.9375" lon="4.74928">
        <ele>175.58</ele>
        <time>2012-09-06T08:50:06Z</time>
      </trkpt>
      <trkpt lat="45.93753" lon="4.74922">
        <ele>175.58</ele>
        <time>2012-09-06T08:50:07Z</time>
      </trkpt>
      <trkpt lat="45.93798" lon="4.74839">
        <ele>175.58</ele>
        <time>2012-09-06T08:50:20Z</time>
      </trkpt>
      <trkpt lat="45.93802" lon="4.74833">
        <ele>175.1</ele>
        <time>2012-09-06T08:50:21Z</time>
      </trkpt>
      <trkpt lat="45.93805" lon="4.74827">
        <ele>175.1</ele>
        <time>2012-09-06T08:50:22Z</time>
      </trkpt>
      <trkpt lat="45.93809" lon="4.74821">
        <ele>175.1</ele>
        <time>2012-09-06T08:50:23Z</time>
      </trkpt>
      <trkpt lat="45.93812" lon="4.74815">
        <ele>175.1</ele>
        <time>2012-09-06T08:50:24Z</time>
      </trkpt>
      <trkpt lat="45.93815" lon="4.74808">
        <ele>175.1</ele>
        <time>2012-09-06T08:50:25Z</time>
      </trkpt>
      <trkpt lat="45.93844" lon="4.74748">
        <ele>175.1</ele>
        <time>2012-09-06T08:50:34Z</time>
      </trkpt>
      <trkpt lat="45.9386" lon="4.74708">
        <ele>175.1</ele>
        <time>2012-09-06T08:50:40Z</time>
      </trkpt>
      <trkpt lat="45.93862" lon="4.74702">
        <ele>174.62</ele>
        <time>2012-09-06T08:50:41Z</time>
      </trkpt>
      <trkpt lat="45.93889" lon="4.74614">
        <ele>174.62</ele>
        <time>2012-09-06T08:50:54Z</time>
      </trkpt>
      <trkpt lat="45.93891" lon="4.74607">
        <ele>174.62</ele>
        <time>2012-09-06T08:50:55Z</time>
      </trkpt>
      <trkpt lat="45.93909" lon="4.74498">
        <ele>175.1</ele>
        <time>2012-09-06T08:51:10Z</time>
      </trkpt>
      <trkpt lat="45.9391" lon="4.7447">
        <ele>175.1</ele>
        <time>2012-09-06T08:51:14Z</time>
      </trkpt>
      <trkpt lat="45.93911" lon="4.74463">
        <ele>175.1</ele>
        <time>2012-09-06T08:51:15Z</time>
      </trkpt>
      <trkpt lat="45.93911" lon="4.74449">
        <ele>175.1</ele>
        <time>2012-09-06T08:51:17Z</time>
      </trkpt>
      <trkpt lat="45.93911" lon="4.74442">
        <ele>175.1</ele>
        <time>2012-09-06T08:51:18Z</time>
      </trkpt>
      <trkpt lat="45.9391" lon="4.74435">
        <ele>175.1</ele>
        <time>2012-09-06T08:51:19Z</time>
      </trkpt>
      <trkpt lat="45.93908" lon="4.74407">
        <ele>174.62</ele>
        <time>2012-09-06T08:51:23Z</time>
      </trkpt>
      <trkpt lat="45.93908" lon="4.744">
        <ele>175.1</ele>
        <time>2012-09-06T08:51:24Z</time>
      </trkpt>
      <trkpt lat="45.93908" lon="4.74393">
        <ele>175.1</ele>
        <time>2012-09-06T08:51:25Z</time>
      </trkpt>
      <trkpt lat="45.93907" lon="4.74353">
        <ele>174.62</ele>
        <time>2012-09-06T08:51:31Z</time>
      </trkpt>
      <trkpt lat="45.93908" lon="4.74289">
        <ele>174.14</ele>
        <time>2012-09-06T08:51:40Z</time>
      </trkpt>
      <trkpt lat="45.93907" lon="4.74282">
        <ele>174.14</ele>
        <time>2012-09-06T08:51:41Z</time>
      </trkpt>
      <trkpt lat="45.93907" lon="4.74275">
        <ele>174.14</ele>
        <time>2012-09-06T08:51:42Z</time>
      </trkpt>
      <trkpt lat="45.93907" lon="4.74262">
        <ele>174.14</ele>
        <time>2012-09-06T08:51:44Z</time>
      </trkpt>
      <trkpt lat="45.93907" lon="4.74256">
        <ele>174.14</ele>
        <time>2012-09-06T08:51:45Z</time>
      </trkpt>
      <trkpt lat="45.9391" lon="4.74215">
        <ele>173.66</ele>
        <time>2012-09-06T08:51:51Z</time>
      </trkpt>
      <trkpt lat="45.93912" lon="4.74188">
        <ele>173.66</ele>
        <time>2012-09-06T08:51:55Z</time>
      </trkpt>
      <trkpt lat="45.93912" lon="4.74182">
        <ele>174.14</ele>
        <time>2012-09-06T08:51:56Z</time>
      </trkpt>
      <trkpt lat="45.93912" lon="4.74168">
        <ele>174.14</ele>
        <time>2012-09-06T08:51:58Z</time>
      </trkpt>
      <trkpt lat="45.93916" lon="4.74103">
        <ele>174.14</ele>
        <time>2012-09-06T08:52:08Z</time>
      </trkpt>
      <trkpt lat="45.93916" lon="4.74097">
        <ele>174.14</ele>
        <time>2012-09-06T08:52:09Z</time>
      </trkpt>
      <trkpt lat="45.93923" lon="4.74034">
        <ele>174.14</ele>
        <time>2012-09-06T08:52:21Z</time>
      </trkpt>
      <trkpt lat="45.9393" lon="4.73996">
        <ele>173.66</ele>
        <time>2012-09-06T08:52:32Z</time>
      </trkpt>
      <trkpt lat="45.93935" lon="4.73969">
        <ele>173.66</ele>
        <time>2012-09-06T08:52:44Z</time>
      </trkpt>
      <trkpt lat="45.93935" lon="4.73967">
        <ele>173.17</ele>
        <time>2012-09-06T08:53:11Z</time>
      </trkpt>
      <trkpt lat="45.93935" lon="4.73964">
        <ele>172.69</ele>
        <time>2012-09-06T08:53:40Z</time>
      </trkpt>
      <trkpt lat="45.93934" lon="4.73964">
        <ele>172.69</ele>
        <time>2012-09-06T08:54:13Z</time>
      </trkpt>
      <trkpt lat="45.93932" lon="4.73964">
        <ele>172.69</ele>
        <time>2012-09-06T08:54:35Z</time>
      </trkpt>
      <trkpt lat="45.93934" lon="4.73948">
        <ele>172.69</ele>
        <time>2012-09-06T08:54:46Z</time>
      </trkpt>
      <trkpt lat="45.93934" lon="4.73945">
        <ele>172.69</ele>
        <time>2012-09-06T08:54:47Z</time>
      </trkpt>
      <trkpt lat="45.93935" lon="4.73942">
        <ele>173.17</ele>
        <time>2012-09-06T08:54:48Z</time>
      </trkpt>
      <trkpt lat="45.93935" lon="4.73939">
        <ele>172.69</ele>
        <time>2012-09-06T08:54:49Z</time>
      </trkpt>
      <trkpt lat="45.93935" lon="4.73936">
        <ele>172.69</ele>
        <time>2012-09-06T08:54:50Z</time>
      </trkpt>
      <trkpt lat="45.93935" lon="4.73933">
        <ele>172.69</ele>
        <time>2012-09-06T08:54:51Z</time>
      </trkpt>
      <trkpt lat="45.93935" lon="4.73929">
        <ele>172.69</ele>
        <time>2012-09-06T08:54:52Z</time>
      </trkpt>
      <trkpt lat="45.93936" lon="4.73925">
        <ele>172.69</ele>
        <time>2012-09-06T08:54:53Z</time>
      </trkpt>
      <trkpt lat="45.93937" lon="4.73921">
        <ele>172.69</ele>
        <time>2012-09-06T08:54:54Z</time>
      </trkpt>
      <trkpt lat="45.93938" lon="4.73917">
        <ele>172.69</ele>
        <time>2012-09-06T08:54:55Z</time>
      </trkpt>
      <trkpt lat="45.93939" lon="4.73913">
        <ele>172.69</ele>
        <time>2012-09-06T08:54:56Z</time>
      </trkpt>
      <trkpt lat="45.9394" lon="4.73909">
        <ele>172.69</ele>
        <time>2012-09-06T08:54:57Z</time>
      </trkpt>
      <trkpt lat="45.93944" lon="4.7389">
        <ele>172.69</ele>
        <time>2012-09-06T08:55:03Z</time>
      </trkpt>
      <trkpt lat="45.93945" lon="4.73886">
        <ele>172.69</ele>
        <time>2012-09-06T08:55:04Z</time>
      </trkpt>
      <trkpt lat="45.93945" lon="4.73881">
        <ele>172.69</ele>
        <time>2012-09-06T08:55:05Z</time>
      </trkpt>
      <trkpt lat="45.93946" lon="4.73877">
        <ele>172.69</ele>
        <time>2012-09-06T08:55:06Z</time>
      </trkpt>
      <trkpt lat="45.93946" lon="4.73872">
        <ele>172.69</ele>
        <time>2012-09-06T08:55:07Z</time>
      </trkpt>
      <trkpt lat="45.93946" lon="4.73868">
        <ele>172.69</ele>
        <time>2012-09-06T08:55:08Z</time>
      </trkpt>
      <trkpt lat="45.93947" lon="4.73864">
        <ele>172.69</ele>
        <time>2012-09-06T08:55:09Z</time>
      </trkpt>
      <trkpt lat="45.93947" lon="4.7386">
        <ele>172.69</ele>
        <time>2012-09-06T08:55:10Z</time>
      </trkpt>
      <trkpt lat="45.93953" lon="4.73802">
        <ele>172.69</ele>
        <time>2012-09-06T08:55:23Z</time>
      </trkpt>
      <trkpt lat="45.9396" lon="4.73721">
        <ele>172.69</ele>
        <time>2012-09-06T08:55:37Z</time>
      </trkpt>
      <trkpt lat="45.93975" lon="4.73641">
        <ele>172.21</ele>
        <time>2012-09-06T08:55:51Z</time>
      </trkpt>
      <trkpt lat="45.93977" lon="4.73623">
        <ele>172.21</ele>
        <time>2012-09-06T08:55:54Z</time>
      </trkpt>
      <trkpt lat="45.93978" lon="4.73617">
        <ele>172.21</ele>
        <time>2012-09-06T08:55:55Z</time>
      </trkpt>
      <trkpt lat="45.93986" lon="4.73582">
        <ele>172.21</ele>
        <time>2012-09-06T08:56:01Z</time>
      </trkpt>
      <trkpt lat="45.93988" lon="4.73576">
        <ele>172.21</ele>
        <time>2012-09-06T08:56:02Z</time>
      </trkpt>
      <trkpt lat="45.94013" lon="4.73509">
        <ele>172.21</ele>
        <time>2012-09-06T08:56:14Z</time>
      </trkpt>
      <trkpt lat="45.94041" lon="4.73453">
        <ele>172.69</ele>
        <time>2012-09-06T08:56:26Z</time>
      </trkpt>
      <trkpt lat="45.94085" lon="4.7338">
        <ele>172.21</ele>
        <time>2012-09-06T08:56:42Z</time>
      </trkpt>
      <trkpt lat="45.94123" lon="4.73326">
        <ele>172.21</ele>
        <time>2012-09-06T08:56:54Z</time>
      </trkpt>
      <trkpt lat="45.94126" lon="4.73321">
        <ele>172.21</ele>
        <time>2012-09-06T08:56:55Z</time>
      </trkpt>
      <trkpt lat="45.94159" lon="4.73275">
        <ele>172.21</ele>
        <time>2012-09-06T08:57:05Z</time>
      </trkpt>
      <trkpt lat="45.94163" lon="4.73271">
        <ele>172.21</ele>
        <time>2012-09-06T08:57:06Z</time>
      </trkpt>
      <trkpt lat="45.94204" lon="4.7323">
        <ele>172.21</ele>
        <time>2012-09-06T08:57:18Z</time>
      </trkpt>
      <trkpt lat="45.94219" lon="4.73216">
        <ele>172.21</ele>
        <time>2012-09-06T08:57:22Z</time>
      </trkpt>
      <trkpt lat="45.94278" lon="4.73172">
        <ele>172.21</ele>
        <time>2012-09-06T08:57:37Z</time>
      </trkpt>
      <trkpt lat="45.9429" lon="4.73162">
        <ele>172.21</ele>
        <time>2012-09-06T08:57:40Z</time>
      </trkpt>
      <trkpt lat="45.94333" lon="4.73128">
        <ele>172.21</ele>
        <time>2012-09-06T08:57:52Z</time>
      </trkpt>
      <trkpt lat="45.94385" lon="4.73082">
        <ele>172.21</ele>
        <time>2012-09-06T08:58:06Z</time>
      </trkpt>
      <trkpt lat="45.94431" lon="4.73032">
        <ele>172.21</ele>
        <time>2012-09-06T08:58:19Z</time>
      </trkpt>
      <trkpt lat="45.94441" lon="4.73021">
        <ele>172.21</ele>
        <time>2012-09-06T08:58:22Z</time>
      </trkpt>
      <trkpt lat="45.94445" lon="4.73018">
        <ele>171.73</ele>
        <time>2012-09-06T08:58:23Z</time>
      </trkpt>
      <trkpt lat="45.94448" lon="4.73016">
        <ele>172.21</ele>
        <time>2012-09-06T08:58:24Z</time>
      </trkpt>
      <trkpt lat="45.94481" lon="4.73012">
        <ele>171.73</ele>
        <time>2012-09-06T08:58:33Z</time>
      </trkpt>
      <trkpt lat="45.94543" lon="4.73007">
        <ele>172.21</ele>
        <time>2012-09-06T08:58:48Z</time>
      </trkpt>
      <trkpt lat="45.94578" lon="4.73009">
        <ele>171.73</ele>
        <time>2012-09-06T08:58:59Z</time>
      </trkpt>
      <trkpt lat="45.94579" lon="4.73009">
        <ele>171.73</ele>
        <time>2012-09-06T08:59:12Z</time>
      </trkpt>
      <trkpt lat="45.94579" lon="4.7301">
        <ele>172.21</ele>
        <time>2012-09-06T08:59:28Z</time>
      </trkpt>
      <trkpt lat="45.94578" lon="4.7301">
        <ele>172.21</ele>
        <time>2012-09-06T08:59:52Z</time>
      </trkpt>
      <trkpt lat="45.94579" lon="4.73011">
        <ele>171.73</ele>
        <time>2012-09-06T08:59:58Z</time>
      </trkpt>
      <trkpt lat="45.94582" lon="4.73012">
        <ele>172.21</ele>
        <time>2012-09-06T09:00:00Z</time>
      </trkpt>
      <trkpt lat="45.94583" lon="4.73013">
        <ele>172.21</ele>
        <time>2012-09-06T09:00:01Z</time>
      </trkpt>
      <trkpt lat="45.94584" lon="4.73013">
        <ele>172.21</ele>
        <time>2012-09-06T09:00:02Z</time>
      </trkpt>
      <trkpt lat="45.94585" lon="4.73014">
        <ele>172.21</ele>
        <time>2012-09-06T09:00:03Z</time>
      </trkpt>
      <trkpt lat="45.94587" lon="4.73014">
        <ele>172.21</ele>
        <time>2012-09-06T09:00:04Z</time>
      </trkpt>
      <trkpt lat="45.94589" lon="4.73014">
        <ele>171.73</ele>
        <time>2012-09-06T09:00:05Z</time>
      </trkpt>
      <trkpt lat="45.9459" lon="4.73013">
        <ele>171.73</ele>
        <time>2012-09-06T09:00:06Z</time>
      </trkpt>
      <trkpt lat="45.94591" lon="4.73014">
        <ele>172.21</ele>
        <time>2012-09-06T09:00:07Z</time>
      </trkpt>
      <trkpt lat="45.94593" lon="4.73015">
        <ele>172.21</ele>
        <time>2012-09-06T09:00:21Z</time>
      </trkpt>
      <trkpt lat="45.94594" lon="4.73016">
        <ele>172.21</ele>
        <time>2012-09-06T09:00:53Z</time>
      </trkpt>
      <trkpt lat="45.94599" lon="4.73016">
        <ele>172.21</ele>
        <time>2012-09-06T09:01:07Z</time>
      </trkpt>
      <trkpt lat="45.946" lon="4.73017">
        <ele>172.21</ele>
        <time>2012-09-06T09:01:08Z</time>
      </trkpt>
      <trkpt lat="45.94601" lon="4.73017">
        <ele>172.69</ele>
        <time>2012-09-06T09:01:09Z</time>
      </trkpt>
      <trkpt lat="45.94602" lon="4.73017">
        <ele>172.21</ele>
        <time>2012-09-06T09:01:10Z</time>
      </trkpt>
      <trkpt lat="45.94609" lon="4.73016">
        <ele>172.69</ele>
        <time>2012-09-06T09:01:15Z</time>
      </trkpt>
      <trkpt lat="45.94611" lon="4.73017">
        <ele>172.69</ele>
        <time>2012-09-06T09:01:16Z</time>
      </trkpt>
      <trkpt lat="45.94613" lon="4.73017">
        <ele>172.69</ele>
        <time>2012-09-06T09:01:17Z</time>
      </trkpt>
      <trkpt lat="45.94615" lon="4.73018">
        <ele>172.69</ele>
        <time>2012-09-06T09:01:18Z</time>
      </trkpt>
      <trkpt lat="45.94618" lon="4.73018">
        <ele>172.69</ele>
        <time>2012-09-06T09:01:19Z</time>
      </trkpt>
      <trkpt lat="45.94625" lon="4.73018">
        <ele>172.69</ele>
        <time>2012-09-06T09:01:22Z</time>
      </trkpt>
      <trkpt lat="45.94627" lon="4.73019">
        <ele>172.69</ele>
        <time>2012-09-06T09:01:23Z</time>
      </trkpt>
      <trkpt lat="45.9463" lon="4.7302">
        <ele>172.69</ele>
        <time>2012-09-06T09:01:24Z</time>
      </trkpt>
      <trkpt lat="45.94633" lon="4.73021">
        <ele>172.69</ele>
        <time>2012-09-06T09:01:25Z</time>
      </trkpt>
      <trkpt lat="45.94636" lon="4.73022">
        <ele>172.69</ele>
        <time>2012-09-06T09:01:26Z</time>
      </trkpt>
      <trkpt lat="45.94669" lon="4.7303">
        <ele>172.69</ele>
        <time>2012-09-06T09:01:36Z</time>
      </trkpt>
      <trkpt lat="45.94722" lon="4.73051">
        <ele>172.69</ele>
        <time>2012-09-06T09:01:49Z</time>
      </trkpt>
      <trkpt lat="45.94774" lon="4.73076">
        <ele>172.21</ele>
        <time>2012-09-06T09:02:02Z</time>
      </trkpt>
      <trkpt lat="45.94835" lon="4.73111">
        <ele>172.69</ele>
        <time>2012-09-06T09:02:17Z</time>
      </trkpt>
      <trkpt lat="45.94897" lon="4.73152">
        <ele>173.17</ele>
        <time>2012-09-06T09:02:33Z</time>
      </trkpt>
      <trkpt lat="45.94941" lon="4.73188">
        <ele>173.17</ele>
        <time>2012-09-06T09:02:45Z</time>
      </trkpt>
      <trkpt lat="45.94967" lon="4.73214">
        <ele>173.17</ele>
        <time>2012-09-06T09:02:55Z</time>
      </trkpt>
      <trkpt lat="45.94969" lon="4.73217">
        <ele>173.17</ele>
        <time>2012-09-06T09:02:56Z</time>
      </trkpt>
      <trkpt lat="45.94972" lon="4.73218">
        <ele>173.17</ele>
        <time>2012-09-06T09:02:57Z</time>
      </trkpt>
      <trkpt lat="45.94975" lon="4.7322">
        <ele>173.17</ele>
        <time>2012-09-06T09:02:58Z</time>
      </trkpt>
      <trkpt lat="45.94978" lon="4.73222">
        <ele>173.17</ele>
        <time>2012-09-06T09:02:59Z</time>
      </trkpt>
      <trkpt lat="45.94981" lon="4.73224">
        <ele>173.17</ele>
        <time>2012-09-06T09:03:00Z</time>
      </trkpt>
      <trkpt lat="45.95008" lon="4.73253">
        <ele>173.17</ele>
        <time>2012-09-06T09:03:10Z</time>
      </trkpt>
      <trkpt lat="45.95035" lon="4.73279">
        <ele>173.17</ele>
        <time>2012-09-06T09:03:18Z</time>
      </trkpt>
      <trkpt lat="45.95038" lon="4.73283">
        <ele>173.17</ele>
        <time>2012-09-06T09:03:19Z</time>
      </trkpt>
      <trkpt lat="45.95064" lon="4.73312">
        <ele>173.17</ele>
        <time>2012-09-06T09:03:27Z</time>
      </trkpt>
      <trkpt lat="45.95074" lon="4.73324">
        <ele>172.69</ele>
        <time>2012-09-06T09:03:30Z</time>
      </trkpt>
      <trkpt lat="45.95077" lon="4.73328">
        <ele>172.69</ele>
        <time>2012-09-06T09:03:31Z</time>
      </trkpt>
      <trkpt lat="45.9508" lon="4.73332">
        <ele>172.69</ele>
        <time>2012-09-06T09:03:32Z</time>
      </trkpt>
      <trkpt lat="45.95084" lon="4.73336">
        <ele>173.17</ele>
        <time>2012-09-06T09:03:33Z</time>
      </trkpt>
      <trkpt lat="45.95087" lon="4.73339">
        <ele>173.17</ele>
        <time>2012-09-06T09:03:34Z</time>
      </trkpt>
      <trkpt lat="45.95091" lon="4.73343">
        <ele>172.69</ele>
        <time>2012-09-06T09:03:35Z</time>
      </trkpt>
      <trkpt lat="45.95141" lon="4.73404">
        <ele>172.69</ele>
        <time>2012-09-06T09:03:51Z</time>
      </trkpt>
      <trkpt lat="45.95184" lon="4.73466">
        <ele>172.69</ele>
        <time>2012-09-06T09:04:06Z</time>
      </trkpt>
      <trkpt lat="45.95218" lon="4.73521">
        <ele>172.69</ele>
        <time>2012-09-06T09:04:19Z</time>
      </trkpt>
      <trkpt lat="45.95259" lon="4.73579">
        <ele>173.17</ele>
        <time>2012-09-06T09:04:33Z</time>
      </trkpt>
      <trkpt lat="45.95305" lon="4.73629">
        <ele>172.69</ele>
        <time>2012-09-06T09:04:46Z</time>
      </trkpt>
      <trkpt lat="45.95348" lon="4.73689">
        <ele>172.69</ele>
        <time>2012-09-06T09:05:00Z</time>
      </trkpt>
      <trkpt lat="45.95368" lon="4.73721">
        <ele>172.21</ele>
        <time>2012-09-06T09:05:07Z</time>
      </trkpt>
      <trkpt lat="45.95372" lon="4.73726">
        <ele>172.21</ele>
        <time>2012-09-06T09:05:08Z</time>
      </trkpt>
      <trkpt lat="45.9543" lon="4.73808">
        <ele>171.73</ele>
        <time>2012-09-06T09:05:25Z</time>
      </trkpt>
      <trkpt lat="45.95471" lon="4.73868">
        <ele>172.21</ele>
        <time>2012-09-06T09:05:39Z</time>
      </trkpt>
      <trkpt lat="45.95488" lon="4.73896">
        <ele>172.21</ele>
        <time>2012-09-06T09:05:46Z</time>
      </trkpt>
      <trkpt lat="45.95542" lon="4.73974">
        <ele>172.21</ele>
        <time>2012-09-06T09:06:03Z</time>
      </trkpt>
      <trkpt lat="45.95544" lon="4.73979">
        <ele>171.73</ele>
        <time>2012-09-06T09:06:04Z</time>
      </trkpt>
      <trkpt lat="45.95547" lon="4.73983">
        <ele>171.73</ele>
        <time>2012-09-06T09:06:05Z</time>
      </trkpt>
      <trkpt lat="45.9555" lon="4.73987">
        <ele>171.73</ele>
        <time>2012-09-06T09:06:06Z</time>
      </trkpt>
      <trkpt lat="45.95552" lon="4.73992">
        <ele>172.21</ele>
        <time>2012-09-06T09:06:07Z</time>
      </trkpt>
      <trkpt lat="45.95599" lon="4.74066">
        <ele>172.69</ele>
        <time>2012-09-06T09:06:24Z</time>
      </trkpt>
      <trkpt lat="45.9564" lon="4.74134">
        <ele>172.69</ele>
        <time>2012-09-06T09:06:39Z</time>
      </trkpt>
      <trkpt lat="45.95678" lon="4.74196">
        <ele>172.69</ele>
        <time>2012-09-06T09:06:53Z</time>
      </trkpt>
      <trkpt lat="45.95728" lon="4.74281">
        <ele>172.69</ele>
        <time>2012-09-06T09:07:11Z</time>
      </trkpt>
      <trkpt lat="45.95755" lon="4.74332">
        <ele>172.69</ele>
        <time>2012-09-06T09:07:21Z</time>
      </trkpt>
      <trkpt lat="45.95775" lon="4.74368">
        <ele>172.21</ele>
        <time>2012-09-06T09:07:28Z</time>
      </trkpt>
      <trkpt lat="45.95812" lon="4.74438">
        <ele>172.69</ele>
        <time>2012-09-06T09:07:42Z</time>
      </trkpt>
      <trkpt lat="45.95846" lon="4.74502">
        <ele>172.69</ele>
        <time>2012-09-06T09:07:56Z</time>
      </trkpt>
      <trkpt lat="45.95861" lon="4.74529">
        <ele>172.69</ele>
        <time>2012-09-06T09:08:02Z</time>
      </trkpt>
      <trkpt lat="45.95912" lon="4.7462">
        <ele>172.69</ele>
        <time>2012-09-06T09:08:21Z</time>
      </trkpt>
      <trkpt lat="45.95949" lon="4.74681">
        <ele>173.17</ele>
        <time>2012-09-06T09:08:36Z</time>
      </trkpt>
      <trkpt lat="45.95953" lon="4.7469">
        <ele>173.17</ele>
        <time>2012-09-06T09:08:39Z</time>
      </trkpt>
      <trkpt lat="45.95956" lon="4.74692">
        <ele>173.17</ele>
        <time>2012-09-06T09:08:40Z</time>
      </trkpt>
      <trkpt lat="45.95958" lon="4.74694">
        <ele>173.17</ele>
        <time>2012-09-06T09:08:41Z</time>
      </trkpt>
      <trkpt lat="45.9596" lon="4.74697">
        <ele>173.17</ele>
        <time>2012-09-06T09:08:42Z</time>
      </trkpt>
      <trkpt lat="45.95962" lon="4.747">
        <ele>173.66</ele>
        <time>2012-09-06T09:08:43Z</time>
      </trkpt>
      <trkpt lat="45.95964" lon="4.74703">
        <ele>173.17</ele>
        <time>2012-09-06T09:08:44Z</time>
      </trkpt>
      <trkpt lat="45.96002" lon="4.7476">
        <ele>173.17</ele>
        <time>2012-09-06T09:09:00Z</time>
      </trkpt>
      <trkpt lat="45.96014" lon="4.74778">
        <ele>173.17</ele>
        <time>2012-09-06T09:09:04Z</time>
      </trkpt>
      <trkpt lat="45.96017" lon="4.74782">
        <ele>173.17</ele>
        <time>2012-09-06T09:09:05Z</time>
      </trkpt>
      <trkpt lat="45.96028" lon="4.748">
        <ele>172.69</ele>
        <time>2012-09-06T09:09:09Z</time>
      </trkpt>
      <trkpt lat="45.96047" lon="4.74821">
        <ele>172.69</ele>
        <time>2012-09-06T09:09:14Z</time>
      </trkpt>
      <trkpt lat="45.96051" lon="4.74825">
        <ele>173.17</ele>
        <time>2012-09-06T09:09:15Z</time>
      </trkpt>
      <trkpt lat="45.96076" lon="4.74853">
        <ele>173.17</ele>
        <time>2012-09-06T09:09:22Z</time>
      </trkpt>
      <trkpt lat="45.96113" lon="4.74899">
        <ele>172.69</ele>
        <time>2012-09-06T09:09:34Z</time>
      </trkpt>
      <trkpt lat="45.96118" lon="4.74908">
        <ele>172.69</ele>
        <time>2012-09-06T09:09:36Z</time>
      </trkpt>
      <trkpt lat="45.96121" lon="4.74913">
        <ele>172.69</ele>
        <time>2012-09-06T09:09:37Z</time>
      </trkpt>
      <trkpt lat="45.9614" lon="4.74935">
        <ele>172.69</ele>
        <time>2012-09-06T09:09:42Z</time>
      </trkpt>
      <trkpt lat="45.96174" lon="4.74967">
        <ele>172.69</ele>
        <time>2012-09-06T09:09:50Z</time>
      </trkpt>
      <trkpt lat="45.96178" lon="4.74972">
        <ele>172.69</ele>
        <time>2012-09-06T09:09:51Z</time>
      </trkpt>
      <trkpt lat="45.96182" lon="4.74976">
        <ele>172.69</ele>
        <time>2012-09-06T09:09:52Z</time>
      </trkpt>
      <trkpt lat="45.96186" lon="4.74979">
        <ele>172.69</ele>
        <time>2012-09-06T09:09:53Z</time>
      </trkpt>
      <trkpt lat="45.96191" lon="4.74982">
        <ele>172.69</ele>
        <time>2012-09-06T09:09:54Z</time>
      </trkpt>
      <trkpt lat="45.96204" lon="4.74991">
        <ele>172.69</ele>
        <time>2012-09-06T09:09:57Z</time>
      </trkpt>
      <trkpt lat="45.96253" lon="4.75037">
        <ele>172.69</ele>
        <time>2012-09-06T09:10:09Z</time>
      </trkpt>
      <trkpt lat="45.96256" lon="4.7504">
        <ele>172.69</ele>
        <time>2012-09-06T09:10:10Z</time>
      </trkpt>
      <trkpt lat="45.9626" lon="4.75044">
        <ele>172.21</ele>
        <time>2012-09-06T09:10:11Z</time>
      </trkpt>
      <trkpt lat="45.96287" lon="4.75069">
        <ele>172.69</ele>
        <time>2012-09-06T09:10:19Z</time>
      </trkpt>
      <trkpt lat="45.96291" lon="4.75071">
        <ele>172.69</ele>
        <time>2012-09-06T09:10:20Z</time>
      </trkpt>
      <trkpt lat="45.96295" lon="4.75073">
        <ele>172.69</ele>
        <time>2012-09-06T09:10:21Z</time>
      </trkpt>
      <trkpt lat="45.96299" lon="4.75075">
        <ele>172.69</ele>
        <time>2012-09-06T09:10:22Z</time>
      </trkpt>
      <trkpt lat="45.96303" lon="4.75077">
        <ele>172.21</ele>
        <time>2012-09-06T09:10:23Z</time>
      </trkpt>
      <trkpt lat="45.96348" lon="4.75115">
        <ele>172.21</ele>
        <time>2012-09-06T09:10:36Z</time>
      </trkpt>
      <trkpt lat="45.96357" lon="4.75126">
        <ele>172.21</ele>
        <time>2012-09-06T09:10:39Z</time>
      </trkpt>
      <trkpt lat="45.9636" lon="4.7513">
        <ele>172.21</ele>
        <time>2012-09-06T09:10:40Z</time>
      </trkpt>
      <trkpt lat="45.96364" lon="4.75133">
        <ele>172.21</ele>
        <time>2012-09-06T09:10:41Z</time>
      </trkpt>
      <trkpt lat="45.96374" lon="4.75141">
        <ele>172.69</ele>
        <time>2012-09-06T09:10:44Z</time>
      </trkpt>
      <trkpt lat="45.96417" lon="4.75179">
        <ele>172.69</ele>
        <time>2012-09-06T09:10:57Z</time>
      </trkpt>
      <trkpt lat="45.96433" lon="4.75189">
        <ele>172.69</ele>
        <time>2012-09-06T09:11:01Z</time>
      </trkpt>
      <trkpt lat="45.96471" lon="4.75223">
        <ele>172.69</ele>
        <time>2012-09-06T09:11:12Z</time>
      </trkpt>
      <trkpt lat="45.96497" lon="4.75243">
        <ele>172.69</ele>
        <time>2012-09-06T09:11:19Z</time>
      </trkpt>
      <trkpt lat="45.96501" lon="4.75246">
        <ele>172.69</ele>
        <time>2012-09-06T09:11:20Z</time>
      </trkpt>
      <trkpt lat="45.96535" lon="4.75277">
        <ele>172.69</ele>
        <time>2012-09-06T09:11:30Z</time>
      </trkpt>
      <trkpt lat="45.96539" lon="4.7528">
        <ele>172.21</ele>
        <time>2012-09-06T09:11:31Z</time>
      </trkpt>
      <trkpt lat="45.96593" lon="4.75326">
        <ele>172.69</ele>
        <time>2012-09-06T09:11:46Z</time>
      </trkpt>
      <trkpt lat="45.96638" lon="4.75365">
        <ele>173.17</ele>
        <time>2012-09-06T09:11:59Z</time>
      </trkpt>
      <trkpt lat="45.96687" lon="4.75399">
        <ele>172.69</ele>
        <time>2012-09-06T09:12:13Z</time>
      </trkpt>
      <trkpt lat="45.96723" lon="4.75422">
        <ele>172.69</ele>
        <time>2012-09-06T09:12:26Z</time>
      </trkpt>
      <trkpt lat="45.9675" lon="4.75438">
        <ele>172.69</ele>
        <time>2012-09-06T09:12:37Z</time>
      </trkpt>
      <trkpt lat="45.96755" lon="4.75439">
        <ele>172.69</ele>
        <time>2012-09-06T09:12:50Z</time>
      </trkpt>
      <trkpt lat="45.96755" lon="4.7544">
        <ele>172.69</ele>
        <time>2012-09-06T09:13:17Z</time>
      </trkpt>
      <trkpt lat="45.96756" lon="4.7544">
        <ele>172.69</ele>
        <time>2012-09-06T09:13:30Z</time>
      </trkpt>
      <trkpt lat="45.96757" lon="4.75441">
        <ele>172.69</ele>
        <time>2012-09-06T09:13:31Z</time>
      </trkpt>
      <trkpt lat="45.96759" lon="4.75442">
        <ele>172.69</ele>
        <time>2012-09-06T09:13:32Z</time>
      </trkpt>
      <trkpt lat="45.96762" lon="4.75443">
        <ele>172.21</ele>
        <time>2012-09-06T09:13:33Z</time>
      </trkpt>
      <trkpt lat="45.96766" lon="4.75444">
        <ele>172.21</ele>
        <time>2012-09-06T09:13:34Z</time>
      </trkpt>
      <trkpt lat="45.96801" lon="4.75457">
        <ele>171.73</ele>
        <time>2012-09-06T09:13:42Z</time>
      </trkpt>
      <trkpt lat="45.96857" lon="4.75481">
        <ele>171.73</ele>
        <time>2012-09-06T09:13:56Z</time>
      </trkpt>
      <trkpt lat="45.96895" lon="4.75499">
        <ele>171.73</ele>
        <time>2012-09-06T09:14:07Z</time>
      </trkpt>
      <trkpt lat="45.96921" lon="4.75508">
        <ele>171.25</ele>
        <time>2012-09-06T09:14:17Z</time>
      </trkpt>
      <trkpt lat="45.96962" lon="4.75525">
        <ele>171.73</ele>
        <time>2012-09-06T09:14:28Z</time>
      </trkpt>
      <trkpt lat="45.96992" lon="4.75536">
        <ele>171.73</ele>
        <time>2012-09-06T09:14:37Z</time>
      </trkpt>
      <trkpt lat="45.97025" lon="4.7554">
        <ele>170.77</ele>
        <time>2012-09-06T09:14:47Z</time>
      </trkpt>
      <trkpt lat="45.97064" lon="4.75549">
        <ele>171.25</ele>
        <time>2012-09-06T09:14:57Z</time>
      </trkpt>
      <trkpt lat="45.97115" lon="4.75575">
        <ele>171.73</ele>
        <time>2012-09-06T09:15:09Z</time>
      </trkpt>
      <trkpt lat="45.97155" lon="4.75603">
        <ele>170.77</ele>
        <time>2012-09-06T09:15:21Z</time>
      </trkpt>
      <trkpt lat="45.97202" lon="4.75625">
        <ele>171.25</ele>
        <time>2012-09-06T09:15:34Z</time>
      </trkpt>
      <trkpt lat="45.97243" lon="4.75639">
        <ele>170.77</ele>
        <time>2012-09-06T09:15:48Z</time>
      </trkpt>
      <trkpt lat="45.97244" lon="4.75639">
        <ele>171.25</ele>
        <time>2012-09-06T09:15:49Z</time>
      </trkpt>
      <trkpt lat="45.97252" lon="4.7564">
        <ele>170.77</ele>
        <time>2012-09-06T09:15:53Z</time>
      </trkpt>
      <trkpt lat="45.97285" lon="4.75649">
        <ele>170.77</ele>
        <time>2012-09-06T09:16:03Z</time>
      </trkpt>
      <trkpt lat="45.9735" lon="4.75657">
        <ele>171.25</ele>
        <time>2012-09-06T09:16:18Z</time>
      </trkpt>
      <trkpt lat="45.97403" lon="4.75656">
        <ele>171.73</ele>
        <time>2012-09-06T09:16:32Z</time>
      </trkpt>
      <trkpt lat="45.97445" lon="4.75648">
        <ele>171.73</ele>
        <time>2012-09-06T09:16:46Z</time>
      </trkpt>
      <trkpt lat="45.97479" lon="4.75643">
        <ele>171.25</ele>
        <time>2012-09-06T09:16:59Z</time>
      </trkpt>
      <trkpt lat="45.97515" lon="4.75637">
        <ele>171.25</ele>
        <time>2012-09-06T09:17:09Z</time>
      </trkpt>
      <trkpt lat="45.97524" lon="4.75635">
        <ele>171.25</ele>
        <time>2012-09-06T09:17:11Z</time>
      </trkpt>
      <trkpt lat="45.97538" lon="4.75629">
        <ele>170.77</ele>
        <time>2012-09-06T09:17:14Z</time>
      </trkpt>
      <trkpt lat="45.97543" lon="4.75628">
        <ele>170.77</ele>
        <time>2012-09-06T09:17:15Z</time>
      </trkpt>
      <trkpt lat="45.97597" lon="4.75616">
        <ele>171.25</ele>
        <time>2012-09-06T09:17:28Z</time>
      </trkpt>
      <trkpt lat="45.97636" lon="4.75609">
        <ele>172.21</ele>
        <time>2012-09-06T09:17:40Z</time>
      </trkpt>
      <trkpt lat="45.97673" lon="4.75592">
        <ele>172.21</ele>
        <time>2012-09-06T09:17:53Z</time>
      </trkpt>
      <trkpt lat="45.97721" lon="4.7557">
        <ele>172.21</ele>
        <time>2012-09-06T09:18:08Z</time>
      </trkpt>
      <trkpt lat="45.97771" lon="4.75542">
        <ele>172.69</ele>
        <time>2012-09-06T09:18:23Z</time>
      </trkpt>
      <trkpt lat="45.97811" lon="4.75517">
        <ele>172.69</ele>
        <time>2012-09-06T09:18:36Z</time>
      </trkpt>
      <trkpt lat="45.97859" lon="4.75488">
        <ele>172.69</ele>
        <time>2012-09-06T09:18:51Z</time>
      </trkpt>
      <trkpt lat="45.97909" lon="4.75457">
        <ele>173.17</ele>
        <time>2012-09-06T09:19:06Z</time>
      </trkpt>
      <trkpt lat="45.97924" lon="4.75448">
        <ele>173.17</ele>
        <time>2012-09-06T09:19:10Z</time>
      </trkpt>
      <trkpt lat="45.9797" lon="4.75421">
        <ele>173.17</ele>
        <time>2012-09-06T09:19:23Z</time>
      </trkpt>
      <trkpt lat="45.98023" lon="4.7539">
        <ele>173.17</ele>
        <time>2012-09-06T09:19:38Z</time>
      </trkpt>
      <trkpt lat="45.98068" lon="4.75365">
        <ele>173.17</ele>
        <time>2012-09-06T09:19:52Z</time>
      </trkpt>
      <trkpt lat="45.9811" lon="4.75342">
        <ele>173.66</ele>
        <time>2012-09-06T09:20:05Z</time>
      </trkpt>
      <trkpt lat="45.98136" lon="4.75333">
        <ele>173.66</ele>
        <time>2012-09-06T09:20:15Z</time>
      </trkpt>
      <trkpt lat="45.98142" lon="4.75336">
        <ele>174.14</ele>
        <time>2012-09-06T09:20:18Z</time>
      </trkpt>
      <trkpt lat="45.98144" lon="4.75336">
        <ele>174.14</ele>
        <time>2012-09-06T09:20:19Z</time>
      </trkpt>
      <trkpt lat="45.98146" lon="4.75334">
        <ele>174.14</ele>
        <time>2012-09-06T09:20:20Z</time>
      </trkpt>
      <trkpt lat="45.98148" lon="4.75333">
        <ele>174.14</ele>
        <time>2012-09-06T09:20:21Z</time>
      </trkpt>
      <trkpt lat="45.98151" lon="4.75331">
        <ele>174.14</ele>
        <time>2012-09-06T09:20:22Z</time>
      </trkpt>
      <trkpt lat="45.98197" lon="4.7531">
        <ele>174.62</ele>
        <time>2012-09-06T09:20:38Z</time>
      </trkpt>
      <trkpt lat="45.98233" lon="4.75317">
        <ele>175.1</ele>
        <time>2012-09-06T09:20:51Z</time>
      </trkpt>
      <trkpt lat="45.9824" lon="4.75321">
        <ele>175.1</ele>
        <time>2012-09-06T09:20:54Z</time>
      </trkpt>
      <trkpt lat="45.98241" lon="4.75323">
        <ele>175.1</ele>
        <time>2012-09-06T09:20:55Z</time>
      </trkpt>
      <trkpt lat="45.98244" lon="4.75325">
        <ele>176.54</ele>
        <time>2012-09-06T09:20:56Z</time>
      </trkpt>
      <trkpt lat="45.98247" lon="4.75326">
        <ele>175.58</ele>
        <time>2012-09-06T09:20:57Z</time>
      </trkpt>
      <trkpt lat="45.9825" lon="4.75327">
        <ele>175.1</ele>
        <time>2012-09-06T09:20:58Z</time>
      </trkpt>
      <trkpt lat="45.98253" lon="4.75328">
        <ele>175.1</ele>
        <time>2012-09-06T09:20:59Z</time>
      </trkpt>
      <trkpt lat="45.9829" lon="4.75327">
        <ele>175.58</ele>
        <time>2012-09-06T09:21:11Z</time>
      </trkpt>
      <trkpt lat="45.9833" lon="4.75316">
        <ele>176.06</ele>
        <time>2012-09-06T09:21:24Z</time>
      </trkpt>
      <trkpt lat="45.98381" lon="4.75302">
        <ele>176.54</ele>
        <time>2012-09-06T09:21:39Z</time>
      </trkpt>
      <trkpt lat="45.98421" lon="4.75297">
        <ele>176.54</ele>
        <time>2012-09-06T09:21:53Z</time>
      </trkpt>
      <trkpt lat="45.98422" lon="4.75296">
        <ele>176.54</ele>
        <time>2012-09-06T09:21:54Z</time>
      </trkpt>
      <trkpt lat="45.98424" lon="4.75297">
        <ele>176.54</ele>
        <time>2012-09-06T09:21:55Z</time>
      </trkpt>
      <trkpt lat="45.98426" lon="4.75299">
        <ele>176.54</ele>
        <time>2012-09-06T09:21:56Z</time>
      </trkpt>
      <trkpt lat="45.98428" lon="4.75299">
        <ele>176.54</ele>
        <time>2012-09-06T09:21:57Z</time>
      </trkpt>
      <trkpt lat="45.9843" lon="4.75299">
        <ele>176.54</ele>
        <time>2012-09-06T09:21:58Z</time>
      </trkpt>
      <trkpt lat="45.98433" lon="4.75299">
        <ele>176.54</ele>
        <time>2012-09-06T09:21:59Z</time>
      </trkpt>
      <trkpt lat="45.98435" lon="4.75298">
        <ele>176.54</ele>
        <time>2012-09-06T09:22:00Z</time>
      </trkpt>
      <trkpt lat="45.98437" lon="4.75297">
        <ele>176.54</ele>
        <time>2012-09-06T09:22:01Z</time>
      </trkpt>
      <trkpt lat="45.98464" lon="4.75301">
        <ele>176.06</ele>
        <time>2012-09-06T09:22:13Z</time>
      </trkpt>
      <trkpt lat="45.98467" lon="4.75302">
        <ele>176.54</ele>
        <time>2012-09-06T09:22:16Z</time>
      </trkpt>
      <trkpt lat="45.98468" lon="4.75303">
        <ele>176.54</ele>
        <time>2012-09-06T09:22:18Z</time>
      </trkpt>
      <trkpt lat="45.9847" lon="4.75303">
        <ele>176.54</ele>
        <time>2012-09-06T09:22:19Z</time>
      </trkpt>
      <trkpt lat="45.98503" lon="4.75307">
        <ele>176.54</ele>
        <time>2012-09-06T09:22:31Z</time>
      </trkpt>
      <trkpt lat="45.98508" lon="4.75307">
        <ele>176.54</ele>
        <time>2012-09-06T09:22:41Z</time>
      </trkpt>
      <trkpt lat="45.9851" lon="4.75306">
        <ele>176.54</ele>
        <time>2012-09-06T09:23:00Z</time>
      </trkpt>
      <trkpt lat="45.98511" lon="4.75307">
        <ele>176.54</ele>
        <time>2012-09-06T09:23:06Z</time>
      </trkpt>
      <trkpt lat="45.98512" lon="4.75309">
        <ele>176.54</ele>
        <time>2012-09-06T09:23:07Z</time>
      </trkpt>
      <trkpt lat="45.98513" lon="4.75311">
        <ele>176.54</ele>
        <time>2012-09-06T09:23:08Z</time>
      </trkpt>
      <trkpt lat="45.98513" lon="4.75314">
        <ele>177.02</ele>
        <time>2012-09-06T09:23:09Z</time>
      </trkpt>
      <trkpt lat="45.98514" lon="4.75317">
        <ele>177.02</ele>
        <time>2012-09-06T09:23:10Z</time>
      </trkpt>
      <trkpt lat="45.98537" lon="4.75342">
        <ele>176.54</ele>
        <time>2012-09-06T09:23:19Z</time>
      </trkpt>
      <trkpt lat="45.9855" lon="4.75406">
        <ele>177.02</ele>
        <time>2012-09-06T09:23:31Z</time>
      </trkpt>
      <trkpt lat="45.98576" lon="4.75435">
        <ele>176.54</ele>
        <time>2012-09-06T09:23:41Z</time>
      </trkpt>
      <trkpt lat="45.98618" lon="4.75426">
        <ele>177.02</ele>
        <time>2012-09-06T09:23:55Z</time>
      </trkpt>
      <trkpt lat="45.9867" lon="4.75413">
        <ele>177.02</ele>
        <time>2012-09-06T09:24:09Z</time>
      </trkpt>
      <trkpt lat="45.98688" lon="4.75408">
        <ele>177.02</ele>
        <time>2012-09-06T09:24:14Z</time>
      </trkpt>
      <trkpt lat="45.9869" lon="4.75405">
        <ele>177.02</ele>
        <time>2012-09-06T09:24:15Z</time>
      </trkpt>
      <trkpt lat="45.98692" lon="4.75403">
        <ele>177.02</ele>
        <time>2012-09-06T09:24:16Z</time>
      </trkpt>
      <trkpt lat="45.98702" lon="4.75364">
        <ele>176.06</ele>
        <time>2012-09-06T09:24:24Z</time>
      </trkpt>
      <trkpt lat="45.98702" lon="4.75358">
        <ele>176.06</ele>
        <time>2012-09-06T09:24:25Z</time>
      </trkpt>
      <trkpt lat="45.98702" lon="4.75352">
        <ele>176.06</ele>
        <time>2012-09-06T09:24:26Z</time>
      </trkpt>
      <trkpt lat="45.98705" lon="4.75287">
        <ele>175.1</ele>
        <time>2012-09-06T09:24:36Z</time>
      </trkpt>
      <trkpt lat="45.98705" lon="4.7528">
        <ele>175.1</ele>
        <time>2012-09-06T09:24:37Z</time>
      </trkpt>
      <trkpt lat="45.98705" lon="4.75274">
        <ele>174.62</ele>
        <time>2012-09-06T09:24:38Z</time>
      </trkpt>
      <trkpt lat="45.98705" lon="4.75268">
        <ele>174.62</ele>
        <time>2012-09-06T09:24:39Z</time>
      </trkpt>
      <trkpt lat="45.98706" lon="4.75262">
        <ele>174.62</ele>
        <time>2012-09-06T09:24:40Z</time>
      </trkpt>
      <trkpt lat="45.98706" lon="4.75255">
        <ele>174.62</ele>
        <time>2012-09-06T09:24:41Z</time>
      </trkpt>
      <trkpt lat="45.98706" lon="4.75249">
        <ele>174.14</ele>
        <time>2012-09-06T09:24:42Z</time>
      </trkpt>
      <trkpt lat="45.98706" lon="4.75242">
        <ele>174.14</ele>
        <time>2012-09-06T09:24:43Z</time>
      </trkpt>
      <trkpt lat="45.98706" lon="4.75235">
        <ele>174.14</ele>
        <time>2012-09-06T09:24:44Z</time>
      </trkpt>
      <trkpt lat="45.98706" lon="4.75228">
        <ele>174.14</ele>
        <time>2012-09-06T09:24:45Z</time>
      </trkpt>
      <trkpt lat="45.98706" lon="4.75224">
        <ele>173.66</ele>
        <time>2012-09-06T09:24:46Z</time>
      </trkpt>
      <trkpt lat="45.98707" lon="4.75219">
        <ele>173.66</ele>
        <time>2012-09-06T09:24:47Z</time>
      </trkpt>
      <trkpt lat="45.98709" lon="4.75216">
        <ele>173.66</ele>
        <time>2012-09-06T09:24:48Z</time>
      </trkpt>
      <trkpt lat="45.98712" lon="4.75214">
        <ele>173.66</ele>
        <time>2012-09-06T09:24:49Z</time>
      </trkpt>
      <trkpt lat="45.98715" lon="4.75213">
        <ele>173.66</ele>
        <time>2012-09-06T09:24:50Z</time>
      </trkpt>
      <trkpt lat="45.9872" lon="4.75213">
        <ele>173.66</ele>
        <time>2012-09-06T09:24:52Z</time>
      </trkpt>
      <trkpt lat="45.98763" lon="4.75212">
        <ele>173.66</ele>
        <time>2012-09-06T09:25:05Z</time>
      </trkpt>
      <trkpt lat="45.98807" lon="4.75208">
        <ele>173.66</ele>
        <time>2012-09-06T09:25:17Z</time>
      </trkpt>
      <trkpt lat="45.98846" lon="4.75212">
        <ele>173.17</ele>
        <time>2012-09-06T09:25:28Z</time>
      </trkpt>
      <trkpt lat="45.98895" lon="4.75205">
        <ele>173.17</ele>
        <time>2012-09-06T09:25:41Z</time>
      </trkpt>
      <trkpt lat="45.98949" lon="4.75193">
        <ele>173.17</ele>
        <time>2012-09-06T09:25:54Z</time>
      </trkpt>
      <trkpt lat="45.99023" lon="4.7519">
        <ele>173.66</ele>
        <time>2012-09-06T09:26:12Z</time>
      </trkpt>
      <trkpt lat="45.99072" lon="4.75193">
        <ele>173.66</ele>
        <time>2012-09-06T09:26:24Z</time>
      </trkpt>
      <trkpt lat="45.99121" lon="4.75192">
        <ele>173.17</ele>
        <time>2012-09-06T09:26:36Z</time>
      </trkpt>
      <trkpt lat="45.99171" lon="4.75196">
        <ele>173.17</ele>
        <time>2012-09-06T09:26:47Z</time>
      </trkpt>
      <trkpt lat="45.99181" lon="4.75199">
        <ele>172.69</ele>
        <time>2012-09-06T09:26:50Z</time>
      </trkpt>
      <trkpt lat="45.99237" lon="4.75212">
        <ele>172.69</ele>
        <time>2012-09-06T09:27:03Z</time>
      </trkpt>
      <trkpt lat="45.99266" lon="4.75215">
        <ele>172.69</ele>
        <time>2012-09-06T09:27:10Z</time>
      </trkpt>
      <trkpt lat="45.99312" lon="4.75217">
        <ele>172.69</ele>
        <time>2012-09-06T09:27:21Z</time>
      </trkpt>
      <trkpt lat="45.99349" lon="4.75225">
        <ele>173.66</ele>
        <time>2012-09-06T09:27:33Z</time>
      </trkpt>
      <trkpt lat="45.99382" lon="4.75223">
        <ele>173.66</ele>
        <time>2012-09-06T09:27:45Z</time>
      </trkpt>
      <trkpt lat="45.99384" lon="4.75223">
        <ele>173.66</ele>
        <time>2012-09-06T09:27:46Z</time>
      </trkpt>
      <trkpt lat="45.99405" lon="4.75221">
        <ele>173.66</ele>
        <time>2012-09-06T09:27:55Z</time>
      </trkpt>
      <trkpt lat="45.99435" lon="4.75213">
        <ele>173.17</ele>
        <time>2012-09-06T09:28:07Z</time>
      </trkpt>
      <trkpt lat="45.99471" lon="4.75211">
        <ele>173.66</ele>
        <time>2012-09-06T09:28:18Z</time>
      </trkpt>
      <trkpt lat="45.99504" lon="4.75199">
        <ele>173.66</ele>
        <time>2012-09-06T09:28:29Z</time>
      </trkpt>
      <trkpt lat="45.99557" lon="4.75181">
        <ele>174.14</ele>
        <time>2012-09-06T09:28:41Z</time>
      </trkpt>
      <trkpt lat="45.99587" lon="4.75142">
        <ele>173.66</ele>
        <time>2012-09-06T09:28:53Z</time>
      </trkpt>
      <trkpt lat="45.99617" lon="4.75141">
        <ele>173.66</ele>
        <time>2012-09-06T09:29:01Z</time>
      </trkpt>
      <trkpt lat="45.99621" lon="4.75143">
        <ele>173.66</ele>
        <time>2012-09-06T09:29:02Z</time>
      </trkpt>
      <trkpt lat="45.99625" lon="4.75147">
        <ele>173.66</ele>
        <time>2012-09-06T09:29:03Z</time>
      </trkpt>
      <trkpt lat="45.99652" lon="4.75161">
        <ele>174.62</ele>
        <time>2012-09-06T09:29:12Z</time>
      </trkpt>
      <trkpt lat="45.99669" lon="4.7516">
        <ele>174.14</ele>
        <time>2012-09-06T09:29:16Z</time>
      </trkpt>
      <trkpt lat="45.99673" lon="4.75158">
        <ele>174.14</ele>
        <time>2012-09-06T09:29:17Z</time>
      </trkpt>
      <trkpt lat="45.99708" lon="4.75149">
        <ele>174.14</ele>
        <time>2012-09-06T09:29:27Z</time>
      </trkpt>
      <trkpt lat="45.99764" lon="4.75132">
        <ele>174.14</ele>
        <time>2012-09-06T09:29:40Z</time>
      </trkpt>
      <trkpt lat="45.99805" lon="4.75123">
        <ele>174.14</ele>
        <time>2012-09-06T09:29:50Z</time>
      </trkpt>
      <trkpt lat="45.99827" lon="4.75115">
        <ele>174.14</ele>
        <time>2012-09-06T09:29:55Z</time>
      </trkpt>
      <trkpt lat="45.99859" lon="4.75109">
        <ele>174.14</ele>
        <time>2012-09-06T09:30:03Z</time>
      </trkpt>
      <trkpt lat="45.99858" lon="4.75108">
        <ele>174.14</ele>
        <time>2012-09-06T09:30:06Z</time>
      </trkpt>
      <trkpt lat="45.99857" lon="4.75109">
        <ele>174.14</ele>
        <time>2012-09-06T09:30:07Z</time>
      </trkpt>
      <trkpt lat="45.99855" lon="4.7511">
        <ele>174.14</ele>
        <time>2012-09-06T09:30:08Z</time>
      </trkpt>
      <trkpt lat="45.99852" lon="4.75111">
        <ele>174.14</ele>
        <time>2012-09-06T09:30:09Z</time>
      </trkpt>
      <trkpt lat="45.99849" lon="4.75111">
        <ele>174.14</ele>
        <time>2012-09-06T09:30:10Z</time>
      </trkpt>
      <trkpt lat="45.99846" lon="4.75112">
        <ele>174.14</ele>
        <time>2012-09-06T09:30:11Z</time>
      </trkpt>
      <trkpt lat="45.99843" lon="4.75113">
        <ele>174.14</ele>
        <time>2012-09-06T09:30:12Z</time>
      </trkpt>
      <trkpt lat="45.99841" lon="4.75114">
        <ele>174.14</ele>
        <time>2012-09-06T09:30:13Z</time>
      </trkpt>
      <trkpt lat="45.99836" lon="4.75111">
        <ele>174.14</ele>
        <time>2012-09-06T09:30:15Z</time>
      </trkpt>
      <trkpt lat="45.99835" lon="4.75108">
        <ele>174.14</ele>
        <time>2012-09-06T09:30:16Z</time>
      </trkpt>
      <trkpt lat="45.99836" lon="4.75104">
        <ele>174.14</ele>
        <time>2012-09-06T09:30:17Z</time>
      </trkpt>
      <trkpt lat="45.99837" lon="4.751">
        <ele>173.66</ele>
        <time>2012-09-06T09:30:18Z</time>
      </trkpt>
      <trkpt lat="45.99839" lon="4.75097">
        <ele>173.66</ele>
        <time>2012-09-06T09:30:19Z</time>
      </trkpt>
      <trkpt lat="45.99841" lon="4.75095">
        <ele>173.66</ele>
        <time>2012-09-06T09:30:20Z</time>
      </trkpt>
      <trkpt lat="45.99843" lon="4.75093">
        <ele>173.66</ele>
        <time>2012-09-06T09:30:21Z</time>
      </trkpt>
      <trkpt lat="45.9986" lon="4.75085">
        <ele>173.66</ele>
        <time>2012-09-06T09:30:28Z</time>
      </trkpt>
      <trkpt lat="45.99863" lon="4.75084">
        <ele>173.66</ele>
        <time>2012-09-06T09:30:29Z</time>
      </trkpt>
      <trkpt lat="45.99867" lon="4.75084">
        <ele>173.66</ele>
        <time>2012-09-06T09:30:30Z</time>
      </trkpt>
      <trkpt lat="45.9987" lon="4.75084">
        <ele>173.66</ele>
        <time>2012-09-06T09:30:31Z</time>
      </trkpt>
      <trkpt lat="45.99873" lon="4.75083">
        <ele>173.66</ele>
        <time>2012-09-06T09:30:32Z</time>
      </trkpt>
      <trkpt lat="45.99915" lon="4.75066">
        <ele>173.66</ele>
        <time>2012-09-06T09:30:45Z</time>
      </trkpt>
      <trkpt lat="45.99963" lon="4.75044">
        <ele>174.14</ele>
        <time>2012-09-06T09:30:58Z</time>
      </trkpt>
      <trkpt lat="46.00003" lon="4.75031">
        <ele>174.14</ele>
        <time>2012-09-06T09:31:08Z</time>
      </trkpt>
      <trkpt lat="46.00039" lon="4.75017">
        <ele>173.66</ele>
        <time>2012-09-06T09:31:18Z</time>
      </trkpt>
      <trkpt lat="46.00068" lon="4.75018">
        <ele>174.14</ele>
        <time>2012-09-06T09:31:28Z</time>
      </trkpt>
      <trkpt lat="46.00077" lon="4.75017">
        <ele>174.62</ele>
        <time>2012-09-06T09:31:38Z</time>
      </trkpt>
      <trkpt lat="46.00077" lon="4.75017">
        <ele>174.62</ele>
        <time>2012-09-06T09:32:08Z</time>
      </trkpt>
      <trkpt lat="46.00077" lon="4.75017">
        <ele>174.62</ele>
        <time>2012-09-06T09:32:10Z</time>
      </trkpt>
      <trkpt lat="46.00086" lon="4.75016">
        <ele>175.1</ele>
        <time>2012-09-06T09:32:15Z</time>
      </trkpt>
      <trkpt lat="46.00126" lon="4.75011">
        <ele>175.1</ele>
        <time>2012-09-06T09:32:27Z</time>
      </trkpt>
      <trkpt lat="46.00174" lon="4.74999">
        <ele>174.62</ele>
        <time>2012-09-06T09:32:39Z</time>
      </trkpt>
      <trkpt lat="46.00205" lon="4.74976">
        <ele>174.62</ele>
        <time>2012-09-06T09:32:49Z</time>
      </trkpt>
      <trkpt lat="46.00207" lon="4.74978">
        <ele>174.14</ele>
        <time>2012-09-06T09:32:50Z</time>
      </trkpt>
      <trkpt lat="46.0021" lon="4.74981">
        <ele>174.14</ele>
        <time>2012-09-06T09:32:51Z</time>
      </trkpt>
      <trkpt lat="46.00239" lon="4.74996">
        <ele>174.62</ele>
        <time>2012-09-06T09:32:59Z</time>
      </trkpt>
      <trkpt lat="46.00243" lon="4.74997">
        <ele>174.62</ele>
        <time>2012-09-06T09:33:00Z</time>
      </trkpt>
      <trkpt lat="46.00275" lon="4.75016">
        <ele>174.62</ele>
        <time>2012-09-06T09:33:08Z</time>
      </trkpt>
      <trkpt lat="46.00308" lon="4.75046">
        <ele>175.1</ele>
        <time>2012-09-06T09:33:19Z</time>
      </trkpt>
      <trkpt lat="46.00318" lon="4.75044">
        <ele>175.1</ele>
        <time>2012-09-06T09:33:22Z</time>
      </trkpt>
      <trkpt lat="46.00323" lon="4.75043">
        <ele>175.1</ele>
        <time>2012-09-06T09:33:23Z</time>
      </trkpt>
      <trkpt lat="46.00328" lon="4.75043">
        <ele>174.62</ele>
        <time>2012-09-06T09:33:24Z</time>
      </trkpt>
      <trkpt lat="46.00332" lon="4.75046">
        <ele>174.62</ele>
        <time>2012-09-06T09:33:25Z</time>
      </trkpt>
      <trkpt lat="46.00337" lon="4.75048">
        <ele>174.14</ele>
        <time>2012-09-06T09:33:26Z</time>
      </trkpt>
      <trkpt lat="46.00365" lon="4.75066">
        <ele>174.14</ele>
        <time>2012-09-06T09:33:35Z</time>
      </trkpt>
      <trkpt lat="46.00367" lon="4.75066">
        <ele>174.14</ele>
        <time>2012-09-06T09:33:36Z</time>
      </trkpt>
      <trkpt lat="46.00369" lon="4.75065">
        <ele>174.14</ele>
        <time>2012-09-06T09:33:47Z</time>
      </trkpt>
      <trkpt lat="46.00369" lon="4.75064">
        <ele>174.14</ele>
        <time>2012-09-06T09:34:18Z</time>
      </trkpt>
      <trkpt lat="46.00369" lon="4.75064">
        <ele>174.14</ele>
        <time>2012-09-06T09:34:43Z</time>
      </trkpt>
      <trkpt lat="46.0037" lon="4.75065">
        <ele>174.14</ele>
        <time>2012-09-06T09:34:48Z</time>
      </trkpt>
      <trkpt lat="46.00371" lon="4.75065">
        <ele>174.14</ele>
        <time>2012-09-06T09:34:49Z</time>
      </trkpt>
      <trkpt lat="46.00372" lon="4.75064">
        <ele>174.14</ele>
        <time>2012-09-06T09:34:50Z</time>
      </trkpt>
      <trkpt lat="46.00405" lon="4.75067">
        <ele>173.66</ele>
        <time>2012-09-06T09:35:01Z</time>
      </trkpt>
      <trkpt lat="46.00445" lon="4.75074">
        <ele>173.17</ele>
        <time>2012-09-06T09:35:12Z</time>
      </trkpt>
      <trkpt lat="46.00466" lon="4.75074">
        <ele>173.17</ele>
        <time>2012-09-06T09:35:17Z</time>
      </trkpt>
      <trkpt lat="46.00484" lon="4.7507">
        <ele>172.69</ele>
        <time>2012-09-06T09:35:21Z</time>
      </trkpt>
      <trkpt lat="46.00488" lon="4.7507">
        <ele>172.69</ele>
        <time>2012-09-06T09:35:22Z</time>
      </trkpt>
      <trkpt lat="46.00491" lon="4.7507">
        <ele>172.21</ele>
        <time>2012-09-06T09:35:23Z</time>
      </trkpt>
      <trkpt lat="46.00495" lon="4.75069">
        <ele>172.21</ele>
        <time>2012-09-06T09:35:24Z</time>
      </trkpt>
      <trkpt lat="46.00498" lon="4.75068">
        <ele>172.21</ele>
        <time>2012-09-06T09:35:25Z</time>
      </trkpt>
      <trkpt lat="46.00502" lon="4.75067">
        <ele>172.21</ele>
        <time>2012-09-06T09:35:26Z</time>
      </trkpt>
      <trkpt lat="46.00505" lon="4.75067">
        <ele>171.73</ele>
        <time>2012-09-06T09:35:27Z</time>
      </trkpt>
      <trkpt lat="46.00509" lon="4.75067">
        <ele>171.73</ele>
        <time>2012-09-06T09:35:28Z</time>
      </trkpt>
      <trkpt lat="46.00512" lon="4.75067">
        <ele>171.73</ele>
        <time>2012-09-06T09:35:29Z</time>
      </trkpt>
      <trkpt lat="46.00552" lon="4.7507">
        <ele>172.69</ele>
        <time>2012-09-06T09:35:41Z</time>
      </trkpt>
      <trkpt lat="46.00579" lon="4.75071">
        <ele>172.69</ele>
        <time>2012-09-06T09:35:52Z</time>
      </trkpt>
      <trkpt lat="46.00605" lon="4.7507">
        <ele>172.69</ele>
        <time>2012-09-06T09:36:03Z</time>
      </trkpt>
      <trkpt lat="46.00639" lon="4.75067">
        <ele>173.17</ele>
        <time>2012-09-06T09:36:13Z</time>
      </trkpt>
      <trkpt lat="46.00663" lon="4.75066">
        <ele>173.17</ele>
        <time>2012-09-06T09:36:22Z</time>
      </trkpt>
      <trkpt lat="46.00699" lon="4.75065">
        <ele>173.17</ele>
        <time>2012-09-06T09:36:32Z</time>
      </trkpt>
      <trkpt lat="46.00714" lon="4.75065">
        <ele>173.17</ele>
        <time>2012-09-06T09:36:41Z</time>
      </trkpt>
      <trkpt lat="46.00726" lon="4.75063">
        <ele>172.69</ele>
        <time>2012-09-06T09:36:53Z</time>
      </trkpt>
      <trkpt lat="46.00746" lon="4.75065">
        <ele>173.66</ele>
        <time>2012-09-06T09:37:01Z</time>
      </trkpt>
      <trkpt lat="46.00782" lon="4.75075">
        <ele>173.17</ele>
        <time>2012-09-06T09:37:13Z</time>
      </trkpt>
      <trkpt lat="46.00826" lon="4.75081">
        <ele>172.69</ele>
        <time>2012-09-06T09:37:26Z</time>
      </trkpt>
      <trkpt lat="46.00872" lon="4.75082">
        <ele>172.69</ele>
        <time>2012-09-06T09:37:40Z</time>
      </trkpt>
      <trkpt lat="46.00914" lon="4.75077">
        <ele>172.69</ele>
        <time>2012-09-06T09:37:53Z</time>
      </trkpt>
      <trkpt lat="46.00944" lon="4.75073">
        <ele>173.17</ele>
        <time>2012-09-06T09:38:03Z</time>
      </trkpt>
      <trkpt lat="46.0098" lon="4.75062">
        <ele>173.17</ele>
        <time>2012-09-06T09:38:16Z</time>
      </trkpt>
      <trkpt lat="46.01015" lon="4.75054">
        <ele>173.17</ele>
        <time>2012-09-06T09:38:29Z</time>
      </trkpt>
      <trkpt lat="46.01064" lon="4.75039">
        <ele>173.17</ele>
        <time>2012-09-06T09:38:44Z</time>
      </trkpt>
      <trkpt lat="46.01099" lon="4.75025">
        <ele>173.17</ele>
        <time>2012-09-06T09:38:55Z</time>
      </trkpt>
      <trkpt lat="46.01141" lon="4.75006">
        <ele>173.66</ele>
        <time>2012-09-06T09:39:07Z</time>
      </trkpt>
      <trkpt lat="46.0116" lon="4.75">
        <ele>173.66</ele>
        <time>2012-09-06T09:39:16Z</time>
      </trkpt>
      <trkpt lat="46.01164" lon="4.75">
        <ele>173.66</ele>
        <time>2012-09-06T09:39:22Z</time>
      </trkpt>
      <trkpt lat="46.01176" lon="4.74992">
        <ele>173.66</ele>
        <time>2012-09-06T09:39:29Z</time>
      </trkpt>
      <trkpt lat="46.01218" lon="4.7497">
        <ele>173.17</ele>
        <time>2012-09-06T09:39:44Z</time>
      </trkpt>
      <trkpt lat="46.01257" lon="4.74945">
        <ele>173.17</ele>
        <time>2012-09-06T09:39:57Z</time>
      </trkpt>
      <trkpt lat="46.01311" lon="4.74909">
        <ele>173.17</ele>
        <time>2012-09-06T09:40:13Z</time>
      </trkpt>
      <trkpt lat="46.0135" lon="4.74886">
        <ele>173.66</ele>
        <time>2012-09-06T09:40:25Z</time>
      </trkpt>
      <trkpt lat="46.01359" lon="4.74875">
        <ele>173.66</ele>
        <time>2012-09-06T09:40:28Z</time>
      </trkpt>
      <trkpt lat="46.01396" lon="4.74828">
        <ele>173.17</ele>
        <time>2012-09-06T09:40:38Z</time>
      </trkpt>
      <trkpt lat="46.01459" lon="4.74769">
        <ele>172.69</ele>
        <time>2012-09-06T09:40:54Z</time>
      </trkpt>
      <trkpt lat="46.01523" lon="4.74722">
        <ele>173.17</ele>
        <time>2012-09-06T09:41:11Z</time>
      </trkpt>
      <trkpt lat="46.01564" lon="4.74694">
        <ele>173.17</ele>
        <time>2012-09-06T09:41:24Z</time>
      </trkpt>
      <trkpt lat="46.01607" lon="4.74669">
        <ele>173.17</ele>
        <time>2012-09-06T09:41:37Z</time>
      </trkpt>
      <trkpt lat="46.01654" lon="4.74644">
        <ele>173.66</ele>
        <time>2012-09-06T09:41:51Z</time>
      </trkpt>
      <trkpt lat="46.01709" lon="4.74615">
        <ele>173.66</ele>
        <time>2012-09-06T09:42:07Z</time>
      </trkpt>
      <trkpt lat="46.01758" lon="4.74601">
        <ele>174.14</ele>
        <time>2012-09-06T09:42:21Z</time>
      </trkpt>
      <trkpt lat="46.01807" lon="4.74584">
        <ele>174.14</ele>
        <time>2012-09-06T09:42:35Z</time>
      </trkpt>
      <trkpt lat="46.01846" lon="4.74576">
        <ele>173.66</ele>
        <time>2012-09-06T09:42:44Z</time>
      </trkpt>
      <trkpt lat="46.01851" lon="4.74576">
        <ele>173.66</ele>
        <time>2012-09-06T09:42:45Z</time>
      </trkpt>
      <trkpt lat="46.01906" lon="4.74573">
        <ele>173.17</ele>
        <time>2012-09-06T09:42:59Z</time>
      </trkpt>
      <trkpt lat="46.01956" lon="4.74571">
        <ele>173.66</ele>
        <time>2012-09-06T09:43:11Z</time>
      </trkpt>
      <trkpt lat="46.0196" lon="4.74571">
        <ele>173.66</ele>
        <time>2012-09-06T09:43:12Z</time>
      </trkpt>
      <trkpt lat="46.02027" lon="4.74579">
        <ele>173.17</ele>
        <time>2012-09-06T09:43:28Z</time>
      </trkpt>
      <trkpt lat="46.0207" lon="4.74592">
        <ele>173.66</ele>
        <time>2012-09-06T09:43:40Z</time>
      </trkpt>
      <trkpt lat="46.02116" lon="4.74608">
        <ele>173.66</ele>
        <time>2012-09-06T09:43:52Z</time>
      </trkpt>
      <trkpt lat="46.02158" lon="4.74625">
        <ele>174.14</ele>
        <time>2012-09-06T09:44:04Z</time>
      </trkpt>
      <trkpt lat="46.02207" lon="4.74646">
        <ele>174.14</ele>
        <time>2012-09-06T09:44:18Z</time>
      </trkpt>
      <trkpt lat="46.02244" lon="4.74664">
        <ele>174.14</ele>
        <time>2012-09-06T09:44:29Z</time>
      </trkpt>
      <trkpt lat="46.02289" lon="4.74689">
        <ele>174.14</ele>
        <time>2012-09-06T09:44:41Z</time>
      </trkpt>
      <trkpt lat="46.02296" lon="4.74691">
        <ele>174.14</ele>
        <time>2012-09-06T09:44:44Z</time>
      </trkpt>
      <trkpt lat="46.02287" lon="4.74684">
        <ele>174.14</ele>
        <time>2012-09-06T09:44:53Z</time>
      </trkpt>
      <trkpt lat="46.02287" lon="4.74684">
        <ele>173.66</ele>
        <time>2012-09-06T09:45:16Z</time>
      </trkpt>
      <trkpt lat="46.02287" lon="4.74684">
        <ele>173.66</ele>
        <time>2012-09-06T09:45:42Z</time>
      </trkpt>
      <trkpt lat="46.02287" lon="4.74685">
        <ele>173.66</ele>
        <time>2012-09-06T09:46:16Z</time>
      </trkpt>
      <trkpt lat="46.02287" lon="4.74684">
        <ele>174.14</ele>
        <time>2012-09-06T09:46:52Z</time>
      </trkpt>
      <trkpt lat="46.02286" lon="4.74686">
        <ele>174.14</ele>
        <time>2012-09-06T09:47:21Z</time>
      </trkpt>
      <trkpt lat="46.02289" lon="4.74686">
        <ele>174.14</ele>
        <time>2012-09-06T09:47:26Z</time>
      </trkpt>
      <trkpt lat="46.0229" lon="4.74691">
        <ele>174.14</ele>
        <time>2012-09-06T09:47:44Z</time>
      </trkpt>
      <trkpt lat="46.0229" lon="4.74692">
        <ele>174.14</ele>
        <time>2012-09-06T09:47:49Z</time>
      </trkpt>
      <trkpt lat="46.02295" lon="4.74692">
        <ele>174.14</ele>
        <time>2012-09-06T09:47:53Z</time>
      </trkpt>
      <trkpt lat="46.02322" lon="4.74703">
        <ele>174.14</ele>
        <time>2012-09-06T09:48:06Z</time>
      </trkpt>
      <trkpt lat="46.02364" lon="4.74724">
        <ele>174.14</ele>
        <time>2012-09-06T09:48:20Z</time>
      </trkpt>
      <trkpt lat="46.02406" lon="4.74742">
        <ele>174.14</ele>
        <time>2012-09-06T09:48:33Z</time>
      </trkpt>
      <trkpt lat="46.02451" lon="4.74755">
        <ele>173.66</ele>
        <time>2012-09-06T09:48:46Z</time>
      </trkpt>
      <trkpt lat="46.02502" lon="4.74782">
        <ele>173.66</ele>
        <time>2012-09-06T09:49:02Z</time>
      </trkpt>
      <trkpt lat="46.02541" lon="4.74796">
        <ele>174.14</ele>
        <time>2012-09-06T09:49:12Z</time>
      </trkpt>
      <trkpt lat="46.02605" lon="4.74815">
        <ele>174.14</ele>
        <time>2012-09-06T09:49:27Z</time>
      </trkpt>
      <trkpt lat="46.02626" lon="4.74823">
        <ele>173.66</ele>
        <time>2012-09-06T09:49:32Z</time>
      </trkpt>
      <trkpt lat="46.02691" lon="4.74849">
        <ele>173.66</ele>
        <time>2012-09-06T09:49:47Z</time>
      </trkpt>
      <trkpt lat="46.02695" lon="4.74852">
        <ele>173.66</ele>
        <time>2012-09-06T09:49:48Z</time>
      </trkpt>
      <trkpt lat="46.02712" lon="4.74862">
        <ele>173.66</ele>
        <time>2012-09-06T09:49:52Z</time>
      </trkpt>
      <trkpt lat="46.02716" lon="4.74864">
        <ele>173.66</ele>
        <time>2012-09-06T09:49:53Z</time>
      </trkpt>
      <trkpt lat="46.02719" lon="4.74866">
        <ele>173.66</ele>
        <time>2012-09-06T09:49:54Z</time>
      </trkpt>
      <trkpt lat="46.02762" lon="4.74892">
        <ele>173.66</ele>
        <time>2012-09-06T09:50:06Z</time>
      </trkpt>
      <trkpt lat="46.02799" lon="4.74905">
        <ele>174.14</ele>
        <time>2012-09-06T09:50:19Z</time>
      </trkpt>
      <trkpt lat="46.0284" lon="4.7491">
        <ele>173.66</ele>
        <time>2012-09-06T09:50:33Z</time>
      </trkpt>
      <trkpt lat="46.02851" lon="4.74909">
        <ele>173.66</ele>
        <time>2012-09-06T09:50:38Z</time>
      </trkpt>
      <trkpt lat="46.02853" lon="4.74908">
        <ele>173.66</ele>
        <time>2012-09-06T09:50:39Z</time>
      </trkpt>
      <trkpt lat="46.02856" lon="4.74908">
        <ele>173.66</ele>
        <time>2012-09-06T09:50:40Z</time>
      </trkpt>
      <trkpt lat="46.02858" lon="4.74909">
        <ele>173.66</ele>
        <time>2012-09-06T09:50:41Z</time>
      </trkpt>
      <trkpt lat="46.02862" lon="4.74909">
        <ele>173.66</ele>
        <time>2012-09-06T09:50:42Z</time>
      </trkpt>
      <trkpt lat="46.02906" lon="4.7491">
        <ele>173.66</ele>
        <time>2012-09-06T09:50:55Z</time>
      </trkpt>
      <trkpt lat="46.02971" lon="4.74895">
        <ele>174.14</ele>
        <time>2012-09-06T09:51:11Z</time>
      </trkpt>
      <trkpt lat="46.02975" lon="4.74895">
        <ele>173.66</ele>
        <time>2012-09-06T09:51:12Z</time>
      </trkpt>
      <trkpt lat="46.02984" lon="4.74894">
        <ele>173.66</ele>
        <time>2012-09-06T09:51:14Z</time>
      </trkpt>
      <trkpt lat="46.02989" lon="4.74894">
        <ele>173.66</ele>
        <time>2012-09-06T09:51:15Z</time>
      </trkpt>
      <trkpt lat="46.03055" lon="4.74881">
        <ele>174.14</ele>
        <time>2012-09-06T09:51:31Z</time>
      </trkpt>
      <trkpt lat="46.03119" lon="4.74868">
        <ele>174.62</ele>
        <time>2012-09-06T09:51:46Z</time>
      </trkpt>
      <trkpt lat="46.03147" lon="4.74865">
        <ele>174.14</ele>
        <time>2012-09-06T09:51:53Z</time>
      </trkpt>
      <trkpt lat="46.03151" lon="4.74864">
        <ele>174.14</ele>
        <time>2012-09-06T09:51:54Z</time>
      </trkpt>
      <trkpt lat="46.03195" lon="4.74842">
        <ele>174.14</ele>
        <time>2012-09-06T09:52:05Z</time>
      </trkpt>
      <trkpt lat="46.03199" lon="4.7484">
        <ele>174.14</ele>
        <time>2012-09-06T09:52:06Z</time>
      </trkpt>
      <trkpt lat="46.03246" lon="4.74812">
        <ele>175.1</ele>
        <time>2012-09-06T09:52:19Z</time>
      </trkpt>
      <trkpt lat="46.03267" lon="4.74812">
        <ele>174.62</ele>
        <time>2012-09-06T09:52:30Z</time>
      </trkpt>
      <trkpt lat="46.0327" lon="4.74814">
        <ele>175.1</ele>
        <time>2012-09-06T09:53:01Z</time>
      </trkpt>
      <trkpt lat="46.03268" lon="4.74813">
        <ele>174.62</ele>
        <time>2012-09-06T09:53:38Z</time>
      </trkpt>
      <trkpt lat="46.03269" lon="4.74813">
        <ele>174.62</ele>
        <time>2012-09-06T09:53:57Z</time>
      </trkpt>
      <trkpt lat="46.0327" lon="4.74813">
        <ele>174.62</ele>
        <time>2012-09-06T09:53:58Z</time>
      </trkpt>
      <trkpt lat="46.03271" lon="4.74814">
        <ele>174.62</ele>
        <time>2012-09-06T09:53:59Z</time>
      </trkpt>
      <trkpt lat="46.03273" lon="4.74814">
        <ele>174.62</ele>
        <time>2012-09-06T09:54:00Z</time>
      </trkpt>
      <trkpt lat="46.03275" lon="4.74815">
        <ele>174.62</ele>
        <time>2012-09-06T09:54:01Z</time>
      </trkpt>
      <trkpt lat="46.03277" lon="4.74816">
        <ele>174.62</ele>
        <time>2012-09-06T09:54:02Z</time>
      </trkpt>
      <trkpt lat="46.0328" lon="4.74817">
        <ele>174.62</ele>
        <time>2012-09-06T09:54:03Z</time>
      </trkpt>
      <trkpt lat="46.03282" lon="4.74818">
        <ele>174.62</ele>
        <time>2012-09-06T09:54:04Z</time>
      </trkpt>
      <trkpt lat="46.03285" lon="4.74819">
        <ele>174.62</ele>
        <time>2012-09-06T09:54:05Z</time>
      </trkpt>
      <trkpt lat="46.03287" lon="4.7482">
        <ele>174.62</ele>
        <time>2012-09-06T09:54:06Z</time>
      </trkpt>
      <trkpt lat="46.03332" lon="4.74832">
        <ele>174.14</ele>
        <time>2012-09-06T09:54:19Z</time>
      </trkpt>
      <trkpt lat="46.03339" lon="4.74831">
        <ele>174.14</ele>
        <time>2012-09-06T09:54:21Z</time>
      </trkpt>
      <trkpt lat="46.03364" lon="4.74823">
        <ele>174.62</ele>
        <time>2012-09-06T09:54:27Z</time>
      </trkpt>
      <trkpt lat="46.03393" lon="4.74819">
        <ele>174.14</ele>
        <time>2012-09-06T09:54:34Z</time>
      </trkpt>
      <trkpt lat="46.03414" lon="4.74812">
        <ele>174.62</ele>
        <time>2012-09-06T09:54:39Z</time>
      </trkpt>
      <trkpt lat="46.03418" lon="4.7481">
        <ele>174.14</ele>
        <time>2012-09-06T09:54:40Z</time>
      </trkpt>
      <trkpt lat="46.03461" lon="4.74792">
        <ele>174.62</ele>
        <time>2012-09-06T09:54:51Z</time>
      </trkpt>
      <trkpt lat="46.03469" lon="4.74789">
        <ele>174.62</ele>
        <time>2012-09-06T09:54:53Z</time>
      </trkpt>
      <trkpt lat="46.03473" lon="4.74787">
        <ele>174.62</ele>
        <time>2012-09-06T09:54:54Z</time>
      </trkpt>
      <trkpt lat="46.03477" lon="4.74785">
        <ele>174.62</ele>
        <time>2012-09-06T09:54:55Z</time>
      </trkpt>
      <trkpt lat="46.03548" lon="4.74751">
        <ele>174.62</ele>
        <time>2012-09-06T09:55:12Z</time>
      </trkpt>
      <trkpt lat="46.03591" lon="4.74729">
        <ele>174.62</ele>
        <time>2012-09-06T09:55:25Z</time>
      </trkpt>
      <trkpt lat="46.03608" lon="4.74716">
        <ele>174.62</ele>
        <time>2012-09-06T09:55:37Z</time>
      </trkpt>
      <trkpt lat="46.03611" lon="4.74713">
        <ele>174.14</ele>
        <time>2012-09-06T09:55:40Z</time>
      </trkpt>
      <trkpt lat="46.03615" lon="4.74708">
        <ele>174.14</ele>
        <time>2012-09-06T09:55:52Z</time>
      </trkpt>
      <trkpt lat="46.03615" lon="4.74707">
        <ele>174.62</ele>
        <time>2012-09-06T09:56:22Z</time>
      </trkpt>
      <trkpt lat="46.03629" lon="4.74702">
        <ele>174.14</ele>
        <time>2012-09-06T09:56:35Z</time>
      </trkpt>
      <trkpt lat="46.03657" lon="4.74694">
        <ele>175.1</ele>
        <time>2012-09-06T09:56:46Z</time>
      </trkpt>
      <trkpt lat="46.03695" lon="4.74677">
        <ele>175.1</ele>
        <time>2012-09-06T09:56:58Z</time>
      </trkpt>
      <trkpt lat="46.03741" lon="4.74642">
        <ele>175.1</ele>
        <time>2012-09-06T09:57:10Z</time>
      </trkpt>
      <trkpt lat="46.03782" lon="4.74625">
        <ele>175.1</ele>
        <time>2012-09-06T09:57:21Z</time>
      </trkpt>
      <trkpt lat="46.03794" lon="4.7462">
        <ele>174.62</ele>
        <time>2012-09-06T09:57:24Z</time>
      </trkpt>
      <trkpt lat="46.03799" lon="4.74618">
        <ele>174.62</ele>
        <time>2012-09-06T09:57:25Z</time>
      </trkpt>
      <trkpt lat="46.03803" lon="4.74616">
        <ele>174.62</ele>
        <time>2012-09-06T09:57:26Z</time>
      </trkpt>
      <trkpt lat="46.03849" lon="4.74592">
        <ele>175.1</ele>
        <time>2012-09-06T09:57:37Z</time>
      </trkpt>
      <trkpt lat="46.03902" lon="4.74571">
        <ele>175.1</ele>
        <time>2012-09-06T09:57:50Z</time>
      </trkpt>
      <trkpt lat="46.03957" lon="4.7454">
        <ele>175.1</ele>
        <time>2012-09-06T09:58:05Z</time>
      </trkpt>
      <trkpt lat="46.03971" lon="4.74533">
        <ele>175.1</ele>
        <time>2012-09-06T09:58:09Z</time>
      </trkpt>
      <trkpt lat="46.03975" lon="4.74531">
        <ele>175.1</ele>
        <time>2012-09-06T09:58:10Z</time>
      </trkpt>
      <trkpt lat="46.03978" lon="4.74529">
        <ele>175.1</ele>
        <time>2012-09-06T09:58:11Z</time>
      </trkpt>
      <trkpt lat="46.04007" lon="4.74513">
        <ele>175.1</ele>
        <time>2012-09-06T09:58:19Z</time>
      </trkpt>
      <trkpt lat="46.0402" lon="4.74504">
        <ele>175.1</ele>
        <time>2012-09-06T09:58:22Z</time>
      </trkpt>
      <trkpt lat="46.04068" lon="4.74471">
        <ele>175.1</ele>
        <time>2012-09-06T09:58:33Z</time>
      </trkpt>
      <trkpt lat="46.04139" lon="4.74413">
        <ele>174.62</ele>
        <time>2012-09-06T09:58:51Z</time>
      </trkpt>
      <trkpt lat="46.04147" lon="4.74407">
        <ele>174.62</ele>
        <time>2012-09-06T09:58:53Z</time>
      </trkpt>
      <trkpt lat="46.04182" lon="4.74376">
        <ele>174.14</ele>
        <time>2012-09-06T09:59:04Z</time>
      </trkpt>
      <trkpt lat="46.04184" lon="4.74371">
        <ele>174.14</ele>
        <time>2012-09-06T09:59:05Z</time>
      </trkpt>
      <trkpt lat="46.04186" lon="4.74365">
        <ele>174.14</ele>
        <time>2012-09-06T09:59:06Z</time>
      </trkpt>
      <trkpt lat="46.04189" lon="4.74361">
        <ele>175.1</ele>
        <time>2012-09-06T09:59:07Z</time>
      </trkpt>
      <trkpt lat="46.04192" lon="4.74356">
        <ele>174.14</ele>
        <time>2012-09-06T09:59:08Z</time>
      </trkpt>
      <trkpt lat="46.04196" lon="4.74352">
        <ele>174.14</ele>
        <time>2012-09-06T09:59:09Z</time>
      </trkpt>
      <trkpt lat="46.04255" lon="4.74292">
        <ele>174.62</ele>
        <time>2012-09-06T09:59:26Z</time>
      </trkpt>
      <trkpt lat="46.04306" lon="4.74249">
        <ele>174.62</ele>
        <time>2012-09-06T09:59:40Z</time>
      </trkpt>
      <trkpt lat="46.04331" lon="4.74228">
        <ele>174.62</ele>
        <time>2012-09-06T09:59:47Z</time>
      </trkpt>
      <trkpt lat="46.04335" lon="4.74225">
        <ele>174.62</ele>
        <time>2012-09-06T09:59:48Z</time>
      </trkpt>
      <trkpt lat="46.04339" lon="4.74222">
        <ele>174.62</ele>
        <time>2012-09-06T09:59:49Z</time>
      </trkpt>
      <trkpt lat="46.04407" lon="4.74178">
        <ele>175.1</ele>
        <time>2012-09-06T10:00:07Z</time>
      </trkpt>
      <trkpt lat="46.04447" lon="4.74152">
        <ele>175.1</ele>
        <time>2012-09-06T10:00:17Z</time>
      </trkpt>
      <trkpt lat="46.04451" lon="4.7415">
        <ele>175.1</ele>
        <time>2012-09-06T10:00:18Z</time>
      </trkpt>
      <trkpt lat="46.04454" lon="4.74148">
        <ele>175.1</ele>
        <time>2012-09-06T10:00:19Z</time>
      </trkpt>
      <trkpt lat="46.04462" lon="4.74142">
        <ele>175.1</ele>
        <time>2012-09-06T10:00:21Z</time>
      </trkpt>
      <trkpt lat="46.04523" lon="4.74111">
        <ele>175.1</ele>
        <time>2012-09-06T10:00:36Z</time>
      </trkpt>
      <trkpt lat="46.04588" lon="4.7409">
        <ele>174.62</ele>
        <time>2012-09-06T10:00:52Z</time>
      </trkpt>
      <trkpt lat="46.04661" lon="4.74081">
        <ele>175.1</ele>
        <time>2012-09-06T10:01:10Z</time>
      </trkpt>
      <trkpt lat="46.04706" lon="4.74087">
        <ele>174.62</ele>
        <time>2012-09-06T10:01:22Z</time>
      </trkpt>
      <trkpt lat="46.0471" lon="4.74087">
        <ele>174.62</ele>
        <time>2012-09-06T10:01:23Z</time>
      </trkpt>
      <trkpt lat="46.04714" lon="4.74087">
        <ele>174.62</ele>
        <time>2012-09-06T10:01:24Z</time>
      </trkpt>
      <trkpt lat="46.04735" lon="4.74089">
        <ele>174.14</ele>
        <time>2012-09-06T10:01:29Z</time>
      </trkpt>
      <trkpt lat="46.04792" lon="4.74119">
        <ele>174.62</ele>
        <time>2012-09-06T10:01:44Z</time>
      </trkpt>
      <trkpt lat="46.04844" lon="4.74151">
        <ele>174.62</ele>
        <time>2012-09-06T10:01:58Z</time>
      </trkpt>
      <trkpt lat="46.04899" lon="4.742">
        <ele>174.62</ele>
        <time>2012-09-06T10:02:14Z</time>
      </trkpt>
      <trkpt lat="46.04948" lon="4.74244">
        <ele>174.62</ele>
        <time>2012-09-06T10:02:29Z</time>
      </trkpt>
      <trkpt lat="46.04983" lon="4.74276">
        <ele>174.14</ele>
        <time>2012-09-06T10:02:40Z</time>
      </trkpt>
      <trkpt lat="46.04986" lon="4.74279">
        <ele>174.62</ele>
        <time>2012-09-06T10:02:41Z</time>
      </trkpt>
      <trkpt lat="46.05033" lon="4.74335">
        <ele>174.62</ele>
        <time>2012-09-06T10:02:57Z</time>
      </trkpt>
      <trkpt lat="46.05036" lon="4.7434">
        <ele>174.14</ele>
        <time>2012-09-06T10:02:59Z</time>
      </trkpt>
      <trkpt lat="46.05037" lon="4.74344">
        <ele>175.58</ele>
        <time>2012-09-06T10:03:09Z</time>
      </trkpt>
      <trkpt lat="46.05037" lon="4.74345">
        <ele>174.14</ele>
        <time>2012-09-06T10:03:35Z</time>
      </trkpt>
      <trkpt lat="46.05037" lon="4.74345">
        <ele>174.14</ele>
        <time>2012-09-06T10:04:05Z</time>
      </trkpt>
      <trkpt lat="46.05036" lon="4.74344">
        <ele>174.14</ele>
        <time>2012-09-06T10:04:35Z</time>
      </trkpt>
      <trkpt lat="46.05038" lon="4.74346">
        <ele>174.62</ele>
        <time>2012-09-06T10:04:52Z</time>
      </trkpt>
      <trkpt lat="46.05038" lon="4.74346">
        <ele>174.14</ele>
        <time>2012-09-06T10:05:21Z</time>
      </trkpt>
      <trkpt lat="46.05038" lon="4.74347">
        <ele>174.62</ele>
        <time>2012-09-06T10:05:47Z</time>
      </trkpt>
      <trkpt lat="46.05038" lon="4.74346">
        <ele>174.14</ele>
        <time>2012-09-06T10:06:15Z</time>
      </trkpt>
      <trkpt lat="46.05039" lon="4.74347">
        <ele>174.14</ele>
        <time>2012-09-06T10:06:49Z</time>
      </trkpt>
      <trkpt lat="46.05039" lon="4.74346">
        <ele>174.14</ele>
        <time>2012-09-06T10:07:15Z</time>
      </trkpt>
      <trkpt lat="46.05042" lon="4.74351">
        <ele>174.14</ele>
        <time>2012-09-06T10:07:20Z</time>
      </trkpt>
      <trkpt lat="46.05043" lon="4.7435">
        <ele>174.14</ele>
        <time>2012-09-06T10:07:21Z</time>
      </trkpt>
      <trkpt lat="46.05043" lon="4.74349">
        <ele>174.14</ele>
        <time>2012-09-06T10:07:22Z</time>
      </trkpt>
      <trkpt lat="46.05041" lon="4.74345">
        <ele>174.62</ele>
        <time>2012-09-06T10:07:32Z</time>
      </trkpt>
      <trkpt lat="46.05041" lon="4.74348">
        <ele>174.62</ele>
        <time>2012-09-06T10:07:49Z</time>
      </trkpt>
      <trkpt lat="46.05042" lon="4.74351">
        <ele>174.62</ele>
        <time>2012-09-06T10:07:51Z</time>
      </trkpt>
      <trkpt lat="46.05058" lon="4.74379">
        <ele>174.62</ele>
        <time>2012-09-06T10:08:06Z</time>
      </trkpt>
      <trkpt lat="46.05087" lon="4.74431">
        <ele>174.62</ele>
        <time>2012-09-06T10:08:22Z</time>
      </trkpt>
      <trkpt lat="46.05115" lon="4.7449">
        <ele>174.62</ele>
        <time>2012-09-06T10:08:37Z</time>
      </trkpt>
      <trkpt lat="46.05152" lon="4.74566">
        <ele>174.62</ele>
        <time>2012-09-06T10:08:54Z</time>
      </trkpt>
      <trkpt lat="46.05175" lon="4.74621">
        <ele>174.62</ele>
        <time>2012-09-06T10:09:06Z</time>
      </trkpt>
      <trkpt lat="46.05224" lon="4.74738">
        <ele>174.62</ele>
        <time>2012-09-06T10:09:28Z</time>
      </trkpt>
      <trkpt lat="46.05263" lon="4.74829">
        <ele>174.62</ele>
        <time>2012-09-06T10:09:45Z</time>
      </trkpt>
      <trkpt lat="46.05297" lon="4.7491">
        <ele>174.14</ele>
        <time>2012-09-06T10:10:00Z</time>
      </trkpt>
      <trkpt lat="46.05323" lon="4.74993">
        <ele>174.62</ele>
        <time>2012-09-06T10:10:15Z</time>
      </trkpt>
      <trkpt lat="46.05342" lon="4.75056">
        <ele>174.14</ele>
        <time>2012-09-06T10:10:29Z</time>
      </trkpt>
      <trkpt lat="46.05349" lon="4.7507">
        <ele>174.14</ele>
        <time>2012-09-06T10:10:38Z</time>
      </trkpt>
      <trkpt lat="46.05348" lon="4.75071">
        <ele>174.14</ele>
        <time>2012-09-06T10:11:03Z</time>
      </trkpt>
      <trkpt lat="46.05349" lon="4.75074">
        <ele>174.14</ele>
        <time>2012-09-06T10:11:04Z</time>
      </trkpt>
      <trkpt lat="46.05349" lon="4.75077">
        <ele>174.14</ele>
        <time>2012-09-06T10:11:05Z</time>
      </trkpt>
      <trkpt lat="46.0535" lon="4.7508">
        <ele>174.14</ele>
        <time>2012-09-06T10:11:06Z</time>
      </trkpt>
      <trkpt lat="46.05351" lon="4.75083">
        <ele>174.14</ele>
        <time>2012-09-06T10:11:07Z</time>
      </trkpt>
      <trkpt lat="46.05368" lon="4.75145">
        <ele>174.14</ele>
        <time>2012-09-06T10:11:20Z</time>
      </trkpt>
      <trkpt lat="46.05385" lon="4.75204">
        <ele>174.14</ele>
        <time>2012-09-06T10:11:31Z</time>
      </trkpt>
      <trkpt lat="46.0541" lon="4.75276">
        <ele>174.62</ele>
        <time>2012-09-06T10:11:44Z</time>
      </trkpt>
      <trkpt lat="46.05464" lon="4.75329">
        <ele>174.14</ele>
        <time>2012-09-06T10:11:57Z</time>
      </trkpt>
      <trkpt lat="46.05522" lon="4.75408">
        <ele>174.14</ele>
        <time>2012-09-06T10:12:13Z</time>
      </trkpt>
      <trkpt lat="46.05564" lon="4.75473">
        <ele>174.14</ele>
        <time>2012-09-06T10:12:28Z</time>
      </trkpt>
      <trkpt lat="46.05609" lon="4.75543">
        <ele>174.14</ele>
        <time>2012-09-06T10:12:45Z</time>
      </trkpt>
      <trkpt lat="46.05617" lon="4.75556">
        <ele>173.66</ele>
        <time>2012-09-06T10:12:48Z</time>
      </trkpt>
      <trkpt lat="46.05625" lon="4.75569">
        <ele>174.14</ele>
        <time>2012-09-06T10:12:51Z</time>
      </trkpt>
      <trkpt lat="46.05668" lon="4.75633">
        <ele>173.66</ele>
        <time>2012-09-06T10:13:06Z</time>
      </trkpt>
      <trkpt lat="46.05672" lon="4.75636">
        <ele>173.66</ele>
        <time>2012-09-06T10:13:07Z</time>
      </trkpt>
      <trkpt lat="46.05685" lon="4.75644">
        <ele>173.17</ele>
        <time>2012-09-06T10:13:10Z</time>
      </trkpt>
      <trkpt lat="46.05689" lon="4.75648">
        <ele>173.17</ele>
        <time>2012-09-06T10:13:11Z</time>
      </trkpt>
      <trkpt lat="46.05731" lon="4.757">
        <ele>172.69</ele>
        <time>2012-09-06T10:13:25Z</time>
      </trkpt>
      <trkpt lat="46.05775" lon="4.75751">
        <ele>172.69</ele>
        <time>2012-09-06T10:13:41Z</time>
      </trkpt>
      <trkpt lat="46.05818" lon="4.75817">
        <ele>173.17</ele>
        <time>2012-09-06T10:13:59Z</time>
      </trkpt>
      <trkpt lat="46.05862" lon="4.75874">
        <ele>174.14</ele>
        <time>2012-09-06T10:14:15Z</time>
      </trkpt>
      <trkpt lat="46.05902" lon="4.75925">
        <ele>174.62</ele>
        <time>2012-09-06T10:14:30Z</time>
      </trkpt>
      <trkpt lat="46.05965" lon="4.75994">
        <ele>174.14</ele>
        <time>2012-09-06T10:14:49Z</time>
      </trkpt>
      <trkpt lat="46.06012" lon="4.76037">
        <ele>173.66</ele>
        <time>2012-09-06T10:15:02Z</time>
      </trkpt>
      <trkpt lat="46.06015" lon="4.76041">
        <ele>173.66</ele>
        <time>2012-09-06T10:15:03Z</time>
      </trkpt>
      <trkpt lat="46.06018" lon="4.76044">
        <ele>173.66</ele>
        <time>2012-09-06T10:15:04Z</time>
      </trkpt>
      <trkpt lat="46.06065" lon="4.76088">
        <ele>174.14</ele>
        <time>2012-09-06T10:15:19Z</time>
      </trkpt>
      <trkpt lat="46.0609" lon="4.7611">
        <ele>174.14</ele>
        <time>2012-09-06T10:15:29Z</time>
      </trkpt>
      <trkpt lat="46.06132" lon="4.76148">
        <ele>174.14</ele>
        <time>2012-09-06T10:15:43Z</time>
      </trkpt>
      <trkpt lat="46.06167" lon="4.76181">
        <ele>174.14</ele>
        <time>2012-09-06T10:15:54Z</time>
      </trkpt>
      <trkpt lat="46.06196" lon="4.76203">
        <ele>174.62</ele>
        <time>2012-09-06T10:16:02Z</time>
      </trkpt>
      <trkpt lat="46.06201" lon="4.76206">
        <ele>174.62</ele>
        <time>2012-09-06T10:16:03Z</time>
      </trkpt>
      <trkpt lat="46.06205" lon="4.76208">
        <ele>174.62</ele>
        <time>2012-09-06T10:16:04Z</time>
      </trkpt>
      <trkpt lat="46.0621" lon="4.76211">
        <ele>174.14</ele>
        <time>2012-09-06T10:16:05Z</time>
      </trkpt>
      <trkpt lat="46.06214" lon="4.76214">
        <ele>174.14</ele>
        <time>2012-09-06T10:16:06Z</time>
      </trkpt>
      <trkpt lat="46.0623" lon="4.76225">
        <ele>174.14</ele>
        <time>2012-09-06T10:16:10Z</time>
      </trkpt>
      <trkpt lat="46.06234" lon="4.76227">
        <ele>174.14</ele>
        <time>2012-09-06T10:16:11Z</time>
      </trkpt>
      <trkpt lat="46.06239" lon="4.76229">
        <ele>174.14</ele>
        <time>2012-09-06T10:16:12Z</time>
      </trkpt>
      <trkpt lat="46.06269" lon="4.7625">
        <ele>174.14</ele>
        <time>2012-09-06T10:16:19Z</time>
      </trkpt>
      <trkpt lat="46.06323" lon="4.76282">
        <ele>174.14</ele>
        <time>2012-09-06T10:16:33Z</time>
      </trkpt>
      <trkpt lat="46.06377" lon="4.76311">
        <ele>174.62</ele>
        <time>2012-09-06T10:16:47Z</time>
      </trkpt>
      <trkpt lat="46.06408" lon="4.76322">
        <ele>174.14</ele>
        <time>2012-09-06T10:16:54Z</time>
      </trkpt>
      <trkpt lat="46.06431" lon="4.76327">
        <ele>174.14</ele>
        <time>2012-09-06T10:17:00Z</time>
      </trkpt>
      <trkpt lat="46.06436" lon="4.76328">
        <ele>174.14</ele>
        <time>2012-09-06T10:17:01Z</time>
      </trkpt>
      <trkpt lat="46.06467" lon="4.76336">
        <ele>174.62</ele>
        <time>2012-09-06T10:17:11Z</time>
      </trkpt>
      <trkpt lat="46.06503" lon="4.76357">
        <ele>175.1</ele>
        <time>2012-09-06T10:17:20Z</time>
      </trkpt>
      <trkpt lat="46.06551" lon="4.76369">
        <ele>175.1</ele>
        <time>2012-09-06T10:17:32Z</time>
      </trkpt>
      <trkpt lat="46.06592" lon="4.76373">
        <ele>174.62</ele>
        <time>2012-09-06T10:17:42Z</time>
      </trkpt>
      <trkpt lat="46.0665" lon="4.76376">
        <ele>174.62</ele>
        <time>2012-09-06T10:17:56Z</time>
      </trkpt>
      <trkpt lat="46.06682" lon="4.76378">
        <ele>174.62</ele>
        <time>2012-09-06T10:18:05Z</time>
      </trkpt>
      <trkpt lat="46.06725" lon="4.76382">
        <ele>175.1</ele>
        <time>2012-09-06T10:18:15Z</time>
      </trkpt>
      <trkpt lat="46.0676" lon="4.76381">
        <ele>174.14</ele>
        <time>2012-09-06T10:18:25Z</time>
      </trkpt>
      <trkpt lat="46.0679" lon="4.76365">
        <ele>173.66</ele>
        <time>2012-09-06T10:18:32Z</time>
      </trkpt>
      <trkpt lat="46.06794" lon="4.76362">
        <ele>174.14</ele>
        <time>2012-09-06T10:18:33Z</time>
      </trkpt>
      <trkpt lat="46.06799" lon="4.7636">
        <ele>173.66</ele>
        <time>2012-09-06T10:18:34Z</time>
      </trkpt>
      <trkpt lat="46.06804" lon="4.76358">
        <ele>173.66</ele>
        <time>2012-09-06T10:18:35Z</time>
      </trkpt>
      <trkpt lat="46.06809" lon="4.76358">
        <ele>173.66</ele>
        <time>2012-09-06T10:18:36Z</time>
      </trkpt>
      <trkpt lat="46.06813" lon="4.76357">
        <ele>173.17</ele>
        <time>2012-09-06T10:18:37Z</time>
      </trkpt>
      <trkpt lat="46.06817" lon="4.76356">
        <ele>173.66</ele>
        <time>2012-09-06T10:18:38Z</time>
      </trkpt>
      <trkpt lat="46.06866" lon="4.7634">
        <ele>173.17</ele>
        <time>2012-09-06T10:18:51Z</time>
      </trkpt>
      <trkpt lat="46.06915" lon="4.76326">
        <ele>173.66</ele>
        <time>2012-09-06T10:19:05Z</time>
      </trkpt>
      <trkpt lat="46.06957" lon="4.76311">
        <ele>174.14</ele>
        <time>2012-09-06T10:19:18Z</time>
      </trkpt>
      <trkpt lat="46.07013" lon="4.76284">
        <ele>174.14</ele>
        <time>2012-09-06T10:19:33Z</time>
      </trkpt>
      <trkpt lat="46.07053" lon="4.76265">
        <ele>174.14</ele>
        <time>2012-09-06T10:19:45Z</time>
      </trkpt>
      <trkpt lat="46.07102" lon="4.76241">
        <ele>174.62</ele>
        <time>2012-09-06T10:19:59Z</time>
      </trkpt>
      <trkpt lat="46.07137" lon="4.76221">
        <ele>174.14</ele>
        <time>2012-09-06T10:20:11Z</time>
      </trkpt>
      <trkpt lat="46.07175" lon="4.76202">
        <ele>174.62</ele>
        <time>2012-09-06T10:20:23Z</time>
      </trkpt>
      <trkpt lat="46.0723" lon="4.76177">
        <ele>174.62</ele>
        <time>2012-09-06T10:20:39Z</time>
      </trkpt>
      <trkpt lat="46.07267" lon="4.7616">
        <ele>174.62</ele>
        <time>2012-09-06T10:20:51Z</time>
      </trkpt>
      <trkpt lat="46.07306" lon="4.76143">
        <ele>174.62</ele>
        <time>2012-09-06T10:21:05Z</time>
      </trkpt>
      <trkpt lat="46.07314" lon="4.7614">
        <ele>174.62</ele>
        <time>2012-09-06T10:21:09Z</time>
      </trkpt>
      <trkpt lat="46.07316" lon="4.7614">
        <ele>174.14</ele>
        <time>2012-09-06T10:21:10Z</time>
      </trkpt>
      <trkpt lat="46.07318" lon="4.76139">
        <ele>174.62</ele>
        <time>2012-09-06T10:21:11Z</time>
      </trkpt>
      <trkpt lat="46.07351" lon="4.76126">
        <ele>174.62</ele>
        <time>2012-09-06T10:21:24Z</time>
      </trkpt>
      <trkpt lat="46.07389" lon="4.76111">
        <ele>174.62</ele>
        <time>2012-09-06T10:21:36Z</time>
      </trkpt>
      <trkpt lat="46.07426" lon="4.76098">
        <ele>175.1</ele>
        <time>2012-09-06T10:21:48Z</time>
      </trkpt>
      <trkpt lat="46.07469" lon="4.76082">
        <ele>175.1</ele>
        <time>2012-09-06T10:22:00Z</time>
      </trkpt>
      <trkpt lat="46.0751" lon="4.76066">
        <ele>175.1</ele>
        <time>2012-09-06T10:22:12Z</time>
      </trkpt>
      <trkpt lat="46.07559" lon="4.76043">
        <ele>175.1</ele>
        <time>2012-09-06T10:22:26Z</time>
      </trkpt>
      <trkpt lat="46.07587" lon="4.76025">
        <ele>175.58</ele>
        <time>2012-09-06T10:22:37Z</time>
      </trkpt>
      <trkpt lat="46.07616" lon="4.75999">
        <ele>175.1</ele>
        <time>2012-09-06T10:22:47Z</time>
      </trkpt>
      <trkpt lat="46.07618" lon="4.75996">
        <ele>175.1</ele>
        <time>2012-09-06T10:22:48Z</time>
      </trkpt>
      <trkpt lat="46.0762" lon="4.75994">
        <ele>175.1</ele>
        <time>2012-09-06T10:22:49Z</time>
      </trkpt>
      <trkpt lat="46.07623" lon="4.75993">
        <ele>175.1</ele>
        <time>2012-09-06T10:22:50Z</time>
      </trkpt>
      <trkpt lat="46.07624" lon="4.75994">
        <ele>175.1</ele>
        <time>2012-09-06T10:22:51Z</time>
      </trkpt>
      <trkpt lat="46.07626" lon="4.75995">
        <ele>175.1</ele>
        <time>2012-09-06T10:22:52Z</time>
      </trkpt>
      <trkpt lat="46.07627" lon="4.75995">
        <ele>174.62</ele>
        <time>2012-09-06T10:22:53Z</time>
      </trkpt>
      <trkpt lat="46.07629" lon="4.75995">
        <ele>174.62</ele>
        <time>2012-09-06T10:22:54Z</time>
      </trkpt>
      <trkpt lat="46.07631" lon="4.75995">
        <ele>174.62</ele>
        <time>2012-09-06T10:22:55Z</time>
      </trkpt>
      <trkpt lat="46.07633" lon="4.75995">
        <ele>174.62</ele>
        <time>2012-09-06T10:22:56Z</time>
      </trkpt>
      <trkpt lat="46.07635" lon="4.75994">
        <ele>174.62</ele>
        <time>2012-09-06T10:22:57Z</time>
      </trkpt>
      <trkpt lat="46.07637" lon="4.75993">
        <ele>174.62</ele>
        <time>2012-09-06T10:22:58Z</time>
      </trkpt>
      <trkpt lat="46.07639" lon="4.75992">
        <ele>174.62</ele>
        <time>2012-09-06T10:22:59Z</time>
      </trkpt>
      <trkpt lat="46.07641" lon="4.75989">
        <ele>174.62</ele>
        <time>2012-09-06T10:23:00Z</time>
      </trkpt>
      <trkpt lat="46.07668" lon="4.75969">
        <ele>174.62</ele>
        <time>2012-09-06T10:23:12Z</time>
      </trkpt>
      <trkpt lat="46.07695" lon="4.75949">
        <ele>174.14</ele>
        <time>2012-09-06T10:23:27Z</time>
      </trkpt>
      <trkpt lat="46.0772" lon="4.75931">
        <ele>174.14</ele>
        <time>2012-09-06T10:23:39Z</time>
      </trkpt>
      <trkpt lat="46.07745" lon="4.75914">
        <ele>174.14</ele>
        <time>2012-09-06T10:23:51Z</time>
      </trkpt>
      <trkpt lat="46.07777" lon="4.75883">
        <ele>174.14</ele>
        <time>2012-09-06T10:24:04Z</time>
      </trkpt>
      <trkpt lat="46.07815" lon="4.75847">
        <ele>174.14</ele>
        <time>2012-09-06T10:24:18Z</time>
      </trkpt>
      <trkpt lat="46.07843" lon="4.75816">
        <ele>174.14</ele>
        <time>2012-09-06T10:24:30Z</time>
      </trkpt>
      <trkpt lat="46.07862" lon="4.75802">
        <ele>174.14</ele>
        <time>2012-09-06T10:24:42Z</time>
      </trkpt>
      <trkpt lat="46.07863" lon="4.75802">
        <ele>174.14</ele>
        <time>2012-09-06T10:25:11Z</time>
      </trkpt>
      <trkpt lat="46.07864" lon="4.75798">
        <ele>174.14</ele>
        <time>2012-09-06T10:25:20Z</time>
      </trkpt>
      <trkpt lat="46.07865" lon="4.75796">
        <ele>173.66</ele>
        <time>2012-09-06T10:25:21Z</time>
      </trkpt>
      <trkpt lat="46.07886" lon="4.75776">
        <ele>173.66</ele>
        <time>2012-09-06T10:25:35Z</time>
      </trkpt>
      <trkpt lat="46.07887" lon="4.75776">
        <ele>173.66</ele>
        <time>2012-09-06T10:25:36Z</time>
      </trkpt>
      <trkpt lat="46.07893" lon="4.75775">
        <ele>174.14</ele>
        <time>2012-09-06T10:25:48Z</time>
      </trkpt>
      <trkpt lat="46.07893" lon="4.7578">
        <ele>173.66</ele>
        <time>2012-09-06T10:25:57Z</time>
      </trkpt>
      <trkpt lat="46.07894" lon="4.75782">
        <ele>173.66</ele>
        <time>2012-09-06T10:25:58Z</time>
      </trkpt>
      <trkpt lat="46.07894" lon="4.75784">
        <ele>173.66</ele>
        <time>2012-09-06T10:25:59Z</time>
      </trkpt>
      <trkpt lat="46.07894" lon="4.75786">
        <ele>173.66</ele>
        <time>2012-09-06T10:26:00Z</time>
      </trkpt>
      <trkpt lat="46.07894" lon="4.75789">
        <ele>173.66</ele>
        <time>2012-09-06T10:26:01Z</time>
      </trkpt>
      <trkpt lat="46.07894" lon="4.75791">
        <ele>174.14</ele>
        <time>2012-09-06T10:26:02Z</time>
      </trkpt>
      <trkpt lat="46.07895" lon="4.75794">
        <ele>174.14</ele>
        <time>2012-09-06T10:26:03Z</time>
      </trkpt>
      <trkpt lat="46.07907" lon="4.75826">
        <ele>174.62</ele>
        <time>2012-09-06T10:26:13Z</time>
      </trkpt>
      <trkpt lat="46.07922" lon="4.75861">
        <ele>175.58</ele>
        <time>2012-09-06T10:26:24Z</time>
      </trkpt>
      <trkpt lat="46.07938" lon="4.75896">
        <ele>175.58</ele>
        <time>2012-09-06T10:26:34Z</time>
      </trkpt>
      <trkpt lat="46.07939" lon="4.75898">
        <ele>175.58</ele>
        <time>2012-09-06T10:26:35Z</time>
      </trkpt>
      <trkpt lat="46.07944" lon="4.75902">
        <ele>175.58</ele>
        <time>2012-09-06T10:26:48Z</time>
      </trkpt>
      <trkpt lat="46.07947" lon="4.75902">
        <ele>175.58</ele>
        <time>2012-09-06T10:27:12Z</time>
      </trkpt>
      <trkpt lat="46.07947" lon="4.75902">
        <ele>176.06</ele>
        <time>2012-09-06T10:27:14Z</time>
      </trkpt>
      <trkpt lat="46.07948" lon="4.75901">
        <ele>175.58</ele>
        <time>2012-09-06T10:27:15Z</time>
      </trkpt>
      <trkpt lat="46.0795" lon="4.759">
        <ele>175.58</ele>
        <time>2012-09-06T10:27:16Z</time>
      </trkpt>
      <trkpt lat="46.07952" lon="4.75899">
        <ele>175.58</ele>
        <time>2012-09-06T10:27:17Z</time>
      </trkpt>
      <trkpt lat="46.07954" lon="4.75897">
        <ele>175.58</ele>
        <time>2012-09-06T10:27:18Z</time>
      </trkpt>
      <trkpt lat="46.07957" lon="4.75896">
        <ele>176.06</ele>
        <time>2012-09-06T10:27:19Z</time>
      </trkpt>
      <trkpt lat="46.07959" lon="4.75894">
        <ele>177.02</ele>
        <time>2012-09-06T10:27:20Z</time>
      </trkpt>
      <trkpt lat="46.07962" lon="4.75893">
        <ele>176.06</ele>
        <time>2012-09-06T10:27:21Z</time>
      </trkpt>
      <trkpt lat="46.07964" lon="4.75892">
        <ele>176.06</ele>
        <time>2012-09-06T10:27:22Z</time>
      </trkpt>
      <trkpt lat="46.07998" lon="4.75874">
        <ele>176.54</ele>
        <time>2012-09-06T10:27:34Z</time>
      </trkpt>
      <trkpt lat="46.08045" lon="4.75874">
        <ele>177.5</ele>
        <time>2012-09-06T10:27:47Z</time>
      </trkpt>
      <trkpt lat="46.0808" lon="4.75878">
        <ele>178.94</ele>
        <time>2012-09-06T10:27:59Z</time>
      </trkpt>
      <trkpt lat="46.08081" lon="4.75877">
        <ele>178.94</ele>
        <time>2012-09-06T10:28:00Z</time>
      </trkpt>
      <trkpt lat="46.08082" lon="4.75876">
        <ele>178.94</ele>
        <time>2012-09-06T10:28:01Z</time>
      </trkpt>
      <trkpt lat="46.08083" lon="4.75875">
        <ele>178.94</ele>
        <time>2012-09-06T10:28:02Z</time>
      </trkpt>
      <trkpt lat="46.08083" lon="4.75872">
        <ele>178.94</ele>
        <time>2012-09-06T10:28:03Z</time>
      </trkpt>
      <trkpt lat="46.08083" lon="4.7587">
        <ele>178.94</ele>
        <time>2012-09-06T10:28:04Z</time>
      </trkpt>
      <trkpt lat="46.08083" lon="4.75868">
        <ele>178.94</ele>
        <time>2012-09-06T10:28:05Z</time>
      </trkpt>
      <trkpt lat="46.08082" lon="4.75864">
        <ele>178.94</ele>
        <time>2012-09-06T10:28:19Z</time>
      </trkpt>
      <trkpt lat="46.08082" lon="4.75862">
        <ele>178.46</ele>
        <time>2012-09-06T10:28:47Z</time>
      </trkpt>
      <trkpt lat="46.08082" lon="4.75861">
        <ele>178.46</ele>
        <time>2012-09-06T10:28:50Z</time>
      </trkpt>
      <trkpt lat="46.08081" lon="4.75859">
        <ele>178.46</ele>
        <time>2012-09-06T10:28:51Z</time>
      </trkpt>
      <trkpt lat="46.0808" lon="4.75857">
        <ele>178.46</ele>
        <time>2012-09-06T10:28:52Z</time>
      </trkpt>
      <trkpt lat="46.08079" lon="4.75854">
        <ele>178.46</ele>
        <time>2012-09-06T10:28:53Z</time>
      </trkpt>
      <trkpt lat="46.08079" lon="4.75851">
        <ele>178.46</ele>
        <time>2012-09-06T10:28:54Z</time>
      </trkpt>
      <trkpt lat="46.08078" lon="4.75848">
        <ele>178.46</ele>
        <time>2012-09-06T10:28:55Z</time>
      </trkpt>
      <trkpt lat="46.08074" lon="4.7581">
        <ele>177.5</ele>
        <time>2012-09-06T10:29:06Z</time>
      </trkpt>
      <trkpt lat="46.08073" lon="4.75807">
        <ele>177.5</ele>
        <time>2012-09-06T10:29:08Z</time>
      </trkpt>
      <trkpt lat="46.08055" lon="4.75816">
        <ele>177.98</ele>
        <time>2012-09-06T10:29:18Z</time>
      </trkpt>
      <trkpt lat="46.0801" lon="4.75856">
        <ele>177.02</ele>
        <time>2012-09-06T10:29:32Z</time>
      </trkpt>
      <trkpt lat="46.08003" lon="4.75863">
        <ele>177.02</ele>
        <time>2012-09-06T10:29:34Z</time>
      </trkpt>
      <trkpt lat="46.08" lon="4.75866">
        <ele>177.02</ele>
        <time>2012-09-06T10:29:35Z</time>
      </trkpt>
      <trkpt lat="46.07996" lon="4.75869">
        <ele>177.02</ele>
        <time>2012-09-06T10:29:36Z</time>
      </trkpt>
      <trkpt lat="46.07962" lon="4.75892">
        <ele>176.06</ele>
        <time>2012-09-06T10:29:45Z</time>
      </trkpt>
      <trkpt lat="46.07939" lon="4.75892">
        <ele>176.06</ele>
        <time>2012-09-06T10:29:55Z</time>
      </trkpt>
      <trkpt lat="46.07929" lon="4.75856">
        <ele>175.58</ele>
        <time>2012-09-06T10:30:05Z</time>
      </trkpt>
      <trkpt lat="46.07927" lon="4.75854">
        <ele>175.58</ele>
        <time>2012-09-06T10:30:15Z</time>
      </trkpt>
      <trkpt lat="46.07926" lon="4.75853">
        <ele>175.58</ele>
        <time>2012-09-06T10:30:16Z</time>
      </trkpt>
      <trkpt lat="46.07924" lon="4.7585">
        <ele>175.1</ele>
        <time>2012-09-06T10:30:17Z</time>
      </trkpt>
      <trkpt lat="46.07923" lon="4.75847">
        <ele>175.1</ele>
        <time>2012-09-06T10:30:18Z</time>
      </trkpt>
      <trkpt lat="46.07922" lon="4.75844">
        <ele>175.1</ele>
        <time>2012-09-06T10:30:19Z</time>
      </trkpt>
      <trkpt lat="46.07905" lon="4.7581">
        <ele>174.62</ele>
        <time>2012-09-06T10:30:29Z</time>
      </trkpt>
      <trkpt lat="46.07892" lon="4.75773">
        <ele>174.62</ele>
        <time>2012-09-06T10:30:39Z</time>
      </trkpt>
      <trkpt lat="46.07894" lon="4.75769">
        <ele>174.14</ele>
        <time>2012-09-06T10:30:40Z</time>
      </trkpt>
      <trkpt lat="46.07896" lon="4.75765">
        <ele>174.14</ele>
        <time>2012-09-06T10:30:41Z</time>
      </trkpt>
      <trkpt lat="46.07899" lon="4.75761">
        <ele>174.14</ele>
        <time>2012-09-06T10:30:42Z</time>
      </trkpt>
      <trkpt lat="46.07902" lon="4.75758">
        <ele>174.14</ele>
        <time>2012-09-06T10:30:43Z</time>
      </trkpt>
      <trkpt lat="46.0796" lon="4.757">
        <ele>173.66</ele>
        <time>2012-09-06T10:31:00Z</time>
      </trkpt>
      <trkpt lat="46.08013" lon="4.75647">
        <ele>173.66</ele>
        <time>2012-09-06T10:31:17Z</time>
      </trkpt>
      <trkpt lat="46.08039" lon="4.75612">
        <ele>173.66</ele>
        <time>2012-09-06T10:31:27Z</time>
      </trkpt>
      <trkpt lat="46.0808" lon="4.75577">
        <ele>173.66</ele>
        <time>2012-09-06T10:31:41Z</time>
      </trkpt>
      <trkpt lat="46.08081" lon="4.75574">
        <ele>173.66</ele>
        <time>2012-09-06T10:31:42Z</time>
      </trkpt>
      <trkpt lat="46.0808" lon="4.75571">
        <ele>173.66</ele>
        <time>2012-09-06T10:31:43Z</time>
      </trkpt>
      <trkpt lat="46.0808" lon="4.75568">
        <ele>173.66</ele>
        <time>2012-09-06T10:31:45Z</time>
      </trkpt>
      <trkpt lat="46.08082" lon="4.75566">
        <ele>173.66</ele>
        <time>2012-09-06T10:31:46Z</time>
      </trkpt>
      <trkpt lat="46.08084" lon="4.75564">
        <ele>173.66</ele>
        <time>2012-09-06T10:31:47Z</time>
      </trkpt>
      <trkpt lat="46.08119" lon="4.75525">
        <ele>173.66</ele>
        <time>2012-09-06T10:32:01Z</time>
      </trkpt>
      <trkpt lat="46.08149" lon="4.75496">
        <ele>173.66</ele>
        <time>2012-09-06T10:32:15Z</time>
      </trkpt>
      <trkpt lat="46.08152" lon="4.75494">
        <ele>173.66</ele>
        <time>2012-09-06T10:32:28Z</time>
      </trkpt>
      <trkpt lat="46.08152" lon="4.75495">
        <ele>173.17</ele>
        <time>2012-09-06T10:32:49Z</time>
      </trkpt>
      <trkpt lat="46.08152" lon="4.75495">
        <ele>171.73</ele>
        <time>2012-09-06T10:32:53Z</time>
      </trkpt>
      <trkpt lat="46.08149" lon="4.75486">
        <ele>174.62</ele>
        <time>2012-09-06T11:13:07Z</time>
      </trkpt>
      <trkpt lat="46.08148" lon="4.75488">
        <ele>173.66</ele>
        <time>2012-09-06T11:13:08Z</time>
      </trkpt>
      <trkpt lat="46.08149" lon="4.75489">
        <ele>177.02</ele>
        <time>2012-09-06T11:13:28Z</time>
      </trkpt>
      <trkpt lat="46.08148" lon="4.75489">
        <ele>177.98</ele>
        <time>2012-09-06T11:14:01Z</time>
      </trkpt>
      <trkpt lat="46.0815" lon="4.7549">
        <ele>177.98</ele>
        <time>2012-09-06T11:14:30Z</time>
      </trkpt>
      <trkpt lat="46.08152" lon="4.75493">
        <ele>177.98</ele>
        <time>2012-09-06T11:15:02Z</time>
      </trkpt>
      <trkpt lat="46.08152" lon="4.75495">
        <ele>177.5</ele>
        <time>2012-09-06T11:15:30Z</time>
      </trkpt>
      <trkpt lat="46.08175" lon="4.75528">
        <ele>177.02</ele>
        <time>2012-09-06T11:36:27Z</time>
      </trkpt>
      <trkpt lat="46.08176" lon="4.7553">
        <ele>177.5</ele>
        <time>2012-09-06T11:36:28Z</time>
      </trkpt>
      <trkpt lat="46.08151" lon="4.7549">
        <ele>176.06</ele>
        <time>2012-09-06T11:36:56Z</time>
      </trkpt>
      <trkpt lat="46.08152" lon="4.75492">
        <ele>174.62</ele>
        <time>2012-09-06T11:37:29Z</time>
      </trkpt>
      <trkpt lat="46.0815" lon="4.75491">
        <ele>176.06</ele>
        <time>2012-09-06T11:37:56Z</time>
      </trkpt>
      <trkpt lat="46.08151" lon="4.75489">
        <ele>176.06</ele>
        <time>2012-09-06T11:38:30Z</time>
      </trkpt>
      <trkpt lat="46.0815" lon="4.75491">
        <ele>176.06</ele>
        <time>2012-09-06T11:39:02Z</time>
      </trkpt>
      <trkpt lat="46.08151" lon="4.75493">
        <ele>176.06</ele>
        <time>2012-09-06T11:39:29Z</time>
      </trkpt>
      <trkpt lat="46.08152" lon="4.75491">
        <ele>176.06</ele>
        <time>2012-09-06T11:39:37Z</time>
      </trkpt>
      <trkpt lat="46.0817" lon="4.75473">
        <ele>176.06</ele>
        <time>2012-09-06T11:39:49Z</time>
      </trkpt>
      <trkpt lat="46.08201" lon="4.75433">
        <ele>176.54</ele>
        <time>2012-09-06T11:40:03Z</time>
      </trkpt>
      <trkpt lat="46.08241" lon="4.75375">
        <ele>177.02</ele>
        <time>2012-09-06T11:40:19Z</time>
      </trkpt>
      <trkpt lat="46.08282" lon="4.75328">
        <ele>176.54</ele>
        <time>2012-09-06T11:40:33Z</time>
      </trkpt>
      <trkpt lat="46.08323" lon="4.75312">
        <ele>176.06</ele>
        <time>2012-09-06T11:40:45Z</time>
      </trkpt>
      <trkpt lat="46.08371" lon="4.75304">
        <ele>176.54</ele>
        <time>2012-09-06T11:41:00Z</time>
      </trkpt>
      <trkpt lat="46.08413" lon="4.75302">
        <ele>176.54</ele>
        <time>2012-09-06T11:41:14Z</time>
      </trkpt>
      <trkpt lat="46.08425" lon="4.75301">
        <ele>176.54</ele>
        <time>2012-09-06T11:41:20Z</time>
      </trkpt>
      <trkpt lat="46.08441" lon="4.753">
        <ele>177.02</ele>
        <time>2012-09-06T11:41:29Z</time>
      </trkpt>
      <trkpt lat="46.08485" lon="4.75295">
        <ele>177.02</ele>
        <time>2012-09-06T11:41:43Z</time>
      </trkpt>
      <trkpt lat="46.08544" lon="4.75297">
        <ele>177.5</ele>
        <time>2012-09-06T11:42:00Z</time>
      </trkpt>
      <trkpt lat="46.08596" lon="4.75301">
        <ele>177.02</ele>
        <time>2012-09-06T11:42:16Z</time>
      </trkpt>
      <trkpt lat="46.08612" lon="4.75302">
        <ele>177.5</ele>
        <time>2012-09-06T11:42:26Z</time>
      </trkpt>
      <trkpt lat="46.08648" lon="4.7531">
        <ele>177.02</ele>
        <time>2012-09-06T11:42:38Z</time>
      </trkpt>
      <trkpt lat="46.08697" lon="4.7532">
        <ele>177.02</ele>
        <time>2012-09-06T11:42:51Z</time>
      </trkpt>
      <trkpt lat="46.08752" lon="4.75338">
        <ele>177.02</ele>
        <time>2012-09-06T11:43:05Z</time>
      </trkpt>
      <trkpt lat="46.08816" lon="4.75356">
        <ele>177.02</ele>
        <time>2012-09-06T11:43:21Z</time>
      </trkpt>
      <trkpt lat="46.08869" lon="4.75375">
        <ele>177.02</ele>
        <time>2012-09-06T11:43:35Z</time>
      </trkpt>
      <trkpt lat="46.08941" lon="4.75411">
        <ele>177.5</ele>
        <time>2012-09-06T11:43:53Z</time>
      </trkpt>
      <trkpt lat="46.09022" lon="4.75445">
        <ele>177.02</ele>
        <time>2012-09-06T11:44:13Z</time>
      </trkpt>
      <trkpt lat="46.09103" lon="4.75476">
        <ele>177.02</ele>
        <time>2012-09-06T11:44:32Z</time>
      </trkpt>
      <trkpt lat="46.09118" lon="4.75482">
        <ele>177.02</ele>
        <time>2012-09-06T11:44:36Z</time>
      </trkpt>
      <trkpt lat="46.09179" lon="4.75506">
        <ele>177.5</ele>
        <time>2012-09-06T11:44:51Z</time>
      </trkpt>
      <trkpt lat="46.0923" lon="4.75528">
        <ele>177.02</ele>
        <time>2012-09-06T11:45:05Z</time>
      </trkpt>
      <trkpt lat="46.09285" lon="4.75552">
        <ele>177.5</ele>
        <time>2012-09-06T11:45:19Z</time>
      </trkpt>
      <trkpt lat="46.09352" lon="4.75585">
        <ele>177.5</ele>
        <time>2012-09-06T11:45:36Z</time>
      </trkpt>
      <trkpt lat="46.09427" lon="4.75627">
        <ele>177.5</ele>
        <time>2012-09-06T11:45:56Z</time>
      </trkpt>
      <trkpt lat="46.09491" lon="4.75662">
        <ele>177.5</ele>
        <time>2012-09-06T11:46:13Z</time>
      </trkpt>
      <trkpt lat="46.0956" lon="4.75702">
        <ele>177.02</ele>
        <time>2012-09-06T11:46:33Z</time>
      </trkpt>
      <trkpt lat="46.09624" lon="4.75743">
        <ele>177.5</ele>
        <time>2012-09-06T11:46:51Z</time>
      </trkpt>
      <trkpt lat="46.09687" lon="4.75791">
        <ele>177.5</ele>
        <time>2012-09-06T11:47:10Z</time>
      </trkpt>
      <trkpt lat="46.09731" lon="4.75831">
        <ele>177.5</ele>
        <time>2012-09-06T11:47:24Z</time>
      </trkpt>
      <trkpt lat="46.09772" lon="4.75871">
        <ele>177.5</ele>
        <time>2012-09-06T11:47:37Z</time>
      </trkpt>
      <trkpt lat="46.09813" lon="4.75916">
        <ele>177.02</ele>
        <time>2012-09-06T11:47:50Z</time>
      </trkpt>
      <trkpt lat="46.0985" lon="4.7596">
        <ele>177.02</ele>
        <time>2012-09-06T11:48:03Z</time>
      </trkpt>
      <trkpt lat="46.09866" lon="4.75978">
        <ele>177.02</ele>
        <time>2012-09-06T11:48:08Z</time>
      </trkpt>
      <trkpt lat="46.09891" lon="4.76005">
        <ele>177.02</ele>
        <time>2012-09-06T11:48:15Z</time>
      </trkpt>
      <trkpt lat="46.09894" lon="4.76009">
        <ele>177.5</ele>
        <time>2012-09-06T11:48:16Z</time>
      </trkpt>
      <trkpt lat="46.09943" lon="4.76064">
        <ele>177.02</ele>
        <time>2012-09-06T11:48:31Z</time>
      </trkpt>
      <trkpt lat="46.09999" lon="4.7613">
        <ele>177.02</ele>
        <time>2012-09-06T11:48:49Z</time>
      </trkpt>
      <trkpt lat="46.10052" lon="4.76192">
        <ele>177.02</ele>
        <time>2012-09-06T11:49:06Z</time>
      </trkpt>
      <trkpt lat="46.10101" lon="4.76246">
        <ele>177.5</ele>
        <time>2012-09-06T11:49:22Z</time>
      </trkpt>
      <trkpt lat="46.10152" lon="4.76284">
        <ele>177.02</ele>
        <time>2012-09-06T11:49:37Z</time>
      </trkpt>
      <trkpt lat="46.10192" lon="4.76291">
        <ele>177.02</ele>
        <time>2012-09-06T11:49:50Z</time>
      </trkpt>
      <trkpt lat="46.102" lon="4.76291">
        <ele>177.5</ele>
        <time>2012-09-06T11:49:53Z</time>
      </trkpt>
      <trkpt lat="46.10201" lon="4.76293">
        <ele>177.98</ele>
        <time>2012-09-06T11:49:54Z</time>
      </trkpt>
      <trkpt lat="46.10214" lon="4.76312">
        <ele>176.54</ele>
        <time>2012-09-06T11:50:07Z</time>
      </trkpt>
      <trkpt lat="46.10216" lon="4.76312">
        <ele>176.54</ele>
        <time>2012-09-06T11:50:32Z</time>
      </trkpt>
      <trkpt lat="46.10216" lon="4.76314">
        <ele>176.54</ele>
        <time>2012-09-06T11:51:05Z</time>
      </trkpt>
      <trkpt lat="46.10216" lon="4.76314">
        <ele>176.54</ele>
        <time>2012-09-06T11:51:34Z</time>
      </trkpt>
      <trkpt lat="46.10217" lon="4.76314">
        <ele>176.54</ele>
        <time>2012-09-06T11:51:37Z</time>
      </trkpt>
      <trkpt lat="46.10217" lon="4.76316">
        <ele>176.54</ele>
        <time>2012-09-06T11:51:38Z</time>
      </trkpt>
      <trkpt lat="46.10217" lon="4.76319">
        <ele>176.54</ele>
        <time>2012-09-06T11:51:39Z</time>
      </trkpt>
      <trkpt lat="46.10218" lon="4.76322">
        <ele>176.54</ele>
        <time>2012-09-06T11:51:40Z</time>
      </trkpt>
      <trkpt lat="46.10219" lon="4.76325">
        <ele>176.54</ele>
        <time>2012-09-06T11:51:41Z</time>
      </trkpt>
      <trkpt lat="46.10221" lon="4.76329">
        <ele>177.02</ele>
        <time>2012-09-06T11:51:42Z</time>
      </trkpt>
      <trkpt lat="46.1023" lon="4.76357">
        <ele>177.5</ele>
        <time>2012-09-06T11:51:47Z</time>
      </trkpt>
      <trkpt lat="46.10237" lon="4.76376">
        <ele>177.02</ele>
        <time>2012-09-06T11:51:50Z</time>
      </trkpt>
      <trkpt lat="46.10273" lon="4.76444">
        <ele>177.02</ele>
        <time>2012-09-06T11:52:01Z</time>
      </trkpt>
      <trkpt lat="46.10332" lon="4.76508">
        <ele>177.02</ele>
        <time>2012-09-06T11:52:15Z</time>
      </trkpt>
      <trkpt lat="46.10397" lon="4.76573">
        <ele>176.54</ele>
        <time>2012-09-06T11:52:31Z</time>
      </trkpt>
      <trkpt lat="46.10435" lon="4.76611">
        <ele>176.54</ele>
        <time>2012-09-06T11:52:43Z</time>
      </trkpt>
      <trkpt lat="46.10441" lon="4.76617">
        <ele>176.54</ele>
        <time>2012-09-06T11:52:53Z</time>
      </trkpt>
      <trkpt lat="46.10442" lon="4.76619">
        <ele>176.54</ele>
        <time>2012-09-06T11:53:07Z</time>
      </trkpt>
      <trkpt lat="46.10444" lon="4.76621">
        <ele>176.54</ele>
        <time>2012-09-06T11:53:35Z</time>
      </trkpt>
      <trkpt lat="46.10445" lon="4.7662">
        <ele>176.54</ele>
        <time>2012-09-06T11:53:57Z</time>
      </trkpt>
      <trkpt lat="46.10458" lon="4.76631">
        <ele>176.54</ele>
        <time>2012-09-06T11:54:08Z</time>
      </trkpt>
      <trkpt lat="46.10491" lon="4.76665">
        <ele>176.06</ele>
        <time>2012-09-06T11:54:22Z</time>
      </trkpt>
      <trkpt lat="46.10532" lon="4.76706">
        <ele>176.54</ele>
        <time>2012-09-06T11:54:36Z</time>
      </trkpt>
      <trkpt lat="46.10575" lon="4.7675">
        <ele>176.54</ele>
        <time>2012-09-06T11:54:51Z</time>
      </trkpt>
      <trkpt lat="46.10616" lon="4.76791">
        <ele>176.54</ele>
        <time>2012-09-06T11:55:05Z</time>
      </trkpt>
      <trkpt lat="46.10659" lon="4.76834">
        <ele>176.54</ele>
        <time>2012-09-06T11:55:18Z</time>
      </trkpt>
      <trkpt lat="46.10702" lon="4.7688">
        <ele>176.54</ele>
        <time>2012-09-06T11:55:31Z</time>
      </trkpt>
      <trkpt lat="46.1074" lon="4.76919">
        <ele>177.02</ele>
        <time>2012-09-06T11:55:43Z</time>
      </trkpt>
      <trkpt lat="46.10792" lon="4.76976">
        <ele>176.54</ele>
        <time>2012-09-06T11:55:58Z</time>
      </trkpt>
      <trkpt lat="46.10838" lon="4.77035">
        <ele>176.54</ele>
        <time>2012-09-06T11:56:13Z</time>
      </trkpt>
      <trkpt lat="46.10868" lon="4.77077">
        <ele>176.54</ele>
        <time>2012-09-06T11:56:25Z</time>
      </trkpt>
      <trkpt lat="46.10907" lon="4.77129">
        <ele>176.54</ele>
        <time>2012-09-06T11:56:38Z</time>
      </trkpt>
      <trkpt lat="46.10955" lon="4.77181">
        <ele>176.54</ele>
        <time>2012-09-06T11:56:53Z</time>
      </trkpt>
      <trkpt lat="46.11022" lon="4.77244">
        <ele>177.02</ele>
        <time>2012-09-06T11:57:13Z</time>
      </trkpt>
      <trkpt lat="46.11063" lon="4.77287">
        <ele>177.5</ele>
        <time>2012-09-06T11:57:27Z</time>
      </trkpt>
      <trkpt lat="46.11072" lon="4.77291">
        <ele>177.02</ele>
        <time>2012-09-06T11:57:31Z</time>
      </trkpt>
      <trkpt lat="46.11075" lon="4.7729">
        <ele>176.54</ele>
        <time>2012-09-06T11:57:32Z</time>
      </trkpt>
      <trkpt lat="46.11079" lon="4.77289">
        <ele>176.54</ele>
        <time>2012-09-06T11:57:33Z</time>
      </trkpt>
      <trkpt lat="46.11081" lon="4.77288">
        <ele>177.02</ele>
        <time>2012-09-06T11:57:34Z</time>
      </trkpt>
      <trkpt lat="46.11085" lon="4.77288">
        <ele>177.02</ele>
        <time>2012-09-06T11:57:35Z</time>
      </trkpt>
      <trkpt lat="46.11088" lon="4.77289">
        <ele>176.54</ele>
        <time>2012-09-06T11:57:36Z</time>
      </trkpt>
      <trkpt lat="46.11091" lon="4.77289">
        <ele>176.54</ele>
        <time>2012-09-06T11:57:37Z</time>
      </trkpt>
      <trkpt lat="46.11095" lon="4.77289">
        <ele>177.02</ele>
        <time>2012-09-06T11:57:38Z</time>
      </trkpt>
      <trkpt lat="46.11099" lon="4.7729">
        <ele>176.54</ele>
        <time>2012-09-06T11:57:39Z</time>
      </trkpt>
      <trkpt lat="46.11151" lon="4.77304">
        <ele>176.54</ele>
        <time>2012-09-06T11:57:53Z</time>
      </trkpt>
      <trkpt lat="46.11199" lon="4.77316">
        <ele>176.54</ele>
        <time>2012-09-06T11:58:07Z</time>
      </trkpt>
      <trkpt lat="46.1124" lon="4.7732">
        <ele>176.54</ele>
        <time>2012-09-06T11:58:20Z</time>
      </trkpt>
      <trkpt lat="46.11247" lon="4.77323">
        <ele>177.02</ele>
        <time>2012-09-06T11:58:23Z</time>
      </trkpt>
      <trkpt lat="46.11308" lon="4.77331">
        <ele>177.02</ele>
        <time>2012-09-06T11:58:40Z</time>
      </trkpt>
      <trkpt lat="46.11377" lon="4.77342">
        <ele>177.5</ele>
        <time>2012-09-06T11:58:59Z</time>
      </trkpt>
      <trkpt lat="46.11436" lon="4.77358">
        <ele>177.02</ele>
        <time>2012-09-06T11:59:15Z</time>
      </trkpt>
      <trkpt lat="46.11506" lon="4.77373">
        <ele>177.02</ele>
        <time>2012-09-06T11:59:33Z</time>
      </trkpt>
      <trkpt lat="46.1156" lon="4.77397">
        <ele>177.02</ele>
        <time>2012-09-06T11:59:48Z</time>
      </trkpt>
      <trkpt lat="46.11618" lon="4.77427">
        <ele>177.5</ele>
        <time>2012-09-06T12:00:04Z</time>
      </trkpt>
      <trkpt lat="46.11672" lon="4.77465">
        <ele>177.5</ele>
        <time>2012-09-06T12:00:20Z</time>
      </trkpt>
      <trkpt lat="46.11715" lon="4.77498">
        <ele>177.5</ele>
        <time>2012-09-06T12:00:33Z</time>
      </trkpt>
      <trkpt lat="46.11773" lon="4.77538">
        <ele>177.98</ele>
        <time>2012-09-06T12:00:50Z</time>
      </trkpt>
      <trkpt lat="46.1184" lon="4.77578">
        <ele>177.5</ele>
        <time>2012-09-06T12:01:08Z</time>
      </trkpt>
      <trkpt lat="46.11905" lon="4.77611">
        <ele>177.98</ele>
        <time>2012-09-06T12:01:25Z</time>
      </trkpt>
      <trkpt lat="46.11935" lon="4.77626">
        <ele>177.5</ele>
        <time>2012-09-06T12:01:34Z</time>
      </trkpt>
      <trkpt lat="46.11935" lon="4.77624">
        <ele>177.5</ele>
        <time>2012-09-06T12:01:35Z</time>
      </trkpt>
      <trkpt lat="46.11929" lon="4.77619">
        <ele>177.5</ele>
        <time>2012-09-06T12:01:46Z</time>
      </trkpt>
      <trkpt lat="46.11929" lon="4.77619">
        <ele>177.02</ele>
        <time>2012-09-06T12:02:13Z</time>
      </trkpt>
      <trkpt lat="46.11929" lon="4.77619">
        <ele>177.02</ele>
        <time>2012-09-06T12:02:41Z</time>
      </trkpt>
      <trkpt lat="46.11927" lon="4.77621">
        <ele>177.02</ele>
        <time>2012-09-06T12:02:47Z</time>
      </trkpt>
      <trkpt lat="46.11929" lon="4.77623">
        <ele>177.5</ele>
        <time>2012-09-06T12:02:50Z</time>
      </trkpt>
      <trkpt lat="46.11954" lon="4.77636">
        <ele>177.5</ele>
        <time>2012-09-06T12:03:04Z</time>
      </trkpt>
      <trkpt lat="46.12001" lon="4.77662">
        <ele>177.5</ele>
        <time>2012-09-06T12:03:19Z</time>
      </trkpt>
      <trkpt lat="46.12045" lon="4.7769">
        <ele>177.98</ele>
        <time>2012-09-06T12:03:34Z</time>
      </trkpt>
      <trkpt lat="46.12082" lon="4.77726">
        <ele>177.02</ele>
        <time>2012-09-06T12:03:48Z</time>
      </trkpt>
      <trkpt lat="46.12121" lon="4.77765">
        <ele>177.5</ele>
        <time>2012-09-06T12:04:02Z</time>
      </trkpt>
      <trkpt lat="46.12161" lon="4.77797">
        <ele>177.02</ele>
        <time>2012-09-06T12:04:15Z</time>
      </trkpt>
      <trkpt lat="46.1219" lon="4.77841">
        <ele>177.02</ele>
        <time>2012-09-06T12:04:28Z</time>
      </trkpt>
      <trkpt lat="46.12226" lon="4.77891">
        <ele>177.02</ele>
        <time>2012-09-06T12:04:42Z</time>
      </trkpt>
      <trkpt lat="46.12277" lon="4.77949">
        <ele>177.5</ele>
        <time>2012-09-06T12:04:59Z</time>
      </trkpt>
      <trkpt lat="46.1232" lon="4.77993">
        <ele>177.02</ele>
        <time>2012-09-06T12:05:14Z</time>
      </trkpt>
      <trkpt lat="46.1236" lon="4.78042">
        <ele>177.5</ele>
        <time>2012-09-06T12:05:29Z</time>
      </trkpt>
      <trkpt lat="46.12387" lon="4.78076">
        <ele>176.54</ele>
        <time>2012-09-06T12:05:40Z</time>
      </trkpt>
      <trkpt lat="46.12421" lon="4.78123">
        <ele>177.02</ele>
        <time>2012-09-06T12:05:53Z</time>
      </trkpt>
      <trkpt lat="46.12465" lon="4.78181">
        <ele>177.02</ele>
        <time>2012-09-06T12:06:09Z</time>
      </trkpt>
      <trkpt lat="46.12504" lon="4.78232">
        <ele>176.54</ele>
        <time>2012-09-06T12:06:24Z</time>
      </trkpt>
      <trkpt lat="46.12537" lon="4.78271">
        <ele>176.54</ele>
        <time>2012-09-06T12:06:35Z</time>
      </trkpt>
      <trkpt lat="46.1254" lon="4.78275">
        <ele>177.02</ele>
        <time>2012-09-06T12:06:36Z</time>
      </trkpt>
      <trkpt lat="46.12542" lon="4.78279">
        <ele>177.02</ele>
        <time>2012-09-06T12:06:37Z</time>
      </trkpt>
      <trkpt lat="46.12544" lon="4.78283">
        <ele>177.02</ele>
        <time>2012-09-06T12:06:38Z</time>
      </trkpt>
      <trkpt lat="46.12547" lon="4.78286">
        <ele>177.02</ele>
        <time>2012-09-06T12:06:39Z</time>
      </trkpt>
      <trkpt lat="46.12549" lon="4.7829">
        <ele>176.54</ele>
        <time>2012-09-06T12:06:40Z</time>
      </trkpt>
      <trkpt lat="46.12552" lon="4.78293">
        <ele>177.02</ele>
        <time>2012-09-06T12:06:41Z</time>
      </trkpt>
      <trkpt lat="46.12589" lon="4.78345">
        <ele>177.02</ele>
        <time>2012-09-06T12:06:56Z</time>
      </trkpt>
      <trkpt lat="46.12628" lon="4.78396">
        <ele>176.54</ele>
        <time>2012-09-06T12:07:09Z</time>
      </trkpt>
      <trkpt lat="46.12648" lon="4.78423">
        <ele>176.54</ele>
        <time>2012-09-06T12:07:20Z</time>
      </trkpt>
      <trkpt lat="46.12651" lon="4.78424">
        <ele>176.54</ele>
        <time>2012-09-06T12:07:37Z</time>
      </trkpt>
      <trkpt lat="46.12652" lon="4.78424">
        <ele>176.54</ele>
        <time>2012-09-06T12:08:12Z</time>
      </trkpt>
      <trkpt lat="46.12652" lon="4.78423">
        <ele>176.54</ele>
        <time>2012-09-06T12:08:45Z</time>
      </trkpt>
      <trkpt lat="46.12653" lon="4.78423">
        <ele>176.54</ele>
        <time>2012-09-06T12:09:15Z</time>
      </trkpt>
      <trkpt lat="46.12653" lon="4.78423">
        <ele>176.54</ele>
        <time>2012-09-06T12:09:40Z</time>
      </trkpt>
      <trkpt lat="46.12653" lon="4.78423">
        <ele>176.54</ele>
        <time>2012-09-06T12:09:41Z</time>
      </trkpt>
      <trkpt lat="46.12654" lon="4.78424">
        <ele>176.54</ele>
        <time>2012-09-06T12:09:42Z</time>
      </trkpt>
      <trkpt lat="46.12672" lon="4.78449">
        <ele>176.54</ele>
        <time>2012-09-06T12:09:56Z</time>
      </trkpt>
      <trkpt lat="46.12695" lon="4.7848">
        <ele>176.54</ele>
        <time>2012-09-06T12:10:09Z</time>
      </trkpt>
      <trkpt lat="46.12724" lon="4.78518">
        <ele>176.54</ele>
        <time>2012-09-06T12:10:22Z</time>
      </trkpt>
      <trkpt lat="46.12749" lon="4.78549">
        <ele>177.02</ele>
        <time>2012-09-06T12:10:33Z</time>
      </trkpt>
      <trkpt lat="46.12791" lon="4.78603">
        <ele>176.54</ele>
        <time>2012-09-06T12:10:48Z</time>
      </trkpt>
      <trkpt lat="46.1283" lon="4.78652">
        <ele>177.02</ele>
        <time>2012-09-06T12:11:02Z</time>
      </trkpt>
      <trkpt lat="46.12877" lon="4.78714">
        <ele>177.02</ele>
        <time>2012-09-06T12:11:19Z</time>
      </trkpt>
      <trkpt lat="46.1292" lon="4.78772">
        <ele>177.5</ele>
        <time>2012-09-06T12:11:35Z</time>
      </trkpt>
      <trkpt lat="46.12953" lon="4.78816">
        <ele>177.02</ele>
        <time>2012-09-06T12:11:48Z</time>
      </trkpt>
      <trkpt lat="46.13008" lon="4.78879">
        <ele>177.02</ele>
        <time>2012-09-06T12:12:06Z</time>
      </trkpt>
      <trkpt lat="46.13053" lon="4.7891">
        <ele>177.5</ele>
        <time>2012-09-06T12:12:20Z</time>
      </trkpt>
      <trkpt lat="46.13082" lon="4.78941">
        <ele>177.02</ele>
        <time>2012-09-06T12:12:31Z</time>
      </trkpt>
      <trkpt lat="46.1312" lon="4.78992">
        <ele>177.02</ele>
        <time>2012-09-06T12:12:45Z</time>
      </trkpt>
      <trkpt lat="46.13166" lon="4.79048">
        <ele>177.02</ele>
        <time>2012-09-06T12:13:02Z</time>
      </trkpt>
      <trkpt lat="46.13203" lon="4.79097">
        <ele>176.54</ele>
        <time>2012-09-06T12:13:17Z</time>
      </trkpt>
      <trkpt lat="46.13238" lon="4.7914">
        <ele>177.02</ele>
        <time>2012-09-06T12:13:30Z</time>
      </trkpt>
      <trkpt lat="46.13276" lon="4.79178">
        <ele>177.02</ele>
        <time>2012-09-06T12:13:43Z</time>
      </trkpt>
      <trkpt lat="46.13307" lon="4.79209">
        <ele>177.02</ele>
        <time>2012-09-06T12:13:55Z</time>
      </trkpt>
      <trkpt lat="46.13344" lon="4.79238">
        <ele>177.02</ele>
        <time>2012-09-06T12:14:07Z</time>
      </trkpt>
      <trkpt lat="46.1338" lon="4.79271">
        <ele>176.54</ele>
        <time>2012-09-06T12:14:19Z</time>
      </trkpt>
      <trkpt lat="46.13421" lon="4.79306">
        <ele>176.54</ele>
        <time>2012-09-06T12:14:33Z</time>
      </trkpt>
      <trkpt lat="46.13472" lon="4.79353">
        <ele>176.54</ele>
        <time>2012-09-06T12:14:49Z</time>
      </trkpt>
      <trkpt lat="46.13517" lon="4.79397">
        <ele>176.54</ele>
        <time>2012-09-06T12:15:03Z</time>
      </trkpt>
      <trkpt lat="46.13557" lon="4.79436">
        <ele>176.54</ele>
        <time>2012-09-06T12:15:17Z</time>
      </trkpt>
      <trkpt lat="46.13589" lon="4.79466">
        <ele>176.54</ele>
        <time>2012-09-06T12:15:28Z</time>
      </trkpt>
      <trkpt lat="46.1362" lon="4.79497">
        <ele>176.54</ele>
        <time>2012-09-06T12:15:40Z</time>
      </trkpt>
      <trkpt lat="46.13653" lon="4.79529">
        <ele>177.02</ele>
        <time>2012-09-06T12:15:52Z</time>
      </trkpt>
      <trkpt lat="46.13693" lon="4.7957">
        <ele>176.54</ele>
        <time>2012-09-06T12:16:06Z</time>
      </trkpt>
      <trkpt lat="46.13732" lon="4.79614">
        <ele>177.02</ele>
        <time>2012-09-06T12:16:21Z</time>
      </trkpt>
      <trkpt lat="46.13769" lon="4.79652">
        <ele>177.02</ele>
        <time>2012-09-06T12:16:34Z</time>
      </trkpt>
      <trkpt lat="46.13804" lon="4.79689">
        <ele>177.5</ele>
        <time>2012-09-06T12:16:46Z</time>
      </trkpt>
      <trkpt lat="46.13841" lon="4.7973">
        <ele>176.54</ele>
        <time>2012-09-06T12:17:02Z</time>
      </trkpt>
      <trkpt lat="46.13843" lon="4.79731">
        <ele>177.02</ele>
        <time>2012-09-06T12:17:15Z</time>
      </trkpt>
      <trkpt lat="46.13844" lon="4.79731">
        <ele>177.02</ele>
        <time>2012-09-06T12:17:42Z</time>
      </trkpt>
      <trkpt lat="46.13844" lon="4.79731">
        <ele>176.54</ele>
        <time>2012-09-06T12:18:09Z</time>
      </trkpt>
      <trkpt lat="46.13843" lon="4.79732">
        <ele>176.54</ele>
        <time>2012-09-06T12:18:36Z</time>
      </trkpt>
      <trkpt lat="46.13843" lon="4.79732">
        <ele>176.54</ele>
        <time>2012-09-06T12:19:06Z</time>
      </trkpt>
      <trkpt lat="46.13843" lon="4.79732">
        <ele>177.02</ele>
        <time>2012-09-06T12:19:07Z</time>
      </trkpt>
      <trkpt lat="46.13849" lon="4.79745">
        <ele>176.54</ele>
        <time>2012-09-06T12:19:13Z</time>
      </trkpt>
      <trkpt lat="46.13881" lon="4.79778">
        <ele>176.54</ele>
        <time>2012-09-06T12:19:27Z</time>
      </trkpt>
      <trkpt lat="46.13919" lon="4.79818">
        <ele>177.02</ele>
        <time>2012-09-06T12:19:41Z</time>
      </trkpt>
      <trkpt lat="46.13958" lon="4.79861">
        <ele>177.02</ele>
        <time>2012-09-06T12:19:54Z</time>
      </trkpt>
      <trkpt lat="46.14009" lon="4.79914">
        <ele>177.02</ele>
        <time>2012-09-06T12:20:10Z</time>
      </trkpt>
      <trkpt lat="46.14056" lon="4.79966">
        <ele>176.54</ele>
        <time>2012-09-06T12:20:25Z</time>
      </trkpt>
      <trkpt lat="46.14096" lon="4.80008">
        <ele>177.5</ele>
        <time>2012-09-06T12:20:38Z</time>
      </trkpt>
      <trkpt lat="46.14114" lon="4.80029">
        <ele>177.5</ele>
        <time>2012-09-06T12:20:44Z</time>
      </trkpt>
      <trkpt lat="46.14168" lon="4.80071">
        <ele>177.02</ele>
        <time>2012-09-06T12:20:58Z</time>
      </trkpt>
      <trkpt lat="46.14195" lon="4.80091">
        <ele>177.02</ele>
        <time>2012-09-06T12:21:05Z</time>
      </trkpt>
      <trkpt lat="46.14238" lon="4.80121">
        <ele>177.02</ele>
        <time>2012-09-06T12:21:18Z</time>
      </trkpt>
      <trkpt lat="46.14295" lon="4.80152">
        <ele>177.02</ele>
        <time>2012-09-06T12:21:32Z</time>
      </trkpt>
      <trkpt lat="46.14341" lon="4.80176">
        <ele>177.02</ele>
        <time>2012-09-06T12:21:45Z</time>
      </trkpt>
      <trkpt lat="46.14344" lon="4.80176">
        <ele>177.02</ele>
        <time>2012-09-06T12:21:46Z</time>
      </trkpt>
      <trkpt lat="46.14385" lon="4.80195">
        <ele>177.02</ele>
        <time>2012-09-06T12:21:58Z</time>
      </trkpt>
      <trkpt lat="46.14431" lon="4.8021">
        <ele>177.5</ele>
        <time>2012-09-06T12:22:10Z</time>
      </trkpt>
      <trkpt lat="46.14503" lon="4.8023">
        <ele>177.02</ele>
        <time>2012-09-06T12:22:29Z</time>
      </trkpt>
      <trkpt lat="46.1456" lon="4.80245">
        <ele>177.02</ele>
        <time>2012-09-06T12:22:44Z</time>
      </trkpt>
      <trkpt lat="46.14603" lon="4.80252">
        <ele>177.02</ele>
        <time>2012-09-06T12:22:56Z</time>
      </trkpt>
      <trkpt lat="46.14629" lon="4.80236">
        <ele>177.02</ele>
        <time>2012-09-06T12:23:04Z</time>
      </trkpt>
      <trkpt lat="46.14632" lon="4.80237">
        <ele>177.02</ele>
        <time>2012-09-06T12:23:05Z</time>
      </trkpt>
      <trkpt lat="46.14634" lon="4.80239">
        <ele>177.02</ele>
        <time>2012-09-06T12:23:06Z</time>
      </trkpt>
      <trkpt lat="46.14635" lon="4.80241">
        <ele>177.5</ele>
        <time>2012-09-06T12:23:07Z</time>
      </trkpt>
      <trkpt lat="46.14638" lon="4.80244">
        <ele>177.5</ele>
        <time>2012-09-06T12:23:08Z</time>
      </trkpt>
      <trkpt lat="46.1464" lon="4.80246">
        <ele>177.02</ele>
        <time>2012-09-06T12:23:09Z</time>
      </trkpt>
      <trkpt lat="46.14686" lon="4.80269">
        <ele>177.02</ele>
        <time>2012-09-06T12:23:23Z</time>
      </trkpt>
      <trkpt lat="46.14725" lon="4.80285">
        <ele>177.02</ele>
        <time>2012-09-06T12:23:33Z</time>
      </trkpt>
      <trkpt lat="46.14776" lon="4.80306">
        <ele>177.02</ele>
        <time>2012-09-06T12:23:47Z</time>
      </trkpt>
      <trkpt lat="46.14818" lon="4.80323">
        <ele>177.02</ele>
        <time>2012-09-06T12:24:01Z</time>
      </trkpt>
      <trkpt lat="46.14823" lon="4.80326">
        <ele>177.02</ele>
        <time>2012-09-06T12:24:04Z</time>
      </trkpt>
      <trkpt lat="46.14823" lon="4.80319">
        <ele>177.02</ele>
        <time>2012-09-06T12:24:17Z</time>
      </trkpt>
      <trkpt lat="46.14823" lon="4.80316">
        <ele>177.5</ele>
        <time>2012-09-06T12:24:19Z</time>
      </trkpt>
      <trkpt lat="46.14815" lon="4.8029">
        <ele>177.98</ele>
        <time>2012-09-06T12:24:34Z</time>
      </trkpt>
      <trkpt lat="46.14817" lon="4.80265">
        <ele>177.5</ele>
        <time>2012-09-06T12:24:50Z</time>
      </trkpt>
      <trkpt lat="46.14823" lon="4.80265">
        <ele>177.5</ele>
        <time>2012-09-06T12:25:05Z</time>
      </trkpt>
      <trkpt lat="46.14826" lon="4.80266">
        <ele>177.5</ele>
        <time>2012-09-06T12:25:34Z</time>
      </trkpt>
      <trkpt lat="46.14825" lon="4.80267">
        <ele>177.5</ele>
        <time>2012-09-06T12:26:09Z</time>
      </trkpt>
      <trkpt lat="46.14824" lon="4.80265">
        <ele>177.5</ele>
        <time>2012-09-06T12:26:43Z</time>
      </trkpt>
      <trkpt lat="46.14825" lon="4.80266">
        <ele>177.5</ele>
        <time>2012-09-06T12:27:15Z</time>
      </trkpt>
      <trkpt lat="46.14825" lon="4.80266">
        <ele>177.5</ele>
        <time>2012-09-06T12:27:44Z</time>
      </trkpt>
      <trkpt lat="46.14824" lon="4.80267">
        <ele>177.5</ele>
        <time>2012-09-06T12:27:48Z</time>
      </trkpt>
      <trkpt lat="46.14823" lon="4.80268">
        <ele>177.5</ele>
        <time>2012-09-06T12:27:49Z</time>
      </trkpt>
      <trkpt lat="46.14816" lon="4.80292">
        <ele>177.98</ele>
        <time>2012-09-06T12:28:07Z</time>
      </trkpt>
      <trkpt lat="46.1482" lon="4.80301">
        <ele>177.98</ele>
        <time>2012-09-06T12:28:17Z</time>
      </trkpt>
      <trkpt lat="46.1482" lon="4.80303">
        <ele>177.98</ele>
        <time>2012-09-06T12:28:18Z</time>
      </trkpt>
      <trkpt lat="46.14821" lon="4.80305">
        <ele>177.98</ele>
        <time>2012-09-06T12:28:19Z</time>
      </trkpt>
      <trkpt lat="46.14833" lon="4.80332">
        <ele>176.54</ele>
        <time>2012-09-06T12:28:29Z</time>
      </trkpt>
      <trkpt lat="46.14868" lon="4.80346">
        <ele>177.02</ele>
        <time>2012-09-06T12:28:42Z</time>
      </trkpt>
      <trkpt lat="46.1492" lon="4.80363">
        <ele>177.02</ele>
        <time>2012-09-06T12:28:59Z</time>
      </trkpt>
      <trkpt lat="46.14967" lon="4.8038">
        <ele>176.54</ele>
        <time>2012-09-06T12:29:12Z</time>
      </trkpt>
      <trkpt lat="46.15015" lon="4.80399">
        <ele>176.06</ele>
        <time>2012-09-06T12:29:26Z</time>
      </trkpt>
      <trkpt lat="46.15051" lon="4.8041">
        <ele>176.54</ele>
        <time>2012-09-06T12:29:39Z</time>
      </trkpt>
      <trkpt lat="46.15091" lon="4.80424">
        <ele>176.06</ele>
        <time>2012-09-06T12:29:51Z</time>
      </trkpt>
      <trkpt lat="46.15129" lon="4.80434">
        <ele>176.06</ele>
        <time>2012-09-06T12:30:03Z</time>
      </trkpt>
      <trkpt lat="46.15179" lon="4.80449">
        <ele>176.06</ele>
        <time>2012-09-06T12:30:16Z</time>
      </trkpt>
      <trkpt lat="46.15238" lon="4.80469">
        <ele>176.06</ele>
        <time>2012-09-06T12:30:30Z</time>
      </trkpt>
      <trkpt lat="46.153" lon="4.80488">
        <ele>176.06</ele>
        <time>2012-09-06T12:30:45Z</time>
      </trkpt>
      <trkpt lat="46.1535" lon="4.80504">
        <ele>176.06</ele>
        <time>2012-09-06T12:30:59Z</time>
      </trkpt>
      <trkpt lat="46.15408" lon="4.80518">
        <ele>176.06</ele>
        <time>2012-09-06T12:31:13Z</time>
      </trkpt>
      <trkpt lat="46.15422" lon="4.80521">
        <ele>176.06</ele>
        <time>2012-09-06T12:31:16Z</time>
      </trkpt>
      <trkpt lat="46.15461" lon="4.80528">
        <ele>176.06</ele>
        <time>2012-09-06T12:31:25Z</time>
      </trkpt>
      <trkpt lat="46.15467" lon="4.80528">
        <ele>176.06</ele>
        <time>2012-09-06T12:31:26Z</time>
      </trkpt>
      <trkpt lat="46.15513" lon="4.80526">
        <ele>176.06</ele>
        <time>2012-09-06T12:31:36Z</time>
      </trkpt>
      <trkpt lat="46.15569" lon="4.80505">
        <ele>176.54</ele>
        <time>2012-09-06T12:31:50Z</time>
      </trkpt>
      <trkpt lat="46.15581" lon="4.80501">
        <ele>176.54</ele>
        <time>2012-09-06T12:31:53Z</time>
      </trkpt>
      <trkpt lat="46.15622" lon="4.80485">
        <ele>176.54</ele>
        <time>2012-09-06T12:32:04Z</time>
      </trkpt>
      <trkpt lat="46.15664" lon="4.80472">
        <ele>176.54</ele>
        <time>2012-09-06T12:32:16Z</time>
      </trkpt>
      <trkpt lat="46.15716" lon="4.8046">
        <ele>176.54</ele>
        <time>2012-09-06T12:32:28Z</time>
      </trkpt>
      <trkpt lat="46.15775" lon="4.80445">
        <ele>176.54</ele>
        <time>2012-09-06T12:32:42Z</time>
      </trkpt>
      <trkpt lat="46.1582" lon="4.80419">
        <ele>176.54</ele>
        <time>2012-09-06T12:32:53Z</time>
      </trkpt>
      <trkpt lat="46.15865" lon="4.80375">
        <ele>176.06</ele>
        <time>2012-09-06T12:33:07Z</time>
      </trkpt>
      <trkpt lat="46.15899" lon="4.80335">
        <ele>176.06</ele>
        <time>2012-09-06T12:33:20Z</time>
      </trkpt>
      <trkpt lat="46.159" lon="4.80333">
        <ele>176.06</ele>
        <time>2012-09-06T12:33:21Z</time>
      </trkpt>
      <trkpt lat="46.15901" lon="4.80332">
        <ele>176.06</ele>
        <time>2012-09-06T12:33:22Z</time>
      </trkpt>
      <trkpt lat="46.15902" lon="4.80331">
        <ele>176.06</ele>
        <time>2012-09-06T12:33:23Z</time>
      </trkpt>
      <trkpt lat="46.15902" lon="4.80329">
        <ele>176.06</ele>
        <time>2012-09-06T12:33:24Z</time>
      </trkpt>
      <trkpt lat="46.15902" lon="4.80328">
        <ele>176.06</ele>
        <time>2012-09-06T12:33:25Z</time>
      </trkpt>
      <trkpt lat="46.15901" lon="4.80326">
        <ele>175.58</ele>
        <time>2012-09-06T12:33:26Z</time>
      </trkpt>
      <trkpt lat="46.159" lon="4.80325">
        <ele>175.58</ele>
        <time>2012-09-06T12:33:27Z</time>
      </trkpt>
      <trkpt lat="46.15899" lon="4.80323">
        <ele>176.06</ele>
        <time>2012-09-06T12:33:28Z</time>
      </trkpt>
      <trkpt lat="46.15897" lon="4.80321">
        <ele>175.58</ele>
        <time>2012-09-06T12:33:29Z</time>
      </trkpt>
      <trkpt lat="46.15896" lon="4.80317">
        <ele>175.58</ele>
        <time>2012-09-06T12:33:30Z</time>
      </trkpt>
      <trkpt lat="46.15896" lon="4.80313">
        <ele>176.06</ele>
        <time>2012-09-06T12:33:31Z</time>
      </trkpt>
      <trkpt lat="46.15875" lon="4.80259">
        <ele>175.1</ele>
        <time>2012-09-06T12:33:43Z</time>
      </trkpt>
      <trkpt lat="46.15849" lon="4.80216">
        <ele>175.58</ele>
        <time>2012-09-06T12:33:54Z</time>
      </trkpt>
      <trkpt lat="46.15845" lon="4.80198">
        <ele>176.54</ele>
        <time>2012-09-06T12:34:06Z</time>
      </trkpt>
      <trkpt lat="46.15845" lon="4.80196">
        <ele>176.54</ele>
        <time>2012-09-06T12:34:38Z</time>
      </trkpt>
      <trkpt lat="46.15843" lon="4.80198">
        <ele>176.54</ele>
        <time>2012-09-06T12:34:47Z</time>
      </trkpt>
      <trkpt lat="46.15845" lon="4.802">
        <ele>176.54</ele>
        <time>2012-09-06T12:34:48Z</time>
      </trkpt>
      <trkpt lat="46.15847" lon="4.80202">
        <ele>177.5</ele>
        <time>2012-09-06T12:34:49Z</time>
      </trkpt>
      <trkpt lat="46.15849" lon="4.80205">
        <ele>176.54</ele>
        <time>2012-09-06T12:34:50Z</time>
      </trkpt>
      <trkpt lat="46.1585" lon="4.8021">
        <ele>176.06</ele>
        <time>2012-09-06T12:34:51Z</time>
      </trkpt>
      <trkpt lat="46.15852" lon="4.80215">
        <ele>176.06</ele>
        <time>2012-09-06T12:34:52Z</time>
      </trkpt>
      <trkpt lat="46.15856" lon="4.80226">
        <ele>175.58</ele>
        <time>2012-09-06T12:34:54Z</time>
      </trkpt>
      <trkpt lat="46.15858" lon="4.80232">
        <ele>175.1</ele>
        <time>2012-09-06T12:34:55Z</time>
      </trkpt>
      <trkpt lat="46.15861" lon="4.80236">
        <ele>175.1</ele>
        <time>2012-09-06T12:34:56Z</time>
      </trkpt>
      <trkpt lat="46.15887" lon="4.80282">
        <ele>175.1</ele>
        <time>2012-09-06T12:35:08Z</time>
      </trkpt>
      <trkpt lat="46.15903" lon="4.80327">
        <ele>175.58</ele>
        <time>2012-09-06T12:35:20Z</time>
      </trkpt>
      <trkpt lat="46.15905" lon="4.80328">
        <ele>175.58</ele>
        <time>2012-09-06T12:35:21Z</time>
      </trkpt>
      <trkpt lat="46.15907" lon="4.80328">
        <ele>176.06</ele>
        <time>2012-09-06T12:35:22Z</time>
      </trkpt>
      <trkpt lat="46.15909" lon="4.80327">
        <ele>175.58</ele>
        <time>2012-09-06T12:35:23Z</time>
      </trkpt>
      <trkpt lat="46.15911" lon="4.80325">
        <ele>176.06</ele>
        <time>2012-09-06T12:35:24Z</time>
      </trkpt>
      <trkpt lat="46.15938" lon="4.80291">
        <ele>175.58</ele>
        <time>2012-09-06T12:35:37Z</time>
      </trkpt>
      <trkpt lat="46.15964" lon="4.80259">
        <ele>176.06</ele>
        <time>2012-09-06T12:35:48Z</time>
      </trkpt>
      <trkpt lat="46.15993" lon="4.80212">
        <ele>176.06</ele>
        <time>2012-09-06T12:36:02Z</time>
      </trkpt>
      <trkpt lat="46.16025" lon="4.80158">
        <ele>176.06</ele>
        <time>2012-09-06T12:36:17Z</time>
      </trkpt>
      <trkpt lat="46.16053" lon="4.80113">
        <ele>175.58</ele>
        <time>2012-09-06T12:36:31Z</time>
      </trkpt>
      <trkpt lat="46.16054" lon="4.8011">
        <ele>175.58</ele>
        <time>2012-09-06T12:36:32Z</time>
      </trkpt>
      <trkpt lat="46.16055" lon="4.80108">
        <ele>175.58</ele>
        <time>2012-09-06T12:36:33Z</time>
      </trkpt>
      <trkpt lat="46.1606" lon="4.80097">
        <ele>176.06</ele>
        <time>2012-09-06T12:36:42Z</time>
      </trkpt>
      <trkpt lat="46.16068" lon="4.80082">
        <ele>177.5</ele>
        <time>2012-09-06T12:36:50Z</time>
      </trkpt>
      <trkpt lat="46.1607" lon="4.80081">
        <ele>176.06</ele>
        <time>2012-09-06T12:36:51Z</time>
      </trkpt>
      <trkpt lat="46.16078" lon="4.80081">
        <ele>175.58</ele>
        <time>2012-09-06T12:36:57Z</time>
      </trkpt>
      <trkpt lat="46.16087" lon="4.80067">
        <ele>175.58</ele>
        <time>2012-09-06T12:37:04Z</time>
      </trkpt>
      <trkpt lat="46.16105" lon="4.80032">
        <ele>175.58</ele>
        <time>2012-09-06T12:37:18Z</time>
      </trkpt>
      <trkpt lat="46.1611" lon="4.80024">
        <ele>175.58</ele>
        <time>2012-09-06T12:37:21Z</time>
      </trkpt>
      <trkpt lat="46.16133" lon="4.79984">
        <ele>175.58</ele>
        <time>2012-09-06T12:37:35Z</time>
      </trkpt>
      <trkpt lat="46.16159" lon="4.79932">
        <ele>175.58</ele>
        <time>2012-09-06T12:37:46Z</time>
      </trkpt>
      <trkpt lat="46.16177" lon="4.79902">
        <ele>175.58</ele>
        <time>2012-09-06T12:37:53Z</time>
      </trkpt>
      <trkpt lat="46.16212" lon="4.79836">
        <ele>175.58</ele>
        <time>2012-09-06T12:38:08Z</time>
      </trkpt>
      <trkpt lat="46.16227" lon="4.79808">
        <ele>175.58</ele>
        <time>2012-09-06T12:38:19Z</time>
      </trkpt>
      <trkpt lat="46.16248" lon="4.79769">
        <ele>175.58</ele>
        <time>2012-09-06T12:38:29Z</time>
      </trkpt>
      <trkpt lat="46.16266" lon="4.79739">
        <ele>175.58</ele>
        <time>2012-09-06T12:38:41Z</time>
      </trkpt>
      <trkpt lat="46.16296" lon="4.79681">
        <ele>175.58</ele>
        <time>2012-09-06T12:38:55Z</time>
      </trkpt>
      <trkpt lat="46.1632" lon="4.79627">
        <ele>175.58</ele>
        <time>2012-09-06T12:39:07Z</time>
      </trkpt>
      <trkpt lat="46.16328" lon="4.79607">
        <ele>175.58</ele>
        <time>2012-09-06T12:39:11Z</time>
      </trkpt>
      <trkpt lat="46.16329" lon="4.79602">
        <ele>175.58</ele>
        <time>2012-09-06T12:39:12Z</time>
      </trkpt>
      <trkpt lat="46.16331" lon="4.79597">
        <ele>175.58</ele>
        <time>2012-09-06T12:39:13Z</time>
      </trkpt>
      <trkpt lat="46.16333" lon="4.79593">
        <ele>175.58</ele>
        <time>2012-09-06T12:39:14Z</time>
      </trkpt>
      <trkpt lat="46.16334" lon="4.79588">
        <ele>175.1</ele>
        <time>2012-09-06T12:39:15Z</time>
      </trkpt>
      <trkpt lat="46.16341" lon="4.79557">
        <ele>175.1</ele>
        <time>2012-09-06T12:39:21Z</time>
      </trkpt>
      <trkpt lat="46.16343" lon="4.79551">
        <ele>175.1</ele>
        <time>2012-09-06T12:39:22Z</time>
      </trkpt>
      <trkpt lat="46.16351" lon="4.79528">
        <ele>175.1</ele>
        <time>2012-09-06T12:39:26Z</time>
      </trkpt>
      <trkpt lat="46.16383" lon="4.79463">
        <ele>175.1</ele>
        <time>2012-09-06T12:39:41Z</time>
      </trkpt>
      <trkpt lat="46.16398" lon="4.79434">
        <ele>174.62</ele>
        <time>2012-09-06T12:39:49Z</time>
      </trkpt>
      <trkpt lat="46.16398" lon="4.79432">
        <ele>174.62</ele>
        <time>2012-09-06T12:39:50Z</time>
      </trkpt>
      <trkpt lat="46.16399" lon="4.7943">
        <ele>175.1</ele>
        <time>2012-09-06T12:39:51Z</time>
      </trkpt>
      <trkpt lat="46.16399" lon="4.79427">
        <ele>174.62</ele>
        <time>2012-09-06T12:39:52Z</time>
      </trkpt>
      <trkpt lat="46.164" lon="4.79425">
        <ele>175.1</ele>
        <time>2012-09-06T12:39:53Z</time>
      </trkpt>
      <trkpt lat="46.16401" lon="4.79424">
        <ele>175.1</ele>
        <time>2012-09-06T12:39:54Z</time>
      </trkpt>
      <trkpt lat="46.16409" lon="4.79412">
        <ele>175.1</ele>
        <time>2012-09-06T12:40:02Z</time>
      </trkpt>
      <trkpt lat="46.16411" lon="4.79412">
        <ele>175.58</ele>
        <time>2012-09-06T12:40:03Z</time>
      </trkpt>
      <trkpt lat="46.16412" lon="4.79412">
        <ele>175.58</ele>
        <time>2012-09-06T12:40:04Z</time>
      </trkpt>
      <trkpt lat="46.16414" lon="4.79415">
        <ele>175.58</ele>
        <time>2012-09-06T12:40:11Z</time>
      </trkpt>
      <trkpt lat="46.16416" lon="4.79418">
        <ele>175.1</ele>
        <time>2012-09-06T12:40:27Z</time>
      </trkpt>
      <trkpt lat="46.16414" lon="4.79418">
        <ele>175.1</ele>
        <time>2012-09-06T12:41:01Z</time>
      </trkpt>
      <trkpt lat="46.16415" lon="4.79418">
        <ele>175.1</ele>
        <time>2012-09-06T12:41:30Z</time>
      </trkpt>
      <trkpt lat="46.16417" lon="4.79417">
        <ele>175.1</ele>
        <time>2012-09-06T12:41:59Z</time>
      </trkpt>
      <trkpt lat="46.16417" lon="4.79416">
        <ele>175.1</ele>
        <time>2012-09-06T12:42:00Z</time>
      </trkpt>
      <trkpt lat="46.16417" lon="4.79411">
        <ele>175.1</ele>
        <time>2012-09-06T12:42:11Z</time>
      </trkpt>
      <trkpt lat="46.16417" lon="4.79406">
        <ele>175.1</ele>
        <time>2012-09-06T12:42:13Z</time>
      </trkpt>
      <trkpt lat="46.16418" lon="4.79404">
        <ele>175.1</ele>
        <time>2012-09-06T12:42:14Z</time>
      </trkpt>
      <trkpt lat="46.16419" lon="4.79402">
        <ele>175.1</ele>
        <time>2012-09-06T12:42:15Z</time>
      </trkpt>
      <trkpt lat="46.16438" lon="4.79365">
        <ele>175.1</ele>
        <time>2012-09-06T12:42:30Z</time>
      </trkpt>
      <trkpt lat="46.16452" lon="4.79343">
        <ele>175.1</ele>
        <time>2012-09-06T12:42:41Z</time>
      </trkpt>
      <trkpt lat="46.16453" lon="4.7934">
        <ele>175.1</ele>
        <time>2012-09-06T12:42:43Z</time>
      </trkpt>
      <trkpt lat="46.16452" lon="4.79338">
        <ele>175.1</ele>
        <time>2012-09-06T12:42:44Z</time>
      </trkpt>
      <trkpt lat="46.16452" lon="4.79335">
        <ele>175.1</ele>
        <time>2012-09-06T12:42:45Z</time>
      </trkpt>
      <trkpt lat="46.16453" lon="4.79332">
        <ele>175.1</ele>
        <time>2012-09-06T12:42:46Z</time>
      </trkpt>
      <trkpt lat="46.16454" lon="4.79329">
        <ele>175.1</ele>
        <time>2012-09-06T12:42:47Z</time>
      </trkpt>
      <trkpt lat="46.16456" lon="4.79326">
        <ele>175.1</ele>
        <time>2012-09-06T12:42:48Z</time>
      </trkpt>
      <trkpt lat="46.16478" lon="4.79285">
        <ele>174.62</ele>
        <time>2012-09-06T12:42:59Z</time>
      </trkpt>
      <trkpt lat="46.16478" lon="4.79282">
        <ele>175.1</ele>
        <time>2012-09-06T12:43:00Z</time>
      </trkpt>
      <trkpt lat="46.16478" lon="4.79279">
        <ele>174.62</ele>
        <time>2012-09-06T12:43:01Z</time>
      </trkpt>
      <trkpt lat="46.16479" lon="4.79276">
        <ele>174.62</ele>
        <time>2012-09-06T12:43:02Z</time>
      </trkpt>
      <trkpt lat="46.1648" lon="4.79273">
        <ele>174.62</ele>
        <time>2012-09-06T12:43:03Z</time>
      </trkpt>
      <trkpt lat="46.16481" lon="4.7927">
        <ele>175.1</ele>
        <time>2012-09-06T12:43:04Z</time>
      </trkpt>
      <trkpt lat="46.16497" lon="4.79233">
        <ele>175.1</ele>
        <time>2012-09-06T12:43:15Z</time>
      </trkpt>
      <trkpt lat="46.16503" lon="4.79213">
        <ele>174.14</ele>
        <time>2012-09-06T12:43:21Z</time>
      </trkpt>
      <trkpt lat="46.16502" lon="4.79211">
        <ele>174.14</ele>
        <time>2012-09-06T12:43:22Z</time>
      </trkpt>
      <trkpt lat="46.16501" lon="4.79212">
        <ele>174.14</ele>
        <time>2012-09-06T12:43:23Z</time>
      </trkpt>
      <trkpt lat="46.16504" lon="4.79217">
        <ele>174.14</ele>
        <time>2012-09-06T12:43:31Z</time>
      </trkpt>
      <trkpt lat="46.16503" lon="4.79219">
        <ele>174.62</ele>
        <time>2012-09-06T12:43:32Z</time>
      </trkpt>
      <trkpt lat="46.16503" lon="4.79221">
        <ele>174.62</ele>
        <time>2012-09-06T12:43:33Z</time>
      </trkpt>
      <trkpt lat="46.16502" lon="4.79223">
        <ele>174.62</ele>
        <time>2012-09-06T12:43:34Z</time>
      </trkpt>
      <trkpt lat="46.16501" lon="4.79226">
        <ele>174.62</ele>
        <time>2012-09-06T12:43:35Z</time>
      </trkpt>
      <trkpt lat="46.16492" lon="4.79246">
        <ele>175.1</ele>
        <time>2012-09-06T12:43:43Z</time>
      </trkpt>
      <trkpt lat="46.16492" lon="4.79249">
        <ele>175.1</ele>
        <time>2012-09-06T12:43:44Z</time>
      </trkpt>
      <trkpt lat="46.16493" lon="4.79251">
        <ele>175.1</ele>
        <time>2012-09-06T12:43:45Z</time>
      </trkpt>
      <trkpt lat="46.16494" lon="4.79253">
        <ele>175.1</ele>
        <time>2012-09-06T12:43:47Z</time>
      </trkpt>
      <trkpt lat="46.16495" lon="4.79253">
        <ele>175.1</ele>
        <time>2012-09-06T12:43:48Z</time>
      </trkpt>
      <trkpt lat="46.16497" lon="4.79252">
        <ele>175.1</ele>
        <time>2012-09-06T12:43:49Z</time>
      </trkpt>
      <trkpt lat="46.16498" lon="4.7925">
        <ele>175.1</ele>
        <time>2012-09-06T12:43:50Z</time>
      </trkpt>
      <trkpt lat="46.16498" lon="4.79248">
        <ele>175.1</ele>
        <time>2012-09-06T12:43:59Z</time>
      </trkpt>
      <trkpt lat="46.16498" lon="4.79248">
        <ele>175.1</ele>
        <time>2012-09-06T12:44:20Z</time>
      </trkpt>
      <trkpt lat="46.16499" lon="4.79249">
        <ele>175.1</ele>
        <time>2012-09-06T12:44:54Z</time>
      </trkpt>
      <trkpt lat="46.16498" lon="4.79249">
        <ele>175.1</ele>
        <time>2012-09-06T12:45:38Z</time>
      </trkpt>
      <trkpt lat="46.16496" lon="4.79249">
        <ele>175.1</ele>
        <time>2012-09-06T12:46:13Z</time>
      </trkpt>
      <trkpt lat="46.16496" lon="4.7925">
        <ele>175.1</ele>
        <time>2012-09-06T12:46:14Z</time>
      </trkpt>
      <trkpt lat="46.16495" lon="4.79252">
        <ele>174.62</ele>
        <time>2012-09-06T12:46:15Z</time>
      </trkpt>
      <trkpt lat="46.16496" lon="4.79253">
        <ele>175.1</ele>
        <time>2012-09-06T12:46:16Z</time>
      </trkpt>
      <trkpt lat="46.16496" lon="4.79255">
        <ele>175.1</ele>
        <time>2012-09-06T12:46:17Z</time>
      </trkpt>
      <trkpt lat="46.16497" lon="4.79256">
        <ele>174.62</ele>
        <time>2012-09-06T12:46:18Z</time>
      </trkpt>
      <trkpt lat="46.16503" lon="4.79266">
        <ele>174.14</ele>
        <time>2012-09-06T12:46:34Z</time>
      </trkpt>
      <trkpt lat="46.16503" lon="4.79267">
        <ele>173.66</ele>
        <time>2012-09-06T12:46:55Z</time>
      </trkpt>
      <trkpt lat="46.16503" lon="4.79267">
        <ele>175.58</ele>
        <time>2012-09-06T12:46:56Z</time>
      </trkpt>
      <trkpt lat="46.16496" lon="4.79255">
        <ele>174.62</ele>
        <time>2012-09-06T13:25:32Z</time>
      </trkpt>
      <trkpt lat="46.16494" lon="4.79253">
        <ele>174.62</ele>
        <time>2012-09-06T13:25:33Z</time>
      </trkpt>
      <trkpt lat="46.1651" lon="4.79222">
        <ele>176.06</ele>
        <time>2012-09-06T13:25:52Z</time>
      </trkpt>
      <trkpt lat="46.16515" lon="4.7921">
        <ele>177.02</ele>
        <time>2012-09-06T13:26:02Z</time>
      </trkpt>
      <trkpt lat="46.16515" lon="4.79203">
        <ele>177.5</ele>
        <time>2012-09-06T13:26:06Z</time>
      </trkpt>
      <trkpt lat="46.16515" lon="4.79197">
        <ele>177.5</ele>
        <time>2012-09-06T13:26:12Z</time>
      </trkpt>
      <trkpt lat="46.16515" lon="4.79193">
        <ele>177.5</ele>
        <time>2012-09-06T13:26:14Z</time>
      </trkpt>
      <trkpt lat="46.16514" lon="4.79188">
        <ele>177.5</ele>
        <time>2012-09-06T13:26:27Z</time>
      </trkpt>
      <trkpt lat="46.16512" lon="4.79162">
        <ele>176.54</ele>
        <time>2012-09-06T13:26:45Z</time>
      </trkpt>
      <trkpt lat="46.16513" lon="4.79156">
        <ele>176.54</ele>
        <time>2012-09-06T13:26:46Z</time>
      </trkpt>
      <trkpt lat="46.16516" lon="4.79143">
        <ele>175.58</ele>
        <time>2012-09-06T13:26:48Z</time>
      </trkpt>
      <trkpt lat="46.16548" lon="4.79051">
        <ele>174.62</ele>
        <time>2012-09-06T13:27:05Z</time>
      </trkpt>
      <trkpt lat="46.16579" lon="4.78998">
        <ele>174.62</ele>
        <time>2012-09-06T13:27:18Z</time>
      </trkpt>
      <trkpt lat="46.16589" lon="4.78981">
        <ele>168.85</ele>
        <time>2012-09-06T13:27:22Z</time>
      </trkpt>
      <trkpt lat="46.16591" lon="4.78977">
        <ele>179.42</ele>
        <time>2012-09-06T13:27:23Z</time>
      </trkpt>
      <trkpt lat="46.16595" lon="4.78969">
        <ele>175.1</ele>
        <time>2012-09-06T13:27:25Z</time>
      </trkpt>
      <trkpt lat="46.16597" lon="4.78965">
        <ele>175.1</ele>
        <time>2012-09-06T13:27:26Z</time>
      </trkpt>
      <trkpt lat="46.16636" lon="4.78892">
        <ele>174.62</ele>
        <time>2012-09-06T13:27:42Z</time>
      </trkpt>
      <trkpt lat="46.16646" lon="4.78872">
        <ele>174.62</ele>
        <time>2012-09-06T13:27:46Z</time>
      </trkpt>
      <trkpt lat="46.16693" lon="4.7878">
        <ele>174.62</ele>
        <time>2012-09-06T13:28:04Z</time>
      </trkpt>
      <trkpt lat="46.16724" lon="4.78726">
        <ele>174.62</ele>
        <time>2012-09-06T13:28:15Z</time>
      </trkpt>
      <trkpt lat="46.16764" lon="4.78686">
        <ele>174.62</ele>
        <time>2012-09-06T13:28:26Z</time>
      </trkpt>
      <trkpt lat="46.16768" lon="4.78682">
        <ele>174.62</ele>
        <time>2012-09-06T13:28:27Z</time>
      </trkpt>
      <trkpt lat="46.16798" lon="4.78646">
        <ele>174.62</ele>
        <time>2012-09-06T13:28:36Z</time>
      </trkpt>
      <trkpt lat="46.1683" lon="4.78614">
        <ele>174.62</ele>
        <time>2012-09-06T13:28:45Z</time>
      </trkpt>
      <trkpt lat="46.16834" lon="4.78612">
        <ele>174.62</ele>
        <time>2012-09-06T13:28:46Z</time>
      </trkpt>
      <trkpt lat="46.16896" lon="4.78578">
        <ele>174.62</ele>
        <time>2012-09-06T13:29:01Z</time>
      </trkpt>
      <trkpt lat="46.16956" lon="4.78531">
        <ele>174.62</ele>
        <time>2012-09-06T13:29:17Z</time>
      </trkpt>
      <trkpt lat="46.16967" lon="4.78521">
        <ele>174.62</ele>
        <time>2012-09-06T13:29:20Z</time>
      </trkpt>
      <trkpt lat="46.16986" lon="4.78508">
        <ele>174.62</ele>
        <time>2012-09-06T13:29:25Z</time>
      </trkpt>
      <trkpt lat="46.17034" lon="4.78484">
        <ele>174.62</ele>
        <time>2012-09-06T13:29:39Z</time>
      </trkpt>
      <trkpt lat="46.17078" lon="4.78456">
        <ele>174.62</ele>
        <time>2012-09-06T13:29:52Z</time>
      </trkpt>
      <trkpt lat="46.1713" lon="4.78424">
        <ele>175.1</ele>
        <time>2012-09-06T13:30:07Z</time>
      </trkpt>
      <trkpt lat="46.17179" lon="4.78394">
        <ele>174.62</ele>
        <time>2012-09-06T13:30:21Z</time>
      </trkpt>
      <trkpt lat="46.17231" lon="4.78366">
        <ele>174.62</ele>
        <time>2012-09-06T13:30:34Z</time>
      </trkpt>
      <trkpt lat="46.17275" lon="4.78341">
        <ele>174.62</ele>
        <time>2012-09-06T13:30:47Z</time>
      </trkpt>
      <trkpt lat="46.17313" lon="4.78321">
        <ele>175.1</ele>
        <time>2012-09-06T13:30:59Z</time>
      </trkpt>
      <trkpt lat="46.17356" lon="4.78304">
        <ele>174.62</ele>
        <time>2012-09-06T13:31:12Z</time>
      </trkpt>
      <trkpt lat="46.174" lon="4.78294">
        <ele>174.62</ele>
        <time>2012-09-06T13:31:24Z</time>
      </trkpt>
      <trkpt lat="46.17452" lon="4.78281">
        <ele>174.62</ele>
        <time>2012-09-06T13:31:37Z</time>
      </trkpt>
      <trkpt lat="46.17491" lon="4.78271">
        <ele>174.62</ele>
        <time>2012-09-06T13:31:47Z</time>
      </trkpt>
      <trkpt lat="46.17555" lon="4.78256">
        <ele>174.62</ele>
        <time>2012-09-06T13:32:01Z</time>
      </trkpt>
      <trkpt lat="46.17605" lon="4.7825">
        <ele>174.62</ele>
        <time>2012-09-06T13:32:13Z</time>
      </trkpt>
      <trkpt lat="46.17654" lon="4.78242">
        <ele>174.62</ele>
        <time>2012-09-06T13:32:26Z</time>
      </trkpt>
      <trkpt lat="46.17691" lon="4.78231">
        <ele>174.62</ele>
        <time>2012-09-06T13:32:36Z</time>
      </trkpt>
      <trkpt lat="46.17737" lon="4.78227">
        <ele>174.62</ele>
        <time>2012-09-06T13:32:47Z</time>
      </trkpt>
      <trkpt lat="46.17799" lon="4.78221">
        <ele>174.62</ele>
        <time>2012-09-06T13:33:01Z</time>
      </trkpt>
      <trkpt lat="46.17866" lon="4.78219">
        <ele>174.14</ele>
        <time>2012-09-06T13:33:16Z</time>
      </trkpt>
      <trkpt lat="46.17883" lon="4.78217">
        <ele>174.14</ele>
        <time>2012-09-06T13:33:20Z</time>
      </trkpt>
      <trkpt lat="46.17887" lon="4.78217">
        <ele>174.14</ele>
        <time>2012-09-06T13:33:21Z</time>
      </trkpt>
      <trkpt lat="46.17934" lon="4.78213">
        <ele>174.14</ele>
        <time>2012-09-06T13:33:32Z</time>
      </trkpt>
      <trkpt lat="46.17986" lon="4.78209">
        <ele>174.62</ele>
        <time>2012-09-06T13:33:45Z</time>
      </trkpt>
      <trkpt lat="46.1799" lon="4.78209">
        <ele>174.62</ele>
        <time>2012-09-06T13:33:46Z</time>
      </trkpt>
      <trkpt lat="46.18035" lon="4.78205">
        <ele>174.14</ele>
        <time>2012-09-06T13:33:57Z</time>
      </trkpt>
      <trkpt lat="46.18095" lon="4.78204">
        <ele>174.14</ele>
        <time>2012-09-06T13:34:11Z</time>
      </trkpt>
      <trkpt lat="46.18123" lon="4.78204">
        <ele>174.62</ele>
        <time>2012-09-06T13:34:17Z</time>
      </trkpt>
      <trkpt lat="46.18127" lon="4.78204">
        <ele>174.62</ele>
        <time>2012-09-06T13:34:18Z</time>
      </trkpt>
      <trkpt lat="46.18186" lon="4.78201">
        <ele>174.62</ele>
        <time>2012-09-06T13:34:31Z</time>
      </trkpt>
      <trkpt lat="46.18229" lon="4.78197">
        <ele>174.62</ele>
        <time>2012-09-06T13:34:42Z</time>
      </trkpt>
      <trkpt lat="46.18274" lon="4.78194">
        <ele>174.14</ele>
        <time>2012-09-06T13:34:53Z</time>
      </trkpt>
      <trkpt lat="46.1833" lon="4.78194">
        <ele>174.14</ele>
        <time>2012-09-06T13:35:05Z</time>
      </trkpt>
      <trkpt lat="46.18338" lon="4.78193">
        <ele>174.14</ele>
        <time>2012-09-06T13:35:07Z</time>
      </trkpt>
      <trkpt lat="46.18387" lon="4.78192">
        <ele>174.14</ele>
        <time>2012-09-06T13:35:19Z</time>
      </trkpt>
      <trkpt lat="46.18441" lon="4.78192">
        <ele>174.14</ele>
        <time>2012-09-06T13:35:32Z</time>
      </trkpt>
      <trkpt lat="46.18464" lon="4.78191">
        <ele>174.14</ele>
        <time>2012-09-06T13:35:43Z</time>
      </trkpt>
      <trkpt lat="46.18495" lon="4.78188">
        <ele>174.14</ele>
        <time>2012-09-06T13:35:54Z</time>
      </trkpt>
      <trkpt lat="46.18529" lon="4.78182">
        <ele>173.66</ele>
        <time>2012-09-06T13:36:05Z</time>
      </trkpt>
      <trkpt lat="46.18574" lon="4.78179">
        <ele>173.66</ele>
        <time>2012-09-06T13:36:17Z</time>
      </trkpt>
      <trkpt lat="46.18629" lon="4.78169">
        <ele>173.66</ele>
        <time>2012-09-06T13:36:30Z</time>
      </trkpt>
      <trkpt lat="46.18665" lon="4.78163">
        <ele>174.14</ele>
        <time>2012-09-06T13:36:40Z</time>
      </trkpt>
      <trkpt lat="46.18713" lon="4.78155">
        <ele>173.66</ele>
        <time>2012-09-06T13:36:52Z</time>
      </trkpt>
      <trkpt lat="46.18747" lon="4.7815">
        <ele>173.66</ele>
        <time>2012-09-06T13:37:00Z</time>
      </trkpt>
      <trkpt lat="46.18754" lon="4.78147">
        <ele>173.66</ele>
        <time>2012-09-06T13:37:02Z</time>
      </trkpt>
      <trkpt lat="46.18772" lon="4.7814">
        <ele>173.66</ele>
        <time>2012-09-06T13:37:06Z</time>
      </trkpt>
      <trkpt lat="46.18811" lon="4.78118">
        <ele>173.66</ele>
        <time>2012-09-06T13:37:17Z</time>
      </trkpt>
      <trkpt lat="46.18833" lon="4.78121">
        <ele>173.17</ele>
        <time>2012-09-06T13:37:27Z</time>
      </trkpt>
      <trkpt lat="46.18866" lon="4.78132">
        <ele>173.17</ele>
        <time>2012-09-06T13:37:38Z</time>
      </trkpt>
      <trkpt lat="46.18908" lon="4.78149">
        <ele>173.66</ele>
        <time>2012-09-06T13:37:51Z</time>
      </trkpt>
      <trkpt lat="46.1892" lon="4.78154">
        <ele>173.17</ele>
        <time>2012-09-06T13:38:02Z</time>
      </trkpt>
      <trkpt lat="46.1892" lon="4.78156">
        <ele>173.17</ele>
        <time>2012-09-06T13:38:24Z</time>
      </trkpt>
      <trkpt lat="46.18929" lon="4.78156">
        <ele>173.17</ele>
        <time>2012-09-06T13:38:43Z</time>
      </trkpt>
      <trkpt lat="46.18971" lon="4.7818">
        <ele>173.17</ele>
        <time>2012-09-06T13:38:58Z</time>
      </trkpt>
      <trkpt lat="46.19012" lon="4.78218">
        <ele>173.17</ele>
        <time>2012-09-06T13:39:12Z</time>
      </trkpt>
      <trkpt lat="46.19054" lon="4.7826">
        <ele>173.17</ele>
        <time>2012-09-06T13:39:28Z</time>
      </trkpt>
      <trkpt lat="46.19086" lon="4.7829">
        <ele>173.17</ele>
        <time>2012-09-06T13:39:40Z</time>
      </trkpt>
      <trkpt lat="46.19127" lon="4.7833">
        <ele>173.66</ele>
        <time>2012-09-06T13:39:56Z</time>
      </trkpt>
      <trkpt lat="46.19173" lon="4.78376">
        <ele>173.17</ele>
        <time>2012-09-06T13:40:13Z</time>
      </trkpt>
      <trkpt lat="46.19222" lon="4.78424">
        <ele>173.17</ele>
        <time>2012-09-06T13:40:32Z</time>
      </trkpt>
      <trkpt lat="46.1925" lon="4.78451">
        <ele>173.17</ele>
        <time>2012-09-06T13:40:44Z</time>
      </trkpt>
      <trkpt lat="46.19289" lon="4.78491">
        <ele>173.17</ele>
        <time>2012-09-06T13:41:00Z</time>
      </trkpt>
      <trkpt lat="46.19324" lon="4.78525">
        <ele>173.17</ele>
        <time>2012-09-06T13:41:14Z</time>
      </trkpt>
      <trkpt lat="46.19361" lon="4.78561">
        <ele>172.69</ele>
        <time>2012-09-06T13:41:28Z</time>
      </trkpt>
      <trkpt lat="46.19399" lon="4.78601">
        <ele>172.69</ele>
        <time>2012-09-06T13:41:43Z</time>
      </trkpt>
      <trkpt lat="46.19439" lon="4.78644">
        <ele>173.17</ele>
        <time>2012-09-06T13:41:59Z</time>
      </trkpt>
      <trkpt lat="46.19471" lon="4.78681">
        <ele>172.69</ele>
        <time>2012-09-06T13:42:13Z</time>
      </trkpt>
      <trkpt lat="46.19508" lon="4.78726">
        <ele>172.69</ele>
        <time>2012-09-06T13:42:30Z</time>
      </trkpt>
      <trkpt lat="46.19541" lon="4.78765">
        <ele>172.69</ele>
        <time>2012-09-06T13:42:45Z</time>
      </trkpt>
      <trkpt lat="46.1957" lon="4.788">
        <ele>172.69</ele>
        <time>2012-09-06T13:42:59Z</time>
      </trkpt>
      <trkpt lat="46.19597" lon="4.78828">
        <ele>172.69</ele>
        <time>2012-09-06T13:43:11Z</time>
      </trkpt>
      <trkpt lat="46.19632" lon="4.78869">
        <ele>172.69</ele>
        <time>2012-09-06T13:43:25Z</time>
      </trkpt>
      <trkpt lat="46.19669" lon="4.78914">
        <ele>172.69</ele>
        <time>2012-09-06T13:43:39Z</time>
      </trkpt>
      <trkpt lat="46.19708" lon="4.78963">
        <ele>172.21</ele>
        <time>2012-09-06T13:43:54Z</time>
      </trkpt>
      <trkpt lat="46.19724" lon="4.78985">
        <ele>172.21</ele>
        <time>2012-09-06T13:44:01Z</time>
      </trkpt>
      <trkpt lat="46.19726" lon="4.78986">
        <ele>172.21</ele>
        <time>2012-09-06T13:44:02Z</time>
      </trkpt>
      <trkpt lat="46.19727" lon="4.78988">
        <ele>172.21</ele>
        <time>2012-09-06T13:44:03Z</time>
      </trkpt>
      <trkpt lat="46.19729" lon="4.78989">
        <ele>172.21</ele>
        <time>2012-09-06T13:44:04Z</time>
      </trkpt>
      <trkpt lat="46.19731" lon="4.78991">
        <ele>172.21</ele>
        <time>2012-09-06T13:44:05Z</time>
      </trkpt>
      <trkpt lat="46.19733" lon="4.78993">
        <ele>172.69</ele>
        <time>2012-09-06T13:44:06Z</time>
      </trkpt>
      <trkpt lat="46.19764" lon="4.79027">
        <ele>172.21</ele>
        <time>2012-09-06T13:44:18Z</time>
      </trkpt>
      <trkpt lat="46.1979" lon="4.79058">
        <ele>172.21</ele>
        <time>2012-09-06T13:44:28Z</time>
      </trkpt>
      <trkpt lat="46.19819" lon="4.79092">
        <ele>172.21</ele>
        <time>2012-09-06T13:44:39Z</time>
      </trkpt>
      <trkpt lat="46.19853" lon="4.79131">
        <ele>172.21</ele>
        <time>2012-09-06T13:44:51Z</time>
      </trkpt>
      <trkpt lat="46.19883" lon="4.79169">
        <ele>172.21</ele>
        <time>2012-09-06T13:45:01Z</time>
      </trkpt>
      <trkpt lat="46.19913" lon="4.79205">
        <ele>172.21</ele>
        <time>2012-09-06T13:45:11Z</time>
      </trkpt>
      <trkpt lat="46.19952" lon="4.79252">
        <ele>172.21</ele>
        <time>2012-09-06T13:45:24Z</time>
      </trkpt>
      <trkpt lat="46.19988" lon="4.79296">
        <ele>172.21</ele>
        <time>2012-09-06T13:45:36Z</time>
      </trkpt>
      <trkpt lat="46.20037" lon="4.79354">
        <ele>172.21</ele>
        <time>2012-09-06T13:45:51Z</time>
      </trkpt>
      <trkpt lat="46.201" lon="4.79428">
        <ele>172.21</ele>
        <time>2012-09-06T13:46:10Z</time>
      </trkpt>
      <trkpt lat="46.20138" lon="4.7947">
        <ele>172.21</ele>
        <time>2012-09-06T13:46:21Z</time>
      </trkpt>
      <trkpt lat="46.20163" lon="4.79494">
        <ele>172.21</ele>
        <time>2012-09-06T13:46:28Z</time>
      </trkpt>
      <trkpt lat="46.20167" lon="4.79496">
        <ele>172.21</ele>
        <time>2012-09-06T13:46:29Z</time>
      </trkpt>
      <trkpt lat="46.2017" lon="4.79499">
        <ele>172.21</ele>
        <time>2012-09-06T13:46:30Z</time>
      </trkpt>
      <trkpt lat="46.20173" lon="4.795">
        <ele>172.69</ele>
        <time>2012-09-06T13:46:31Z</time>
      </trkpt>
      <trkpt lat="46.20175" lon="4.79501">
        <ele>172.69</ele>
        <time>2012-09-06T13:46:32Z</time>
      </trkpt>
      <trkpt lat="46.20177" lon="4.79503">
        <ele>172.69</ele>
        <time>2012-09-06T13:46:33Z</time>
      </trkpt>
      <trkpt lat="46.20216" lon="4.79538">
        <ele>171.73</ele>
        <time>2012-09-06T13:46:46Z</time>
      </trkpt>
      <trkpt lat="46.20241" lon="4.79553">
        <ele>171.25</ele>
        <time>2012-09-06T13:46:52Z</time>
      </trkpt>
      <trkpt lat="46.20304" lon="4.7957">
        <ele>171.25</ele>
        <time>2012-09-06T13:47:07Z</time>
      </trkpt>
      <trkpt lat="46.20373" lon="4.79577">
        <ele>171.25</ele>
        <time>2012-09-06T13:47:25Z</time>
      </trkpt>
      <trkpt lat="46.20438" lon="4.7957">
        <ele>171.73</ele>
        <time>2012-09-06T13:47:43Z</time>
      </trkpt>
      <trkpt lat="46.20479" lon="4.79559">
        <ele>171.25</ele>
        <time>2012-09-06T13:47:57Z</time>
      </trkpt>
      <trkpt lat="46.20479" lon="4.79558">
        <ele>171.25</ele>
        <time>2012-09-06T13:48:18Z</time>
      </trkpt>
      <trkpt lat="46.20479" lon="4.79558">
        <ele>171.25</ele>
        <time>2012-09-06T13:48:33Z</time>
      </trkpt>
      <trkpt lat="46.20477" lon="4.79559">
        <ele>171.25</ele>
        <time>2012-09-06T13:48:35Z</time>
      </trkpt>
      <trkpt lat="46.20476" lon="4.7956">
        <ele>171.25</ele>
        <time>2012-09-06T13:48:36Z</time>
      </trkpt>
      <trkpt lat="46.20475" lon="4.7956">
        <ele>171.25</ele>
        <time>2012-09-06T13:48:37Z</time>
      </trkpt>
      <trkpt lat="46.20473" lon="4.7956">
        <ele>171.25</ele>
        <time>2012-09-06T13:48:38Z</time>
      </trkpt>
      <trkpt lat="46.20471" lon="4.79561">
        <ele>171.25</ele>
        <time>2012-09-06T13:48:39Z</time>
      </trkpt>
      <trkpt lat="46.20451" lon="4.79567">
        <ele>171.25</ele>
        <time>2012-09-06T13:48:48Z</time>
      </trkpt>
      <trkpt lat="46.20452" lon="4.79569">
        <ele>171.25</ele>
        <time>2012-09-06T13:48:50Z</time>
      </trkpt>
      <trkpt lat="46.20453" lon="4.79568">
        <ele>171.25</ele>
        <time>2012-09-06T13:49:04Z</time>
      </trkpt>
      <trkpt lat="46.20452" lon="4.79567">
        <ele>171.25</ele>
        <time>2012-09-06T13:49:28Z</time>
      </trkpt>
      <trkpt lat="46.20453" lon="4.79567">
        <ele>171.25</ele>
        <time>2012-09-06T13:49:32Z</time>
      </trkpt>
      <trkpt lat="46.20455" lon="4.79566">
        <ele>171.25</ele>
        <time>2012-09-06T13:49:33Z</time>
      </trkpt>
      <trkpt lat="46.20485" lon="4.79558">
        <ele>171.25</ele>
        <time>2012-09-06T13:49:45Z</time>
      </trkpt>
      <trkpt lat="46.20535" lon="4.79546">
        <ele>171.25</ele>
        <time>2012-09-06T13:49:59Z</time>
      </trkpt>
      <trkpt lat="46.20589" lon="4.79526">
        <ele>171.73</ele>
        <time>2012-09-06T13:50:15Z</time>
      </trkpt>
      <trkpt lat="46.20628" lon="4.79501">
        <ele>171.73</ele>
        <time>2012-09-06T13:50:29Z</time>
      </trkpt>
      <trkpt lat="46.20657" lon="4.79477">
        <ele>172.21</ele>
        <time>2012-09-06T13:50:41Z</time>
      </trkpt>
      <trkpt lat="46.20699" lon="4.79476">
        <ele>171.73</ele>
        <time>2012-09-06T13:50:55Z</time>
      </trkpt>
      <trkpt lat="46.20729" lon="4.79492">
        <ele>172.21</ele>
        <time>2012-09-06T13:51:07Z</time>
      </trkpt>
      <trkpt lat="46.20761" lon="4.79492">
        <ele>172.21</ele>
        <time>2012-09-06T13:51:19Z</time>
      </trkpt>
      <trkpt lat="46.20794" lon="4.79485">
        <ele>172.21</ele>
        <time>2012-09-06T13:51:32Z</time>
      </trkpt>
      <trkpt lat="46.2083" lon="4.79478">
        <ele>172.21</ele>
        <time>2012-09-06T13:51:44Z</time>
      </trkpt>
      <trkpt lat="46.2087" lon="4.79469">
        <ele>172.21</ele>
        <time>2012-09-06T13:51:57Z</time>
      </trkpt>
      <trkpt lat="46.20899" lon="4.79467">
        <ele>172.21</ele>
        <time>2012-09-06T13:52:09Z</time>
      </trkpt>
      <trkpt lat="46.2095" lon="4.79462">
        <ele>172.21</ele>
        <time>2012-09-06T13:52:25Z</time>
      </trkpt>
      <trkpt lat="46.21009" lon="4.79457">
        <ele>172.21</ele>
        <time>2012-09-06T13:52:41Z</time>
      </trkpt>
      <trkpt lat="46.21048" lon="4.79458">
        <ele>172.21</ele>
        <time>2012-09-06T13:52:52Z</time>
      </trkpt>
      <trkpt lat="46.21092" lon="4.79459">
        <ele>171.73</ele>
        <time>2012-09-06T13:53:06Z</time>
      </trkpt>
      <trkpt lat="46.21136" lon="4.79462">
        <ele>172.21</ele>
        <time>2012-09-06T13:53:20Z</time>
      </trkpt>
      <trkpt lat="46.21181" lon="4.79466">
        <ele>172.69</ele>
        <time>2012-09-06T13:53:34Z</time>
      </trkpt>
      <trkpt lat="46.21211" lon="4.79469">
        <ele>172.69</ele>
        <time>2012-09-06T13:53:45Z</time>
      </trkpt>
      <trkpt lat="46.21245" lon="4.79473">
        <ele>172.69</ele>
        <time>2012-09-06T13:53:56Z</time>
      </trkpt>
      <trkpt lat="46.21288" lon="4.79478">
        <ele>172.21</ele>
        <time>2012-09-06T13:54:10Z</time>
      </trkpt>
      <trkpt lat="46.21338" lon="4.79483">
        <ele>172.21</ele>
        <time>2012-09-06T13:54:26Z</time>
      </trkpt>
      <trkpt lat="46.21377" lon="4.79486">
        <ele>172.21</ele>
        <time>2012-09-06T13:54:38Z</time>
      </trkpt>
      <trkpt lat="46.21419" lon="4.79497">
        <ele>172.69</ele>
        <time>2012-09-06T13:54:51Z</time>
      </trkpt>
      <trkpt lat="46.21468" lon="4.79512">
        <ele>172.21</ele>
        <time>2012-09-06T13:55:06Z</time>
      </trkpt>
      <trkpt lat="46.21516" lon="4.79525">
        <ele>172.21</ele>
        <time>2012-09-06T13:55:21Z</time>
      </trkpt>
      <trkpt lat="46.21569" lon="4.79541">
        <ele>172.21</ele>
        <time>2012-09-06T13:55:38Z</time>
      </trkpt>
      <trkpt lat="46.21611" lon="4.79554">
        <ele>172.21</ele>
        <time>2012-09-06T13:55:52Z</time>
      </trkpt>
      <trkpt lat="46.21655" lon="4.79566">
        <ele>172.21</ele>
        <time>2012-09-06T13:56:05Z</time>
      </trkpt>
      <trkpt lat="46.21691" lon="4.79581">
        <ele>172.21</ele>
        <time>2012-09-06T13:56:17Z</time>
      </trkpt>
      <trkpt lat="46.2171" lon="4.79586">
        <ele>172.21</ele>
        <time>2012-09-06T13:56:25Z</time>
      </trkpt>
      <trkpt lat="46.2174" lon="4.79597">
        <ele>171.73</ele>
        <time>2012-09-06T13:56:38Z</time>
      </trkpt>
      <trkpt lat="46.21768" lon="4.7961">
        <ele>171.73</ele>
        <time>2012-09-06T13:56:52Z</time>
      </trkpt>
      <trkpt lat="46.21789" lon="4.7962">
        <ele>171.73</ele>
        <time>2012-09-06T13:57:02Z</time>
      </trkpt>
      <trkpt lat="46.21791" lon="4.79621">
        <ele>171.73</ele>
        <time>2012-09-06T13:57:03Z</time>
      </trkpt>
      <trkpt lat="46.21816" lon="4.79631">
        <ele>171.73</ele>
        <time>2012-09-06T13:57:15Z</time>
      </trkpt>
      <trkpt lat="46.21853" lon="4.79649">
        <ele>171.73</ele>
        <time>2012-09-06T13:57:28Z</time>
      </trkpt>
      <trkpt lat="46.21892" lon="4.79669">
        <ele>171.73</ele>
        <time>2012-09-06T13:57:40Z</time>
      </trkpt>
      <trkpt lat="46.21934" lon="4.79697">
        <ele>171.73</ele>
        <time>2012-09-06T13:57:55Z</time>
      </trkpt>
      <trkpt lat="46.21975" lon="4.79725">
        <ele>171.73</ele>
        <time>2012-09-06T13:58:09Z</time>
      </trkpt>
      <trkpt lat="46.2201" lon="4.7975">
        <ele>172.21</ele>
        <time>2012-09-06T13:58:22Z</time>
      </trkpt>
      <trkpt lat="46.22046" lon="4.79777">
        <ele>171.73</ele>
        <time>2012-09-06T13:58:35Z</time>
      </trkpt>
      <trkpt lat="46.22078" lon="4.79799">
        <ele>171.73</ele>
        <time>2012-09-06T13:58:47Z</time>
      </trkpt>
      <trkpt lat="46.22115" lon="4.7982">
        <ele>171.25</ele>
        <time>2012-09-06T13:58:59Z</time>
      </trkpt>
      <trkpt lat="46.22161" lon="4.79846">
        <ele>171.25</ele>
        <time>2012-09-06T13:59:14Z</time>
      </trkpt>
      <trkpt lat="46.22205" lon="4.79871">
        <ele>171.25</ele>
        <time>2012-09-06T13:59:29Z</time>
      </trkpt>
      <trkpt lat="46.22248" lon="4.79893">
        <ele>171.73</ele>
        <time>2012-09-06T13:59:44Z</time>
      </trkpt>
      <trkpt lat="46.22279" lon="4.79904">
        <ele>171.73</ele>
        <time>2012-09-06T13:59:55Z</time>
      </trkpt>
      <trkpt lat="46.22324" lon="4.79925">
        <ele>171.73</ele>
        <time>2012-09-06T14:00:10Z</time>
      </trkpt>
      <trkpt lat="46.22383" lon="4.79956">
        <ele>171.73</ele>
        <time>2012-09-06T14:00:29Z</time>
      </trkpt>
      <trkpt lat="46.22424" lon="4.79973">
        <ele>171.73</ele>
        <time>2012-09-06T14:00:42Z</time>
      </trkpt>
      <trkpt lat="46.22468" lon="4.79993">
        <ele>171.73</ele>
        <time>2012-09-06T14:00:55Z</time>
      </trkpt>
      <trkpt lat="46.22512" lon="4.80012">
        <ele>172.21</ele>
        <time>2012-09-06T14:01:09Z</time>
      </trkpt>
      <trkpt lat="46.22566" lon="4.80033">
        <ele>171.73</ele>
        <time>2012-09-06T14:01:24Z</time>
      </trkpt>
      <trkpt lat="46.22606" lon="4.80052">
        <ele>171.73</ele>
        <time>2012-09-06T14:01:36Z</time>
      </trkpt>
      <trkpt lat="46.22651" lon="4.80071">
        <ele>171.73</ele>
        <time>2012-09-06T14:01:49Z</time>
      </trkpt>
      <trkpt lat="46.22687" lon="4.80087">
        <ele>171.73</ele>
        <time>2012-09-06T14:02:01Z</time>
      </trkpt>
      <trkpt lat="46.2273" lon="4.80112">
        <ele>171.73</ele>
        <time>2012-09-06T14:02:16Z</time>
      </trkpt>
      <trkpt lat="46.22765" lon="4.80133">
        <ele>171.25</ele>
        <time>2012-09-06T14:02:28Z</time>
      </trkpt>
      <trkpt lat="46.2279" lon="4.80148">
        <ele>171.25</ele>
        <time>2012-09-06T14:02:38Z</time>
      </trkpt>
      <trkpt lat="46.22822" lon="4.80168">
        <ele>171.25</ele>
        <time>2012-09-06T14:02:50Z</time>
      </trkpt>
      <trkpt lat="46.22858" lon="4.80194">
        <ele>171.73</ele>
        <time>2012-09-06T14:03:03Z</time>
      </trkpt>
      <trkpt lat="46.22892" lon="4.80226">
        <ele>171.25</ele>
        <time>2012-09-06T14:03:16Z</time>
      </trkpt>
      <trkpt lat="46.22934" lon="4.80256">
        <ele>172.21</ele>
        <time>2012-09-06T14:03:31Z</time>
      </trkpt>
      <trkpt lat="46.22959" lon="4.80275">
        <ele>171.25</ele>
        <time>2012-09-06T14:03:43Z</time>
      </trkpt>
      <trkpt lat="46.2296" lon="4.80276">
        <ele>171.25</ele>
        <time>2012-09-06T14:03:44Z</time>
      </trkpt>
      <trkpt lat="46.22961" lon="4.80276">
        <ele>171.25</ele>
        <time>2012-09-06T14:03:45Z</time>
      </trkpt>
      <trkpt lat="46.22994" lon="4.80297">
        <ele>171.25</ele>
        <time>2012-09-06T14:03:57Z</time>
      </trkpt>
      <trkpt lat="46.23034" lon="4.80331">
        <ele>171.25</ele>
        <time>2012-09-06T14:04:10Z</time>
      </trkpt>
      <trkpt lat="46.23073" lon="4.80372">
        <ele>171.25</ele>
        <time>2012-09-06T14:04:22Z</time>
      </trkpt>
      <trkpt lat="46.23106" lon="4.80408">
        <ele>171.25</ele>
        <time>2012-09-06T14:04:34Z</time>
      </trkpt>
      <trkpt lat="46.23124" lon="4.80426">
        <ele>171.73</ele>
        <time>2012-09-06T14:04:40Z</time>
      </trkpt>
      <trkpt lat="46.23127" lon="4.80429">
        <ele>171.73</ele>
        <time>2012-09-06T14:04:41Z</time>
      </trkpt>
      <trkpt lat="46.23154" lon="4.80461">
        <ele>171.25</ele>
        <time>2012-09-06T14:04:51Z</time>
      </trkpt>
      <trkpt lat="46.23194" lon="4.80512">
        <ele>171.25</ele>
        <time>2012-09-06T14:05:04Z</time>
      </trkpt>
      <trkpt lat="46.23225" lon="4.80549">
        <ele>171.25</ele>
        <time>2012-09-06T14:05:15Z</time>
      </trkpt>
      <trkpt lat="46.23253" lon="4.80587">
        <ele>171.25</ele>
        <time>2012-09-06T14:05:27Z</time>
      </trkpt>
      <trkpt lat="46.23288" lon="4.80627">
        <ele>171.25</ele>
        <time>2012-09-06T14:05:42Z</time>
      </trkpt>
      <trkpt lat="46.23325" lon="4.80668">
        <ele>171.25</ele>
        <time>2012-09-06T14:05:57Z</time>
      </trkpt>
      <trkpt lat="46.2335" lon="4.80696">
        <ele>171.25</ele>
        <time>2012-09-06T14:06:10Z</time>
      </trkpt>
      <trkpt lat="46.23378" lon="4.80726">
        <ele>171.25</ele>
        <time>2012-09-06T14:06:23Z</time>
      </trkpt>
      <trkpt lat="46.23419" lon="4.80768">
        <ele>171.25</ele>
        <time>2012-09-06T14:06:38Z</time>
      </trkpt>
      <trkpt lat="46.23459" lon="4.80807">
        <ele>171.25</ele>
        <time>2012-09-06T14:06:51Z</time>
      </trkpt>
      <trkpt lat="46.23466" lon="4.80815">
        <ele>171.25</ele>
        <time>2012-09-06T14:07:00Z</time>
      </trkpt>
      <trkpt lat="46.23468" lon="4.80815">
        <ele>171.25</ele>
        <time>2012-09-06T14:07:01Z</time>
      </trkpt>
      <trkpt lat="46.2347" lon="4.80816">
        <ele>171.73</ele>
        <time>2012-09-06T14:07:03Z</time>
      </trkpt>
      <trkpt lat="46.23489" lon="4.80839">
        <ele>171.73</ele>
        <time>2012-09-06T14:07:16Z</time>
      </trkpt>
      <trkpt lat="46.2352" lon="4.80865">
        <ele>172.21</ele>
        <time>2012-09-06T14:07:29Z</time>
      </trkpt>
      <trkpt lat="46.23548" lon="4.80892">
        <ele>171.73</ele>
        <time>2012-09-06T14:07:42Z</time>
      </trkpt>
      <trkpt lat="46.23551" lon="4.80893">
        <ele>171.73</ele>
        <time>2012-09-06T14:07:44Z</time>
      </trkpt>
      <trkpt lat="46.2358" lon="4.80918">
        <ele>171.73</ele>
        <time>2012-09-06T14:07:59Z</time>
      </trkpt>
      <trkpt lat="46.23622" lon="4.80953">
        <ele>171.73</ele>
        <time>2012-09-06T14:08:15Z</time>
      </trkpt>
      <trkpt lat="46.23668" lon="4.80984">
        <ele>171.73</ele>
        <time>2012-09-06T14:08:29Z</time>
      </trkpt>
      <trkpt lat="46.23728" lon="4.81019">
        <ele>171.73</ele>
        <time>2012-09-06T14:08:45Z</time>
      </trkpt>
      <trkpt lat="46.23745" lon="4.81028">
        <ele>171.25</ele>
        <time>2012-09-06T14:08:49Z</time>
      </trkpt>
      <trkpt lat="46.23806" lon="4.81055">
        <ele>171.25</ele>
        <time>2012-09-06T14:09:04Z</time>
      </trkpt>
      <trkpt lat="46.23866" lon="4.81075">
        <ele>171.25</ele>
        <time>2012-09-06T14:09:19Z</time>
      </trkpt>
      <trkpt lat="46.23924" lon="4.81089">
        <ele>171.73</ele>
        <time>2012-09-06T14:09:34Z</time>
      </trkpt>
      <trkpt lat="46.23977" lon="4.81104">
        <ele>171.73</ele>
        <time>2012-09-06T14:09:49Z</time>
      </trkpt>
      <trkpt lat="46.23981" lon="4.81102">
        <ele>171.73</ele>
        <time>2012-09-06T14:10:01Z</time>
      </trkpt>
      <trkpt lat="46.23984" lon="4.81102">
        <ele>171.73</ele>
        <time>2012-09-06T14:10:21Z</time>
      </trkpt>
      <trkpt lat="46.23984" lon="4.81102">
        <ele>171.73</ele>
        <time>2012-09-06T14:10:41Z</time>
      </trkpt>
      <trkpt lat="46.23985" lon="4.81101">
        <ele>171.73</ele>
        <time>2012-09-06T14:11:15Z</time>
      </trkpt>
      <trkpt lat="46.23987" lon="4.81102">
        <ele>171.73</ele>
        <time>2012-09-06T14:11:17Z</time>
      </trkpt>
      <trkpt lat="46.24015" lon="4.811">
        <ele>172.21</ele>
        <time>2012-09-06T14:11:29Z</time>
      </trkpt>
      <trkpt lat="46.24053" lon="4.81074">
        <ele>171.73</ele>
        <time>2012-09-06T14:11:42Z</time>
      </trkpt>
      <trkpt lat="46.24092" lon="4.81103">
        <ele>172.21</ele>
        <time>2012-09-06T14:11:54Z</time>
      </trkpt>
      <trkpt lat="46.24124" lon="4.81136">
        <ele>171.73</ele>
        <time>2012-09-06T14:12:04Z</time>
      </trkpt>
      <trkpt lat="46.24169" lon="4.81134">
        <ele>172.21</ele>
        <time>2012-09-06T14:12:16Z</time>
      </trkpt>
      <trkpt lat="46.24194" lon="4.8116">
        <ele>171.73</ele>
        <time>2012-09-06T14:12:25Z</time>
      </trkpt>
      <trkpt lat="46.24209" lon="4.81167">
        <ele>171.73</ele>
        <time>2012-09-06T14:12:34Z</time>
      </trkpt>
      <trkpt lat="46.24242" lon="4.81178">
        <ele>171.73</ele>
        <time>2012-09-06T14:12:45Z</time>
      </trkpt>
      <trkpt lat="46.2429" lon="4.81193">
        <ele>171.73</ele>
        <time>2012-09-06T14:12:58Z</time>
      </trkpt>
      <trkpt lat="46.24331" lon="4.81207">
        <ele>171.73</ele>
        <time>2012-09-06T14:13:10Z</time>
      </trkpt>
      <trkpt lat="46.24388" lon="4.81228">
        <ele>171.73</ele>
        <time>2012-09-06T14:13:25Z</time>
      </trkpt>
      <trkpt lat="46.24448" lon="4.8125">
        <ele>171.73</ele>
        <time>2012-09-06T14:13:40Z</time>
      </trkpt>
      <trkpt lat="46.24508" lon="4.81273">
        <ele>172.21</ele>
        <time>2012-09-06T14:13:55Z</time>
      </trkpt>
      <trkpt lat="46.24516" lon="4.81279">
        <ele>171.73</ele>
        <time>2012-09-06T14:13:58Z</time>
      </trkpt>
      <trkpt lat="46.2452" lon="4.81279">
        <ele>171.73</ele>
        <time>2012-09-06T14:13:59Z</time>
      </trkpt>
      <trkpt lat="46.24523" lon="4.81279">
        <ele>171.73</ele>
        <time>2012-09-06T14:14:00Z</time>
      </trkpt>
      <trkpt lat="46.24526" lon="4.81281">
        <ele>171.73</ele>
        <time>2012-09-06T14:14:01Z</time>
      </trkpt>
      <trkpt lat="46.24529" lon="4.81282">
        <ele>171.73</ele>
        <time>2012-09-06T14:14:02Z</time>
      </trkpt>
      <trkpt lat="46.24532" lon="4.81284">
        <ele>171.73</ele>
        <time>2012-09-06T14:14:03Z</time>
      </trkpt>
      <trkpt lat="46.24535" lon="4.81286">
        <ele>171.73</ele>
        <time>2012-09-06T14:14:04Z</time>
      </trkpt>
      <trkpt lat="46.24538" lon="4.81288">
        <ele>171.73</ele>
        <time>2012-09-06T14:14:05Z</time>
      </trkpt>
      <trkpt lat="46.24542" lon="4.81289">
        <ele>171.73</ele>
        <time>2012-09-06T14:14:06Z</time>
      </trkpt>
      <trkpt lat="46.24545" lon="4.8129">
        <ele>171.73</ele>
        <time>2012-09-06T14:14:07Z</time>
      </trkpt>
      <trkpt lat="46.24548" lon="4.81291">
        <ele>171.73</ele>
        <time>2012-09-06T14:14:08Z</time>
      </trkpt>
      <trkpt lat="46.24604" lon="4.81307">
        <ele>171.73</ele>
        <time>2012-09-06T14:14:22Z</time>
      </trkpt>
      <trkpt lat="46.24659" lon="4.81322">
        <ele>171.73</ele>
        <time>2012-09-06T14:14:37Z</time>
      </trkpt>
      <trkpt lat="46.24683" lon="4.81327">
        <ele>172.21</ele>
        <time>2012-09-06T14:14:49Z</time>
      </trkpt>
      <trkpt lat="46.24689" lon="4.81327">
        <ele>172.69</ele>
        <time>2012-09-06T14:14:58Z</time>
      </trkpt>
      <trkpt lat="46.24703" lon="4.81332">
        <ele>173.66</ele>
        <time>2012-09-06T14:15:12Z</time>
      </trkpt>
      <trkpt lat="46.24713" lon="4.81333">
        <ele>172.69</ele>
        <time>2012-09-06T14:15:25Z</time>
      </trkpt>
      <trkpt lat="46.24716" lon="4.81333">
        <ele>172.69</ele>
        <time>2012-09-06T14:15:40Z</time>
      </trkpt>
      <trkpt lat="46.24718" lon="4.81333">
        <ele>172.21</ele>
        <time>2012-09-06T14:15:41Z</time>
      </trkpt>
      <trkpt lat="46.2472" lon="4.81334">
        <ele>172.21</ele>
        <time>2012-09-06T14:15:42Z</time>
      </trkpt>
      <trkpt lat="46.24757" lon="4.81343">
        <ele>171.73</ele>
        <time>2012-09-06T14:15:53Z</time>
      </trkpt>
      <trkpt lat="46.24773" lon="4.81346">
        <ele>172.21</ele>
        <time>2012-09-06T14:15:57Z</time>
      </trkpt>
      <trkpt lat="46.24777" lon="4.81346">
        <ele>172.21</ele>
        <time>2012-09-06T14:15:58Z</time>
      </trkpt>
      <trkpt lat="46.24834" lon="4.81357">
        <ele>172.21</ele>
        <time>2012-09-06T14:16:12Z</time>
      </trkpt>
      <trkpt lat="46.24886" lon="4.81365">
        <ele>171.73</ele>
        <time>2012-09-06T14:16:25Z</time>
      </trkpt>
      <trkpt lat="46.24934" lon="4.81368">
        <ele>171.73</ele>
        <time>2012-09-06T14:16:36Z</time>
      </trkpt>
      <trkpt lat="46.24938" lon="4.81368">
        <ele>171.73</ele>
        <time>2012-09-06T14:16:37Z</time>
      </trkpt>
      <trkpt lat="46.24943" lon="4.81369">
        <ele>171.73</ele>
        <time>2012-09-06T14:16:38Z</time>
      </trkpt>
      <trkpt lat="46.24947" lon="4.81369">
        <ele>172.21</ele>
        <time>2012-09-06T14:16:39Z</time>
      </trkpt>
      <trkpt lat="46.24951" lon="4.81369">
        <ele>172.21</ele>
        <time>2012-09-06T14:16:40Z</time>
      </trkpt>
      <trkpt lat="46.2501" lon="4.81375">
        <ele>171.73</ele>
        <time>2012-09-06T14:16:54Z</time>
      </trkpt>
      <trkpt lat="46.25023" lon="4.81376">
        <ele>171.73</ele>
        <time>2012-09-06T14:16:58Z</time>
      </trkpt>
      <trkpt lat="46.25073" lon="4.81377">
        <ele>172.21</ele>
        <time>2012-09-06T14:17:11Z</time>
      </trkpt>
      <trkpt lat="46.25085" lon="4.81377">
        <ele>172.21</ele>
        <time>2012-09-06T14:17:14Z</time>
      </trkpt>
      <trkpt lat="46.25139" lon="4.81377">
        <ele>172.21</ele>
        <time>2012-09-06T14:17:27Z</time>
      </trkpt>
      <trkpt lat="46.25143" lon="4.81376">
        <ele>172.21</ele>
        <time>2012-09-06T14:17:28Z</time>
      </trkpt>
      <trkpt lat="46.25147" lon="4.81375">
        <ele>172.21</ele>
        <time>2012-09-06T14:17:29Z</time>
      </trkpt>
      <trkpt lat="46.25181" lon="4.8137">
        <ele>171.73</ele>
        <time>2012-09-06T14:17:40Z</time>
      </trkpt>
      <trkpt lat="46.25181" lon="4.81372">
        <ele>171.73</ele>
        <time>2012-09-06T14:17:46Z</time>
      </trkpt>
      <trkpt lat="46.25178" lon="4.81374">
        <ele>171.73</ele>
        <time>2012-09-06T14:17:49Z</time>
      </trkpt>
      <trkpt lat="46.25173" lon="4.81374">
        <ele>172.21</ele>
        <time>2012-09-06T14:17:52Z</time>
      </trkpt>
      <trkpt lat="46.25172" lon="4.81374">
        <ele>172.21</ele>
        <time>2012-09-06T14:17:53Z</time>
      </trkpt>
      <trkpt lat="46.2517" lon="4.81375">
        <ele>172.21</ele>
        <time>2012-09-06T14:17:54Z</time>
      </trkpt>
      <trkpt lat="46.25137" lon="4.8138">
        <ele>171.73</ele>
        <time>2012-09-06T14:18:07Z</time>
      </trkpt>
      <trkpt lat="46.25116" lon="4.81378">
        <ele>172.21</ele>
        <time>2012-09-06T14:18:20Z</time>
      </trkpt>
      <trkpt lat="46.25086" lon="4.8138">
        <ele>171.73</ele>
        <time>2012-09-06T14:18:32Z</time>
      </trkpt>
      <trkpt lat="46.25035" lon="4.81381">
        <ele>172.21</ele>
        <time>2012-09-06T14:18:44Z</time>
      </trkpt>
      <trkpt lat="46.25014" lon="4.81383">
        <ele>172.21</ele>
        <time>2012-09-06T14:18:50Z</time>
      </trkpt>
      <trkpt lat="46.25012" lon="4.81385">
        <ele>171.73</ele>
        <time>2012-09-06T14:18:51Z</time>
      </trkpt>
      <trkpt lat="46.25011" lon="4.81388">
        <ele>171.73</ele>
        <time>2012-09-06T14:18:52Z</time>
      </trkpt>
      <trkpt lat="46.25011" lon="4.81392">
        <ele>171.73</ele>
        <time>2012-09-06T14:18:53Z</time>
      </trkpt>
      <trkpt lat="46.25011" lon="4.81395">
        <ele>171.73</ele>
        <time>2012-09-06T14:18:54Z</time>
      </trkpt>
      <trkpt lat="46.25011" lon="4.81398">
        <ele>171.73</ele>
        <time>2012-09-06T14:18:55Z</time>
      </trkpt>
      <trkpt lat="46.25012" lon="4.81401">
        <ele>171.73</ele>
        <time>2012-09-06T14:18:56Z</time>
      </trkpt>
      <trkpt lat="46.25026" lon="4.81443">
        <ele>171.25</ele>
        <time>2012-09-06T14:19:07Z</time>
      </trkpt>
      <trkpt lat="46.25042" lon="4.81496">
        <ele>171.25</ele>
        <time>2012-09-06T14:19:18Z</time>
      </trkpt>
      <trkpt lat="46.25056" lon="4.81553">
        <ele>171.25</ele>
        <time>2012-09-06T14:19:29Z</time>
      </trkpt>
      <trkpt lat="46.25055" lon="4.8159">
        <ele>171.25</ele>
        <time>2012-09-06T14:19:39Z</time>
      </trkpt>
      <trkpt lat="46.25042" lon="4.81633">
        <ele>172.69</ele>
        <time>2012-09-06T14:19:49Z</time>
      </trkpt>
      <trkpt lat="46.25015" lon="4.81705">
        <ele>171.25</ele>
        <time>2012-09-06T14:20:03Z</time>
      </trkpt>
      <trkpt lat="46.24977" lon="4.81811">
        <ele>171.25</ele>
        <time>2012-09-06T14:20:21Z</time>
      </trkpt>
      <trkpt lat="46.24956" lon="4.81882">
        <ele>171.25</ele>
        <time>2012-09-06T14:20:34Z</time>
      </trkpt>
      <trkpt lat="46.24957" lon="4.81886">
        <ele>171.25</ele>
        <time>2012-09-06T14:20:35Z</time>
      </trkpt>
      <trkpt lat="46.24959" lon="4.8189">
        <ele>171.25</ele>
        <time>2012-09-06T14:20:36Z</time>
      </trkpt>
      <trkpt lat="46.24961" lon="4.81893">
        <ele>171.73</ele>
        <time>2012-09-06T14:20:37Z</time>
      </trkpt>
      <trkpt lat="46.24964" lon="4.81895">
        <ele>171.73</ele>
        <time>2012-09-06T14:20:38Z</time>
      </trkpt>
      <trkpt lat="46.24966" lon="4.81896">
        <ele>171.73</ele>
        <time>2012-09-06T14:20:39Z</time>
      </trkpt>
      <trkpt lat="46.25" lon="4.81907">
        <ele>172.21</ele>
        <time>2012-09-06T14:20:52Z</time>
      </trkpt>
      <trkpt lat="46.2506" lon="4.81929">
        <ele>172.21</ele>
        <time>2012-09-06T14:21:10Z</time>
      </trkpt>
      <trkpt lat="46.25118" lon="4.81952">
        <ele>172.69</ele>
        <time>2012-09-06T14:21:27Z</time>
      </trkpt>
      <trkpt lat="46.25186" lon="4.81976">
        <ele>172.21</ele>
        <time>2012-09-06T14:21:46Z</time>
      </trkpt>
      <trkpt lat="46.25246" lon="4.81999">
        <ele>172.21</ele>
        <time>2012-09-06T14:22:02Z</time>
      </trkpt>
      <trkpt lat="46.2525" lon="4.82001">
        <ele>172.21</ele>
        <time>2012-09-06T14:22:03Z</time>
      </trkpt>
      <trkpt lat="46.253" lon="4.82008">
        <ele>172.21</ele>
        <time>2012-09-06T14:22:17Z</time>
      </trkpt>
      <trkpt lat="46.25304" lon="4.81992">
        <ele>172.21</ele>
        <time>2012-09-06T14:22:21Z</time>
      </trkpt>
      <trkpt lat="46.25316" lon="4.81909">
        <ele>172.21</ele>
        <time>2012-09-06T14:22:38Z</time>
      </trkpt>
      <trkpt lat="46.25329" lon="4.81829">
        <ele>171.73</ele>
        <time>2012-09-06T14:22:53Z</time>
      </trkpt>
      <trkpt lat="46.25327" lon="4.81802">
        <ele>171.73</ele>
        <time>2012-09-06T14:22:58Z</time>
      </trkpt>
      <trkpt lat="46.25324" lon="4.81797">
        <ele>171.73</ele>
        <time>2012-09-06T14:22:59Z</time>
      </trkpt>
      <trkpt lat="46.25322" lon="4.81793">
        <ele>171.73</ele>
        <time>2012-09-06T14:23:00Z</time>
      </trkpt>
      <trkpt lat="46.25319" lon="4.81789">
        <ele>171.73</ele>
        <time>2012-09-06T14:23:01Z</time>
      </trkpt>
      <trkpt lat="46.25316" lon="4.81786">
        <ele>171.73</ele>
        <time>2012-09-06T14:23:02Z</time>
      </trkpt>
      <trkpt lat="46.25307" lon="4.81773">
        <ele>172.21</ele>
        <time>2012-09-06T14:23:06Z</time>
      </trkpt>
      <trkpt lat="46.25306" lon="4.81753">
        <ele>172.21</ele>
        <time>2012-09-06T14:23:12Z</time>
      </trkpt>
      <trkpt lat="46.25317" lon="4.8171">
        <ele>172.21</ele>
        <time>2012-09-06T14:23:27Z</time>
      </trkpt>
      <trkpt lat="46.25329" lon="4.81654">
        <ele>172.21</ele>
        <time>2012-09-06T14:23:41Z</time>
      </trkpt>
      <trkpt lat="46.25341" lon="4.81608">
        <ele>172.21</ele>
        <time>2012-09-06T14:23:50Z</time>
      </trkpt>
      <trkpt lat="46.25344" lon="4.81604">
        <ele>172.21</ele>
        <time>2012-09-06T14:23:51Z</time>
      </trkpt>
      <trkpt lat="46.25347" lon="4.816">
        <ele>172.21</ele>
        <time>2012-09-06T14:23:52Z</time>
      </trkpt>
      <trkpt lat="46.25351" lon="4.81597">
        <ele>172.21</ele>
        <time>2012-09-06T14:23:53Z</time>
      </trkpt>
      <trkpt lat="46.25355" lon="4.81595">
        <ele>172.21</ele>
        <time>2012-09-06T14:23:54Z</time>
      </trkpt>
      <trkpt lat="46.25359" lon="4.81594">
        <ele>172.21</ele>
        <time>2012-09-06T14:23:55Z</time>
      </trkpt>
      <trkpt lat="46.25363" lon="4.81593">
        <ele>172.21</ele>
        <time>2012-09-06T14:23:56Z</time>
      </trkpt>
      <trkpt lat="46.25367" lon="4.81593">
        <ele>172.21</ele>
        <time>2012-09-06T14:23:57Z</time>
      </trkpt>
      <trkpt lat="46.25371" lon="4.81593">
        <ele>172.21</ele>
        <time>2012-09-06T14:23:58Z</time>
      </trkpt>
      <trkpt lat="46.25375" lon="4.81594">
        <ele>174.14</ele>
        <time>2012-09-06T14:23:59Z</time>
      </trkpt>
      <trkpt lat="46.25378" lon="4.81594">
        <ele>172.69</ele>
        <time>2012-09-06T14:24:00Z</time>
      </trkpt>
      <trkpt lat="46.25382" lon="4.81595">
        <ele>172.69</ele>
        <time>2012-09-06T14:24:01Z</time>
      </trkpt>
      <trkpt lat="46.25444" lon="4.81602">
        <ele>172.21</ele>
        <time>2012-09-06T14:24:17Z</time>
      </trkpt>
      <trkpt lat="46.25498" lon="4.81618">
        <ele>172.21</ele>
        <time>2012-09-06T14:24:32Z</time>
      </trkpt>
      <trkpt lat="46.25491" lon="4.81666">
        <ele>172.21</ele>
        <time>2012-09-06T14:24:42Z</time>
      </trkpt>
      <trkpt lat="46.25466" lon="4.81757">
        <ele>171.73</ele>
        <time>2012-09-06T14:25:00Z</time>
      </trkpt>
      <trkpt lat="46.25464" lon="4.81811">
        <ele>172.69</ele>
        <time>2012-09-06T14:25:11Z</time>
      </trkpt>
      <trkpt lat="46.25478" lon="4.81819">
        <ele>172.69</ele>
        <time>2012-09-06T14:25:16Z</time>
      </trkpt>
      <trkpt lat="46.25527" lon="4.81845">
        <ele>172.21</ele>
        <time>2012-09-06T14:25:30Z</time>
      </trkpt>
      <trkpt lat="46.25579" lon="4.81874">
        <ele>172.69</ele>
        <time>2012-09-06T14:25:45Z</time>
      </trkpt>
      <trkpt lat="46.25617" lon="4.81902">
        <ele>172.21</ele>
        <time>2012-09-06T14:25:56Z</time>
      </trkpt>
      <trkpt lat="46.25647" lon="4.81909">
        <ele>172.69</ele>
        <time>2012-09-06T14:26:04Z</time>
      </trkpt>
      <trkpt lat="46.25701" lon="4.81924">
        <ele>172.21</ele>
        <time>2012-09-06T14:26:18Z</time>
      </trkpt>
      <trkpt lat="46.2572" lon="4.8188">
        <ele>172.21</ele>
        <time>2012-09-06T14:26:28Z</time>
      </trkpt>
      <trkpt lat="46.25737" lon="4.81816">
        <ele>172.21</ele>
        <time>2012-09-06T14:26:40Z</time>
      </trkpt>
      <trkpt lat="46.25753" lon="4.81743">
        <ele>172.21</ele>
        <time>2012-09-06T14:26:54Z</time>
      </trkpt>
      <trkpt lat="46.25758" lon="4.8172">
        <ele>172.21</ele>
        <time>2012-09-06T14:27:04Z</time>
      </trkpt>
      <trkpt lat="46.25758" lon="4.81721">
        <ele>168.37</ele>
        <time>2012-09-06T14:27:08Z</time>
      </trkpt>
      <trkpt lat="46.25758" lon="4.81721">
        <ele>175.1</ele>
        <time>2012-09-06T14:27:09Z</time>
      </trkpt>
      <trkpt lat="46.25758" lon="4.81721">
        <ele>167.41</ele>
        <time>2012-09-06T14:27:14Z</time>
      </trkpt>
      <trkpt lat="46.25758" lon="4.81721">
        <ele>175.58</ele>
        <time>2012-09-06T14:27:15Z</time>
      </trkpt>
      <trkpt lat="46.25758" lon="4.81721">
        <ele>172.21</ele>
        <time>2012-09-06T14:27:16Z</time>
      </trkpt>
      <trkpt lat="46.25767" lon="4.8171">
        <ele>172.21</ele>
        <time>2012-09-06T14:27:33Z</time>
      </trkpt>
      <trkpt lat="46.25787" lon="4.81717">
        <ele>172.21</ele>
        <time>2012-09-06T14:27:44Z</time>
      </trkpt>
      <trkpt lat="46.25825" lon="4.81734">
        <ele>172.69</ele>
        <time>2012-09-06T14:27:57Z</time>
      </trkpt>
      <trkpt lat="46.2587" lon="4.81753">
        <ele>172.69</ele>
        <time>2012-09-06T14:28:11Z</time>
      </trkpt>
      <trkpt lat="46.25897" lon="4.81733">
        <ele>172.69</ele>
        <time>2012-09-06T14:28:21Z</time>
      </trkpt>
      <trkpt lat="46.25914" lon="4.81649">
        <ele>172.69</ele>
        <time>2012-09-06T14:28:39Z</time>
      </trkpt>
      <trkpt lat="46.25928" lon="4.81576">
        <ele>172.69</ele>
        <time>2012-09-06T14:28:53Z</time>
      </trkpt>
      <trkpt lat="46.2593" lon="4.81565">
        <ele>172.69</ele>
        <time>2012-09-06T14:28:55Z</time>
      </trkpt>
      <trkpt lat="46.25952" lon="4.81456">
        <ele>172.69</ele>
        <time>2012-09-06T14:29:13Z</time>
      </trkpt>
      <trkpt lat="46.25958" lon="4.81425">
        <ele>172.69</ele>
        <time>2012-09-06T14:29:18Z</time>
      </trkpt>
      <trkpt lat="46.25965" lon="4.81377">
        <ele>172.21</ele>
        <time>2012-09-06T14:29:31Z</time>
      </trkpt>
      <trkpt lat="46.25967" lon="4.81372">
        <ele>172.69</ele>
        <time>2012-09-06T14:29:38Z</time>
      </trkpt>
      <trkpt lat="46.25974" lon="4.81369">
        <ele>172.21</ele>
        <time>2012-09-06T14:29:49Z</time>
      </trkpt>
      <trkpt lat="46.2597" lon="4.81367">
        <ele>172.69</ele>
        <time>2012-09-06T14:30:05Z</time>
      </trkpt>
      <trkpt lat="46.25973" lon="4.81367">
        <ele>172.69</ele>
        <time>2012-09-06T14:30:31Z</time>
      </trkpt>
      <trkpt lat="46.25981" lon="4.81374">
        <ele>172.69</ele>
        <time>2012-09-06T14:30:38Z</time>
      </trkpt>
      <trkpt lat="46.25987" lon="4.81379">
        <ele>172.69</ele>
        <time>2012-09-06T14:30:52Z</time>
      </trkpt>
      <trkpt lat="46.25988" lon="4.8138">
        <ele>172.69</ele>
        <time>2012-09-06T14:31:09Z</time>
      </trkpt>
      <trkpt lat="46.25988" lon="4.81379">
        <ele>172.21</ele>
        <time>2012-09-06T14:31:43Z</time>
      </trkpt>
      <trkpt lat="46.25988" lon="4.81379">
        <ele>172.69</ele>
        <time>2012-09-06T14:32:07Z</time>
      </trkpt>
      <trkpt lat="46.25988" lon="4.81379">
        <ele>173.17</ele>
        <time>2012-09-06T14:32:37Z</time>
      </trkpt>
      <trkpt lat="46.25992" lon="4.81382">
        <ele>172.69</ele>
        <time>2012-09-06T14:33:02Z</time>
      </trkpt>
      <trkpt lat="46.2602" lon="4.81421">
        <ele>172.69</ele>
        <time>2012-09-06T14:33:15Z</time>
      </trkpt>
      <trkpt lat="46.2605" lon="4.81471">
        <ele>172.69</ele>
        <time>2012-09-06T14:33:29Z</time>
      </trkpt>
      <trkpt lat="46.26079" lon="4.81524">
        <ele>172.69</ele>
        <time>2012-09-06T14:33:42Z</time>
      </trkpt>
      <trkpt lat="46.26123" lon="4.81596">
        <ele>172.69</ele>
        <time>2012-09-06T14:33:58Z</time>
      </trkpt>
      <trkpt lat="46.26174" lon="4.8168">
        <ele>172.69</ele>
        <time>2012-09-06T14:34:17Z</time>
      </trkpt>
      <trkpt lat="46.26206" lon="4.81712">
        <ele>173.17</ele>
        <time>2012-09-06T14:34:29Z</time>
      </trkpt>
      <trkpt lat="46.26231" lon="4.81752">
        <ele>173.17</ele>
        <time>2012-09-06T14:34:40Z</time>
      </trkpt>
      <trkpt lat="46.26244" lon="4.81816">
        <ele>172.69</ele>
        <time>2012-09-06T14:34:53Z</time>
      </trkpt>
      <trkpt lat="46.26262" lon="4.81888">
        <ele>172.69</ele>
        <time>2012-09-06T14:35:07Z</time>
      </trkpt>
      <trkpt lat="46.26273" lon="4.81905">
        <ele>172.69</ele>
        <time>2012-09-06T14:35:11Z</time>
      </trkpt>
      <trkpt lat="46.26313" lon="4.81915">
        <ele>173.17</ele>
        <time>2012-09-06T14:35:22Z</time>
      </trkpt>
      <trkpt lat="46.26364" lon="4.81937">
        <ele>173.17</ele>
        <time>2012-09-06T14:35:36Z</time>
      </trkpt>
      <trkpt lat="46.26382" lon="4.81945">
        <ele>173.17</ele>
        <time>2012-09-06T14:35:42Z</time>
      </trkpt>
      <trkpt lat="46.26384" lon="4.81944">
        <ele>173.17</ele>
        <time>2012-09-06T14:35:43Z</time>
      </trkpt>
      <trkpt lat="46.26406" lon="4.81915">
        <ele>173.17</ele>
        <time>2012-09-06T14:35:55Z</time>
      </trkpt>
      <trkpt lat="46.26442" lon="4.81853">
        <ele>173.17</ele>
        <time>2012-09-06T14:36:10Z</time>
      </trkpt>
      <trkpt lat="46.2647" lon="4.81818">
        <ele>172.69</ele>
        <time>2012-09-06T14:36:21Z</time>
      </trkpt>
      <trkpt lat="46.26473" lon="4.81819">
        <ele>172.69</ele>
        <time>2012-09-06T14:36:22Z</time>
      </trkpt>
      <trkpt lat="46.26507" lon="4.81862">
        <ele>172.69</ele>
        <time>2012-09-06T14:36:36Z</time>
      </trkpt>
      <trkpt lat="46.26551" lon="4.81921">
        <ele>172.21</ele>
        <time>2012-09-06T14:36:52Z</time>
      </trkpt>
      <trkpt lat="46.26591" lon="4.81972">
        <ele>172.21</ele>
        <time>2012-09-06T14:37:06Z</time>
      </trkpt>
      <trkpt lat="46.26621" lon="4.82009">
        <ele>172.21</ele>
        <time>2012-09-06T14:37:20Z</time>
      </trkpt>
      <trkpt lat="46.26663" lon="4.82064">
        <ele>172.69</ele>
        <time>2012-09-06T14:37:37Z</time>
      </trkpt>
      <trkpt lat="46.26709" lon="4.82111">
        <ele>172.69</ele>
        <time>2012-09-06T14:37:54Z</time>
      </trkpt>
      <trkpt lat="46.26762" lon="4.82172">
        <ele>172.69</ele>
        <time>2012-09-06T14:38:15Z</time>
      </trkpt>
      <trkpt lat="46.26802" lon="4.82218">
        <ele>172.69</ele>
        <time>2012-09-06T14:38:31Z</time>
      </trkpt>
      <trkpt lat="46.26861" lon="4.82279">
        <ele>172.69</ele>
        <time>2012-09-06T14:38:53Z</time>
      </trkpt>
      <trkpt lat="46.26905" lon="4.82323">
        <ele>172.69</ele>
        <time>2012-09-06T14:39:10Z</time>
      </trkpt>
      <trkpt lat="46.26942" lon="4.82356">
        <ele>172.69</ele>
        <time>2012-09-06T14:39:24Z</time>
      </trkpt>
      <trkpt lat="46.27002" lon="4.82404">
        <ele>172.69</ele>
        <time>2012-09-06T14:39:45Z</time>
      </trkpt>
      <trkpt lat="46.27043" lon="4.82437">
        <ele>173.17</ele>
        <time>2012-09-06T14:40:01Z</time>
      </trkpt>
      <trkpt lat="46.27093" lon="4.82471">
        <ele>172.69</ele>
        <time>2012-09-06T14:40:19Z</time>
      </trkpt>
      <trkpt lat="46.2714" lon="4.82517">
        <ele>173.17</ele>
        <time>2012-09-06T14:40:37Z</time>
      </trkpt>
      <trkpt lat="46.27164" lon="4.82543">
        <ele>173.66</ele>
        <time>2012-09-06T14:40:49Z</time>
      </trkpt>
      <trkpt lat="46.2717" lon="4.82548">
        <ele>173.17</ele>
        <time>2012-09-06T14:41:05Z</time>
      </trkpt>
      <trkpt lat="46.27172" lon="4.8255">
        <ele>173.66</ele>
        <time>2012-09-06T14:41:30Z</time>
      </trkpt>
      <trkpt lat="46.27175" lon="4.82551">
        <ele>173.17</ele>
        <time>2012-09-06T14:41:58Z</time>
      </trkpt>
      <trkpt lat="46.27178" lon="4.82551">
        <ele>173.17</ele>
        <time>2012-09-06T14:42:24Z</time>
      </trkpt>
      <trkpt lat="46.27177" lon="4.82553">
        <ele>173.66</ele>
        <time>2012-09-06T14:42:59Z</time>
      </trkpt>
      <trkpt lat="46.2718" lon="4.82552">
        <ele>173.17</ele>
        <time>2012-09-06T14:43:28Z</time>
      </trkpt>
      <trkpt lat="46.27181" lon="4.82552">
        <ele>174.14</ele>
        <time>2012-09-06T14:43:47Z</time>
      </trkpt>
      <trkpt lat="46.27182" lon="4.82552">
        <ele>173.66</ele>
        <time>2012-09-06T14:43:48Z</time>
      </trkpt>
      <trkpt lat="46.27201" lon="4.82572">
        <ele>173.17</ele>
        <time>2012-09-06T14:43:59Z</time>
      </trkpt>
      <trkpt lat="46.27242" lon="4.82609">
        <ele>173.17</ele>
        <time>2012-09-06T14:44:13Z</time>
      </trkpt>
      <trkpt lat="46.27285" lon="4.82643">
        <ele>173.17</ele>
        <time>2012-09-06T14:44:27Z</time>
      </trkpt>
      <trkpt lat="46.2733" lon="4.82673">
        <ele>173.17</ele>
        <time>2012-09-06T14:44:41Z</time>
      </trkpt>
      <trkpt lat="46.27381" lon="4.82685">
        <ele>173.17</ele>
        <time>2012-09-06T14:44:55Z</time>
      </trkpt>
      <trkpt lat="46.27427" lon="4.82711">
        <ele>173.17</ele>
        <time>2012-09-06T14:45:09Z</time>
      </trkpt>
      <trkpt lat="46.27467" lon="4.82747">
        <ele>173.17</ele>
        <time>2012-09-06T14:45:22Z</time>
      </trkpt>
      <trkpt lat="46.27509" lon="4.82784">
        <ele>173.17</ele>
        <time>2012-09-06T14:45:35Z</time>
      </trkpt>
      <trkpt lat="46.27549" lon="4.82814">
        <ele>173.66</ele>
        <time>2012-09-06T14:45:49Z</time>
      </trkpt>
      <trkpt lat="46.27599" lon="4.82843">
        <ele>173.17</ele>
        <time>2012-09-06T14:46:05Z</time>
      </trkpt>
      <trkpt lat="46.27659" lon="4.82871">
        <ele>173.17</ele>
        <time>2012-09-06T14:46:21Z</time>
      </trkpt>
      <trkpt lat="46.27701" lon="4.82882">
        <ele>173.17</ele>
        <time>2012-09-06T14:46:34Z</time>
      </trkpt>
      <trkpt lat="46.27733" lon="4.82903">
        <ele>173.17</ele>
        <time>2012-09-06T14:46:47Z</time>
      </trkpt>
      <trkpt lat="46.27739" lon="4.82912">
        <ele>173.66</ele>
        <time>2012-09-06T14:46:57Z</time>
      </trkpt>
      <trkpt lat="46.2774" lon="4.82912">
        <ele>173.66</ele>
        <time>2012-09-06T14:46:58Z</time>
      </trkpt>
      <trkpt lat="46.27742" lon="4.82909">
        <ele>173.66</ele>
        <time>2012-09-06T14:47:00Z</time>
      </trkpt>
      <trkpt lat="46.27743" lon="4.82907">
        <ele>173.66</ele>
        <time>2012-09-06T14:47:01Z</time>
      </trkpt>
      <trkpt lat="46.27745" lon="4.82905">
        <ele>173.66</ele>
        <time>2012-09-06T14:47:02Z</time>
      </trkpt>
      <trkpt lat="46.27746" lon="4.82904">
        <ele>173.66</ele>
        <time>2012-09-06T14:47:03Z</time>
      </trkpt>
      <trkpt lat="46.27748" lon="4.82902">
        <ele>173.66</ele>
        <time>2012-09-06T14:47:04Z</time>
      </trkpt>
      <trkpt lat="46.27749" lon="4.82901">
        <ele>173.66</ele>
        <time>2012-09-06T14:47:05Z</time>
      </trkpt>
      <trkpt lat="46.2775" lon="4.82899">
        <ele>173.66</ele>
        <time>2012-09-06T14:47:06Z</time>
      </trkpt>
      <trkpt lat="46.27752" lon="4.82898">
        <ele>173.66</ele>
        <time>2012-09-06T14:47:07Z</time>
      </trkpt>
      <trkpt lat="46.27753" lon="4.82897">
        <ele>173.66</ele>
        <time>2012-09-06T14:47:08Z</time>
      </trkpt>
      <trkpt lat="46.27784" lon="4.82896">
        <ele>173.17</ele>
        <time>2012-09-06T14:47:22Z</time>
      </trkpt>
      <trkpt lat="46.27817" lon="4.82903">
        <ele>173.17</ele>
        <time>2012-09-06T14:47:35Z</time>
      </trkpt>
      <trkpt lat="46.27865" lon="4.82914">
        <ele>173.66</ele>
        <time>2012-09-06T14:47:49Z</time>
      </trkpt>
      <trkpt lat="46.27914" lon="4.82924">
        <ele>173.17</ele>
        <time>2012-09-06T14:48:02Z</time>
      </trkpt>
      <trkpt lat="46.27929" lon="4.82928">
        <ele>173.17</ele>
        <time>2012-09-06T14:48:06Z</time>
      </trkpt>
      <trkpt lat="46.27995" lon="4.82942">
        <ele>173.17</ele>
        <time>2012-09-06T14:48:22Z</time>
      </trkpt>
      <trkpt lat="46.28042" lon="4.82951">
        <ele>173.17</ele>
        <time>2012-09-06T14:48:35Z</time>
      </trkpt>
      <trkpt lat="46.28077" lon="4.82958">
        <ele>173.17</ele>
        <time>2012-09-06T14:48:44Z</time>
      </trkpt>
      <trkpt lat="46.28129" lon="4.82967">
        <ele>173.17</ele>
        <time>2012-09-06T14:48:57Z</time>
      </trkpt>
      <trkpt lat="46.2817" lon="4.82975">
        <ele>172.69</ele>
        <time>2012-09-06T14:49:08Z</time>
      </trkpt>
      <trkpt lat="46.28235" lon="4.82991">
        <ele>172.69</ele>
        <time>2012-09-06T14:49:25Z</time>
      </trkpt>
      <trkpt lat="46.28287" lon="4.83007">
        <ele>173.17</ele>
        <time>2012-09-06T14:49:39Z</time>
      </trkpt>
      <trkpt lat="46.28345" lon="4.83025">
        <ele>172.69</ele>
        <time>2012-09-06T14:49:55Z</time>
      </trkpt>
      <trkpt lat="46.28399" lon="4.83043">
        <ele>173.17</ele>
        <time>2012-09-06T14:50:10Z</time>
      </trkpt>
      <trkpt lat="46.28457" lon="4.83061">
        <ele>173.17</ele>
        <time>2012-09-06T14:50:27Z</time>
      </trkpt>
      <trkpt lat="46.28514" lon="4.83063">
        <ele>173.17</ele>
        <time>2012-09-06T14:50:42Z</time>
      </trkpt>
      <trkpt lat="46.28576" lon="4.83061">
        <ele>173.17</ele>
        <time>2012-09-06T14:50:59Z</time>
      </trkpt>
      <trkpt lat="46.28619" lon="4.83085">
        <ele>172.69</ele>
        <time>2012-09-06T14:51:12Z</time>
      </trkpt>
      <trkpt lat="46.28656" lon="4.83124">
        <ele>172.69</ele>
        <time>2012-09-06T14:51:27Z</time>
      </trkpt>
      <trkpt lat="46.28691" lon="4.83145">
        <ele>172.69</ele>
        <time>2012-09-06T14:51:39Z</time>
      </trkpt>
      <trkpt lat="46.28757" lon="4.83173">
        <ele>173.17</ele>
        <time>2012-09-06T14:51:57Z</time>
      </trkpt>
      <trkpt lat="46.28822" lon="4.83198">
        <ele>173.17</ele>
        <time>2012-09-06T14:52:14Z</time>
      </trkpt>
      <trkpt lat="46.28862" lon="4.83219">
        <ele>172.69</ele>
        <time>2012-09-06T14:52:26Z</time>
      </trkpt>
      <trkpt lat="46.28865" lon="4.83218">
        <ele>173.17</ele>
        <time>2012-09-06T14:52:27Z</time>
      </trkpt>
      <trkpt lat="46.28866" lon="4.83215">
        <ele>173.66</ele>
        <time>2012-09-06T14:52:28Z</time>
      </trkpt>
      <trkpt lat="46.28867" lon="4.83214">
        <ele>173.17</ele>
        <time>2012-09-06T14:52:29Z</time>
      </trkpt>
      <trkpt lat="46.2887" lon="4.83212">
        <ele>173.17</ele>
        <time>2012-09-06T14:52:30Z</time>
      </trkpt>
      <trkpt lat="46.28872" lon="4.83213">
        <ele>173.17</ele>
        <time>2012-09-06T14:52:31Z</time>
      </trkpt>
      <trkpt lat="46.28875" lon="4.83213">
        <ele>173.17</ele>
        <time>2012-09-06T14:52:32Z</time>
      </trkpt>
      <trkpt lat="46.28877" lon="4.83213">
        <ele>173.17</ele>
        <time>2012-09-06T14:52:33Z</time>
      </trkpt>
      <trkpt lat="46.2888" lon="4.83212">
        <ele>173.17</ele>
        <time>2012-09-06T14:52:34Z</time>
      </trkpt>
      <trkpt lat="46.28882" lon="4.83213">
        <ele>173.17</ele>
        <time>2012-09-06T14:52:35Z</time>
      </trkpt>
      <trkpt lat="46.28885" lon="4.83214">
        <ele>172.69</ele>
        <time>2012-09-06T14:52:36Z</time>
      </trkpt>
      <trkpt lat="46.28887" lon="4.83216">
        <ele>172.69</ele>
        <time>2012-09-06T14:52:37Z</time>
      </trkpt>
      <trkpt lat="46.2892" lon="4.83229">
        <ele>173.17</ele>
        <time>2012-09-06T14:52:52Z</time>
      </trkpt>
      <trkpt lat="46.28954" lon="4.83239">
        <ele>173.17</ele>
        <time>2012-09-06T14:53:03Z</time>
      </trkpt>
      <trkpt lat="46.29006" lon="4.83252">
        <ele>173.17</ele>
        <time>2012-09-06T14:53:15Z</time>
      </trkpt>
      <trkpt lat="46.29045" lon="4.83262">
        <ele>173.17</ele>
        <time>2012-09-06T14:53:26Z</time>
      </trkpt>
      <trkpt lat="46.29073" lon="4.83269">
        <ele>172.69</ele>
        <time>2012-09-06T14:53:36Z</time>
      </trkpt>
      <trkpt lat="46.29081" lon="4.8327">
        <ele>172.69</ele>
        <time>2012-09-06T14:53:44Z</time>
      </trkpt>
      <trkpt lat="46.29085" lon="4.83273">
        <ele>172.69</ele>
        <time>2012-09-06T14:53:47Z</time>
      </trkpt>
      <trkpt lat="46.29086" lon="4.83275">
        <ele>173.17</ele>
        <time>2012-09-06T14:53:48Z</time>
      </trkpt>
      <trkpt lat="46.29124" lon="4.83321">
        <ele>173.17</ele>
        <time>2012-09-06T14:54:03Z</time>
      </trkpt>
      <trkpt lat="46.29134" lon="4.83333">
        <ele>173.17</ele>
        <time>2012-09-06T14:54:06Z</time>
      </trkpt>
      <trkpt lat="46.29137" lon="4.83337">
        <ele>173.17</ele>
        <time>2012-09-06T14:54:07Z</time>
      </trkpt>
      <trkpt lat="46.29147" lon="4.83349">
        <ele>173.17</ele>
        <time>2012-09-06T14:54:10Z</time>
      </trkpt>
      <trkpt lat="46.29151" lon="4.83352">
        <ele>173.17</ele>
        <time>2012-09-06T14:54:11Z</time>
      </trkpt>
      <trkpt lat="46.29154" lon="4.83355">
        <ele>173.17</ele>
        <time>2012-09-06T14:54:12Z</time>
      </trkpt>
      <trkpt lat="46.29158" lon="4.83359">
        <ele>173.17</ele>
        <time>2012-09-06T14:54:13Z</time>
      </trkpt>
      <trkpt lat="46.29161" lon="4.83363">
        <ele>173.17</ele>
        <time>2012-09-06T14:54:14Z</time>
      </trkpt>
      <trkpt lat="46.29186" lon="4.83398">
        <ele>173.17</ele>
        <time>2012-09-06T14:54:22Z</time>
      </trkpt>
      <trkpt lat="46.2923" lon="4.83466">
        <ele>173.17</ele>
        <time>2012-09-06T14:54:38Z</time>
      </trkpt>
      <trkpt lat="46.29254" lon="4.83508">
        <ele>173.66</ele>
        <time>2012-09-06T14:54:47Z</time>
      </trkpt>
      <trkpt lat="46.29278" lon="4.8355">
        <ele>173.66</ele>
        <time>2012-09-06T14:54:56Z</time>
      </trkpt>
      <trkpt lat="46.29324" lon="4.83625">
        <ele>174.14</ele>
        <time>2012-09-06T14:55:14Z</time>
      </trkpt>
      <trkpt lat="46.29342" lon="4.83659">
        <ele>174.14</ele>
        <time>2012-09-06T14:55:25Z</time>
      </trkpt>
      <trkpt lat="46.29343" lon="4.83667">
        <ele>173.66</ele>
        <time>2012-09-06T14:55:27Z</time>
      </trkpt>
      <trkpt lat="46.29345" lon="4.83686">
        <ele>172.21</ele>
        <time>2012-09-06T14:55:37Z</time>
      </trkpt>
      <trkpt lat="46.29345" lon="4.83679">
        <ele>173.17</ele>
        <time>2012-09-06T14:55:50Z</time>
      </trkpt>
      <trkpt lat="46.29345" lon="4.83674">
        <ele>173.66</ele>
        <time>2012-09-06T14:55:53Z</time>
      </trkpt>
      <trkpt lat="46.29345" lon="4.83672">
        <ele>173.66</ele>
        <time>2012-09-06T14:55:54Z</time>
      </trkpt>
      <trkpt lat="46.29345" lon="4.83669">
        <ele>173.66</ele>
        <time>2012-09-06T14:55:55Z</time>
      </trkpt>
      <trkpt lat="46.29345" lon="4.83667">
        <ele>173.66</ele>
        <time>2012-09-06T14:55:56Z</time>
      </trkpt>
      <trkpt lat="46.29344" lon="4.83664">
        <ele>173.66</ele>
        <time>2012-09-06T14:55:57Z</time>
      </trkpt>
      <trkpt lat="46.29344" lon="4.83662">
        <ele>173.66</ele>
        <time>2012-09-06T14:55:58Z</time>
      </trkpt>
      <trkpt lat="46.29335" lon="4.8364">
        <ele>174.14</ele>
        <time>2012-09-06T14:56:08Z</time>
      </trkpt>
      <trkpt lat="46.29334" lon="4.83639">
        <ele>174.14</ele>
        <time>2012-09-06T14:56:09Z</time>
      </trkpt>
      <trkpt lat="46.29333" lon="4.83637">
        <ele>174.14</ele>
        <time>2012-09-06T14:56:10Z</time>
      </trkpt>
      <trkpt lat="46.29331" lon="4.83634">
        <ele>174.14</ele>
        <time>2012-09-06T14:56:11Z</time>
      </trkpt>
      <trkpt lat="46.29328" lon="4.83631">
        <ele>174.14</ele>
        <time>2012-09-06T14:56:12Z</time>
      </trkpt>
      <trkpt lat="46.29326" lon="4.83628">
        <ele>174.14</ele>
        <time>2012-09-06T14:56:13Z</time>
      </trkpt>
      <trkpt lat="46.29323" lon="4.83627">
        <ele>174.14</ele>
        <time>2012-09-06T14:56:14Z</time>
      </trkpt>
      <trkpt lat="46.29293" lon="4.83584">
        <ele>174.14</ele>
        <time>2012-09-06T14:56:26Z</time>
      </trkpt>
      <trkpt lat="46.2928" lon="4.83559">
        <ele>173.66</ele>
        <time>2012-09-06T14:56:31Z</time>
      </trkpt>
      <trkpt lat="46.29246" lon="4.83496">
        <ele>173.66</ele>
        <time>2012-09-06T14:56:45Z</time>
      </trkpt>
      <trkpt lat="46.29218" lon="4.8345">
        <ele>173.66</ele>
        <time>2012-09-06T14:56:55Z</time>
      </trkpt>
      <trkpt lat="46.29181" lon="4.83395">
        <ele>173.17</ele>
        <time>2012-09-06T14:57:09Z</time>
      </trkpt>
      <trkpt lat="46.29146" lon="4.83348">
        <ele>173.66</ele>
        <time>2012-09-06T14:57:22Z</time>
      </trkpt>
      <trkpt lat="46.29101" lon="4.83295">
        <ele>173.66</ele>
        <time>2012-09-06T14:57:37Z</time>
      </trkpt>
      <trkpt lat="46.29061" lon="4.83268">
        <ele>173.66</ele>
        <time>2012-09-06T14:57:50Z</time>
      </trkpt>
      <trkpt lat="46.29001" lon="4.83251">
        <ele>173.66</ele>
        <time>2012-09-06T14:58:06Z</time>
      </trkpt>
      <trkpt lat="46.28954" lon="4.83238">
        <ele>173.66</ele>
        <time>2012-09-06T14:58:20Z</time>
      </trkpt>
      <trkpt lat="46.28906" lon="4.83223">
        <ele>173.17</ele>
        <time>2012-09-06T14:58:33Z</time>
      </trkpt>
      <trkpt lat="46.28887" lon="4.83227">
        <ele>173.66</ele>
        <time>2012-09-06T14:58:41Z</time>
      </trkpt>
      <trkpt lat="46.28887" lon="4.83229">
        <ele>173.66</ele>
        <time>2012-09-06T14:58:55Z</time>
      </trkpt>
      <trkpt lat="46.28886" lon="4.8323">
        <ele>173.66</ele>
        <time>2012-09-06T14:59:06Z</time>
      </trkpt>
      <trkpt lat="46.28885" lon="4.83232">
        <ele>174.14</ele>
        <time>2012-09-06T14:59:07Z</time>
      </trkpt>
      <trkpt lat="46.28885" lon="4.83235">
        <ele>173.66</ele>
        <time>2012-09-06T14:59:08Z</time>
      </trkpt>
      <trkpt lat="46.28885" lon="4.83239">
        <ele>173.66</ele>
        <time>2012-09-06T14:59:09Z</time>
      </trkpt>
      <trkpt lat="46.28885" lon="4.83243">
        <ele>173.66</ele>
        <time>2012-09-06T14:59:10Z</time>
      </trkpt>
      <trkpt lat="46.28887" lon="4.83247">
        <ele>173.66</ele>
        <time>2012-09-06T14:59:11Z</time>
      </trkpt>
      <trkpt lat="46.2889" lon="4.83252">
        <ele>173.66</ele>
        <time>2012-09-06T14:59:12Z</time>
      </trkpt>
      <trkpt lat="46.28893" lon="4.83256">
        <ele>173.66</ele>
        <time>2012-09-06T14:59:13Z</time>
      </trkpt>
      <trkpt lat="46.28896" lon="4.8326">
        <ele>173.66</ele>
        <time>2012-09-06T14:59:14Z</time>
      </trkpt>
      <trkpt lat="46.28899" lon="4.83264">
        <ele>173.66</ele>
        <time>2012-09-06T14:59:15Z</time>
      </trkpt>
      <trkpt lat="46.28902" lon="4.83267">
        <ele>173.66</ele>
        <time>2012-09-06T14:59:16Z</time>
      </trkpt>
      <trkpt lat="46.28942" lon="4.83338">
        <ele>173.66</ele>
        <time>2012-09-06T14:59:32Z</time>
      </trkpt>
      <trkpt lat="46.2897" lon="4.83434">
        <ele>173.66</ele>
        <time>2012-09-06T14:59:50Z</time>
      </trkpt>
      <trkpt lat="46.29007" lon="4.83555">
        <ele>174.14</ele>
        <time>2012-09-06T15:00:12Z</time>
      </trkpt>
      <trkpt lat="46.29046" lon="4.83649">
        <ele>173.66</ele>
        <time>2012-09-06T15:00:31Z</time>
      </trkpt>
      <trkpt lat="46.29085" lon="4.83696">
        <ele>174.62</ele>
        <time>2012-09-06T15:00:45Z</time>
      </trkpt>
      <trkpt lat="46.29138" lon="4.83728">
        <ele>175.58</ele>
        <time>2012-09-06T15:01:02Z</time>
      </trkpt>
      <trkpt lat="46.29189" lon="4.83735">
        <ele>177.5</ele>
        <time>2012-09-06T15:01:18Z</time>
      </trkpt>
      <trkpt lat="46.29231" lon="4.83725">
        <ele>179.42</ele>
        <time>2012-09-06T15:01:33Z</time>
      </trkpt>
      <trkpt lat="46.29273" lon="4.837">
        <ele>181.35</ele>
        <time>2012-09-06T15:01:49Z</time>
      </trkpt>
      <trkpt lat="46.29316" lon="4.83666">
        <ele>182.79</ele>
        <time>2012-09-06T15:02:07Z</time>
      </trkpt>
      <trkpt lat="46.29349" lon="4.83639">
        <ele>183.75</ele>
        <time>2012-09-06T15:02:22Z</time>
      </trkpt>
      <trkpt lat="46.29403" lon="4.83595">
        <ele>183.75</ele>
        <time>2012-09-06T15:02:40Z</time>
      </trkpt>
      <trkpt lat="46.29453" lon="4.83555">
        <ele>182.79</ele>
        <time>2012-09-06T15:02:57Z</time>
      </trkpt>
      <trkpt lat="46.29456" lon="4.83552">
        <ele>182.79</ele>
        <time>2012-09-06T15:03:07Z</time>
      </trkpt>
      <trkpt lat="46.29474" lon="4.83536">
        <ele>182.31</ele>
        <time>2012-09-06T15:03:17Z</time>
      </trkpt>
      <trkpt lat="46.29538" lon="4.83495">
        <ele>180.38</ele>
        <time>2012-09-06T15:03:31Z</time>
      </trkpt>
      <trkpt lat="46.29609" lon="4.83471">
        <ele>177.02</ele>
        <time>2012-09-06T15:03:42Z</time>
      </trkpt>
      <trkpt lat="46.29676" lon="4.83452">
        <ele>177.98</ele>
        <time>2012-09-06T15:03:54Z</time>
      </trkpt>
      <trkpt lat="46.29712" lon="4.8346">
        <ele>178.46</ele>
        <time>2012-09-06T15:04:06Z</time>
      </trkpt>
      <trkpt lat="46.29744" lon="4.83447">
        <ele>178.94</ele>
        <time>2012-09-06T15:04:17Z</time>
      </trkpt>
      <trkpt lat="46.29749" lon="4.83434">
        <ele>178.94</ele>
        <time>2012-09-06T15:04:21Z</time>
      </trkpt>
      <trkpt lat="46.2975" lon="4.83432">
        <ele>180.38</ele>
        <time>2012-09-06T15:04:22Z</time>
      </trkpt>
      <trkpt lat="46.29753" lon="4.8343">
        <ele>178.94</ele>
        <time>2012-09-06T15:04:23Z</time>
      </trkpt>
      <trkpt lat="46.29755" lon="4.83428">
        <ele>178.94</ele>
        <time>2012-09-06T15:04:24Z</time>
      </trkpt>
      <trkpt lat="46.29758" lon="4.83426">
        <ele>178.94</ele>
        <time>2012-09-06T15:04:25Z</time>
      </trkpt>
      <trkpt lat="46.2976" lon="4.83425">
        <ele>178.94</ele>
        <time>2012-09-06T15:04:26Z</time>
      </trkpt>
      <trkpt lat="46.29781" lon="4.83415">
        <ele>177.5</ele>
        <time>2012-09-06T15:04:38Z</time>
      </trkpt>
      <trkpt lat="46.29799" lon="4.83407">
        <ele>176.54</ele>
        <time>2012-09-06T15:04:49Z</time>
      </trkpt>
      <trkpt lat="46.29858" lon="4.83391">
        <ele>174.14</ele>
        <time>2012-09-06T15:05:01Z</time>
      </trkpt>
      <trkpt lat="46.29863" lon="4.83391">
        <ele>175.1</ele>
        <time>2012-09-06T15:05:02Z</time>
      </trkpt>
      <trkpt lat="46.29868" lon="4.8339">
        <ele>174.62</ele>
        <time>2012-09-06T15:05:03Z</time>
      </trkpt>
      <trkpt lat="46.29873" lon="4.8339">
        <ele>174.62</ele>
        <time>2012-09-06T15:05:04Z</time>
      </trkpt>
      <trkpt lat="46.29878" lon="4.83391">
        <ele>174.62</ele>
        <time>2012-09-06T15:05:05Z</time>
      </trkpt>
      <trkpt lat="46.29882" lon="4.83391">
        <ele>175.1</ele>
        <time>2012-09-06T15:05:06Z</time>
      </trkpt>
      <trkpt lat="46.2991" lon="4.83398">
        <ele>174.62</ele>
        <time>2012-09-06T15:05:12Z</time>
      </trkpt>
      <trkpt lat="46.29987" lon="4.83437">
        <ele>174.62</ele>
        <time>2012-09-06T15:05:30Z</time>
      </trkpt>
      <trkpt lat="46.30055" lon="4.83491">
        <ele>175.1</ele>
        <time>2012-09-06T15:05:47Z</time>
      </trkpt>
      <trkpt lat="46.30123" lon="4.83552">
        <ele>174.14</ele>
        <time>2012-09-06T15:06:05Z</time>
      </trkpt>
      <trkpt lat="46.30137" lon="4.83565">
        <ele>174.62</ele>
        <time>2012-09-06T15:06:09Z</time>
      </trkpt>
      <trkpt lat="46.30198" lon="4.83621">
        <ele>174.14</ele>
        <time>2012-09-06T15:06:26Z</time>
      </trkpt>
      <trkpt lat="46.30272" lon="4.8369">
        <ele>174.14</ele>
        <time>2012-09-06T15:06:46Z</time>
      </trkpt>
      <trkpt lat="46.30335" lon="4.8375">
        <ele>174.62</ele>
        <time>2012-09-06T15:07:04Z</time>
      </trkpt>
      <trkpt lat="46.30359" lon="4.83771">
        <ele>174.14</ele>
        <time>2012-09-06T15:07:11Z</time>
      </trkpt>
      <trkpt lat="46.30404" lon="4.83815">
        <ele>175.1</ele>
        <time>2012-09-06T15:07:26Z</time>
      </trkpt>
      <trkpt lat="46.30408" lon="4.83819">
        <ele>174.62</ele>
        <time>2012-09-06T15:07:35Z</time>
      </trkpt>
      <trkpt lat="46.30407" lon="4.83818">
        <ele>175.1</ele>
        <time>2012-09-06T15:07:59Z</time>
      </trkpt>
      <trkpt lat="46.30407" lon="4.83817">
        <ele>174.62</ele>
        <time>2012-09-06T15:08:28Z</time>
      </trkpt>
      <trkpt lat="46.30407" lon="4.83816">
        <ele>175.1</ele>
        <time>2012-09-06T15:08:54Z</time>
      </trkpt>
      <trkpt lat="46.30408" lon="4.83816">
        <ele>175.1</ele>
        <time>2012-09-06T15:08:56Z</time>
      </trkpt>
      <trkpt lat="46.3041" lon="4.83818">
        <ele>175.1</ele>
        <time>2012-09-06T15:08:58Z</time>
      </trkpt>
      <trkpt lat="46.30426" lon="4.83835">
        <ele>176.06</ele>
        <time>2012-09-06T15:09:10Z</time>
      </trkpt>
      <trkpt lat="46.30442" lon="4.8386">
        <ele>177.02</ele>
        <time>2012-09-06T15:09:21Z</time>
      </trkpt>
      <trkpt lat="46.30454" lon="4.83872">
        <ele>177.5</ele>
        <time>2012-09-06T15:09:29Z</time>
      </trkpt>
      <trkpt lat="46.30454" lon="4.83874">
        <ele>177.5</ele>
        <time>2012-09-06T15:09:30Z</time>
      </trkpt>
      <trkpt lat="46.30454" lon="4.83876">
        <ele>177.5</ele>
        <time>2012-09-06T15:09:31Z</time>
      </trkpt>
      <trkpt lat="46.30454" lon="4.83879">
        <ele>177.5</ele>
        <time>2012-09-06T15:09:32Z</time>
      </trkpt>
      <trkpt lat="46.30454" lon="4.83881">
        <ele>177.5</ele>
        <time>2012-09-06T15:09:33Z</time>
      </trkpt>
      <trkpt lat="46.30455" lon="4.83884">
        <ele>177.5</ele>
        <time>2012-09-06T15:09:34Z</time>
      </trkpt>
      <trkpt lat="46.30456" lon="4.83886">
        <ele>177.5</ele>
        <time>2012-09-06T15:09:35Z</time>
      </trkpt>
      <trkpt lat="46.30458" lon="4.83888">
        <ele>177.5</ele>
        <time>2012-09-06T15:09:36Z</time>
      </trkpt>
      <trkpt lat="46.30459" lon="4.83892">
        <ele>177.98</ele>
        <time>2012-09-06T15:09:37Z</time>
      </trkpt>
      <trkpt lat="46.30459" lon="4.83895">
        <ele>177.5</ele>
        <time>2012-09-06T15:09:38Z</time>
      </trkpt>
      <trkpt lat="46.30459" lon="4.83898">
        <ele>177.5</ele>
        <time>2012-09-06T15:09:39Z</time>
      </trkpt>
      <trkpt lat="46.30461" lon="4.83903">
        <ele>177.5</ele>
        <time>2012-09-06T15:09:41Z</time>
      </trkpt>
      <trkpt lat="46.30463" lon="4.83903">
        <ele>177.5</ele>
        <time>2012-09-06T15:09:42Z</time>
      </trkpt>
      <trkpt lat="46.30464" lon="4.83904">
        <ele>177.5</ele>
        <time>2012-09-06T15:09:43Z</time>
      </trkpt>
      <trkpt lat="46.30466" lon="4.83904">
        <ele>177.5</ele>
        <time>2012-09-06T15:09:44Z</time>
      </trkpt>
      <trkpt lat="46.30467" lon="4.83905">
        <ele>177.5</ele>
        <time>2012-09-06T15:09:45Z</time>
      </trkpt>
      <trkpt lat="46.3047" lon="4.83908">
        <ele>177.5</ele>
        <time>2012-09-06T15:09:59Z</time>
      </trkpt>
      <trkpt lat="46.30471" lon="4.83908">
        <ele>177.5</ele>
        <time>2012-09-06T15:10:08Z</time>
      </trkpt>
      <trkpt lat="46.30472" lon="4.83908">
        <ele>177.5</ele>
        <time>2012-09-06T15:10:09Z</time>
      </trkpt>
      <trkpt lat="46.30473" lon="4.83908">
        <ele>177.5</ele>
        <time>2012-09-06T15:10:10Z</time>
      </trkpt>
      <trkpt lat="46.30474" lon="4.83906">
        <ele>177.5</ele>
        <time>2012-09-06T15:10:11Z</time>
      </trkpt>
      <trkpt lat="46.30475" lon="4.83903">
        <ele>177.5</ele>
        <time>2012-09-06T15:10:12Z</time>
      </trkpt>
      <trkpt lat="46.30475" lon="4.839">
        <ele>177.5</ele>
        <time>2012-09-06T15:10:13Z</time>
      </trkpt>
      <trkpt lat="46.30474" lon="4.83896">
        <ele>177.5</ele>
        <time>2012-09-06T15:10:14Z</time>
      </trkpt>
      <trkpt lat="46.30468" lon="4.83841">
        <ele>179.42</ele>
        <time>2012-09-06T15:10:26Z</time>
      </trkpt>
      <trkpt lat="46.3048" lon="4.83776">
        <ele>180.87</ele>
        <time>2012-09-06T15:10:40Z</time>
      </trkpt>
      <trkpt lat="46.30498" lon="4.83699">
        <ele>181.83</ele>
        <time>2012-09-06T15:10:57Z</time>
      </trkpt>
      <trkpt lat="46.30509" lon="4.83663">
        <ele>182.31</ele>
        <time>2012-09-06T15:11:11Z</time>
      </trkpt>
      <trkpt lat="46.30509" lon="4.83661">
        <ele>182.31</ele>
        <time>2012-09-06T15:11:13Z</time>
      </trkpt>
      <trkpt lat="46.3051" lon="4.83659">
        <ele>182.79</ele>
        <time>2012-09-06T15:11:14Z</time>
      </trkpt>
      <trkpt lat="46.30511" lon="4.83655">
        <ele>182.79</ele>
        <time>2012-09-06T15:11:15Z</time>
      </trkpt>
      <trkpt lat="46.30529" lon="4.83605">
        <ele>181.83</ele>
        <time>2012-09-06T15:11:26Z</time>
      </trkpt>
      <trkpt lat="46.30531" lon="4.83603">
        <ele>182.31</ele>
        <time>2012-09-06T15:11:27Z</time>
      </trkpt>
      <trkpt lat="46.30549" lon="4.83607">
        <ele>179.9</ele>
        <time>2012-09-06T15:11:33Z</time>
      </trkpt>
      <trkpt lat="46.30597" lon="4.83646">
        <ele>177.98</ele>
        <time>2012-09-06T15:11:49Z</time>
      </trkpt>
      <trkpt lat="46.30638" lon="4.83667">
        <ele>177.02</ele>
        <time>2012-09-06T15:12:01Z</time>
      </trkpt>
      <trkpt lat="46.30679" lon="4.8368">
        <ele>177.5</ele>
        <time>2012-09-06T15:12:13Z</time>
      </trkpt>
      <trkpt lat="46.30732" lon="4.83702">
        <ele>177.98</ele>
        <time>2012-09-06T15:12:28Z</time>
      </trkpt>
      <trkpt lat="46.30785" lon="4.83724">
        <ele>177.5</ele>
        <time>2012-09-06T15:12:43Z</time>
      </trkpt>
      <trkpt lat="46.30831" lon="4.83743">
        <ele>177.5</ele>
        <time>2012-09-06T15:12:56Z</time>
      </trkpt>
      <trkpt lat="46.30881" lon="4.83762">
        <ele>177.5</ele>
        <time>2012-09-06T15:13:11Z</time>
      </trkpt>
      <trkpt lat="46.30926" lon="4.83792">
        <ele>177.5</ele>
        <time>2012-09-06T15:13:24Z</time>
      </trkpt>
      <trkpt lat="46.30971" lon="4.83803">
        <ele>177.98</ele>
        <time>2012-09-06T15:13:37Z</time>
      </trkpt>
      <trkpt lat="46.31007" lon="4.8381">
        <ele>177.5</ele>
        <time>2012-09-06T15:13:49Z</time>
      </trkpt>
      <trkpt lat="46.31056" lon="4.83831">
        <ele>177.02</ele>
        <time>2012-09-06T15:14:04Z</time>
      </trkpt>
      <trkpt lat="46.31115" lon="4.83852">
        <ele>177.02</ele>
        <time>2012-09-06T15:14:20Z</time>
      </trkpt>
      <trkpt lat="46.31151" lon="4.83874">
        <ele>177.5</ele>
        <time>2012-09-06T15:14:32Z</time>
      </trkpt>
      <trkpt lat="46.3119" lon="4.83906">
        <ele>177.5</ele>
        <time>2012-09-06T15:14:46Z</time>
      </trkpt>
      <trkpt lat="46.31235" lon="4.8394">
        <ele>177.5</ele>
        <time>2012-09-06T15:15:01Z</time>
      </trkpt>
      <trkpt lat="46.31286" lon="4.83973">
        <ele>177.5</ele>
        <time>2012-09-06T15:15:18Z</time>
      </trkpt>
      <trkpt lat="46.31308" lon="4.83986">
        <ele>177.02</ele>
        <time>2012-09-06T15:15:30Z</time>
      </trkpt>
      <trkpt lat="46.31309" lon="4.83987">
        <ele>177.5</ele>
        <time>2012-09-06T15:15:43Z</time>
      </trkpt>
      <trkpt lat="46.3131" lon="4.83988">
        <ele>177.02</ele>
        <time>2012-09-06T15:16:13Z</time>
      </trkpt>
      <trkpt lat="46.3131" lon="4.83987">
        <ele>177.5</ele>
        <time>2012-09-06T15:16:31Z</time>
      </trkpt>
      <trkpt lat="46.3131" lon="4.83987">
        <ele>177.02</ele>
        <time>2012-09-06T15:16:34Z</time>
      </trkpt>
      <trkpt lat="46.31311" lon="4.83988">
        <ele>177.02</ele>
        <time>2012-09-06T15:16:35Z</time>
      </trkpt>
      <trkpt lat="46.31312" lon="4.83988">
        <ele>177.02</ele>
        <time>2012-09-06T15:16:36Z</time>
      </trkpt>
      <trkpt lat="46.31314" lon="4.83988">
        <ele>177.02</ele>
        <time>2012-09-06T15:16:37Z</time>
      </trkpt>
      <trkpt lat="46.31315" lon="4.83988">
        <ele>177.5</ele>
        <time>2012-09-06T15:16:38Z</time>
      </trkpt>
      <trkpt lat="46.31317" lon="4.83989">
        <ele>177.5</ele>
        <time>2012-09-06T15:16:39Z</time>
      </trkpt>
      <trkpt lat="46.31319" lon="4.83989">
        <ele>177.5</ele>
        <time>2012-09-06T15:16:40Z</time>
      </trkpt>
      <trkpt lat="46.31356" lon="4.83992">
        <ele>177.98</ele>
        <time>2012-09-06T15:16:52Z</time>
      </trkpt>
      <trkpt lat="46.31406" lon="4.84013">
        <ele>177.5</ele>
        <time>2012-09-06T15:17:07Z</time>
      </trkpt>
      <trkpt lat="46.31406" lon="4.84013">
        <ele>177.02</ele>
        <time>2012-09-06T15:17:21Z</time>
      </trkpt>
      <trkpt lat="46.31409" lon="4.8401">
        <ele>177.5</ele>
        <time>2012-09-06T15:17:25Z</time>
      </trkpt>
      <trkpt lat="46.31411" lon="4.8401">
        <ele>177.5</ele>
        <time>2012-09-06T15:17:26Z</time>
      </trkpt>
      <trkpt lat="46.31412" lon="4.84009">
        <ele>177.5</ele>
        <time>2012-09-06T15:17:27Z</time>
      </trkpt>
      <trkpt lat="46.31414" lon="4.8401">
        <ele>177.5</ele>
        <time>2012-09-06T15:17:28Z</time>
      </trkpt>
      <trkpt lat="46.31416" lon="4.84011">
        <ele>177.5</ele>
        <time>2012-09-06T15:17:29Z</time>
      </trkpt>
      <trkpt lat="46.31419" lon="4.84013">
        <ele>177.5</ele>
        <time>2012-09-06T15:17:30Z</time>
      </trkpt>
      <trkpt lat="46.31422" lon="4.84015">
        <ele>177.5</ele>
        <time>2012-09-06T15:17:31Z</time>
      </trkpt>
      <trkpt lat="46.31432" lon="4.8402">
        <ele>177.02</ele>
        <time>2012-09-06T15:17:34Z</time>
      </trkpt>
      <trkpt lat="46.31455" lon="4.84023">
        <ele>177.02</ele>
        <time>2012-09-06T15:17:39Z</time>
      </trkpt>
      <trkpt lat="46.31459" lon="4.84023">
        <ele>177.02</ele>
        <time>2012-09-06T15:17:40Z</time>
      </trkpt>
      <trkpt lat="46.31463" lon="4.84021">
        <ele>176.54</ele>
        <time>2012-09-06T15:17:41Z</time>
      </trkpt>
      <trkpt lat="46.31467" lon="4.84019">
        <ele>176.54</ele>
        <time>2012-09-06T15:17:42Z</time>
      </trkpt>
      <trkpt lat="46.31471" lon="4.84018">
        <ele>176.54</ele>
        <time>2012-09-06T15:17:43Z</time>
      </trkpt>
      <trkpt lat="46.31475" lon="4.84017">
        <ele>176.54</ele>
        <time>2012-09-06T15:17:44Z</time>
      </trkpt>
      <trkpt lat="46.31511" lon="4.83998">
        <ele>177.5</ele>
        <time>2012-09-06T15:17:55Z</time>
      </trkpt>
      <trkpt lat="46.31552" lon="4.83981">
        <ele>177.5</ele>
        <time>2012-09-06T15:18:07Z</time>
      </trkpt>
      <trkpt lat="46.31581" lon="4.83992">
        <ele>177.02</ele>
        <time>2012-09-06T15:18:16Z</time>
      </trkpt>
      <trkpt lat="46.31582" lon="4.83994">
        <ele>177.02</ele>
        <time>2012-09-06T15:18:17Z</time>
      </trkpt>
      <trkpt lat="46.31584" lon="4.83995">
        <ele>177.02</ele>
        <time>2012-09-06T15:18:18Z</time>
      </trkpt>
      <trkpt lat="46.31619" lon="4.83982">
        <ele>177.5</ele>
        <time>2012-09-06T15:18:31Z</time>
      </trkpt>
      <trkpt lat="46.31658" lon="4.83941">
        <ele>177.5</ele>
        <time>2012-09-06T15:18:45Z</time>
      </trkpt>
      <trkpt lat="46.31705" lon="4.83917">
        <ele>177.5</ele>
        <time>2012-09-06T15:18:59Z</time>
      </trkpt>
      <trkpt lat="46.31756" lon="4.83911">
        <ele>177.5</ele>
        <time>2012-09-06T15:19:13Z</time>
      </trkpt>
      <trkpt lat="46.3177" lon="4.83901">
        <ele>177.5</ele>
        <time>2012-09-06T15:19:17Z</time>
      </trkpt>
      <trkpt lat="46.31814" lon="4.83897">
        <ele>177.02</ele>
        <time>2012-09-06T15:19:28Z</time>
      </trkpt>
      <trkpt lat="46.31871" lon="4.83897">
        <ele>177.5</ele>
        <time>2012-09-06T15:19:43Z</time>
      </trkpt>
      <trkpt lat="46.3191" lon="4.83894">
        <ele>177.98</ele>
        <time>2012-09-06T15:19:56Z</time>
      </trkpt>
      <trkpt lat="46.31943" lon="4.83905">
        <ele>177.5</ele>
        <time>2012-09-06T15:20:07Z</time>
      </trkpt>
      <trkpt lat="46.31987" lon="4.83923">
        <ele>177.5</ele>
        <time>2012-09-06T15:20:19Z</time>
      </trkpt>
      <trkpt lat="46.32025" lon="4.83938">
        <ele>178.94</ele>
        <time>2012-09-06T15:20:31Z</time>
      </trkpt>
      <trkpt lat="46.32043" lon="4.83945">
        <ele>177.5</ele>
        <time>2012-09-06T15:20:38Z</time>
      </trkpt>
      <trkpt lat="46.32044" lon="4.83947">
        <ele>177.5</ele>
        <time>2012-09-06T15:20:39Z</time>
      </trkpt>
      <trkpt lat="46.32045" lon="4.83949">
        <ele>177.5</ele>
        <time>2012-09-06T15:20:40Z</time>
      </trkpt>
      <trkpt lat="46.32048" lon="4.83951">
        <ele>177.5</ele>
        <time>2012-09-06T15:20:47Z</time>
      </trkpt>
      <trkpt lat="46.3205" lon="4.83949">
        <ele>177.5</ele>
        <time>2012-09-06T15:20:49Z</time>
      </trkpt>
      <trkpt lat="46.32063" lon="4.83954">
        <ele>177.5</ele>
        <time>2012-09-06T15:20:55Z</time>
      </trkpt>
      <trkpt lat="46.32117" lon="4.83976">
        <ele>177.5</ele>
        <time>2012-09-06T15:21:10Z</time>
      </trkpt>
      <trkpt lat="46.32179" lon="4.83996">
        <ele>177.5</ele>
        <time>2012-09-06T15:21:25Z</time>
      </trkpt>
      <trkpt lat="46.32214" lon="4.84013">
        <ele>177.5</ele>
        <time>2012-09-06T15:21:35Z</time>
      </trkpt>
      <trkpt lat="46.32262" lon="4.84032">
        <ele>177.98</ele>
        <time>2012-09-06T15:21:48Z</time>
      </trkpt>
      <trkpt lat="46.32315" lon="4.84055">
        <ele>177.5</ele>
        <time>2012-09-06T15:22:02Z</time>
      </trkpt>
      <trkpt lat="46.32373" lon="4.84076">
        <ele>177.5</ele>
        <time>2012-09-06T15:22:17Z</time>
      </trkpt>
      <trkpt lat="46.32413" lon="4.84092">
        <ele>177.98</ele>
        <time>2012-09-06T15:22:30Z</time>
      </trkpt>
      <trkpt lat="46.32449" lon="4.8411">
        <ele>177.98</ele>
        <time>2012-09-06T15:22:42Z</time>
      </trkpt>
      <trkpt lat="46.32471" lon="4.84117">
        <ele>177.98</ele>
        <time>2012-09-06T15:22:52Z</time>
      </trkpt>
      <trkpt lat="46.32472" lon="4.84117">
        <ele>178.46</ele>
        <time>2012-09-06T15:23:06Z</time>
      </trkpt>
      <trkpt lat="46.32474" lon="4.84116">
        <ele>178.46</ele>
        <time>2012-09-06T15:23:16Z</time>
      </trkpt>
      <trkpt lat="46.32475" lon="4.84116">
        <ele>178.46</ele>
        <time>2012-09-06T15:23:17Z</time>
      </trkpt>
      <trkpt lat="46.32477" lon="4.84116">
        <ele>177.98</ele>
        <time>2012-09-06T15:23:18Z</time>
      </trkpt>
      <trkpt lat="46.32479" lon="4.84115">
        <ele>178.46</ele>
        <time>2012-09-06T15:23:19Z</time>
      </trkpt>
      <trkpt lat="46.32481" lon="4.84114">
        <ele>178.46</ele>
        <time>2012-09-06T15:23:20Z</time>
      </trkpt>
      <trkpt lat="46.32483" lon="4.84113">
        <ele>178.46</ele>
        <time>2012-09-06T15:23:21Z</time>
      </trkpt>
      <trkpt lat="46.32484" lon="4.84111">
        <ele>177.98</ele>
        <time>2012-09-06T15:23:22Z</time>
      </trkpt>
      <trkpt lat="46.32485" lon="4.84109">
        <ele>177.98</ele>
        <time>2012-09-06T15:23:23Z</time>
      </trkpt>
      <trkpt lat="46.32487" lon="4.84106">
        <ele>178.46</ele>
        <time>2012-09-06T15:23:24Z</time>
      </trkpt>
      <trkpt lat="46.32525" lon="4.84078">
        <ele>177.98</ele>
        <time>2012-09-06T15:23:37Z</time>
      </trkpt>
      <trkpt lat="46.32566" lon="4.8409">
        <ele>177.98</ele>
        <time>2012-09-06T15:23:49Z</time>
      </trkpt>
      <trkpt lat="46.32598" lon="4.84103">
        <ele>177.98</ele>
        <time>2012-09-06T15:24:01Z</time>
      </trkpt>
      <trkpt lat="46.32656" lon="4.84129">
        <ele>177.98</ele>
        <time>2012-09-06T15:24:16Z</time>
      </trkpt>
      <trkpt lat="46.32674" lon="4.84135">
        <ele>177.98</ele>
        <time>2012-09-06T15:24:20Z</time>
      </trkpt>
      <trkpt lat="46.32738" lon="4.84161">
        <ele>178.46</ele>
        <time>2012-09-06T15:24:35Z</time>
      </trkpt>
      <trkpt lat="46.32787" lon="4.84181">
        <ele>178.46</ele>
        <time>2012-09-06T15:24:48Z</time>
      </trkpt>
      <trkpt lat="46.32839" lon="4.84203">
        <ele>178.46</ele>
        <time>2012-09-06T15:25:03Z</time>
      </trkpt>
      <trkpt lat="46.32896" lon="4.84225">
        <ele>178.46</ele>
        <time>2012-09-06T15:25:21Z</time>
      </trkpt>
      <trkpt lat="46.32957" lon="4.84249">
        <ele>178.46</ele>
        <time>2012-09-06T15:25:38Z</time>
      </trkpt>
      <trkpt lat="46.33001" lon="4.8427">
        <ele>178.46</ele>
        <time>2012-09-06T15:25:51Z</time>
      </trkpt>
      <trkpt lat="46.33013" lon="4.84315">
        <ele>177.98</ele>
        <time>2012-09-06T15:26:03Z</time>
      </trkpt>
      <trkpt lat="46.33018" lon="4.84319">
        <ele>177.98</ele>
        <time>2012-09-06T15:26:05Z</time>
      </trkpt>
      <trkpt lat="46.3302" lon="4.8432">
        <ele>177.98</ele>
        <time>2012-09-06T15:26:06Z</time>
      </trkpt>
      <trkpt lat="46.33051" lon="4.84333">
        <ele>177.5</ele>
        <time>2012-09-06T15:26:22Z</time>
      </trkpt>
      <trkpt lat="46.33069" lon="4.84342">
        <ele>177.5</ele>
        <time>2012-09-06T15:26:31Z</time>
      </trkpt>
      <trkpt lat="46.3307" lon="4.84344">
        <ele>177.5</ele>
        <time>2012-09-06T15:26:32Z</time>
      </trkpt>
      <trkpt lat="46.33071" lon="4.84347">
        <ele>177.5</ele>
        <time>2012-09-06T15:26:45Z</time>
      </trkpt>
      <trkpt lat="46.33069" lon="4.84353">
        <ele>177.5</ele>
        <time>2012-09-06T15:26:48Z</time>
      </trkpt>
      <trkpt lat="46.33067" lon="4.84354">
        <ele>177.5</ele>
        <time>2012-09-06T15:26:49Z</time>
      </trkpt>
      <trkpt lat="46.33064" lon="4.84356">
        <ele>177.5</ele>
        <time>2012-09-06T15:26:50Z</time>
      </trkpt>
      <trkpt lat="46.33042" lon="4.84359">
        <ele>177.02</ele>
        <time>2012-09-06T15:27:02Z</time>
      </trkpt>
      <trkpt lat="46.33042" lon="4.84356">
        <ele>177.5</ele>
        <time>2012-09-06T15:27:15Z</time>
      </trkpt>
      <trkpt lat="46.33041" lon="4.84355">
        <ele>177.5</ele>
        <time>2012-09-06T15:27:48Z</time>
      </trkpt>
      <trkpt lat="46.33041" lon="4.84356">
        <ele>177.02</ele>
        <time>2012-09-06T15:28:20Z</time>
      </trkpt>
      <trkpt lat="46.33041" lon="4.84357">
        <ele>177.02</ele>
        <time>2012-09-06T15:28:50Z</time>
      </trkpt>
      <trkpt lat="46.33041" lon="4.84356">
        <ele>177.02</ele>
        <time>2012-09-06T15:29:21Z</time>
      </trkpt>
      <trkpt lat="46.33042" lon="4.84357">
        <ele>177.02</ele>
        <time>2012-09-06T15:29:53Z</time>
      </trkpt>
      <trkpt lat="46.33041" lon="4.84358">
        <ele>177.02</ele>
        <time>2012-09-06T15:30:20Z</time>
      </trkpt>
      <trkpt lat="46.33041" lon="4.84357">
        <ele>177.02</ele>
        <time>2012-09-06T15:30:49Z</time>
      </trkpt>
      <trkpt lat="46.3304" lon="4.84356">
        <ele>177.02</ele>
        <time>2012-09-06T15:31:21Z</time>
      </trkpt>
      <trkpt lat="46.3304" lon="4.84356">
        <ele>177.02</ele>
        <time>2012-09-06T15:31:52Z</time>
      </trkpt>
      <trkpt lat="46.3304" lon="4.84359">
        <ele>177.5</ele>
        <time>2012-09-06T15:32:13Z</time>
      </trkpt>
      <trkpt lat="46.33039" lon="4.8436">
        <ele>177.5</ele>
        <time>2012-09-06T15:32:35Z</time>
      </trkpt>
      <trkpt lat="46.33038" lon="4.84361">
        <ele>177.5</ele>
        <time>2012-09-06T15:32:36Z</time>
      </trkpt>
      <trkpt lat="46.33036" lon="4.84361">
        <ele>177.02</ele>
        <time>2012-09-06T15:32:37Z</time>
      </trkpt>
      <trkpt lat="46.33034" lon="4.84361">
        <ele>178.46</ele>
        <time>2012-09-06T15:32:38Z</time>
      </trkpt>
      <trkpt lat="46.33033" lon="4.84362">
        <ele>177.5</ele>
        <time>2012-09-06T15:32:39Z</time>
      </trkpt>
      <trkpt lat="46.33031" lon="4.84362">
        <ele>177.5</ele>
        <time>2012-09-06T15:32:40Z</time>
      </trkpt>
      <trkpt lat="46.33029" lon="4.84362">
        <ele>177.5</ele>
        <time>2012-09-06T15:32:41Z</time>
      </trkpt>
      <trkpt lat="46.33025" lon="4.84364">
        <ele>177.5</ele>
        <time>2012-09-06T15:32:44Z</time>
      </trkpt>
      <trkpt lat="46.33024" lon="4.84366">
        <ele>177.5</ele>
        <time>2012-09-06T15:32:45Z</time>
      </trkpt>
      <trkpt lat="46.33022" lon="4.84368">
        <ele>177.5</ele>
        <time>2012-09-06T15:32:46Z</time>
      </trkpt>
      <trkpt lat="46.33021" lon="4.84371">
        <ele>177.5</ele>
        <time>2012-09-06T15:32:47Z</time>
      </trkpt>
      <trkpt lat="46.3302" lon="4.84375">
        <ele>177.02</ele>
        <time>2012-09-06T15:32:48Z</time>
      </trkpt>
      <trkpt lat="46.33018" lon="4.84394">
        <ele>177.02</ele>
        <time>2012-09-06T15:32:53Z</time>
      </trkpt>
      <trkpt lat="46.33017" lon="4.84396">
        <ele>177.02</ele>
        <time>2012-09-06T15:32:54Z</time>
      </trkpt>
      <trkpt lat="46.33014" lon="4.84398">
        <ele>177.02</ele>
        <time>2012-09-06T15:32:55Z</time>
      </trkpt>
      <trkpt lat="46.33012" lon="4.84399">
        <ele>177.02</ele>
        <time>2012-09-06T15:32:56Z</time>
      </trkpt>
      <trkpt lat="46.3301" lon="4.84399">
        <ele>177.02</ele>
        <time>2012-09-06T15:32:57Z</time>
      </trkpt>
      <trkpt lat="46.3298" lon="4.84414">
        <ele>177.5</ele>
        <time>2012-09-06T15:33:10Z</time>
      </trkpt>
      <trkpt lat="46.32973" lon="4.84414">
        <ele>177.5</ele>
        <time>2012-09-06T15:33:13Z</time>
      </trkpt>
      <trkpt lat="46.32971" lon="4.84413">
        <ele>177.5</ele>
        <time>2012-09-06T15:33:14Z</time>
      </trkpt>
      <trkpt lat="46.3297" lon="4.84411">
        <ele>177.5</ele>
        <time>2012-09-06T15:33:15Z</time>
      </trkpt>
      <trkpt lat="46.32969" lon="4.84409">
        <ele>177.5</ele>
        <time>2012-09-06T15:33:16Z</time>
      </trkpt>
      <trkpt lat="46.32968" lon="4.84407">
        <ele>177.5</ele>
        <time>2012-09-06T15:33:17Z</time>
      </trkpt>
      <trkpt lat="46.32967" lon="4.84405">
        <ele>177.5</ele>
        <time>2012-09-06T15:33:18Z</time>
      </trkpt>
      <trkpt lat="46.32966" lon="4.84403">
        <ele>177.5</ele>
        <time>2012-09-06T15:33:19Z</time>
      </trkpt>
      <trkpt lat="46.32965" lon="4.84402">
        <ele>177.02</ele>
        <time>2012-09-06T15:33:20Z</time>
      </trkpt>
      <trkpt lat="46.32955" lon="4.8438">
        <ele>177.02</ele>
        <time>2012-09-06T15:33:29Z</time>
      </trkpt>
      <trkpt lat="46.32943" lon="4.84384">
        <ele>177.02</ele>
        <time>2012-09-06T15:33:35Z</time>
      </trkpt>
      <trkpt lat="46.32933" lon="4.84419">
        <ele>177.5</ele>
        <time>2012-09-06T15:33:48Z</time>
      </trkpt>
      <trkpt lat="46.32933" lon="4.84425">
        <ele>177.5</ele>
        <time>2012-09-06T15:33:51Z</time>
      </trkpt>
      <trkpt lat="46.32933" lon="4.84427">
        <ele>177.5</ele>
        <time>2012-09-06T15:33:52Z</time>
      </trkpt>
      <trkpt lat="46.32933" lon="4.8443">
        <ele>177.5</ele>
        <time>2012-09-06T15:33:53Z</time>
      </trkpt>
      <trkpt lat="46.32932" lon="4.84433">
        <ele>177.98</ele>
        <time>2012-09-06T15:33:54Z</time>
      </trkpt>
      <trkpt lat="46.32931" lon="4.84436">
        <ele>177.5</ele>
        <time>2012-09-06T15:33:55Z</time>
      </trkpt>
      <trkpt lat="46.32931" lon="4.84439">
        <ele>177.98</ele>
        <time>2012-09-06T15:33:56Z</time>
      </trkpt>
      <trkpt lat="46.32923" lon="4.84469">
        <ele>177.98</ele>
        <time>2012-09-06T15:34:10Z</time>
      </trkpt>
      <trkpt lat="46.32922" lon="4.84472">
        <ele>177.98</ele>
        <time>2012-09-06T15:34:12Z</time>
      </trkpt>
      <trkpt lat="46.32921" lon="4.84474">
        <ele>177.98</ele>
        <time>2012-09-06T15:34:13Z</time>
      </trkpt>
      <trkpt lat="46.32921" lon="4.84476">
        <ele>177.5</ele>
        <time>2012-09-06T15:34:14Z</time>
      </trkpt>
      <trkpt lat="46.32921" lon="4.84478">
        <ele>177.98</ele>
        <time>2012-09-06T15:34:15Z</time>
      </trkpt>
      <trkpt lat="46.32921" lon="4.84479">
        <ele>177.5</ele>
        <time>2012-09-06T15:34:16Z</time>
      </trkpt>
      <trkpt lat="46.32921" lon="4.84484">
        <ele>177.5</ele>
        <time>2012-09-06T15:34:27Z</time>
      </trkpt>
      <trkpt lat="46.32921" lon="4.84486">
        <ele>177.5</ele>
        <time>2012-09-06T15:34:28Z</time>
      </trkpt>
      <trkpt lat="46.32921" lon="4.84489">
        <ele>177.5</ele>
        <time>2012-09-06T15:34:29Z</time>
      </trkpt>
      <trkpt lat="46.32922" lon="4.84492">
        <ele>177.5</ele>
        <time>2012-09-06T15:34:30Z</time>
      </trkpt>
      <trkpt lat="46.32922" lon="4.84495">
        <ele>177.5</ele>
        <time>2012-09-06T15:34:31Z</time>
      </trkpt>
      <trkpt lat="46.32923" lon="4.84499">
        <ele>177.02</ele>
        <time>2012-09-06T15:34:32Z</time>
      </trkpt>
      <trkpt lat="46.32932" lon="4.84515">
        <ele>177.02</ele>
        <time>2012-09-06T15:34:38Z</time>
      </trkpt>
      <trkpt lat="46.32934" lon="4.84514">
        <ele>177.98</ele>
        <time>2012-09-06T15:34:39Z</time>
      </trkpt>
      <trkpt lat="46.32936" lon="4.84512">
        <ele>177.02</ele>
        <time>2012-09-06T15:34:40Z</time>
      </trkpt>
      <trkpt lat="46.32936" lon="4.84509">
        <ele>176.54</ele>
        <time>2012-09-06T15:34:41Z</time>
      </trkpt>
      <trkpt lat="46.32935" lon="4.84505">
        <ele>176.54</ele>
        <time>2012-09-06T15:34:42Z</time>
      </trkpt>
      <trkpt lat="46.32936" lon="4.84495">
        <ele>177.02</ele>
        <time>2012-09-06T15:34:51Z</time>
      </trkpt>
      <trkpt lat="46.32944" lon="4.84483">
        <ele>177.02</ele>
        <time>2012-09-06T15:35:05Z</time>
      </trkpt>
      <trkpt lat="46.32946" lon="4.84485">
        <ele>177.5</ele>
        <time>2012-09-06T15:35:19Z</time>
      </trkpt>
    </trkseg>
  </trk>
  <trk>
    <name><![CDATA[07-SEP-12 13:03:11]]></name>
    <trkseg>
      <trkpt lat="46.32947" lon="4.84472">
        <ele>119.82</ele>
        <time>2012-09-07T07:32:35Z</time>
      </trkpt>
      <trkpt lat="46.32947" lon="4.84475">
        <ele>119.34</ele>
        <time>2012-09-07T07:32:36Z</time>
      </trkpt>
      <trkpt lat="46.32947" lon="4.84477">
        <ele>119.34</ele>
        <time>2012-09-07T07:32:37Z</time>
      </trkpt>
      <trkpt lat="46.32942" lon="4.84481">
        <ele>118.38</ele>
        <time>2012-09-07T07:32:53Z</time>
      </trkpt>
      <trkpt lat="46.32947" lon="4.84482">
        <ele>119.82</ele>
        <time>2012-09-07T07:33:16Z</time>
      </trkpt>
      <trkpt lat="46.32951" lon="4.84483">
        <ele>123.67</ele>
        <time>2012-09-07T07:33:27Z</time>
      </trkpt>
      <trkpt lat="46.32951" lon="4.84482">
        <ele>131.84</ele>
        <time>2012-09-07T07:33:30Z</time>
      </trkpt>
      <trkpt lat="46.32951" lon="4.84481">
        <ele>131.36</ele>
        <time>2012-09-07T07:33:31Z</time>
      </trkpt>
      <trkpt lat="46.3295" lon="4.8448">
        <ele>135.68</ele>
        <time>2012-09-07T07:33:34Z</time>
      </trkpt>
      <trkpt lat="46.3295" lon="4.8448">
        <ele>140.01</ele>
        <time>2012-09-07T07:33:37Z</time>
      </trkpt>
      <trkpt lat="46.32949" lon="4.84479">
        <ele>143.37</ele>
        <time>2012-09-07T07:33:40Z</time>
      </trkpt>
      <trkpt lat="46.32948" lon="4.84479">
        <ele>147.22</ele>
        <time>2012-09-07T07:33:43Z</time>
      </trkpt>
      <trkpt lat="46.32947" lon="4.84479">
        <ele>150.1</ele>
        <time>2012-09-07T07:33:46Z</time>
      </trkpt>
      <trkpt lat="46.32946" lon="4.8448">
        <ele>153.95</ele>
        <time>2012-09-07T07:33:50Z</time>
      </trkpt>
      <trkpt lat="46.32945" lon="4.84479">
        <ele>157.31</ele>
        <time>2012-09-07T07:33:54Z</time>
      </trkpt>
      <trkpt lat="46.32946" lon="4.8448">
        <ele>160.68</ele>
        <time>2012-09-07T07:33:59Z</time>
      </trkpt>
      <trkpt lat="46.32946" lon="4.8448">
        <ele>162.12</ele>
        <time>2012-09-07T07:34:03Z</time>
      </trkpt>
      <trkpt lat="46.32947" lon="4.84481">
        <ele>165.48</ele>
        <time>2012-09-07T07:34:10Z</time>
      </trkpt>
      <trkpt lat="46.32946" lon="4.84478">
        <ele>168.85</ele>
        <time>2012-09-07T07:34:18Z</time>
      </trkpt>
      <trkpt lat="46.32946" lon="4.84478">
        <ele>169.33</ele>
        <time>2012-09-07T07:34:19Z</time>
      </trkpt>
      <trkpt lat="46.32948" lon="4.84479">
        <ele>172.21</ele>
        <time>2012-09-07T07:34:28Z</time>
      </trkpt>
      <trkpt lat="46.32948" lon="4.8448">
        <ele>176.06</ele>
        <time>2012-09-07T07:34:38Z</time>
      </trkpt>
      <trkpt lat="46.3295" lon="4.84481">
        <ele>177.98</ele>
        <time>2012-09-07T07:35:16Z</time>
      </trkpt>
      <trkpt lat="46.3295" lon="4.8448">
        <ele>178.46</ele>
        <time>2012-09-07T07:35:49Z</time>
      </trkpt>
      <trkpt lat="46.32949" lon="4.8448">
        <ele>178.46</ele>
        <time>2012-09-07T07:36:19Z</time>
      </trkpt>
      <trkpt lat="46.32949" lon="4.8448">
        <ele>178.94</ele>
        <time>2012-09-07T07:36:45Z</time>
      </trkpt>
      <trkpt lat="46.32949" lon="4.8448">
        <ele>178.94</ele>
        <time>2012-09-07T07:37:18Z</time>
      </trkpt>
      <trkpt lat="46.32948" lon="4.84479">
        <ele>178.94</ele>
        <time>2012-09-07T07:37:53Z</time>
      </trkpt>
      <trkpt lat="46.32949" lon="4.84479">
        <ele>178.94</ele>
        <time>2012-09-07T07:38:24Z</time>
      </trkpt>
      <trkpt lat="46.32949" lon="4.8448">
        <ele>178.94</ele>
        <time>2012-09-07T07:38:53Z</time>
      </trkpt>
      <trkpt lat="46.32951" lon="4.84479">
        <ele>178.94</ele>
        <time>2012-09-07T07:39:25Z</time>
      </trkpt>
      <trkpt lat="46.32951" lon="4.84479">
        <ele>179.42</ele>
        <time>2012-09-07T07:39:53Z</time>
      </trkpt>
      <trkpt lat="46.32944" lon="4.84479">
        <ele>179.42</ele>
        <time>2012-09-07T07:40:08Z</time>
      </trkpt>
      <trkpt lat="46.32941" lon="4.84484">
        <ele>179.42</ele>
        <time>2012-09-07T07:40:22Z</time>
      </trkpt>
      <trkpt lat="46.32941" lon="4.84485">
        <ele>179.42</ele>
        <time>2012-09-07T07:40:23Z</time>
      </trkpt>
      <trkpt lat="46.32938" lon="4.84514">
        <ele>178.94</ele>
        <time>2012-09-07T07:40:32Z</time>
      </trkpt>
      <trkpt lat="46.32949" lon="4.84505">
        <ele>178.94</ele>
        <time>2012-09-07T07:40:41Z</time>
      </trkpt>
      <trkpt lat="46.32958" lon="4.8446">
        <ele>179.42</ele>
        <time>2012-09-07T07:40:56Z</time>
      </trkpt>
      <trkpt lat="46.32985" lon="4.84412">
        <ele>179.42</ele>
        <time>2012-09-07T07:41:10Z</time>
      </trkpt>
      <trkpt lat="46.33023" lon="4.84407">
        <ele>179.42</ele>
        <time>2012-09-07T07:41:23Z</time>
      </trkpt>
      <trkpt lat="46.33031" lon="4.84411">
        <ele>178.94</ele>
        <time>2012-09-07T07:41:26Z</time>
      </trkpt>
      <trkpt lat="46.33042" lon="4.8439">
        <ele>178.94</ele>
        <time>2012-09-07T07:41:35Z</time>
      </trkpt>
      <trkpt lat="46.33073" lon="4.84355">
        <ele>178.94</ele>
        <time>2012-09-07T07:41:46Z</time>
      </trkpt>
      <trkpt lat="46.33073" lon="4.84345">
        <ele>179.42</ele>
        <time>2012-09-07T07:41:51Z</time>
      </trkpt>
      <trkpt lat="46.33064" lon="4.84334">
        <ele>178.94</ele>
        <time>2012-09-07T07:41:57Z</time>
      </trkpt>
      <trkpt lat="46.33048" lon="4.84329">
        <ele>179.42</ele>
        <time>2012-09-07T07:42:03Z</time>
      </trkpt>
      <trkpt lat="46.3303" lon="4.84321">
        <ele>179.42</ele>
        <time>2012-09-07T07:42:15Z</time>
      </trkpt>
      <trkpt lat="46.33028" lon="4.84321">
        <ele>178.94</ele>
        <time>2012-09-07T07:42:36Z</time>
      </trkpt>
      <trkpt lat="46.32996" lon="4.84322">
        <ele>179.42</ele>
        <time>2012-09-07T07:42:48Z</time>
      </trkpt>
      <trkpt lat="46.32938" lon="4.84338">
        <ele>179.42</ele>
        <time>2012-09-07T07:43:02Z</time>
      </trkpt>
      <trkpt lat="46.3293" lon="4.84338">
        <ele>179.42</ele>
        <time>2012-09-07T07:43:04Z</time>
      </trkpt>
      <trkpt lat="46.32907" lon="4.84335">
        <ele>179.42</ele>
        <time>2012-09-07T07:43:09Z</time>
      </trkpt>
      <trkpt lat="46.3286" lon="4.84316">
        <ele>179.42</ele>
        <time>2012-09-07T07:43:20Z</time>
      </trkpt>
      <trkpt lat="46.32786" lon="4.84285">
        <ele>178.94</ele>
        <time>2012-09-07T07:43:38Z</time>
      </trkpt>
      <trkpt lat="46.32765" lon="4.84276">
        <ele>178.94</ele>
        <time>2012-09-07T07:43:50Z</time>
      </trkpt>
      <trkpt lat="46.32762" lon="4.84276">
        <ele>178.94</ele>
        <time>2012-09-07T07:43:51Z</time>
      </trkpt>
      <trkpt lat="46.32759" lon="4.84276">
        <ele>178.94</ele>
        <time>2012-09-07T07:43:52Z</time>
      </trkpt>
      <trkpt lat="46.32757" lon="4.84275">
        <ele>178.94</ele>
        <time>2012-09-07T07:43:53Z</time>
      </trkpt>
      <trkpt lat="46.32702" lon="4.8425">
        <ele>178.94</ele>
        <time>2012-09-07T07:44:08Z</time>
      </trkpt>
      <trkpt lat="46.32672" lon="4.84241">
        <ele>178.94</ele>
        <time>2012-09-07T07:44:15Z</time>
      </trkpt>
      <trkpt lat="46.32669" lon="4.84239">
        <ele>178.94</ele>
        <time>2012-09-07T07:44:16Z</time>
      </trkpt>
      <trkpt lat="46.32617" lon="4.84217">
        <ele>178.94</ele>
        <time>2012-09-07T07:44:28Z</time>
      </trkpt>
      <trkpt lat="46.32532" lon="4.84185">
        <ele>178.94</ele>
        <time>2012-09-07T07:44:47Z</time>
      </trkpt>
      <trkpt lat="46.32492" lon="4.84172">
        <ele>178.94</ele>
        <time>2012-09-07T07:44:58Z</time>
      </trkpt>
      <trkpt lat="46.32491" lon="4.84174">
        <ele>179.42</ele>
        <time>2012-09-07T07:44:59Z</time>
      </trkpt>
      <trkpt lat="46.32491" lon="4.84191">
        <ele>179.42</ele>
        <time>2012-09-07T07:45:04Z</time>
      </trkpt>
      <trkpt lat="46.32514" lon="4.8428">
        <ele>179.42</ele>
        <time>2012-09-07T07:45:21Z</time>
      </trkpt>
      <trkpt lat="46.32548" lon="4.84407">
        <ele>178.94</ele>
        <time>2012-09-07T07:45:42Z</time>
      </trkpt>
      <trkpt lat="46.32563" lon="4.84466">
        <ele>178.46</ele>
        <time>2012-09-07T07:45:51Z</time>
      </trkpt>
      <trkpt lat="46.32562" lon="4.84472">
        <ele>178.46</ele>
        <time>2012-09-07T07:45:52Z</time>
      </trkpt>
      <trkpt lat="46.3256" lon="4.84478">
        <ele>178.46</ele>
        <time>2012-09-07T07:45:53Z</time>
      </trkpt>
      <trkpt lat="46.32558" lon="4.84484">
        <ele>177.98</ele>
        <time>2012-09-07T07:45:54Z</time>
      </trkpt>
      <trkpt lat="46.32557" lon="4.8449">
        <ele>177.98</ele>
        <time>2012-09-07T07:45:55Z</time>
      </trkpt>
      <trkpt lat="46.32558" lon="4.84496">
        <ele>177.98</ele>
        <time>2012-09-07T07:45:56Z</time>
      </trkpt>
      <trkpt lat="46.3256" lon="4.845">
        <ele>177.98</ele>
        <time>2012-09-07T07:45:57Z</time>
      </trkpt>
      <trkpt lat="46.32564" lon="4.84502">
        <ele>177.98</ele>
        <time>2012-09-07T07:45:58Z</time>
      </trkpt>
      <trkpt lat="46.32568" lon="4.84503">
        <ele>177.98</ele>
        <time>2012-09-07T07:45:59Z</time>
      </trkpt>
      <trkpt lat="46.32571" lon="4.84504">
        <ele>177.98</ele>
        <time>2012-09-07T07:46:00Z</time>
      </trkpt>
      <trkpt lat="46.32575" lon="4.84506">
        <ele>177.98</ele>
        <time>2012-09-07T07:46:01Z</time>
      </trkpt>
      <trkpt lat="46.32577" lon="4.8451">
        <ele>177.98</ele>
        <time>2012-09-07T07:46:02Z</time>
      </trkpt>
      <trkpt lat="46.32579" lon="4.84514">
        <ele>177.98</ele>
        <time>2012-09-07T07:46:03Z</time>
      </trkpt>
      <trkpt lat="46.32581" lon="4.84519">
        <ele>177.98</ele>
        <time>2012-09-07T07:46:04Z</time>
      </trkpt>
      <trkpt lat="46.32582" lon="4.84524">
        <ele>177.98</ele>
        <time>2012-09-07T07:46:05Z</time>
      </trkpt>
      <trkpt lat="46.32583" lon="4.8453">
        <ele>177.98</ele>
        <time>2012-09-07T07:46:06Z</time>
      </trkpt>
      <trkpt lat="46.32585" lon="4.84535">
        <ele>177.5</ele>
        <time>2012-09-07T07:46:07Z</time>
      </trkpt>
      <trkpt lat="46.32587" lon="4.8454">
        <ele>177.5</ele>
        <time>2012-09-07T07:46:08Z</time>
      </trkpt>
      <trkpt lat="46.32588" lon="4.84545">
        <ele>177.5</ele>
        <time>2012-09-07T07:46:09Z</time>
      </trkpt>
      <trkpt lat="46.32593" lon="4.84574">
        <ele>177.5</ele>
        <time>2012-09-07T07:46:14Z</time>
      </trkpt>
      <trkpt lat="46.32595" lon="4.8458">
        <ele>177.5</ele>
        <time>2012-09-07T07:46:15Z</time>
      </trkpt>
      <trkpt lat="46.32596" lon="4.84585">
        <ele>177.5</ele>
        <time>2012-09-07T07:46:16Z</time>
      </trkpt>
      <trkpt lat="46.32598" lon="4.8459">
        <ele>177.5</ele>
        <time>2012-09-07T07:46:17Z</time>
      </trkpt>
      <trkpt lat="46.32599" lon="4.84596">
        <ele>177.5</ele>
        <time>2012-09-07T07:46:18Z</time>
      </trkpt>
      <trkpt lat="46.32613" lon="4.84656">
        <ele>177.02</ele>
        <time>2012-09-07T07:46:32Z</time>
      </trkpt>
      <trkpt lat="46.32626" lon="4.84687">
        <ele>176.06</ele>
        <time>2012-09-07T07:46:40Z</time>
      </trkpt>
      <trkpt lat="46.32629" lon="4.8469">
        <ele>176.06</ele>
        <time>2012-09-07T07:46:51Z</time>
      </trkpt>
      <trkpt lat="46.3263" lon="4.84692">
        <ele>176.06</ele>
        <time>2012-09-07T07:46:53Z</time>
      </trkpt>
      <trkpt lat="46.32631" lon="4.84694">
        <ele>176.06</ele>
        <time>2012-09-07T07:46:54Z</time>
      </trkpt>
      <trkpt lat="46.32632" lon="4.84696">
        <ele>176.06</ele>
        <time>2012-09-07T07:46:55Z</time>
      </trkpt>
      <trkpt lat="46.32633" lon="4.84698">
        <ele>176.06</ele>
        <time>2012-09-07T07:46:56Z</time>
      </trkpt>
      <trkpt lat="46.32634" lon="4.84699">
        <ele>175.58</ele>
        <time>2012-09-07T07:46:57Z</time>
      </trkpt>
      <trkpt lat="46.32636" lon="4.84695">
        <ele>175.58</ele>
        <time>2012-09-07T07:47:09Z</time>
      </trkpt>
      <trkpt lat="46.32635" lon="4.84696">
        <ele>175.58</ele>
        <time>2012-09-07T07:47:36Z</time>
      </trkpt>
      <trkpt lat="46.32646" lon="4.84712">
        <ele>175.58</ele>
        <time>2012-09-07T07:47:46Z</time>
      </trkpt>
      <trkpt lat="46.32672" lon="4.84757">
        <ele>175.1</ele>
        <time>2012-09-07T07:47:58Z</time>
      </trkpt>
      <trkpt lat="46.32684" lon="4.84781">
        <ele>175.58</ele>
        <time>2012-09-07T07:48:03Z</time>
      </trkpt>
      <trkpt lat="46.32734" lon="4.84839">
        <ele>176.06</ele>
        <time>2012-09-07T07:48:18Z</time>
      </trkpt>
      <trkpt lat="46.32751" lon="4.84856">
        <ele>176.06</ele>
        <time>2012-09-07T07:48:23Z</time>
      </trkpt>
      <trkpt lat="46.32781" lon="4.84896">
        <ele>176.06</ele>
        <time>2012-09-07T07:48:32Z</time>
      </trkpt>
      <trkpt lat="46.32784" lon="4.84901">
        <ele>176.06</ele>
        <time>2012-09-07T07:48:33Z</time>
      </trkpt>
      <trkpt lat="46.32787" lon="4.84905">
        <ele>176.06</ele>
        <time>2012-09-07T07:48:34Z</time>
      </trkpt>
      <trkpt lat="46.3279" lon="4.84909">
        <ele>176.06</ele>
        <time>2012-09-07T07:48:35Z</time>
      </trkpt>
      <trkpt lat="46.32793" lon="4.84913">
        <ele>176.06</ele>
        <time>2012-09-07T07:48:36Z</time>
      </trkpt>
      <trkpt lat="46.32817" lon="4.84965">
        <ele>176.06</ele>
        <time>2012-09-07T07:48:47Z</time>
      </trkpt>
      <trkpt lat="46.32836" lon="4.85002">
        <ele>176.54</ele>
        <time>2012-09-07T07:48:54Z</time>
      </trkpt>
      <trkpt lat="46.3284" lon="4.85007">
        <ele>176.54</ele>
        <time>2012-09-07T07:48:55Z</time>
      </trkpt>
      <trkpt lat="46.32843" lon="4.85011">
        <ele>176.54</ele>
        <time>2012-09-07T07:48:56Z</time>
      </trkpt>
      <trkpt lat="46.32851" lon="4.85019">
        <ele>176.06</ele>
        <time>2012-09-07T07:48:58Z</time>
      </trkpt>
      <trkpt lat="46.32855" lon="4.85022">
        <ele>176.06</ele>
        <time>2012-09-07T07:48:59Z</time>
      </trkpt>
      <trkpt lat="46.3286" lon="4.85024">
        <ele>176.06</ele>
        <time>2012-09-07T07:49:00Z</time>
      </trkpt>
      <trkpt lat="46.32914" lon="4.85046">
        <ele>176.06</ele>
        <time>2012-09-07T07:49:12Z</time>
      </trkpt>
      <trkpt lat="46.32975" lon="4.85063">
        <ele>175.58</ele>
        <time>2012-09-07T07:49:27Z</time>
      </trkpt>
      <trkpt lat="46.3301" lon="4.85072">
        <ele>175.58</ele>
        <time>2012-09-07T07:49:37Z</time>
      </trkpt>
      <trkpt lat="46.33059" lon="4.8508">
        <ele>175.58</ele>
        <time>2012-09-07T07:49:49Z</time>
      </trkpt>
      <trkpt lat="46.33108" lon="4.85085">
        <ele>175.58</ele>
        <time>2012-09-07T07:50:01Z</time>
      </trkpt>
      <trkpt lat="46.33158" lon="4.85091">
        <ele>175.58</ele>
        <time>2012-09-07T07:50:14Z</time>
      </trkpt>
      <trkpt lat="46.33201" lon="4.85092">
        <ele>176.06</ele>
        <time>2012-09-07T07:50:25Z</time>
      </trkpt>
      <trkpt lat="46.33239" lon="4.85092">
        <ele>175.58</ele>
        <time>2012-09-07T07:50:36Z</time>
      </trkpt>
      <trkpt lat="46.33289" lon="4.85086">
        <ele>176.06</ele>
        <time>2012-09-07T07:50:49Z</time>
      </trkpt>
      <trkpt lat="46.3334" lon="4.85078">
        <ele>176.06</ele>
        <time>2012-09-07T07:51:02Z</time>
      </trkpt>
      <trkpt lat="46.33414" lon="4.85068">
        <ele>176.06</ele>
        <time>2012-09-07T07:51:18Z</time>
      </trkpt>
      <trkpt lat="46.33495" lon="4.85059">
        <ele>176.06</ele>
        <time>2012-09-07T07:51:35Z</time>
      </trkpt>
      <trkpt lat="46.335" lon="4.85058">
        <ele>176.06</ele>
        <time>2012-09-07T07:51:36Z</time>
      </trkpt>
      <trkpt lat="46.33592" lon="4.85054">
        <ele>176.06</ele>
        <time>2012-09-07T07:51:56Z</time>
      </trkpt>
      <trkpt lat="46.33604" lon="4.85055">
        <ele>175.58</ele>
        <time>2012-09-07T07:51:59Z</time>
      </trkpt>
      <trkpt lat="46.33634" lon="4.85059">
        <ele>175.58</ele>
        <time>2012-09-07T07:52:06Z</time>
      </trkpt>
      <trkpt lat="46.33687" lon="4.85063">
        <ele>175.58</ele>
        <time>2012-09-07T07:52:19Z</time>
      </trkpt>
      <trkpt lat="46.33758" lon="4.8507">
        <ele>175.58</ele>
        <time>2012-09-07T07:52:35Z</time>
      </trkpt>
      <trkpt lat="46.33807" lon="4.85076">
        <ele>176.06</ele>
        <time>2012-09-07T07:52:46Z</time>
      </trkpt>
      <trkpt lat="46.33868" lon="4.85083">
        <ele>177.02</ele>
        <time>2012-09-07T07:53:02Z</time>
      </trkpt>
      <trkpt lat="46.33912" lon="4.85081">
        <ele>177.02</ele>
        <time>2012-09-07T07:53:15Z</time>
      </trkpt>
      <trkpt lat="46.33948" lon="4.85074">
        <ele>177.02</ele>
        <time>2012-09-07T07:53:23Z</time>
      </trkpt>
      <trkpt lat="46.33952" lon="4.85072">
        <ele>177.02</ele>
        <time>2012-09-07T07:53:24Z</time>
      </trkpt>
      <trkpt lat="46.3399" lon="4.85072">
        <ele>175.58</ele>
        <time>2012-09-07T07:53:34Z</time>
      </trkpt>
      <trkpt lat="46.33993" lon="4.85072">
        <ele>175.58</ele>
        <time>2012-09-07T07:53:35Z</time>
      </trkpt>
      <trkpt lat="46.33997" lon="4.85074">
        <ele>175.1</ele>
        <time>2012-09-07T07:53:36Z</time>
      </trkpt>
      <trkpt lat="46.34074" lon="4.8509">
        <ele>175.1</ele>
        <time>2012-09-07T07:53:53Z</time>
      </trkpt>
      <trkpt lat="46.34145" lon="4.85104">
        <ele>175.1</ele>
        <time>2012-09-07T07:54:09Z</time>
      </trkpt>
      <trkpt lat="46.3419" lon="4.85111">
        <ele>175.58</ele>
        <time>2012-09-07T07:54:19Z</time>
      </trkpt>
      <trkpt lat="46.34254" lon="4.85118">
        <ele>175.58</ele>
        <time>2012-09-07T07:54:34Z</time>
      </trkpt>
      <trkpt lat="46.34316" lon="4.8512">
        <ele>175.1</ele>
        <time>2012-09-07T07:54:49Z</time>
      </trkpt>
      <trkpt lat="46.34365" lon="4.85113">
        <ele>175.1</ele>
        <time>2012-09-07T07:55:04Z</time>
      </trkpt>
      <trkpt lat="46.34408" lon="4.8511">
        <ele>175.1</ele>
        <time>2012-09-07T07:55:17Z</time>
      </trkpt>
      <trkpt lat="46.34439" lon="4.85107">
        <ele>175.1</ele>
        <time>2012-09-07T07:55:25Z</time>
      </trkpt>
      <trkpt lat="46.34513" lon="4.85104">
        <ele>175.1</ele>
        <time>2012-09-07T07:55:40Z</time>
      </trkpt>
      <trkpt lat="46.3459" lon="4.85099">
        <ele>175.1</ele>
        <time>2012-09-07T07:55:56Z</time>
      </trkpt>
      <trkpt lat="46.34656" lon="4.851">
        <ele>174.62</ele>
        <time>2012-09-07T07:56:12Z</time>
      </trkpt>
      <trkpt lat="46.34703" lon="4.85094">
        <ele>174.14</ele>
        <time>2012-09-07T07:56:25Z</time>
      </trkpt>
      <trkpt lat="46.34716" lon="4.85091">
        <ele>174.14</ele>
        <time>2012-09-07T07:56:28Z</time>
      </trkpt>
      <trkpt lat="46.34799" lon="4.85066">
        <ele>174.14</ele>
        <time>2012-09-07T07:56:48Z</time>
      </trkpt>
      <trkpt lat="46.34851" lon="4.85056">
        <ele>175.1</ele>
        <time>2012-09-07T07:57:01Z</time>
      </trkpt>
      <trkpt lat="46.34892" lon="4.85049">
        <ele>176.54</ele>
        <time>2012-09-07T07:57:14Z</time>
      </trkpt>
      <trkpt lat="46.3494" lon="4.85043">
        <ele>176.54</ele>
        <time>2012-09-07T07:57:26Z</time>
      </trkpt>
      <trkpt lat="46.34963" lon="4.85038">
        <ele>176.54</ele>
        <time>2012-09-07T07:57:31Z</time>
      </trkpt>
      <trkpt lat="46.34968" lon="4.85038">
        <ele>176.54</ele>
        <time>2012-09-07T07:57:32Z</time>
      </trkpt>
      <trkpt lat="46.34983" lon="4.85034">
        <ele>176.06</ele>
        <time>2012-09-07T07:57:35Z</time>
      </trkpt>
      <trkpt lat="46.34998" lon="4.85032">
        <ele>175.58</ele>
        <time>2012-09-07T07:57:38Z</time>
      </trkpt>
      <trkpt lat="46.35002" lon="4.85032">
        <ele>175.58</ele>
        <time>2012-09-07T07:57:39Z</time>
      </trkpt>
      <trkpt lat="46.35069" lon="4.85018">
        <ele>174.62</ele>
        <time>2012-09-07T07:57:53Z</time>
      </trkpt>
      <trkpt lat="46.35119" lon="4.85006">
        <ele>174.62</ele>
        <time>2012-09-07T07:58:06Z</time>
      </trkpt>
      <trkpt lat="46.35146" lon="4.85002">
        <ele>174.14</ele>
        <time>2012-09-07T07:58:12Z</time>
      </trkpt>
      <trkpt lat="46.35151" lon="4.85001">
        <ele>174.14</ele>
        <time>2012-09-07T07:58:13Z</time>
      </trkpt>
      <trkpt lat="46.35228" lon="4.84982">
        <ele>174.14</ele>
        <time>2012-09-07T07:58:30Z</time>
      </trkpt>
      <trkpt lat="46.35279" lon="4.84975">
        <ele>174.62</ele>
        <time>2012-09-07T07:58:43Z</time>
      </trkpt>
      <trkpt lat="46.35347" lon="4.84973">
        <ele>174.14</ele>
        <time>2012-09-07T07:58:58Z</time>
      </trkpt>
      <trkpt lat="46.35351" lon="4.84974">
        <ele>174.14</ele>
        <time>2012-09-07T07:58:59Z</time>
      </trkpt>
      <trkpt lat="46.35403" lon="4.84979">
        <ele>174.14</ele>
        <time>2012-09-07T07:59:11Z</time>
      </trkpt>
      <trkpt lat="46.35475" lon="4.8499">
        <ele>174.62</ele>
        <time>2012-09-07T07:59:27Z</time>
      </trkpt>
      <trkpt lat="46.35528" lon="4.84997">
        <ele>175.1</ele>
        <time>2012-09-07T07:59:40Z</time>
      </trkpt>
      <trkpt lat="46.35589" lon="4.85016">
        <ele>175.1</ele>
        <time>2012-09-07T07:59:54Z</time>
      </trkpt>
      <trkpt lat="46.35593" lon="4.85017">
        <ele>175.1</ele>
        <time>2012-09-07T07:59:55Z</time>
      </trkpt>
      <trkpt lat="46.35598" lon="4.85019">
        <ele>175.1</ele>
        <time>2012-09-07T07:59:56Z</time>
      </trkpt>
      <trkpt lat="46.35668" lon="4.8505">
        <ele>175.1</ele>
        <time>2012-09-07T08:00:12Z</time>
      </trkpt>
      <trkpt lat="46.35743" lon="4.85094">
        <ele>175.1</ele>
        <time>2012-09-07T08:00:30Z</time>
      </trkpt>
      <trkpt lat="46.35747" lon="4.85096">
        <ele>175.1</ele>
        <time>2012-09-07T08:00:31Z</time>
      </trkpt>
      <trkpt lat="46.35819" lon="4.85139">
        <ele>176.06</ele>
        <time>2012-09-07T08:00:49Z</time>
      </trkpt>
      <trkpt lat="46.35822" lon="4.85142">
        <ele>175.1</ele>
        <time>2012-09-07T08:00:50Z</time>
      </trkpt>
      <trkpt lat="46.3588" lon="4.8518">
        <ele>175.1</ele>
        <time>2012-09-07T08:01:04Z</time>
      </trkpt>
      <trkpt lat="46.35935" lon="4.85217">
        <ele>175.1</ele>
        <time>2012-09-07T08:01:17Z</time>
      </trkpt>
      <trkpt lat="46.35939" lon="4.85221">
        <ele>175.1</ele>
        <time>2012-09-07T08:01:18Z</time>
      </trkpt>
      <trkpt lat="46.35951" lon="4.85234">
        <ele>175.1</ele>
        <time>2012-09-07T08:01:21Z</time>
      </trkpt>
      <trkpt lat="46.36017" lon="4.85272">
        <ele>174.62</ele>
        <time>2012-09-07T08:01:37Z</time>
      </trkpt>
      <trkpt lat="46.36017" lon="4.85272">
        <ele>174.14</ele>
        <time>2012-09-07T08:01:52Z</time>
      </trkpt>
      <trkpt lat="46.36025" lon="4.85275">
        <ele>174.14</ele>
        <time>2012-09-07T08:02:17Z</time>
      </trkpt>
      <trkpt lat="46.36062" lon="4.85285">
        <ele>174.62</ele>
        <time>2012-09-07T08:02:30Z</time>
      </trkpt>
      <trkpt lat="46.36119" lon="4.853">
        <ele>175.1</ele>
        <time>2012-09-07T08:02:45Z</time>
      </trkpt>
      <trkpt lat="46.36188" lon="4.85325">
        <ele>176.54</ele>
        <time>2012-09-07T08:03:04Z</time>
      </trkpt>
      <trkpt lat="46.36223" lon="4.85335">
        <ele>176.54</ele>
        <time>2012-09-07T08:03:15Z</time>
      </trkpt>
      <trkpt lat="46.36236" lon="4.85339">
        <ele>176.54</ele>
        <time>2012-09-07T08:03:18Z</time>
      </trkpt>
      <trkpt lat="46.36257" lon="4.85347">
        <ele>177.02</ele>
        <time>2012-09-07T08:03:23Z</time>
      </trkpt>
      <trkpt lat="46.3627" lon="4.85354">
        <ele>176.54</ele>
        <time>2012-09-07T08:03:26Z</time>
      </trkpt>
      <trkpt lat="46.36341" lon="4.85385">
        <ele>177.5</ele>
        <time>2012-09-07T08:03:43Z</time>
      </trkpt>
      <trkpt lat="46.36385" lon="4.85409">
        <ele>177.98</ele>
        <time>2012-09-07T08:03:56Z</time>
      </trkpt>
      <trkpt lat="46.36435" lon="4.85442">
        <ele>177.98</ele>
        <time>2012-09-07T08:04:10Z</time>
      </trkpt>
      <trkpt lat="46.3645" lon="4.85451">
        <ele>177.98</ele>
        <time>2012-09-07T08:04:14Z</time>
      </trkpt>
      <trkpt lat="46.36454" lon="4.85454">
        <ele>177.98</ele>
        <time>2012-09-07T08:04:15Z</time>
      </trkpt>
      <trkpt lat="46.36509" lon="4.85497">
        <ele>177.02</ele>
        <time>2012-09-07T08:04:29Z</time>
      </trkpt>
      <trkpt lat="46.36577" lon="4.85554">
        <ele>176.54</ele>
        <time>2012-09-07T08:04:45Z</time>
      </trkpt>
      <trkpt lat="46.36627" lon="4.85597">
        <ele>175.58</ele>
        <time>2012-09-07T08:04:58Z</time>
      </trkpt>
      <trkpt lat="46.36684" lon="4.85637">
        <ele>176.06</ele>
        <time>2012-09-07T08:05:14Z</time>
      </trkpt>
      <trkpt lat="46.36727" lon="4.85669">
        <ele>176.54</ele>
        <time>2012-09-07T08:05:28Z</time>
      </trkpt>
      <trkpt lat="46.36777" lon="4.85707">
        <ele>176.54</ele>
        <time>2012-09-07T08:05:43Z</time>
      </trkpt>
      <trkpt lat="46.36811" lon="4.85729">
        <ele>176.06</ele>
        <time>2012-09-07T08:05:52Z</time>
      </trkpt>
      <trkpt lat="46.36867" lon="4.85768">
        <ele>176.06</ele>
        <time>2012-09-07T08:06:07Z</time>
      </trkpt>
      <trkpt lat="46.36917" lon="4.85801">
        <ele>176.54</ele>
        <time>2012-09-07T08:06:22Z</time>
      </trkpt>
      <trkpt lat="46.3697" lon="4.85844">
        <ele>176.06</ele>
        <time>2012-09-07T08:06:36Z</time>
      </trkpt>
      <trkpt lat="46.37029" lon="4.85888">
        <ele>176.54</ele>
        <time>2012-09-07T08:06:50Z</time>
      </trkpt>
      <trkpt lat="46.37063" lon="4.85916">
        <ele>176.06</ele>
        <time>2012-09-07T08:07:02Z</time>
      </trkpt>
      <trkpt lat="46.37067" lon="4.85919">
        <ele>176.06</ele>
        <time>2012-09-07T08:07:03Z</time>
      </trkpt>
      <trkpt lat="46.37122" lon="4.85968">
        <ele>176.54</ele>
        <time>2012-09-07T08:07:17Z</time>
      </trkpt>
      <trkpt lat="46.37169" lon="4.86011">
        <ele>176.54</ele>
        <time>2012-09-07T08:07:30Z</time>
      </trkpt>
      <trkpt lat="46.37227" lon="4.86067">
        <ele>176.54</ele>
        <time>2012-09-07T08:07:45Z</time>
      </trkpt>
      <trkpt lat="46.37291" lon="4.86121">
        <ele>176.06</ele>
        <time>2012-09-07T08:07:59Z</time>
      </trkpt>
      <trkpt lat="46.37353" lon="4.86184">
        <ele>176.54</ele>
        <time>2012-09-07T08:08:16Z</time>
      </trkpt>
      <trkpt lat="46.37411" lon="4.86241">
        <ele>177.02</ele>
        <time>2012-09-07T08:08:34Z</time>
      </trkpt>
      <trkpt lat="46.37454" lon="4.86276">
        <ele>177.02</ele>
        <time>2012-09-07T08:08:47Z</time>
      </trkpt>
      <trkpt lat="46.37509" lon="4.86329">
        <ele>175.58</ele>
        <time>2012-09-07T08:09:02Z</time>
      </trkpt>
      <trkpt lat="46.37513" lon="4.86332">
        <ele>175.58</ele>
        <time>2012-09-07T08:09:03Z</time>
      </trkpt>
      <trkpt lat="46.37518" lon="4.86335">
        <ele>175.58</ele>
        <time>2012-09-07T08:09:04Z</time>
      </trkpt>
      <trkpt lat="46.37523" lon="4.86338">
        <ele>175.58</ele>
        <time>2012-09-07T08:09:05Z</time>
      </trkpt>
      <trkpt lat="46.3755" lon="4.86356">
        <ele>176.06</ele>
        <time>2012-09-07T08:09:11Z</time>
      </trkpt>
      <trkpt lat="46.3757" lon="4.86379">
        <ele>176.06</ele>
        <time>2012-09-07T08:09:17Z</time>
      </trkpt>
      <trkpt lat="46.37618" lon="4.86425">
        <ele>175.58</ele>
        <time>2012-09-07T08:09:30Z</time>
      </trkpt>
      <trkpt lat="46.37673" lon="4.86479">
        <ele>175.58</ele>
        <time>2012-09-07T08:09:46Z</time>
      </trkpt>
      <trkpt lat="46.37729" lon="4.86522">
        <ele>175.1</ele>
        <time>2012-09-07T08:10:02Z</time>
      </trkpt>
      <trkpt lat="46.37781" lon="4.86561">
        <ele>175.58</ele>
        <time>2012-09-07T08:10:17Z</time>
      </trkpt>
      <trkpt lat="46.37833" lon="4.86608">
        <ele>175.1</ele>
        <time>2012-09-07T08:10:32Z</time>
      </trkpt>
      <trkpt lat="46.37897" lon="4.86657">
        <ele>175.1</ele>
        <time>2012-09-07T08:10:48Z</time>
      </trkpt>
      <trkpt lat="46.37957" lon="4.86719">
        <ele>175.1</ele>
        <time>2012-09-07T08:11:05Z</time>
      </trkpt>
      <trkpt lat="46.37976" lon="4.86738">
        <ele>174.62</ele>
        <time>2012-09-07T08:11:10Z</time>
      </trkpt>
      <trkpt lat="46.3798" lon="4.86742">
        <ele>174.62</ele>
        <time>2012-09-07T08:11:11Z</time>
      </trkpt>
      <trkpt lat="46.38014" lon="4.86773">
        <ele>174.62</ele>
        <time>2012-09-07T08:11:20Z</time>
      </trkpt>
      <trkpt lat="46.38075" lon="4.86827">
        <ele>175.58</ele>
        <time>2012-09-07T08:11:37Z</time>
      </trkpt>
      <trkpt lat="46.38123" lon="4.86876">
        <ele>175.58</ele>
        <time>2012-09-07T08:11:52Z</time>
      </trkpt>
      <trkpt lat="46.3818" lon="4.86941">
        <ele>175.58</ele>
        <time>2012-09-07T08:12:09Z</time>
      </trkpt>
      <trkpt lat="46.38217" lon="4.86986">
        <ele>175.58</ele>
        <time>2012-09-07T08:12:22Z</time>
      </trkpt>
      <trkpt lat="46.38276" lon="4.87042">
        <ele>175.1</ele>
        <time>2012-09-07T08:12:38Z</time>
      </trkpt>
      <trkpt lat="46.38285" lon="4.8705">
        <ele>175.1</ele>
        <time>2012-09-07T08:12:47Z</time>
      </trkpt>
      <trkpt lat="46.38288" lon="4.87051">
        <ele>175.1</ele>
        <time>2012-09-07T08:13:09Z</time>
      </trkpt>
      <trkpt lat="46.38289" lon="4.87052">
        <ele>175.1</ele>
        <time>2012-09-07T08:13:10Z</time>
      </trkpt>
      <trkpt lat="46.38291" lon="4.87054">
        <ele>175.1</ele>
        <time>2012-09-07T08:13:11Z</time>
      </trkpt>
      <trkpt lat="46.38326" lon="4.87082">
        <ele>175.58</ele>
        <time>2012-09-07T08:13:26Z</time>
      </trkpt>
      <trkpt lat="46.38375" lon="4.87121">
        <ele>175.1</ele>
        <time>2012-09-07T08:13:40Z</time>
      </trkpt>
      <trkpt lat="46.38401" lon="4.8714">
        <ele>175.1</ele>
        <time>2012-09-07T08:13:47Z</time>
      </trkpt>
      <trkpt lat="46.38467" lon="4.8718">
        <ele>174.62</ele>
        <time>2012-09-07T08:14:02Z</time>
      </trkpt>
      <trkpt lat="46.3852" lon="4.87213">
        <ele>175.1</ele>
        <time>2012-09-07T08:14:17Z</time>
      </trkpt>
      <trkpt lat="46.38557" lon="4.87233">
        <ele>175.1</ele>
        <time>2012-09-07T08:14:30Z</time>
      </trkpt>
      <trkpt lat="46.38555" lon="4.87229">
        <ele>175.1</ele>
        <time>2012-09-07T08:14:33Z</time>
      </trkpt>
      <trkpt lat="46.38552" lon="4.87226">
        <ele>175.1</ele>
        <time>2012-09-07T08:14:35Z</time>
      </trkpt>
      <trkpt lat="46.38551" lon="4.87227">
        <ele>175.1</ele>
        <time>2012-09-07T08:14:36Z</time>
      </trkpt>
      <trkpt lat="46.3855" lon="4.87228">
        <ele>175.1</ele>
        <time>2012-09-07T08:14:37Z</time>
      </trkpt>
      <trkpt lat="46.3855" lon="4.8723">
        <ele>175.1</ele>
        <time>2012-09-07T08:14:38Z</time>
      </trkpt>
      <trkpt lat="46.38552" lon="4.87232">
        <ele>175.1</ele>
        <time>2012-09-07T08:14:52Z</time>
      </trkpt>
      <trkpt lat="46.38554" lon="4.87233">
        <ele>175.1</ele>
        <time>2012-09-07T08:15:15Z</time>
      </trkpt>
      <trkpt lat="46.3856" lon="4.87237">
        <ele>175.1</ele>
        <time>2012-09-07T08:15:22Z</time>
      </trkpt>
      <trkpt lat="46.38561" lon="4.87237">
        <ele>175.1</ele>
        <time>2012-09-07T08:15:23Z</time>
      </trkpt>
      <trkpt lat="46.38565" lon="4.8724">
        <ele>175.1</ele>
        <time>2012-09-07T08:15:26Z</time>
      </trkpt>
      <trkpt lat="46.38598" lon="4.87268">
        <ele>174.62</ele>
        <time>2012-09-07T08:15:39Z</time>
      </trkpt>
      <trkpt lat="46.38666" lon="4.873">
        <ele>175.1</ele>
        <time>2012-09-07T08:15:57Z</time>
      </trkpt>
      <trkpt lat="46.38713" lon="4.87322">
        <ele>176.06</ele>
        <time>2012-09-07T08:16:12Z</time>
      </trkpt>
      <trkpt lat="46.38769" lon="4.87349">
        <ele>176.54</ele>
        <time>2012-09-07T08:16:28Z</time>
      </trkpt>
      <trkpt lat="46.38821" lon="4.8739">
        <ele>176.54</ele>
        <time>2012-09-07T08:16:43Z</time>
      </trkpt>
      <trkpt lat="46.38868" lon="4.87419">
        <ele>176.54</ele>
        <time>2012-09-07T08:16:58Z</time>
      </trkpt>
      <trkpt lat="46.38899" lon="4.87449">
        <ele>176.54</ele>
        <time>2012-09-07T08:17:08Z</time>
      </trkpt>
      <trkpt lat="46.38967" lon="4.87508">
        <ele>175.58</ele>
        <time>2012-09-07T08:17:24Z</time>
      </trkpt>
      <trkpt lat="46.38971" lon="4.87511">
        <ele>175.58</ele>
        <time>2012-09-07T08:17:25Z</time>
      </trkpt>
      <trkpt lat="46.38991" lon="4.87526">
        <ele>175.58</ele>
        <time>2012-09-07T08:17:30Z</time>
      </trkpt>
      <trkpt lat="46.38995" lon="4.87529">
        <ele>175.58</ele>
        <time>2012-09-07T08:17:31Z</time>
      </trkpt>
      <trkpt lat="46.3901" lon="4.87542">
        <ele>175.58</ele>
        <time>2012-09-07T08:17:35Z</time>
      </trkpt>
      <trkpt lat="46.39051" lon="4.87579">
        <ele>175.1</ele>
        <time>2012-09-07T08:17:47Z</time>
      </trkpt>
      <trkpt lat="46.39055" lon="4.87582">
        <ele>175.1</ele>
        <time>2012-09-07T08:17:48Z</time>
      </trkpt>
      <trkpt lat="46.39059" lon="4.87586">
        <ele>175.1</ele>
        <time>2012-09-07T08:17:49Z</time>
      </trkpt>
      <trkpt lat="46.39062" lon="4.87589">
        <ele>175.1</ele>
        <time>2012-09-07T08:17:50Z</time>
      </trkpt>
      <trkpt lat="46.39065" lon="4.87593">
        <ele>175.1</ele>
        <time>2012-09-07T08:17:51Z</time>
      </trkpt>
      <trkpt lat="46.39132" lon="4.87663">
        <ele>175.1</ele>
        <time>2012-09-07T08:18:09Z</time>
      </trkpt>
      <trkpt lat="46.39159" lon="4.87687">
        <ele>174.62</ele>
        <time>2012-09-07T08:18:16Z</time>
      </trkpt>
      <trkpt lat="46.39162" lon="4.87691">
        <ele>175.1</ele>
        <time>2012-09-07T08:18:17Z</time>
      </trkpt>
      <trkpt lat="46.39214" lon="4.87762">
        <ele>174.62</ele>
        <time>2012-09-07T08:18:33Z</time>
      </trkpt>
      <trkpt lat="46.39218" lon="4.87765">
        <ele>174.62</ele>
        <time>2012-09-07T08:18:34Z</time>
      </trkpt>
      <trkpt lat="46.39249" lon="4.87786">
        <ele>175.1</ele>
        <time>2012-09-07T08:18:42Z</time>
      </trkpt>
      <trkpt lat="46.39253" lon="4.87789">
        <ele>175.1</ele>
        <time>2012-09-07T08:18:43Z</time>
      </trkpt>
      <trkpt lat="46.39316" lon="4.87851">
        <ele>175.1</ele>
        <time>2012-09-07T08:19:00Z</time>
      </trkpt>
      <trkpt lat="46.39347" lon="4.87878">
        <ele>175.1</ele>
        <time>2012-09-07T08:19:08Z</time>
      </trkpt>
      <trkpt lat="46.39409" lon="4.87932">
        <ele>175.1</ele>
        <time>2012-09-07T08:19:24Z</time>
      </trkpt>
      <trkpt lat="46.39494" lon="4.87985">
        <ele>175.1</ele>
        <time>2012-09-07T08:19:45Z</time>
      </trkpt>
      <trkpt lat="46.39571" lon="4.88023">
        <ele>175.58</ele>
        <time>2012-09-07T08:20:03Z</time>
      </trkpt>
      <trkpt lat="46.39656" lon="4.88069">
        <ele>175.58</ele>
        <time>2012-09-07T08:20:23Z</time>
      </trkpt>
      <trkpt lat="46.39741" lon="4.88122">
        <ele>175.58</ele>
        <time>2012-09-07T08:20:43Z</time>
      </trkpt>
      <trkpt lat="46.39811" lon="4.88167">
        <ele>175.58</ele>
        <time>2012-09-07T08:21:00Z</time>
      </trkpt>
      <trkpt lat="46.39819" lon="4.88171">
        <ele>175.58</ele>
        <time>2012-09-07T08:21:02Z</time>
      </trkpt>
      <trkpt lat="46.39844" lon="4.88191">
        <ele>175.58</ele>
        <time>2012-09-07T08:21:09Z</time>
      </trkpt>
      <trkpt lat="46.39847" lon="4.88195">
        <ele>175.58</ele>
        <time>2012-09-07T08:21:10Z</time>
      </trkpt>
      <trkpt lat="46.3985" lon="4.88198">
        <ele>175.58</ele>
        <time>2012-09-07T08:21:11Z</time>
      </trkpt>
      <trkpt lat="46.39909" lon="4.8825">
        <ele>175.58</ele>
        <time>2012-09-07T08:21:27Z</time>
      </trkpt>
      <trkpt lat="46.39976" lon="4.88313">
        <ele>175.58</ele>
        <time>2012-09-07T08:21:45Z</time>
      </trkpt>
      <trkpt lat="46.40042" lon="4.88376">
        <ele>175.58</ele>
        <time>2012-09-07T08:22:03Z</time>
      </trkpt>
      <trkpt lat="46.40126" lon="4.88432">
        <ele>175.58</ele>
        <time>2012-09-07T08:22:24Z</time>
      </trkpt>
      <trkpt lat="46.40166" lon="4.88463">
        <ele>175.58</ele>
        <time>2012-09-07T08:22:34Z</time>
      </trkpt>
      <trkpt lat="46.4023" lon="4.88525">
        <ele>175.58</ele>
        <time>2012-09-07T08:22:52Z</time>
      </trkpt>
      <trkpt lat="46.40295" lon="4.88571">
        <ele>175.58</ele>
        <time>2012-09-07T08:23:09Z</time>
      </trkpt>
      <trkpt lat="46.40367" lon="4.88625">
        <ele>175.1</ele>
        <time>2012-09-07T08:23:27Z</time>
      </trkpt>
      <trkpt lat="46.40407" lon="4.88664">
        <ele>175.1</ele>
        <time>2012-09-07T08:23:38Z</time>
      </trkpt>
      <trkpt lat="46.40473" lon="4.88709">
        <ele>175.1</ele>
        <time>2012-09-07T08:23:55Z</time>
      </trkpt>
      <trkpt lat="46.40548" lon="4.88728">
        <ele>175.58</ele>
        <time>2012-09-07T08:24:14Z</time>
      </trkpt>
      <trkpt lat="46.40598" lon="4.88735">
        <ele>175.1</ele>
        <time>2012-09-07T08:24:28Z</time>
      </trkpt>
      <trkpt lat="46.40609" lon="4.88736">
        <ele>175.1</ele>
        <time>2012-09-07T08:24:36Z</time>
      </trkpt>
      <trkpt lat="46.4061" lon="4.88736">
        <ele>175.1</ele>
        <time>2012-09-07T08:25:04Z</time>
      </trkpt>
      <trkpt lat="46.40611" lon="4.88735">
        <ele>175.1</ele>
        <time>2012-09-07T08:25:31Z</time>
      </trkpt>
      <trkpt lat="46.40613" lon="4.88735">
        <ele>175.1</ele>
        <time>2012-09-07T08:25:32Z</time>
      </trkpt>
      <trkpt lat="46.40614" lon="4.88734">
        <ele>175.1</ele>
        <time>2012-09-07T08:25:33Z</time>
      </trkpt>
      <trkpt lat="46.40615" lon="4.88734">
        <ele>175.1</ele>
        <time>2012-09-07T08:25:34Z</time>
      </trkpt>
      <trkpt lat="46.40617" lon="4.88734">
        <ele>175.1</ele>
        <time>2012-09-07T08:25:35Z</time>
      </trkpt>
      <trkpt lat="46.40618" lon="4.88734">
        <ele>175.1</ele>
        <time>2012-09-07T08:25:36Z</time>
      </trkpt>
      <trkpt lat="46.4062" lon="4.88735">
        <ele>175.1</ele>
        <time>2012-09-07T08:25:37Z</time>
      </trkpt>
      <trkpt lat="46.40623" lon="4.88735">
        <ele>175.1</ele>
        <time>2012-09-07T08:25:38Z</time>
      </trkpt>
      <trkpt lat="46.40675" lon="4.88719">
        <ele>175.1</ele>
        <time>2012-09-07T08:25:54Z</time>
      </trkpt>
      <trkpt lat="46.40719" lon="4.887">
        <ele>175.58</ele>
        <time>2012-09-07T08:26:06Z</time>
      </trkpt>
      <trkpt lat="46.40799" lon="4.88684">
        <ele>175.1</ele>
        <time>2012-09-07T08:26:23Z</time>
      </trkpt>
      <trkpt lat="46.40885" lon="4.8866">
        <ele>175.1</ele>
        <time>2012-09-07T08:26:42Z</time>
      </trkpt>
      <trkpt lat="46.40909" lon="4.88649">
        <ele>175.1</ele>
        <time>2012-09-07T08:26:47Z</time>
      </trkpt>
      <trkpt lat="46.40961" lon="4.88593">
        <ele>176.06</ele>
        <time>2012-09-07T08:27:02Z</time>
      </trkpt>
      <trkpt lat="46.40994" lon="4.88563">
        <ele>176.54</ele>
        <time>2012-09-07T08:27:12Z</time>
      </trkpt>
      <trkpt lat="46.40998" lon="4.88562">
        <ele>176.54</ele>
        <time>2012-09-07T08:27:13Z</time>
      </trkpt>
      <trkpt lat="46.41003" lon="4.88563">
        <ele>176.06</ele>
        <time>2012-09-07T08:27:14Z</time>
      </trkpt>
      <trkpt lat="46.41007" lon="4.88565">
        <ele>176.06</ele>
        <time>2012-09-07T08:27:15Z</time>
      </trkpt>
      <trkpt lat="46.41011" lon="4.88567">
        <ele>175.58</ele>
        <time>2012-09-07T08:27:16Z</time>
      </trkpt>
      <trkpt lat="46.41015" lon="4.8857">
        <ele>175.58</ele>
        <time>2012-09-07T08:27:17Z</time>
      </trkpt>
      <trkpt lat="46.41048" lon="4.88584">
        <ele>175.58</ele>
        <time>2012-09-07T08:27:29Z</time>
      </trkpt>
      <trkpt lat="46.4105" lon="4.88583">
        <ele>175.1</ele>
        <time>2012-09-07T08:27:42Z</time>
      </trkpt>
      <trkpt lat="46.4105" lon="4.88583">
        <ele>175.1</ele>
        <time>2012-09-07T08:28:23Z</time>
      </trkpt>
      <trkpt lat="46.4105" lon="4.88583">
        <ele>175.58</ele>
        <time>2012-09-07T08:28:59Z</time>
      </trkpt>
      <trkpt lat="46.41052" lon="4.88586">
        <ele>175.1</ele>
        <time>2012-09-07T08:29:14Z</time>
      </trkpt>
      <trkpt lat="46.41052" lon="4.88585">
        <ele>175.58</ele>
        <time>2012-09-07T08:29:40Z</time>
      </trkpt>
      <trkpt lat="46.41052" lon="4.88586">
        <ele>175.58</ele>
        <time>2012-09-07T08:30:00Z</time>
      </trkpt>
      <trkpt lat="46.41052" lon="4.88586">
        <ele>175.58</ele>
        <time>2012-09-07T08:30:16Z</time>
      </trkpt>
      <trkpt lat="46.41056" lon="4.88583">
        <ele>175.58</ele>
        <time>2012-09-07T08:30:34Z</time>
      </trkpt>
      <trkpt lat="46.41057" lon="4.88584">
        <ele>175.58</ele>
        <time>2012-09-07T08:30:35Z</time>
      </trkpt>
      <trkpt lat="46.41059" lon="4.88584">
        <ele>175.58</ele>
        <time>2012-09-07T08:30:36Z</time>
      </trkpt>
      <trkpt lat="46.4106" lon="4.88584">
        <ele>175.58</ele>
        <time>2012-09-07T08:30:37Z</time>
      </trkpt>
      <trkpt lat="46.41062" lon="4.88584">
        <ele>175.58</ele>
        <time>2012-09-07T08:30:38Z</time>
      </trkpt>
      <trkpt lat="46.41093" lon="4.88579">
        <ele>175.58</ele>
        <time>2012-09-07T08:30:50Z</time>
      </trkpt>
      <trkpt lat="46.41139" lon="4.88574">
        <ele>175.58</ele>
        <time>2012-09-07T08:31:03Z</time>
      </trkpt>
      <trkpt lat="46.41204" lon="4.88569">
        <ele>175.58</ele>
        <time>2012-09-07T08:31:19Z</time>
      </trkpt>
      <trkpt lat="46.41274" lon="4.88576">
        <ele>175.58</ele>
        <time>2012-09-07T08:31:36Z</time>
      </trkpt>
      <trkpt lat="46.41347" lon="4.88583">
        <ele>175.58</ele>
        <time>2012-09-07T08:31:54Z</time>
      </trkpt>
      <trkpt lat="46.41419" lon="4.8859">
        <ele>175.58</ele>
        <time>2012-09-07T08:32:11Z</time>
      </trkpt>
      <trkpt lat="46.41493" lon="4.88609">
        <ele>176.06</ele>
        <time>2012-09-07T08:32:29Z</time>
      </trkpt>
      <trkpt lat="46.41572" lon="4.88634">
        <ele>176.06</ele>
        <time>2012-09-07T08:32:48Z</time>
      </trkpt>
      <trkpt lat="46.41631" lon="4.88654">
        <ele>176.06</ele>
        <time>2012-09-07T08:33:03Z</time>
      </trkpt>
      <trkpt lat="46.41676" lon="4.88667">
        <ele>175.58</ele>
        <time>2012-09-07T08:33:16Z</time>
      </trkpt>
      <trkpt lat="46.41736" lon="4.88672">
        <ele>176.06</ele>
        <time>2012-09-07T08:33:31Z</time>
      </trkpt>
      <trkpt lat="46.41744" lon="4.88671">
        <ele>176.06</ele>
        <time>2012-09-07T08:33:34Z</time>
      </trkpt>
      <trkpt lat="46.41745" lon="4.88672">
        <ele>176.06</ele>
        <time>2012-09-07T08:33:35Z</time>
      </trkpt>
      <trkpt lat="46.41749" lon="4.88669">
        <ele>176.06</ele>
        <time>2012-09-07T08:33:48Z</time>
      </trkpt>
      <trkpt lat="46.41749" lon="4.88668">
        <ele>176.06</ele>
        <time>2012-09-07T08:34:02Z</time>
      </trkpt>
      <trkpt lat="46.41749" lon="4.88667">
        <ele>176.06</ele>
        <time>2012-09-07T08:34:34Z</time>
      </trkpt>
      <trkpt lat="46.41749" lon="4.88667">
        <ele>176.06</ele>
        <time>2012-09-07T08:35:02Z</time>
      </trkpt>
      <trkpt lat="46.4175" lon="4.88669">
        <ele>176.06</ele>
        <time>2012-09-07T08:35:32Z</time>
      </trkpt>
      <trkpt lat="46.41771" lon="4.88688">
        <ele>175.58</ele>
        <time>2012-09-07T08:35:42Z</time>
      </trkpt>
      <trkpt lat="46.41827" lon="4.88707">
        <ele>175.58</ele>
        <time>2012-09-07T08:35:57Z</time>
      </trkpt>
      <trkpt lat="46.41891" lon="4.88714">
        <ele>176.06</ele>
        <time>2012-09-07T08:36:12Z</time>
      </trkpt>
      <trkpt lat="46.41948" lon="4.88722">
        <ele>176.06</ele>
        <time>2012-09-07T08:36:25Z</time>
      </trkpt>
      <trkpt lat="46.41957" lon="4.88723">
        <ele>175.58</ele>
        <time>2012-09-07T08:36:27Z</time>
      </trkpt>
      <trkpt lat="46.42032" lon="4.88737">
        <ele>176.06</ele>
        <time>2012-09-07T08:36:43Z</time>
      </trkpt>
      <trkpt lat="46.42108" lon="4.88755">
        <ele>176.06</ele>
        <time>2012-09-07T08:37:00Z</time>
      </trkpt>
      <trkpt lat="46.42192" lon="4.88773">
        <ele>175.58</ele>
        <time>2012-09-07T08:37:19Z</time>
      </trkpt>
      <trkpt lat="46.42257" lon="4.88785">
        <ele>175.58</ele>
        <time>2012-09-07T08:37:34Z</time>
      </trkpt>
      <trkpt lat="46.42333" lon="4.88799">
        <ele>176.06</ele>
        <time>2012-09-07T08:37:51Z</time>
      </trkpt>
      <trkpt lat="46.4239" lon="4.88809">
        <ele>175.58</ele>
        <time>2012-09-07T08:38:06Z</time>
      </trkpt>
      <trkpt lat="46.4239" lon="4.8881">
        <ele>175.58</ele>
        <time>2012-09-07T08:38:25Z</time>
      </trkpt>
      <trkpt lat="46.42408" lon="4.88814">
        <ele>175.58</ele>
        <time>2012-09-07T08:38:41Z</time>
      </trkpt>
      <trkpt lat="46.42465" lon="4.88824">
        <ele>176.06</ele>
        <time>2012-09-07T08:38:55Z</time>
      </trkpt>
      <trkpt lat="46.42522" lon="4.8883">
        <ele>176.06</ele>
        <time>2012-09-07T08:39:07Z</time>
      </trkpt>
      <trkpt lat="46.42599" lon="4.88835">
        <ele>175.58</ele>
        <time>2012-09-07T08:39:23Z</time>
      </trkpt>
      <trkpt lat="46.42644" lon="4.88838">
        <ele>175.58</ele>
        <time>2012-09-07T08:39:36Z</time>
      </trkpt>
      <trkpt lat="46.42688" lon="4.88841">
        <ele>175.58</ele>
        <time>2012-09-07T08:39:49Z</time>
      </trkpt>
      <trkpt lat="46.4272" lon="4.88842">
        <ele>175.58</ele>
        <time>2012-09-07T08:40:00Z</time>
      </trkpt>
      <trkpt lat="46.42765" lon="4.88844">
        <ele>175.58</ele>
        <time>2012-09-07T08:40:12Z</time>
      </trkpt>
      <trkpt lat="46.42834" lon="4.8885">
        <ele>175.58</ele>
        <time>2012-09-07T08:40:28Z</time>
      </trkpt>
      <trkpt lat="46.42839" lon="4.88849">
        <ele>175.58</ele>
        <time>2012-09-07T08:40:29Z</time>
      </trkpt>
      <trkpt lat="46.42844" lon="4.88849">
        <ele>175.58</ele>
        <time>2012-09-07T08:40:30Z</time>
      </trkpt>
      <trkpt lat="46.42919" lon="4.8883">
        <ele>176.06</ele>
        <time>2012-09-07T08:40:47Z</time>
      </trkpt>
      <trkpt lat="46.42963" lon="4.8882">
        <ele>176.54</ele>
        <time>2012-09-07T08:40:59Z</time>
      </trkpt>
      <trkpt lat="46.42974" lon="4.88819">
        <ele>176.54</ele>
        <time>2012-09-07T08:41:04Z</time>
      </trkpt>
      <trkpt lat="46.42975" lon="4.88818">
        <ele>176.54</ele>
        <time>2012-09-07T08:41:05Z</time>
      </trkpt>
      <trkpt lat="46.42977" lon="4.88817">
        <ele>176.54</ele>
        <time>2012-09-07T08:41:06Z</time>
      </trkpt>
      <trkpt lat="46.42978" lon="4.88817">
        <ele>176.54</ele>
        <time>2012-09-07T08:41:07Z</time>
      </trkpt>
      <trkpt lat="46.4298" lon="4.88817">
        <ele>176.54</ele>
        <time>2012-09-07T08:41:08Z</time>
      </trkpt>
      <trkpt lat="46.43006" lon="4.88799">
        <ele>176.06</ele>
        <time>2012-09-07T08:41:21Z</time>
      </trkpt>
      <trkpt lat="46.4304" lon="4.88776">
        <ele>176.54</ele>
        <time>2012-09-07T08:41:33Z</time>
      </trkpt>
      <trkpt lat="46.4309" lon="4.88748">
        <ele>176.54</ele>
        <time>2012-09-07T08:41:47Z</time>
      </trkpt>
      <trkpt lat="46.43134" lon="4.88735">
        <ele>176.54</ele>
        <time>2012-09-07T08:41:59Z</time>
      </trkpt>
      <trkpt lat="46.43197" lon="4.88726">
        <ele>176.06</ele>
        <time>2012-09-07T08:42:14Z</time>
      </trkpt>
      <trkpt lat="46.43275" lon="4.88732">
        <ele>176.06</ele>
        <time>2012-09-07T08:42:30Z</time>
      </trkpt>
      <trkpt lat="46.43333" lon="4.88743">
        <ele>175.58</ele>
        <time>2012-09-07T08:42:42Z</time>
      </trkpt>
      <trkpt lat="46.43411" lon="4.88758">
        <ele>175.58</ele>
        <time>2012-09-07T08:42:58Z</time>
      </trkpt>
      <trkpt lat="46.43426" lon="4.88758">
        <ele>175.58</ele>
        <time>2012-09-07T08:43:01Z</time>
      </trkpt>
      <trkpt lat="46.43431" lon="4.88757">
        <ele>175.58</ele>
        <time>2012-09-07T08:43:02Z</time>
      </trkpt>
      <trkpt lat="46.43435" lon="4.88755">
        <ele>175.58</ele>
        <time>2012-09-07T08:43:03Z</time>
      </trkpt>
      <trkpt lat="46.43459" lon="4.88759">
        <ele>175.58</ele>
        <time>2012-09-07T08:43:11Z</time>
      </trkpt>
      <trkpt lat="46.43463" lon="4.88761">
        <ele>175.58</ele>
        <time>2012-09-07T08:43:16Z</time>
      </trkpt>
      <trkpt lat="46.43464" lon="4.88757">
        <ele>175.58</ele>
        <time>2012-09-07T08:43:19Z</time>
      </trkpt>
      <trkpt lat="46.43464" lon="4.88756">
        <ele>175.58</ele>
        <time>2012-09-07T08:43:20Z</time>
      </trkpt>
      <trkpt lat="46.43465" lon="4.88754">
        <ele>176.06</ele>
        <time>2012-09-07T08:43:21Z</time>
      </trkpt>
      <trkpt lat="46.43465" lon="4.88752">
        <ele>176.06</ele>
        <time>2012-09-07T08:43:22Z</time>
      </trkpt>
      <trkpt lat="46.43465" lon="4.88751">
        <ele>176.06</ele>
        <time>2012-09-07T08:43:23Z</time>
      </trkpt>
      <trkpt lat="46.43466" lon="4.88749">
        <ele>175.58</ele>
        <time>2012-09-07T08:43:24Z</time>
      </trkpt>
      <trkpt lat="46.43467" lon="4.88748">
        <ele>176.06</ele>
        <time>2012-09-07T08:43:25Z</time>
      </trkpt>
      <trkpt lat="46.43468" lon="4.88746">
        <ele>176.06</ele>
        <time>2012-09-07T08:43:26Z</time>
      </trkpt>
      <trkpt lat="46.43469" lon="4.88744">
        <ele>176.06</ele>
        <time>2012-09-07T08:43:27Z</time>
      </trkpt>
      <trkpt lat="46.43469" lon="4.88741">
        <ele>176.06</ele>
        <time>2012-09-07T08:43:28Z</time>
      </trkpt>
      <trkpt lat="46.4347" lon="4.88739">
        <ele>176.06</ele>
        <time>2012-09-07T08:43:29Z</time>
      </trkpt>
      <trkpt lat="46.4347" lon="4.88737">
        <ele>176.06</ele>
        <time>2012-09-07T08:43:30Z</time>
      </trkpt>
      <trkpt lat="46.43471" lon="4.88734">
        <ele>176.06</ele>
        <time>2012-09-07T08:43:31Z</time>
      </trkpt>
      <trkpt lat="46.43472" lon="4.88732">
        <ele>176.06</ele>
        <time>2012-09-07T08:43:32Z</time>
      </trkpt>
      <trkpt lat="46.43473" lon="4.88728">
        <ele>176.06</ele>
        <time>2012-09-07T08:43:33Z</time>
      </trkpt>
      <trkpt lat="46.43474" lon="4.88725">
        <ele>176.06</ele>
        <time>2012-09-07T08:43:34Z</time>
      </trkpt>
      <trkpt lat="46.43483" lon="4.88696">
        <ele>176.06</ele>
        <time>2012-09-07T08:43:43Z</time>
      </trkpt>
      <trkpt lat="46.43504" lon="4.88646">
        <ele>176.06</ele>
        <time>2012-09-07T08:43:55Z</time>
      </trkpt>
      <trkpt lat="46.43532" lon="4.88575">
        <ele>176.06</ele>
        <time>2012-09-07T08:44:09Z</time>
      </trkpt>
      <trkpt lat="46.43536" lon="4.88566">
        <ele>176.06</ele>
        <time>2012-09-07T08:44:17Z</time>
      </trkpt>
      <trkpt lat="46.43536" lon="4.88566">
        <ele>176.06</ele>
        <time>2012-09-07T08:44:41Z</time>
      </trkpt>
      <trkpt lat="46.43539" lon="4.88561">
        <ele>175.58</ele>
        <time>2012-09-07T08:45:08Z</time>
      </trkpt>
      <trkpt lat="46.43556" lon="4.88519">
        <ele>176.06</ele>
        <time>2012-09-07T08:45:22Z</time>
      </trkpt>
      <trkpt lat="46.43584" lon="4.88447">
        <ele>176.06</ele>
        <time>2012-09-07T08:45:37Z</time>
      </trkpt>
      <trkpt lat="46.43601" lon="4.88412">
        <ele>176.06</ele>
        <time>2012-09-07T08:45:44Z</time>
      </trkpt>
      <trkpt lat="46.43604" lon="4.88409">
        <ele>176.54</ele>
        <time>2012-09-07T08:45:45Z</time>
      </trkpt>
      <trkpt lat="46.43608" lon="4.88406">
        <ele>176.54</ele>
        <time>2012-09-07T08:45:46Z</time>
      </trkpt>
      <trkpt lat="46.43611" lon="4.88404">
        <ele>176.54</ele>
        <time>2012-09-07T08:45:47Z</time>
      </trkpt>
      <trkpt lat="46.43616" lon="4.88404">
        <ele>176.06</ele>
        <time>2012-09-07T08:45:48Z</time>
      </trkpt>
      <trkpt lat="46.4362" lon="4.88405">
        <ele>176.06</ele>
        <time>2012-09-07T08:45:49Z</time>
      </trkpt>
      <trkpt lat="46.43624" lon="4.88406">
        <ele>176.06</ele>
        <time>2012-09-07T08:45:50Z</time>
      </trkpt>
      <trkpt lat="46.43689" lon="4.8843">
        <ele>176.06</ele>
        <time>2012-09-07T08:46:06Z</time>
      </trkpt>
      <trkpt lat="46.43746" lon="4.88452">
        <ele>176.06</ele>
        <time>2012-09-07T08:46:23Z</time>
      </trkpt>
      <trkpt lat="46.43768" lon="4.88458">
        <ele>176.06</ele>
        <time>2012-09-07T08:46:31Z</time>
      </trkpt>
      <trkpt lat="46.43772" lon="4.88459">
        <ele>176.54</ele>
        <time>2012-09-07T08:46:32Z</time>
      </trkpt>
      <trkpt lat="46.43776" lon="4.88461">
        <ele>176.54</ele>
        <time>2012-09-07T08:46:33Z</time>
      </trkpt>
      <trkpt lat="46.43781" lon="4.88463">
        <ele>176.54</ele>
        <time>2012-09-07T08:46:34Z</time>
      </trkpt>
      <trkpt lat="46.43785" lon="4.88465">
        <ele>176.54</ele>
        <time>2012-09-07T08:46:35Z</time>
      </trkpt>
      <trkpt lat="46.43816" lon="4.88476">
        <ele>176.54</ele>
        <time>2012-09-07T08:46:43Z</time>
      </trkpt>
      <trkpt lat="46.4382" lon="4.88477">
        <ele>176.54</ele>
        <time>2012-09-07T08:46:44Z</time>
      </trkpt>
      <trkpt lat="46.43871" lon="4.88492">
        <ele>176.06</ele>
        <time>2012-09-07T08:46:57Z</time>
      </trkpt>
      <trkpt lat="46.43875" lon="4.88489">
        <ele>175.58</ele>
        <time>2012-09-07T08:46:58Z</time>
      </trkpt>
      <trkpt lat="46.43879" lon="4.88485">
        <ele>175.58</ele>
        <time>2012-09-07T08:46:59Z</time>
      </trkpt>
      <trkpt lat="46.43881" lon="4.88479">
        <ele>175.58</ele>
        <time>2012-09-07T08:47:00Z</time>
      </trkpt>
      <trkpt lat="46.43883" lon="4.88474">
        <ele>175.58</ele>
        <time>2012-09-07T08:47:01Z</time>
      </trkpt>
      <trkpt lat="46.43885" lon="4.88468">
        <ele>175.58</ele>
        <time>2012-09-07T08:47:02Z</time>
      </trkpt>
      <trkpt lat="46.43886" lon="4.88462">
        <ele>175.58</ele>
        <time>2012-09-07T08:47:03Z</time>
      </trkpt>
      <trkpt lat="46.43897" lon="4.8838">
        <ele>176.06</ele>
        <time>2012-09-07T08:47:17Z</time>
      </trkpt>
      <trkpt lat="46.43903" lon="4.88325">
        <ele>176.54</ele>
        <time>2012-09-07T08:47:26Z</time>
      </trkpt>
      <trkpt lat="46.43905" lon="4.88322">
        <ele>176.54</ele>
        <time>2012-09-07T08:47:27Z</time>
      </trkpt>
      <trkpt lat="46.43908" lon="4.8832">
        <ele>176.54</ele>
        <time>2012-09-07T08:47:28Z</time>
      </trkpt>
      <trkpt lat="46.43911" lon="4.88318">
        <ele>176.54</ele>
        <time>2012-09-07T08:47:29Z</time>
      </trkpt>
      <trkpt lat="46.43914" lon="4.88318">
        <ele>177.02</ele>
        <time>2012-09-07T08:47:30Z</time>
      </trkpt>
      <trkpt lat="46.43916" lon="4.88318">
        <ele>177.02</ele>
        <time>2012-09-07T08:47:31Z</time>
      </trkpt>
      <trkpt lat="46.43919" lon="4.88317">
        <ele>177.5</ele>
        <time>2012-09-07T08:47:32Z</time>
      </trkpt>
      <trkpt lat="46.43956" lon="4.88332">
        <ele>177.5</ele>
        <time>2012-09-07T08:47:43Z</time>
      </trkpt>
      <trkpt lat="46.44006" lon="4.88354">
        <ele>177.02</ele>
        <time>2012-09-07T08:47:55Z</time>
      </trkpt>
      <trkpt lat="46.44056" lon="4.88381">
        <ele>177.02</ele>
        <time>2012-09-07T08:48:07Z</time>
      </trkpt>
      <trkpt lat="46.4406" lon="4.88383">
        <ele>177.02</ele>
        <time>2012-09-07T08:48:08Z</time>
      </trkpt>
      <trkpt lat="46.44132" lon="4.88419">
        <ele>177.5</ele>
        <time>2012-09-07T08:48:26Z</time>
      </trkpt>
      <trkpt lat="46.44204" lon="4.88453">
        <ele>177.5</ele>
        <time>2012-09-07T08:48:44Z</time>
      </trkpt>
      <trkpt lat="46.44212" lon="4.88456">
        <ele>177.5</ele>
        <time>2012-09-07T08:48:46Z</time>
      </trkpt>
      <trkpt lat="46.44216" lon="4.88458">
        <ele>177.02</ele>
        <time>2012-09-07T08:48:47Z</time>
      </trkpt>
      <trkpt lat="46.44281" lon="4.88492">
        <ele>177.02</ele>
        <time>2012-09-07T08:49:02Z</time>
      </trkpt>
      <trkpt lat="46.44284" lon="4.88496">
        <ele>177.02</ele>
        <time>2012-09-07T08:49:03Z</time>
      </trkpt>
      <trkpt lat="46.44287" lon="4.88501">
        <ele>177.02</ele>
        <time>2012-09-07T08:49:04Z</time>
      </trkpt>
      <trkpt lat="46.4429" lon="4.88505">
        <ele>177.02</ele>
        <time>2012-09-07T08:49:05Z</time>
      </trkpt>
      <trkpt lat="46.44294" lon="4.88508">
        <ele>177.02</ele>
        <time>2012-09-07T08:49:06Z</time>
      </trkpt>
      <trkpt lat="46.44297" lon="4.8851">
        <ele>177.02</ele>
        <time>2012-09-07T08:49:07Z</time>
      </trkpt>
      <trkpt lat="46.44301" lon="4.88511">
        <ele>177.02</ele>
        <time>2012-09-07T08:49:08Z</time>
      </trkpt>
      <trkpt lat="46.44305" lon="4.88512">
        <ele>177.02</ele>
        <time>2012-09-07T08:49:09Z</time>
      </trkpt>
      <trkpt lat="46.44307" lon="4.88514">
        <ele>177.02</ele>
        <time>2012-09-07T08:49:10Z</time>
      </trkpt>
      <trkpt lat="46.4431" lon="4.88516">
        <ele>176.54</ele>
        <time>2012-09-07T08:49:11Z</time>
      </trkpt>
      <trkpt lat="46.44311" lon="4.8852">
        <ele>177.02</ele>
        <time>2012-09-07T08:49:12Z</time>
      </trkpt>
      <trkpt lat="46.44312" lon="4.88524">
        <ele>176.54</ele>
        <time>2012-09-07T08:49:13Z</time>
      </trkpt>
      <trkpt lat="46.44311" lon="4.88528">
        <ele>176.54</ele>
        <time>2012-09-07T08:49:14Z</time>
      </trkpt>
      <trkpt lat="46.44311" lon="4.88533">
        <ele>176.54</ele>
        <time>2012-09-07T08:49:15Z</time>
      </trkpt>
      <trkpt lat="46.44309" lon="4.88538">
        <ele>176.54</ele>
        <time>2012-09-07T08:49:16Z</time>
      </trkpt>
      <trkpt lat="46.44294" lon="4.88593">
        <ele>176.54</ele>
        <time>2012-09-07T08:49:27Z</time>
      </trkpt>
      <trkpt lat="46.44272" lon="4.88677">
        <ele>177.02</ele>
        <time>2012-09-07T08:49:42Z</time>
      </trkpt>
      <trkpt lat="46.4425" lon="4.88764">
        <ele>176.54</ele>
        <time>2012-09-07T08:49:57Z</time>
      </trkpt>
      <trkpt lat="46.44246" lon="4.8878">
        <ele>176.54</ele>
        <time>2012-09-07T08:50:00Z</time>
      </trkpt>
      <trkpt lat="46.44242" lon="4.88798">
        <ele>176.54</ele>
        <time>2012-09-07T08:50:03Z</time>
      </trkpt>
      <trkpt lat="46.4424" lon="4.88803">
        <ele>176.54</ele>
        <time>2012-09-07T08:50:04Z</time>
      </trkpt>
      <trkpt lat="46.44212" lon="4.88915">
        <ele>176.54</ele>
        <time>2012-09-07T08:50:23Z</time>
      </trkpt>
      <trkpt lat="46.44199" lon="4.88967">
        <ele>176.06</ele>
        <time>2012-09-07T08:50:32Z</time>
      </trkpt>
      <trkpt lat="46.44195" lon="4.88984">
        <ele>176.06</ele>
        <time>2012-09-07T08:50:35Z</time>
      </trkpt>
      <trkpt lat="46.44193" lon="4.88989">
        <ele>176.06</ele>
        <time>2012-09-07T08:50:36Z</time>
      </trkpt>
      <trkpt lat="46.44192" lon="4.88995">
        <ele>176.06</ele>
        <time>2012-09-07T08:50:37Z</time>
      </trkpt>
      <trkpt lat="46.4419" lon="4.89001">
        <ele>176.54</ele>
        <time>2012-09-07T08:50:38Z</time>
      </trkpt>
      <trkpt lat="46.44189" lon="4.89007">
        <ele>176.54</ele>
        <time>2012-09-07T08:50:39Z</time>
      </trkpt>
      <trkpt lat="46.44175" lon="4.89061">
        <ele>175.1</ele>
        <time>2012-09-07T08:50:52Z</time>
      </trkpt>
      <trkpt lat="46.44174" lon="4.89064">
        <ele>174.62</ele>
        <time>2012-09-07T08:51:04Z</time>
      </trkpt>
      <trkpt lat="46.44174" lon="4.89065">
        <ele>175.1</ele>
        <time>2012-09-07T08:51:40Z</time>
      </trkpt>
      <trkpt lat="46.44174" lon="4.89065">
        <ele>174.62</ele>
        <time>2012-09-07T08:52:01Z</time>
      </trkpt>
      <trkpt lat="46.44175" lon="4.89066">
        <ele>174.62</ele>
        <time>2012-09-07T08:52:02Z</time>
      </trkpt>
      <trkpt lat="46.44201" lon="4.89081">
        <ele>175.1</ele>
        <time>2012-09-07T08:52:13Z</time>
      </trkpt>
      <trkpt lat="46.44247" lon="4.89108">
        <ele>175.1</ele>
        <time>2012-09-07T08:52:26Z</time>
      </trkpt>
      <trkpt lat="46.44274" lon="4.89125">
        <ele>175.1</ele>
        <time>2012-09-07T08:52:33Z</time>
      </trkpt>
      <trkpt lat="46.44335" lon="4.89161">
        <ele>175.1</ele>
        <time>2012-09-07T08:52:48Z</time>
      </trkpt>
      <trkpt lat="46.44339" lon="4.89164">
        <ele>175.1</ele>
        <time>2012-09-07T08:52:49Z</time>
      </trkpt>
      <trkpt lat="46.44408" lon="4.892">
        <ele>175.1</ele>
        <time>2012-09-07T08:53:06Z</time>
      </trkpt>
      <trkpt lat="46.44425" lon="4.89209">
        <ele>175.1</ele>
        <time>2012-09-07T08:53:10Z</time>
      </trkpt>
      <trkpt lat="46.44501" lon="4.89242">
        <ele>175.1</ele>
        <time>2012-09-07T08:53:28Z</time>
      </trkpt>
      <trkpt lat="46.44567" lon="4.89275">
        <ele>175.1</ele>
        <time>2012-09-07T08:53:44Z</time>
      </trkpt>
      <trkpt lat="46.44575" lon="4.89279">
        <ele>175.1</ele>
        <time>2012-09-07T08:53:46Z</time>
      </trkpt>
      <trkpt lat="46.44625" lon="4.89305">
        <ele>175.1</ele>
        <time>2012-09-07T08:54:01Z</time>
      </trkpt>
      <trkpt lat="46.44676" lon="4.89348">
        <ele>175.1</ele>
        <time>2012-09-07T08:54:16Z</time>
      </trkpt>
      <trkpt lat="46.44728" lon="4.89394">
        <ele>175.1</ele>
        <time>2012-09-07T08:54:31Z</time>
      </trkpt>
      <trkpt lat="46.44761" lon="4.89429">
        <ele>175.58</ele>
        <time>2012-09-07T08:54:43Z</time>
      </trkpt>
      <trkpt lat="46.44766" lon="4.89436">
        <ele>176.06</ele>
        <time>2012-09-07T08:54:51Z</time>
      </trkpt>
      <trkpt lat="46.4478" lon="4.8946">
        <ele>177.5</ele>
        <time>2012-09-07T08:55:11Z</time>
      </trkpt>
      <trkpt lat="46.44783" lon="4.8946">
        <ele>177.02</ele>
        <time>2012-09-07T08:55:44Z</time>
      </trkpt>
      <trkpt lat="46.44784" lon="4.89461">
        <ele>177.5</ele>
        <time>2012-09-07T08:55:45Z</time>
      </trkpt>
      <trkpt lat="46.44785" lon="4.89462">
        <ele>177.5</ele>
        <time>2012-09-07T08:55:46Z</time>
      </trkpt>
      <trkpt lat="46.44801" lon="4.89474">
        <ele>178.94</ele>
        <time>2012-09-07T08:56:04Z</time>
      </trkpt>
      <trkpt lat="46.44805" lon="4.89473">
        <ele>178.46</ele>
        <time>2012-09-07T08:56:14Z</time>
      </trkpt>
      <trkpt lat="46.44806" lon="4.89474">
        <ele>178.46</ele>
        <time>2012-09-07T08:56:15Z</time>
      </trkpt>
      <trkpt lat="46.44809" lon="4.89477">
        <ele>177.98</ele>
        <time>2012-09-07T08:56:28Z</time>
      </trkpt>
      <trkpt lat="46.4481" lon="4.89478">
        <ele>177.5</ele>
        <time>2012-09-07T08:56:51Z</time>
      </trkpt>
      <trkpt lat="46.44812" lon="4.89478">
        <ele>177.5</ele>
        <time>2012-09-07T08:56:52Z</time>
      </trkpt>
      <trkpt lat="46.44814" lon="4.89479">
        <ele>177.02</ele>
        <time>2012-09-07T08:56:53Z</time>
      </trkpt>
      <trkpt lat="46.44817" lon="4.8948">
        <ele>176.54</ele>
        <time>2012-09-07T08:56:54Z</time>
      </trkpt>
      <trkpt lat="46.44819" lon="4.89481">
        <ele>176.06</ele>
        <time>2012-09-07T08:56:55Z</time>
      </trkpt>
      <trkpt lat="46.4482" lon="4.89482">
        <ele>176.06</ele>
        <time>2012-09-07T08:56:56Z</time>
      </trkpt>
      <trkpt lat="46.44823" lon="4.89485">
        <ele>176.06</ele>
        <time>2012-09-07T08:56:58Z</time>
      </trkpt>
      <trkpt lat="46.44824" lon="4.89486">
        <ele>175.58</ele>
        <time>2012-09-07T08:56:59Z</time>
      </trkpt>
      <trkpt lat="46.44826" lon="4.89488">
        <ele>175.1</ele>
        <time>2012-09-07T08:57:00Z</time>
      </trkpt>
      <trkpt lat="46.44828" lon="4.89489">
        <ele>175.1</ele>
        <time>2012-09-07T08:57:01Z</time>
      </trkpt>
      <trkpt lat="46.4483" lon="4.8949">
        <ele>175.1</ele>
        <time>2012-09-07T08:57:02Z</time>
      </trkpt>
      <trkpt lat="46.44837" lon="4.89492">
        <ele>174.62</ele>
        <time>2012-09-07T08:57:14Z</time>
      </trkpt>
      <trkpt lat="46.4484" lon="4.89492">
        <ele>174.62</ele>
        <time>2012-09-07T08:57:49Z</time>
      </trkpt>
      <trkpt lat="46.44841" lon="4.89492">
        <ele>174.14</ele>
        <time>2012-09-07T08:58:11Z</time>
      </trkpt>
      <trkpt lat="46.44841" lon="4.89492">
        <ele>174.14</ele>
        <time>2012-09-07T08:58:40Z</time>
      </trkpt>
      <trkpt lat="46.44839" lon="4.89491">
        <ele>174.62</ele>
        <time>2012-09-07T08:58:41Z</time>
      </trkpt>
      <trkpt lat="46.44838" lon="4.8949">
        <ele>174.62</ele>
        <time>2012-09-07T08:58:54Z</time>
      </trkpt>
      <trkpt lat="46.44839" lon="4.89493">
        <ele>174.62</ele>
        <time>2012-09-07T08:59:05Z</time>
      </trkpt>
      <trkpt lat="46.4484" lon="4.89492">
        <ele>174.62</ele>
        <time>2012-09-07T08:59:13Z</time>
      </trkpt>
      <trkpt lat="46.44842" lon="4.89493">
        <ele>174.62</ele>
        <time>2012-09-07T08:59:15Z</time>
      </trkpt>
      <trkpt lat="46.44843" lon="4.89494">
        <ele>174.62</ele>
        <time>2012-09-07T08:59:16Z</time>
      </trkpt>
      <trkpt lat="46.44873" lon="4.89518">
        <ele>174.14</ele>
        <time>2012-09-07T08:59:29Z</time>
      </trkpt>
      <trkpt lat="46.44911" lon="4.89549">
        <ele>174.62</ele>
        <time>2012-09-07T08:59:41Z</time>
      </trkpt>
      <trkpt lat="46.44933" lon="4.89569">
        <ele>174.62</ele>
        <time>2012-09-07T08:59:48Z</time>
      </trkpt>
      <trkpt lat="46.44936" lon="4.89571">
        <ele>174.62</ele>
        <time>2012-09-07T08:59:49Z</time>
      </trkpt>
      <trkpt lat="46.4494" lon="4.89575">
        <ele>174.62</ele>
        <time>2012-09-07T08:59:50Z</time>
      </trkpt>
      <trkpt lat="46.44972" lon="4.89604">
        <ele>174.62</ele>
        <time>2012-09-07T09:00:00Z</time>
      </trkpt>
      <trkpt lat="46.45013" lon="4.89649">
        <ele>174.62</ele>
        <time>2012-09-07T09:00:13Z</time>
      </trkpt>
      <trkpt lat="46.45057" lon="4.89689">
        <ele>175.1</ele>
        <time>2012-09-07T09:00:25Z</time>
      </trkpt>
      <trkpt lat="46.451" lon="4.89743">
        <ele>174.62</ele>
        <time>2012-09-07T09:00:39Z</time>
      </trkpt>
      <trkpt lat="46.4514" lon="4.89796">
        <ele>174.14</ele>
        <time>2012-09-07T09:00:51Z</time>
      </trkpt>
      <trkpt lat="46.45143" lon="4.89801">
        <ele>174.62</ele>
        <time>2012-09-07T09:00:52Z</time>
      </trkpt>
      <trkpt lat="46.45157" lon="4.89827">
        <ele>174.14</ele>
        <time>2012-09-07T09:00:57Z</time>
      </trkpt>
      <trkpt lat="46.45202" lon="4.89906">
        <ele>174.62</ele>
        <time>2012-09-07T09:01:13Z</time>
      </trkpt>
      <trkpt lat="46.45239" lon="4.89967">
        <ele>174.62</ele>
        <time>2012-09-07T09:01:26Z</time>
      </trkpt>
      <trkpt lat="46.45283" lon="4.90031">
        <ele>174.62</ele>
        <time>2012-09-07T09:01:40Z</time>
      </trkpt>
      <trkpt lat="46.45339" lon="4.90105">
        <ele>174.62</ele>
        <time>2012-09-07T09:01:57Z</time>
      </trkpt>
      <trkpt lat="46.45376" lon="4.90158">
        <ele>174.62</ele>
        <time>2012-09-07T09:02:12Z</time>
      </trkpt>
      <trkpt lat="46.45415" lon="4.90217">
        <ele>175.1</ele>
        <time>2012-09-07T09:02:27Z</time>
      </trkpt>
      <trkpt lat="46.4546" lon="4.90275">
        <ele>174.62</ele>
        <time>2012-09-07T09:02:42Z</time>
      </trkpt>
      <trkpt lat="46.45517" lon="4.90359">
        <ele>175.1</ele>
        <time>2012-09-07T09:03:01Z</time>
      </trkpt>
      <trkpt lat="46.45552" lon="4.90427">
        <ele>174.62</ele>
        <time>2012-09-07T09:03:16Z</time>
      </trkpt>
      <trkpt lat="46.45589" lon="4.905">
        <ele>174.62</ele>
        <time>2012-09-07T09:03:32Z</time>
      </trkpt>
      <trkpt lat="46.45625" lon="4.90567">
        <ele>174.62</ele>
        <time>2012-09-07T09:03:47Z</time>
      </trkpt>
      <trkpt lat="46.45648" lon="4.90609">
        <ele>174.62</ele>
        <time>2012-09-07T09:03:56Z</time>
      </trkpt>
      <trkpt lat="46.45651" lon="4.90614">
        <ele>174.62</ele>
        <time>2012-09-07T09:03:57Z</time>
      </trkpt>
      <trkpt lat="46.45688" lon="4.90685">
        <ele>174.62</ele>
        <time>2012-09-07T09:04:12Z</time>
      </trkpt>
      <trkpt lat="46.45726" lon="4.90749">
        <ele>174.62</ele>
        <time>2012-09-07T09:04:27Z</time>
      </trkpt>
      <trkpt lat="46.45776" lon="4.90819">
        <ele>174.62</ele>
        <time>2012-09-07T09:04:44Z</time>
      </trkpt>
      <trkpt lat="46.45829" lon="4.9088">
        <ele>174.62</ele>
        <time>2012-09-07T09:05:00Z</time>
      </trkpt>
      <trkpt lat="46.4588" lon="4.90956">
        <ele>174.14</ele>
        <time>2012-09-07T09:05:16Z</time>
      </trkpt>
      <trkpt lat="46.45919" lon="4.91008">
        <ele>174.14</ele>
        <time>2012-09-07T09:05:31Z</time>
      </trkpt>
      <trkpt lat="46.45949" lon="4.91041">
        <ele>174.14</ele>
        <time>2012-09-07T09:05:43Z</time>
      </trkpt>
      <trkpt lat="46.45981" lon="4.91078">
        <ele>174.14</ele>
        <time>2012-09-07T09:05:55Z</time>
      </trkpt>
      <trkpt lat="46.46016" lon="4.91115">
        <ele>174.14</ele>
        <time>2012-09-07T09:06:07Z</time>
      </trkpt>
      <trkpt lat="46.46067" lon="4.91156">
        <ele>174.14</ele>
        <time>2012-09-07T09:06:22Z</time>
      </trkpt>
      <trkpt lat="46.46112" lon="4.91187">
        <ele>174.14</ele>
        <time>2012-09-07T09:06:35Z</time>
      </trkpt>
      <trkpt lat="46.46172" lon="4.91226">
        <ele>174.14</ele>
        <time>2012-09-07T09:06:51Z</time>
      </trkpt>
      <trkpt lat="46.46236" lon="4.91257">
        <ele>174.14</ele>
        <time>2012-09-07T09:07:08Z</time>
      </trkpt>
      <trkpt lat="46.46272" lon="4.91272">
        <ele>174.14</ele>
        <time>2012-09-07T09:07:17Z</time>
      </trkpt>
      <trkpt lat="46.46332" lon="4.91293">
        <ele>174.14</ele>
        <time>2012-09-07T09:07:32Z</time>
      </trkpt>
      <trkpt lat="46.46392" lon="4.91303">
        <ele>173.66</ele>
        <time>2012-09-07T09:07:46Z</time>
      </trkpt>
      <trkpt lat="46.46455" lon="4.91306">
        <ele>173.66</ele>
        <time>2012-09-07T09:08:02Z</time>
      </trkpt>
      <trkpt lat="46.46504" lon="4.91324">
        <ele>173.66</ele>
        <time>2012-09-07T09:08:15Z</time>
      </trkpt>
      <trkpt lat="46.46565" lon="4.91336">
        <ele>173.66</ele>
        <time>2012-09-07T09:08:30Z</time>
      </trkpt>
      <trkpt lat="46.46615" lon="4.91358">
        <ele>173.66</ele>
        <time>2012-09-07T09:08:43Z</time>
      </trkpt>
      <trkpt lat="46.46644" lon="4.91373">
        <ele>173.66</ele>
        <time>2012-09-07T09:08:50Z</time>
      </trkpt>
      <trkpt lat="46.46648" lon="4.91373">
        <ele>173.66</ele>
        <time>2012-09-07T09:08:51Z</time>
      </trkpt>
      <trkpt lat="46.46703" lon="4.9137">
        <ele>173.66</ele>
        <time>2012-09-07T09:09:05Z</time>
      </trkpt>
      <trkpt lat="46.4675" lon="4.91396">
        <ele>173.66</ele>
        <time>2012-09-07T09:09:18Z</time>
      </trkpt>
      <trkpt lat="46.46782" lon="4.91412">
        <ele>173.66</ele>
        <time>2012-09-07T09:09:31Z</time>
      </trkpt>
      <trkpt lat="46.46819" lon="4.91418">
        <ele>173.66</ele>
        <time>2012-09-07T09:09:45Z</time>
      </trkpt>
      <trkpt lat="46.46869" lon="4.91419">
        <ele>174.14</ele>
        <time>2012-09-07T09:09:59Z</time>
      </trkpt>
      <trkpt lat="46.46917" lon="4.91414">
        <ele>174.14</ele>
        <time>2012-09-07T09:10:12Z</time>
      </trkpt>
      <trkpt lat="46.46971" lon="4.91415">
        <ele>174.14</ele>
        <time>2012-09-07T09:10:26Z</time>
      </trkpt>
      <trkpt lat="46.47015" lon="4.91414">
        <ele>173.66</ele>
        <time>2012-09-07T09:10:38Z</time>
      </trkpt>
      <trkpt lat="46.47059" lon="4.91407">
        <ele>173.66</ele>
        <time>2012-09-07T09:10:52Z</time>
      </trkpt>
      <trkpt lat="46.47119" lon="4.91409">
        <ele>173.66</ele>
        <time>2012-09-07T09:11:08Z</time>
      </trkpt>
      <trkpt lat="46.47179" lon="4.91414">
        <ele>174.14</ele>
        <time>2012-09-07T09:11:23Z</time>
      </trkpt>
      <trkpt lat="46.47245" lon="4.91417">
        <ele>173.66</ele>
        <time>2012-09-07T09:11:39Z</time>
      </trkpt>
      <trkpt lat="46.47275" lon="4.91417">
        <ele>173.66</ele>
        <time>2012-09-07T09:11:46Z</time>
      </trkpt>
      <trkpt lat="46.4728" lon="4.91417">
        <ele>173.66</ele>
        <time>2012-09-07T09:11:47Z</time>
      </trkpt>
      <trkpt lat="46.47339" lon="4.91415">
        <ele>173.66</ele>
        <time>2012-09-07T09:12:01Z</time>
      </trkpt>
      <trkpt lat="46.47348" lon="4.91414">
        <ele>174.14</ele>
        <time>2012-09-07T09:12:03Z</time>
      </trkpt>
      <trkpt lat="46.4739" lon="4.91411">
        <ele>174.14</ele>
        <time>2012-09-07T09:12:13Z</time>
      </trkpt>
      <trkpt lat="46.47402" lon="4.91409">
        <ele>174.14</ele>
        <time>2012-09-07T09:12:16Z</time>
      </trkpt>
      <trkpt lat="46.47406" lon="4.91408">
        <ele>174.14</ele>
        <time>2012-09-07T09:12:17Z</time>
      </trkpt>
      <trkpt lat="46.47472" lon="4.91395">
        <ele>174.14</ele>
        <time>2012-09-07T09:12:33Z</time>
      </trkpt>
      <trkpt lat="46.47546" lon="4.91378">
        <ele>174.62</ele>
        <time>2012-09-07T09:12:51Z</time>
      </trkpt>
      <trkpt lat="46.47613" lon="4.91349">
        <ele>174.14</ele>
        <time>2012-09-07T09:13:08Z</time>
      </trkpt>
      <trkpt lat="46.47647" lon="4.91336">
        <ele>175.1</ele>
        <time>2012-09-07T09:13:20Z</time>
      </trkpt>
      <trkpt lat="46.47658" lon="4.91332">
        <ele>174.62</ele>
        <time>2012-09-07T09:13:23Z</time>
      </trkpt>
      <trkpt lat="46.47719" lon="4.91325">
        <ele>173.17</ele>
        <time>2012-09-07T09:13:37Z</time>
      </trkpt>
      <trkpt lat="46.4774" lon="4.9132">
        <ele>173.17</ele>
        <time>2012-09-07T09:13:42Z</time>
      </trkpt>
      <trkpt lat="46.47744" lon="4.91319">
        <ele>173.17</ele>
        <time>2012-09-07T09:13:43Z</time>
      </trkpt>
      <trkpt lat="46.47785" lon="4.91298">
        <ele>173.66</ele>
        <time>2012-09-07T09:13:56Z</time>
      </trkpt>
      <trkpt lat="46.47839" lon="4.91286">
        <ele>173.66</ele>
        <time>2012-09-07T09:14:10Z</time>
      </trkpt>
      <trkpt lat="46.47891" lon="4.91281">
        <ele>173.66</ele>
        <time>2012-09-07T09:14:23Z</time>
      </trkpt>
      <trkpt lat="46.47921" lon="4.91274">
        <ele>173.66</ele>
        <time>2012-09-07T09:14:33Z</time>
      </trkpt>
      <trkpt lat="46.47925" lon="4.91272">
        <ele>173.66</ele>
        <time>2012-09-07T09:14:44Z</time>
      </trkpt>
      <trkpt lat="46.47927" lon="4.91274">
        <ele>173.17</ele>
        <time>2012-09-07T09:15:18Z</time>
      </trkpt>
      <trkpt lat="46.47926" lon="4.91275">
        <ele>173.17</ele>
        <time>2012-09-07T09:15:58Z</time>
      </trkpt>
      <trkpt lat="46.47925" lon="4.91273">
        <ele>173.66</ele>
        <time>2012-09-07T09:16:34Z</time>
      </trkpt>
      <trkpt lat="46.47924" lon="4.91273">
        <ele>173.17</ele>
        <time>2012-09-07T09:17:08Z</time>
      </trkpt>
      <trkpt lat="46.47924" lon="4.91275">
        <ele>173.66</ele>
        <time>2012-09-07T09:17:44Z</time>
      </trkpt>
      <trkpt lat="46.47924" lon="4.91275">
        <ele>173.17</ele>
        <time>2012-09-07T09:18:16Z</time>
      </trkpt>
      <trkpt lat="46.47924" lon="4.91274">
        <ele>173.17</ele>
        <time>2012-09-07T09:18:45Z</time>
      </trkpt>
      <trkpt lat="46.47924" lon="4.91274">
        <ele>172.21</ele>
        <time>2012-09-07T09:19:14Z</time>
      </trkpt>
      <trkpt lat="46.47924" lon="4.91272">
        <ele>171.73</ele>
        <time>2012-09-07T09:19:38Z</time>
      </trkpt>
      <trkpt lat="46.47927" lon="4.91255">
        <ele>173.66</ele>
        <time>2012-09-07T09:20:29Z</time>
      </trkpt>
      <trkpt lat="46.47926" lon="4.91272">
        <ele>170.29</ele>
        <time>2012-09-07T09:20:50Z</time>
      </trkpt>
      <trkpt lat="46.47926" lon="4.91272">
        <ele>177.5</ele>
        <time>2012-09-07T09:20:51Z</time>
      </trkpt>
      <trkpt lat="46.47926" lon="4.91272">
        <ele>175.58</ele>
        <time>2012-09-07T09:20:52Z</time>
      </trkpt>
      <trkpt lat="46.47926" lon="4.91273">
        <ele>173.66</ele>
        <time>2012-09-07T09:20:54Z</time>
      </trkpt>
      <trkpt lat="46.47929" lon="4.91275">
        <ele>173.66</ele>
        <time>2012-09-07T09:21:09Z</time>
      </trkpt>
      <trkpt lat="46.4796" lon="4.91269">
        <ele>173.66</ele>
        <time>2012-09-07T09:21:22Z</time>
      </trkpt>
      <trkpt lat="46.48001" lon="4.91264">
        <ele>173.17</ele>
        <time>2012-09-07T09:21:33Z</time>
      </trkpt>
      <trkpt lat="46.48047" lon="4.91261">
        <ele>173.66</ele>
        <time>2012-09-07T09:21:44Z</time>
      </trkpt>
      <trkpt lat="46.48079" lon="4.91257">
        <ele>173.66</ele>
        <time>2012-09-07T09:21:51Z</time>
      </trkpt>
      <trkpt lat="46.48083" lon="4.91257">
        <ele>173.66</ele>
        <time>2012-09-07T09:21:52Z</time>
      </trkpt>
      <trkpt lat="46.48123" lon="4.91253">
        <ele>174.14</ele>
        <time>2012-09-07T09:22:03Z</time>
      </trkpt>
      <trkpt lat="46.48165" lon="4.91257">
        <ele>173.66</ele>
        <time>2012-09-07T09:22:15Z</time>
      </trkpt>
      <trkpt lat="46.48203" lon="4.91262">
        <ele>173.17</ele>
        <time>2012-09-07T09:22:23Z</time>
      </trkpt>
      <trkpt lat="46.48219" lon="4.91263">
        <ele>173.17</ele>
        <time>2012-09-07T09:22:26Z</time>
      </trkpt>
      <trkpt lat="46.48224" lon="4.91264">
        <ele>173.17</ele>
        <time>2012-09-07T09:22:27Z</time>
      </trkpt>
      <trkpt lat="46.48275" lon="4.91259">
        <ele>173.66</ele>
        <time>2012-09-07T09:22:39Z</time>
      </trkpt>
      <trkpt lat="46.48337" lon="4.91254">
        <ele>173.66</ele>
        <time>2012-09-07T09:22:52Z</time>
      </trkpt>
      <trkpt lat="46.48368" lon="4.91254">
        <ele>173.66</ele>
        <time>2012-09-07T09:22:59Z</time>
      </trkpt>
      <trkpt lat="46.48428" lon="4.91255">
        <ele>173.17</ele>
        <time>2012-09-07T09:23:13Z</time>
      </trkpt>
      <trkpt lat="46.48469" lon="4.91252">
        <ele>173.17</ele>
        <time>2012-09-07T09:23:24Z</time>
      </trkpt>
      <trkpt lat="46.48531" lon="4.91237">
        <ele>173.17</ele>
        <time>2012-09-07T09:23:38Z</time>
      </trkpt>
      <trkpt lat="46.48591" lon="4.91226">
        <ele>173.17</ele>
        <time>2012-09-07T09:23:52Z</time>
      </trkpt>
      <trkpt lat="46.48601" lon="4.91226">
        <ele>173.17</ele>
        <time>2012-09-07T09:23:54Z</time>
      </trkpt>
      <trkpt lat="46.48605" lon="4.91226">
        <ele>173.17</ele>
        <time>2012-09-07T09:23:55Z</time>
      </trkpt>
      <trkpt lat="46.48615" lon="4.91227">
        <ele>173.17</ele>
        <time>2012-09-07T09:23:57Z</time>
      </trkpt>
      <trkpt lat="46.48619" lon="4.91228">
        <ele>173.17</ele>
        <time>2012-09-07T09:23:58Z</time>
      </trkpt>
      <trkpt lat="46.48624" lon="4.91228">
        <ele>173.17</ele>
        <time>2012-09-07T09:23:59Z</time>
      </trkpt>
      <trkpt lat="46.48663" lon="4.91231">
        <ele>173.17</ele>
        <time>2012-09-07T09:24:10Z</time>
      </trkpt>
      <trkpt lat="46.48699" lon="4.91238">
        <ele>173.17</ele>
        <time>2012-09-07T09:24:18Z</time>
      </trkpt>
      <trkpt lat="46.48748" lon="4.9125">
        <ele>173.17</ele>
        <time>2012-09-07T09:24:31Z</time>
      </trkpt>
      <trkpt lat="46.48761" lon="4.91249">
        <ele>173.17</ele>
        <time>2012-09-07T09:24:34Z</time>
      </trkpt>
      <trkpt lat="46.48769" lon="4.91251">
        <ele>173.17</ele>
        <time>2012-09-07T09:24:46Z</time>
      </trkpt>
      <trkpt lat="46.48768" lon="4.9125">
        <ele>173.17</ele>
        <time>2012-09-07T09:25:18Z</time>
      </trkpt>
      <trkpt lat="46.48774" lon="4.91248">
        <ele>173.17</ele>
        <time>2012-09-07T09:25:32Z</time>
      </trkpt>
      <trkpt lat="46.48799" lon="4.91254">
        <ele>173.17</ele>
        <time>2012-09-07T09:25:43Z</time>
      </trkpt>
      <trkpt lat="46.48839" lon="4.91271">
        <ele>173.17</ele>
        <time>2012-09-07T09:25:56Z</time>
      </trkpt>
      <trkpt lat="46.48887" lon="4.91291">
        <ele>173.17</ele>
        <time>2012-09-07T09:26:09Z</time>
      </trkpt>
      <trkpt lat="46.48935" lon="4.91312">
        <ele>173.17</ele>
        <time>2012-09-07T09:26:21Z</time>
      </trkpt>
      <trkpt lat="46.4894" lon="4.91314">
        <ele>173.17</ele>
        <time>2012-09-07T09:26:22Z</time>
      </trkpt>
      <trkpt lat="46.49001" lon="4.91354">
        <ele>173.17</ele>
        <time>2012-09-07T09:26:35Z</time>
      </trkpt>
      <trkpt lat="46.49053" lon="4.91399">
        <ele>173.17</ele>
        <time>2012-09-07T09:26:48Z</time>
      </trkpt>
      <trkpt lat="46.49057" lon="4.91403">
        <ele>173.17</ele>
        <time>2012-09-07T09:26:49Z</time>
      </trkpt>
      <trkpt lat="46.49094" lon="4.91446">
        <ele>173.17</ele>
        <time>2012-09-07T09:26:59Z</time>
      </trkpt>
      <trkpt lat="46.49097" lon="4.91452">
        <ele>172.69</ele>
        <time>2012-09-07T09:27:00Z</time>
      </trkpt>
      <trkpt lat="46.49114" lon="4.9148">
        <ele>172.69</ele>
        <time>2012-09-07T09:27:08Z</time>
      </trkpt>
      <trkpt lat="46.49117" lon="4.91479">
        <ele>172.69</ele>
        <time>2012-09-07T09:27:19Z</time>
      </trkpt>
      <trkpt lat="46.49117" lon="4.9148">
        <ele>172.69</ele>
        <time>2012-09-07T09:27:53Z</time>
      </trkpt>
      <trkpt lat="46.49117" lon="4.91481">
        <ele>172.69</ele>
        <time>2012-09-07T09:28:10Z</time>
      </trkpt>
      <trkpt lat="46.49117" lon="4.91483">
        <ele>172.69</ele>
        <time>2012-09-07T09:28:11Z</time>
      </trkpt>
      <trkpt lat="46.49116" lon="4.91485">
        <ele>172.69</ele>
        <time>2012-09-07T09:28:12Z</time>
      </trkpt>
      <trkpt lat="46.49115" lon="4.91487">
        <ele>172.69</ele>
        <time>2012-09-07T09:28:13Z</time>
      </trkpt>
      <trkpt lat="46.49115" lon="4.9149">
        <ele>172.69</ele>
        <time>2012-09-07T09:28:14Z</time>
      </trkpt>
      <trkpt lat="46.49115" lon="4.91492">
        <ele>172.69</ele>
        <time>2012-09-07T09:28:15Z</time>
      </trkpt>
      <trkpt lat="46.49116" lon="4.91493">
        <ele>172.69</ele>
        <time>2012-09-07T09:28:16Z</time>
      </trkpt>
      <trkpt lat="46.49117" lon="4.91495">
        <ele>172.69</ele>
        <time>2012-09-07T09:28:17Z</time>
      </trkpt>
      <trkpt lat="46.49138" lon="4.91537">
        <ele>172.69</ele>
        <time>2012-09-07T09:28:30Z</time>
      </trkpt>
      <trkpt lat="46.49165" lon="4.91596">
        <ele>172.69</ele>
        <time>2012-09-07T09:28:43Z</time>
      </trkpt>
      <trkpt lat="46.49201" lon="4.91672">
        <ele>172.69</ele>
        <time>2012-09-07T09:28:59Z</time>
      </trkpt>
      <trkpt lat="46.49243" lon="4.91741">
        <ele>172.69</ele>
        <time>2012-09-07T09:29:15Z</time>
      </trkpt>
      <trkpt lat="46.49285" lon="4.91793">
        <ele>173.17</ele>
        <time>2012-09-07T09:29:30Z</time>
      </trkpt>
      <trkpt lat="46.49323" lon="4.91844">
        <ele>173.66</ele>
        <time>2012-09-07T09:29:44Z</time>
      </trkpt>
      <trkpt lat="46.49376" lon="4.91915">
        <ele>173.17</ele>
        <time>2012-09-07T09:30:01Z</time>
      </trkpt>
      <trkpt lat="46.49392" lon="4.91935">
        <ele>173.66</ele>
        <time>2012-09-07T09:30:06Z</time>
      </trkpt>
      <trkpt lat="46.49431" lon="4.92001">
        <ele>173.66</ele>
        <time>2012-09-07T09:30:20Z</time>
      </trkpt>
      <trkpt lat="46.49496" lon="4.92105">
        <ele>173.66</ele>
        <time>2012-09-07T09:30:43Z</time>
      </trkpt>
      <trkpt lat="46.49538" lon="4.92174">
        <ele>173.17</ele>
        <time>2012-09-07T09:30:59Z</time>
      </trkpt>
      <trkpt lat="46.4958" lon="4.92253">
        <ele>173.66</ele>
        <time>2012-09-07T09:31:15Z</time>
      </trkpt>
      <trkpt lat="46.49637" lon="4.92332">
        <ele>173.17</ele>
        <time>2012-09-07T09:31:34Z</time>
      </trkpt>
      <trkpt lat="46.49683" lon="4.92386">
        <ele>173.66</ele>
        <time>2012-09-07T09:31:49Z</time>
      </trkpt>
      <trkpt lat="46.49746" lon="4.92441">
        <ele>173.17</ele>
        <time>2012-09-07T09:32:07Z</time>
      </trkpt>
      <trkpt lat="46.49813" lon="4.92481">
        <ele>173.66</ele>
        <time>2012-09-07T09:32:27Z</time>
      </trkpt>
      <trkpt lat="46.49889" lon="4.92522">
        <ele>173.66</ele>
        <time>2012-09-07T09:32:49Z</time>
      </trkpt>
      <trkpt lat="46.49966" lon="4.92567">
        <ele>173.17</ele>
        <time>2012-09-07T09:33:10Z</time>
      </trkpt>
      <trkpt lat="46.50029" lon="4.92599">
        <ele>172.69</ele>
        <time>2012-09-07T09:33:26Z</time>
      </trkpt>
      <trkpt lat="46.50077" lon="4.92611">
        <ele>172.69</ele>
        <time>2012-09-07T09:33:40Z</time>
      </trkpt>
      <trkpt lat="46.50121" lon="4.92614">
        <ele>172.21</ele>
        <time>2012-09-07T09:33:53Z</time>
      </trkpt>
      <trkpt lat="46.50131" lon="4.92613">
        <ele>172.69</ele>
        <time>2012-09-07T09:34:03Z</time>
      </trkpt>
      <trkpt lat="46.50132" lon="4.9261">
        <ele>172.69</ele>
        <time>2012-09-07T09:34:21Z</time>
      </trkpt>
      <trkpt lat="46.50132" lon="4.92611">
        <ele>172.21</ele>
        <time>2012-09-07T09:34:52Z</time>
      </trkpt>
      <trkpt lat="46.50135" lon="4.92612">
        <ele>172.21</ele>
        <time>2012-09-07T09:35:10Z</time>
      </trkpt>
      <trkpt lat="46.50136" lon="4.92612">
        <ele>172.21</ele>
        <time>2012-09-07T09:35:11Z</time>
      </trkpt>
      <trkpt lat="46.50137" lon="4.92613">
        <ele>172.21</ele>
        <time>2012-09-07T09:35:12Z</time>
      </trkpt>
      <trkpt lat="46.50139" lon="4.92613">
        <ele>172.21</ele>
        <time>2012-09-07T09:35:13Z</time>
      </trkpt>
      <trkpt lat="46.5014" lon="4.92614">
        <ele>172.69</ele>
        <time>2012-09-07T09:35:14Z</time>
      </trkpt>
      <trkpt lat="46.50142" lon="4.92614">
        <ele>172.21</ele>
        <time>2012-09-07T09:35:15Z</time>
      </trkpt>
      <trkpt lat="46.50144" lon="4.92615">
        <ele>172.69</ele>
        <time>2012-09-07T09:35:16Z</time>
      </trkpt>
      <trkpt lat="46.50146" lon="4.92615">
        <ele>172.69</ele>
        <time>2012-09-07T09:35:17Z</time>
      </trkpt>
      <trkpt lat="46.50148" lon="4.92614">
        <ele>172.69</ele>
        <time>2012-09-07T09:35:18Z</time>
      </trkpt>
      <trkpt lat="46.50151" lon="4.92614">
        <ele>172.69</ele>
        <time>2012-09-07T09:35:19Z</time>
      </trkpt>
      <trkpt lat="46.50153" lon="4.92614">
        <ele>172.69</ele>
        <time>2012-09-07T09:35:20Z</time>
      </trkpt>
      <trkpt lat="46.50195" lon="4.92615">
        <ele>172.69</ele>
        <time>2012-09-07T09:35:34Z</time>
      </trkpt>
      <trkpt lat="46.50256" lon="4.92634">
        <ele>173.17</ele>
        <time>2012-09-07T09:35:50Z</time>
      </trkpt>
      <trkpt lat="46.50326" lon="4.92676">
        <ele>173.66</ele>
        <time>2012-09-07T09:36:09Z</time>
      </trkpt>
      <trkpt lat="46.5038" lon="4.92702">
        <ele>174.62</ele>
        <time>2012-09-07T09:36:25Z</time>
      </trkpt>
      <trkpt lat="46.50397" lon="4.92716">
        <ele>174.14</ele>
        <time>2012-09-07T09:36:30Z</time>
      </trkpt>
      <trkpt lat="46.50401" lon="4.92719">
        <ele>174.14</ele>
        <time>2012-09-07T09:36:31Z</time>
      </trkpt>
      <trkpt lat="46.50405" lon="4.9272">
        <ele>174.14</ele>
        <time>2012-09-07T09:36:32Z</time>
      </trkpt>
      <trkpt lat="46.50409" lon="4.9272">
        <ele>174.14</ele>
        <time>2012-09-07T09:36:33Z</time>
      </trkpt>
      <trkpt lat="46.50412" lon="4.9272">
        <ele>174.62</ele>
        <time>2012-09-07T09:36:34Z</time>
      </trkpt>
      <trkpt lat="46.50416" lon="4.92721">
        <ele>174.62</ele>
        <time>2012-09-07T09:36:35Z</time>
      </trkpt>
      <trkpt lat="46.50419" lon="4.92723">
        <ele>174.62</ele>
        <time>2012-09-07T09:36:36Z</time>
      </trkpt>
      <trkpt lat="46.50422" lon="4.92725">
        <ele>174.62</ele>
        <time>2012-09-07T09:36:37Z</time>
      </trkpt>
      <trkpt lat="46.50476" lon="4.92762">
        <ele>174.62</ele>
        <time>2012-09-07T09:36:52Z</time>
      </trkpt>
      <trkpt lat="46.50506" lon="4.92792">
        <ele>175.1</ele>
        <time>2012-09-07T09:37:04Z</time>
      </trkpt>
      <trkpt lat="46.50552" lon="4.92805">
        <ele>173.66</ele>
        <time>2012-09-07T09:37:17Z</time>
      </trkpt>
      <trkpt lat="46.50617" lon="4.92831">
        <ele>173.17</ele>
        <time>2012-09-07T09:37:33Z</time>
      </trkpt>
      <trkpt lat="46.50708" lon="4.92864">
        <ele>173.17</ele>
        <time>2012-09-07T09:37:54Z</time>
      </trkpt>
      <trkpt lat="46.50784" lon="4.9288">
        <ele>174.14</ele>
        <time>2012-09-07T09:38:12Z</time>
      </trkpt>
      <trkpt lat="46.50828" lon="4.92896">
        <ele>173.17</ele>
        <time>2012-09-07T09:38:23Z</time>
      </trkpt>
      <trkpt lat="46.50841" lon="4.92898">
        <ele>173.17</ele>
        <time>2012-09-07T09:38:26Z</time>
      </trkpt>
      <trkpt lat="46.50845" lon="4.92898">
        <ele>173.17</ele>
        <time>2012-09-07T09:38:27Z</time>
      </trkpt>
      <trkpt lat="46.50849" lon="4.92899">
        <ele>173.17</ele>
        <time>2012-09-07T09:38:28Z</time>
      </trkpt>
      <trkpt lat="46.50908" lon="4.92919">
        <ele>173.17</ele>
        <time>2012-09-07T09:38:42Z</time>
      </trkpt>
      <trkpt lat="46.50973" lon="4.92948">
        <ele>172.69</ele>
        <time>2012-09-07T09:38:57Z</time>
      </trkpt>
      <trkpt lat="46.51042" lon="4.92987">
        <ele>173.17</ele>
        <time>2012-09-07T09:39:13Z</time>
      </trkpt>
      <trkpt lat="46.51113" lon="4.93032">
        <ele>173.17</ele>
        <time>2012-09-07T09:39:30Z</time>
      </trkpt>
      <trkpt lat="46.5119" lon="4.93095">
        <ele>173.17</ele>
        <time>2012-09-07T09:39:50Z</time>
      </trkpt>
      <trkpt lat="46.51256" lon="4.93161">
        <ele>173.17</ele>
        <time>2012-09-07T09:40:09Z</time>
      </trkpt>
      <trkpt lat="46.51278" lon="4.93181">
        <ele>173.17</ele>
        <time>2012-09-07T09:40:15Z</time>
      </trkpt>
      <trkpt lat="46.51338" lon="4.93236">
        <ele>173.17</ele>
        <time>2012-09-07T09:40:31Z</time>
      </trkpt>
      <trkpt lat="46.51421" lon="4.93318">
        <ele>172.69</ele>
        <time>2012-09-07T09:40:53Z</time>
      </trkpt>
      <trkpt lat="46.51486" lon="4.93391">
        <ele>173.17</ele>
        <time>2012-09-07T09:41:12Z</time>
      </trkpt>
      <trkpt lat="46.51527" lon="4.93438">
        <ele>173.66</ele>
        <time>2012-09-07T09:41:25Z</time>
      </trkpt>
      <trkpt lat="46.5153" lon="4.93442">
        <ele>173.66</ele>
        <time>2012-09-07T09:41:26Z</time>
      </trkpt>
      <trkpt lat="46.51569" lon="4.93482">
        <ele>173.66</ele>
        <time>2012-09-07T09:41:37Z</time>
      </trkpt>
      <trkpt lat="46.51624" lon="4.93532">
        <ele>173.66</ele>
        <time>2012-09-07T09:41:53Z</time>
      </trkpt>
      <trkpt lat="46.51642" lon="4.93546">
        <ele>173.66</ele>
        <time>2012-09-07T09:41:58Z</time>
      </trkpt>
      <trkpt lat="46.51713" lon="4.93596">
        <ele>173.66</ele>
        <time>2012-09-07T09:42:16Z</time>
      </trkpt>
      <trkpt lat="46.51751" lon="4.93615">
        <ele>173.66</ele>
        <time>2012-09-07T09:42:25Z</time>
      </trkpt>
      <trkpt lat="46.51767" lon="4.93624">
        <ele>173.66</ele>
        <time>2012-09-07T09:42:29Z</time>
      </trkpt>
      <trkpt lat="46.51771" lon="4.93626">
        <ele>173.66</ele>
        <time>2012-09-07T09:42:30Z</time>
      </trkpt>
      <trkpt lat="46.51776" lon="4.93628">
        <ele>173.66</ele>
        <time>2012-09-07T09:42:31Z</time>
      </trkpt>
      <trkpt lat="46.51833" lon="4.93653">
        <ele>173.66</ele>
        <time>2012-09-07T09:42:45Z</time>
      </trkpt>
      <trkpt lat="46.51885" lon="4.93669">
        <ele>173.66</ele>
        <time>2012-09-07T09:42:58Z</time>
      </trkpt>
      <trkpt lat="46.51945" lon="4.93688">
        <ele>173.66</ele>
        <time>2012-09-07T09:43:12Z</time>
      </trkpt>
      <trkpt lat="46.52002" lon="4.93705">
        <ele>173.66</ele>
        <time>2012-09-07T09:43:26Z</time>
      </trkpt>
      <trkpt lat="46.52041" lon="4.93707">
        <ele>174.14</ele>
        <time>2012-09-07T09:43:38Z</time>
      </trkpt>
      <trkpt lat="46.52081" lon="4.93704">
        <ele>173.66</ele>
        <time>2012-09-07T09:43:50Z</time>
      </trkpt>
      <trkpt lat="46.5212" lon="4.93698">
        <ele>173.66</ele>
        <time>2012-09-07T09:44:03Z</time>
      </trkpt>
      <trkpt lat="46.52142" lon="4.93694">
        <ele>173.17</ele>
        <time>2012-09-07T09:44:14Z</time>
      </trkpt>
      <trkpt lat="46.52151" lon="4.93693">
        <ele>173.66</ele>
        <time>2012-09-07T09:44:30Z</time>
      </trkpt>
      <trkpt lat="46.52188" lon="4.93692">
        <ele>174.62</ele>
        <time>2012-09-07T09:44:42Z</time>
      </trkpt>
      <trkpt lat="46.52222" lon="4.93691">
        <ele>172.69</ele>
        <time>2012-09-07T09:44:50Z</time>
      </trkpt>
      <trkpt lat="46.52226" lon="4.93691">
        <ele>172.69</ele>
        <time>2012-09-07T09:44:51Z</time>
      </trkpt>
      <trkpt lat="46.52231" lon="4.93691">
        <ele>172.69</ele>
        <time>2012-09-07T09:44:52Z</time>
      </trkpt>
      <trkpt lat="46.52296" lon="4.9368">
        <ele>172.69</ele>
        <time>2012-09-07T09:45:07Z</time>
      </trkpt>
      <trkpt lat="46.52356" lon="4.93654">
        <ele>173.17</ele>
        <time>2012-09-07T09:45:22Z</time>
      </trkpt>
      <trkpt lat="46.52363" lon="4.93649">
        <ele>173.17</ele>
        <time>2012-09-07T09:45:24Z</time>
      </trkpt>
      <trkpt lat="46.52367" lon="4.93647">
        <ele>173.17</ele>
        <time>2012-09-07T09:45:25Z</time>
      </trkpt>
      <trkpt lat="46.52384" lon="4.93642">
        <ele>173.17</ele>
        <time>2012-09-07T09:45:29Z</time>
      </trkpt>
      <trkpt lat="46.52388" lon="4.93641">
        <ele>173.17</ele>
        <time>2012-09-07T09:45:30Z</time>
      </trkpt>
      <trkpt lat="46.52414" lon="4.93637">
        <ele>173.66</ele>
        <time>2012-09-07T09:45:36Z</time>
      </trkpt>
      <trkpt lat="46.52419" lon="4.93636">
        <ele>173.66</ele>
        <time>2012-09-07T09:45:37Z</time>
      </trkpt>
      <trkpt lat="46.52475" lon="4.93625">
        <ele>173.17</ele>
        <time>2012-09-07T09:45:48Z</time>
      </trkpt>
      <trkpt lat="46.52532" lon="4.93604">
        <ele>173.17</ele>
        <time>2012-09-07T09:46:01Z</time>
      </trkpt>
      <trkpt lat="46.52559" lon="4.93602">
        <ele>172.69</ele>
        <time>2012-09-07T09:46:07Z</time>
      </trkpt>
      <trkpt lat="46.52564" lon="4.93602">
        <ele>172.69</ele>
        <time>2012-09-07T09:46:08Z</time>
      </trkpt>
      <trkpt lat="46.52569" lon="4.93602">
        <ele>172.69</ele>
        <time>2012-09-07T09:46:09Z</time>
      </trkpt>
      <trkpt lat="46.526" lon="4.93593">
        <ele>172.21</ele>
        <time>2012-09-07T09:46:16Z</time>
      </trkpt>
      <trkpt lat="46.52605" lon="4.93592">
        <ele>172.21</ele>
        <time>2012-09-07T09:46:17Z</time>
      </trkpt>
      <trkpt lat="46.52608" lon="4.93591">
        <ele>172.21</ele>
        <time>2012-09-07T09:46:18Z</time>
      </trkpt>
      <trkpt lat="46.52612" lon="4.9359">
        <ele>172.21</ele>
        <time>2012-09-07T09:46:19Z</time>
      </trkpt>
      <trkpt lat="46.52616" lon="4.93588">
        <ele>172.21</ele>
        <time>2012-09-07T09:46:20Z</time>
      </trkpt>
      <trkpt lat="46.5262" lon="4.93586">
        <ele>172.21</ele>
        <time>2012-09-07T09:46:21Z</time>
      </trkpt>
      <trkpt lat="46.52623" lon="4.93584">
        <ele>172.21</ele>
        <time>2012-09-07T09:46:22Z</time>
      </trkpt>
      <trkpt lat="46.52663" lon="4.93564">
        <ele>172.21</ele>
        <time>2012-09-07T09:46:32Z</time>
      </trkpt>
      <trkpt lat="46.52732" lon="4.93535">
        <ele>172.21</ele>
        <time>2012-09-07T09:46:49Z</time>
      </trkpt>
      <trkpt lat="46.52782" lon="4.935">
        <ele>173.17</ele>
        <time>2012-09-07T09:47:04Z</time>
      </trkpt>
      <trkpt lat="46.5282" lon="4.93474">
        <ele>173.66</ele>
        <time>2012-09-07T09:47:17Z</time>
      </trkpt>
      <trkpt lat="46.52866" lon="4.93438">
        <ele>173.17</ele>
        <time>2012-09-07T09:47:30Z</time>
      </trkpt>
      <trkpt lat="46.5292" lon="4.93398">
        <ele>173.66</ele>
        <time>2012-09-07T09:47:44Z</time>
      </trkpt>
      <trkpt lat="46.5298" lon="4.93339">
        <ele>174.14</ele>
        <time>2012-09-07T09:48:02Z</time>
      </trkpt>
      <trkpt lat="46.53027" lon="4.93294">
        <ele>174.62</ele>
        <time>2012-09-07T09:48:18Z</time>
      </trkpt>
      <trkpt lat="46.53029" lon="4.93293">
        <ele>174.14</ele>
        <time>2012-09-07T09:48:29Z</time>
      </trkpt>
      <trkpt lat="46.53029" lon="4.93292">
        <ele>174.62</ele>
        <time>2012-09-07T09:48:46Z</time>
      </trkpt>
      <trkpt lat="46.53031" lon="4.9329">
        <ele>174.62</ele>
        <time>2012-09-07T09:49:02Z</time>
      </trkpt>
      <trkpt lat="46.53045" lon="4.93276">
        <ele>174.62</ele>
        <time>2012-09-07T09:49:15Z</time>
      </trkpt>
      <trkpt lat="46.53092" lon="4.93233">
        <ele>175.1</ele>
        <time>2012-09-07T09:49:30Z</time>
      </trkpt>
      <trkpt lat="46.53164" lon="4.93182">
        <ele>174.14</ele>
        <time>2012-09-07T09:49:44Z</time>
      </trkpt>
      <trkpt lat="46.53236" lon="4.93124">
        <ele>173.66</ele>
        <time>2012-09-07T09:50:00Z</time>
      </trkpt>
      <trkpt lat="46.5329" lon="4.93085">
        <ele>173.66</ele>
        <time>2012-09-07T09:50:15Z</time>
      </trkpt>
      <trkpt lat="46.53344" lon="4.93039">
        <ele>173.17</ele>
        <time>2012-09-07T09:50:30Z</time>
      </trkpt>
      <trkpt lat="46.53377" lon="4.93016">
        <ele>173.17</ele>
        <time>2012-09-07T09:50:39Z</time>
      </trkpt>
      <trkpt lat="46.53381" lon="4.93014">
        <ele>173.17</ele>
        <time>2012-09-07T09:50:40Z</time>
      </trkpt>
      <trkpt lat="46.53385" lon="4.93011">
        <ele>173.17</ele>
        <time>2012-09-07T09:50:41Z</time>
      </trkpt>
      <trkpt lat="46.53389" lon="4.93008">
        <ele>173.17</ele>
        <time>2012-09-07T09:50:42Z</time>
      </trkpt>
      <trkpt lat="46.53392" lon="4.93005">
        <ele>173.17</ele>
        <time>2012-09-07T09:50:43Z</time>
      </trkpt>
      <trkpt lat="46.534" lon="4.92999">
        <ele>173.66</ele>
        <time>2012-09-07T09:50:45Z</time>
      </trkpt>
      <trkpt lat="46.53403" lon="4.92996">
        <ele>173.66</ele>
        <time>2012-09-07T09:50:46Z</time>
      </trkpt>
      <trkpt lat="46.53453" lon="4.92955">
        <ele>173.66</ele>
        <time>2012-09-07T09:51:00Z</time>
      </trkpt>
      <trkpt lat="46.53487" lon="4.92935">
        <ele>174.62</ele>
        <time>2012-09-07T09:51:09Z</time>
      </trkpt>
      <trkpt lat="46.53526" lon="4.92909">
        <ele>175.58</ele>
        <time>2012-09-07T09:51:22Z</time>
      </trkpt>
      <trkpt lat="46.53547" lon="4.92895">
        <ele>175.1</ele>
        <time>2012-09-07T09:51:28Z</time>
      </trkpt>
      <trkpt lat="46.53616" lon="4.9286">
        <ele>173.17</ele>
        <time>2012-09-07T09:51:42Z</time>
      </trkpt>
      <trkpt lat="46.5364" lon="4.92846">
        <ele>173.17</ele>
        <time>2012-09-07T09:51:47Z</time>
      </trkpt>
      <trkpt lat="46.53645" lon="4.92843">
        <ele>173.17</ele>
        <time>2012-09-07T09:51:48Z</time>
      </trkpt>
      <trkpt lat="46.53731" lon="4.92795">
        <ele>172.69</ele>
        <time>2012-09-07T09:52:07Z</time>
      </trkpt>
      <trkpt lat="46.53809" lon="4.9275">
        <ele>173.17</ele>
        <time>2012-09-07T09:52:26Z</time>
      </trkpt>
      <trkpt lat="46.53817" lon="4.92745">
        <ele>172.69</ele>
        <time>2012-09-07T09:52:28Z</time>
      </trkpt>
      <trkpt lat="46.53874" lon="4.92711">
        <ele>172.69</ele>
        <time>2012-09-07T09:52:42Z</time>
      </trkpt>
      <trkpt lat="46.53891" lon="4.92702">
        <ele>173.17</ele>
        <time>2012-09-07T09:52:46Z</time>
      </trkpt>
      <trkpt lat="46.53963" lon="4.9267">
        <ele>172.69</ele>
        <time>2012-09-07T09:53:03Z</time>
      </trkpt>
      <trkpt lat="46.54039" lon="4.9264">
        <ele>172.69</ele>
        <time>2012-09-07T09:53:21Z</time>
      </trkpt>
      <trkpt lat="46.54104" lon="4.92612">
        <ele>172.69</ele>
        <time>2012-09-07T09:53:37Z</time>
      </trkpt>
      <trkpt lat="46.54121" lon="4.92605">
        <ele>172.69</ele>
        <time>2012-09-07T09:53:41Z</time>
      </trkpt>
      <trkpt lat="46.54126" lon="4.92603">
        <ele>172.69</ele>
        <time>2012-09-07T09:53:42Z</time>
      </trkpt>
      <trkpt lat="46.5413" lon="4.92601">
        <ele>172.69</ele>
        <time>2012-09-07T09:53:43Z</time>
      </trkpt>
      <trkpt lat="46.54134" lon="4.926">
        <ele>173.17</ele>
        <time>2012-09-07T09:53:44Z</time>
      </trkpt>
      <trkpt lat="46.54138" lon="4.92598">
        <ele>173.17</ele>
        <time>2012-09-07T09:53:45Z</time>
      </trkpt>
      <trkpt lat="46.54194" lon="4.92567">
        <ele>173.17</ele>
        <time>2012-09-07T09:54:00Z</time>
      </trkpt>
      <trkpt lat="46.54244" lon="4.92542">
        <ele>173.17</ele>
        <time>2012-09-07T09:54:14Z</time>
      </trkpt>
      <trkpt lat="46.54277" lon="4.9252">
        <ele>173.17</ele>
        <time>2012-09-07T09:54:25Z</time>
      </trkpt>
      <trkpt lat="46.5432" lon="4.92493">
        <ele>173.66</ele>
        <time>2012-09-07T09:54:37Z</time>
      </trkpt>
      <trkpt lat="46.54376" lon="4.92466">
        <ele>173.17</ele>
        <time>2012-09-07T09:54:52Z</time>
      </trkpt>
      <trkpt lat="46.54431" lon="4.92443">
        <ele>173.17</ele>
        <time>2012-09-07T09:55:07Z</time>
      </trkpt>
      <trkpt lat="46.54435" lon="4.92441">
        <ele>173.17</ele>
        <time>2012-09-07T09:55:08Z</time>
      </trkpt>
      <trkpt lat="46.54439" lon="4.92439">
        <ele>173.17</ele>
        <time>2012-09-07T09:55:09Z</time>
      </trkpt>
      <trkpt lat="46.54443" lon="4.92436">
        <ele>173.17</ele>
        <time>2012-09-07T09:55:10Z</time>
      </trkpt>
      <trkpt lat="46.54447" lon="4.92434">
        <ele>173.17</ele>
        <time>2012-09-07T09:55:11Z</time>
      </trkpt>
      <trkpt lat="46.5445" lon="4.92431">
        <ele>173.17</ele>
        <time>2012-09-07T09:55:12Z</time>
      </trkpt>
      <trkpt lat="46.54485" lon="4.92405">
        <ele>172.21</ele>
        <time>2012-09-07T09:55:25Z</time>
      </trkpt>
      <trkpt lat="46.54486" lon="4.92404">
        <ele>171.73</ele>
        <time>2012-09-07T09:55:46Z</time>
      </trkpt>
      <trkpt lat="46.54486" lon="4.92403">
        <ele>172.21</ele>
        <time>2012-09-07T09:55:57Z</time>
      </trkpt>
      <trkpt lat="46.5451" lon="4.92382">
        <ele>172.21</ele>
        <time>2012-09-07T09:56:09Z</time>
      </trkpt>
      <trkpt lat="46.54558" lon="4.92347">
        <ele>172.21</ele>
        <time>2012-09-07T09:56:24Z</time>
      </trkpt>
      <trkpt lat="46.54596" lon="4.92321">
        <ele>172.69</ele>
        <time>2012-09-07T09:56:34Z</time>
      </trkpt>
      <trkpt lat="46.54658" lon="4.92285">
        <ele>172.69</ele>
        <time>2012-09-07T09:56:49Z</time>
      </trkpt>
      <trkpt lat="46.54666" lon="4.9228">
        <ele>172.21</ele>
        <time>2012-09-07T09:56:51Z</time>
      </trkpt>
      <trkpt lat="46.54723" lon="4.92238">
        <ele>172.69</ele>
        <time>2012-09-07T09:57:06Z</time>
      </trkpt>
      <trkpt lat="46.54787" lon="4.92182">
        <ele>172.69</ele>
        <time>2012-09-07T09:57:23Z</time>
      </trkpt>
      <trkpt lat="46.54854" lon="4.92114">
        <ele>172.21</ele>
        <time>2012-09-07T09:57:41Z</time>
      </trkpt>
      <trkpt lat="46.54918" lon="4.92076">
        <ele>173.17</ele>
        <time>2012-09-07T09:57:57Z</time>
      </trkpt>
      <trkpt lat="46.54975" lon="4.9205">
        <ele>173.17</ele>
        <time>2012-09-07T09:58:12Z</time>
      </trkpt>
      <trkpt lat="46.55042" lon="4.92024">
        <ele>173.66</ele>
        <time>2012-09-07T09:58:28Z</time>
      </trkpt>
      <trkpt lat="46.55103" lon="4.92004">
        <ele>173.66</ele>
        <time>2012-09-07T09:58:43Z</time>
      </trkpt>
      <trkpt lat="46.5516" lon="4.91979">
        <ele>173.17</ele>
        <time>2012-09-07T09:58:56Z</time>
      </trkpt>
      <trkpt lat="46.55218" lon="4.91952">
        <ele>172.69</ele>
        <time>2012-09-07T09:59:10Z</time>
      </trkpt>
      <trkpt lat="46.55222" lon="4.9195">
        <ele>172.69</ele>
        <time>2012-09-07T09:59:11Z</time>
      </trkpt>
      <trkpt lat="46.55298" lon="4.91911">
        <ele>172.69</ele>
        <time>2012-09-07T09:59:29Z</time>
      </trkpt>
      <trkpt lat="46.55359" lon="4.91879">
        <ele>173.17</ele>
        <time>2012-09-07T09:59:45Z</time>
      </trkpt>
      <trkpt lat="46.55414" lon="4.91848">
        <ele>173.17</ele>
        <time>2012-09-07T10:00:00Z</time>
      </trkpt>
      <trkpt lat="46.55457" lon="4.91825">
        <ele>174.14</ele>
        <time>2012-09-07T10:00:14Z</time>
      </trkpt>
      <trkpt lat="46.55493" lon="4.91804">
        <ele>174.62</ele>
        <time>2012-09-07T10:00:26Z</time>
      </trkpt>
      <trkpt lat="46.55492" lon="4.91802">
        <ele>174.62</ele>
        <time>2012-09-07T10:00:27Z</time>
      </trkpt>
      <trkpt lat="46.5549" lon="4.91802">
        <ele>174.14</ele>
        <time>2012-09-07T10:00:28Z</time>
      </trkpt>
      <trkpt lat="46.55489" lon="4.91802">
        <ele>174.62</ele>
        <time>2012-09-07T10:00:29Z</time>
      </trkpt>
      <trkpt lat="46.55488" lon="4.91804">
        <ele>174.14</ele>
        <time>2012-09-07T10:00:43Z</time>
      </trkpt>
      <trkpt lat="46.55488" lon="4.91805">
        <ele>174.14</ele>
        <time>2012-09-07T10:00:44Z</time>
      </trkpt>
      <trkpt lat="46.5549" lon="4.91806">
        <ele>174.14</ele>
        <time>2012-09-07T10:00:45Z</time>
      </trkpt>
      <trkpt lat="46.55491" lon="4.91806">
        <ele>174.14</ele>
        <time>2012-09-07T10:00:46Z</time>
      </trkpt>
      <trkpt lat="46.55493" lon="4.91806">
        <ele>174.14</ele>
        <time>2012-09-07T10:00:47Z</time>
      </trkpt>
      <trkpt lat="46.55494" lon="4.91806">
        <ele>175.58</ele>
        <time>2012-09-07T10:00:48Z</time>
      </trkpt>
      <trkpt lat="46.55496" lon="4.91805">
        <ele>174.62</ele>
        <time>2012-09-07T10:00:49Z</time>
      </trkpt>
      <trkpt lat="46.55533" lon="4.91785">
        <ele>174.62</ele>
        <time>2012-09-07T10:01:01Z</time>
      </trkpt>
      <trkpt lat="46.55577" lon="4.91768">
        <ele>175.1</ele>
        <time>2012-09-07T10:01:14Z</time>
      </trkpt>
      <trkpt lat="46.55603" lon="4.91761">
        <ele>174.14</ele>
        <time>2012-09-07T10:01:21Z</time>
      </trkpt>
      <trkpt lat="46.5568" lon="4.91741">
        <ele>174.62</ele>
        <time>2012-09-07T10:01:38Z</time>
      </trkpt>
      <trkpt lat="46.55701" lon="4.91736">
        <ele>175.1</ele>
        <time>2012-09-07T10:01:43Z</time>
      </trkpt>
      <trkpt lat="46.55773" lon="4.91697">
        <ele>174.62</ele>
        <time>2012-09-07T10:02:01Z</time>
      </trkpt>
      <trkpt lat="46.55843" lon="4.91655">
        <ele>174.62</ele>
        <time>2012-09-07T10:02:19Z</time>
      </trkpt>
      <trkpt lat="46.55875" lon="4.91627">
        <ele>174.62</ele>
        <time>2012-09-07T10:02:31Z</time>
      </trkpt>
      <trkpt lat="46.55875" lon="4.91622">
        <ele>174.62</ele>
        <time>2012-09-07T10:02:32Z</time>
      </trkpt>
      <trkpt lat="46.55874" lon="4.91618">
        <ele>175.1</ele>
        <time>2012-09-07T10:02:33Z</time>
      </trkpt>
      <trkpt lat="46.55873" lon="4.91615">
        <ele>175.1</ele>
        <time>2012-09-07T10:02:34Z</time>
      </trkpt>
      <trkpt lat="46.55871" lon="4.91613">
        <ele>175.1</ele>
        <time>2012-09-07T10:02:35Z</time>
      </trkpt>
      <trkpt lat="46.5587" lon="4.91581">
        <ele>176.06</ele>
        <time>2012-09-07T10:02:45Z</time>
      </trkpt>
      <trkpt lat="46.55888" lon="4.91555">
        <ele>175.58</ele>
        <time>2012-09-07T10:02:56Z</time>
      </trkpt>
      <trkpt lat="46.55917" lon="4.91538">
        <ele>176.06</ele>
        <time>2012-09-07T10:03:07Z</time>
      </trkpt>
      <trkpt lat="46.55918" lon="4.91538">
        <ele>175.58</ele>
        <time>2012-09-07T10:03:23Z</time>
      </trkpt>
      <trkpt lat="46.55919" lon="4.91535">
        <ele>173.66</ele>
        <time>2012-09-07T10:03:38Z</time>
      </trkpt>
      <trkpt lat="46.55919" lon="4.91535">
        <ele>175.58</ele>
        <time>2012-09-07T10:03:40Z</time>
      </trkpt>
      <trkpt lat="46.55952" lon="4.9157">
        <ele>174.62</ele>
        <time>2012-09-07T10:17:52Z</time>
      </trkpt>
      <trkpt lat="46.55953" lon="4.91573">
        <ele>174.62</ele>
        <time>2012-09-07T10:17:53Z</time>
      </trkpt>
      <trkpt lat="46.55956" lon="4.91576">
        <ele>175.1</ele>
        <time>2012-09-07T10:17:56Z</time>
      </trkpt>
      <trkpt lat="46.55971" lon="4.91576">
        <ele>176.54</ele>
        <time>2012-09-07T10:18:05Z</time>
      </trkpt>
      <trkpt lat="46.56017" lon="4.91543">
        <ele>176.54</ele>
        <time>2012-09-07T10:18:23Z</time>
      </trkpt>
      <trkpt lat="46.56056" lon="4.915">
        <ele>177.02</ele>
        <time>2012-09-07T10:18:38Z</time>
      </trkpt>
      <trkpt lat="46.5611" lon="4.91444">
        <ele>177.02</ele>
        <time>2012-09-07T10:18:54Z</time>
      </trkpt>
      <trkpt lat="46.56151" lon="4.91399">
        <ele>177.02</ele>
        <time>2012-09-07T10:19:09Z</time>
      </trkpt>
      <trkpt lat="46.56203" lon="4.91353">
        <ele>177.02</ele>
        <time>2012-09-07T10:19:26Z</time>
      </trkpt>
      <trkpt lat="46.56265" lon="4.91303">
        <ele>177.02</ele>
        <time>2012-09-07T10:19:44Z</time>
      </trkpt>
      <trkpt lat="46.56305" lon="4.91269">
        <ele>177.02</ele>
        <time>2012-09-07T10:19:55Z</time>
      </trkpt>
      <trkpt lat="46.56324" lon="4.91255">
        <ele>177.02</ele>
        <time>2012-09-07T10:20:00Z</time>
      </trkpt>
      <trkpt lat="46.56368" lon="4.91231">
        <ele>179.42</ele>
        <time>2012-09-07T10:20:13Z</time>
      </trkpt>
      <trkpt lat="46.56378" lon="4.91225">
        <ele>179.9</ele>
        <time>2012-09-07T10:20:23Z</time>
      </trkpt>
      <trkpt lat="46.56382" lon="4.91223">
        <ele>179.9</ele>
        <time>2012-09-07T10:20:26Z</time>
      </trkpt>
      <trkpt lat="46.56383" lon="4.91222">
        <ele>180.38</ele>
        <time>2012-09-07T10:20:27Z</time>
      </trkpt>
      <trkpt lat="46.56406" lon="4.91211">
        <ele>181.83</ele>
        <time>2012-09-07T10:20:42Z</time>
      </trkpt>
      <trkpt lat="46.56407" lon="4.91211">
        <ele>181.83</ele>
        <time>2012-09-07T10:20:45Z</time>
      </trkpt>
      <trkpt lat="46.56442" lon="4.91194">
        <ele>179.9</ele>
        <time>2012-09-07T10:20:54Z</time>
      </trkpt>
      <trkpt lat="46.56522" lon="4.91157">
        <ele>177.5</ele>
        <time>2012-09-07T10:21:08Z</time>
      </trkpt>
      <trkpt lat="46.56579" lon="4.91127">
        <ele>177.02</ele>
        <time>2012-09-07T10:21:22Z</time>
      </trkpt>
      <trkpt lat="46.56612" lon="4.91119">
        <ele>177.02</ele>
        <time>2012-09-07T10:21:31Z</time>
      </trkpt>
      <trkpt lat="46.56644" lon="4.91113">
        <ele>177.02</ele>
        <time>2012-09-07T10:21:38Z</time>
      </trkpt>
      <trkpt lat="46.56695" lon="4.91086">
        <ele>177.5</ele>
        <time>2012-09-07T10:21:52Z</time>
      </trkpt>
      <trkpt lat="46.56699" lon="4.91084">
        <ele>177.5</ele>
        <time>2012-09-07T10:21:55Z</time>
      </trkpt>
      <trkpt lat="46.56703" lon="4.9108">
        <ele>177.5</ele>
        <time>2012-09-07T10:22:04Z</time>
      </trkpt>
      <trkpt lat="46.56704" lon="4.91079">
        <ele>177.5</ele>
        <time>2012-09-07T10:22:05Z</time>
      </trkpt>
      <trkpt lat="46.56743" lon="4.91046">
        <ele>177.98</ele>
        <time>2012-09-07T10:22:19Z</time>
      </trkpt>
      <trkpt lat="46.56758" lon="4.91034">
        <ele>177.98</ele>
        <time>2012-09-07T10:22:23Z</time>
      </trkpt>
      <trkpt lat="46.56839" lon="4.90991">
        <ele>177.98</ele>
        <time>2012-09-07T10:22:41Z</time>
      </trkpt>
      <trkpt lat="46.56915" lon="4.90952">
        <ele>178.46</ele>
        <time>2012-09-07T10:22:58Z</time>
      </trkpt>
      <trkpt lat="46.5692" lon="4.9095">
        <ele>177.98</ele>
        <time>2012-09-07T10:22:59Z</time>
      </trkpt>
      <trkpt lat="46.57005" lon="4.90911">
        <ele>178.94</ele>
        <time>2012-09-07T10:23:18Z</time>
      </trkpt>
      <trkpt lat="46.57077" lon="4.90897">
        <ele>179.42</ele>
        <time>2012-09-07T10:23:36Z</time>
      </trkpt>
      <trkpt lat="46.57153" lon="4.90864">
        <ele>180.38</ele>
        <time>2012-09-07T10:23:56Z</time>
      </trkpt>
      <trkpt lat="46.57183" lon="4.90849">
        <ele>180.87</ele>
        <time>2012-09-07T10:24:04Z</time>
      </trkpt>
      <trkpt lat="46.57204" lon="4.90847">
        <ele>180.87</ele>
        <time>2012-09-07T10:24:09Z</time>
      </trkpt>
      <trkpt lat="46.57262" lon="4.90869">
        <ele>181.35</ele>
        <time>2012-09-07T10:24:24Z</time>
      </trkpt>
      <trkpt lat="46.5733" lon="4.90904">
        <ele>180.87</ele>
        <time>2012-09-07T10:24:41Z</time>
      </trkpt>
      <trkpt lat="46.57353" lon="4.90912">
        <ele>179.9</ele>
        <time>2012-09-07T10:24:46Z</time>
      </trkpt>
      <trkpt lat="46.57375" lon="4.90931">
        <ele>179.42</ele>
        <time>2012-09-07T10:24:53Z</time>
      </trkpt>
      <trkpt lat="46.57375" lon="4.90935">
        <ele>179.42</ele>
        <time>2012-09-07T10:24:54Z</time>
      </trkpt>
      <trkpt lat="46.57373" lon="4.90939">
        <ele>178.94</ele>
        <time>2012-09-07T10:24:55Z</time>
      </trkpt>
      <trkpt lat="46.57364" lon="4.90952">
        <ele>178.94</ele>
        <time>2012-09-07T10:25:05Z</time>
      </trkpt>
      <trkpt lat="46.57362" lon="4.90953">
        <ele>178.94</ele>
        <time>2012-09-07T10:25:30Z</time>
      </trkpt>
      <trkpt lat="46.57361" lon="4.90953">
        <ele>178.46</ele>
        <time>2012-09-07T10:25:58Z</time>
      </trkpt>
      <trkpt lat="46.57361" lon="4.90954">
        <ele>178.46</ele>
        <time>2012-09-07T10:26:29Z</time>
      </trkpt>
      <trkpt lat="46.5736" lon="4.90954">
        <ele>178.46</ele>
        <time>2012-09-07T10:27:07Z</time>
      </trkpt>
      <trkpt lat="46.57361" lon="4.90956">
        <ele>178.46</ele>
        <time>2012-09-07T10:27:47Z</time>
      </trkpt>
      <trkpt lat="46.57363" lon="4.90955">
        <ele>177.98</ele>
        <time>2012-09-07T10:28:19Z</time>
      </trkpt>
      <trkpt lat="46.57363" lon="4.90954">
        <ele>177.98</ele>
        <time>2012-09-07T10:28:53Z</time>
      </trkpt>
      <trkpt lat="46.57361" lon="4.90953">
        <ele>177.98</ele>
        <time>2012-09-07T10:29:26Z</time>
      </trkpt>
      <trkpt lat="46.57362" lon="4.90952">
        <ele>177.98</ele>
        <time>2012-09-07T10:30:01Z</time>
      </trkpt>
      <trkpt lat="46.57363" lon="4.90952">
        <ele>177.98</ele>
        <time>2012-09-07T10:30:31Z</time>
      </trkpt>
      <trkpt lat="46.57363" lon="4.90952">
        <ele>177.98</ele>
        <time>2012-09-07T10:31:01Z</time>
      </trkpt>
      <trkpt lat="46.57363" lon="4.90952">
        <ele>177.98</ele>
        <time>2012-09-07T10:31:32Z</time>
      </trkpt>
      <trkpt lat="46.57363" lon="4.90954">
        <ele>177.98</ele>
        <time>2012-09-07T10:31:33Z</time>
      </trkpt>
      <trkpt lat="46.57363" lon="4.90955">
        <ele>177.98</ele>
        <time>2012-09-07T10:31:34Z</time>
      </trkpt>
      <trkpt lat="46.57354" lon="4.90968">
        <ele>177.98</ele>
        <time>2012-09-07T10:31:46Z</time>
      </trkpt>
      <trkpt lat="46.57352" lon="4.90969">
        <ele>177.98</ele>
        <time>2012-09-07T10:32:02Z</time>
      </trkpt>
      <trkpt lat="46.57351" lon="4.90969">
        <ele>177.98</ele>
        <time>2012-09-07T10:32:38Z</time>
      </trkpt>
      <trkpt lat="46.57352" lon="4.9097">
        <ele>177.98</ele>
        <time>2012-09-07T10:33:14Z</time>
      </trkpt>
      <trkpt lat="46.57352" lon="4.9097">
        <ele>177.98</ele>
        <time>2012-09-07T10:33:44Z</time>
      </trkpt>
      <trkpt lat="46.57353" lon="4.9097">
        <ele>177.98</ele>
        <time>2012-09-07T10:34:15Z</time>
      </trkpt>
      <trkpt lat="46.57352" lon="4.90971">
        <ele>177.98</ele>
        <time>2012-09-07T10:34:47Z</time>
      </trkpt>
      <trkpt lat="46.57352" lon="4.90971">
        <ele>177.98</ele>
        <time>2012-09-07T10:35:18Z</time>
      </trkpt>
      <trkpt lat="46.5735" lon="4.90971">
        <ele>178.46</ele>
        <time>2012-09-07T10:35:47Z</time>
      </trkpt>
      <trkpt lat="46.57349" lon="4.90973">
        <ele>178.46</ele>
        <time>2012-09-07T10:36:19Z</time>
      </trkpt>
      <trkpt lat="46.57349" lon="4.90973">
        <ele>178.46</ele>
        <time>2012-09-07T10:36:52Z</time>
      </trkpt>
      <trkpt lat="46.57347" lon="4.90975">
        <ele>178.46</ele>
        <time>2012-09-07T10:37:28Z</time>
      </trkpt>
      <trkpt lat="46.57347" lon="4.90977">
        <ele>178.46</ele>
        <time>2012-09-07T10:37:59Z</time>
      </trkpt>
      <trkpt lat="46.57348" lon="4.90976">
        <ele>178.94</ele>
        <time>2012-09-07T10:38:33Z</time>
      </trkpt>
      <trkpt lat="46.57349" lon="4.90975">
        <ele>178.94</ele>
        <time>2012-09-07T10:39:06Z</time>
      </trkpt>
      <trkpt lat="46.57347" lon="4.90977">
        <ele>178.94</ele>
        <time>2012-09-07T10:39:38Z</time>
      </trkpt>
      <trkpt lat="46.57347" lon="4.90975">
        <ele>178.94</ele>
        <time>2012-09-07T10:40:09Z</time>
      </trkpt>
      <trkpt lat="46.57348" lon="4.90975">
        <ele>178.94</ele>
        <time>2012-09-07T10:40:43Z</time>
      </trkpt>
      <trkpt lat="46.57348" lon="4.90975">
        <ele>178.94</ele>
        <time>2012-09-07T10:41:12Z</time>
      </trkpt>
      <trkpt lat="46.57349" lon="4.90975">
        <ele>179.42</ele>
        <time>2012-09-07T10:41:48Z</time>
      </trkpt>
      <trkpt lat="46.57348" lon="4.90972">
        <ele>179.42</ele>
        <time>2012-09-07T10:42:27Z</time>
      </trkpt>
      <trkpt lat="46.57349" lon="4.90972">
        <ele>179.42</ele>
        <time>2012-09-07T10:43:02Z</time>
      </trkpt>
      <trkpt lat="46.57349" lon="4.90972">
        <ele>179.42</ele>
        <time>2012-09-07T10:43:36Z</time>
      </trkpt>
      <trkpt lat="46.57348" lon="4.90973">
        <ele>179.42</ele>
        <time>2012-09-07T10:44:13Z</time>
      </trkpt>
      <trkpt lat="46.57349" lon="4.90975">
        <ele>179.9</ele>
        <time>2012-09-07T10:44:51Z</time>
      </trkpt>
      <trkpt lat="46.57349" lon="4.90973">
        <ele>179.9</ele>
        <time>2012-09-07T10:45:28Z</time>
      </trkpt>
      <trkpt lat="46.5735" lon="4.9097">
        <ele>180.38</ele>
        <time>2012-09-07T10:46:01Z</time>
      </trkpt>
      <trkpt lat="46.57349" lon="4.9097">
        <ele>179.9</ele>
        <time>2012-09-07T10:46:37Z</time>
      </trkpt>
      <trkpt lat="46.57349" lon="4.90969">
        <ele>180.38</ele>
        <time>2012-09-07T10:47:09Z</time>
      </trkpt>
      <trkpt lat="46.5735" lon="4.90971">
        <ele>180.38</ele>
        <time>2012-09-07T10:47:46Z</time>
      </trkpt>
      <trkpt lat="46.57351" lon="4.9097">
        <ele>180.38</ele>
        <time>2012-09-07T10:48:20Z</time>
      </trkpt>
      <trkpt lat="46.5735" lon="4.9097">
        <ele>180.38</ele>
        <time>2012-09-07T10:48:53Z</time>
      </trkpt>
      <trkpt lat="46.5735" lon="4.90971">
        <ele>180.38</ele>
        <time>2012-09-07T10:49:23Z</time>
      </trkpt>
      <trkpt lat="46.57352" lon="4.90968">
        <ele>180.38</ele>
        <time>2012-09-07T10:49:58Z</time>
      </trkpt>
      <trkpt lat="46.57352" lon="4.90968">
        <ele>180.38</ele>
        <time>2012-09-07T10:50:36Z</time>
      </trkpt>
      <trkpt lat="46.57352" lon="4.9097">
        <ele>180.87</ele>
        <time>2012-09-07T10:51:17Z</time>
      </trkpt>
      <trkpt lat="46.57353" lon="4.90969">
        <ele>180.87</ele>
        <time>2012-09-07T10:51:53Z</time>
      </trkpt>
      <trkpt lat="46.57354" lon="4.90969">
        <ele>180.87</ele>
        <time>2012-09-07T10:52:29Z</time>
      </trkpt>
      <trkpt lat="46.57353" lon="4.90969">
        <ele>180.87</ele>
        <time>2012-09-07T10:53:09Z</time>
      </trkpt>
      <trkpt lat="46.57353" lon="4.90968">
        <ele>180.87</ele>
        <time>2012-09-07T10:53:43Z</time>
      </trkpt>
      <trkpt lat="46.57354" lon="4.90968">
        <ele>180.87</ele>
        <time>2012-09-07T10:54:21Z</time>
      </trkpt>
      <trkpt lat="46.57355" lon="4.90969">
        <ele>180.87</ele>
        <time>2012-09-07T10:54:52Z</time>
      </trkpt>
      <trkpt lat="46.57355" lon="4.90969">
        <ele>180.87</ele>
        <time>2012-09-07T10:55:22Z</time>
      </trkpt>
      <trkpt lat="46.57354" lon="4.9097">
        <ele>180.38</ele>
        <time>2012-09-07T10:55:59Z</time>
      </trkpt>
      <trkpt lat="46.57353" lon="4.9097">
        <ele>180.38</ele>
        <time>2012-09-07T10:56:31Z</time>
      </trkpt>
      <trkpt lat="46.57354" lon="4.9097">
        <ele>180.87</ele>
        <time>2012-09-07T10:57:03Z</time>
      </trkpt>
      <trkpt lat="46.57354" lon="4.90969">
        <ele>180.87</ele>
        <time>2012-09-07T10:57:29Z</time>
      </trkpt>
      <trkpt lat="46.57354" lon="4.90969">
        <ele>180.38</ele>
        <time>2012-09-07T10:57:55Z</time>
      </trkpt>
      <trkpt lat="46.57353" lon="4.9097">
        <ele>180.38</ele>
        <time>2012-09-07T10:57:57Z</time>
      </trkpt>
      <trkpt lat="46.57354" lon="4.90972">
        <ele>180.38</ele>
        <time>2012-09-07T10:57:58Z</time>
      </trkpt>
      <trkpt lat="46.57355" lon="4.90973">
        <ele>180.38</ele>
        <time>2012-09-07T10:57:59Z</time>
      </trkpt>
      <trkpt lat="46.57365" lon="4.91">
        <ele>179.9</ele>
        <time>2012-09-07T10:58:18Z</time>
      </trkpt>
      <trkpt lat="46.57366" lon="4.91015">
        <ele>178.94</ele>
        <time>2012-09-07T10:58:36Z</time>
      </trkpt>
      <trkpt lat="46.57366" lon="4.91016">
        <ele>178.46</ele>
        <time>2012-09-07T10:59:02Z</time>
      </trkpt>
      <trkpt lat="46.57367" lon="4.91037">
        <ele>177.98</ele>
        <time>2012-09-07T10:59:19Z</time>
      </trkpt>
      <trkpt lat="46.57365" lon="4.91066">
        <ele>177.98</ele>
        <time>2012-09-07T10:59:36Z</time>
      </trkpt>
      <trkpt lat="46.57366" lon="4.911">
        <ele>177.98</ele>
        <time>2012-09-07T10:59:56Z</time>
      </trkpt>
      <trkpt lat="46.57368" lon="4.91117">
        <ele>177.5</ele>
        <time>2012-09-07T11:00:11Z</time>
      </trkpt>
      <trkpt lat="46.57368" lon="4.91118">
        <ele>177.5</ele>
        <time>2012-09-07T11:00:38Z</time>
      </trkpt>
      <trkpt lat="46.57369" lon="4.91116">
        <ele>177.5</ele>
        <time>2012-09-07T11:01:12Z</time>
      </trkpt>
      <trkpt lat="46.5737" lon="4.91114">
        <ele>177.5</ele>
        <time>2012-09-07T11:01:26Z</time>
      </trkpt>
      <trkpt lat="46.5737" lon="4.91113">
        <ele>177.5</ele>
        <time>2012-09-07T11:01:27Z</time>
      </trkpt>
      <trkpt lat="46.57374" lon="4.91089">
        <ele>177.5</ele>
        <time>2012-09-07T11:01:42Z</time>
      </trkpt>
      <trkpt lat="46.57374" lon="4.91088">
        <ele>177.5</ele>
        <time>2012-09-07T11:01:43Z</time>
      </trkpt>
      <trkpt lat="46.57385" lon="4.91083">
        <ele>177.5</ele>
        <time>2012-09-07T11:01:58Z</time>
      </trkpt>
      <trkpt lat="46.57385" lon="4.9108">
        <ele>177.5</ele>
        <time>2012-09-07T11:02:12Z</time>
      </trkpt>
      <trkpt lat="46.57383" lon="4.91076">
        <ele>177.5</ele>
        <time>2012-09-07T11:02:24Z</time>
      </trkpt>
      <trkpt lat="46.57382" lon="4.91073">
        <ele>177.5</ele>
        <time>2012-09-07T11:02:35Z</time>
      </trkpt>
      <trkpt lat="46.57382" lon="4.91073">
        <ele>177.5</ele>
        <time>2012-09-07T11:03:02Z</time>
      </trkpt>
    </trkseg>
  </trk>
  <trk>
    <name><![CDATA[08-SEP-12 15:13:17]]></name>
    <trkseg>
      <trkpt lat="46.57371" lon="4.91071">
        <ele>154.43</ele>
        <time>2012-09-08T08:47:39Z</time>
      </trkpt>
      <trkpt lat="46.57371" lon="4.91071">
        <ele>154.91</ele>
        <time>2012-09-08T08:47:40Z</time>
      </trkpt>
      <trkpt lat="46.57376" lon="4.9108">
        <ele>152.51</ele>
        <time>2012-09-08T08:48:01Z</time>
      </trkpt>
      <trkpt lat="46.57376" lon="4.9108">
        <ele>155.87</ele>
        <time>2012-09-08T08:48:02Z</time>
      </trkpt>
      <trkpt lat="46.57375" lon="4.9108">
        <ele>152.99</ele>
        <time>2012-09-08T08:48:04Z</time>
      </trkpt>
      <trkpt lat="46.57375" lon="4.9108">
        <ele>156.35</ele>
        <time>2012-09-08T08:48:05Z</time>
      </trkpt>
      <trkpt lat="46.57378" lon="4.91081">
        <ele>155.87</ele>
        <time>2012-09-08T08:48:27Z</time>
      </trkpt>
      <trkpt lat="46.57378" lon="4.91081">
        <ele>156.35</ele>
        <time>2012-09-08T08:48:28Z</time>
      </trkpt>
      <trkpt lat="46.57376" lon="4.9108">
        <ele>159.72</ele>
        <time>2012-09-08T08:48:32Z</time>
      </trkpt>
      <trkpt lat="46.57377" lon="4.91082">
        <ele>163.08</ele>
        <time>2012-09-08T08:48:36Z</time>
      </trkpt>
      <trkpt lat="46.57376" lon="4.91083">
        <ele>167.41</ele>
        <time>2012-09-08T08:48:40Z</time>
      </trkpt>
      <trkpt lat="46.57376" lon="4.91083">
        <ele>170.77</ele>
        <time>2012-09-08T08:48:46Z</time>
      </trkpt>
      <trkpt lat="46.57376" lon="4.91083">
        <ele>171.25</ele>
        <time>2012-09-08T08:48:47Z</time>
      </trkpt>
      <trkpt lat="46.57376" lon="4.91084">
        <ele>172.69</ele>
        <time>2012-09-08T08:48:50Z</time>
      </trkpt>
      <trkpt lat="46.57377" lon="4.91083">
        <ele>176.06</ele>
        <time>2012-09-08T08:48:55Z</time>
      </trkpt>
      <trkpt lat="46.57377" lon="4.91083">
        <ele>179.42</ele>
        <time>2012-09-08T08:49:03Z</time>
      </trkpt>
      <trkpt lat="46.57377" lon="4.91082">
        <ele>183.27</ele>
        <time>2012-09-08T08:49:20Z</time>
      </trkpt>
      <trkpt lat="46.57375" lon="4.91083">
        <ele>182.31</ele>
        <time>2012-09-08T08:49:46Z</time>
      </trkpt>
      <trkpt lat="46.57374" lon="4.91079">
        <ele>181.83</ele>
        <time>2012-09-08T08:50:01Z</time>
      </trkpt>
      <trkpt lat="46.57373" lon="4.91079">
        <ele>182.31</ele>
        <time>2012-09-08T08:50:06Z</time>
      </trkpt>
      <trkpt lat="46.57374" lon="4.91079">
        <ele>182.31</ele>
        <time>2012-09-08T08:50:39Z</time>
      </trkpt>
      <trkpt lat="46.57373" lon="4.91078">
        <ele>180.87</ele>
        <time>2012-09-08T08:50:43Z</time>
      </trkpt>
      <trkpt lat="46.57373" lon="4.91078">
        <ele>182.79</ele>
        <time>2012-09-08T08:50:45Z</time>
      </trkpt>
      <trkpt lat="46.57373" lon="4.91078">
        <ele>182.31</ele>
        <time>2012-09-08T08:51:07Z</time>
      </trkpt>
      <trkpt lat="46.57372" lon="4.91077">
        <ele>182.31</ele>
        <time>2012-09-08T08:51:41Z</time>
      </trkpt>
      <trkpt lat="46.57372" lon="4.91078">
        <ele>182.31</ele>
        <time>2012-09-08T08:51:55Z</time>
      </trkpt>
      <trkpt lat="46.57374" lon="4.91079">
        <ele>182.31</ele>
        <time>2012-09-08T08:52:12Z</time>
      </trkpt>
      <trkpt lat="46.57373" lon="4.91078">
        <ele>182.31</ele>
        <time>2012-09-08T08:52:14Z</time>
      </trkpt>
      <trkpt lat="46.57369" lon="4.91067">
        <ele>182.31</ele>
        <time>2012-09-08T08:52:21Z</time>
      </trkpt>
      <trkpt lat="46.57367" lon="4.91046">
        <ele>182.79</ele>
        <time>2012-09-08T08:52:29Z</time>
      </trkpt>
      <trkpt lat="46.57365" lon="4.91">
        <ele>184.23</ele>
        <time>2012-09-08T08:52:42Z</time>
      </trkpt>
      <trkpt lat="46.57371" lon="4.90963">
        <ele>184.71</ele>
        <time>2012-09-08T08:52:54Z</time>
      </trkpt>
      <trkpt lat="46.57383" lon="4.90956">
        <ele>185.19</ele>
        <time>2012-09-08T08:53:01Z</time>
      </trkpt>
      <trkpt lat="46.57409" lon="4.90971">
        <ele>183.75</ele>
        <time>2012-09-08T08:53:15Z</time>
      </trkpt>
      <trkpt lat="46.57409" lon="4.90974">
        <ele>183.75</ele>
        <time>2012-09-08T08:53:26Z</time>
      </trkpt>
      <trkpt lat="46.57408" lon="4.90995">
        <ele>183.75</ele>
        <time>2012-09-08T08:53:32Z</time>
      </trkpt>
      <trkpt lat="46.57404" lon="4.91024">
        <ele>182.79</ele>
        <time>2012-09-08T08:53:44Z</time>
      </trkpt>
      <trkpt lat="46.57403" lon="4.91029">
        <ele>182.31</ele>
        <time>2012-09-08T08:53:55Z</time>
      </trkpt>
      <trkpt lat="46.57403" lon="4.91028">
        <ele>182.31</ele>
        <time>2012-09-08T08:53:59Z</time>
      </trkpt>
      <trkpt lat="46.57403" lon="4.91031">
        <ele>182.31</ele>
        <time>2012-09-08T08:54:04Z</time>
      </trkpt>
      <trkpt lat="46.57397" lon="4.91081">
        <ele>182.31</ele>
        <time>2012-09-08T08:54:17Z</time>
      </trkpt>
      <trkpt lat="46.57392" lon="4.91142">
        <ele>182.31</ele>
        <time>2012-09-08T08:54:30Z</time>
      </trkpt>
      <trkpt lat="46.57391" lon="4.91151">
        <ele>182.31</ele>
        <time>2012-09-08T08:54:32Z</time>
      </trkpt>
      <trkpt lat="46.57382" lon="4.91164">
        <ele>181.83</ele>
        <time>2012-09-08T08:54:37Z</time>
      </trkpt>
      <trkpt lat="46.57356" lon="4.91204">
        <ele>182.31</ele>
        <time>2012-09-08T08:54:51Z</time>
      </trkpt>
      <trkpt lat="46.57355" lon="4.91208">
        <ele>181.83</ele>
        <time>2012-09-08T08:54:53Z</time>
      </trkpt>
      <trkpt lat="46.57353" lon="4.91208">
        <ele>181.83</ele>
        <time>2012-09-08T08:54:55Z</time>
      </trkpt>
      <trkpt lat="46.5735" lon="4.91217">
        <ele>181.83</ele>
        <time>2012-09-08T08:55:06Z</time>
      </trkpt>
      <trkpt lat="46.57351" lon="4.91218">
        <ele>181.83</ele>
        <time>2012-09-08T08:55:18Z</time>
      </trkpt>
      <trkpt lat="46.57352" lon="4.91219">
        <ele>181.83</ele>
        <time>2012-09-08T08:55:20Z</time>
      </trkpt>
      <trkpt lat="46.57356" lon="4.91227">
        <ele>182.31</ele>
        <time>2012-09-08T08:55:34Z</time>
      </trkpt>
      <trkpt lat="46.57357" lon="4.91228">
        <ele>181.83</ele>
        <time>2012-09-08T08:56:01Z</time>
      </trkpt>
      <trkpt lat="46.57359" lon="4.91232">
        <ele>181.83</ele>
        <time>2012-09-08T08:56:03Z</time>
      </trkpt>
      <trkpt lat="46.57381" lon="4.91232">
        <ele>182.31</ele>
        <time>2012-09-08T08:56:13Z</time>
      </trkpt>
      <trkpt lat="46.5743" lon="4.91224">
        <ele>182.31</ele>
        <time>2012-09-08T08:56:27Z</time>
      </trkpt>
      <trkpt lat="46.57489" lon="4.91212">
        <ele>182.31</ele>
        <time>2012-09-08T08:56:42Z</time>
      </trkpt>
      <trkpt lat="46.57536" lon="4.91207">
        <ele>181.83</ele>
        <time>2012-09-08T08:56:57Z</time>
      </trkpt>
      <trkpt lat="46.57536" lon="4.91207">
        <ele>181.83</ele>
        <time>2012-09-08T08:57:23Z</time>
      </trkpt>
      <trkpt lat="46.5754" lon="4.91206">
        <ele>181.83</ele>
        <time>2012-09-08T08:57:40Z</time>
      </trkpt>
      <trkpt lat="46.57541" lon="4.91206">
        <ele>181.83</ele>
        <time>2012-09-08T08:58:15Z</time>
      </trkpt>
      <trkpt lat="46.5754" lon="4.91205">
        <ele>181.83</ele>
        <time>2012-09-08T08:58:44Z</time>
      </trkpt>
      <trkpt lat="46.57541" lon="4.91205">
        <ele>181.83</ele>
        <time>2012-09-08T08:59:07Z</time>
      </trkpt>
      <trkpt lat="46.57542" lon="4.91204">
        <ele>181.83</ele>
        <time>2012-09-08T08:59:08Z</time>
      </trkpt>
      <trkpt lat="46.57544" lon="4.91203">
        <ele>181.83</ele>
        <time>2012-09-08T08:59:09Z</time>
      </trkpt>
      <trkpt lat="46.57546" lon="4.91203">
        <ele>181.83</ele>
        <time>2012-09-08T08:59:10Z</time>
      </trkpt>
      <trkpt lat="46.57549" lon="4.91201">
        <ele>181.83</ele>
        <time>2012-09-08T08:59:11Z</time>
      </trkpt>
      <trkpt lat="46.57552" lon="4.912">
        <ele>182.31</ele>
        <time>2012-09-08T08:59:12Z</time>
      </trkpt>
      <trkpt lat="46.57555" lon="4.912">
        <ele>181.83</ele>
        <time>2012-09-08T08:59:13Z</time>
      </trkpt>
      <trkpt lat="46.57583" lon="4.91192">
        <ele>181.83</ele>
        <time>2012-09-08T08:59:26Z</time>
      </trkpt>
      <trkpt lat="46.57605" lon="4.91185">
        <ele>181.83</ele>
        <time>2012-09-08T08:59:39Z</time>
      </trkpt>
      <trkpt lat="46.57641" lon="4.91183">
        <ele>181.35</ele>
        <time>2012-09-08T08:59:52Z</time>
      </trkpt>
      <trkpt lat="46.57669" lon="4.91185">
        <ele>181.35</ele>
        <time>2012-09-08T08:59:59Z</time>
      </trkpt>
      <trkpt lat="46.57745" lon="4.91189">
        <ele>181.35</ele>
        <time>2012-09-08T09:00:16Z</time>
      </trkpt>
      <trkpt lat="46.57827" lon="4.91194">
        <ele>181.35</ele>
        <time>2012-09-08T09:00:34Z</time>
      </trkpt>
      <trkpt lat="46.57894" lon="4.91203">
        <ele>181.35</ele>
        <time>2012-09-08T09:00:49Z</time>
      </trkpt>
      <trkpt lat="46.57912" lon="4.91203">
        <ele>181.35</ele>
        <time>2012-09-08T09:00:53Z</time>
      </trkpt>
      <trkpt lat="46.57993" lon="4.91199">
        <ele>181.35</ele>
        <time>2012-09-08T09:01:11Z</time>
      </trkpt>
      <trkpt lat="46.57997" lon="4.91199">
        <ele>181.35</ele>
        <time>2012-09-08T09:01:12Z</time>
      </trkpt>
      <trkpt lat="46.58001" lon="4.91199">
        <ele>181.35</ele>
        <time>2012-09-08T09:01:13Z</time>
      </trkpt>
      <trkpt lat="46.58062" lon="4.91211">
        <ele>181.35</ele>
        <time>2012-09-08T09:01:29Z</time>
      </trkpt>
      <trkpt lat="46.5808" lon="4.91216">
        <ele>181.35</ele>
        <time>2012-09-08T09:01:39Z</time>
      </trkpt>
      <trkpt lat="46.58081" lon="4.91216">
        <ele>180.87</ele>
        <time>2012-09-08T09:02:06Z</time>
      </trkpt>
      <trkpt lat="46.58081" lon="4.91214">
        <ele>181.35</ele>
        <time>2012-09-08T09:02:22Z</time>
      </trkpt>
      <trkpt lat="46.58082" lon="4.91214">
        <ele>180.87</ele>
        <time>2012-09-08T09:02:51Z</time>
      </trkpt>
      <trkpt lat="46.58083" lon="4.91214">
        <ele>180.87</ele>
        <time>2012-09-08T09:03:27Z</time>
      </trkpt>
      <trkpt lat="46.58084" lon="4.91215">
        <ele>180.87</ele>
        <time>2012-09-08T09:03:34Z</time>
      </trkpt>
      <trkpt lat="46.58085" lon="4.91215">
        <ele>180.87</ele>
        <time>2012-09-08T09:03:35Z</time>
      </trkpt>
      <trkpt lat="46.58087" lon="4.91216">
        <ele>180.87</ele>
        <time>2012-09-08T09:03:36Z</time>
      </trkpt>
      <trkpt lat="46.58089" lon="4.91217">
        <ele>180.87</ele>
        <time>2012-09-08T09:03:37Z</time>
      </trkpt>
      <trkpt lat="46.58091" lon="4.91218">
        <ele>180.87</ele>
        <time>2012-09-08T09:03:38Z</time>
      </trkpt>
      <trkpt lat="46.58093" lon="4.91219">
        <ele>180.87</ele>
        <time>2012-09-08T09:03:39Z</time>
      </trkpt>
      <trkpt lat="46.58095" lon="4.91221">
        <ele>180.87</ele>
        <time>2012-09-08T09:03:40Z</time>
      </trkpt>
      <trkpt lat="46.58135" lon="4.91238">
        <ele>180.38</ele>
        <time>2012-09-08T09:03:54Z</time>
      </trkpt>
      <trkpt lat="46.58181" lon="4.91263">
        <ele>180.38</ele>
        <time>2012-09-08T09:04:06Z</time>
      </trkpt>
      <trkpt lat="46.5826" lon="4.91305">
        <ele>180.38</ele>
        <time>2012-09-08T09:04:25Z</time>
      </trkpt>
      <trkpt lat="46.58301" lon="4.91331">
        <ele>180.38</ele>
        <time>2012-09-08T09:04:35Z</time>
      </trkpt>
      <trkpt lat="46.58369" lon="4.91378">
        <ele>180.38</ele>
        <time>2012-09-08T09:04:51Z</time>
      </trkpt>
      <trkpt lat="46.58457" lon="4.91441">
        <ele>180.38</ele>
        <time>2012-09-08T09:05:12Z</time>
      </trkpt>
      <trkpt lat="46.58517" lon="4.91477">
        <ele>180.38</ele>
        <time>2012-09-08T09:05:27Z</time>
      </trkpt>
      <trkpt lat="46.58552" lon="4.91503">
        <ele>180.38</ele>
        <time>2012-09-08T09:05:40Z</time>
      </trkpt>
      <trkpt lat="46.58619" lon="4.91545">
        <ele>180.38</ele>
        <time>2012-09-08T09:05:57Z</time>
      </trkpt>
      <trkpt lat="46.58698" lon="4.91613">
        <ele>180.38</ele>
        <time>2012-09-08T09:06:17Z</time>
      </trkpt>
      <trkpt lat="46.58754" lon="4.91674">
        <ele>179.9</ele>
        <time>2012-09-08T09:06:32Z</time>
      </trkpt>
      <trkpt lat="46.58835" lon="4.91761">
        <ele>179.9</ele>
        <time>2012-09-08T09:06:54Z</time>
      </trkpt>
      <trkpt lat="46.5889" lon="4.9182">
        <ele>179.9</ele>
        <time>2012-09-08T09:07:09Z</time>
      </trkpt>
      <trkpt lat="46.58938" lon="4.91866">
        <ele>179.9</ele>
        <time>2012-09-08T09:07:22Z</time>
      </trkpt>
      <trkpt lat="46.58941" lon="4.9187">
        <ele>179.9</ele>
        <time>2012-09-08T09:07:23Z</time>
      </trkpt>
      <trkpt lat="46.58951" lon="4.91883">
        <ele>179.9</ele>
        <time>2012-09-08T09:07:26Z</time>
      </trkpt>
      <trkpt lat="46.58998" lon="4.91959">
        <ele>179.9</ele>
        <time>2012-09-08T09:07:42Z</time>
      </trkpt>
      <trkpt lat="46.5904" lon="4.92038">
        <ele>179.9</ele>
        <time>2012-09-08T09:07:58Z</time>
      </trkpt>
      <trkpt lat="46.59052" lon="4.92055">
        <ele>179.9</ele>
        <time>2012-09-08T09:08:02Z</time>
      </trkpt>
      <trkpt lat="46.59055" lon="4.92059">
        <ele>179.9</ele>
        <time>2012-09-08T09:08:03Z</time>
      </trkpt>
      <trkpt lat="46.59058" lon="4.92063">
        <ele>179.9</ele>
        <time>2012-09-08T09:08:04Z</time>
      </trkpt>
      <trkpt lat="46.59094" lon="4.92115">
        <ele>179.9</ele>
        <time>2012-09-08T09:08:16Z</time>
      </trkpt>
      <trkpt lat="46.59098" lon="4.9212">
        <ele>179.9</ele>
        <time>2012-09-08T09:08:17Z</time>
      </trkpt>
      <trkpt lat="46.59101" lon="4.92124">
        <ele>179.9</ele>
        <time>2012-09-08T09:08:18Z</time>
      </trkpt>
      <trkpt lat="46.59114" lon="4.92137">
        <ele>179.9</ele>
        <time>2012-09-08T09:08:21Z</time>
      </trkpt>
      <trkpt lat="46.59117" lon="4.92142">
        <ele>179.9</ele>
        <time>2012-09-08T09:08:22Z</time>
      </trkpt>
      <trkpt lat="46.59121" lon="4.92146">
        <ele>179.9</ele>
        <time>2012-09-08T09:08:23Z</time>
      </trkpt>
      <trkpt lat="46.59162" lon="4.922">
        <ele>179.9</ele>
        <time>2012-09-08T09:08:36Z</time>
      </trkpt>
      <trkpt lat="46.59206" lon="4.92258">
        <ele>180.38</ele>
        <time>2012-09-08T09:08:50Z</time>
      </trkpt>
      <trkpt lat="46.5925" lon="4.92306">
        <ele>180.38</ele>
        <time>2012-09-08T09:09:03Z</time>
      </trkpt>
      <trkpt lat="46.59258" lon="4.92313">
        <ele>180.38</ele>
        <time>2012-09-08T09:09:05Z</time>
      </trkpt>
      <trkpt lat="46.593" lon="4.92359">
        <ele>180.38</ele>
        <time>2012-09-08T09:09:18Z</time>
      </trkpt>
      <trkpt lat="46.59331" lon="4.92391">
        <ele>180.38</ele>
        <time>2012-09-08T09:09:28Z</time>
      </trkpt>
      <trkpt lat="46.59335" lon="4.92395">
        <ele>179.9</ele>
        <time>2012-09-08T09:09:29Z</time>
      </trkpt>
      <trkpt lat="46.59383" lon="4.92446">
        <ele>179.9</ele>
        <time>2012-09-08T09:09:43Z</time>
      </trkpt>
      <trkpt lat="46.59418" lon="4.92478">
        <ele>179.9</ele>
        <time>2012-09-08T09:09:52Z</time>
      </trkpt>
      <trkpt lat="46.59421" lon="4.92483">
        <ele>179.9</ele>
        <time>2012-09-08T09:09:53Z</time>
      </trkpt>
      <trkpt lat="46.59473" lon="4.92552">
        <ele>179.42</ele>
        <time>2012-09-08T09:10:09Z</time>
      </trkpt>
      <trkpt lat="46.59523" lon="4.92607">
        <ele>179.42</ele>
        <time>2012-09-08T09:10:23Z</time>
      </trkpt>
      <trkpt lat="46.59527" lon="4.92611">
        <ele>179.42</ele>
        <time>2012-09-08T09:10:24Z</time>
      </trkpt>
      <trkpt lat="46.59574" lon="4.92659">
        <ele>179.42</ele>
        <time>2012-09-08T09:10:37Z</time>
      </trkpt>
      <trkpt lat="46.59592" lon="4.92671">
        <ele>179.42</ele>
        <time>2012-09-08T09:10:42Z</time>
      </trkpt>
      <trkpt lat="46.59596" lon="4.92673">
        <ele>179.9</ele>
        <time>2012-09-08T09:10:43Z</time>
      </trkpt>
      <trkpt lat="46.59645" lon="4.92705">
        <ele>179.9</ele>
        <time>2012-09-08T09:10:56Z</time>
      </trkpt>
      <trkpt lat="46.59698" lon="4.92736">
        <ele>179.9</ele>
        <time>2012-09-08T09:11:10Z</time>
      </trkpt>
      <trkpt lat="46.59761" lon="4.92777">
        <ele>179.42</ele>
        <time>2012-09-08T09:11:26Z</time>
      </trkpt>
      <trkpt lat="46.59813" lon="4.92811">
        <ele>179.42</ele>
        <time>2012-09-08T09:11:39Z</time>
      </trkpt>
      <trkpt lat="46.59817" lon="4.92813">
        <ele>179.42</ele>
        <time>2012-09-08T09:11:40Z</time>
      </trkpt>
      <trkpt lat="46.59821" lon="4.92815">
        <ele>179.42</ele>
        <time>2012-09-08T09:11:41Z</time>
      </trkpt>
      <trkpt lat="46.59852" lon="4.92827">
        <ele>179.42</ele>
        <time>2012-09-08T09:11:48Z</time>
      </trkpt>
      <trkpt lat="46.59887" lon="4.92836">
        <ele>179.42</ele>
        <time>2012-09-08T09:11:56Z</time>
      </trkpt>
      <trkpt lat="46.59926" lon="4.92838">
        <ele>179.42</ele>
        <time>2012-09-08T09:12:09Z</time>
      </trkpt>
      <trkpt lat="46.59929" lon="4.92838">
        <ele>179.42</ele>
        <time>2012-09-08T09:12:21Z</time>
      </trkpt>
      <trkpt lat="46.5993" lon="4.92837">
        <ele>179.42</ele>
        <time>2012-09-08T09:12:54Z</time>
      </trkpt>
      <trkpt lat="46.5993" lon="4.92837">
        <ele>179.42</ele>
        <time>2012-09-08T09:13:10Z</time>
      </trkpt>
      <trkpt lat="46.59928" lon="4.92837">
        <ele>179.42</ele>
        <time>2012-09-08T09:13:29Z</time>
      </trkpt>
      <trkpt lat="46.59931" lon="4.9284">
        <ele>179.42</ele>
        <time>2012-09-08T09:13:48Z</time>
      </trkpt>
      <trkpt lat="46.59966" lon="4.92873">
        <ele>178.94</ele>
        <time>2012-09-08T09:13:59Z</time>
      </trkpt>
      <trkpt lat="46.60036" lon="4.9294">
        <ele>178.94</ele>
        <time>2012-09-08T09:14:17Z</time>
      </trkpt>
      <trkpt lat="46.60045" lon="4.92948">
        <ele>178.94</ele>
        <time>2012-09-08T09:14:19Z</time>
      </trkpt>
      <trkpt lat="46.60049" lon="4.92951">
        <ele>178.94</ele>
        <time>2012-09-08T09:14:20Z</time>
      </trkpt>
      <trkpt lat="46.60053" lon="4.92953">
        <ele>178.46</ele>
        <time>2012-09-08T09:14:21Z</time>
      </trkpt>
      <trkpt lat="46.60057" lon="4.92954">
        <ele>178.94</ele>
        <time>2012-09-08T09:14:22Z</time>
      </trkpt>
      <trkpt lat="46.60061" lon="4.92956">
        <ele>178.46</ele>
        <time>2012-09-08T09:14:23Z</time>
      </trkpt>
      <trkpt lat="46.60064" lon="4.92957">
        <ele>178.94</ele>
        <time>2012-09-08T09:14:24Z</time>
      </trkpt>
      <trkpt lat="46.60075" lon="4.92961">
        <ele>178.94</ele>
        <time>2012-09-08T09:14:34Z</time>
      </trkpt>
      <trkpt lat="46.60076" lon="4.92962">
        <ele>178.94</ele>
        <time>2012-09-08T09:14:59Z</time>
      </trkpt>
      <trkpt lat="46.60075" lon="4.92963">
        <ele>178.94</ele>
        <time>2012-09-08T09:15:15Z</time>
      </trkpt>
      <trkpt lat="46.60075" lon="4.92967">
        <ele>178.94</ele>
        <time>2012-09-08T09:15:30Z</time>
      </trkpt>
      <trkpt lat="46.60077" lon="4.92968">
        <ele>178.94</ele>
        <time>2012-09-08T09:15:53Z</time>
      </trkpt>
      <trkpt lat="46.60079" lon="4.92971">
        <ele>178.94</ele>
        <time>2012-09-08T09:16:18Z</time>
      </trkpt>
      <trkpt lat="46.60082" lon="4.92974">
        <ele>178.94</ele>
        <time>2012-09-08T09:16:35Z</time>
      </trkpt>
      <trkpt lat="46.60082" lon="4.92974">
        <ele>178.94</ele>
        <time>2012-09-08T09:16:37Z</time>
      </trkpt>
      <trkpt lat="46.6008" lon="4.92973">
        <ele>178.94</ele>
        <time>2012-09-08T09:16:49Z</time>
      </trkpt>
      <trkpt lat="46.60082" lon="4.92972">
        <ele>178.94</ele>
        <time>2012-09-08T09:17:30Z</time>
      </trkpt>
      <trkpt lat="46.60082" lon="4.92973">
        <ele>178.94</ele>
        <time>2012-09-08T09:18:10Z</time>
      </trkpt>
      <trkpt lat="46.60081" lon="4.92972">
        <ele>178.94</ele>
        <time>2012-09-08T09:18:51Z</time>
      </trkpt>
      <trkpt lat="46.60082" lon="4.92973">
        <ele>178.94</ele>
        <time>2012-09-08T09:18:54Z</time>
      </trkpt>
      <trkpt lat="46.60085" lon="4.92975">
        <ele>178.94</ele>
        <time>2012-09-08T09:18:56Z</time>
      </trkpt>
      <trkpt lat="46.60086" lon="4.92977">
        <ele>178.94</ele>
        <time>2012-09-08T09:18:57Z</time>
      </trkpt>
      <trkpt lat="46.60088" lon="4.92978">
        <ele>178.94</ele>
        <time>2012-09-08T09:18:58Z</time>
      </trkpt>
      <trkpt lat="46.6009" lon="4.9298">
        <ele>178.94</ele>
        <time>2012-09-08T09:18:59Z</time>
      </trkpt>
      <trkpt lat="46.60092" lon="4.92982">
        <ele>178.94</ele>
        <time>2012-09-08T09:19:00Z</time>
      </trkpt>
      <trkpt lat="46.60094" lon="4.92983">
        <ele>178.94</ele>
        <time>2012-09-08T09:19:01Z</time>
      </trkpt>
      <trkpt lat="46.60135" lon="4.93013">
        <ele>178.94</ele>
        <time>2012-09-08T09:19:15Z</time>
      </trkpt>
      <trkpt lat="46.60185" lon="4.9305">
        <ele>179.42</ele>
        <time>2012-09-08T09:19:31Z</time>
      </trkpt>
      <trkpt lat="46.60223" lon="4.93079">
        <ele>179.42</ele>
        <time>2012-09-08T09:19:44Z</time>
      </trkpt>
      <trkpt lat="46.60256" lon="4.9311">
        <ele>179.42</ele>
        <time>2012-09-08T09:19:56Z</time>
      </trkpt>
      <trkpt lat="46.6031" lon="4.93162">
        <ele>179.42</ele>
        <time>2012-09-08T09:20:12Z</time>
      </trkpt>
      <trkpt lat="46.60367" lon="4.93225">
        <ele>178.94</ele>
        <time>2012-09-08T09:20:28Z</time>
      </trkpt>
      <trkpt lat="46.60404" lon="4.93266">
        <ele>178.94</ele>
        <time>2012-09-08T09:20:39Z</time>
      </trkpt>
      <trkpt lat="46.60407" lon="4.9327">
        <ele>178.94</ele>
        <time>2012-09-08T09:20:40Z</time>
      </trkpt>
      <trkpt lat="46.60465" lon="4.93338">
        <ele>178.94</ele>
        <time>2012-09-08T09:20:58Z</time>
      </trkpt>
      <trkpt lat="46.60528" lon="4.93406">
        <ele>178.94</ele>
        <time>2012-09-08T09:21:18Z</time>
      </trkpt>
      <trkpt lat="46.60589" lon="4.9347">
        <ele>178.94</ele>
        <time>2012-09-08T09:21:37Z</time>
      </trkpt>
      <trkpt lat="46.60645" lon="4.93531">
        <ele>178.94</ele>
        <time>2012-09-08T09:21:55Z</time>
      </trkpt>
      <trkpt lat="46.60715" lon="4.93607">
        <ele>178.94</ele>
        <time>2012-09-08T09:22:17Z</time>
      </trkpt>
      <trkpt lat="46.6077" lon="4.93672">
        <ele>178.94</ele>
        <time>2012-09-08T09:22:36Z</time>
      </trkpt>
      <trkpt lat="46.60802" lon="4.93705">
        <ele>179.42</ele>
        <time>2012-09-08T09:22:49Z</time>
      </trkpt>
      <trkpt lat="46.60842" lon="4.93744">
        <ele>179.42</ele>
        <time>2012-09-08T09:23:03Z</time>
      </trkpt>
      <trkpt lat="46.60879" lon="4.93778">
        <ele>179.42</ele>
        <time>2012-09-08T09:23:15Z</time>
      </trkpt>
      <trkpt lat="46.60936" lon="4.93827">
        <ele>179.42</ele>
        <time>2012-09-08T09:23:32Z</time>
      </trkpt>
      <trkpt lat="46.60988" lon="4.93872">
        <ele>178.94</ele>
        <time>2012-09-08T09:23:47Z</time>
      </trkpt>
      <trkpt lat="46.61021" lon="4.9389">
        <ele>179.42</ele>
        <time>2012-09-08T09:23:58Z</time>
      </trkpt>
      <trkpt lat="46.61055" lon="4.9392">
        <ele>179.9</ele>
        <time>2012-09-08T09:24:10Z</time>
      </trkpt>
      <trkpt lat="46.61105" lon="4.93961">
        <ele>179.42</ele>
        <time>2012-09-08T09:24:24Z</time>
      </trkpt>
      <trkpt lat="46.61145" lon="4.93994">
        <ele>179.42</ele>
        <time>2012-09-08T09:24:36Z</time>
      </trkpt>
      <trkpt lat="46.61197" lon="4.94035">
        <ele>179.42</ele>
        <time>2012-09-08T09:24:50Z</time>
      </trkpt>
      <trkpt lat="46.61253" lon="4.94076">
        <ele>178.94</ele>
        <time>2012-09-08T09:25:05Z</time>
      </trkpt>
      <trkpt lat="46.61306" lon="4.94106">
        <ele>179.42</ele>
        <time>2012-09-08T09:25:19Z</time>
      </trkpt>
      <trkpt lat="46.61363" lon="4.94135">
        <ele>178.94</ele>
        <time>2012-09-08T09:25:33Z</time>
      </trkpt>
      <trkpt lat="46.61436" lon="4.94153">
        <ele>178.46</ele>
        <time>2012-09-08T09:25:52Z</time>
      </trkpt>
      <trkpt lat="46.6147" lon="4.94158">
        <ele>178.94</ele>
        <time>2012-09-08T09:26:06Z</time>
      </trkpt>
      <trkpt lat="46.61472" lon="4.94159">
        <ele>178.94</ele>
        <time>2012-09-08T09:26:07Z</time>
      </trkpt>
      <trkpt lat="46.61474" lon="4.94159">
        <ele>178.94</ele>
        <time>2012-09-08T09:26:08Z</time>
      </trkpt>
      <trkpt lat="46.61522" lon="4.94168">
        <ele>178.94</ele>
        <time>2012-09-08T09:26:24Z</time>
      </trkpt>
      <trkpt lat="46.61579" lon="4.94182">
        <ele>178.94</ele>
        <time>2012-09-08T09:26:40Z</time>
      </trkpt>
      <trkpt lat="46.61616" lon="4.94189">
        <ele>178.94</ele>
        <time>2012-09-08T09:26:49Z</time>
      </trkpt>
      <trkpt lat="46.61624" lon="4.94192">
        <ele>178.94</ele>
        <time>2012-09-08T09:26:51Z</time>
      </trkpt>
      <trkpt lat="46.61691" lon="4.94206">
        <ele>179.42</ele>
        <time>2012-09-08T09:27:07Z</time>
      </trkpt>
      <trkpt lat="46.61716" lon="4.94212">
        <ele>178.94</ele>
        <time>2012-09-08T09:27:13Z</time>
      </trkpt>
      <trkpt lat="46.61724" lon="4.94214">
        <ele>179.42</ele>
        <time>2012-09-08T09:27:15Z</time>
      </trkpt>
      <trkpt lat="46.61728" lon="4.94215">
        <ele>179.42</ele>
        <time>2012-09-08T09:27:16Z</time>
      </trkpt>
      <trkpt lat="46.6176" lon="4.94228">
        <ele>179.42</ele>
        <time>2012-09-08T09:27:24Z</time>
      </trkpt>
      <trkpt lat="46.61819" lon="4.94249">
        <ele>178.94</ele>
        <time>2012-09-08T09:27:39Z</time>
      </trkpt>
      <trkpt lat="46.61873" lon="4.94266">
        <ele>178.46</ele>
        <time>2012-09-08T09:27:53Z</time>
      </trkpt>
      <trkpt lat="46.61907" lon="4.94276">
        <ele>178.46</ele>
        <time>2012-09-08T09:28:04Z</time>
      </trkpt>
      <trkpt lat="46.61949" lon="4.94294">
        <ele>178.46</ele>
        <time>2012-09-08T09:28:18Z</time>
      </trkpt>
      <trkpt lat="46.61992" lon="4.94311">
        <ele>178.46</ele>
        <time>2012-09-08T09:28:29Z</time>
      </trkpt>
      <trkpt lat="46.62072" lon="4.94347">
        <ele>178.46</ele>
        <time>2012-09-08T09:28:49Z</time>
      </trkpt>
      <trkpt lat="46.62126" lon="4.94379">
        <ele>178.46</ele>
        <time>2012-09-08T09:29:04Z</time>
      </trkpt>
      <trkpt lat="46.62147" lon="4.94392">
        <ele>178.46</ele>
        <time>2012-09-08T09:29:15Z</time>
      </trkpt>
      <trkpt lat="46.62146" lon="4.94391">
        <ele>177.98</ele>
        <time>2012-09-08T09:29:43Z</time>
      </trkpt>
      <trkpt lat="46.62145" lon="4.94392">
        <ele>177.98</ele>
        <time>2012-09-08T09:30:22Z</time>
      </trkpt>
      <trkpt lat="46.62146" lon="4.94399">
        <ele>177.98</ele>
        <time>2012-09-08T09:30:43Z</time>
      </trkpt>
      <trkpt lat="46.62171" lon="4.94419">
        <ele>178.46</ele>
        <time>2012-09-08T09:30:56Z</time>
      </trkpt>
      <trkpt lat="46.62204" lon="4.94446">
        <ele>178.46</ele>
        <time>2012-09-08T09:31:08Z</time>
      </trkpt>
      <trkpt lat="46.62241" lon="4.94479">
        <ele>177.98</ele>
        <time>2012-09-08T09:31:20Z</time>
      </trkpt>
      <trkpt lat="46.62294" lon="4.94527">
        <ele>178.46</ele>
        <time>2012-09-08T09:31:38Z</time>
      </trkpt>
      <trkpt lat="46.62328" lon="4.94561">
        <ele>178.46</ele>
        <time>2012-09-08T09:31:50Z</time>
      </trkpt>
      <trkpt lat="46.62365" lon="4.94612">
        <ele>178.46</ele>
        <time>2012-09-08T09:32:04Z</time>
      </trkpt>
      <trkpt lat="46.62398" lon="4.94659">
        <ele>178.46</ele>
        <time>2012-09-08T09:32:17Z</time>
      </trkpt>
      <trkpt lat="46.62432" lon="4.94706">
        <ele>177.98</ele>
        <time>2012-09-08T09:32:30Z</time>
      </trkpt>
      <trkpt lat="46.62469" lon="4.94759">
        <ele>177.98</ele>
        <time>2012-09-08T09:32:44Z</time>
      </trkpt>
      <trkpt lat="46.62495" lon="4.94801">
        <ele>178.46</ele>
        <time>2012-09-08T09:32:55Z</time>
      </trkpt>
      <trkpt lat="46.6253" lon="4.94864">
        <ele>177.98</ele>
        <time>2012-09-08T09:33:09Z</time>
      </trkpt>
      <trkpt lat="46.62568" lon="4.94927">
        <ele>178.46</ele>
        <time>2012-09-08T09:33:24Z</time>
      </trkpt>
      <trkpt lat="46.62596" lon="4.94971">
        <ele>178.46</ele>
        <time>2012-09-08T09:33:36Z</time>
      </trkpt>
      <trkpt lat="46.62624" lon="4.95008">
        <ele>177.98</ele>
        <time>2012-09-08T09:33:49Z</time>
      </trkpt>
      <trkpt lat="46.62649" lon="4.95043">
        <ele>177.98</ele>
        <time>2012-09-08T09:34:01Z</time>
      </trkpt>
      <trkpt lat="46.62675" lon="4.95077">
        <ele>177.98</ele>
        <time>2012-09-08T09:34:14Z</time>
      </trkpt>
      <trkpt lat="46.62704" lon="4.95108">
        <ele>178.46</ele>
        <time>2012-09-08T09:34:26Z</time>
      </trkpt>
      <trkpt lat="46.62739" lon="4.95143">
        <ele>177.98</ele>
        <time>2012-09-08T09:34:40Z</time>
      </trkpt>
      <trkpt lat="46.62767" lon="4.95169">
        <ele>178.46</ele>
        <time>2012-09-08T09:34:52Z</time>
      </trkpt>
      <trkpt lat="46.628" lon="4.95199">
        <ele>178.46</ele>
        <time>2012-09-08T09:35:04Z</time>
      </trkpt>
      <trkpt lat="46.62841" lon="4.95228">
        <ele>178.46</ele>
        <time>2012-09-08T09:35:17Z</time>
      </trkpt>
      <trkpt lat="46.62872" lon="4.95249">
        <ele>178.46</ele>
        <time>2012-09-08T09:35:29Z</time>
      </trkpt>
      <trkpt lat="46.62909" lon="4.9527">
        <ele>178.46</ele>
        <time>2012-09-08T09:35:42Z</time>
      </trkpt>
      <trkpt lat="46.6293" lon="4.95272">
        <ele>178.46</ele>
        <time>2012-09-08T09:35:50Z</time>
      </trkpt>
      <trkpt lat="46.62932" lon="4.95272">
        <ele>178.46</ele>
        <time>2012-09-08T09:35:51Z</time>
      </trkpt>
      <trkpt lat="46.62969" lon="4.9529">
        <ele>178.46</ele>
        <time>2012-09-08T09:36:05Z</time>
      </trkpt>
      <trkpt lat="46.63009" lon="4.95306">
        <ele>178.46</ele>
        <time>2012-09-08T09:36:19Z</time>
      </trkpt>
      <trkpt lat="46.63027" lon="4.95316">
        <ele>178.46</ele>
        <time>2012-09-08T09:36:32Z</time>
      </trkpt>
      <trkpt lat="46.63028" lon="4.95315">
        <ele>178.46</ele>
        <time>2012-09-08T09:36:58Z</time>
      </trkpt>
      <trkpt lat="46.63029" lon="4.95317">
        <ele>178.46</ele>
        <time>2012-09-08T09:37:30Z</time>
      </trkpt>
      <trkpt lat="46.63034" lon="4.95325">
        <ele>178.46</ele>
        <time>2012-09-08T09:37:47Z</time>
      </trkpt>
      <trkpt lat="46.63037" lon="4.95322">
        <ele>178.46</ele>
        <time>2012-09-08T09:38:19Z</time>
      </trkpt>
      <trkpt lat="46.63038" lon="4.95321">
        <ele>178.46</ele>
        <time>2012-09-08T09:38:42Z</time>
      </trkpt>
      <trkpt lat="46.63038" lon="4.95322">
        <ele>178.46</ele>
        <time>2012-09-08T09:39:07Z</time>
      </trkpt>
      <trkpt lat="46.63039" lon="4.95322">
        <ele>178.46</ele>
        <time>2012-09-08T09:39:08Z</time>
      </trkpt>
      <trkpt lat="46.63041" lon="4.95323">
        <ele>178.46</ele>
        <time>2012-09-08T09:39:09Z</time>
      </trkpt>
      <trkpt lat="46.63042" lon="4.95324">
        <ele>178.46</ele>
        <time>2012-09-08T09:39:10Z</time>
      </trkpt>
      <trkpt lat="46.63044" lon="4.95325">
        <ele>178.46</ele>
        <time>2012-09-08T09:39:11Z</time>
      </trkpt>
      <trkpt lat="46.63045" lon="4.95326">
        <ele>178.46</ele>
        <time>2012-09-08T09:39:12Z</time>
      </trkpt>
      <trkpt lat="46.63086" lon="4.95349">
        <ele>177.98</ele>
        <time>2012-09-08T09:39:25Z</time>
      </trkpt>
      <trkpt lat="46.63128" lon="4.95368">
        <ele>178.46</ele>
        <time>2012-09-08T09:39:37Z</time>
      </trkpt>
      <trkpt lat="46.63164" lon="4.95383">
        <ele>178.46</ele>
        <time>2012-09-08T09:39:49Z</time>
      </trkpt>
      <trkpt lat="46.63203" lon="4.95397">
        <ele>178.94</ele>
        <time>2012-09-08T09:40:02Z</time>
      </trkpt>
      <trkpt lat="46.6325" lon="4.95413">
        <ele>178.94</ele>
        <time>2012-09-08T09:40:16Z</time>
      </trkpt>
      <trkpt lat="46.63297" lon="4.95422">
        <ele>178.94</ele>
        <time>2012-09-08T09:40:30Z</time>
      </trkpt>
      <trkpt lat="46.63346" lon="4.95424">
        <ele>178.46</ele>
        <time>2012-09-08T09:40:43Z</time>
      </trkpt>
      <trkpt lat="46.63407" lon="4.95423">
        <ele>178.46</ele>
        <time>2012-09-08T09:41:00Z</time>
      </trkpt>
      <trkpt lat="46.63458" lon="4.95423">
        <ele>178.46</ele>
        <time>2012-09-08T09:41:14Z</time>
      </trkpt>
      <trkpt lat="46.63504" lon="4.95427">
        <ele>178.46</ele>
        <time>2012-09-08T09:41:28Z</time>
      </trkpt>
      <trkpt lat="46.63563" lon="4.95431">
        <ele>178.46</ele>
        <time>2012-09-08T09:41:46Z</time>
      </trkpt>
      <trkpt lat="46.63613" lon="4.95422">
        <ele>178.46</ele>
        <time>2012-09-08T09:42:01Z</time>
      </trkpt>
      <trkpt lat="46.63653" lon="4.95423">
        <ele>178.46</ele>
        <time>2012-09-08T09:42:13Z</time>
      </trkpt>
      <trkpt lat="46.63704" lon="4.95436">
        <ele>177.98</ele>
        <time>2012-09-08T09:42:28Z</time>
      </trkpt>
      <trkpt lat="46.63758" lon="4.95435">
        <ele>178.46</ele>
        <time>2012-09-08T09:42:43Z</time>
      </trkpt>
      <trkpt lat="46.63813" lon="4.95433">
        <ele>177.98</ele>
        <time>2012-09-08T09:42:58Z</time>
      </trkpt>
      <trkpt lat="46.63856" lon="4.95428">
        <ele>177.98</ele>
        <time>2012-09-08T09:43:11Z</time>
      </trkpt>
      <trkpt lat="46.63913" lon="4.9541">
        <ele>177.98</ele>
        <time>2012-09-08T09:43:28Z</time>
      </trkpt>
      <trkpt lat="46.63962" lon="4.95394">
        <ele>177.98</ele>
        <time>2012-09-08T09:43:42Z</time>
      </trkpt>
      <trkpt lat="46.64011" lon="4.95369">
        <ele>177.98</ele>
        <time>2012-09-08T09:43:56Z</time>
      </trkpt>
      <trkpt lat="46.64064" lon="4.95344">
        <ele>177.98</ele>
        <time>2012-09-08T09:44:10Z</time>
      </trkpt>
      <trkpt lat="46.64073" lon="4.95342">
        <ele>177.98</ele>
        <time>2012-09-08T09:44:12Z</time>
      </trkpt>
      <trkpt lat="46.64077" lon="4.95342">
        <ele>177.5</ele>
        <time>2012-09-08T09:44:13Z</time>
      </trkpt>
      <trkpt lat="46.64081" lon="4.95341">
        <ele>177.98</ele>
        <time>2012-09-08T09:44:14Z</time>
      </trkpt>
      <trkpt lat="46.64085" lon="4.95341">
        <ele>177.98</ele>
        <time>2012-09-08T09:44:15Z</time>
      </trkpt>
      <trkpt lat="46.64089" lon="4.9534">
        <ele>177.98</ele>
        <time>2012-09-08T09:44:16Z</time>
      </trkpt>
      <trkpt lat="46.64092" lon="4.9534">
        <ele>177.98</ele>
        <time>2012-09-08T09:44:17Z</time>
      </trkpt>
      <trkpt lat="46.64095" lon="4.9534">
        <ele>177.98</ele>
        <time>2012-09-08T09:44:18Z</time>
      </trkpt>
      <trkpt lat="46.64098" lon="4.95339">
        <ele>177.98</ele>
        <time>2012-09-08T09:44:19Z</time>
      </trkpt>
      <trkpt lat="46.64154" lon="4.95338">
        <ele>177.98</ele>
        <time>2012-09-08T09:44:35Z</time>
      </trkpt>
      <trkpt lat="46.64214" lon="4.95332">
        <ele>177.98</ele>
        <time>2012-09-08T09:44:51Z</time>
      </trkpt>
      <trkpt lat="46.64279" lon="4.95322">
        <ele>177.98</ele>
        <time>2012-09-08T09:45:08Z</time>
      </trkpt>
      <trkpt lat="46.64349" lon="4.95318">
        <ele>177.98</ele>
        <time>2012-09-08T09:45:26Z</time>
      </trkpt>
      <trkpt lat="46.64395" lon="4.95318">
        <ele>177.98</ele>
        <time>2012-09-08T09:45:40Z</time>
      </trkpt>
      <trkpt lat="46.64447" lon="4.95321">
        <ele>177.98</ele>
        <time>2012-09-08T09:45:55Z</time>
      </trkpt>
      <trkpt lat="46.64496" lon="4.95331">
        <ele>177.98</ele>
        <time>2012-09-08T09:46:08Z</time>
      </trkpt>
      <trkpt lat="46.64533" lon="4.95343">
        <ele>177.98</ele>
        <time>2012-09-08T09:46:21Z</time>
      </trkpt>
      <trkpt lat="46.64572" lon="4.95359">
        <ele>178.46</ele>
        <time>2012-09-08T09:46:33Z</time>
      </trkpt>
      <trkpt lat="46.6461" lon="4.95367">
        <ele>179.9</ele>
        <time>2012-09-08T09:46:46Z</time>
      </trkpt>
      <trkpt lat="46.64653" lon="4.95365">
        <ele>178.46</ele>
        <time>2012-09-08T09:46:56Z</time>
      </trkpt>
      <trkpt lat="46.64657" lon="4.95364">
        <ele>178.46</ele>
        <time>2012-09-08T09:46:57Z</time>
      </trkpt>
      <trkpt lat="46.64661" lon="4.95364">
        <ele>178.46</ele>
        <time>2012-09-08T09:46:58Z</time>
      </trkpt>
      <trkpt lat="46.64676" lon="4.95359">
        <ele>177.98</ele>
        <time>2012-09-08T09:47:07Z</time>
      </trkpt>
      <trkpt lat="46.64676" lon="4.95359">
        <ele>177.98</ele>
        <time>2012-09-08T09:47:40Z</time>
      </trkpt>
      <trkpt lat="46.64677" lon="4.9536">
        <ele>177.98</ele>
        <time>2012-09-08T09:48:18Z</time>
      </trkpt>
      <trkpt lat="46.64676" lon="4.95359">
        <ele>178.46</ele>
        <time>2012-09-08T09:49:01Z</time>
      </trkpt>
      <trkpt lat="46.64677" lon="4.9536">
        <ele>178.46</ele>
        <time>2012-09-08T09:49:18Z</time>
      </trkpt>
      <trkpt lat="46.64687" lon="4.95359">
        <ele>178.46</ele>
        <time>2012-09-08T09:49:39Z</time>
      </trkpt>
      <trkpt lat="46.64726" lon="4.95352">
        <ele>178.46</ele>
        <time>2012-09-08T09:49:52Z</time>
      </trkpt>
      <trkpt lat="46.64789" lon="4.95346">
        <ele>178.94</ele>
        <time>2012-09-08T09:50:09Z</time>
      </trkpt>
      <trkpt lat="46.64838" lon="4.95343">
        <ele>179.42</ele>
        <time>2012-09-08T09:50:24Z</time>
      </trkpt>
      <trkpt lat="46.64886" lon="4.95339">
        <ele>179.42</ele>
        <time>2012-09-08T09:50:39Z</time>
      </trkpt>
      <trkpt lat="46.64925" lon="4.95337">
        <ele>179.42</ele>
        <time>2012-09-08T09:50:52Z</time>
      </trkpt>
      <trkpt lat="46.64925" lon="4.95337">
        <ele>179.42</ele>
        <time>2012-09-08T09:51:04Z</time>
      </trkpt>
      <trkpt lat="46.64932" lon="4.95336">
        <ele>179.42</ele>
        <time>2012-09-08T09:51:28Z</time>
      </trkpt>
      <trkpt lat="46.64976" lon="4.95331">
        <ele>179.42</ele>
        <time>2012-09-08T09:51:41Z</time>
      </trkpt>
      <trkpt lat="46.65039" lon="4.95323">
        <ele>179.9</ele>
        <time>2012-09-08T09:51:56Z</time>
      </trkpt>
      <trkpt lat="46.65044" lon="4.95323">
        <ele>179.42</ele>
        <time>2012-09-08T09:51:57Z</time>
      </trkpt>
      <trkpt lat="46.65048" lon="4.95323">
        <ele>179.42</ele>
        <time>2012-09-08T09:51:58Z</time>
      </trkpt>
      <trkpt lat="46.65052" lon="4.95323">
        <ele>179.42</ele>
        <time>2012-09-08T09:51:59Z</time>
      </trkpt>
      <trkpt lat="46.65057" lon="4.95322">
        <ele>179.42</ele>
        <time>2012-09-08T09:52:00Z</time>
      </trkpt>
      <trkpt lat="46.65126" lon="4.95298">
        <ele>179.42</ele>
        <time>2012-09-08T09:52:14Z</time>
      </trkpt>
      <trkpt lat="46.65191" lon="4.95293">
        <ele>178.46</ele>
        <time>2012-09-08T09:52:26Z</time>
      </trkpt>
      <trkpt lat="46.65202" lon="4.95294">
        <ele>178.46</ele>
        <time>2012-09-08T09:52:28Z</time>
      </trkpt>
      <trkpt lat="46.65207" lon="4.95295">
        <ele>178.46</ele>
        <time>2012-09-08T09:52:29Z</time>
      </trkpt>
      <trkpt lat="46.6525" lon="4.95307">
        <ele>178.46</ele>
        <time>2012-09-08T09:52:38Z</time>
      </trkpt>
      <trkpt lat="46.65254" lon="4.95309">
        <ele>178.46</ele>
        <time>2012-09-08T09:52:39Z</time>
      </trkpt>
      <trkpt lat="46.65294" lon="4.95316">
        <ele>178.46</ele>
        <time>2012-09-08T09:52:50Z</time>
      </trkpt>
      <trkpt lat="46.65356" lon="4.95317">
        <ele>178.46</ele>
        <time>2012-09-08T09:53:07Z</time>
      </trkpt>
      <trkpt lat="46.65398" lon="4.95323">
        <ele>177.98</ele>
        <time>2012-09-08T09:53:21Z</time>
      </trkpt>
      <trkpt lat="46.65426" lon="4.95316">
        <ele>178.46</ele>
        <time>2012-09-08T09:53:35Z</time>
      </trkpt>
      <trkpt lat="46.65426" lon="4.95315">
        <ele>178.46</ele>
        <time>2012-09-08T09:53:50Z</time>
      </trkpt>
      <trkpt lat="46.65429" lon="4.95314">
        <ele>178.46</ele>
        <time>2012-09-08T09:54:03Z</time>
      </trkpt>
      <trkpt lat="46.6543" lon="4.95314">
        <ele>178.46</ele>
        <time>2012-09-08T09:54:04Z</time>
      </trkpt>
      <trkpt lat="46.65432" lon="4.95314">
        <ele>178.46</ele>
        <time>2012-09-08T09:54:05Z</time>
      </trkpt>
      <trkpt lat="46.65434" lon="4.95314">
        <ele>178.46</ele>
        <time>2012-09-08T09:54:06Z</time>
      </trkpt>
      <trkpt lat="46.65436" lon="4.95314">
        <ele>178.46</ele>
        <time>2012-09-08T09:54:07Z</time>
      </trkpt>
      <trkpt lat="46.65457" lon="4.95311">
        <ele>178.46</ele>
        <time>2012-09-08T09:54:17Z</time>
      </trkpt>
      <trkpt lat="46.65465" lon="4.9531">
        <ele>178.46</ele>
        <time>2012-09-08T09:54:31Z</time>
      </trkpt>
      <trkpt lat="46.65468" lon="4.95312">
        <ele>178.46</ele>
        <time>2012-09-08T09:54:35Z</time>
      </trkpt>
      <trkpt lat="46.65469" lon="4.95312">
        <ele>178.46</ele>
        <time>2012-09-08T09:54:36Z</time>
      </trkpt>
      <trkpt lat="46.65471" lon="4.95311">
        <ele>178.46</ele>
        <time>2012-09-08T09:54:37Z</time>
      </trkpt>
      <trkpt lat="46.65502" lon="4.95305">
        <ele>178.46</ele>
        <time>2012-09-08T09:54:48Z</time>
      </trkpt>
      <trkpt lat="46.65536" lon="4.95298">
        <ele>178.46</ele>
        <time>2012-09-08T09:55:01Z</time>
      </trkpt>
      <trkpt lat="46.65573" lon="4.95291">
        <ele>178.46</ele>
        <time>2012-09-08T09:55:13Z</time>
      </trkpt>
      <trkpt lat="46.6562" lon="4.95262">
        <ele>178.46</ele>
        <time>2012-09-08T09:55:27Z</time>
      </trkpt>
      <trkpt lat="46.65663" lon="4.95232">
        <ele>177.98</ele>
        <time>2012-09-08T09:55:40Z</time>
      </trkpt>
      <trkpt lat="46.65701" lon="4.95209">
        <ele>177.98</ele>
        <time>2012-09-08T09:55:53Z</time>
      </trkpt>
      <trkpt lat="46.65756" lon="4.9519">
        <ele>178.46</ele>
        <time>2012-09-08T09:56:08Z</time>
      </trkpt>
      <trkpt lat="46.65802" lon="4.95167">
        <ele>177.98</ele>
        <time>2012-09-08T09:56:21Z</time>
      </trkpt>
      <trkpt lat="46.65835" lon="4.95141">
        <ele>177.98</ele>
        <time>2012-09-08T09:56:32Z</time>
      </trkpt>
      <trkpt lat="46.65873" lon="4.9512">
        <ele>178.46</ele>
        <time>2012-09-08T09:56:44Z</time>
      </trkpt>
      <trkpt lat="46.65924" lon="4.95093">
        <ele>177.98</ele>
        <time>2012-09-08T09:56:59Z</time>
      </trkpt>
      <trkpt lat="46.65978" lon="4.95062">
        <ele>177.98</ele>
        <time>2012-09-08T09:57:16Z</time>
      </trkpt>
      <trkpt lat="46.66024" lon="4.95034">
        <ele>177.98</ele>
        <time>2012-09-08T09:57:30Z</time>
      </trkpt>
      <trkpt lat="46.66083" lon="4.94994">
        <ele>177.98</ele>
        <time>2012-09-08T09:57:48Z</time>
      </trkpt>
      <trkpt lat="46.66134" lon="4.94967">
        <ele>178.46</ele>
        <time>2012-09-08T09:58:04Z</time>
      </trkpt>
      <trkpt lat="46.66179" lon="4.94938">
        <ele>177.98</ele>
        <time>2012-09-08T09:58:18Z</time>
      </trkpt>
      <trkpt lat="46.66219" lon="4.94918">
        <ele>178.46</ele>
        <time>2012-09-08T09:58:31Z</time>
      </trkpt>
      <trkpt lat="46.66266" lon="4.94887">
        <ele>178.46</ele>
        <time>2012-09-08T09:58:45Z</time>
      </trkpt>
      <trkpt lat="46.66308" lon="4.94863">
        <ele>177.5</ele>
        <time>2012-09-08T09:58:58Z</time>
      </trkpt>
      <trkpt lat="46.66313" lon="4.9486">
        <ele>177.5</ele>
        <time>2012-09-08T09:59:18Z</time>
      </trkpt>
      <trkpt lat="46.66318" lon="4.94858">
        <ele>177.5</ele>
        <time>2012-09-08T09:59:25Z</time>
      </trkpt>
      <trkpt lat="46.66325" lon="4.94853">
        <ele>177.5</ele>
        <time>2012-09-08T09:59:29Z</time>
      </trkpt>
      <trkpt lat="46.66357" lon="4.94835">
        <ele>178.46</ele>
        <time>2012-09-08T09:59:43Z</time>
      </trkpt>
      <trkpt lat="46.66384" lon="4.94832">
        <ele>177.98</ele>
        <time>2012-09-08T09:59:54Z</time>
      </trkpt>
      <trkpt lat="46.66425" lon="4.94828">
        <ele>177.98</ele>
        <time>2012-09-08T10:00:05Z</time>
      </trkpt>
      <trkpt lat="46.66477" lon="4.94824">
        <ele>177.5</ele>
        <time>2012-09-08T10:00:19Z</time>
      </trkpt>
      <trkpt lat="46.66521" lon="4.94818">
        <ele>177.98</ele>
        <time>2012-09-08T10:00:32Z</time>
      </trkpt>
      <trkpt lat="46.66566" lon="4.94809">
        <ele>177.98</ele>
        <time>2012-09-08T10:00:45Z</time>
      </trkpt>
      <trkpt lat="46.6662" lon="4.94803">
        <ele>177.98</ele>
        <time>2012-09-08T10:00:59Z</time>
      </trkpt>
      <trkpt lat="46.66674" lon="4.94796">
        <ele>177.98</ele>
        <time>2012-09-08T10:01:13Z</time>
      </trkpt>
      <trkpt lat="46.66721" lon="4.9479">
        <ele>177.5</ele>
        <time>2012-09-08T10:01:27Z</time>
      </trkpt>
      <trkpt lat="46.66763" lon="4.9479">
        <ele>177.98</ele>
        <time>2012-09-08T10:01:40Z</time>
      </trkpt>
      <trkpt lat="46.66812" lon="4.94802">
        <ele>177.98</ele>
        <time>2012-09-08T10:01:55Z</time>
      </trkpt>
      <trkpt lat="46.66846" lon="4.94784">
        <ele>177.98</ele>
        <time>2012-09-08T10:02:06Z</time>
      </trkpt>
      <trkpt lat="46.66889" lon="4.94776">
        <ele>177.98</ele>
        <time>2012-09-08T10:02:20Z</time>
      </trkpt>
      <trkpt lat="46.66899" lon="4.94773">
        <ele>177.5</ele>
        <time>2012-09-08T10:02:24Z</time>
      </trkpt>
      <trkpt lat="46.66954" lon="4.94768">
        <ele>177.98</ele>
        <time>2012-09-08T10:02:40Z</time>
      </trkpt>
      <trkpt lat="46.66991" lon="4.94764">
        <ele>177.5</ele>
        <time>2012-09-08T10:02:51Z</time>
      </trkpt>
      <trkpt lat="46.67037" lon="4.94757">
        <ele>177.5</ele>
        <time>2012-09-08T10:03:04Z</time>
      </trkpt>
      <trkpt lat="46.67086" lon="4.94751">
        <ele>177.98</ele>
        <time>2012-09-08T10:03:16Z</time>
      </trkpt>
      <trkpt lat="46.67136" lon="4.94738">
        <ele>177.98</ele>
        <time>2012-09-08T10:03:29Z</time>
      </trkpt>
      <trkpt lat="46.67179" lon="4.94738">
        <ele>177.98</ele>
        <time>2012-09-08T10:03:43Z</time>
      </trkpt>
      <trkpt lat="46.67181" lon="4.94737">
        <ele>177.5</ele>
        <time>2012-09-08T10:03:49Z</time>
      </trkpt>
      <trkpt lat="46.67183" lon="4.94737">
        <ele>177.5</ele>
        <time>2012-09-08T10:03:50Z</time>
      </trkpt>
      <trkpt lat="46.67186" lon="4.94736">
        <ele>177.5</ele>
        <time>2012-09-08T10:03:52Z</time>
      </trkpt>
      <trkpt lat="46.67187" lon="4.94735">
        <ele>177.5</ele>
        <time>2012-09-08T10:03:53Z</time>
      </trkpt>
      <trkpt lat="46.67212" lon="4.9473">
        <ele>177.5</ele>
        <time>2012-09-08T10:04:10Z</time>
      </trkpt>
      <trkpt lat="46.6722" lon="4.9473">
        <ele>177.5</ele>
        <time>2012-09-08T10:04:27Z</time>
      </trkpt>
      <trkpt lat="46.6722" lon="4.94731">
        <ele>177.02</ele>
        <time>2012-09-08T10:05:10Z</time>
      </trkpt>
      <trkpt lat="46.6722" lon="4.9473">
        <ele>177.5</ele>
        <time>2012-09-08T10:05:47Z</time>
      </trkpt>
      <trkpt lat="46.6722" lon="4.9473">
        <ele>177.5</ele>
        <time>2012-09-08T10:06:18Z</time>
      </trkpt>
      <trkpt lat="46.6722" lon="4.9473">
        <ele>177.5</ele>
        <time>2012-09-08T10:06:47Z</time>
      </trkpt>
      <trkpt lat="46.6722" lon="4.94729">
        <ele>177.5</ele>
        <time>2012-09-08T10:07:10Z</time>
      </trkpt>
      <trkpt lat="46.6722" lon="4.9473">
        <ele>177.5</ele>
        <time>2012-09-08T10:07:44Z</time>
      </trkpt>
      <trkpt lat="46.67222" lon="4.9473">
        <ele>177.5</ele>
        <time>2012-09-08T10:07:45Z</time>
      </trkpt>
      <trkpt lat="46.67223" lon="4.9473">
        <ele>177.5</ele>
        <time>2012-09-08T10:07:46Z</time>
      </trkpt>
      <trkpt lat="46.67224" lon="4.94729">
        <ele>177.5</ele>
        <time>2012-09-08T10:07:47Z</time>
      </trkpt>
      <trkpt lat="46.67226" lon="4.94729">
        <ele>177.5</ele>
        <time>2012-09-08T10:07:48Z</time>
      </trkpt>
      <trkpt lat="46.67227" lon="4.94728">
        <ele>177.5</ele>
        <time>2012-09-08T10:07:49Z</time>
      </trkpt>
      <trkpt lat="46.67229" lon="4.94728">
        <ele>177.5</ele>
        <time>2012-09-08T10:07:50Z</time>
      </trkpt>
      <trkpt lat="46.67232" lon="4.94728">
        <ele>177.5</ele>
        <time>2012-09-08T10:07:51Z</time>
      </trkpt>
      <trkpt lat="46.67234" lon="4.94728">
        <ele>177.5</ele>
        <time>2012-09-08T10:07:52Z</time>
      </trkpt>
      <trkpt lat="46.67237" lon="4.94728">
        <ele>177.5</ele>
        <time>2012-09-08T10:07:53Z</time>
      </trkpt>
      <trkpt lat="46.67239" lon="4.94728">
        <ele>177.5</ele>
        <time>2012-09-08T10:07:54Z</time>
      </trkpt>
      <trkpt lat="46.67242" lon="4.94728">
        <ele>177.5</ele>
        <time>2012-09-08T10:07:55Z</time>
      </trkpt>
      <trkpt lat="46.67244" lon="4.94728">
        <ele>177.5</ele>
        <time>2012-09-08T10:07:56Z</time>
      </trkpt>
      <trkpt lat="46.67247" lon="4.94727">
        <ele>177.5</ele>
        <time>2012-09-08T10:07:57Z</time>
      </trkpt>
      <trkpt lat="46.67291" lon="4.94717">
        <ele>177.5</ele>
        <time>2012-09-08T10:08:13Z</time>
      </trkpt>
      <trkpt lat="46.67325" lon="4.94704">
        <ele>177.98</ele>
        <time>2012-09-08T10:08:27Z</time>
      </trkpt>
      <trkpt lat="46.67369" lon="4.94693">
        <ele>177.98</ele>
        <time>2012-09-08T10:08:43Z</time>
      </trkpt>
      <trkpt lat="46.67408" lon="4.94685">
        <ele>177.98</ele>
        <time>2012-09-08T10:08:57Z</time>
      </trkpt>
      <trkpt lat="46.67461" lon="4.94667">
        <ele>177.98</ele>
        <time>2012-09-08T10:09:14Z</time>
      </trkpt>
      <trkpt lat="46.67514" lon="4.94652">
        <ele>177.98</ele>
        <time>2012-09-08T10:09:30Z</time>
      </trkpt>
      <trkpt lat="46.67545" lon="4.94645">
        <ele>177.98</ele>
        <time>2012-09-08T10:09:40Z</time>
      </trkpt>
      <trkpt lat="46.67567" lon="4.94637">
        <ele>177.5</ele>
        <time>2012-09-08T10:09:53Z</time>
      </trkpt>
      <trkpt lat="46.67568" lon="4.94636">
        <ele>177.5</ele>
        <time>2012-09-08T10:10:21Z</time>
      </trkpt>
      <trkpt lat="46.67569" lon="4.94636">
        <ele>177.5</ele>
        <time>2012-09-08T10:10:53Z</time>
      </trkpt>
      <trkpt lat="46.6758" lon="4.94635">
        <ele>177.5</ele>
        <time>2012-09-08T10:11:06Z</time>
      </trkpt>
      <trkpt lat="46.67624" lon="4.94624">
        <ele>177.98</ele>
        <time>2012-09-08T10:11:21Z</time>
      </trkpt>
      <trkpt lat="46.67679" lon="4.9461">
        <ele>177.98</ele>
        <time>2012-09-08T10:11:38Z</time>
      </trkpt>
      <trkpt lat="46.67734" lon="4.94591">
        <ele>177.5</ele>
        <time>2012-09-08T10:11:54Z</time>
      </trkpt>
      <trkpt lat="46.67782" lon="4.94573">
        <ele>177.5</ele>
        <time>2012-09-08T10:12:08Z</time>
      </trkpt>
      <trkpt lat="46.6785" lon="4.94547">
        <ele>177.5</ele>
        <time>2012-09-08T10:12:28Z</time>
      </trkpt>
      <trkpt lat="46.67906" lon="4.94515">
        <ele>177.5</ele>
        <time>2012-09-08T10:12:45Z</time>
      </trkpt>
      <trkpt lat="46.67952" lon="4.94493">
        <ele>177.98</ele>
        <time>2012-09-08T10:13:00Z</time>
      </trkpt>
      <trkpt lat="46.6801" lon="4.94464">
        <ele>177.5</ele>
        <time>2012-09-08T10:13:17Z</time>
      </trkpt>
      <trkpt lat="46.68072" lon="4.94437">
        <ele>177.5</ele>
        <time>2012-09-08T10:13:35Z</time>
      </trkpt>
      <trkpt lat="46.68126" lon="4.9442">
        <ele>177.5</ele>
        <time>2012-09-08T10:13:52Z</time>
      </trkpt>
      <trkpt lat="46.68139" lon="4.94415">
        <ele>177.5</ele>
        <time>2012-09-08T10:14:02Z</time>
      </trkpt>
      <trkpt lat="46.6814" lon="4.94415">
        <ele>177.5</ele>
        <time>2012-09-08T10:14:06Z</time>
      </trkpt>
      <trkpt lat="46.68143" lon="4.94413">
        <ele>177.5</ele>
        <time>2012-09-08T10:14:08Z</time>
      </trkpt>
      <trkpt lat="46.68144" lon="4.94413">
        <ele>177.5</ele>
        <time>2012-09-08T10:14:09Z</time>
      </trkpt>
      <trkpt lat="46.68146" lon="4.94412">
        <ele>177.5</ele>
        <time>2012-09-08T10:14:10Z</time>
      </trkpt>
      <trkpt lat="46.68184" lon="4.94399">
        <ele>177.5</ele>
        <time>2012-09-08T10:14:23Z</time>
      </trkpt>
      <trkpt lat="46.68211" lon="4.94388">
        <ele>177.02</ele>
        <time>2012-09-08T10:14:33Z</time>
      </trkpt>
      <trkpt lat="46.68213" lon="4.94388">
        <ele>177.02</ele>
        <time>2012-09-08T10:14:34Z</time>
      </trkpt>
      <trkpt lat="46.68216" lon="4.94387">
        <ele>177.5</ele>
        <time>2012-09-08T10:14:35Z</time>
      </trkpt>
      <trkpt lat="46.68219" lon="4.94386">
        <ele>177.5</ele>
        <time>2012-09-08T10:14:36Z</time>
      </trkpt>
      <trkpt lat="46.68222" lon="4.94386">
        <ele>177.5</ele>
        <time>2012-09-08T10:14:37Z</time>
      </trkpt>
      <trkpt lat="46.68269" lon="4.9437">
        <ele>177.5</ele>
        <time>2012-09-08T10:14:50Z</time>
      </trkpt>
      <trkpt lat="46.68336" lon="4.94347">
        <ele>177.02</ele>
        <time>2012-09-08T10:15:07Z</time>
      </trkpt>
      <trkpt lat="46.68382" lon="4.94337">
        <ele>177.02</ele>
        <time>2012-09-08T10:15:20Z</time>
      </trkpt>
      <trkpt lat="46.68437" lon="4.94326">
        <ele>177.02</ele>
        <time>2012-09-08T10:15:36Z</time>
      </trkpt>
      <trkpt lat="46.68489" lon="4.94318">
        <ele>177.5</ele>
        <time>2012-09-08T10:15:51Z</time>
      </trkpt>
      <trkpt lat="46.68547" lon="4.94302">
        <ele>177.02</ele>
        <time>2012-09-08T10:16:07Z</time>
      </trkpt>
      <trkpt lat="46.68608" lon="4.94286">
        <ele>177.5</ele>
        <time>2012-09-08T10:16:24Z</time>
      </trkpt>
      <trkpt lat="46.68677" lon="4.94267">
        <ele>177.02</ele>
        <time>2012-09-08T10:16:42Z</time>
      </trkpt>
      <trkpt lat="46.68724" lon="4.94261">
        <ele>177.5</ele>
        <time>2012-09-08T10:16:55Z</time>
      </trkpt>
      <trkpt lat="46.68772" lon="4.94258">
        <ele>177.02</ele>
        <time>2012-09-08T10:17:09Z</time>
      </trkpt>
      <trkpt lat="46.68831" lon="4.94249">
        <ele>177.5</ele>
        <time>2012-09-08T10:17:27Z</time>
      </trkpt>
      <trkpt lat="46.68873" lon="4.94242">
        <ele>177.02</ele>
        <time>2012-09-08T10:17:40Z</time>
      </trkpt>
      <trkpt lat="46.68924" lon="4.94234">
        <ele>177.02</ele>
        <time>2012-09-08T10:17:55Z</time>
      </trkpt>
      <trkpt lat="46.68982" lon="4.94228">
        <ele>177.02</ele>
        <time>2012-09-08T10:18:12Z</time>
      </trkpt>
      <trkpt lat="46.69038" lon="4.94224">
        <ele>177.02</ele>
        <time>2012-09-08T10:18:28Z</time>
      </trkpt>
      <trkpt lat="46.69088" lon="4.94216">
        <ele>177.02</ele>
        <time>2012-09-08T10:18:43Z</time>
      </trkpt>
      <trkpt lat="46.69138" lon="4.94212">
        <ele>177.5</ele>
        <time>2012-09-08T10:18:58Z</time>
      </trkpt>
      <trkpt lat="46.69178" lon="4.94207">
        <ele>177.02</ele>
        <time>2012-09-08T10:19:11Z</time>
      </trkpt>
      <trkpt lat="46.69237" lon="4.9419">
        <ele>177.02</ele>
        <time>2012-09-08T10:19:28Z</time>
      </trkpt>
      <trkpt lat="46.69294" lon="4.94174">
        <ele>177.5</ele>
        <time>2012-09-08T10:19:44Z</time>
      </trkpt>
      <trkpt lat="46.69349" lon="4.94156">
        <ele>177.5</ele>
        <time>2012-09-08T10:20:00Z</time>
      </trkpt>
      <trkpt lat="46.69417" lon="4.94131">
        <ele>177.5</ele>
        <time>2012-09-08T10:20:19Z</time>
      </trkpt>
      <trkpt lat="46.69473" lon="4.94101">
        <ele>177.5</ele>
        <time>2012-09-08T10:20:35Z</time>
      </trkpt>
      <trkpt lat="46.6952" lon="4.9407">
        <ele>177.5</ele>
        <time>2012-09-08T10:20:50Z</time>
      </trkpt>
      <trkpt lat="46.69567" lon="4.9403">
        <ele>177.5</ele>
        <time>2012-09-08T10:21:07Z</time>
      </trkpt>
      <trkpt lat="46.69615" lon="4.93987">
        <ele>177.5</ele>
        <time>2012-09-08T10:21:24Z</time>
      </trkpt>
      <trkpt lat="46.69642" lon="4.93963">
        <ele>177.5</ele>
        <time>2012-09-08T10:21:35Z</time>
      </trkpt>
      <trkpt lat="46.69645" lon="4.93961">
        <ele>177.5</ele>
        <time>2012-09-08T10:21:36Z</time>
      </trkpt>
      <trkpt lat="46.69694" lon="4.93916">
        <ele>177.5</ele>
        <time>2012-09-08T10:21:52Z</time>
      </trkpt>
      <trkpt lat="46.69736" lon="4.93877">
        <ele>177.02</ele>
        <time>2012-09-08T10:22:07Z</time>
      </trkpt>
      <trkpt lat="46.6977" lon="4.93846">
        <ele>177.5</ele>
        <time>2012-09-08T10:22:20Z</time>
      </trkpt>
      <trkpt lat="46.69807" lon="4.93809">
        <ele>177.5</ele>
        <time>2012-09-08T10:22:35Z</time>
      </trkpt>
      <trkpt lat="46.69853" lon="4.93765">
        <ele>177.5</ele>
        <time>2012-09-08T10:22:51Z</time>
      </trkpt>
      <trkpt lat="46.69885" lon="4.93728">
        <ele>177.02</ele>
        <time>2012-09-08T10:23:04Z</time>
      </trkpt>
      <trkpt lat="46.69921" lon="4.93701">
        <ele>177.02</ele>
        <time>2012-09-08T10:23:17Z</time>
      </trkpt>
      <trkpt lat="46.69947" lon="4.93687">
        <ele>177.02</ele>
        <time>2012-09-08T10:23:28Z</time>
      </trkpt>
      <trkpt lat="46.69985" lon="4.93669">
        <ele>177.02</ele>
        <time>2012-09-08T10:23:42Z</time>
      </trkpt>
      <trkpt lat="46.70034" lon="4.93657">
        <ele>177.02</ele>
        <time>2012-09-08T10:23:56Z</time>
      </trkpt>
      <trkpt lat="46.70051" lon="4.93656">
        <ele>177.02</ele>
        <time>2012-09-08T10:24:05Z</time>
      </trkpt>
      <trkpt lat="46.70052" lon="4.93656">
        <ele>177.02</ele>
        <time>2012-09-08T10:24:26Z</time>
      </trkpt>
      <trkpt lat="46.70054" lon="4.93655">
        <ele>177.02</ele>
        <time>2012-09-08T10:24:42Z</time>
      </trkpt>
      <trkpt lat="46.70055" lon="4.93655">
        <ele>177.02</ele>
        <time>2012-09-08T10:24:43Z</time>
      </trkpt>
      <trkpt lat="46.70056" lon="4.93656">
        <ele>177.02</ele>
        <time>2012-09-08T10:24:44Z</time>
      </trkpt>
      <trkpt lat="46.70058" lon="4.93656">
        <ele>177.02</ele>
        <time>2012-09-08T10:24:45Z</time>
      </trkpt>
      <trkpt lat="46.7006" lon="4.93656">
        <ele>177.02</ele>
        <time>2012-09-08T10:24:46Z</time>
      </trkpt>
      <trkpt lat="46.70087" lon="4.93655">
        <ele>177.5</ele>
        <time>2012-09-08T10:24:58Z</time>
      </trkpt>
      <trkpt lat="46.70108" lon="4.93617">
        <ele>177.5</ele>
        <time>2012-09-08T10:25:10Z</time>
      </trkpt>
      <trkpt lat="46.70143" lon="4.93581">
        <ele>177.5</ele>
        <time>2012-09-08T10:25:23Z</time>
      </trkpt>
      <trkpt lat="46.70189" lon="4.9356">
        <ele>177.5</ele>
        <time>2012-09-08T10:25:36Z</time>
      </trkpt>
      <trkpt lat="46.70243" lon="4.93533">
        <ele>177.5</ele>
        <time>2012-09-08T10:25:52Z</time>
      </trkpt>
      <trkpt lat="46.70306" lon="4.93507">
        <ele>177.02</ele>
        <time>2012-09-08T10:26:09Z</time>
      </trkpt>
      <trkpt lat="46.7036" lon="4.93471">
        <ele>177.5</ele>
        <time>2012-09-08T10:26:25Z</time>
      </trkpt>
      <trkpt lat="46.70404" lon="4.93456">
        <ele>177.5</ele>
        <time>2012-09-08T10:26:38Z</time>
      </trkpt>
      <trkpt lat="46.70457" lon="4.93448">
        <ele>177.5</ele>
        <time>2012-09-08T10:26:53Z</time>
      </trkpt>
      <trkpt lat="46.70519" lon="4.93429">
        <ele>177.5</ele>
        <time>2012-09-08T10:27:10Z</time>
      </trkpt>
      <trkpt lat="46.70578" lon="4.93408">
        <ele>177.5</ele>
        <time>2012-09-08T10:27:25Z</time>
      </trkpt>
      <trkpt lat="46.70639" lon="4.93391">
        <ele>177.5</ele>
        <time>2012-09-08T10:27:41Z</time>
      </trkpt>
      <trkpt lat="46.70687" lon="4.9337">
        <ele>177.5</ele>
        <time>2012-09-08T10:27:55Z</time>
      </trkpt>
      <trkpt lat="46.70753" lon="4.93349">
        <ele>177.5</ele>
        <time>2012-09-08T10:28:13Z</time>
      </trkpt>
      <trkpt lat="46.70788" lon="4.93324">
        <ele>177.02</ele>
        <time>2012-09-08T10:28:25Z</time>
      </trkpt>
      <trkpt lat="46.70799" lon="4.9332">
        <ele>177.5</ele>
        <time>2012-09-08T10:28:31Z</time>
      </trkpt>
      <trkpt lat="46.70802" lon="4.93316">
        <ele>177.5</ele>
        <time>2012-09-08T10:28:44Z</time>
      </trkpt>
      <trkpt lat="46.70801" lon="4.93316">
        <ele>177.5</ele>
        <time>2012-09-08T10:28:48Z</time>
      </trkpt>
      <trkpt lat="46.70802" lon="4.93314">
        <ele>177.5</ele>
        <time>2012-09-08T10:28:49Z</time>
      </trkpt>
      <trkpt lat="46.70803" lon="4.93312">
        <ele>177.5</ele>
        <time>2012-09-08T10:28:50Z</time>
      </trkpt>
      <trkpt lat="46.70805" lon="4.93311">
        <ele>177.02</ele>
        <time>2012-09-08T10:28:51Z</time>
      </trkpt>
      <trkpt lat="46.70807" lon="4.9331">
        <ele>177.5</ele>
        <time>2012-09-08T10:28:52Z</time>
      </trkpt>
      <trkpt lat="46.70809" lon="4.93308">
        <ele>177.5</ele>
        <time>2012-09-08T10:28:53Z</time>
      </trkpt>
      <trkpt lat="46.70812" lon="4.93307">
        <ele>177.5</ele>
        <time>2012-09-08T10:28:54Z</time>
      </trkpt>
      <trkpt lat="46.70814" lon="4.93306">
        <ele>177.5</ele>
        <time>2012-09-08T10:28:55Z</time>
      </trkpt>
      <trkpt lat="46.70817" lon="4.93305">
        <ele>177.5</ele>
        <time>2012-09-08T10:28:56Z</time>
      </trkpt>
      <trkpt lat="46.70868" lon="4.93275">
        <ele>177.5</ele>
        <time>2012-09-08T10:29:12Z</time>
      </trkpt>
      <trkpt lat="46.70931" lon="4.93226">
        <ele>177.5</ele>
        <time>2012-09-08T10:29:30Z</time>
      </trkpt>
      <trkpt lat="46.7097" lon="4.93184">
        <ele>177.5</ele>
        <time>2012-09-08T10:29:43Z</time>
      </trkpt>
      <trkpt lat="46.7101" lon="4.93139">
        <ele>177.5</ele>
        <time>2012-09-08T10:29:58Z</time>
      </trkpt>
      <trkpt lat="46.71041" lon="4.93114">
        <ele>177.5</ele>
        <time>2012-09-08T10:30:09Z</time>
      </trkpt>
      <trkpt lat="46.71059" lon="4.93086">
        <ele>177.5</ele>
        <time>2012-09-08T10:30:20Z</time>
      </trkpt>
      <trkpt lat="46.71067" lon="4.93057">
        <ele>177.02</ele>
        <time>2012-09-08T10:30:33Z</time>
      </trkpt>
      <trkpt lat="46.71066" lon="4.93053">
        <ele>177.02</ele>
        <time>2012-09-08T10:30:56Z</time>
      </trkpt>
      <trkpt lat="46.71066" lon="4.93051">
        <ele>177.02</ele>
        <time>2012-09-08T10:30:57Z</time>
      </trkpt>
      <trkpt lat="46.71067" lon="4.93049">
        <ele>177.02</ele>
        <time>2012-09-08T10:30:58Z</time>
      </trkpt>
      <trkpt lat="46.71068" lon="4.93046">
        <ele>177.5</ele>
        <time>2012-09-08T10:30:59Z</time>
      </trkpt>
      <trkpt lat="46.71068" lon="4.93043">
        <ele>177.02</ele>
        <time>2012-09-08T10:31:00Z</time>
      </trkpt>
      <trkpt lat="46.71069" lon="4.93039">
        <ele>177.5</ele>
        <time>2012-09-08T10:31:01Z</time>
      </trkpt>
      <trkpt lat="46.71069" lon="4.93036">
        <ele>177.02</ele>
        <time>2012-09-08T10:31:02Z</time>
      </trkpt>
      <trkpt lat="46.71068" lon="4.93033">
        <ele>177.5</ele>
        <time>2012-09-08T10:31:03Z</time>
      </trkpt>
      <trkpt lat="46.71068" lon="4.93029">
        <ele>177.02</ele>
        <time>2012-09-08T10:31:04Z</time>
      </trkpt>
      <trkpt lat="46.71069" lon="4.93025">
        <ele>177.02</ele>
        <time>2012-09-08T10:31:05Z</time>
      </trkpt>
      <trkpt lat="46.71069" lon="4.93021">
        <ele>177.02</ele>
        <time>2012-09-08T10:31:06Z</time>
      </trkpt>
      <trkpt lat="46.71075" lon="4.93006">
        <ele>177.02</ele>
        <time>2012-09-08T10:31:11Z</time>
      </trkpt>
      <trkpt lat="46.71076" lon="4.93004">
        <ele>177.02</ele>
        <time>2012-09-08T10:31:12Z</time>
      </trkpt>
      <trkpt lat="46.71078" lon="4.93002">
        <ele>177.02</ele>
        <time>2012-09-08T10:31:13Z</time>
      </trkpt>
      <trkpt lat="46.71079" lon="4.93">
        <ele>177.5</ele>
        <time>2012-09-08T10:31:14Z</time>
      </trkpt>
      <trkpt lat="46.71081" lon="4.92997">
        <ele>177.5</ele>
        <time>2012-09-08T10:31:15Z</time>
      </trkpt>
      <trkpt lat="46.71104" lon="4.92956">
        <ele>177.5</ele>
        <time>2012-09-08T10:31:27Z</time>
      </trkpt>
      <trkpt lat="46.71121" lon="4.92899">
        <ele>177.5</ele>
        <time>2012-09-08T10:31:40Z</time>
      </trkpt>
      <trkpt lat="46.71135" lon="4.92855">
        <ele>177.5</ele>
        <time>2012-09-08T10:31:50Z</time>
      </trkpt>
      <trkpt lat="46.71155" lon="4.92819">
        <ele>177.5</ele>
        <time>2012-09-08T10:32:01Z</time>
      </trkpt>
      <trkpt lat="46.71178" lon="4.92769">
        <ele>177.5</ele>
        <time>2012-09-08T10:32:16Z</time>
      </trkpt>
      <trkpt lat="46.71198" lon="4.9274">
        <ele>177.5</ele>
        <time>2012-09-08T10:32:28Z</time>
      </trkpt>
      <trkpt lat="46.71198" lon="4.92739">
        <ele>180.87</ele>
        <time>2012-09-08T10:32:34Z</time>
      </trkpt>
      <trkpt lat="46.71198" lon="4.92739">
        <ele>177.5</ele>
        <time>2012-09-08T10:32:35Z</time>
      </trkpt>
      <trkpt lat="46.71198" lon="4.92738">
        <ele>177.98</ele>
        <time>2012-09-08T10:33:04Z</time>
      </trkpt>
      <trkpt lat="46.71198" lon="4.92739">
        <ele>177.98</ele>
        <time>2012-09-08T10:33:37Z</time>
      </trkpt>
      <trkpt lat="46.71199" lon="4.92738">
        <ele>177.5</ele>
        <time>2012-09-08T10:34:01Z</time>
      </trkpt>
      <trkpt lat="46.71201" lon="4.92734">
        <ele>177.98</ele>
        <time>2012-09-08T10:34:03Z</time>
      </trkpt>
      <trkpt lat="46.71202" lon="4.92732">
        <ele>177.98</ele>
        <time>2012-09-08T10:34:04Z</time>
      </trkpt>
      <trkpt lat="46.71205" lon="4.9273">
        <ele>177.98</ele>
        <time>2012-09-08T10:34:06Z</time>
      </trkpt>
      <trkpt lat="46.71207" lon="4.92728">
        <ele>177.98</ele>
        <time>2012-09-08T10:34:07Z</time>
      </trkpt>
      <trkpt lat="46.71208" lon="4.92725">
        <ele>177.98</ele>
        <time>2012-09-08T10:34:08Z</time>
      </trkpt>
      <trkpt lat="46.7121" lon="4.92722">
        <ele>177.98</ele>
        <time>2012-09-08T10:34:09Z</time>
      </trkpt>
      <trkpt lat="46.71211" lon="4.92719">
        <ele>177.98</ele>
        <time>2012-09-08T10:34:10Z</time>
      </trkpt>
      <trkpt lat="46.71213" lon="4.92716">
        <ele>177.98</ele>
        <time>2012-09-08T10:34:11Z</time>
      </trkpt>
      <trkpt lat="46.71245" lon="4.92665">
        <ele>177.98</ele>
        <time>2012-09-08T10:34:25Z</time>
      </trkpt>
      <trkpt lat="46.71277" lon="4.92618">
        <ele>177.98</ele>
        <time>2012-09-08T10:34:38Z</time>
      </trkpt>
      <trkpt lat="46.71314" lon="4.9258">
        <ele>177.98</ele>
        <time>2012-09-08T10:34:52Z</time>
      </trkpt>
      <trkpt lat="46.71341" lon="4.92545">
        <ele>177.98</ele>
        <time>2012-09-08T10:35:07Z</time>
      </trkpt>
      <trkpt lat="46.71372" lon="4.92504">
        <ele>177.98</ele>
        <time>2012-09-08T10:35:22Z</time>
      </trkpt>
      <trkpt lat="46.71412" lon="4.92454">
        <ele>177.98</ele>
        <time>2012-09-08T10:35:36Z</time>
      </trkpt>
      <trkpt lat="46.71426" lon="4.92437">
        <ele>177.98</ele>
        <time>2012-09-08T10:35:46Z</time>
      </trkpt>
      <trkpt lat="46.71439" lon="4.92421">
        <ele>177.98</ele>
        <time>2012-09-08T10:35:59Z</time>
      </trkpt>
      <trkpt lat="46.71471" lon="4.92379">
        <ele>178.46</ele>
        <time>2012-09-08T10:36:12Z</time>
      </trkpt>
      <trkpt lat="46.71487" lon="4.92353">
        <ele>178.46</ele>
        <time>2012-09-08T10:36:22Z</time>
      </trkpt>
      <trkpt lat="46.71488" lon="4.9235">
        <ele>178.46</ele>
        <time>2012-09-08T10:36:35Z</time>
      </trkpt>
      <trkpt lat="46.71489" lon="4.92351">
        <ele>178.46</ele>
        <time>2012-09-08T10:36:56Z</time>
      </trkpt>
      <trkpt lat="46.71489" lon="4.92351">
        <ele>177.98</ele>
        <time>2012-09-08T10:37:22Z</time>
      </trkpt>
      <trkpt lat="46.71489" lon="4.92351">
        <ele>177.5</ele>
        <time>2012-09-08T10:37:28Z</time>
      </trkpt>
      <trkpt lat="46.71488" lon="4.92344">
        <ele>182.31</ele>
        <time>2012-09-08T11:51:49Z</time>
      </trkpt>
      <trkpt lat="46.71488" lon="4.92346">
        <ele>182.31</ele>
        <time>2012-09-08T11:51:50Z</time>
      </trkpt>
      <trkpt lat="46.71482" lon="4.92345">
        <ele>178.94</ele>
        <time>2012-09-08T11:52:04Z</time>
      </trkpt>
      <trkpt lat="46.71486" lon="4.92349">
        <ele>177.02</ele>
        <time>2012-09-08T11:52:08Z</time>
      </trkpt>
      <trkpt lat="46.71486" lon="4.92344">
        <ele>173.66</ele>
        <time>2012-09-08T11:52:21Z</time>
      </trkpt>
      <trkpt lat="46.71485" lon="4.92343">
        <ele>173.17</ele>
        <time>2012-09-08T11:52:39Z</time>
      </trkpt>
      <trkpt lat="46.71495" lon="4.92323">
        <ele>173.17</ele>
        <time>2012-09-08T11:52:51Z</time>
      </trkpt>
      <trkpt lat="46.71506" lon="4.9229">
        <ele>172.69</ele>
        <time>2012-09-08T11:53:04Z</time>
      </trkpt>
      <trkpt lat="46.71528" lon="4.92233">
        <ele>172.69</ele>
        <time>2012-09-08T11:53:20Z</time>
      </trkpt>
      <trkpt lat="46.71561" lon="4.92172">
        <ele>172.69</ele>
        <time>2012-09-08T11:53:38Z</time>
      </trkpt>
      <trkpt lat="46.71578" lon="4.92118">
        <ele>172.69</ele>
        <time>2012-09-08T11:53:53Z</time>
      </trkpt>
      <trkpt lat="46.71598" lon="4.92043">
        <ele>173.17</ele>
        <time>2012-09-08T11:54:11Z</time>
      </trkpt>
      <trkpt lat="46.71615" lon="4.91972">
        <ele>173.17</ele>
        <time>2012-09-08T11:54:27Z</time>
      </trkpt>
      <trkpt lat="46.71628" lon="4.91913">
        <ele>172.69</ele>
        <time>2012-09-08T11:54:42Z</time>
      </trkpt>
      <trkpt lat="46.71644" lon="4.91834">
        <ele>173.17</ele>
        <time>2012-09-08T11:55:01Z</time>
      </trkpt>
      <trkpt lat="46.71655" lon="4.91778">
        <ele>173.17</ele>
        <time>2012-09-08T11:55:15Z</time>
      </trkpt>
      <trkpt lat="46.71671" lon="4.91713">
        <ele>173.17</ele>
        <time>2012-09-08T11:55:31Z</time>
      </trkpt>
      <trkpt lat="46.71688" lon="4.91643">
        <ele>173.66</ele>
        <time>2012-09-08T11:55:48Z</time>
      </trkpt>
      <trkpt lat="46.71703" lon="4.91584">
        <ele>173.66</ele>
        <time>2012-09-08T11:56:02Z</time>
      </trkpt>
      <trkpt lat="46.7172" lon="4.91522">
        <ele>173.66</ele>
        <time>2012-09-08T11:56:17Z</time>
      </trkpt>
      <trkpt lat="46.71744" lon="4.91446">
        <ele>173.66</ele>
        <time>2012-09-08T11:56:35Z</time>
      </trkpt>
      <trkpt lat="46.71768" lon="4.91372">
        <ele>173.66</ele>
        <time>2012-09-08T11:56:53Z</time>
      </trkpt>
      <trkpt lat="46.71789" lon="4.91309">
        <ele>173.66</ele>
        <time>2012-09-08T11:57:10Z</time>
      </trkpt>
      <trkpt lat="46.71814" lon="4.91244">
        <ele>173.66</ele>
        <time>2012-09-08T11:57:27Z</time>
      </trkpt>
      <trkpt lat="46.71839" lon="4.91188">
        <ele>173.66</ele>
        <time>2012-09-08T11:57:43Z</time>
      </trkpt>
      <trkpt lat="46.71863" lon="4.91127">
        <ele>173.66</ele>
        <time>2012-09-08T11:57:59Z</time>
      </trkpt>
      <trkpt lat="46.71892" lon="4.91065">
        <ele>173.66</ele>
        <time>2012-09-08T11:58:15Z</time>
      </trkpt>
      <trkpt lat="46.71915" lon="4.91022">
        <ele>173.66</ele>
        <time>2012-09-08T11:58:28Z</time>
      </trkpt>
      <trkpt lat="46.71943" lon="4.90982">
        <ele>174.14</ele>
        <time>2012-09-08T11:58:42Z</time>
      </trkpt>
      <trkpt lat="46.71969" lon="4.90946">
        <ele>174.14</ele>
        <time>2012-09-08T11:58:54Z</time>
      </trkpt>
      <trkpt lat="46.72025" lon="4.90893">
        <ele>173.66</ele>
        <time>2012-09-08T11:59:14Z</time>
      </trkpt>
      <trkpt lat="46.72075" lon="4.90856">
        <ele>173.66</ele>
        <time>2012-09-08T11:59:31Z</time>
      </trkpt>
      <trkpt lat="46.72132" lon="4.90823">
        <ele>173.66</ele>
        <time>2012-09-08T11:59:51Z</time>
      </trkpt>
      <trkpt lat="46.7217" lon="4.908">
        <ele>173.66</ele>
        <time>2012-09-08T12:00:05Z</time>
      </trkpt>
      <trkpt lat="46.72218" lon="4.90772">
        <ele>174.14</ele>
        <time>2012-09-08T12:00:24Z</time>
      </trkpt>
      <trkpt lat="46.72258" lon="4.90746">
        <ele>174.14</ele>
        <time>2012-09-08T12:00:41Z</time>
      </trkpt>
      <trkpt lat="46.72296" lon="4.90726">
        <ele>174.14</ele>
        <time>2012-09-08T12:00:56Z</time>
      </trkpt>
      <trkpt lat="46.72343" lon="4.907">
        <ele>174.14</ele>
        <time>2012-09-08T12:01:13Z</time>
      </trkpt>
      <trkpt lat="46.72388" lon="4.90679">
        <ele>174.14</ele>
        <time>2012-09-08T12:01:28Z</time>
      </trkpt>
      <trkpt lat="46.72437" lon="4.90638">
        <ele>174.14</ele>
        <time>2012-09-08T12:01:46Z</time>
      </trkpt>
      <trkpt lat="46.72474" lon="4.90583">
        <ele>174.62</ele>
        <time>2012-09-08T12:02:03Z</time>
      </trkpt>
      <trkpt lat="46.725" lon="4.90528">
        <ele>174.62</ele>
        <time>2012-09-08T12:02:18Z</time>
      </trkpt>
      <trkpt lat="46.72531" lon="4.90479">
        <ele>174.62</ele>
        <time>2012-09-08T12:02:32Z</time>
      </trkpt>
      <trkpt lat="46.72553" lon="4.90435">
        <ele>174.62</ele>
        <time>2012-09-08T12:02:44Z</time>
      </trkpt>
      <trkpt lat="46.72577" lon="4.90384">
        <ele>174.62</ele>
        <time>2012-09-08T12:02:58Z</time>
      </trkpt>
      <trkpt lat="46.72602" lon="4.90342">
        <ele>174.62</ele>
        <time>2012-09-08T12:03:10Z</time>
      </trkpt>
      <trkpt lat="46.72626" lon="4.90294">
        <ele>174.62</ele>
        <time>2012-09-08T12:03:23Z</time>
      </trkpt>
      <trkpt lat="46.72645" lon="4.9026">
        <ele>174.14</ele>
        <time>2012-09-08T12:03:35Z</time>
      </trkpt>
      <trkpt lat="46.72669" lon="4.90244">
        <ele>173.66</ele>
        <time>2012-09-08T12:03:45Z</time>
      </trkpt>
      <trkpt lat="46.72709" lon="4.90204">
        <ele>173.66</ele>
        <time>2012-09-08T12:03:59Z</time>
      </trkpt>
      <trkpt lat="46.72747" lon="4.90178">
        <ele>174.14</ele>
        <time>2012-09-08T12:04:12Z</time>
      </trkpt>
      <trkpt lat="46.72777" lon="4.9015">
        <ele>173.66</ele>
        <time>2012-09-08T12:04:23Z</time>
      </trkpt>
      <trkpt lat="46.72809" lon="4.90129">
        <ele>173.66</ele>
        <time>2012-09-08T12:04:33Z</time>
      </trkpt>
      <trkpt lat="46.72846" lon="4.90106">
        <ele>174.14</ele>
        <time>2012-09-08T12:04:45Z</time>
      </trkpt>
      <trkpt lat="46.72887" lon="4.9008">
        <ele>174.14</ele>
        <time>2012-09-08T12:04:58Z</time>
      </trkpt>
      <trkpt lat="46.72925" lon="4.90055">
        <ele>174.14</ele>
        <time>2012-09-08T12:05:10Z</time>
      </trkpt>
      <trkpt lat="46.72958" lon="4.90024">
        <ele>174.14</ele>
        <time>2012-09-08T12:05:22Z</time>
      </trkpt>
      <trkpt lat="46.72966" lon="4.90011">
        <ele>174.14</ele>
        <time>2012-09-08T12:05:32Z</time>
      </trkpt>
      <trkpt lat="46.72968" lon="4.90011">
        <ele>174.14</ele>
        <time>2012-09-08T12:05:58Z</time>
      </trkpt>
      <trkpt lat="46.72969" lon="4.90011">
        <ele>174.14</ele>
        <time>2012-09-08T12:06:29Z</time>
      </trkpt>
      <trkpt lat="46.7297" lon="4.90011">
        <ele>174.14</ele>
        <time>2012-09-08T12:06:34Z</time>
      </trkpt>
      <trkpt lat="46.72971" lon="4.90008">
        <ele>174.14</ele>
        <time>2012-09-08T12:06:36Z</time>
      </trkpt>
      <trkpt lat="46.72992" lon="4.89971">
        <ele>173.66</ele>
        <time>2012-09-08T12:06:50Z</time>
      </trkpt>
      <trkpt lat="46.73005" lon="4.89928">
        <ele>174.14</ele>
        <time>2012-09-08T12:07:00Z</time>
      </trkpt>
      <trkpt lat="46.73013" lon="4.89912">
        <ele>174.62</ele>
        <time>2012-09-08T12:07:06Z</time>
      </trkpt>
      <trkpt lat="46.73021" lon="4.89889">
        <ele>174.14</ele>
        <time>2012-09-08T12:07:12Z</time>
      </trkpt>
      <trkpt lat="46.73035" lon="4.89839">
        <ele>174.62</ele>
        <time>2012-09-08T12:07:26Z</time>
      </trkpt>
      <trkpt lat="46.73051" lon="4.89767">
        <ele>174.62</ele>
        <time>2012-09-08T12:07:43Z</time>
      </trkpt>
      <trkpt lat="46.73063" lon="4.89706">
        <ele>174.62</ele>
        <time>2012-09-08T12:07:57Z</time>
      </trkpt>
      <trkpt lat="46.73071" lon="4.89627">
        <ele>174.62</ele>
        <time>2012-09-08T12:08:13Z</time>
      </trkpt>
      <trkpt lat="46.73076" lon="4.89543">
        <ele>175.1</ele>
        <time>2012-09-08T12:08:29Z</time>
      </trkpt>
      <trkpt lat="46.73074" lon="4.89451">
        <ele>175.1</ele>
        <time>2012-09-08T12:08:47Z</time>
      </trkpt>
      <trkpt lat="46.73075" lon="4.89368">
        <ele>175.1</ele>
        <time>2012-09-08T12:09:03Z</time>
      </trkpt>
      <trkpt lat="46.73066" lon="4.89304">
        <ele>174.62</ele>
        <time>2012-09-08T12:09:17Z</time>
      </trkpt>
      <trkpt lat="46.73047" lon="4.8923">
        <ele>175.1</ele>
        <time>2012-09-08T12:09:34Z</time>
      </trkpt>
      <trkpt lat="46.73041" lon="4.89182">
        <ele>174.62</ele>
        <time>2012-09-08T12:09:45Z</time>
      </trkpt>
      <trkpt lat="46.73028" lon="4.89112">
        <ele>175.1</ele>
        <time>2012-09-08T12:10:00Z</time>
      </trkpt>
      <trkpt lat="46.73015" lon="4.89041">
        <ele>175.1</ele>
        <time>2012-09-08T12:10:16Z</time>
      </trkpt>
      <trkpt lat="46.73006" lon="4.89">
        <ele>175.58</ele>
        <time>2012-09-08T12:10:27Z</time>
      </trkpt>
      <trkpt lat="46.73003" lon="4.88954">
        <ele>175.58</ele>
        <time>2012-09-08T12:10:37Z</time>
      </trkpt>
      <trkpt lat="46.73007" lon="4.88883">
        <ele>175.58</ele>
        <time>2012-09-08T12:10:52Z</time>
      </trkpt>
      <trkpt lat="46.73016" lon="4.88805">
        <ele>175.58</ele>
        <time>2012-09-08T12:11:08Z</time>
      </trkpt>
      <trkpt lat="46.73026" lon="4.88733">
        <ele>175.1</ele>
        <time>2012-09-08T12:11:23Z</time>
      </trkpt>
      <trkpt lat="46.73041" lon="4.88672">
        <ele>175.58</ele>
        <time>2012-09-08T12:11:37Z</time>
      </trkpt>
      <trkpt lat="46.73055" lon="4.88606">
        <ele>175.58</ele>
        <time>2012-09-08T12:11:50Z</time>
      </trkpt>
      <trkpt lat="46.73079" lon="4.88551">
        <ele>175.58</ele>
        <time>2012-09-08T12:12:04Z</time>
      </trkpt>
      <trkpt lat="46.731" lon="4.88507">
        <ele>175.58</ele>
        <time>2012-09-08T12:12:15Z</time>
      </trkpt>
      <trkpt lat="46.73118" lon="4.88454">
        <ele>175.58</ele>
        <time>2012-09-08T12:12:27Z</time>
      </trkpt>
      <trkpt lat="46.7312" lon="4.88444">
        <ele>176.06</ele>
        <time>2012-09-08T12:12:31Z</time>
      </trkpt>
      <trkpt lat="46.7312" lon="4.88438">
        <ele>176.06</ele>
        <time>2012-09-08T12:12:45Z</time>
      </trkpt>
      <trkpt lat="46.73127" lon="4.88413">
        <ele>176.06</ele>
        <time>2012-09-08T12:13:00Z</time>
      </trkpt>
      <trkpt lat="46.73155" lon="4.88341">
        <ele>176.54</ele>
        <time>2012-09-08T12:13:14Z</time>
      </trkpt>
      <trkpt lat="46.73158" lon="4.88337">
        <ele>176.54</ele>
        <time>2012-09-08T12:13:15Z</time>
      </trkpt>
      <trkpt lat="46.73166" lon="4.88329">
        <ele>176.54</ele>
        <time>2012-09-08T12:13:17Z</time>
      </trkpt>
      <trkpt lat="46.73169" lon="4.88326">
        <ele>176.54</ele>
        <time>2012-09-08T12:13:18Z</time>
      </trkpt>
      <trkpt lat="46.73187" lon="4.88313">
        <ele>176.06</ele>
        <time>2012-09-08T12:13:23Z</time>
      </trkpt>
      <trkpt lat="46.7319" lon="4.8831">
        <ele>176.06</ele>
        <time>2012-09-08T12:13:24Z</time>
      </trkpt>
      <trkpt lat="46.73245" lon="4.88241">
        <ele>176.06</ele>
        <time>2012-09-08T12:13:42Z</time>
      </trkpt>
      <trkpt lat="46.73281" lon="4.88199">
        <ele>176.54</ele>
        <time>2012-09-08T12:13:56Z</time>
      </trkpt>
      <trkpt lat="46.73321" lon="4.88155">
        <ele>176.06</ele>
        <time>2012-09-08T12:14:10Z</time>
      </trkpt>
      <trkpt lat="46.73357" lon="4.88114">
        <ele>176.54</ele>
        <time>2012-09-08T12:14:24Z</time>
      </trkpt>
      <trkpt lat="46.73393" lon="4.88078">
        <ele>176.54</ele>
        <time>2012-09-08T12:14:36Z</time>
      </trkpt>
      <trkpt lat="46.73427" lon="4.88037">
        <ele>176.54</ele>
        <time>2012-09-08T12:14:48Z</time>
      </trkpt>
      <trkpt lat="46.73465" lon="4.88012">
        <ele>176.06</ele>
        <time>2012-09-08T12:15:01Z</time>
      </trkpt>
      <trkpt lat="46.73496" lon="4.87984">
        <ele>176.06</ele>
        <time>2012-09-08T12:15:13Z</time>
      </trkpt>
      <trkpt lat="46.73529" lon="4.87964">
        <ele>176.54</ele>
        <time>2012-09-08T12:15:25Z</time>
      </trkpt>
      <trkpt lat="46.73582" lon="4.87945">
        <ele>176.06</ele>
        <time>2012-09-08T12:15:41Z</time>
      </trkpt>
      <trkpt lat="46.73632" lon="4.87937">
        <ele>176.54</ele>
        <time>2012-09-08T12:15:56Z</time>
      </trkpt>
      <trkpt lat="46.737" lon="4.87936">
        <ele>176.06</ele>
        <time>2012-09-08T12:16:15Z</time>
      </trkpt>
      <trkpt lat="46.73759" lon="4.87949">
        <ele>176.54</ele>
        <time>2012-09-08T12:16:32Z</time>
      </trkpt>
      <trkpt lat="46.73799" lon="4.87973">
        <ele>176.06</ele>
        <time>2012-09-08T12:16:44Z</time>
      </trkpt>
      <trkpt lat="46.73846" lon="4.87997">
        <ele>175.58</ele>
        <time>2012-09-08T12:16:57Z</time>
      </trkpt>
      <trkpt lat="46.73911" lon="4.88023">
        <ele>175.58</ele>
        <time>2012-09-08T12:17:15Z</time>
      </trkpt>
      <trkpt lat="46.73972" lon="4.88051">
        <ele>175.58</ele>
        <time>2012-09-08T12:17:32Z</time>
      </trkpt>
      <trkpt lat="46.7403" lon="4.88084">
        <ele>175.58</ele>
        <time>2012-09-08T12:17:49Z</time>
      </trkpt>
      <trkpt lat="46.74094" lon="4.88115">
        <ele>175.58</ele>
        <time>2012-09-08T12:18:07Z</time>
      </trkpt>
      <trkpt lat="46.74128" lon="4.88114">
        <ele>176.06</ele>
        <time>2012-09-08T12:18:20Z</time>
      </trkpt>
      <trkpt lat="46.7413" lon="4.88114">
        <ele>176.06</ele>
        <time>2012-09-08T12:18:21Z</time>
      </trkpt>
      <trkpt lat="46.74156" lon="4.88135">
        <ele>176.06</ele>
        <time>2012-09-08T12:18:33Z</time>
      </trkpt>
      <trkpt lat="46.74179" lon="4.88162">
        <ele>174.62</ele>
        <time>2012-09-08T12:18:41Z</time>
      </trkpt>
      <trkpt lat="46.74183" lon="4.88165">
        <ele>174.62</ele>
        <time>2012-09-08T12:18:42Z</time>
      </trkpt>
      <trkpt lat="46.74224" lon="4.88182">
        <ele>174.62</ele>
        <time>2012-09-08T12:18:55Z</time>
      </trkpt>
      <trkpt lat="46.74276" lon="4.88199">
        <ele>175.1</ele>
        <time>2012-09-08T12:19:11Z</time>
      </trkpt>
      <trkpt lat="46.74339" lon="4.88215">
        <ele>175.1</ele>
        <time>2012-09-08T12:19:29Z</time>
      </trkpt>
      <trkpt lat="46.74396" lon="4.88231">
        <ele>175.1</ele>
        <time>2012-09-08T12:19:46Z</time>
      </trkpt>
      <trkpt lat="46.74455" lon="4.88239">
        <ele>175.1</ele>
        <time>2012-09-08T12:20:05Z</time>
      </trkpt>
      <trkpt lat="46.74514" lon="4.88238">
        <ele>176.54</ele>
        <time>2012-09-08T12:20:26Z</time>
      </trkpt>
      <trkpt lat="46.74566" lon="4.88239">
        <ele>176.54</ele>
        <time>2012-09-08T12:20:44Z</time>
      </trkpt>
      <trkpt lat="46.74632" lon="4.88233">
        <ele>176.06</ele>
        <time>2012-09-08T12:21:03Z</time>
      </trkpt>
      <trkpt lat="46.74667" lon="4.88224">
        <ele>176.54</ele>
        <time>2012-09-08T12:21:17Z</time>
      </trkpt>
      <trkpt lat="46.74707" lon="4.8821">
        <ele>176.54</ele>
        <time>2012-09-08T12:21:31Z</time>
      </trkpt>
      <trkpt lat="46.74755" lon="4.8819">
        <ele>176.54</ele>
        <time>2012-09-08T12:21:47Z</time>
      </trkpt>
      <trkpt lat="46.74803" lon="4.88161">
        <ele>176.54</ele>
        <time>2012-09-08T12:22:03Z</time>
      </trkpt>
      <trkpt lat="46.74853" lon="4.88128">
        <ele>176.54</ele>
        <time>2012-09-08T12:22:20Z</time>
      </trkpt>
      <trkpt lat="46.74896" lon="4.88105">
        <ele>176.54</ele>
        <time>2012-09-08T12:22:35Z</time>
      </trkpt>
      <trkpt lat="46.74949" lon="4.88076">
        <ele>176.54</ele>
        <time>2012-09-08T12:22:52Z</time>
      </trkpt>
      <trkpt lat="46.75008" lon="4.88035">
        <ele>176.54</ele>
        <time>2012-09-08T12:23:12Z</time>
      </trkpt>
      <trkpt lat="46.75051" lon="4.88009">
        <ele>176.06</ele>
        <time>2012-09-08T12:23:27Z</time>
      </trkpt>
      <trkpt lat="46.75104" lon="4.87975">
        <ele>176.54</ele>
        <time>2012-09-08T12:23:45Z</time>
      </trkpt>
      <trkpt lat="46.75161" lon="4.87939">
        <ele>176.54</ele>
        <time>2012-09-08T12:24:03Z</time>
      </trkpt>
      <trkpt lat="46.75205" lon="4.879">
        <ele>176.54</ele>
        <time>2012-09-08T12:24:18Z</time>
      </trkpt>
      <trkpt lat="46.75244" lon="4.8786">
        <ele>176.54</ele>
        <time>2012-09-08T12:24:33Z</time>
      </trkpt>
      <trkpt lat="46.75291" lon="4.87806">
        <ele>176.54</ele>
        <time>2012-09-08T12:24:51Z</time>
      </trkpt>
      <trkpt lat="46.75331" lon="4.87746">
        <ele>176.54</ele>
        <time>2012-09-08T12:25:08Z</time>
      </trkpt>
      <trkpt lat="46.75365" lon="4.87676">
        <ele>176.06</ele>
        <time>2012-09-08T12:25:25Z</time>
      </trkpt>
      <trkpt lat="46.75378" lon="4.87623">
        <ele>176.06</ele>
        <time>2012-09-08T12:25:38Z</time>
      </trkpt>
      <trkpt lat="46.75393" lon="4.87554">
        <ele>176.06</ele>
        <time>2012-09-08T12:25:54Z</time>
      </trkpt>
      <trkpt lat="46.75403" lon="4.87494">
        <ele>176.54</ele>
        <time>2012-09-08T12:26:07Z</time>
      </trkpt>
      <trkpt lat="46.75416" lon="4.8741">
        <ele>175.58</ele>
        <time>2012-09-08T12:26:23Z</time>
      </trkpt>
      <trkpt lat="46.75422" lon="4.87345">
        <ele>175.58</ele>
        <time>2012-09-08T12:26:36Z</time>
      </trkpt>
      <trkpt lat="46.7543" lon="4.87279">
        <ele>176.06</ele>
        <time>2012-09-08T12:26:51Z</time>
      </trkpt>
      <trkpt lat="46.75433" lon="4.87248">
        <ele>175.58</ele>
        <time>2012-09-08T12:27:02Z</time>
      </trkpt>
      <trkpt lat="46.75437" lon="4.87224">
        <ele>176.06</ele>
        <time>2012-09-08T12:27:11Z</time>
      </trkpt>
      <trkpt lat="46.75441" lon="4.87164">
        <ele>176.06</ele>
        <time>2012-09-08T12:27:26Z</time>
      </trkpt>
      <trkpt lat="46.75461" lon="4.8709">
        <ele>175.58</ele>
        <time>2012-09-08T12:27:43Z</time>
      </trkpt>
      <trkpt lat="46.75464" lon="4.87077">
        <ele>175.58</ele>
        <time>2012-09-08T12:27:54Z</time>
      </trkpt>
      <trkpt lat="46.75464" lon="4.87076">
        <ele>175.58</ele>
        <time>2012-09-08T12:28:14Z</time>
      </trkpt>
      <trkpt lat="46.75464" lon="4.87077">
        <ele>175.58</ele>
        <time>2012-09-08T12:28:53Z</time>
      </trkpt>
      <trkpt lat="46.75464" lon="4.87078">
        <ele>176.06</ele>
        <time>2012-09-08T12:29:26Z</time>
      </trkpt>
      <trkpt lat="46.75464" lon="4.87078">
        <ele>175.58</ele>
        <time>2012-09-08T12:29:52Z</time>
      </trkpt>
      <trkpt lat="46.75469" lon="4.87043">
        <ele>176.06</ele>
        <time>2012-09-08T12:30:04Z</time>
      </trkpt>
      <trkpt lat="46.75472" lon="4.87027">
        <ele>176.06</ele>
        <time>2012-09-08T12:30:16Z</time>
      </trkpt>
      <trkpt lat="46.75472" lon="4.87027">
        <ele>176.06</ele>
        <time>2012-09-08T12:30:46Z</time>
      </trkpt>
      <trkpt lat="46.75474" lon="4.8702">
        <ele>175.58</ele>
        <time>2012-09-08T12:31:16Z</time>
      </trkpt>
      <trkpt lat="46.75485" lon="4.86973">
        <ele>176.06</ele>
        <time>2012-09-08T12:31:30Z</time>
      </trkpt>
      <trkpt lat="46.75505" lon="4.86905">
        <ele>175.58</ele>
        <time>2012-09-08T12:31:46Z</time>
      </trkpt>
      <trkpt lat="46.7553" lon="4.86832">
        <ele>176.06</ele>
        <time>2012-09-08T12:32:03Z</time>
      </trkpt>
      <trkpt lat="46.7556" lon="4.86756">
        <ele>176.06</ele>
        <time>2012-09-08T12:32:20Z</time>
      </trkpt>
      <trkpt lat="46.75583" lon="4.86693">
        <ele>176.06</ele>
        <time>2012-09-08T12:32:35Z</time>
      </trkpt>
      <trkpt lat="46.75615" lon="4.86627">
        <ele>176.06</ele>
        <time>2012-09-08T12:32:51Z</time>
      </trkpt>
      <trkpt lat="46.75637" lon="4.86581">
        <ele>176.06</ele>
        <time>2012-09-08T12:33:04Z</time>
      </trkpt>
      <trkpt lat="46.75657" lon="4.86546">
        <ele>176.06</ele>
        <time>2012-09-08T12:33:16Z</time>
      </trkpt>
      <trkpt lat="46.75682" lon="4.86501">
        <ele>176.54</ele>
        <time>2012-09-08T12:33:29Z</time>
      </trkpt>
      <trkpt lat="46.75714" lon="4.86445">
        <ele>177.02</ele>
        <time>2012-09-08T12:33:43Z</time>
      </trkpt>
      <trkpt lat="46.75752" lon="4.86378">
        <ele>176.54</ele>
        <time>2012-09-08T12:33:59Z</time>
      </trkpt>
      <trkpt lat="46.75793" lon="4.86302">
        <ele>177.02</ele>
        <time>2012-09-08T12:34:17Z</time>
      </trkpt>
      <trkpt lat="46.75826" lon="4.86231">
        <ele>177.02</ele>
        <time>2012-09-08T12:34:32Z</time>
      </trkpt>
      <trkpt lat="46.7585" lon="4.86152">
        <ele>176.54</ele>
        <time>2012-09-08T12:34:47Z</time>
      </trkpt>
      <trkpt lat="46.75875" lon="4.86049">
        <ele>176.06</ele>
        <time>2012-09-08T12:35:06Z</time>
      </trkpt>
      <trkpt lat="46.759" lon="4.85964">
        <ele>176.06</ele>
        <time>2012-09-08T12:35:22Z</time>
      </trkpt>
      <trkpt lat="46.75924" lon="4.85882">
        <ele>176.54</ele>
        <time>2012-09-08T12:35:39Z</time>
      </trkpt>
      <trkpt lat="46.75936" lon="4.85816">
        <ele>176.06</ele>
        <time>2012-09-08T12:35:52Z</time>
      </trkpt>
      <trkpt lat="46.7595" lon="4.85755">
        <ele>176.06</ele>
        <time>2012-09-08T12:36:05Z</time>
      </trkpt>
      <trkpt lat="46.75965" lon="4.85691">
        <ele>176.06</ele>
        <time>2012-09-08T12:36:18Z</time>
      </trkpt>
      <trkpt lat="46.75981" lon="4.85615">
        <ele>176.06</ele>
        <time>2012-09-08T12:36:32Z</time>
      </trkpt>
      <trkpt lat="46.76004" lon="4.85536">
        <ele>176.54</ele>
        <time>2012-09-08T12:36:49Z</time>
      </trkpt>
      <trkpt lat="46.76032" lon="4.85461">
        <ele>176.54</ele>
        <time>2012-09-08T12:37:04Z</time>
      </trkpt>
      <trkpt lat="46.76052" lon="4.85408">
        <ele>177.5</ele>
        <time>2012-09-08T12:37:19Z</time>
      </trkpt>
      <trkpt lat="46.76055" lon="4.85401">
        <ele>177.5</ele>
        <time>2012-09-08T12:37:22Z</time>
      </trkpt>
      <trkpt lat="46.76056" lon="4.85397">
        <ele>177.5</ele>
        <time>2012-09-08T12:37:35Z</time>
      </trkpt>
      <trkpt lat="46.76056" lon="4.85398">
        <ele>177.5</ele>
        <time>2012-09-08T12:38:05Z</time>
      </trkpt>
      <trkpt lat="46.76057" lon="4.85397">
        <ele>177.5</ele>
        <time>2012-09-08T12:38:33Z</time>
      </trkpt>
      <trkpt lat="46.76056" lon="4.85396">
        <ele>177.5</ele>
        <time>2012-09-08T12:39:06Z</time>
      </trkpt>
      <trkpt lat="46.76057" lon="4.85401">
        <ele>177.5</ele>
        <time>2012-09-08T12:39:19Z</time>
      </trkpt>
      <trkpt lat="46.76057" lon="4.85402">
        <ele>177.5</ele>
        <time>2012-09-08T12:39:53Z</time>
      </trkpt>
      <trkpt lat="46.76058" lon="4.85402">
        <ele>177.5</ele>
        <time>2012-09-08T12:40:30Z</time>
      </trkpt>
      <trkpt lat="46.76058" lon="4.85401">
        <ele>177.5</ele>
        <time>2012-09-08T12:41:02Z</time>
      </trkpt>
      <trkpt lat="46.76058" lon="4.85403">
        <ele>177.5</ele>
        <time>2012-09-08T12:41:40Z</time>
      </trkpt>
      <trkpt lat="46.76057" lon="4.85402">
        <ele>177.5</ele>
        <time>2012-09-08T12:42:12Z</time>
      </trkpt>
      <trkpt lat="46.7606" lon="4.8539">
        <ele>177.5</ele>
        <time>2012-09-08T12:42:24Z</time>
      </trkpt>
      <trkpt lat="46.76077" lon="4.85344">
        <ele>177.02</ele>
        <time>2012-09-08T12:42:38Z</time>
      </trkpt>
      <trkpt lat="46.76095" lon="4.85288">
        <ele>176.54</ele>
        <time>2012-09-08T12:42:51Z</time>
      </trkpt>
      <trkpt lat="46.76092" lon="4.85285">
        <ele>176.54</ele>
        <time>2012-09-08T12:43:04Z</time>
      </trkpt>
      <trkpt lat="46.76093" lon="4.85284">
        <ele>176.54</ele>
        <time>2012-09-08T12:43:36Z</time>
      </trkpt>
      <trkpt lat="46.76094" lon="4.85285">
        <ele>176.54</ele>
        <time>2012-09-08T12:43:40Z</time>
      </trkpt>
      <trkpt lat="46.7611" lon="4.85251">
        <ele>176.54</ele>
        <time>2012-09-08T12:43:50Z</time>
      </trkpt>
      <trkpt lat="46.76112" lon="4.85245">
        <ele>176.54</ele>
        <time>2012-09-08T12:43:51Z</time>
      </trkpt>
      <trkpt lat="46.7613" lon="4.85194">
        <ele>176.54</ele>
        <time>2012-09-08T12:43:59Z</time>
      </trkpt>
      <trkpt lat="46.76142" lon="4.85168">
        <ele>176.54</ele>
        <time>2012-09-08T12:44:03Z</time>
      </trkpt>
      <trkpt lat="46.76144" lon="4.85161">
        <ele>176.54</ele>
        <time>2012-09-08T12:44:04Z</time>
      </trkpt>
      <trkpt lat="46.7615" lon="4.85148">
        <ele>176.54</ele>
        <time>2012-09-08T12:44:06Z</time>
      </trkpt>
      <trkpt lat="46.76163" lon="4.85107">
        <ele>176.54</ele>
        <time>2012-09-08T12:44:12Z</time>
      </trkpt>
      <trkpt lat="46.76188" lon="4.85041">
        <ele>176.54</ele>
        <time>2012-09-08T12:44:22Z</time>
      </trkpt>
      <trkpt lat="46.76193" lon="4.85028">
        <ele>176.54</ele>
        <time>2012-09-08T12:44:24Z</time>
      </trkpt>
      <trkpt lat="46.76209" lon="4.84982">
        <ele>176.54</ele>
        <time>2012-09-08T12:44:31Z</time>
      </trkpt>
      <trkpt lat="46.76214" lon="4.84969">
        <ele>176.54</ele>
        <time>2012-09-08T12:44:33Z</time>
      </trkpt>
      <trkpt lat="46.76253" lon="4.84881">
        <ele>176.54</ele>
        <time>2012-09-08T12:44:47Z</time>
      </trkpt>
      <trkpt lat="46.76257" lon="4.84875">
        <ele>176.54</ele>
        <time>2012-09-08T12:44:48Z</time>
      </trkpt>
      <trkpt lat="46.76294" lon="4.84822">
        <ele>176.54</ele>
        <time>2012-09-08T12:44:58Z</time>
      </trkpt>
      <trkpt lat="46.76297" lon="4.84816">
        <ele>176.54</ele>
        <time>2012-09-08T12:44:59Z</time>
      </trkpt>
      <trkpt lat="46.763" lon="4.84811">
        <ele>176.54</ele>
        <time>2012-09-08T12:45:00Z</time>
      </trkpt>
      <trkpt lat="46.76304" lon="4.84805">
        <ele>176.54</ele>
        <time>2012-09-08T12:45:01Z</time>
      </trkpt>
      <trkpt lat="46.76307" lon="4.848">
        <ele>176.54</ele>
        <time>2012-09-08T12:45:02Z</time>
      </trkpt>
      <trkpt lat="46.76311" lon="4.84795">
        <ele>176.54</ele>
        <time>2012-09-08T12:45:03Z</time>
      </trkpt>
      <trkpt lat="46.76354" lon="4.84726">
        <ele>176.54</ele>
        <time>2012-09-08T12:45:16Z</time>
      </trkpt>
      <trkpt lat="46.76363" lon="4.84714">
        <ele>176.54</ele>
        <time>2012-09-08T12:45:19Z</time>
      </trkpt>
      <trkpt lat="46.76366" lon="4.8471">
        <ele>176.54</ele>
        <time>2012-09-08T12:45:20Z</time>
      </trkpt>
      <trkpt lat="46.7637" lon="4.84707">
        <ele>176.06</ele>
        <time>2012-09-08T12:45:21Z</time>
      </trkpt>
      <trkpt lat="46.76407" lon="4.84658">
        <ele>176.54</ele>
        <time>2012-09-08T12:45:34Z</time>
      </trkpt>
      <trkpt lat="46.76448" lon="4.84613">
        <ele>176.54</ele>
        <time>2012-09-08T12:45:47Z</time>
      </trkpt>
      <trkpt lat="46.76504" lon="4.84557">
        <ele>176.54</ele>
        <time>2012-09-08T12:46:04Z</time>
      </trkpt>
      <trkpt lat="46.76514" lon="4.84546">
        <ele>176.54</ele>
        <time>2012-09-08T12:46:07Z</time>
      </trkpt>
      <trkpt lat="46.76572" lon="4.84493">
        <ele>176.54</ele>
        <time>2012-09-08T12:46:23Z</time>
      </trkpt>
      <trkpt lat="46.76625" lon="4.84447">
        <ele>176.54</ele>
        <time>2012-09-08T12:46:37Z</time>
      </trkpt>
      <trkpt lat="46.76706" lon="4.84402">
        <ele>176.54</ele>
        <time>2012-09-08T12:46:56Z</time>
      </trkpt>
      <trkpt lat="46.76784" lon="4.84375">
        <ele>176.54</ele>
        <time>2012-09-08T12:47:15Z</time>
      </trkpt>
      <trkpt lat="46.76836" lon="4.84361">
        <ele>177.5</ele>
        <time>2012-09-08T12:47:30Z</time>
      </trkpt>
      <trkpt lat="46.76887" lon="4.84357">
        <ele>177.98</ele>
        <time>2012-09-08T12:47:45Z</time>
      </trkpt>
      <trkpt lat="46.76954" lon="4.84356">
        <ele>177.5</ele>
        <time>2012-09-08T12:48:02Z</time>
      </trkpt>
      <trkpt lat="46.77031" lon="4.84369">
        <ele>177.98</ele>
        <time>2012-09-08T12:48:21Z</time>
      </trkpt>
      <trkpt lat="46.77096" lon="4.84384">
        <ele>177.98</ele>
        <time>2012-09-08T12:48:37Z</time>
      </trkpt>
      <trkpt lat="46.77172" lon="4.84408">
        <ele>177.98</ele>
        <time>2012-09-08T12:48:55Z</time>
      </trkpt>
      <trkpt lat="46.77236" lon="4.84431">
        <ele>177.98</ele>
        <time>2012-09-08T12:49:10Z</time>
      </trkpt>
      <trkpt lat="46.77304" lon="4.84461">
        <ele>177.98</ele>
        <time>2012-09-08T12:49:26Z</time>
      </trkpt>
      <trkpt lat="46.7737" lon="4.84494">
        <ele>177.98</ele>
        <time>2012-09-08T12:49:42Z</time>
      </trkpt>
      <trkpt lat="46.77373" lon="4.84498">
        <ele>177.5</ele>
        <time>2012-09-08T12:49:43Z</time>
      </trkpt>
      <trkpt lat="46.77376" lon="4.84502">
        <ele>177.5</ele>
        <time>2012-09-08T12:49:44Z</time>
      </trkpt>
      <trkpt lat="46.77378" lon="4.84507">
        <ele>177.5</ele>
        <time>2012-09-08T12:49:45Z</time>
      </trkpt>
      <trkpt lat="46.77383" lon="4.84519">
        <ele>177.02</ele>
        <time>2012-09-08T12:49:47Z</time>
      </trkpt>
      <trkpt lat="46.77386" lon="4.84523">
        <ele>177.02</ele>
        <time>2012-09-08T12:49:48Z</time>
      </trkpt>
      <trkpt lat="46.7739" lon="4.84527">
        <ele>177.02</ele>
        <time>2012-09-08T12:49:49Z</time>
      </trkpt>
      <trkpt lat="46.77394" lon="4.84529">
        <ele>177.02</ele>
        <time>2012-09-08T12:49:50Z</time>
      </trkpt>
      <trkpt lat="46.77398" lon="4.8453">
        <ele>177.02</ele>
        <time>2012-09-08T12:49:51Z</time>
      </trkpt>
      <trkpt lat="46.77402" lon="4.84531">
        <ele>177.02</ele>
        <time>2012-09-08T12:49:52Z</time>
      </trkpt>
      <trkpt lat="46.77407" lon="4.84531">
        <ele>177.02</ele>
        <time>2012-09-08T12:49:53Z</time>
      </trkpt>
      <trkpt lat="46.77411" lon="4.84532">
        <ele>177.02</ele>
        <time>2012-09-08T12:49:54Z</time>
      </trkpt>
      <trkpt lat="46.77415" lon="4.84533">
        <ele>177.02</ele>
        <time>2012-09-08T12:49:55Z</time>
      </trkpt>
      <trkpt lat="46.77461" lon="4.84567">
        <ele>179.42</ele>
        <time>2012-09-08T12:50:10Z</time>
      </trkpt>
      <trkpt lat="46.77504" lon="4.84604">
        <ele>178.46</ele>
        <time>2012-09-08T12:50:23Z</time>
      </trkpt>
      <trkpt lat="46.77551" lon="4.84659">
        <ele>178.46</ele>
        <time>2012-09-08T12:50:39Z</time>
      </trkpt>
      <trkpt lat="46.77596" lon="4.84718">
        <ele>178.46</ele>
        <time>2012-09-08T12:50:55Z</time>
      </trkpt>
      <trkpt lat="46.7763" lon="4.84775">
        <ele>178.46</ele>
        <time>2012-09-08T12:51:09Z</time>
      </trkpt>
      <trkpt lat="46.7767" lon="4.84846">
        <ele>178.46</ele>
        <time>2012-09-08T12:51:26Z</time>
      </trkpt>
      <trkpt lat="46.77711" lon="4.8492">
        <ele>178.94</ele>
        <time>2012-09-08T12:51:43Z</time>
      </trkpt>
      <trkpt lat="46.77743" lon="4.84975">
        <ele>178.46</ele>
        <time>2012-09-08T12:51:58Z</time>
      </trkpt>
      <trkpt lat="46.7778" lon="4.85048">
        <ele>179.9</ele>
        <time>2012-09-08T12:52:15Z</time>
      </trkpt>
      <trkpt lat="46.77795" lon="4.85089">
        <ele>180.87</ele>
        <time>2012-09-08T12:52:28Z</time>
      </trkpt>
      <trkpt lat="46.77793" lon="4.8509">
        <ele>180.87</ele>
        <time>2012-09-08T12:52:44Z</time>
      </trkpt>
      <trkpt lat="46.77793" lon="4.85091">
        <ele>180.87</ele>
        <time>2012-09-08T12:53:20Z</time>
      </trkpt>
      <trkpt lat="46.77794" lon="4.85093">
        <ele>180.38</ele>
        <time>2012-09-08T12:53:49Z</time>
      </trkpt>
      <trkpt lat="46.77794" lon="4.85096">
        <ele>180.38</ele>
        <time>2012-09-08T12:53:50Z</time>
      </trkpt>
      <trkpt lat="46.77796" lon="4.851">
        <ele>180.38</ele>
        <time>2012-09-08T12:53:51Z</time>
      </trkpt>
      <trkpt lat="46.77822" lon="4.85152">
        <ele>179.42</ele>
        <time>2012-09-08T12:54:01Z</time>
      </trkpt>
      <trkpt lat="46.77836" lon="4.85181">
        <ele>182.31</ele>
        <time>2012-09-08T12:54:11Z</time>
      </trkpt>
      <trkpt lat="46.77839" lon="4.85183">
        <ele>181.35</ele>
        <time>2012-09-08T12:54:13Z</time>
      </trkpt>
      <trkpt lat="46.77841" lon="4.85185">
        <ele>181.35</ele>
        <time>2012-09-08T12:54:14Z</time>
      </trkpt>
      <trkpt lat="46.77843" lon="4.85187">
        <ele>181.83</ele>
        <time>2012-09-08T12:54:15Z</time>
      </trkpt>
      <trkpt lat="46.77844" lon="4.8519">
        <ele>181.35</ele>
        <time>2012-09-08T12:54:16Z</time>
      </trkpt>
      <trkpt lat="46.77846" lon="4.85193">
        <ele>181.35</ele>
        <time>2012-09-08T12:54:17Z</time>
      </trkpt>
      <trkpt lat="46.77847" lon="4.85197">
        <ele>181.35</ele>
        <time>2012-09-08T12:54:18Z</time>
      </trkpt>
      <trkpt lat="46.77875" lon="4.85267">
        <ele>178.94</ele>
        <time>2012-09-08T12:54:34Z</time>
      </trkpt>
      <trkpt lat="46.77898" lon="4.85329">
        <ele>177.98</ele>
        <time>2012-09-08T12:54:48Z</time>
      </trkpt>
      <trkpt lat="46.77913" lon="4.85375">
        <ele>177.98</ele>
        <time>2012-09-08T12:55:01Z</time>
      </trkpt>
      <trkpt lat="46.77915" lon="4.85385">
        <ele>177.98</ele>
        <time>2012-09-08T12:55:16Z</time>
      </trkpt>
      <trkpt lat="46.77915" lon="4.85388">
        <ele>177.98</ele>
        <time>2012-09-08T12:55:45Z</time>
      </trkpt>
      <trkpt lat="46.77925" lon="4.85411">
        <ele>177.98</ele>
        <time>2012-09-08T12:55:58Z</time>
      </trkpt>
      <trkpt lat="46.7794" lon="4.85449">
        <ele>177.98</ele>
        <time>2012-09-08T12:56:10Z</time>
      </trkpt>
      <trkpt lat="46.77942" lon="4.85449">
        <ele>177.98</ele>
        <time>2012-09-08T12:56:11Z</time>
      </trkpt>
      <trkpt lat="46.77944" lon="4.8545">
        <ele>177.98</ele>
        <time>2012-09-08T12:56:13Z</time>
      </trkpt>
      <trkpt lat="46.77944" lon="4.85451">
        <ele>177.98</ele>
        <time>2012-09-08T12:56:14Z</time>
      </trkpt>
      <trkpt lat="46.77959" lon="4.85488">
        <ele>177.98</ele>
        <time>2012-09-08T12:56:25Z</time>
      </trkpt>
      <trkpt lat="46.77983" lon="4.85556">
        <ele>178.46</ele>
        <time>2012-09-08T12:56:41Z</time>
      </trkpt>
      <trkpt lat="46.78007" lon="4.85623">
        <ele>178.46</ele>
        <time>2012-09-08T12:56:55Z</time>
      </trkpt>
      <trkpt lat="46.78034" lon="4.85686">
        <ele>178.94</ele>
        <time>2012-09-08T12:57:08Z</time>
      </trkpt>
      <trkpt lat="46.78036" lon="4.85691">
        <ele>178.94</ele>
        <time>2012-09-08T12:57:09Z</time>
      </trkpt>
      <trkpt lat="46.78066" lon="4.85755">
        <ele>179.9</ele>
        <time>2012-09-08T12:57:23Z</time>
      </trkpt>
      <trkpt lat="46.78082" lon="4.85795">
        <ele>181.83</ele>
        <time>2012-09-08T12:57:35Z</time>
      </trkpt>
      <trkpt lat="46.7809" lon="4.85826">
        <ele>183.27</ele>
        <time>2012-09-08T12:57:48Z</time>
      </trkpt>
      <trkpt lat="46.78089" lon="4.85829">
        <ele>183.27</ele>
        <time>2012-09-08T12:57:59Z</time>
      </trkpt>
      <trkpt lat="46.78088" lon="4.85831">
        <ele>183.27</ele>
        <time>2012-09-08T12:58:00Z</time>
      </trkpt>
      <trkpt lat="46.78087" lon="4.85832">
        <ele>183.27</ele>
        <time>2012-09-08T12:58:01Z</time>
      </trkpt>
      <trkpt lat="46.78086" lon="4.85834">
        <ele>183.27</ele>
        <time>2012-09-08T12:58:02Z</time>
      </trkpt>
      <trkpt lat="46.78085" lon="4.85835">
        <ele>183.75</ele>
        <time>2012-09-08T12:58:03Z</time>
      </trkpt>
      <trkpt lat="46.78065" lon="4.85859">
        <ele>184.71</ele>
        <time>2012-09-08T12:58:22Z</time>
      </trkpt>
      <trkpt lat="46.78045" lon="4.85881">
        <ele>185.19</ele>
        <time>2012-09-08T12:58:40Z</time>
      </trkpt>
      <trkpt lat="46.78022" lon="4.85903">
        <ele>184.23</ele>
        <time>2012-09-08T12:59:00Z</time>
      </trkpt>
      <trkpt lat="46.78007" lon="4.85918">
        <ele>182.79</ele>
        <time>2012-09-08T12:59:19Z</time>
      </trkpt>
      <trkpt lat="46.78005" lon="4.85925">
        <ele>182.79</ele>
        <time>2012-09-08T12:59:26Z</time>
      </trkpt>
      <trkpt lat="46.78005" lon="4.85928">
        <ele>182.79</ele>
        <time>2012-09-08T12:59:27Z</time>
      </trkpt>
      <trkpt lat="46.78005" lon="4.85932">
        <ele>182.79</ele>
        <time>2012-09-08T12:59:28Z</time>
      </trkpt>
      <trkpt lat="46.78006" lon="4.85936">
        <ele>182.79</ele>
        <time>2012-09-08T12:59:29Z</time>
      </trkpt>
      <trkpt lat="46.78007" lon="4.8594">
        <ele>182.79</ele>
        <time>2012-09-08T12:59:30Z</time>
      </trkpt>
      <trkpt lat="46.78008" lon="4.85945">
        <ele>182.79</ele>
        <time>2012-09-08T12:59:31Z</time>
      </trkpt>
      <trkpt lat="46.78018" lon="4.86007">
        <ele>180.87</ele>
        <time>2012-09-08T12:59:40Z</time>
      </trkpt>
      <trkpt lat="46.78006" lon="4.86114">
        <ele>179.42</ele>
        <time>2012-09-08T12:59:53Z</time>
      </trkpt>
      <trkpt lat="46.78007" lon="4.86121">
        <ele>179.9</ele>
        <time>2012-09-08T12:59:54Z</time>
      </trkpt>
      <trkpt lat="46.78008" lon="4.86128">
        <ele>179.9</ele>
        <time>2012-09-08T12:59:55Z</time>
      </trkpt>
      <trkpt lat="46.78014" lon="4.86163">
        <ele>179.42</ele>
        <time>2012-09-08T13:00:00Z</time>
      </trkpt>
      <trkpt lat="46.78004" lon="4.86204">
        <ele>178.94</ele>
        <time>2012-09-08T13:00:09Z</time>
      </trkpt>
      <trkpt lat="46.77951" lon="4.86245">
        <ele>179.42</ele>
        <time>2012-09-08T13:00:23Z</time>
      </trkpt>
      <trkpt lat="46.77923" lon="4.86286">
        <ele>181.35</ele>
        <time>2012-09-08T13:00:37Z</time>
      </trkpt>
      <trkpt lat="46.77906" lon="4.86368">
        <ele>180.38</ele>
        <time>2012-09-08T13:00:55Z</time>
      </trkpt>
      <trkpt lat="46.77906" lon="4.86372">
        <ele>180.38</ele>
        <time>2012-09-08T13:00:56Z</time>
      </trkpt>
      <trkpt lat="46.77908" lon="4.86374">
        <ele>180.38</ele>
        <time>2012-09-08T13:00:57Z</time>
      </trkpt>
      <trkpt lat="46.77909" lon="4.86375">
        <ele>180.38</ele>
        <time>2012-09-08T13:00:58Z</time>
      </trkpt>
      <trkpt lat="46.77911" lon="4.86375">
        <ele>179.9</ele>
        <time>2012-09-08T13:00:59Z</time>
      </trkpt>
      <trkpt lat="46.77913" lon="4.86373">
        <ele>179.9</ele>
        <time>2012-09-08T13:01:00Z</time>
      </trkpt>
      <trkpt lat="46.77915" lon="4.86372">
        <ele>179.9</ele>
        <time>2012-09-08T13:01:01Z</time>
      </trkpt>
      <trkpt lat="46.77916" lon="4.86372">
        <ele>180.38</ele>
        <time>2012-09-08T13:01:02Z</time>
      </trkpt>
      <trkpt lat="46.77917" lon="4.86374">
        <ele>179.9</ele>
        <time>2012-09-08T13:01:03Z</time>
      </trkpt>
      <trkpt lat="46.77918" lon="4.86375">
        <ele>179.9</ele>
        <time>2012-09-08T13:01:04Z</time>
      </trkpt>
      <trkpt lat="46.7792" lon="4.86376">
        <ele>179.9</ele>
        <time>2012-09-08T13:01:05Z</time>
      </trkpt>
      <trkpt lat="46.77923" lon="4.86375">
        <ele>179.42</ele>
        <time>2012-09-08T13:01:06Z</time>
      </trkpt>
      <trkpt lat="46.7793" lon="4.86376">
        <ele>178.94</ele>
        <time>2012-09-08T13:01:08Z</time>
      </trkpt>
      <trkpt lat="46.77935" lon="4.86378">
        <ele>179.42</ele>
        <time>2012-09-08T13:01:09Z</time>
      </trkpt>
      <trkpt lat="46.7798" lon="4.86402">
        <ele>177.98</ele>
        <time>2012-09-08T13:01:22Z</time>
      </trkpt>
      <trkpt lat="46.78012" lon="4.86434">
        <ele>177.98</ele>
        <time>2012-09-08T13:01:33Z</time>
      </trkpt>
      <trkpt lat="46.78042" lon="4.8649">
        <ele>177.98</ele>
        <time>2012-09-08T13:01:44Z</time>
      </trkpt>
      <trkpt lat="46.78084" lon="4.86577">
        <ele>177.02</ele>
        <time>2012-09-08T13:02:00Z</time>
      </trkpt>
      <trkpt lat="46.78111" lon="4.86626">
        <ele>176.06</ele>
        <time>2012-09-08T13:02:10Z</time>
      </trkpt>
      <trkpt lat="46.78115" lon="4.86631">
        <ele>176.06</ele>
        <time>2012-09-08T13:02:11Z</time>
      </trkpt>
      <trkpt lat="46.7813" lon="4.8666">
        <ele>175.1</ele>
        <time>2012-09-08T13:02:17Z</time>
      </trkpt>
      <trkpt lat="46.78129" lon="4.86664">
        <ele>175.1</ele>
        <time>2012-09-08T13:02:18Z</time>
      </trkpt>
      <trkpt lat="46.78124" lon="4.86686">
        <ele>175.1</ele>
        <time>2012-09-08T13:02:23Z</time>
      </trkpt>
      <trkpt lat="46.78126" lon="4.8669">
        <ele>175.58</ele>
        <time>2012-09-08T13:02:24Z</time>
      </trkpt>
      <trkpt lat="46.78128" lon="4.86694">
        <ele>175.58</ele>
        <time>2012-09-08T13:02:25Z</time>
      </trkpt>
      <trkpt lat="46.7813" lon="4.86697">
        <ele>175.58</ele>
        <time>2012-09-08T13:02:26Z</time>
      </trkpt>
      <trkpt lat="46.78133" lon="4.867">
        <ele>175.58</ele>
        <time>2012-09-08T13:02:27Z</time>
      </trkpt>
      <trkpt lat="46.78136" lon="4.86702">
        <ele>175.58</ele>
        <time>2012-09-08T13:02:28Z</time>
      </trkpt>
      <trkpt lat="46.7814" lon="4.86704">
        <ele>175.58</ele>
        <time>2012-09-08T13:02:29Z</time>
      </trkpt>
      <trkpt lat="46.78155" lon="4.86713">
        <ele>175.1</ele>
        <time>2012-09-08T13:02:34Z</time>
      </trkpt>
      <trkpt lat="46.78158" lon="4.86714">
        <ele>175.1</ele>
        <time>2012-09-08T13:02:35Z</time>
      </trkpt>
      <trkpt lat="46.7816" lon="4.86715">
        <ele>175.58</ele>
        <time>2012-09-08T13:02:36Z</time>
      </trkpt>
      <trkpt lat="46.78163" lon="4.86718">
        <ele>175.1</ele>
        <time>2012-09-08T13:02:37Z</time>
      </trkpt>
      <trkpt lat="46.78164" lon="4.86721">
        <ele>175.1</ele>
        <time>2012-09-08T13:02:38Z</time>
      </trkpt>
      <trkpt lat="46.78166" lon="4.86724">
        <ele>175.1</ele>
        <time>2012-09-08T13:02:39Z</time>
      </trkpt>
      <trkpt lat="46.78188" lon="4.86762">
        <ele>177.02</ele>
        <time>2012-09-08T13:02:51Z</time>
      </trkpt>
      <trkpt lat="46.78217" lon="4.86817">
        <ele>177.5</ele>
        <time>2012-09-08T13:03:05Z</time>
      </trkpt>
      <trkpt lat="46.78227" lon="4.86835">
        <ele>177.98</ele>
        <time>2012-09-08T13:03:16Z</time>
      </trkpt>
      <trkpt lat="46.78228" lon="4.86837">
        <ele>177.98</ele>
        <time>2012-09-08T13:03:22Z</time>
      </trkpt>
      <trkpt lat="46.78228" lon="4.86838">
        <ele>177.98</ele>
        <time>2012-09-08T13:03:23Z</time>
      </trkpt>
      <trkpt lat="46.78229" lon="4.8684">
        <ele>177.98</ele>
        <time>2012-09-08T13:03:24Z</time>
      </trkpt>
      <trkpt lat="46.7823" lon="4.86842">
        <ele>177.98</ele>
        <time>2012-09-08T13:03:25Z</time>
      </trkpt>
      <trkpt lat="46.78232" lon="4.86844">
        <ele>177.98</ele>
        <time>2012-09-08T13:03:26Z</time>
      </trkpt>
      <trkpt lat="46.78234" lon="4.86846">
        <ele>177.98</ele>
        <time>2012-09-08T13:03:27Z</time>
      </trkpt>
      <trkpt lat="46.78237" lon="4.86849">
        <ele>177.5</ele>
        <time>2012-09-08T13:03:28Z</time>
      </trkpt>
      <trkpt lat="46.78244" lon="4.86857">
        <ele>177.02</ele>
        <time>2012-09-08T13:03:30Z</time>
      </trkpt>
      <trkpt lat="46.78248" lon="4.86862">
        <ele>177.02</ele>
        <time>2012-09-08T13:03:31Z</time>
      </trkpt>
      <trkpt lat="46.78273" lon="4.86898">
        <ele>175.58</ele>
        <time>2012-09-08T13:03:37Z</time>
      </trkpt>
      <trkpt lat="46.7828" lon="4.8691">
        <ele>175.1</ele>
        <time>2012-09-08T13:03:39Z</time>
      </trkpt>
      <trkpt lat="46.78311" lon="4.86999">
        <ele>176.54</ele>
        <time>2012-09-08T13:03:54Z</time>
      </trkpt>
      <trkpt lat="46.78319" lon="4.87019">
        <ele>176.54</ele>
        <time>2012-09-08T13:03:58Z</time>
      </trkpt>
      <trkpt lat="46.78322" lon="4.87024">
        <ele>176.54</ele>
        <time>2012-09-08T13:03:59Z</time>
      </trkpt>
      <trkpt lat="46.78334" lon="4.87043">
        <ele>176.54</ele>
        <time>2012-09-08T13:04:03Z</time>
      </trkpt>
      <trkpt lat="46.78368" lon="4.87106">
        <ele>176.54</ele>
        <time>2012-09-08T13:04:17Z</time>
      </trkpt>
      <trkpt lat="46.78372" lon="4.87116">
        <ele>176.54</ele>
        <time>2012-09-08T13:04:19Z</time>
      </trkpt>
      <trkpt lat="46.78416" lon="4.87194">
        <ele>177.5</ele>
        <time>2012-09-08T13:04:36Z</time>
      </trkpt>
      <trkpt lat="46.78425" lon="4.87216">
        <ele>178.46</ele>
        <time>2012-09-08T13:04:45Z</time>
      </trkpt>
      <trkpt lat="46.78423" lon="4.87219">
        <ele>178.46</ele>
        <time>2012-09-08T13:04:47Z</time>
      </trkpt>
      <trkpt lat="46.78422" lon="4.87225">
        <ele>178.46</ele>
        <time>2012-09-08T13:04:50Z</time>
      </trkpt>
      <trkpt lat="46.78423" lon="4.87228">
        <ele>178.46</ele>
        <time>2012-09-08T13:04:51Z</time>
      </trkpt>
      <trkpt lat="46.78424" lon="4.87231">
        <ele>178.46</ele>
        <time>2012-09-08T13:04:52Z</time>
      </trkpt>
      <trkpt lat="46.78426" lon="4.87233">
        <ele>178.94</ele>
        <time>2012-09-08T13:04:53Z</time>
      </trkpt>
      <trkpt lat="46.78427" lon="4.87235">
        <ele>178.94</ele>
        <time>2012-09-08T13:04:54Z</time>
      </trkpt>
      <trkpt lat="46.78428" lon="4.87238">
        <ele>178.94</ele>
        <time>2012-09-08T13:04:55Z</time>
      </trkpt>
      <trkpt lat="46.78428" lon="4.8724">
        <ele>178.94</ele>
        <time>2012-09-08T13:04:56Z</time>
      </trkpt>
      <trkpt lat="46.78429" lon="4.87242">
        <ele>178.94</ele>
        <time>2012-09-08T13:04:57Z</time>
      </trkpt>
      <trkpt lat="46.78429" lon="4.87243">
        <ele>178.94</ele>
        <time>2012-09-08T13:04:58Z</time>
      </trkpt>
      <trkpt lat="46.78428" lon="4.87247">
        <ele>178.94</ele>
        <time>2012-09-08T13:05:09Z</time>
      </trkpt>
      <trkpt lat="46.78426" lon="4.87248">
        <ele>178.94</ele>
        <time>2012-09-08T13:05:57Z</time>
      </trkpt>
      <trkpt lat="46.78427" lon="4.87248">
        <ele>179.42</ele>
        <time>2012-09-08T13:06:46Z</time>
      </trkpt>
      <trkpt lat="46.78426" lon="4.87245">
        <ele>179.42</ele>
        <time>2012-09-08T13:07:34Z</time>
      </trkpt>
      <trkpt lat="46.78425" lon="4.87245">
        <ele>179.42</ele>
        <time>2012-09-08T13:08:20Z</time>
      </trkpt>
      <trkpt lat="46.78425" lon="4.87245">
        <ele>179.42</ele>
        <time>2012-09-08T13:09:04Z</time>
      </trkpt>
      <trkpt lat="46.78426" lon="4.87246">
        <ele>178.94</ele>
        <time>2012-09-08T13:09:47Z</time>
      </trkpt>
      <trkpt lat="46.78427" lon="4.87241">
        <ele>179.42</ele>
        <time>2012-09-08T13:10:04Z</time>
      </trkpt>
      <trkpt lat="46.78428" lon="4.8724">
        <ele>179.42</ele>
        <time>2012-09-08T13:10:21Z</time>
      </trkpt>
      <trkpt lat="46.78427" lon="4.87238">
        <ele>178.94</ele>
        <time>2012-09-08T13:10:26Z</time>
      </trkpt>
      <trkpt lat="46.78426" lon="4.87236">
        <ele>178.94</ele>
        <time>2012-09-08T13:10:27Z</time>
      </trkpt>
      <trkpt lat="46.78426" lon="4.87233">
        <ele>179.42</ele>
        <time>2012-09-08T13:10:28Z</time>
      </trkpt>
      <trkpt lat="46.78426" lon="4.87231">
        <ele>178.94</ele>
        <time>2012-09-08T13:10:29Z</time>
      </trkpt>
      <trkpt lat="46.78428" lon="4.87229">
        <ele>178.94</ele>
        <time>2012-09-08T13:10:30Z</time>
      </trkpt>
      <trkpt lat="46.78429" lon="4.87228">
        <ele>178.46</ele>
        <time>2012-09-08T13:10:31Z</time>
      </trkpt>
      <trkpt lat="46.78431" lon="4.8723">
        <ele>178.46</ele>
        <time>2012-09-08T13:10:32Z</time>
      </trkpt>
      <trkpt lat="46.78432" lon="4.87232">
        <ele>178.46</ele>
        <time>2012-09-08T13:10:33Z</time>
      </trkpt>
      <trkpt lat="46.78434" lon="4.87235">
        <ele>178.46</ele>
        <time>2012-09-08T13:10:34Z</time>
      </trkpt>
      <trkpt lat="46.78435" lon="4.87238">
        <ele>178.46</ele>
        <time>2012-09-08T13:10:35Z</time>
      </trkpt>
      <trkpt lat="46.78466" lon="4.87298">
        <ele>177.5</ele>
        <time>2012-09-08T13:10:49Z</time>
      </trkpt>
      <trkpt lat="46.78493" lon="4.87346">
        <ele>177.98</ele>
        <time>2012-09-08T13:11:01Z</time>
      </trkpt>
      <trkpt lat="46.7853" lon="4.87417">
        <ele>177.5</ele>
        <time>2012-09-08T13:11:18Z</time>
      </trkpt>
      <trkpt lat="46.78531" lon="4.87421">
        <ele>177.98</ele>
        <time>2012-09-08T13:11:19Z</time>
      </trkpt>
      <trkpt lat="46.78531" lon="4.87426">
        <ele>177.98</ele>
        <time>2012-09-08T13:11:20Z</time>
      </trkpt>
      <trkpt lat="46.7853" lon="4.8743">
        <ele>177.5</ele>
        <time>2012-09-08T13:11:21Z</time>
      </trkpt>
      <trkpt lat="46.78528" lon="4.87433">
        <ele>177.98</ele>
        <time>2012-09-08T13:11:22Z</time>
      </trkpt>
      <trkpt lat="46.78527" lon="4.87437">
        <ele>177.98</ele>
        <time>2012-09-08T13:11:23Z</time>
      </trkpt>
      <trkpt lat="46.78524" lon="4.8744">
        <ele>177.98</ele>
        <time>2012-09-08T13:11:24Z</time>
      </trkpt>
      <trkpt lat="46.78522" lon="4.87443">
        <ele>177.98</ele>
        <time>2012-09-08T13:11:25Z</time>
      </trkpt>
      <trkpt lat="46.78521" lon="4.87472">
        <ele>177.98</ele>
        <time>2012-09-08T13:11:35Z</time>
      </trkpt>
      <trkpt lat="46.78523" lon="4.87471">
        <ele>177.5</ele>
        <time>2012-09-08T13:11:36Z</time>
      </trkpt>
      <trkpt lat="46.78523" lon="4.87469">
        <ele>177.5</ele>
        <time>2012-09-08T13:11:37Z</time>
      </trkpt>
      <trkpt lat="46.78522" lon="4.87468">
        <ele>177.5</ele>
        <time>2012-09-08T13:11:38Z</time>
      </trkpt>
      <trkpt lat="46.78521" lon="4.87466">
        <ele>177.5</ele>
        <time>2012-09-08T13:11:39Z</time>
      </trkpt>
      <trkpt lat="46.7852" lon="4.87464">
        <ele>177.98</ele>
        <time>2012-09-08T13:11:40Z</time>
      </trkpt>
      <trkpt lat="46.78519" lon="4.87461">
        <ele>177.5</ele>
        <time>2012-09-08T13:11:41Z</time>
      </trkpt>
      <trkpt lat="46.78518" lon="4.87457">
        <ele>177.98</ele>
        <time>2012-09-08T13:11:42Z</time>
      </trkpt>
      <trkpt lat="46.78518" lon="4.87453">
        <ele>177.98</ele>
        <time>2012-09-08T13:11:43Z</time>
      </trkpt>
      <trkpt lat="46.78519" lon="4.8745">
        <ele>177.98</ele>
        <time>2012-09-08T13:11:44Z</time>
      </trkpt>
      <trkpt lat="46.78521" lon="4.87447">
        <ele>177.98</ele>
        <time>2012-09-08T13:11:45Z</time>
      </trkpt>
      <trkpt lat="46.78523" lon="4.87444">
        <ele>177.98</ele>
        <time>2012-09-08T13:11:46Z</time>
      </trkpt>
      <trkpt lat="46.78525" lon="4.87441">
        <ele>177.98</ele>
        <time>2012-09-08T13:11:47Z</time>
      </trkpt>
      <trkpt lat="46.78534" lon="4.8743">
        <ele>177.5</ele>
        <time>2012-09-08T13:11:51Z</time>
      </trkpt>
      <trkpt lat="46.78537" lon="4.87432">
        <ele>177.5</ele>
        <time>2012-09-08T13:11:52Z</time>
      </trkpt>
      <trkpt lat="46.78539" lon="4.87435">
        <ele>177.5</ele>
        <time>2012-09-08T13:11:53Z</time>
      </trkpt>
      <trkpt lat="46.78541" lon="4.87439">
        <ele>177.5</ele>
        <time>2012-09-08T13:11:54Z</time>
      </trkpt>
      <trkpt lat="46.78542" lon="4.87443">
        <ele>177.5</ele>
        <time>2012-09-08T13:11:55Z</time>
      </trkpt>
      <trkpt lat="46.78564" lon="4.87491">
        <ele>177.5</ele>
        <time>2012-09-08T13:12:08Z</time>
      </trkpt>
      <trkpt lat="46.78564" lon="4.87494">
        <ele>177.5</ele>
        <time>2012-09-08T13:12:09Z</time>
      </trkpt>
      <trkpt lat="46.78562" lon="4.87496">
        <ele>177.5</ele>
        <time>2012-09-08T13:12:10Z</time>
      </trkpt>
      <trkpt lat="46.78562" lon="4.87497">
        <ele>177.5</ele>
        <time>2012-09-08T13:12:21Z</time>
      </trkpt>
      <trkpt lat="46.78573" lon="4.87505">
        <ele>177.5</ele>
        <time>2012-09-08T13:12:27Z</time>
      </trkpt>
      <trkpt lat="46.78593" lon="4.87547">
        <ele>177.02</ele>
        <time>2012-09-08T13:12:40Z</time>
      </trkpt>
      <trkpt lat="46.78592" lon="4.8754">
        <ele>177.02</ele>
        <time>2012-09-08T13:12:47Z</time>
      </trkpt>
      <trkpt lat="46.78584" lon="4.87546">
        <ele>177.5</ele>
        <time>2012-09-08T13:12:56Z</time>
      </trkpt>
      <trkpt lat="46.78584" lon="4.87545">
        <ele>174.62</ele>
        <time>2012-09-08T13:13:11Z</time>
      </trkpt>
      <trkpt lat="46.78584" lon="4.87545">
        <ele>179.42</ele>
        <time>2012-09-08T13:13:12Z</time>
      </trkpt>
      <trkpt lat="46.78584" lon="4.87545">
        <ele>177.5</ele>
        <time>2012-09-08T13:13:15Z</time>
      </trkpt>
    </trkseg>
  </trk>
</gpx>